
Distance (Route):
Temperature : 15.1°C
Humidity : 93%
Pressure : 1007.6hPa| Receiver | Frames | First received | Last received |
|---|---|---|---|
| BIOWL1-15 | 762 | 2026-09-01 03:48:14 | 2026-09-01 06:01:36 |
| DL1XH-west | 730 | 2026-09-01 03:53:37 | 2026-09-01 06:00:11 |
| DO2JMG | 543 | 2026-09-01 04:04:51 | 2026-09-01 05:57:38 |
| AA1-15 | 424 | 2026-09-01 04:13:27 | 2026-09-01 05:53:46 |
| DM0DOS-11 | 376 | 2026-09-01 03:46:31 | 2026-09-01 06:01:39 |
| DL1XH1-15 | 359 | 2026-09-01 03:53:17 | 2026-09-01 05:59:07 |
| HSKMA3-T | 353 | 2026-09-01 04:28:30 | 2026-09-01 05:52:43 |
| GOEST3-10 | 309 | 2026-09-01 03:50:37 | 2026-09-01 06:00:07 |
| DB0DAN | 289 | 2026-09-01 04:02:25 | 2026-09-01 06:00:10 |
| DL1XH-15 | 270 | 2026-09-01 04:04:16 | 2026-09-01 05:58:05 |
| DF8AY | 228 | 2026-09-01 04:33:37 | 2026-09-01 05:50:30 |
| DO2SHX-10 | 183 | 2026-09-01 04:24:57 | 2026-09-01 05:45:32 |
| DD8BA-10 | 133 | 2026-09-01 03:48:07 | 2026-09-01 06:01:06 |
| DL3AQ-11 | 97 | 2026-09-01 04:00:59 | 2026-09-01 05:59:00 |
| DF5WG-10 | 93 | 2026-09-01 03:56:11 | 2026-09-01 05:56:12 |
| DJ2DS-15 | 81 | 2026-09-01 03:47:56 | 2026-09-01 06:00:18 |
| DL1NUX | 76 | 2026-09-01 04:32:13 | 2026-09-01 05:48:03 |
| DL4XJ-10 | 65 | 2026-09-01 04:26:22 | 2026-09-01 05:59:02 |
| DO9LL-15 | 57 | 2026-09-01 03:47:56 | 2026-09-01 05:58:30 |
| DL4BBY-15 | 49 | 2026-09-01 03:48:09 | 2026-09-01 06:01:16 |
| DB0UT-7 | 47 | 2026-09-01 04:00:46 | 2026-09-01 05:54:21 |
| DO3DL | 44 | 2026-09-01 04:09:24 | 2026-09-01 05:51:08 |
| BIOWL9-15 | 34 | 2026-09-01 03:50:08 | 2026-09-01 05:45:30 |
| BIOWL7-15 | 32 | 2026-09-01 03:47:54 | 2026-09-01 05:59:01 |
| DC6BW-12 | 32 | 2026-09-01 03:48:02 | 2026-09-01 05:58:12 |
| HTAHTA | 30 | 2026-09-01 03:51:55 | 2026-09-01 05:56:06 |
| DF4FW | 28 | 2026-09-01 03:54:03 | 2026-09-01 05:41:41 |
| BUE01 | 27 | 2026-09-01 04:04:59 | 2026-09-01 05:58:20 |
| DL1CLM-18 | 24 | 2026-09-01 03:48:55 | 2026-09-01 06:00:47 |
| DB0NH | 24 | 2026-09-01 04:31:03 | 2026-09-01 05:45:33 |
| DD1CC2-15 | 22 | 2026-09-01 03:56:46 | 2026-09-01 05:54:26 |
| DD1CC3-15 | 22 | 2026-09-01 03:57:24 | 2026-09-01 05:54:51 |
| SONCRA | 22 | 2026-09-01 04:13:52 | 2026-09-01 05:43:56 |
| SONDE2-11 | 21 | 2026-09-01 04:31:17 | 2026-09-01 05:41:39 |
| EDDB2-12 | 20 | 2026-09-01 04:46:56 | 2026-09-01 05:49:31 |
| DL1LOL-11 | 18 | 2026-09-01 03:46:19 | 2026-09-01 06:01:00 |
| DD1CC8 | 18 | 2026-09-01 04:12:05 | 2026-09-01 05:50:57 |
| SMARD9-15 | 17 | 2026-09-01 04:18:53 | 2026-09-01 05:47:25 |
| DK9SH | 16 | 2026-09-01 03:52:20 | 2026-09-01 05:57:12 |
| D01LWL | 16 | 2026-09-01 04:25:46 | 2026-09-01 05:53:45 |
| DK5PH-5 | 15 | 2026-09-01 05:06:14 | 2026-09-01 05:41:16 |
| DB0ND-19 | 13 | 2026-09-01 04:38:16 | 2026-09-01 05:44:59 |
| SMARD9-10 | 10 | 2026-09-01 04:09:35 | 2026-09-01 05:54:57 |
| SO1NDE-10 | 10 | 2026-09-01 04:32:11 | 2026-09-01 04:56:59 |
| DL3OBA | 10 | 2026-09-01 04:39:43 | 2026-09-01 05:36:11 |
| DO2LYB-13 | 10 | 2026-09-01 04:46:52 | 2026-09-01 06:01:06 |
| DD1CC9-15 | 9 | 2026-09-01 04:09:23 | 2026-09-01 05:34:29 |
| DL8OAI-8 | 9 | 2026-09-01 04:34:45 | 2026-09-01 05:54:02 |
| DF7PN | 9 | 2026-09-01 05:01:45 | 2026-09-01 05:32:49 |
| DL8DAS-14 | 8 | 2026-09-01 04:40:57 | 2026-09-01 05:25:56 |
| DO1YAY-16 | 8 | 2026-09-01 05:16:46 | 2026-09-01 05:37:59 |
| DO2KSM | 7 | 2026-09-01 04:49:45 | 2026-09-01 05:37:26 |
| AM1SDL-15 | 7 | 2026-09-01 04:56:14 | 2026-09-01 05:50:04 |
| DJ8HS-15 | 7 | 2026-09-01 05:15:16 | 2026-09-01 05:40:01 |
| DL1ZP-14 | 6 | 2026-09-01 05:01:58 | 2026-09-01 05:43:55 |
| MET0W-2 | 5 | 2026-09-01 03:57:46 | 2026-09-01 04:31:56 |
| DF8AY-15 | 5 | 2026-09-01 05:31:28 | 2026-09-01 05:41:42 |
| DO3MHA-11 | 4 | 2026-09-01 05:13:34 | 2026-09-01 05:37:07 |
| AP2371 | 3 | 2026-09-01 04:59:14 | 2026-09-01 05:49:11 |
| EDDB2-11 | 3 | 2026-09-01 05:19:59 | 2026-09-01 05:38:05 |
| WEDDY | 2 | 2026-09-01 04:31:13 | 2026-09-01 04:40:29 |
| S3001 | 2 | 2026-09-01 05:33:13 | 2026-09-01 05:34:15 |
| DJTTGO | 1 | 2026-09-01 05:26:56 | 2026-09-01 05:26:56 |
| DL8DAS-15 | 1 | 2026-09-01 05:32:41 | 2026-09-01 05:32:41 |
| DD1CC1-15 | 1 | 2026-09-01 05:41:56 | 2026-09-01 05:41:56 |
| Receiver | Date | Latitude | Longitude | Direction | Speed | Altitude | Climb | Temperature | Humidity | Pressure | Voltage | Killtimer | Uptime | BKT | XDATA |
|---|---|---|---|---|---|---|---|---|---|---|---|---|---|---|---|
| DM0DOS-11 | 2026-09-01 06:01:39 | 52.68935 | 8.61688 | 54° | 18km/h | 104m | -11m/s | 15.1°C | 93% | 1007.6hPa | 2.6V | 08:03:37 | 02:29:57 | 00:00:00 | |
| BIOWL1-15 | 2026-09-01 06:01:36 | 52.68930 | 8.61675 | 57° | 20km/h | 126m | -10.4m/s | 14.9°C | 97.8% | 1005hPa | 2.7V | 08:03:58 | 02:29:55 | 00:00:00 | |
| BIOWL1-15 | 2026-09-01 06:01:35 | 52.68927 | 8.61667 | 60° | 22km/h | 136m | -10.5m/s | 14.8°C | 98.1% | 1003.8hPa | 2.7V | 08:03:58 | 02:29:54 | 00:00:00 | |
| DM0DOS-11 | 2026-09-01 06:01:33 | 52.68919 | 8.61642 | 58° | 24km/h | 168m | -11m/s | 14.6°C | 94.9% | 1000.1hPa | 2.7V | 08:03:43 | 02:29:51 | 00:00:00 | |
| DM0DOS-11 | 2026-09-01 06:01:33 | 52.68906 | 8.61606 | 62° | 29km/h | 210m | -10.7m/s | 14.3°C | 96.6% | 995.2hPa | 2.6V | 08:03:47 | 02:29:47 | 00:00:00 | |
| BIOWL1-15 | 2026-09-01 06:01:33 | 52.68922 | 8.61651 | 65° | 22km/h | 157m | -10.6m/s | 14.6°C | 98.7% | 1001.3hPa | 2.7V | 08:03:58 | 02:29:52 | 00:00:00 | |
| BIOWL1-15 | 2026-09-01 06:01:32 | 52.68919 | 8.61642 | 59° | 24km/h | 168m | -11m/s | 14.6°C | 98.8% | 1000.1hPa | 2.7V | 08:03:58 | 02:29:51 | 00:00:00 | |
| BIOWL1-15 | 2026-09-01 06:01:31 | 52.68886 | 8.61522 | 76° | 35km/h | 287m | -10.8m/s | 14°C | 100% | 986.2hPa | 2.7V | 08:03:58 | 02:29:40 | 00:00:00 | |
| BIOWL1-15 | 2026-09-01 06:01:30 | 52.68884 | 8.61508 | 78° | 35km/h | 297m | -10.5m/s | 14°C | 100% | 984.9hPa | 2.6V | 08:03:58 | 02:29:39 | 00:00:00 | |
| DM0DOS-11 | 2026-09-01 06:01:27 | 52.68893 | 8.61561 | 72° | 31km/h | 254m | -11.1m/s | 14.2°C | 96.4% | 989.9hPa | 2.7V | 08:03:51 | 02:29:43 | 00:00:00 | |
| DM0DOS-11 | 2026-09-01 06:01:27 | 52.68888 | 8.61535 | 72° | 35km/h | 276m | -11.3m/s | 14.2°C | 96.7% | 987.5hPa | 2.7V | 08:03:53 | 02:29:41 | 00:00:00 | |
| BIOWL1-15 | 2026-09-01 06:01:26 | 52.68882 | 8.61494 | 78° | 33km/h | 307m | -10.6m/s | 14°C | 100% | 983.7hPa | 2.6V | 08:03:58 | 02:29:38 | 00:00:00 | |
| BIOWL1-15 | 2026-09-01 06:01:22 | 52.68880 | 8.61481 | 78° | 33km/h | 318m | -10.9m/s | 14°C | 100% | 982.5hPa | 2.7V | 08:03:58 | 02:29:37 | 00:00:00 | |
| DM0DOS-11 | 2026-09-01 06:01:21 | 52.68884 | 8.61508 | 77° | 35km/h | 297m | -10.5m/s | 14°C | 97.8% | 984.9hPa | 2.6V | 08:03:55 | 02:29:39 | 00:00:00 | |
| DM0DOS-11 | 2026-09-01 06:01:21 | 52.68880 | 8.61481 | 78° | 33km/h | 318m | -10.9m/s | 14°C | 97.6% | 982.5hPa | 2.7V | 08:03:57 | 02:29:37 | 00:00:00 | |
| BIOWL1-15 | 2026-09-01 06:01:16 | 52.68876 | 8.61438 | 88° | 35km/h | 350m | -11.1m/s | 14.4°C | 100% | 979hPa | 2.7V | 08:04:49 | 02:29:34 | 00:00:00 | |
| BIOWL1-15 | 2026-09-01 06:01:16 | 52.68876 | 8.61423 | 91° | 35km/h | 361m | -11.2m/s | 14.5°C | 100% | 977.6hPa | 2.7V | 08:04:49 | 02:29:33 | 00:00:00 | |
| DL4BBY-15 | 2026-09-01 06:01:16 | 52.68877 | 8.61452 | 84° | 37km/h | 339m | -10.8m/s | 10.9°C | 0% | 0hPa | 2.7V | 00:00:00 | 00:00:00 | 00:00:00 | |
| DM0DOS-11 | 2026-09-01 06:01:15 | 52.68876 | 8.61423 | 91° | 35km/h | 361m | -11.2m/s | 14.5°C | 94.5% | 977.6hPa | 2.7V | 08:04:01 | 02:29:33 | 00:00:00 | |
| DM0DOS-11 | 2026-09-01 06:01:15 | 52.68877 | 8.61366 | 91° | 33km/h | 405m | -11.6m/s | 14.9°C | 91.1% | 972.4hPa | 2.7V | 08:04:05 | 02:29:29 | 00:00:00 | |
| BIOWL1-15 | 2026-09-01 06:01:12 | 52.68877 | 8.61380 | 92° | 37km/h | 394m | -11.4m/s | 15°C | 97.9% | 973.8hPa | 2.6V | 08:04:49 | 02:29:30 | 00:00:00 | |
| BIOWL1-15 | 2026-09-01 06:01:12 | 52.68878 | 8.61366 | 91° | 33km/h | 405m | -11.6m/s | 14.9°C | 98.3% | 972.4hPa | 2.7V | 08:04:49 | 02:29:29 | 00:00:00 | |
| DL4BBY-15 | 2026-09-01 06:01:12 | 52.68877 | 8.61395 | 94° | 35km/h | 384m | -11.5m/s | 11.9°C | 0% | 0hPa | 2.7V | 00:00:00 | 00:00:00 | 00:00:00 | |
| DM0DOS-11 | 2026-09-01 06:01:10 | 52.68879 | 8.61338 | 93° | 35km/h | 428m | -11.8m/s | 14.7°C | 92% | 969.7hPa | 2.7V | 08:04:07 | 02:29:27 | 00:00:00 | |
| BIOWL1-15 | 2026-09-01 06:01:09 | 52.68878 | 8.61352 | 97° | 33km/h | 417m | -11.8m/s | 14.8°C | 98.5% | 971.1hPa | 2.7V | 08:04:49 | 02:29:28 | 00:00:00 | |
| BIOWL1-15 | 2026-09-01 06:01:07 | 52.68879 | 8.61324 | 92° | 35km/h | 440m | -11.4m/s | 14.6°C | 99.3% | 968.6hPa | 2.7V | 08:04:49 | 02:29:26 | 00:00:00 | |
| DO2LYB-13 | 2026-09-01 06:01:06 | 52.68879 | 8.61323 | 93° | 35km/h | 440m | -11.4m/s | 14.6°C | 93.4% | 968.6hPa | 2.7V | 00:00:00 | 00:00:00 | 00:00:00 | |
| DD8BA-10 | 2026-09-01 06:01:06 | 52.68880 | 8.61310 | 93° | 35km/h | 450m | -11.2m/s | 14.5°C | 92.8% | 967.0hPa | 2.7V | 08:04:00 | 00:00:00 | 00:00:00 | |
| DL4BBY-15 | 2026-09-01 06:01:06 | 52.68880 | 8.61310 | 93° | 33km/h | 450m | -11.2m/s | 11.4°C | 0% | 0hPa | 2.7V | 00:00:00 | 00:00:00 | 00:00:00 | |
| DM0DOS-11 | 2026-09-01 06:01:05 | 52.68881 | 8.61253 | 92° | 33km/h | 496m | -11.4m/s | 14.1°C | 94.2% | 962hPa | 2.7V | 08:04:13 | 02:29:21 | 00:00:00 | |
| BIOWL1-15 | 2026-09-01 06:01:05 | 52.68880 | 8.61296 | 96° | 35km/h | 461m | -11.9m/s | 14.4°C | 99.8% | 966.1hPa | 2.7V | 08:04:49 | 02:29:24 | 00:00:00 | |
| BIOWL1-15 | 2026-09-01 06:01:03 | 52.68881 | 8.61267 | 91° | 35km/h | 484m | -11.8m/s | 14.2°C | 100% | 963.2hPa | 2.6V | 08:04:49 | 02:29:22 | 00:00:00 | |
| BIOWL1-15 | 2026-09-01 06:01:01 | 52.68882 | 8.61225 | 92° | 37km/h | 518m | -11.5m/s | 13.9°C | 100% | 959.5hPa | 2.7V | 08:04:49 | 02:29:19 | 00:00:00 | |
| BIOWL1-15 | 2026-09-01 06:01:01 | 52.68882 | 8.61210 | 90° | 35km/h | 529m | -11.5m/s | 13.9°C | 100% | 958hPa | 2.7V | 08:04:49 | 02:29:18 | 00:00:00 | |
| DL1LOL-11 | 2026-09-01 06:01:00 | 52.68882 | 8.61239 | 96° | 35km/h | 507m | -11.7m/s | 14.0°C | 94.8% | 960.7hPa | 2.6V | 00:00:00 | 00:00:00 | 00:00:00 | |
| DL4BBY-15 | 2026-09-01 06:01:00 | 52.68882 | 8.61225 | 93° | 35km/h | 518m | -11.5m/s | 10.8°C | 0% | 0hPa | 2.6V | 00:00:00 | 00:00:00 | 00:00:00 | |
| DD8BA-10 | 2026-09-01 06:01:00 | 52.68882 | 8.61225 | 93° | 35km/h | 518m | -11.5m/s | 13.9°C | 94.9% | 959.4hPa | 2.6V | 00:00:00 | 00:00:00 | 00:00:00 | |
| DM0DOS-11 | 2026-09-01 06:00:59 | 52.68883 | 8.61196 | 94° | 33km/h | 541m | -11.3m/s | 13.7°C | 95.1% | 956.7hPa | 2.6V | 08:04:17 | 02:29:17 | 00:00:00 | |
| DM0DOS-11 | 2026-09-01 06:00:59 | 52.68884 | 8.61167 | 92° | 37km/h | 563m | -11.4m/s | 13.6°C | 95.4% | 954.1hPa | 2.7V | 08:04:19 | 02:29:15 | 00:00:00 | |
| BIOWL1-15 | 2026-09-01 06:00:57 | 52.68884 | 8.61167 | 93° | 37km/h | 563m | -11.5m/s | 13.6°C | 100% | 954.1hPa | 2.7V | 08:04:49 | 02:29:15 | 00:00:00 | |
| BIOWL1-15 | 2026-09-01 06:00:57 | 52.68885 | 8.61152 | 93° | 35km/h | 575m | -11.5m/s | 13.6°C | 99.9% | 953.1hPa | 2.7V | 08:04:49 | 02:29:14 | 00:00:00 | |
| BIOWL1-15 | 2026-09-01 06:00:53 | 52.68889 | 8.61092 | 92° | 37km/h | 620m | -11.7m/s | 13.5°C | 93.7% | 947.7hPa | 2.7V | 08:04:49 | 02:29:10 | 00:00:00 | |
| DM0DOS-11 | 2026-09-01 06:00:53 | 52.68888 | 8.61107 | 94° | 38km/h | 608m | -11.7m/s | 13.5°C | 89.3% | 949.1hPa | 2.7V | 08:04:23 | 02:29:11 | 00:00:00 | |
| DM0DOS-11 | 2026-09-01 06:00:53 | 52.68889 | 8.61077 | 97° | 37km/h | 632m | -11.8m/s | 13.4°C | 85.7% | 946.7hPa | 2.7V | 08:04:25 | 02:29:09 | 00:00:00 | |
| DM0DOS-11 | 2026-09-01 06:00:53 | 52.68891 | 8.61045 | 92° | 38km/h | 655m | -11.4m/s | 13.3°C | 83.6% | 944hPa | 2.6V | 08:04:27 | 02:29:07 | 00:00:00 | |
| BIOWL1-15 | 2026-09-01 06:00:53 | 52.68889 | 8.61077 | 97° | 37km/h | 632m | -11.8m/s | 13.4°C | 92.7% | 946.7hPa | 2.7V | 08:04:49 | 02:29:09 | 00:00:00 | |
| DL4BBY-15 | 2026-09-01 06:00:52 | 52.68888 | 8.61107 | 95° | 37km/h | 608m | -11.7m/s | 10.4°C | 0% | 0hPa | 2.6V | 00:00:00 | 00:00:00 | 00:00:00 | |
| DD8BA-10 | 2026-09-01 06:00:51 | 52.68888 | 8.61092 | 93° | 37km/h | 620m | -11.7m/s | 13.4°C | 86.8% | 947.6hPa | 2.6V | 00:00:00 | 00:00:00 | 00:00:00 | |
| DL4BBY-15 | 2026-09-01 06:00:50 | 52.68889 | 8.61077 | 98° | 38km/h | 632m | -11.7m/s | 10.3°C | 0% | 0hPa | 2.6V | 00:00:00 | 00:00:00 | 00:00:00 | |
| DD8BA-10 | 2026-09-01 06:00:48 | 52.68891 | 8.61045 | 93° | 37km/h | 655m | -11.4m/s | 13.3°C | 83.6% | 944.0hPa | 2.6V | 00:00:00 | 00:00:00 | 00:00:00 | |
| BIOWL1-15 | 2026-09-01 06:00:48 | 52.68891 | 8.61045 | 92° | 38km/h | 655m | -11.5m/s | 13.4°C | 90.8% | 944hPa | 2.6V | 08:04:49 | 02:29:07 | 00:00:00 | |
| DL4BBY-15 | 2026-09-01 06:00:48 | 52.68891 | 8.61045 | 93° | 37km/h | 655m | -11.4m/s | 10.2°C | 0% | 0hPa | 2.7V | 00:00:00 | 00:00:00 | 00:00:00 | |
| DL1CLM-18 | 2026-09-01 06:00:47 | 52.68891 | 8.61045 | 93° | 38km/h | 655m | -11.5m/s | 13.4°C | 84.6% | 944.0hPa | 2.7V | 00:00:00 | 00:00:00 | 00:00:00 | |
| DM0DOS-11 | 2026-09-01 06:00:47 | 52.68895 | 8.60952 | 93° | 40km/h | 722m | -11.8m/s | 12.9°C | 82.8% | 936.4hPa | 2.7V | 08:04:33 | 02:29:01 | 00:00:00 | |
| BIOWL1-15 | 2026-09-01 06:00:47 | 52.68891 | 8.61030 | 94° | 37km/h | 666m | -11.3m/s | 13.3°C | 90.2% | 942.8hPa | 2.6V | 08:04:49 | 02:29:06 | 00:00:00 | |
| BIOWL1-15 | 2026-09-01 06:00:45 | 52.68893 | 8.60983 | 92° | 37km/h | 699m | -11.6m/s | 13.1°C | 88.5% | 939hPa | 2.7V | 08:04:49 | 02:29:03 | 00:00:00 | |
| BIOWL1-15 | 2026-09-01 06:00:45 | 52.68894 | 8.60968 | 97° | 37km/h | 711m | -12m/s | 13°C | 88.9% | 937.8hPa | 2.7V | 08:04:49 | 02:29:02 | 00:00:00 | |
| BIOWL1-15 | 2026-09-01 06:00:42 | 52.68897 | 8.60904 | 96° | 38km/h | 757m | -11.8m/s | 12.7°C | 90.2% | 932.6hPa | 2.6V | 08:04:49 | 02:28:58 | 00:00:00 | |
| BIOWL1-15 | 2026-09-01 06:00:41 | 52.68898 | 8.60888 | 93° | 40km/h | 769m | -11.6m/s | 12.6°C | 89.2% | 931.5hPa | 2.7V | 08:04:49 | 02:28:57 | 00:00:00 | |
| DM0DOS-11 | 2026-09-01 06:00:41 | 52.68900 | 8.60856 | 97° | 38km/h | 792m | -12.1m/s | 12.6°C | 74.4% | 928.6hPa | 2.7V | 08:04:39 | 02:28:55 | 00:00:00 | |
| BIOWL1-15 | 2026-09-01 06:00:39 | 52.68899 | 8.60872 | 92° | 37km/h | 781m | -11.8m/s | 12.6°C | 86.3% | 930.1hPa | 2.7V | 08:04:49 | 02:28:56 | 00:00:00 | |
| DD8BA-10 | 2026-09-01 06:00:39 | 52.68897 | 8.60904 | 96° | 38km/h | 757m | -11.7m/s | 12.6°C | 83.0% | 932.5hPa | 2.6V | 08:04:00 | 00:00:00 | 00:00:00 | |
| DD8BA-10 | 2026-09-01 06:00:36 | 52.68899 | 8.60856 | 98° | 40km/h | 792m | -12.0m/s | 12.6°C | 74.4% | 928.6hPa | 2.7V | 00:00:00 | 00:00:00 | 00:00:00 | |
| DM0DOS-11 | 2026-09-01 06:00:35 | 52.68903 | 8.60759 | 93° | 37km/h | 861m | -11.6m/s | 12.3°C | 73.6% | 921.1hPa | 2.7V | 08:04:45 | 02:28:49 | 00:00:00 | |
| BIOWL1-15 | 2026-09-01 06:00:35 | 52.68900 | 8.60840 | 95° | 42km/h | 803m | -12.1m/s | 12.6°C | 83.8% | 927.7hPa | 2.7V | 08:04:49 | 02:28:54 | 00:00:00 | |
| BIOWL1-15 | 2026-09-01 06:00:33 | 52.68901 | 8.60807 | 95° | 38km/h | 827m | -11.4m/s | 12.5°C | 84% | 925hPa | 2.7V | 08:04:49 | 02:28:52 | 00:00:00 | |
| BIOWL1-15 | 2026-09-01 06:00:31 | 52.68903 | 8.60775 | 94° | 40km/h | 850m | -11.8m/s | 12.4°C | 82.5% | 922.4hPa | 2.6V | 08:04:49 | 02:28:50 | 00:00:00 | |
| BIOWL1-15 | 2026-09-01 06:00:30 | 52.68903 | 8.60759 | 93° | 38km/h | 861m | -11.6m/s | 12.3°C | 81.9% | 921.2hPa | 2.7V | 08:04:49 | 02:28:49 | 00:00:00 | |
| DD8BA-10 | 2026-09-01 06:00:30 | 52.68903 | 8.60759 | 94° | 40km/h | 861m | -11.6m/s | 12.3°C | 73.6% | 921.1hPa | 2.7V | 00:00:00 | 00:00:00 | 00:00:00 | |
| DM0DOS-11 | 2026-09-01 06:00:29 | 52.68906 | 8.60694 | 94° | 38km/h | 906m | -11.3m/s | 12°C | 74.1% | 916.1hPa | 2.7V | 08:04:49 | 02:28:45 | 00:00:00 | |
| BIOWL1-15 | 2026-09-01 06:00:29 | 52.68904 | 8.60743 | 98° | 38km/h | 873m | -11.8m/s | 12.2°C | 81.8% | 920hPa | 2.7V | 08:04:49 | 02:28:48 | 00:00:00 | |
| BIOWL1-15 | 2026-09-01 06:00:28 | 52.68905 | 8.60726 | 94° | 42km/h | 884m | -11.7m/s | 12.2°C | 81.6% | 918.7hPa | 2.7V | 08:04:49 | 02:28:47 | 00:00:00 | |
| BIOWL1-15 | 2026-09-01 06:00:27 | 52.68906 | 8.60710 | 92° | 40km/h | 895m | -11.4m/s | 12.1°C | 81.5% | 917.6hPa | 2.6V | 08:04:49 | 02:28:46 | 00:00:00 | |
| BIOWL1-15 | 2026-09-01 06:00:25 | 52.68908 | 8.60661 | 93° | 40km/h | 929m | -11.8m/s | 11.8°C | 83.3% | 913.8hPa | 2.7V | 08:05:40 | 02:28:43 | 00:00:00 | |
| BIOWL1-15 | 2026-09-01 06:00:25 | 52.68909 | 8.60645 | 94° | 38km/h | 941m | -11.7m/s | 11.8°C | 83.4% | 912.4hPa | 2.7V | 08:05:40 | 02:28:42 | 00:00:00 | |
| BIOWL1-15 | 2026-09-01 06:00:22 | 52.68910 | 8.60629 | 98° | 40km/h | 952m | -12.1m/s | 11.7°C | 84.3% | 911.1hPa | 2.7V | 08:05:40 | 02:28:41 | 00:00:00 | |
| BIOWL1-15 | 2026-09-01 06:00:21 | 52.68915 | 8.60561 | 98° | 42km/h | 999m | -11.9m/s | 11.4°C | 83.9% | 906.2hPa | 2.7V | 08:05:40 | 02:28:37 | 00:00:00 | |
| BIOWL1-15 | 2026-09-01 06:00:20 | 52.68917 | 8.60544 | 96° | 42km/h | 1011m | -11.8m/s | 11.3°C | 84.2% | 905hPa | 2.7V | 08:05:40 | 02:28:36 | 00:00:00 | |
| BIOWL1-15 | 2026-09-01 06:00:18 | 52.68918 | 8.60527 | 96° | 38km/h | 1023m | -11.5m/s | 11.2°C | 84% | 903.8hPa | 2.7V | 08:05:40 | 02:28:35 | 00:00:00 | |
| DJ2DS-15 | 2026-09-01 06:00:18 | 52.68915 | 8.60561 | 98° | 42km/h | 999m | -11.9m/s | 11.3°C | 75.2% | 906.1hPa | 2.7V | 00:00:00 | 02:28:37 | 00:00:00 | |
| DM0DOS-11 | 2026-09-01 06:00:17 | 52.68921 | 8.60493 | 95° | 44km/h | 1046m | -11.6m/s | 11°C | 75.9% | 901.1hPa | 2.6V | 08:05:01 | 02:28:33 | 00:00:00 | |
| BIOWL1-15 | 2026-09-01 06:00:14 | 52.68922 | 8.60476 | 94° | 38km/h | 1058m | -11.7m/s | 11°C | 83.9% | 899.9hPa | 2.6V | 08:05:40 | 02:28:32 | 00:00:00 | |
| BIOWL1-15 | 2026-09-01 06:00:14 | 52.68923 | 8.60460 | 98° | 40km/h | 1069m | -11.9m/s | 10.9°C | 83.9% | 898.6hPa | 2.7V | 08:05:40 | 02:28:31 | 00:00:00 | |
| DL1XH-west | 2026-09-01 06:00:11 | 52.68925 | 8.60442 | 95° | 44km/h | 1081m | -11.9m/s | 10.9°C | 82.6% | 897.6hPa | 2.7V | 08:05:40 | 02:28:30 | 00:00:00 | |
| DB0DAN | 2026-09-01 06:00:10 | 52.68925 | 8.60425 | 93° | 38km/h | 1092m | -11.8m/s | 10.8°C | 74.9% | 896.14hPa | 2.7V | 00:00:00 | 00:00:00 | 00:00:00 | |
| BIOWL1-15 | 2026-09-01 06:00:09 | 52.68927 | 8.60391 | 94° | 44km/h | 1115m | -11.9m/s | 10.7°C | 84.1% | 893.7hPa | 2.7V | 08:05:40 | 02:28:27 | 00:00:00 | |
| DL1XH-west | 2026-09-01 06:00:09 | 52.68926 | 8.60408 | 97° | 40km/h | 1104m | -12m/s | 10.8°C | 83.5% | 895hPa | 2.7V | 08:05:40 | 02:28:28 | 00:00:00 | |
| DL1XH-west | 2026-09-01 06:00:07 | 52.68928 | 8.60373 | 93° | 44km/h | 1127m | -11.7m/s | 10.6°C | 84% | 892.5hPa | 2.6V | 08:05:40 | 02:28:26 | 00:00:00 | |
| GOEST3-10 | 2026-09-01 06:00:07 | 52.68928 | 8.60373 | 93° | 44km/h | 1127m | -11.7m/s | 10.6°C | 75.3% | 892.4hPa | 2.6V | 00:00:00 | 02:28:26 | 00:00:00 | |
| GOEST3-10 | 2026-09-01 06:00:06 | 52.68929 | 8.60355 | 95° | 40km/h | 1138m | -11.4m/s | 10.5°C | 75.7% | 891.2hPa | 2.6V | 08:05:00 | 00:00:00 | 00:00:00 | |
| BIOWL1-15 | 2026-09-01 06:00:06 | 52.68929 | 8.60355 | 94° | 40km/h | 1138m | -11.4m/s | 10.5°C | 84.3% | 891.3hPa | 2.6V | 08:05:40 | 02:28:25 | 00:00:00 | |
| DD8BA-10 | 2026-09-01 06:00:06 | 52.68929 | 8.60355 | 95° | 42km/h | 1138m | -11.4m/s | 10.5°C | 75.7% | 891.2hPa | 2.7V | 00:00:00 | 00:00:00 | 00:00:00 | |
| DM0DOS-11 | 2026-09-01 06:00:05 | 52.68932 | 8.60285 | 97° | 42km/h | 1184m | -11.9m/s | 10.1°C | 76.9% | 886.3hPa | 2.7V | 08:05:13 | 02:28:21 | 00:00:00 | |
| DL1XH-west | 2026-09-01 06:00:05 | 52.68930 | 8.60338 | 98° | 44km/h | 1149m | -12m/s | 10.4°C | 84.7% | 890hPa | 2.7V | 08:05:40 | 02:28:24 | 00:00:00 | |
| BIOWL1-15 | 2026-09-01 06:00:04 | 52.68931 | 8.60320 | 92° | 44km/h | 1161m | -11.9m/s | 10.3°C | 84.8% | 888.9hPa | 2.7V | 08:05:40 | 02:28:23 | 00:00:00 | |
| DL1XH-west | 2026-09-01 06:00:03 | 52.68931 | 8.60302 | 93° | 42km/h | 1173m | -11.8m/s | 10.2°C | 85.1% | 887.6hPa | 2.7V | 08:05:40 | 02:28:22 | 00:00:00 | |
| BIOWL1-15 | 2026-09-01 06:00:02 | 52.68932 | 8.60285 | 98° | 42km/h | 1184m | -11.9m/s | 10.1°C | 85.6% | 886.3hPa | 2.7V | 08:05:40 | 02:28:21 | 00:00:00 | |
| DL1XH-west | 2026-09-01 06:00:01 | 52.68934 | 8.60267 | 95° | 46km/h | 1196m | -11.6m/s | 10°C | 86.1% | 885.1hPa | 2.7V | 08:05:40 | 02:28:20 | 00:00:00 | |
| DM0DOS-11 | 2026-09-01 06:00:00 | 52.68939 | 8.60175 | 93° | 44km/h | 1252m | -11.9m/s | 9.5°C | 82.5% | 879.1hPa | 2.7V | 08:05:19 | 02:28:15 | 00:00:00 | |
| BIOWL1-15 | 2026-09-01 06:00:00 | 52.68935 | 8.60249 | 93° | 46km/h | 1207m | -11.6m/s | 9.9°C | 86.7% | 884.1hPa | 2.6V | 08:05:40 | 02:28:19 | 00:00:00 | |
| DL1XH-west | 2026-09-01 05:59:59 | 52.68935 | 8.60230 | 95° | 44km/h | 1218m | -11.6m/s | 9.8°C | 86.8% | 882.8hPa | 2.6V | 08:05:40 | 02:28:18 | 00:00:00 | |
| BIOWL1-15 | 2026-09-01 05:59:57 | 52.68939 | 8.60175 | 94° | 44km/h | 1252m | -11.9m/s | 9.5°C | 90.7% | 879.1hPa | 2.7V | 08:05:40 | 02:28:15 | 00:00:00 | |
| DL1XH-west | 2026-09-01 05:59:57 | 52.68938 | 8.60194 | 96° | 47km/h | 1241m | -11.8m/s | 9.6°C | 90.1% | 880.3hPa | 2.7V | 08:05:40 | 02:28:16 | 00:00:00 | |
| DD8BA-10 | 2026-09-01 05:59:57 | 52.68938 | 8.60193 | 96° | 46km/h | 1241m | -11.7m/s | 9.5°C | 82.0% | 880.3hPa | 2.7V | 00:00:00 | 00:00:00 | 00:00:00 | |
| DB0DAN | 2026-09-01 05:59:55 | 52.68940 | 8.60157 | 99° | 42km/h | 1264m | -12.1m/s | 9.4°C | 83.5% | 877.95hPa | 2.7V | 00:00:00 | 00:00:00 | 00:00:00 | |
| DL1XH-west | 2026-09-01 05:59:55 | 52.68940 | 8.60157 | 99° | 44km/h | 1264m | -12.1m/s | 9.4°C | 90.9% | 878hPa | 2.7V | 08:05:40 | 02:28:14 | 00:00:00 | |
| DL1XH-west | 2026-09-01 05:59:54 | 52.68942 | 8.60138 | 96° | 47km/h | 1276m | -11.9m/s | 9.3°C | 91.2% | 876.6hPa | 2.7V | 08:05:40 | 02:28:13 | 00:00:00 | |
| BIOWL1-15 | 2026-09-01 05:59:53 | 52.68946 | 8.60083 | 97° | 46km/h | 1311m | -12m/s | 9°C | 91.4% | 873hPa | 2.7V | 08:05:40 | 02:28:10 | 00:00:00 | |
| DL1XH-west | 2026-09-01 05:59:52 | 52.68944 | 8.60101 | 99° | 44km/h | 1299m | -12m/s | 9.1°C | 91% | 874.3hPa | 2.6V | 08:05:40 | 02:28:11 | 00:00:00 | |
| DL1XH-west | 2026-09-01 05:59:50 | 52.68947 | 8.60064 | 96° | 46km/h | 1323m | -12m/s | 8.9°C | 92% | 871.8hPa | 2.7V | 08:05:40 | 02:28:09 | 00:00:00 | |
| DL1XH-west | 2026-09-01 05:59:49 | 52.68949 | 8.60045 | 98° | 44km/h | 1334m | -11.8m/s | 8.8°C | 92.3% | 870.5hPa | 2.7V | 08:05:40 | 02:28:08 | 00:00:00 | |
| BIOWL1-15 | 2026-09-01 05:59:48 | 52.68950 | 8.60027 | 97° | 46km/h | 1346m | -12.3m/s | 8.7°C | 92.6% | 869.4hPa | 2.7V | 08:05:40 | 02:28:07 | 00:00:00 | |
| BIOWL1-15 | 2026-09-01 05:59:47 | 52.68951 | 8.60008 | 96° | 47km/h | 1358m | -12.1m/s | 8.7°C | 91.6% | 868hPa | 2.7V | 08:05:40 | 02:28:06 | 00:00:00 | |
| BIOWL1-15 | 2026-09-01 05:59:45 | 52.68954 | 8.59971 | 99° | 46km/h | 1382m | -12m/s | 8.5°C | 91.2% | 865.7hPa | 2.6V | 08:05:40 | 02:28:04 | 00:00:00 | |
| DL1XH-west | 2026-09-01 05:59:44 | 52.68956 | 8.59952 | 97° | 47km/h | 1393m | -11.7m/s | 8.4°C | 91.8% | 864.5hPa | 2.7V | 08:05:40 | 02:28:03 | 00:00:00 | |
| DL1XH-west | 2026-09-01 05:59:43 | 52.68957 | 8.59933 | 97° | 44km/h | 1405m | -11.9m/s | 8.3°C | 93% | 863.3hPa | 2.7V | 08:05:40 | 02:28:02 | 00:00:00 | |
| BIOWL1-15 | 2026-09-01 05:59:42 | 52.68959 | 8.59915 | 99° | 46km/h | 1417m | -12m/s | 8.2°C | 93.5% | 862hPa | 2.7V | 08:05:40 | 02:28:01 | 00:00:00 | |
| DL1XH-west | 2026-09-01 05:59:41 | 52.68960 | 8.59896 | 97° | 47km/h | 1428m | -11.9m/s | 8.1°C | 93.9% | 860.7hPa | 2.7V | 08:05:40 | 02:28:00 | 00:00:00 | |
| DB0DAN | 2026-09-01 05:59:40 | 52.68962 | 8.59877 | 96° | 42km/h | 1440m | -11.7m/s | 8°C | 87.4% | 859.54hPa | 2.7V | 00:00:00 | 00:00:00 | 00:00:00 | |
| BIOWL1-15 | 2026-09-01 05:59:40 | 52.68965 | 8.59839 | 97° | 47km/h | 1463m | -11.7m/s | 7.9°C | 93.9% | 857.1hPa | 2.6V | 08:05:40 | 02:27:57 | 00:00:00 | |
| DL1XH-west | 2026-09-01 05:59:39 | 52.68963 | 8.59858 | 99° | 46km/h | 1451m | -11.8m/s | 7.9°C | 94.3% | 858.1hPa | 2.6V | 08:05:40 | 02:27:58 | 00:00:00 | |
| DL1XH-west | 2026-09-01 05:59:37 | 52.68966 | 8.59820 | 95° | 46km/h | 1474m | -11.7m/s | 7.8°C | 94.1% | 855.8hPa | 2.7V | 08:05:40 | 02:27:56 | 00:00:00 | |
| DM0DOS-11 | 2026-09-01 05:59:37 | 52.68967 | 8.59801 | 99° | 46km/h | 1486m | -11.9m/s | 7.7°C | 86.7% | 854.6hPa | 2.7V | 08:05:39 | 02:27:55 | 00:00:00 | |
| DM0DOS-11 | 2026-09-01 05:59:37 | 52.68973 | 8.59725 | 95° | 47km/h | 1532m | -11.7m/s | 7.3°C | 89.1% | 849.8hPa | 2.6V | 08:05:43 | 02:27:51 | 00:00:00 | |
| DL1XH-west | 2026-09-01 05:59:36 | 52.68967 | 8.59801 | 100° | 46km/h | 1486m | -11.9m/s | 7.7°C | 94.7% | 854.6hPa | 2.7V | 08:05:40 | 02:27:55 | 00:00:00 | |
| DL1XH-west | 2026-09-01 05:59:35 | 52.68969 | 8.59782 | 96° | 49km/h | 1497m | -11.8m/s | 7.6°C | 94.9% | 853.5hPa | 2.7V | 08:05:40 | 02:27:54 | 00:00:00 | |
| DL1XH-west | 2026-09-01 05:59:34 | 52.68970 | 8.59763 | 95° | 46km/h | 1509m | -11.8m/s | 7.5°C | 95.1% | 852.3hPa | 2.7V | 08:06:31 | 02:27:53 | 00:00:00 | |
| DL1XH-west | 2026-09-01 05:59:33 | 52.68972 | 8.59744 | 100° | 46km/h | 1521m | -11.9m/s | 7.4°C | 96.2% | 851.1hPa | 2.6V | 08:06:31 | 02:27:52 | 00:00:00 | |
| BIOWL1-15 | 2026-09-01 05:59:32 | 52.68973 | 8.59725 | 96° | 47km/h | 1533m | -11.7m/s | 7.3°C | 96.7% | 849.9hPa | 2.6V | 08:06:31 | 02:27:51 | 00:00:00 | |
| BIOWL1-15 | 2026-09-01 05:59:31 | 52.68974 | 8.59706 | 96° | 44km/h | 1544m | -11.7m/s | 7.2°C | 97% | 848.7hPa | 2.7V | 08:06:31 | 02:27:50 | 00:00:00 | |
| BIOWL1-15 | 2026-09-01 05:59:30 | 52.68976 | 8.59688 | 99° | 44km/h | 1556m | -11.8m/s | 7.2°C | 96.1% | 847.5hPa | 2.7V | 08:06:31 | 02:27:49 | 00:00:00 | |
| DL1XH-west | 2026-09-01 05:59:28 | 52.68979 | 8.59651 | 95° | 42km/h | 1579m | -11.6m/s | 7°C | 95.7% | 845.2hPa | 2.7V | 08:06:31 | 02:27:47 | 00:00:00 | |
| DL1XH-west | 2026-09-01 05:59:26 | 52.68982 | 8.59615 | 97° | 46km/h | 1601m | -12m/s | 6.8°C | 96.6% | 842.7hPa | 2.6V | 08:06:31 | 02:27:45 | 00:00:00 | |
| DB0DAN | 2026-09-01 05:59:25 | 52.68983 | 8.59596 | 96° | 40km/h | 1613m | -12m/s | 6.7°C | 90.6% | 841.62hPa | 2.6V | 00:00:00 | 00:00:00 | 00:00:00 | |
| DL1XH-west | 2026-09-01 05:59:25 | 52.68983 | 8.59596 | 96° | 42km/h | 1613m | -12m/s | 6.7°C | 97.4% | 841.6hPa | 2.6V | 08:06:31 | 02:27:44 | 00:00:00 | |
| DL1XH-west | 2026-09-01 05:59:24 | 52.68984 | 8.59579 | 101° | 44km/h | 1625m | -12.1m/s | 6.7°C | 96.2% | 840.4hPa | 2.7V | 08:06:31 | 02:27:43 | 00:00:00 | |
| DL1XH-west | 2026-09-01 05:59:22 | 52.68988 | 8.59542 | 97° | 42km/h | 1648m | -11.9m/s | 6.5°C | 96.7% | 838hPa | 2.7V | 08:06:31 | 02:27:41 | 00:00:00 | |
| BIOWL1-15 | 2026-09-01 05:59:22 | 52.68995 | 8.59471 | 103° | 42km/h | 1694m | -12m/s | 6.2°C | 96.9% | 833.2hPa | 2.6V | 08:06:31 | 02:27:37 | 00:00:00 | |
| DL1XH-west | 2026-09-01 05:59:21 | 52.68989 | 8.59525 | 101° | 42km/h | 1660m | -12m/s | 6.4°C | 96.9% | 836.9hPa | 2.6V | 08:06:31 | 02:27:40 | 00:00:00 | |
| DL1XH-west | 2026-09-01 05:59:19 | 52.68993 | 8.59489 | 97° | 42km/h | 1683m | -11.9m/s | 6.2°C | 97.5% | 834.6hPa | 2.6V | 08:06:31 | 02:27:38 | 00:00:00 | |
| DL1XH-west | 2026-09-01 05:59:17 | 52.68997 | 8.59453 | 100° | 46km/h | 1706m | -11.6m/s | 6.1°C | 95% | 832.2hPa | 2.6V | 08:06:31 | 02:27:36 | 00:00:00 | |
| BIOWL1-15 | 2026-09-01 05:59:16 | 52.69003 | 8.59401 | 99° | 42km/h | 1741m | -12m/s | 6°C | 93% | 828.6hPa | 2.6V | 08:06:31 | 02:27:33 | 00:00:00 | |
| DM0DOS-11 | 2026-09-01 05:59:15 | 52.69003 | 8.59401 | 98° | 42km/h | 1741m | -12m/s | 6°C | 85.6% | 828.6hPa | 2.6V | 08:06:01 | 02:27:33 | 00:00:00 | |
| DL1XH-west | 2026-09-01 05:59:15 | 52.69001 | 8.59419 | 102° | 44km/h | 1729m | -12m/s | 6°C | 94.6% | 830hPa | 2.7V | 08:06:31 | 02:27:34 | 00:00:00 | |
| DL1XH-west | 2026-09-01 05:59:13 | 52.69005 | 8.59384 | 103° | 42km/h | 1752m | -11.8m/s | 5.9°C | 93.4% | 827.5hPa | 2.6V | 08:06:31 | 02:27:32 | 00:00:00 | |
| BIOWL1-15 | 2026-09-01 05:59:12 | 52.69007 | 8.59367 | 104° | 44km/h | 1764m | -11.4m/s | 5.9°C | 92.3% | 826.3hPa | 2.7V | 08:06:31 | 02:27:31 | 00:00:00 | |
| DL1XH-west | 2026-09-01 05:59:11 | 52.69010 | 8.59350 | 100° | 44km/h | 1775m | -11.3m/s | 5.8°C | 93.7% | 825.2hPa | 2.6V | 08:06:31 | 02:27:30 | 00:00:00 | |
| DB0DAN | 2026-09-01 05:59:10 | 52.69012 | 8.59332 | 99° | 40km/h | 1786m | -11.1m/s | 5.7°C | 85.7% | 823.98hPa | 2.6V | 00:00:00 | 00:00:00 | 00:00:00 | |
| DL1XH-west | 2026-09-01 05:59:10 | 52.69012 | 8.59332 | 99° | 42km/h | 1786m | -11.1m/s | 5.7°C | 92.2% | 824hPa | 2.6V | 08:06:31 | 02:27:29 | 00:00:00 | |
| GOEST3-10 | 2026-09-01 05:59:10 | 52.69012 | 8.59332 | 99° | 42km/h | 1786m | -11.0m/s | 5.7°C | 85.0% | 823.9hPa | 2.6V | 00:00:00 | 00:00:00 | 00:00:00 | |
| GOEST3-10 | 2026-09-01 05:59:09 | 52.69014 | 8.59315 | 103° | 42km/h | 1797m | -11.3m/s | 5.6°C | 85.6% | 822.9hPa | 2.6V | 00:00:00 | 02:27:28 | 00:00:00 | |
| GOEST3-10 | 2026-09-01 05:59:08 | 52.69016 | 8.59298 | 102° | 44km/h | 1808m | -11.2m/s | 5.5°C | 86.2% | 821.7hPa | 2.6V | 00:00:00 | 00:00:00 | 00:00:00 | |
| DL1XH-west | 2026-09-01 05:59:08 | 52.69016 | 8.59298 | 102° | 44km/h | 1808m | -11.2m/s | 5.5°C | 93.1% | 821.7hPa | 2.6V | 08:06:31 | 02:27:27 | 00:00:00 | |
| DJ2DS-15 | 2026-09-01 05:59:08 | 52.69016 | 8.59298 | 102° | 44km/h | 1808m | -11.2m/s | 5.5°C | 86.2% | 821.7hPa | 2.6V | 00:00:00 | 02:27:27 | 00:00:00 | |
| DL1XH1-15 | 2026-09-01 05:59:07 | 52.69020 | 8.59262 | 100° | 42km/h | 1830m | -11.2m/s | 5.4°C | 87.7% | 819.6hPa | 2.6V | 08:06:09 | 02:27:25 | 00:00:00 | |
| DL1XH-west | 2026-09-01 05:59:07 | 52.69018 | 8.59280 | 100° | 46km/h | 1819m | -11m/s | 5.4°C | 94% | 820.7hPa | 2.6V | 08:06:31 | 02:27:26 | 00:00:00 | |
| BIOWL1-15 | 2026-09-01 05:59:06 | 52.69020 | 8.59262 | 100° | 42km/h | 1830m | -11.2m/s | 5.4°C | 94.6% | 819.6hPa | 2.6V | 08:06:31 | 02:27:25 | 00:00:00 | |
| DM0DOS-11 | 2026-09-01 05:59:05 | 52.69025 | 8.59227 | 99° | 46km/h | 1852m | -11.7m/s | 5.2°C | 90.3% | 817.5hPa | 2.6V | 08:06:11 | 02:27:23 | 00:00:00 | |
| DM0DOS-11 | 2026-09-01 05:59:05 | 52.69028 | 8.59192 | 102° | 44km/h | 1875m | -11.8m/s | 5.1°C | 89.7% | 815.2hPa | 2.6V | 08:06:13 | 02:27:21 | 00:00:00 | |
| DL1XH-west | 2026-09-01 05:59:05 | 52.69022 | 8.59245 | 104° | 44km/h | 1840m | -11.6m/s | 5.3°C | 94.8% | 818.4hPa | 2.7V | 08:06:31 | 02:27:24 | 00:00:00 | |
| DL1XH-west | 2026-09-01 05:59:04 | 52.69024 | 8.59227 | 100° | 46km/h | 1852m | -11.7m/s | 5.2°C | 97.3% | 817.5hPa | 2.6V | 08:06:31 | 02:27:23 | 00:00:00 | |
| BIOWL1-15 | 2026-09-01 05:59:03 | 52.69026 | 8.59209 | 100° | 42km/h | 1863m | -11.7m/s | 5.2°C | 96.5% | 816.2hPa | 2.6V | 08:06:31 | 02:27:22 | 00:00:00 | |
| BIOWL1-15 | 2026-09-01 05:59:02 | 52.69028 | 8.59192 | 102° | 44km/h | 1875m | -11.8m/s | 5.1°C | 96.8% | 815.2hPa | 2.6V | 08:06:31 | 02:27:21 | 00:00:00 | |
| DL4XJ-10 | 2026-09-01 05:59:02 | 52.69028 | 8.59191 | 103° | 46km/h | 1875m | -11.8m/s | 2.0°C | 0% | 0hPa | 2.6V | 00:00:00 | 00:00:00 | 00:00:00 | |
| DL4BBY-15 | 2026-09-01 05:59:02 | 52.69028 | 8.59191 | 103° | 46km/h | 1875m | -11.8m/s | 2.0°C | 0% | 0hPa | 2.6V | 00:00:00 | 00:00:00 | 00:00:00 | |
| BIOWL7-15 | 2026-09-01 05:59:01 | 52.69028 | 8.59192 | 103° | 44km/h | 1875m | -11.8m/s | 5.1°C | 90.4% | 815.2hPa | 2.6V | 00:00:00 | 00:00:00 | 00:00:00 | |
| DL1XH1-15 | 2026-09-01 05:59:01 | 52.69032 | 8.59155 | 97° | 44km/h | 1897m | -11.5m/s | 5°C | 89.9% | 812.9hPa | 2.6V | 08:06:15 | 02:27:19 | 00:00:00 | |
| DL1XH-west | 2026-09-01 05:59:00 | 52.69032 | 8.59155 | 98° | 44km/h | 1898m | -11.5m/s | 5°C | 97.3% | 812.9hPa | 2.6V | 08:06:31 | 02:27:19 | 00:00:00 | |
| DL3AQ-11 | 2026-09-01 05:59:00 | 52.69050 | 8.58992 | 103° | 44km/h | 2007m | -12.9m/s | 4.5°C | 83.9% | 802.2hPa | 2.7V | 00:00:00 | 00:00:00 | 00:00:00 | |
| DM0DOS-11 | 2026-09-01 05:58:59 | 52.69036 | 8.59119 | 99° | 46km/h | 1921m | -11.9m/s | 4.8°C | 89.9% | 810.8hPa | 2.7V | 08:06:17 | 02:27:17 | 00:00:00 | |
| DM0DOS-11 | 2026-09-01 05:58:59 | 52.69041 | 8.59083 | 98° | 46km/h | 1944m | -12.9m/s | 4.7°C | 88.5% | 808.2hPa | 2.6V | 08:06:19 | 02:27:15 | 00:00:00 | |
| DL1XH-west | 2026-09-01 05:58:59 | 52.69034 | 8.59137 | 103° | 44km/h | 1909m | -11.9m/s | 4.9°C | 97.2% | 811.7hPa | 2.7V | 08:06:31 | 02:27:18 | 00:00:00 | |
| DL1XH-west | 2026-09-01 05:58:57 | 52.69039 | 8.59101 | 100° | 42km/h | 1932m | -12.3m/s | 4.7°C | 98% | 809.3hPa | 2.7V | 08:06:31 | 02:27:16 | 00:00:00 | |
| DL1XH-west | 2026-09-01 05:58:56 | 52.69041 | 8.59083 | 99° | 46km/h | 1944m | -12.9m/s | 4.7°C | 96.8% | 808.2hPa | 2.6V | 08:06:31 | 02:27:15 | 00:00:00 | |
| DB0DAN | 2026-09-01 05:58:55 | 52.69042 | 8.59064 | 97° | 42km/h | 1957m | -12.6m/s | 4.6°C | 88.9% | 806.98hPa | 2.6V | 00:00:00 | 00:00:00 | 00:00:00 | |
| GOEST3-10 | 2026-09-01 05:58:55 | 52.69042 | 8.59064 | 98° | 44km/h | 1957m | -12.6m/s | 4.6°C | 88.2% | 806.9hPa | 2.6V | 08:06:00 | 00:00:00 | 00:00:00 | |
| BIOWL1-15 | 2026-09-01 05:58:55 | 52.69042 | 8.59064 | 98° | 44km/h | 1957m | -12.6m/s | 4.6°C | 96.5% | 807hPa | 2.6V | 08:06:31 | 02:27:14 | 00:00:00 | |
| DL1XH1-15 | 2026-09-01 05:58:54 | 52.69048 | 8.59010 | 98° | 42km/h | 1994m | -12.6m/s | 4.5°C | 84.8% | 803.3hPa | 2.7V | 08:06:23 | 02:27:11 | 00:00:00 | |
| DL1XH1-15 | 2026-09-01 05:58:54 | 52.69055 | 8.58955 | 102° | 44km/h | 2031m | -12.4m/s | 4.3°C | 82.8% | 799.7hPa | 2.6V | 08:06:26 | 02:27:08 | 00:00:00 | |
| BIOWL1-15 | 2026-09-01 05:58:54 | 52.69044 | 8.59046 | 102° | 44km/h | 1969m | -13m/s | 4.6°C | 97.3% | 805.9hPa | 2.6V | 08:06:31 | 02:27:13 | 00:00:00 | |
| DL1XH-west | 2026-09-01 05:58:52 | 52.69048 | 8.59010 | 99° | 42km/h | 1995m | -12.6m/s | 4.5°C | 93.3% | 803.3hPa | 2.7V | 08:06:31 | 02:27:11 | 00:00:00 | |
| DL1XH-west | 2026-09-01 05:58:49 | 52.69055 | 8.58955 | 102° | 44km/h | 2031m | -12.4m/s | 4.3°C | 91.5% | 799.7hPa | 2.6V | 08:06:31 | 02:27:08 | 00:00:00 | |
| BIOWL1-15 | 2026-09-01 05:58:47 | 52.69060 | 8.58919 | 100° | 46km/h | 2056m | -12.2m/s | 4.2°C | 91.9% | 797.3hPa | 2.7V | 08:06:31 | 02:27:06 | 00:00:00 | |
| DM0DOS-11 | 2026-09-01 05:58:46 | 52.69066 | 8.58864 | 97° | 44km/h | 2092m | -12.2m/s | 3.8°C | 87.5% | 793.9hPa | 2.6V | 08:06:31 | 02:27:03 | 00:00:00 | |
| BIOWL1-15 | 2026-09-01 05:58:41 | 52.69081 | 8.58733 | 101° | 47km/h | 2177m | -12.5m/s | 3.3°C | 93.1% | 785.5hPa | 2.6V | 08:07:22 | 02:26:56 | 00:00:00 | |
| DB0DAN | 2026-09-01 05:58:40 | 52.69074 | 8.58790 | 103° | 44km/h | 2141m | -12.6m/s | 3.5°C | 87.1% | 789.1hPa | 2.6V | 00:00:00 | 00:00:00 | 00:00:00 | |
| DM0DOS-11 | 2026-09-01 05:58:40 | 52.69077 | 8.58771 | 100° | 47km/h | 2153m | -12.2m/s | 3.4°C | 86.3% | 787.9hPa | 2.6V | 08:06:36 | 02:26:58 | 00:00:00 | |
| DL1XH-west | 2026-09-01 05:58:38 | 52.69079 | 8.58752 | 102° | 46km/h | 2165m | -12.3m/s | 3.4°C | 93.9% | 786.7hPa | 2.6V | 08:07:22 | 02:26:57 | 00:00:00 | |
| DL1XH1-15 | 2026-09-01 05:58:34 | 52.69088 | 8.58675 | 101° | 49km/h | 2213m | -12.5m/s | 3°C | 82.7% | 782hPa | 2.6V | 08:06:41 | 02:26:53 | 00:00:00 | |
| DL1XH1-15 | 2026-09-01 05:58:34 | 52.69101 | 8.58579 | 102° | 49km/h | 2274m | -12.8m/s | 2.5°C | 83.3% | 776.2hPa | 2.6V | 08:06:46 | 02:26:48 | 00:00:00 | |
| BIOWL1-15 | 2026-09-01 05:58:30 | 52.69109 | 8.58522 | 101° | 47km/h | 2311m | -12.7m/s | 2.1°C | 93.4% | 772.5hPa | 2.6V | 08:07:22 | 02:26:45 | 00:00:00 | |
| DO9LL-15 | 2026-09-01 05:58:30 | 52.69099 | 8.58598 | 102° | 46km/h | 2262m | -12.4m/s | 2.6°C | 82.0% | 777.2hPa | 2.6V | 00:00:00 | 02:26:49 | 00:00:00 | |
| DM0DOS-11 | 2026-09-01 05:58:29 | 52.69113 | 8.58485 | 102° | 46km/h | 2335m | -12.7m/s | 1.9°C | 89.4% | 770.1hPa | 2.6V | 08:06:51 | 02:26:43 | 00:00:00 | |
| DL1XH-west | 2026-09-01 05:58:27 | 52.69106 | 8.58541 | 104° | 46km/h | 2299m | -12.6m/s | 2.2°C | 92.8% | 773.7hPa | 2.6V | 08:07:22 | 02:26:46 | 00:00:00 | |
| DB0DAN | 2026-09-01 05:58:25 | 52.69111 | 8.58503 | 100° | 42km/h | 2323m | -12.5m/s | 2°C | 88.8% | 771.39hPa | 2.6V | 00:00:00 | 00:00:00 | 00:00:00 | |
| DM0DOS-11 | 2026-09-01 05:58:24 | 52.69125 | 8.58393 | 102° | 46km/h | 2397m | -12.8m/s | 1.4°C | 92.9% | 764.3hPa | 2.5V | 08:06:56 | 02:26:38 | 00:00:00 | |
| DD8BA-10 | 2026-09-01 05:58:23 | 52.69115 | 8.58467 | 101° | 46km/h | 2348m | -12.7m/s | 1.8°C | 90.3% | 769.0hPa | 2.6V | 00:00:00 | 00:00:00 | 00:00:00 | |
| DL4XJ-10 | 2026-09-01 05:58:21 | 52.69120 | 8.58430 | 102° | 44km/h | 2372m | -12.6m/s | -1.3°C | 0% | 0hPa | 2.6V | 00:00:00 | 00:00:00 | 00:00:00 | |
| BUE01 | 2026-09-01 05:58:20 | 52.69122 | 8.58412 | 100° | 44km/h | 2385m | -12.6m/s | 1.5°C | 92.9% | 765.4hPa | 2.6V | 00:00:00 | 00:00:00 | 00:00:00 | |
| DM0DOS-11 | 2026-09-01 05:58:19 | 52.69135 | 8.58301 | 100° | 46km/h | 2459m | -12.6m/s | 1°C | 87.1% | 758.5hPa | 2.6V | 08:07:01 | 02:26:33 | 00:00:00 | |
| DL1XH-west | 2026-09-01 05:58:17 | 52.69129 | 8.58356 | 103° | 44km/h | 2422m | -12.6m/s | 1.2°C | 97.1% | 762hPa | 2.6V | 08:07:22 | 02:26:36 | 00:00:00 | |
| BIOWL1-15 | 2026-09-01 05:58:15 | 52.69133 | 8.58319 | 98° | 44km/h | 2447m | -12.6m/s | 1°C | 95% | 759.7hPa | 2.6V | 08:07:22 | 02:26:34 | 00:00:00 | |
| DM0DOS-11 | 2026-09-01 05:58:14 | 52.69143 | 8.58209 | 97° | 42km/h | 2519m | -12.4m/s | 0.7°C | 86.8% | 752.7hPa | 2.6V | 08:07:06 | 02:26:28 | 00:00:00 | |
| DD8BA-10 | 2026-09-01 05:58:13 | 52.69137 | 8.58282 | 97° | 42km/h | 2471m | -12.3m/s | 0.9°C | 84.7% | 757.3hPa | 2.6V | 00:00:00 | 00:00:00 | 00:00:00 | |
| DC6BW-12 | 2026-09-01 05:58:12 | 52.69137 | 8.58282 | 98° | 46km/h | 2471m | -12.3m/s | 1.0°C | 85.1% | 757.4hPa | 2.6V | 00:00:00 | 00:00:00 | 00:00:00 | |
| DB0DAN | 2026-09-01 05:58:10 | 52.69141 | 8.58226 | 96° | 42km/h | 2507m | -12.2m/s | 0.8°C | 87.6% | 753.93hPa | 2.6V | 00:00:00 | 00:00:00 | 00:00:00 | |
| DL1XH-west | 2026-09-01 05:58:07 | 52.69145 | 8.58174 | 94° | 40km/h | 2544m | -12.6m/s | 0.8°C | 94.8% | 750.5hPa | 2.6V | 08:07:22 | 02:26:26 | 00:00:00 | |
| DM0DOS-11 | 2026-09-01 05:58:06 | 52.69147 | 8.58124 | 96° | 38km/h | 2581m | -12.8m/s | 0.7°C | 83.6% | 747hPa | 2.6V | 08:07:11 | 02:26:23 | 00:00:00 | |
| GOEST3-10 | 2026-09-01 05:58:06 | 52.69146 | 8.58157 | 97° | 38km/h | 2556m | -12.6m/s | 0.7°C | 86.6% | 749.3hPa | 2.6V | 00:00:00 | 00:00:00 | 00:00:00 | |
| DL1XH-15 | 2026-09-01 05:58:05 | 52.69151 | 8.58060 | 92° | 37km/h | 2631m | -12.6m/s | 0.5°C | 79.7% | 742.4hPa | 2.6V | 08:07:15 | 02:26:19 | 00:00:00 | |
| BIOWL1-15 | 2026-09-01 05:58:04 | 52.69147 | 8.58124 | 96° | 38km/h | 2581m | -12.8m/s | 0.7°C | 91.1% | 747hPa | 2.6V | 08:07:22 | 02:26:23 | 00:00:00 | |
| DD8BA-10 | 2026-09-01 05:58:03 | 52.69148 | 8.58107 | 94° | 38km/h | 2594m | -12.5m/s | 0.6°C | 83.3% | 745.8hPa | 2.6V | 00:00:00 | 00:00:00 | 00:00:00 | |
| DL4BBY-15 | 2026-09-01 05:58:02 | 52.69149 | 8.58091 | 95° | 42km/h | 2606m | -12.4m/s | -2.3°C | 0% | 0hPa | 2.6V | 00:00:00 | 00:00:00 | 00:00:00 | |
| DL4XJ-10 | 2026-09-01 05:58:00 | 52.69150 | 8.58060 | 93° | 40km/h | 2631m | -12.6m/s | -2.4°C | 0% | 0hPa | 2.6V | 00:00:00 | 00:00:00 | 00:00:00 | |
| BIOWL7-15 | 2026-09-01 05:57:59 | 52.69151 | 8.58060 | 94° | 37km/h | 2631m | -12.6m/s | 0.5°C | 80.1% | 742.4hPa | 2.6V | 00:00:00 | 00:00:00 | 00:00:00 | |
| DL1XH-15 | 2026-09-01 05:57:57 | 52.69156 | 8.57935 | 96° | 37km/h | 2730m | -12.5m/s | -0.4°C | 84.8% | 733.3hPa | 2.6V | 08:07:23 | 02:26:11 | 00:00:00 | |
| DL1XH-west | 2026-09-01 05:57:56 | 52.69153 | 8.57998 | 94° | 38km/h | 2681m | -12.9m/s | 0.1°C | 88.4% | 737.9hPa | 2.5V | 08:07:22 | 02:26:15 | 00:00:00 | |
| DB0DAN | 2026-09-01 05:57:55 | 52.69154 | 8.57982 | 92° | 35km/h | 2694m | -12.6m/s | -0°C | 82.7% | 736.81hPa | 2.6V | 00:00:00 | 00:00:00 | 00:00:00 | |
| BIOWL1-15 | 2026-09-01 05:57:54 | 52.69155 | 8.57967 | 97° | 38km/h | 2706m | -12.7m/s | -0.1°C | 89.1% | 735.7hPa | 2.6V | 08:07:22 | 02:26:13 | 00:00:00 | |
| DL1XH-west | 2026-09-01 05:57:46 | 52.69161 | 8.57837 | 93° | 42km/h | 2804m | -12.2m/s | -1°C | 93.5% | 726.6hPa | 2.6V | 08:08:13 | 02:26:05 | 00:00:00 | |
| GOEST3-10 | 2026-09-01 05:57:46 | 52.69161 | 8.57837 | 93° | 42km/h | 2804m | -12.1m/s | -1.0°C | 89.3% | 726.6hPa | 2.6V | 00:00:00 | 00:00:00 | 00:00:00 | |
| DL1XH-15 | 2026-09-01 05:57:44 | 52.69162 | 8.57803 | 96° | 44km/h | 2828m | -12.5m/s | -1.1°C | 89.2% | 724.5hPa | 2.6V | 08:07:31 | 02:26:03 | 00:00:00 | |
| DM0DOS-11 | 2026-09-01 05:57:44 | 52.69169 | 8.57713 | 95° | 46km/h | 2888m | -12.9m/s | -1.3°C | 85.3% | 718.8hPa | 2.6V | 08:07:36 | 02:25:58 | 00:00:00 | |
| BIOWL1-15 | 2026-09-01 05:57:43 | 52.69163 | 8.57785 | 94° | 44km/h | 2840m | -12.3m/s | -1.1°C | 91.1% | 723.3hPa | 2.6V | 08:08:13 | 02:26:02 | 00:00:00 | |
| DD8BA-10 | 2026-09-01 05:57:43 | 52.69163 | 8.57785 | 94° | 46km/h | 2840m | -12.3m/s | -1.1°C | 86.7% | 723.3hPa | 2.6V | 00:00:00 | 00:00:00 | 00:00:00 | |
| DB0DAN | 2026-09-01 05:57:40 | 52.69167 | 8.57731 | 99° | 40km/h | 2875m | -12.9m/s | -1.3°C | 87.2% | 720.03hPa | 2.6V | 00:00:00 | 00:00:00 | 00:00:00 | |
| DO2JMG | 2026-09-01 05:57:38 | 52.69170 | 8.57695 | 95° | 44km/h | 2900m | -12.7m/s | -1.3°C | 88.1% | 717.7hPa | 2.6V | 08:08:13 | 02:25:57 | 00:00:00 | |
| BIOWL1-15 | 2026-09-01 05:57:35 | 52.69176 | 8.57597 | 96° | 46km/h | 2962m | -12.3m/s | -1.1°C | 72.5% | 712.2hPa | 2.6V | 08:08:13 | 02:25:52 | 00:00:00 | |
| DL1XH-west | 2026-09-01 05:57:35 | 52.69174 | 8.57636 | 98° | 47km/h | 2937m | -12.6m/s | -1°C | 73.2% | 714.4hPa | 2.5V | 08:08:13 | 02:25:54 | 00:00:00 | |
| DL1XH-15 | 2026-09-01 05:57:34 | 52.69175 | 8.57616 | 94° | 49km/h | 2950m | -12.3m/s | -1°C | 65.8% | 713.3hPa | 2.6V | 08:07:41 | 02:25:53 | 00:00:00 | |
| DM0DOS-11 | 2026-09-01 05:57:34 | 52.69180 | 8.57519 | 93° | 46km/h | 3011m | -13m/s | -1.4°C | 63.6% | 707.8hPa | 2.5V | 08:07:46 | 02:25:48 | 00:00:00 | |
| DO2JMG | 2026-09-01 05:57:27 | 52.69182 | 8.57481 | 93° | 46km/h | 3036m | -12.7m/s | -1.5°C | 68.5% | 705.6hPa | 2.6V | 08:08:13 | 02:25:46 | 00:00:00 | |
| DM0DOS-11 | 2026-09-01 05:57:26 | 52.69184 | 8.57425 | 96° | 44km/h | 3074m | -12.6m/s | -1.6°C | 56.8% | 702.4hPa | 2.6V | 08:07:51 | 02:25:43 | 00:00:00 | |
| DB0DAN | 2026-09-01 05:57:25 | 52.69184 | 8.57444 | 94° | 46km/h | 3061m | -12.5m/s | -1.6°C | 59.5% | 703.4hPa | 2.6V | 00:00:00 | 00:00:00 | 00:00:00 | |
| DL1XH-west | 2026-09-01 05:57:25 | 52.69184 | 8.57444 | 94° | 47km/h | 3061m | -12.5m/s | -1.6°C | 66.3% | 703.4hPa | 2.6V | 08:08:13 | 02:25:44 | 00:00:00 | |
| BIOWL1-15 | 2026-09-01 05:57:24 | 52.69187 | 8.57388 | 97° | 42km/h | 3099m | -12.5m/s | -1.8°C | 62.3% | 700.2hPa | 2.6V | 08:08:13 | 02:25:41 | 00:00:00 | |
| DO2JMG | 2026-09-01 05:57:16 | 52.69197 | 8.57276 | 98° | 49km/h | 3173m | -12.5m/s | -1.7°C | 51.4% | 693.8hPa | 2.5V | 08:08:13 | 02:25:35 | 00:00:00 | |
| DM0DOS-11 | 2026-09-01 05:57:14 | 52.69201 | 8.57236 | 97° | 49km/h | 3198m | -12.4m/s | -1.8°C | 44.3% | 691.6hPa | 2.6V | 08:08:01 | 02:25:33 | 00:00:00 | |
| DL1XH-west | 2026-09-01 05:57:14 | 52.69201 | 8.57236 | 97° | 49km/h | 3198m | -12.4m/s | -1.8°C | 51.4% | 691.6hPa | 2.6V | 08:08:13 | 02:25:33 | 00:00:00 | |
| BIOWL1-15 | 2026-09-01 05:57:13 | 52.69207 | 8.57176 | 99° | 47km/h | 3234m | -12.9m/s | -2.1°C | 51.3% | 688.1hPa | 2.5V | 08:08:13 | 02:25:30 | 00:00:00 | |
| DD8BA-10 | 2026-09-01 05:57:13 | 52.69203 | 8.57216 | 101° | 49km/h | 3210m | -12.5m/s | -1.8°C | 44.0% | 690.3hPa | 2.6V | 08:08:00 | 00:00:00 | 00:00:00 | |
| DK9SH | 2026-09-01 05:57:12 | 52.69205 | 8.57195 | 99° | 51km/h | 3222m | -12.7m/s | -2.0°C | 44.3% | 689.4hPa | 2.5V | 08:08:00 | 00:00:00 | 00:00:00 | |
| DB0DAN | 2026-09-01 05:57:10 | 52.69209 | 8.57156 | 98° | 47km/h | 3247m | -13.2m/s | -2.2°C | 44.6% | 687.28hPa | 2.5V | 00:00:00 | 00:00:00 | 00:00:00 | |
| DO2JMG | 2026-09-01 05:57:05 | 52.69219 | 8.57055 | 98° | 49km/h | 3311m | -12.5m/s | -2.6°C | 50.2% | 681.8hPa | 2.6V | 08:08:13 | 02:25:24 | 00:00:00 | |
| DL1XH-15 | 2026-09-01 05:57:04 | 52.69221 | 8.57035 | 101° | 47km/h | 3323m | -12.6m/s | -2.7°C | 43.5% | 680.6hPa | 2.6V | 08:08:11 | 02:25:23 | 00:00:00 | |
| DL1XH-west | 2026-09-01 05:57:03 | 52.69223 | 8.57015 | 99° | 51km/h | 3335m | -12.3m/s | -2.9°C | 50.3% | 679.8hPa | 2.6V | 08:08:13 | 02:25:22 | 00:00:00 | |
| BIOWL1-15 | 2026-09-01 05:57:01 | 52.69227 | 8.56974 | 99° | 51km/h | 3360m | -12.6m/s | -3.1°C | 49.9% | 677.4hPa | 2.5V | 08:09:04 | 02:25:20 | 00:00:00 | |
| DL3AQ-11 | 2026-09-01 05:57:00 | 52.69231 | 8.56933 | 98° | 51km/h | 3384m | -12.7m/s | -3.3°C | 43.7% | 675.3hPa | 2.6V | 00:00:00 | 00:00:00 | 00:00:00 | |
| DL1XH1-15 | 2026-09-01 05:56:59 | 52.69231 | 8.56933 | 98° | 51km/h | 3384m | -12.7m/s | -3.3°C | 43.7% | 675.3hPa | 2.6V | 08:08:16 | 02:25:18 | 00:00:00 | |
| GOEST3-10 | 2026-09-01 05:56:59 | 52.69231 | 8.56933 | 99° | 51km/h | 3384m | -12.7m/s | -3.3°C | 43.7% | 675.3hPa | 2.6V | 00:00:00 | 02:25:18 | 00:00:00 | |
| DL4XJ-10 | 2026-09-01 05:56:58 | 52.69233 | 8.56913 | 98° | 47km/h | 3396m | -12.7m/s | -6.3°C | 0% | 0hPa | 2.6V | 00:00:00 | 00:00:00 | 00:00:00 | |
| DB0DAN | 2026-09-01 05:56:55 | 52.69238 | 8.56851 | 99° | 49km/h | 3434m | -13.1m/s | -3.4°C | 34.1% | 671.15hPa | 2.6V | 00:00:00 | 00:00:00 | 00:00:00 | |
| DO2JMG | 2026-09-01 05:56:55 | 52.69238 | 8.56851 | 99° | 51km/h | 3434m | -13.1m/s | -3.4°C | 40% | 671.1hPa | 2.6V | 08:09:04 | 02:25:14 | 00:00:00 | |
| DL1XH-15 | 2026-09-01 05:56:54 | 52.69239 | 8.56830 | 95° | 49km/h | 3447m | -13m/s | -3.4°C | 32.2% | 670hPa | 2.6V | 08:08:21 | 02:25:13 | 00:00:00 | |
| DL1XH-west | 2026-09-01 05:56:53 | 52.69241 | 8.56809 | 98° | 49km/h | 3459m | -13m/s | -3.5°C | 37.9% | 669hPa | 2.6V | 08:09:04 | 02:25:12 | 00:00:00 | |
| BIOWL1-15 | 2026-09-01 05:56:50 | 52.69245 | 8.56748 | 95° | 49km/h | 3497m | -12.9m/s | -3.7°C | 39.6% | 665.8hPa | 2.6V | 08:09:04 | 02:25:09 | 00:00:00 | |
| BUE01 | 2026-09-01 05:56:47 | 52.69250 | 8.56687 | 99° | 47km/h | 3534m | -12.7m/s | -3.9°C | 31.7% | 662.7hPa | 2.6V | 00:00:00 | 00:00:00 | 00:00:00 | |
| DO2LYB-13 | 2026-09-01 05:56:46 | 52.69250 | 8.56687 | 100° | 47km/h | 3534m | -12.7m/s | -3.9°C | 31.7% | 662.7hPa | 2.6V | 08:09:00 | 00:00:00 | 00:00:00 | |
| DM0DOS-11 | 2026-09-01 05:56:44 | 52.69254 | 8.56627 | 94° | 47km/h | 3571m | -12.9m/s | -4.1°C | 28.6% | 659.5hPa | 2.6V | 08:08:31 | 02:25:03 | 00:00:00 | |
| DO2JMG | 2026-09-01 05:56:44 | 52.69254 | 8.56627 | 95° | 47km/h | 3571m | -12.9m/s | -4.1°C | 33.9% | 659.5hPa | 2.6V | 08:09:04 | 02:25:03 | 00:00:00 | |
| DL1XH-west | 2026-09-01 05:56:42 | 52.69257 | 8.56590 | 96° | 46km/h | 3597m | -12.9m/s | -4.1°C | 27.9% | 657.3hPa | 2.6V | 08:09:04 | 02:25:01 | 00:00:00 | |
| BIOWL1-15 | 2026-09-01 05:56:41 | 52.69261 | 8.56534 | 100° | 44km/h | 3634m | -13.1m/s | -4.2°C | 29.1% | 654.2hPa | 2.6V | 08:09:04 | 02:24:58 | 00:00:00 | |
| DB0DAN | 2026-09-01 05:56:40 | 52.69260 | 8.56553 | 96° | 44km/h | 3622m | -12.6m/s | -4.2°C | 24.1% | 655.27hPa | 2.6V | 00:00:00 | 00:00:00 | 00:00:00 | |
| DO2JMG | 2026-09-01 05:56:33 | 52.69270 | 8.56422 | 99° | 44km/h | 3710m | -13m/s | -4.4°C | 30.3% | 648hPa | 2.6V | 08:09:04 | 02:24:52 | 00:00:00 | |
| DL1XH-west | 2026-09-01 05:56:32 | 52.69272 | 8.56403 | 96° | 47km/h | 3723m | -13m/s | -4.5°C | 31% | 646.9hPa | 2.6V | 08:09:04 | 02:24:51 | 00:00:00 | |
| BIOWL1-15 | 2026-09-01 05:56:29 | 52.69275 | 8.56347 | 96° | 44km/h | 3762m | -12.6m/s | -4.9°C | 39.5% | 643.7hPa | 2.5V | 08:09:04 | 02:24:48 | 00:00:00 | |
| GOEST3-10 | 2026-09-01 05:56:29 | 52.69275 | 8.56347 | 97° | 46km/h | 3762m | -12.6m/s | -4.8°C | 33.6% | 643.6hPa | 2.6V | 00:00:00 | 02:24:48 | 00:00:00 | |
| DB0DAN | 2026-09-01 05:56:25 | 52.69279 | 8.56272 | 96° | 42km/h | 3813m | -13m/s | -5.3°C | 38% | 639.56hPa | 2.6V | 00:00:00 | 00:00:00 | 00:00:00 | |
| DL1XH-15 | 2026-09-01 05:56:24 | 52.69280 | 8.56253 | 96° | 49km/h | 3826m | -13.3m/s | -5.3°C | 38.2% | 638.6hPa | 2.5V | 08:08:51 | 02:24:43 | 00:00:00 | |
| DO2JMG | 2026-09-01 05:56:23 | 52.69281 | 8.56233 | 98° | 46km/h | 3839m | -12.5m/s | -5.4°C | 41.1% | 637.4hPa | 2.5V | 08:09:04 | 02:24:42 | 00:00:00 | |
| DL1XH-west | 2026-09-01 05:56:21 | 52.69284 | 8.56195 | 100° | 46km/h | 3865m | -12.6m/s | -5.5°C | 38.6% | 635.5hPa | 2.6V | 08:09:04 | 02:24:40 | 00:00:00 | |
| DL1XH1-15 | 2026-09-01 05:56:19 | 52.69288 | 8.56155 | 99° | 46km/h | 3890m | -13m/s | -5.6°C | 32.5% | 633.4hPa | 2.6V | 08:08:56 | 02:24:38 | 00:00:00 | |
| BIOWL1-15 | 2026-09-01 05:56:18 | 52.69290 | 8.56135 | 98° | 49km/h | 3903m | -13.2m/s | -5.7°C | 39.1% | 632.4hPa | 2.5V | 08:09:04 | 02:24:37 | 00:00:00 | |
| DL4XJ-10 | 2026-09-01 05:56:18 | 52.69290 | 8.56135 | 98° | 51km/h | 3903m | -13.1m/s | -8.5°C | 0% | 0hPa | 2.6V | 00:00:00 | 00:00:00 | 00:00:00 | |
| DM0DOS-11 | 2026-09-01 05:56:16 | 52.69298 | 8.56053 | 99° | 53km/h | 3954m | -13m/s | -5.8°C | 22.4% | 628.3hPa | 2.6V | 08:09:01 | 02:24:33 | 00:00:00 | |
| DO2JMG | 2026-09-01 05:56:13 | 52.69301 | 8.56033 | 102° | 49km/h | 3966m | -12.6m/s | -5.9°C | 26.6% | 627.3hPa | 2.6V | 08:09:04 | 02:24:32 | 00:00:00 | |
| DD8BA-10 | 2026-09-01 05:56:13 | 52.69301 | 8.56033 | 102° | 51km/h | 3966m | -12.6m/s | -5.8°C | 22.2% | 627.3hPa | 2.6V | 00:00:00 | 00:00:00 | 00:00:00 | |
| DF5WG-10 | 2026-09-01 05:56:12 | 52.69303 | 8.56012 | 101° | 53km/h | 3979m | -12.8m/s | -5.9°C | 22.0% | 626.2hPa | 2.6V | 00:00:00 | 02:24:31 | 00:00:00 | |
| DM0DOS-11 | 2026-09-01 05:56:10 | 52.69312 | 8.55949 | 103° | 53km/h | 4018m | -13.3m/s | -6.2°C | 20% | 623.2hPa | 2.6V | 08:09:06 | 02:24:28 | 00:00:00 | |
| DL1XH-west | 2026-09-01 05:56:10 | 52.69309 | 8.55971 | 101° | 51km/h | 4005m | -13.1m/s | -6.2°C | 25.6% | 624.2hPa | 2.6V | 08:09:55 | 02:24:29 | 00:00:00 | |
| DB0DAN | 2026-09-01 05:56:10 | 52.69309 | 8.55971 | 101° | 49km/h | 4005m | -13.1m/s | -6.2°C | 21.1% | 624.24hPa | 2.6V | 00:00:00 | 00:00:00 | 00:00:00 | |
| BIOWL1-15 | 2026-09-01 05:56:07 | 52.69318 | 8.55907 | 104° | 53km/h | 4044m | -12.6m/s | -6.3°C | 22.7% | 621.2hPa | 2.5V | 08:09:55 | 02:24:26 | 00:00:00 | |
| HTAHTA | 2026-09-01 05:56:06 | 52.69324 | 8.55864 | 100° | 55km/h | 4069m | -13.3m/s | -6.3°C | 16.5% | 619.1hPa | 2.6V | 00:00:00 | 00:00:00 | 00:00:00 | |
| DL1XH1-15 | 2026-09-01 05:56:04 | 52.69339 | 8.55737 | 99° | 53km/h | 4146m | -13.2m/s | -6.3°C | 13.8% | 612.9hPa | 2.6V | 08:09:16 | 02:24:18 | 00:00:00 | |
| DO2JMG | 2026-09-01 05:56:02 | 52.69332 | 8.55799 | 103° | 51km/h | 4109m | -12.9m/s | -6.2°C | 17.4% | 616hPa | 2.5V | 08:09:55 | 02:24:21 | 00:00:00 | |
| DL1XH-west | 2026-09-01 05:55:59 | 52.69340 | 8.55737 | 99° | 53km/h | 4146m | -13.2m/s | -6.3°C | 16.7% | 612.9hPa | 2.6V | 08:09:55 | 02:24:18 | 00:00:00 | |
| BIOWL1-15 | 2026-09-01 05:55:58 | 52.69347 | 8.55674 | 102° | 49km/h | 4185m | -12.9m/s | -6.6°C | 17.3% | 609.9hPa | 2.6V | 08:09:55 | 02:24:15 | 00:00:00 | |
| DO2JMG | 2026-09-01 05:55:51 | 52.69361 | 8.55568 | 99° | 51km/h | 4248m | -13.1m/s | -7.2°C | 22.2% | 605.1hPa | 2.6V | 08:09:55 | 02:24:10 | 00:00:00 | |
| DL3AQ-11 | 2026-09-01 05:55:51 | 52.69363 | 8.55547 | 101° | 53km/h | 4261m | -13.1m/s | -7.3°C | 17.8% | 604.0hPa | 2.6V | 00:00:00 | 00:00:00 | 00:00:00 | |
| BIOWL7-15 | 2026-09-01 05:55:50 | 52.69360 | 8.55568 | 100° | 51km/h | 4248m | -13.1m/s | -7.2°C | 18.1% | 605.1hPa | 2.6V | 08:09:00 | 00:00:00 | 00:00:00 | |
| DL1XH1-15 | 2026-09-01 05:55:49 | 52.69365 | 8.55525 | 99° | 51km/h | 4274m | -13m/s | -7.4°C | 16.9% | 603.1hPa | 2.6V | 08:09:26 | 02:24:08 | 00:00:00 | |
| DL1XH1-15 | 2026-09-01 05:55:49 | 52.69376 | 8.55414 | 97° | 57km/h | 4338m | -12.9m/s | -7.8°C | 17.1% | 598.1hPa | 2.6V | 08:09:31 | 02:24:03 | 00:00:00 | |
| DL1XH-west | 2026-09-01 05:55:48 | 52.69368 | 8.55503 | 100° | 55km/h | 4286m | -13.4m/s | -7.5°C | 19.8% | 602hPa | 2.5V | 08:09:55 | 02:24:07 | 00:00:00 | |
| BIOWL1-15 | 2026-09-01 05:55:47 | 52.69374 | 8.55436 | 99° | 53km/h | 4325m | -12.9m/s | -7.7°C | 21.1% | 599.1hPa | 2.6V | 08:09:55 | 02:24:04 | 00:00:00 | |
| DJ2DS-15 | 2026-09-01 05:55:46 | 52.69372 | 8.55459 | 98° | 57km/h | 4312m | -12.9m/s | -7.7°C | 18.1% | 600.1hPa | 2.5V | 00:00:00 | 00:00:00 | 00:00:00 | |
| BUE01 | 2026-09-01 05:55:45 | 52.69374 | 8.55436 | 98° | 53km/h | 4325m | -12.9m/s | -7.7°C | 17.3% | 599.1hPa | 2.5V | 00:00:00 | 00:00:00 | 00:00:00 | |
| DO2JMG | 2026-09-01 05:55:41 | 52.69383 | 8.55345 | 101° | 57km/h | 4376m | -13.2m/s | -8.1°C | 21.8% | 595.1hPa | 2.5V | 08:09:55 | 02:24:00 | 00:00:00 | |
| DB0DAN | 2026-09-01 05:55:40 | 52.69385 | 8.55322 | 98° | 55km/h | 4389m | -13m/s | -8.2°C | 18.7% | 594.22hPa | 2.5V | 00:00:00 | 00:00:00 | 00:00:00 | |
| DL3AQ-11 | 2026-09-01 05:55:40 | 52.69388 | 8.55298 | 100° | 57km/h | 4401m | -13.4m/s | -8.3°C | 18.9% | 593.2hPa | 2.5V | 00:00:00 | 00:00:00 | 00:00:00 | |
| DL1XH1-15 | 2026-09-01 05:55:39 | 52.69400 | 8.55181 | 99° | 57km/h | 4466m | -13m/s | -8.9°C | 20.1% | 588.3hPa | 2.5V | 08:09:41 | 02:23:53 | 00:00:00 | |
| DL1XH-west | 2026-09-01 05:55:38 | 52.69390 | 8.55275 | 98° | 57km/h | 4414m | -13.5m/s | -8.4°C | 23.3% | 592.3hPa | 2.6V | 08:09:55 | 02:23:57 | 00:00:00 | |
| BIOWL1-15 | 2026-09-01 05:55:36 | 52.69400 | 8.55181 | 100° | 57km/h | 4466m | -13m/s | -8.9°C | 23.7% | 588.3hPa | 2.5V | 08:09:55 | 02:23:53 | 00:00:00 | |
| DO2JMG | 2026-09-01 05:55:31 | 52.69407 | 8.55110 | 99° | 60km/h | 4505m | -12.7m/s | -9.2°C | 24.6% | 585.3hPa | 2.6V | 08:09:55 | 02:23:50 | 00:00:00 | |
| DL1XH-west | 2026-09-01 05:55:27 | 52.69418 | 8.55014 | 101° | 57km/h | 4556m | -12.8m/s | -9.6°C | 25.3% | 581.4hPa | 2.6V | 08:09:55 | 02:23:46 | 00:00:00 | |
| DL1CLM-18 | 2026-09-01 05:55:26 | 52.69418 | 8.55014 | 102° | 57km/h | 4556m | -12.8m/s | -9.6°C | 21.2% | 581.4hPa | 2.6V | 08:09:00 | 00:00:00 | 00:00:00 | |
| DB0DAN | 2026-09-01 05:55:25 | 52.69424 | 8.54966 | 103° | 55km/h | 4582m | -13.2m/s | -9.5°C | 17.6% | 579.56hPa | 2.6V | 00:00:00 | 00:00:00 | 00:00:00 | |
| DL1XH-15 | 2026-09-01 05:55:24 | 52.69427 | 8.54943 | 100° | 58km/h | 4595m | -13.3m/s | -9.3°C | 13.2% | 578.4hPa | 2.6V | 08:09:51 | 02:23:43 | 00:00:00 | |
| BIOWL1-15 | 2026-09-01 05:55:23 | 52.69430 | 8.54919 | 103° | 58km/h | 4608m | -13.3m/s | -9.2°C | 11.4% | 577.5hPa | 2.5V | 08:09:55 | 02:23:42 | 00:00:00 | |
| DO2JMG | 2026-09-01 05:55:20 | 52.69438 | 8.54849 | 102° | 57km/h | 4647m | -13.3m/s | -9°C | 7.5% | 574.7hPa | 2.6V | 08:09:55 | 02:23:39 | 00:00:00 | |
| DL1XH-west | 2026-09-01 05:55:16 | 52.69449 | 8.54756 | 102° | 57km/h | 4699m | -13.5m/s | -9.4°C | 7.6% | 570.7hPa | 2.5V | 08:10:46 | 02:23:35 | 00:00:00 | |
| BIOWL1-15 | 2026-09-01 05:55:13 | 52.69456 | 8.54691 | 101° | 51km/h | 4739m | -13.3m/s | -9.7°C | 8% | 567.8hPa | 2.5V | 08:10:46 | 02:23:32 | 00:00:00 | |
| DD8BA-10 | 2026-09-01 05:55:13 | 52.69456 | 8.54691 | 102° | 51km/h | 4739m | -13.2m/s | -9.6°C | 7.4% | 567.7hPa | 2.5V | 00:00:00 | 00:00:00 | 00:00:00 | |
| DF5WG-10 | 2026-09-01 05:55:12 | 52.69459 | 8.54670 | 100° | 51km/h | 4752m | -13.7m/s | -9.7°C | 7.6% | 566.7hPa | 2.6V | 00:00:00 | 02:23:31 | 00:00:00 | |
| DB0DAN | 2026-09-01 05:55:10 | 52.69464 | 8.54628 | 102° | 49km/h | 4779m | -13.5m/s | -9.8°C | 7.4% | 564.95hPa | 2.6V | 00:00:00 | 00:00:00 | 00:00:00 | |
| DL1XH1-15 | 2026-09-01 05:55:09 | 52.69467 | 8.54608 | 105° | 51km/h | 4792m | -13.9m/s | -9.9°C | 7.5% | 564hPa | 2.6V | 08:10:06 | 02:23:28 | 00:00:00 | |
| DO2JMG | 2026-09-01 05:55:09 | 52.69467 | 8.54608 | 105° | 51km/h | 4792m | -13.9m/s | -9.9°C | 8.1% | 564hPa | 2.6V | 08:10:46 | 02:23:28 | 00:00:00 | |
| DL1XH-west | 2026-09-01 05:55:06 | 52.69477 | 8.54547 | 102° | 49km/h | 4832m | -13.5m/s | -10.2°C | 8.8% | 561hPa | 2.5V | 08:10:46 | 02:23:25 | 00:00:00 | |
| BIOWL1-15 | 2026-09-01 05:55:05 | 52.69486 | 8.54486 | 103° | 53km/h | 4873m | -13.8m/s | -10.5°C | 8.4% | 558.2hPa | 2.6V | 08:10:46 | 02:23:22 | 00:00:00 | |
| DL1XH-15 | 2026-09-01 05:55:04 | 52.69483 | 8.54506 | 103° | 47km/h | 4859m | -13.7m/s | -10.3°C | 7.8% | 559.1hPa | 2.6V | 08:10:11 | 02:23:23 | 00:00:00 | |
| DM0DOS-11 | 2026-09-01 05:55:04 | 52.69498 | 8.54404 | 102° | 51km/h | 4926m | -13.7m/s | -10.8°C | 7.5% | 554.1hPa | 2.6V | 08:10:16 | 02:23:18 | 00:00:00 | |
| DO2JMG | 2026-09-01 05:54:58 | 52.69502 | 8.54383 | 104° | 51km/h | 4940m | -14m/s | -10.9°C | 7.9% | 553.3hPa | 2.5V | 08:10:46 | 02:23:17 | 00:00:00 | |
| DL4XJ-10 | 2026-09-01 05:54:58 | 52.69501 | 8.54383 | 105° | 51km/h | 4940m | -14.0m/s | 0°C | 0% | 0hPa | 2.6V | 00:00:00 | 00:00:00 | 00:00:00 | |
| SMARD9-10 | 2026-09-01 05:54:57 | 52.69501 | 8.54383 | 105° | 51km/h | 4940m | -14.0m/s | -10.9°C | 7.1% | 553.3hPa | 2.6V | 08:10:00 | 00:00:00 | 00:00:00 | |
| DB0DAN | 2026-09-01 05:54:55 | 52.69511 | 8.54322 | 107° | 49km/h | 4981m | -14.2m/s | -11.3°C | 7.5% | 550.23hPa | 2.6V | 00:00:00 | 00:00:00 | 00:00:00 | |
| DL1XH-west | 2026-09-01 05:54:55 | 52.69511 | 8.54322 | 107° | 51km/h | 4981m | -14.2m/s | -11.3°C | 8.5% | 550.2hPa | 2.6V | 08:10:46 | 02:23:14 | 00:00:00 | |
| BIOWL1-15 | 2026-09-01 05:54:54 | 52.69521 | 8.54259 | 103° | 51km/h | 5022m | -13.9m/s | -11.5°C | 9.1% | 547.4hPa | 2.5V | 08:10:46 | 02:23:11 | 00:00:00 | |
| DD8BA-10 | 2026-09-01 05:54:53 | 52.69518 | 8.54280 | 106° | 51km/h | 5008m | -14.1m/s | -11.4°C | 8.0% | 548.3hPa | 2.6V | 00:00:00 | 00:00:00 | 00:00:00 | |
| DD1CC3-15 | 2026-09-01 05:54:51 | 52.69521 | 8.54259 | 104° | 51km/h | 5022m | -13.9m/s | -11.5°C | 7.9% | 547.4hPa | 2.6V | 08:10:00 | 00:00:00 | 00:00:00 | |
| DM0DOS-11 | 2026-09-01 05:54:50 | 52.69543 | 8.54114 | 105° | 49km/h | 5118m | -13.9m/s | -12°C | 6.7% | 540.6hPa | 2.6V | 08:10:30 | 02:23:04 | 00:00:00 | |
| DO2JMG | 2026-09-01 05:54:47 | 52.69537 | 8.54155 | 103° | 49km/h | 5090m | -13.9m/s | -12°C | 7% | 542.5hPa | 2.5V | 08:10:46 | 02:23:06 | 00:00:00 | |
| DL1XH-west | 2026-09-01 05:54:44 | 52.69546 | 8.54094 | 103° | 51km/h | 5131m | -13.8m/s | -12.1°C | 7.8% | 539.6hPa | 2.6V | 08:10:46 | 02:23:03 | 00:00:00 | |
| BIOWL1-15 | 2026-09-01 05:54:41 | 52.69564 | 8.53972 | 101° | 53km/h | 5212m | -13.9m/s | -12.9°C | 9.8% | 533.8hPa | 2.5V | 08:10:46 | 02:22:57 | 00:00:00 | |
| DB0DAN | 2026-09-01 05:54:40 | 52.69558 | 8.54013 | 105° | 49km/h | 5184m | -14.2m/s | -12.7°C | 7.9% | 535.74hPa | 2.6V | 00:00:00 | 00:00:00 | 00:00:00 | |
| DM0DOS-11 | 2026-09-01 05:54:40 | 52.69573 | 8.53909 | 101° | 55km/h | 5253m | -14.2m/s | -13.1°C | 9.1% | 531hPa | 2.6V | 08:10:40 | 02:22:54 | 00:00:00 | |
| DO2JMG | 2026-09-01 05:54:36 | 52.69570 | 8.53930 | 101° | 49km/h | 5239m | -14.1m/s | -13.1°C | 10.3% | 532hPa | 2.5V | 08:10:46 | 02:22:55 | 00:00:00 | |
| DL1XH-west | 2026-09-01 05:54:33 | 52.69579 | 8.53868 | 100° | 51km/h | 5280m | -14.4m/s | -13.3°C | 10.2% | 529hPa | 2.6V | 08:10:46 | 02:22:52 | 00:00:00 | |
| DD8BA-10 | 2026-09-01 05:54:33 | 52.69579 | 8.53868 | 101° | 53km/h | 5280m | -14.4m/s | -13.3°C | 8.9% | 529.0hPa | 2.5V | 00:00:00 | 00:00:00 | 00:00:00 | |
| DL4BBY-15 | 2026-09-01 05:54:32 | 52.69581 | 8.53846 | 101° | 55km/h | 5295m | -14.4m/s | -16.2°C | 0% | 0hPa | 2.5V | 00:00:00 | 00:00:00 | 00:00:00 | |
| DF5WG-10 | 2026-09-01 05:54:31 | 52.69584 | 8.53825 | 103° | 53km/h | 5308m | -14.1m/s | -13.4°C | 8.8% | 527.1hPa | 2.5V | 00:00:00 | 02:22:50 | 00:00:00 | |
| DM0DOS-11 | 2026-09-01 05:54:30 | 52.69599 | 8.53696 | 101° | 53km/h | 5392m | -14.4m/s | -13.8°C | 7.9% | 521.3hPa | 2.5V | 08:10:50 | 02:22:44 | 00:00:00 | |
| BIOWL1-15 | 2026-09-01 05:54:29 | 52.69594 | 8.53740 | 99° | 53km/h | 5364m | -14.5m/s | -13.8°C | 9.6% | 523.2hPa | 2.6V | 08:11:37 | 02:22:46 | 00:00:00 | |
| GOEST3-10 | 2026-09-01 05:54:29 | 52.69589 | 8.53782 | 100° | 53km/h | 5336m | -14.5m/s | -13.5°C | 8.7% | 525.2hPa | 2.5V | 00:00:00 | 02:22:48 | 00:00:00 | |
| DD1CC2-15 | 2026-09-01 05:54:26 | 52.69594 | 8.53740 | 100° | 53km/h | 5364m | -14.5m/s | -13.7°C | 8.2% | 523.2hPa | 2.5V | 00:00:00 | 00:00:00 | 00:00:00 | |
| DB0DAN | 2026-09-01 05:54:25 | 52.69599 | 8.53696 | 101° | 49km/h | 5392m | -14.4m/s | -13.9°C | 7.7% | 521.35hPa | 2.5V | 00:00:00 | 00:00:00 | 00:00:00 | |
| DO2JMG | 2026-09-01 05:54:25 | 52.69599 | 8.53696 | 101° | 53km/h | 5392m | -14.4m/s | -13.9°C | 8.9% | 521.4hPa | 2.5V | 08:11:37 | 02:22:44 | 00:00:00 | |
| DL1XH-west | 2026-09-01 05:54:23 | 52.69603 | 8.53653 | 99° | 55km/h | 5420m | -14.5m/s | -14°C | 8.5% | 519.5hPa | 2.6V | 08:11:37 | 02:22:42 | 00:00:00 | |
| DD8BA-10 | 2026-09-01 05:54:23 | 52.69603 | 8.53653 | 99° | 55km/h | 5420m | -14.5m/s | -14.0°C | 7.6% | 519.4hPa | 2.6V | 00:00:00 | 00:00:00 | 00:00:00 | |
| DB0UT-7 | 2026-09-01 05:54:21 | 52.69608 | 8.53610 | 98° | 55km/h | 5448m | -14.6m/s | -14.2°C | 7.8% | 517.4hPa | 2.6V | 00:00:00 | 00:00:00 | 00:00:00 | |
| DL1XH1-15 | 2026-09-01 05:54:20 | 52.69621 | 8.53477 | 99° | 53km/h | 5532m | -14.2m/s | -14.9°C | 8% | 511.7hPa | 2.6V | 08:11:00 | 02:22:34 | 00:00:00 | |
| BIOWL1-15 | 2026-09-01 05:54:18 | 52.69614 | 8.53543 | 98° | 53km/h | 5491m | -14.2m/s | -14.6°C | 9.1% | 514.6hPa | 2.5V | 08:11:37 | 02:22:37 | 00:00:00 | |
| DO2JMG | 2026-09-01 05:54:14 | 52.69623 | 8.53454 | 98° | 57km/h | 5546m | -14.3m/s | -14.9°C | 8.7% | 510.9hPa | 2.5V | 08:11:37 | 02:22:33 | 00:00:00 | |
| DL1XH-west | 2026-09-01 05:54:13 | 52.69625 | 8.53431 | 100° | 57km/h | 5560m | -14.3m/s | -15°C | 8.8% | 509.8hPa | 2.5V | 08:11:37 | 02:22:32 | 00:00:00 | |
| DD8BA-10 | 2026-09-01 05:54:13 | 52.69625 | 8.53431 | 101° | 55km/h | 5560m | -14.2m/s | -15.0°C | 7.9% | 509.8hPa | 2.5V | 08:11:00 | 00:00:00 | 00:00:00 | |
| DC6BW-12 | 2026-09-01 05:54:11 | 52.69628 | 8.53408 | 101° | 53km/h | 5574m | -13.7m/s | -15.1°C | 7.5% | 508.9hPa | 2.5V | 08:11:00 | 00:00:00 | 00:00:00 | |
| DL1XH1-15 | 2026-09-01 05:54:10 | 52.69645 | 8.53248 | 98° | 53km/h | 5671m | -14.2m/s | -15.8°C | 7.3% | 502.3hPa | 2.5V | 08:11:10 | 02:22:24 | 00:00:00 | |
| BIOWL1-15 | 2026-09-01 05:54:07 | 52.69642 | 8.53270 | 101° | 55km/h | 5658m | -14.4m/s | -15.8°C | 8.1% | 503.2hPa | 2.5V | 08:11:37 | 02:22:25 | 00:00:00 | |
| DO2JMG | 2026-09-01 05:54:04 | 52.69647 | 8.53226 | 98° | 57km/h | 5686m | -14.2m/s | -15.9°C | 7.5% | 501.4hPa | 2.6V | 08:11:37 | 02:22:23 | 00:00:00 | |
| DL1XH-west | 2026-09-01 05:54:03 | 52.69649 | 8.53203 | 99° | 55km/h | 5700m | -14.4m/s | -16°C | 7% | 500.6hPa | 2.6V | 08:11:37 | 02:22:22 | 00:00:00 | |
| DD8BA-10 | 2026-09-01 05:54:03 | 52.69649 | 8.53203 | 100° | 53km/h | 5700m | -14.3m/s | -16.0°C | 6.7% | 500.5hPa | 2.6V | 00:00:00 | 00:00:00 | 00:00:00 | |
| DL8OAI-8 | 2026-09-01 05:54:02 | 52.69651 | 8.53181 | 101° | 51km/h | 5714m | -14.3m/s | -16.1°C | 6.4% | 499.6hPa | 2.6V | 08:11:00 | 00:00:00 | 00:00:00 | |
| DM0DOS-11 | 2026-09-01 05:54:00 | 52.69663 | 8.53032 | 97° | 49km/h | 5815m | -14.2m/s | -16.9°C | 6.7% | 493hPa | 2.6V | 08:11:20 | 02:22:14 | 00:00:00 | |
| BIOWL1-15 | 2026-09-01 05:53:57 | 52.69660 | 8.53074 | 97° | 53km/h | 5786m | -14.7m/s | -16.6°C | 7.2% | 494.8hPa | 2.5V | 08:11:37 | 02:22:16 | 00:00:00 | |
| DB0DAN | 2026-09-01 05:53:55 | 52.69663 | 8.53032 | 97° | 47km/h | 5815m | -14.2m/s | -16.9°C | 6.4% | 493hPa | 2.6V | 00:00:00 | 00:00:00 | 00:00:00 | |
| DL1XH-15 | 2026-09-01 05:53:54 | 52.69672 | 8.52903 | 97° | 51km/h | 5899m | -14.3m/s | -17.3°C | 6.3% | 487.5hPa | 2.5V | 08:11:26 | 02:22:08 | 00:00:00 | |
| DO2JMG | 2026-09-01 05:53:53 | 52.69666 | 8.52989 | 96° | 55km/h | 5843m | -14.6m/s | -17°C | 6.6% | 491.2hPa | 2.5V | 08:11:37 | 02:22:12 | 00:00:00 | |
| DL1XH-west | 2026-09-01 05:53:52 | 52.69667 | 8.52968 | 98° | 51km/h | 5858m | -14.2m/s | -17.1°C | 5.9% | 490.2hPa | 2.6V | 08:11:37 | 02:22:11 | 00:00:00 | |
| DL3AQ-11 | 2026-09-01 05:53:51 | 52.69670 | 8.52925 | 95° | 53km/h | 5885m | -14.1m/s | -17.2°C | 5.6% | 488.4hPa | 2.5V | 00:00:00 | 00:00:00 | 00:00:00 | |
| DM0DOS-11 | 2026-09-01 05:53:50 | 52.69675 | 8.52816 | 95° | 53km/h | 5955m | -14.2m/s | -17.6°C | 5.6% | 483.9hPa | 2.5V | 08:11:30 | 02:22:04 | 00:00:00 | |
| AA1-15 | 2026-09-01 05:53:46 | 52.69675 | 8.52838 | 93° | 55km/h | 5941m | -14.3m/s | -17.5°C | 5.3% | 484.8hPa | 2.5V | 08:11:37 | 02:22:05 | 00:00:00 | |
| D01LWL | 2026-09-01 05:53:45 | 52.69676 | 8.52816 | 95° | 53km/h | 5955m | -14.2m/s | -17.6°C | 5.3% | 483.9hPa | 2.5V | 00:00:00 | 00:00:00 | 00:00:00 | |
| DL1XH-15 | 2026-09-01 05:53:44 | 52.69682 | 8.52679 | 94° | 57km/h | 6037m | -14.2m/s | -18.1°C | 10.4% | 478.6hPa | 2.5V | 08:11:36 | 02:21:58 | 00:00:00 | |
| DO2JMG | 2026-09-01 05:53:43 | 52.69678 | 8.52771 | 92° | 55km/h | 5982m | -14m/s | -17.8°C | 5.5% | 482.2hPa | 2.6V | 08:11:37 | 02:22:02 | 00:00:00 | |
| DL1XH-west | 2026-09-01 05:53:41 | 52.69680 | 8.52725 | 96° | 55km/h | 6010m | -14.1m/s | -17.9°C | 7.4% | 480.3hPa | 2.6V | 08:11:37 | 02:22:00 | 00:00:00 | |
| DB0DAN | 2026-09-01 05:53:40 | 52.69681 | 8.52702 | 95° | 51km/h | 6024m | -13.9m/s | -18°C | 7.6% | 479.47hPa | 2.5V | 00:00:00 | 00:00:00 | 00:00:00 | |
| DL1XH1-15 | 2026-09-01 05:53:40 | 52.69688 | 8.52586 | 94° | 55km/h | 6093m | -14.4m/s | -18.3°C | 31.9% | 475.1hPa | 2.6V | 08:11:40 | 02:21:54 | 00:00:00 | |
| BIOWL1-15 | 2026-09-01 05:53:36 | 52.69687 | 8.52609 | 97° | 55km/h | 6079m | -14.3m/s | -18.3°C | 29.1% | 475.9hPa | 2.6V | 08:12:28 | 02:21:55 | 00:00:00 | |
| AA1-15 | 2026-09-01 05:53:35 | 52.69688 | 8.52586 | 95° | 55km/h | 6093m | -14.4m/s | -18.3°C | 36.7% | 475.1hPa | 2.6V | 08:12:28 | 02:21:54 | 00:00:00 | |
| DO2JMG | 2026-09-01 05:53:32 | 52.69693 | 8.52515 | 98° | 57km/h | 6136m | -14.4m/s | -18.5°C | 44% | 472.3hPa | 2.5V | 08:12:28 | 02:21:51 | 00:00:00 | |
| DL1XH-west | 2026-09-01 05:53:31 | 52.69695 | 8.52492 | 95° | 55km/h | 6150m | -14.4m/s | -18.6°C | 45.3% | 471.5hPa | 2.6V | 08:12:28 | 02:21:50 | 00:00:00 | |
| HTAHTA | 2026-09-01 05:53:31 | 52.69695 | 8.52492 | 94° | 55km/h | 6150m | -14.4m/s | -18.6°C | 39.2% | 471.5hPa | 2.6V | 00:00:00 | 00:00:00 | 00:00:00 | |
| DL1XH1-15 | 2026-09-01 05:53:30 | 52.69703 | 8.52349 | 95° | 60km/h | 6233m | -14.2m/s | -19.4°C | 47% | 466.2hPa | 2.6V | 08:11:50 | 02:21:44 | 00:00:00 | |
| BIOWL1-15 | 2026-09-01 05:53:26 | 52.69702 | 8.52374 | 95° | 58km/h | 6219m | -14.1m/s | -19.3°C | 48.7% | 467hPa | 2.5V | 08:12:28 | 02:21:45 | 00:00:00 | |
| DL1XH-15 | 2026-09-01 05:53:24 | 52.69711 | 8.52205 | 94° | 57km/h | 6316m | -14.1m/s | -20.1°C | 73.4% | 460.9hPa | 2.6V | 08:11:56 | 02:21:38 | 00:00:00 | |
| AA1-15 | 2026-09-01 05:53:24 | 52.69705 | 8.52325 | 97° | 58km/h | 6247m | -14m/s | -19.6°C | 57.4% | 465.3hPa | 2.6V | 08:12:28 | 02:21:43 | 00:00:00 | |
| DO2JMG | 2026-09-01 05:53:21 | 52.69708 | 8.52253 | 94° | 60km/h | 6289m | -14.3m/s | -19.9°C | 69.4% | 462.7hPa | 2.5V | 08:12:28 | 02:21:40 | 00:00:00 | |
| DL1XH-west | 2026-09-01 05:53:20 | 52.69710 | 8.52228 | 96° | 58km/h | 6303m | -14.2m/s | -20°C | 73% | 461.8hPa | 2.5V | 08:12:28 | 02:21:39 | 00:00:00 | |
| BIOWL1-15 | 2026-09-01 05:53:15 | 52.69715 | 8.52109 | 96° | 57km/h | 6373m | -14.3m/s | -20.3°C | 74.3% | 457.6hPa | 2.6V | 08:12:28 | 02:21:34 | 00:00:00 | |
| DL1XH-15 | 2026-09-01 05:53:14 | 52.69722 | 8.51968 | 94° | 55km/h | 6456m | -14.1m/s | -20.9°C | 68.8% | 452.3hPa | 2.6V | 08:12:06 | 02:21:28 | 00:00:00 | |
| AA1-15 | 2026-09-01 05:53:13 | 52.69717 | 8.52062 | 93° | 57km/h | 6401m | -14.3m/s | -20.5°C | 74.8% | 455.8hPa | 2.5V | 08:12:28 | 02:21:32 | 00:00:00 | |
| DO2JMG | 2026-09-01 05:53:11 | 52.69719 | 8.52015 | 95° | 57km/h | 6429m | -14.3m/s | -20.7°C | 75% | 454.1hPa | 2.5V | 08:12:28 | 02:21:30 | 00:00:00 | |
| DB0DAN | 2026-09-01 05:53:10 | 52.69721 | 8.51991 | 97° | 53km/h | 6443m | -14.3m/s | -20.8°C | 68.1% | 453.24hPa | 2.6V | 00:00:00 | 00:00:00 | 00:00:00 | |
| DM0DOS-11 | 2026-09-01 05:53:10 | 52.69727 | 8.51875 | 96° | 55km/h | 6513m | -14.3m/s | -21.3°C | 69.2% | 448.9hPa | 2.5V | 08:12:10 | 02:21:24 | 00:00:00 | |
| DL1XH-west | 2026-09-01 05:53:10 | 52.69721 | 8.51991 | 97° | 57km/h | 6443m | -14.3m/s | -20.8°C | 74.6% | 453.2hPa | 2.6V | 08:12:28 | 02:21:29 | 00:00:00 | |
| BIOWL1-15 | 2026-09-01 05:53:07 | 52.69727 | 8.51875 | 97° | 55km/h | 6513m | -14.4m/s | -21.3°C | 74.6% | 448.9hPa | 2.5V | 08:12:28 | 02:21:24 | 00:00:00 | |
| AA1-15 | 2026-09-01 05:53:02 | 52.69730 | 8.51805 | 95° | 58km/h | 6555m | -14.7m/s | -21.7°C | 75.6% | 446.3hPa | 2.6V | 08:12:28 | 02:21:21 | 00:00:00 | |
| DO2JMG | 2026-09-01 05:53:00 | 52.69733 | 8.51758 | 96° | 55km/h | 6584m | -14.4m/s | -21.9°C | 75.2% | 444.6hPa | 2.5V | 08:12:28 | 02:21:19 | 00:00:00 | |
| DL1XH-west | 2026-09-01 05:52:59 | 52.69735 | 8.51735 | 95° | 55km/h | 6598m | -14.6m/s | -22°C | 75.6% | 443.8hPa | 2.5V | 08:12:28 | 02:21:18 | 00:00:00 | |
| BIOWL1-15 | 2026-09-01 05:52:56 | 52.69742 | 8.51618 | 96° | 55km/h | 6669m | -14.5m/s | -22.6°C | 77% | 439.5hPa | 2.6V | 08:12:28 | 02:21:13 | 00:00:00 | |
| DB0DAN | 2026-09-01 05:52:55 | 52.69741 | 8.51641 | 98° | 53km/h | 6655m | -14.3m/s | -22.5°C | 70.1% | 440.44hPa | 2.5V | 00:00:00 | 00:00:00 | 00:00:00 | |
| DL1XH-15 | 2026-09-01 05:52:54 | 52.69749 | 8.51503 | 95° | 53km/h | 6741m | -14.2m/s | -23.2°C | 71.6% | 435.2hPa | 2.6V | 08:12:26 | 02:21:08 | 00:00:00 | |
| AA1-15 | 2026-09-01 05:52:51 | 52.69746 | 8.51548 | 97° | 57km/h | 6711m | -14.5m/s | -23°C | 77.9% | 437hPa | 2.5V | 08:12:28 | 02:21:10 | 00:00:00 | |
| DO2JMG | 2026-09-01 05:52:50 | 52.69748 | 8.51525 | 98° | 55km/h | 6726m | -14.5m/s | -23.1°C | 77.7% | 436.1hPa | 2.5V | 08:12:28 | 02:21:09 | 00:00:00 | |
| DL1XH-west | 2026-09-01 05:52:48 | 52.69751 | 8.51480 | 95° | 57km/h | 6754m | -14.5m/s | -23.3°C | 77.6% | 434.4hPa | 2.6V | 08:12:28 | 02:21:07 | 00:00:00 | |
| BIOWL1-15 | 2026-09-01 05:52:44 | 52.69757 | 8.51389 | 96° | 53km/h | 6811m | -14.6m/s | -23.8°C | 79.9% | 431.1hPa | 2.5V | 08:13:19 | 02:21:03 | 00:00:00 | |
| HSKMA3-T | 2026-09-01 05:52:43 | 52.69758 | 8.51367 | 94° | 55km/h | 6825m | -14.7m/s | -24°C | 80.9% | 430.3hPa | 2.6V | 08:13:19 | 02:21:02 | 00:00:00 | |
| DD8BA-10 | 2026-09-01 05:52:43 | 52.69758 | 8.51367 | 94° | 53km/h | 6825m | -14.7m/s | -23.9°C | 75.2% | 430.2hPa | 2.6V | 08:12:00 | 00:00:00 | 00:00:00 | |
| GOEST3-10 | 2026-09-01 05:52:42 | 52.69759 | 8.51344 | 95° | 55km/h | 6840m | -14.7m/s | -24.0°C | 76.1% | 429.3hPa | 2.5V | 00:00:00 | 00:00:00 | 00:00:00 | |
| DB0DAN | 2026-09-01 05:52:40 | 52.69762 | 8.51298 | 98° | 51km/h | 6869m | -14.7m/s | -24.3°C | 75.5% | 427.71hPa | 2.5V | 00:00:00 | 00:00:00 | 00:00:00 | |
| AA1-15 | 2026-09-01 05:52:40 | 52.69762 | 8.51298 | 98° | 55km/h | 6869m | -14.7m/s | -24.3°C | 82.8% | 427.7hPa | 2.5V | 08:13:19 | 02:20:59 | 00:00:00 | |
| DO2JMG | 2026-09-01 05:52:39 | 52.69764 | 8.51277 | 97° | 51km/h | 6884m | -14.6m/s | -24.5°C | 82.7% | 426.8hPa | 2.5V | 08:13:19 | 02:20:58 | 00:00:00 | |
| DL1XH-west | 2026-09-01 05:52:37 | 52.69766 | 8.51233 | 95° | 55km/h | 6912m | -14.9m/s | -24.6°C | 81.3% | 425.2hPa | 2.6V | 08:13:19 | 02:20:56 | 00:00:00 | |
| BIOWL1-15 | 2026-09-01 05:52:36 | 52.69770 | 8.51167 | 96° | 51km/h | 6956m | -15m/s | -25°C | 82.5% | 422.6hPa | 2.5V | 08:13:19 | 02:20:53 | 00:00:00 | |
| DO9LL-15 | 2026-09-01 05:52:34 | 52.69770 | 8.51167 | 96° | 53km/h | 6956m | -15.0m/s | -24.9°C | 76.6% | 422.5hPa | 2.5V | 00:00:00 | 02:20:53 | 00:00:00 | |
| DD8BA-10 | 2026-09-01 05:52:33 | 52.69771 | 8.51146 | 94° | 53km/h | 6971m | -15.1m/s | -25.0°C | 76.5% | 421.7hPa | 2.5V | 00:00:00 | 00:00:00 | 00:00:00 | |
| DL4BBY-15 | 2026-09-01 05:52:32 | 52.69772 | 8.51124 | 94° | 55km/h | 6985m | -15.2m/s | -27.8°C | 0% | 0hPa | 2.5V | 00:00:00 | 00:00:00 | 00:00:00 | |
| DL3AQ-11 | 2026-09-01 05:52:31 | 52.69775 | 8.51080 | 95° | 51km/h | 7015m | -15.4m/s | -25.4°C | 74.4% | 419.1hPa | 2.5V | 00:00:00 | 00:00:00 | 00:00:00 | |
| DM0DOS-11 | 2026-09-01 05:52:30 | 52.69780 | 8.50970 | 95° | 53km/h | 7089m | -15.2m/s | -26°C | 76.5% | 414.9hPa | 2.5V | 08:12:50 | 02:20:44 | 00:00:00 | |
| AA1-15 | 2026-09-01 05:52:30 | 52.69775 | 8.51080 | 96° | 51km/h | 7015m | -15.4m/s | -25.4°C | 82.1% | 419.1hPa | 2.5V | 08:13:19 | 02:20:49 | 00:00:00 | |
| HSKMA3-T | 2026-09-01 05:52:29 | 52.69776 | 8.51059 | 95° | 51km/h | 7031m | -15.1m/s | -25.5°C | 82% | 418.2hPa | 2.5V | 08:13:19 | 02:20:48 | 00:00:00 | |
| DO2JMG | 2026-09-01 05:52:28 | 52.69777 | 8.51037 | 93° | 53km/h | 7045m | -15m/s | -25.6°C | 82% | 417.5hPa | 2.6V | 08:13:19 | 02:20:47 | 00:00:00 | |
| DL1XH-west | 2026-09-01 05:52:26 | 52.69779 | 8.50992 | 95° | 55km/h | 7074m | -15.1m/s | -25.9°C | 82.3% | 415.8hPa | 2.5V | 08:13:19 | 02:20:45 | 00:00:00 | |
| DB0DAN | 2026-09-01 05:52:25 | 52.69780 | 8.50970 | 95° | 49km/h | 7089m | -15.2m/s | -26°C | 74.6% | 414.9hPa | 2.5V | 00:00:00 | 00:00:00 | 00:00:00 | |
| BIOWL1-15 | 2026-09-01 05:52:23 | 52.69782 | 8.50925 | 92° | 55km/h | 7118m | -15m/s | -26.2°C | 79.9% | 413.2hPa | 2.6V | 08:13:19 | 02:20:42 | 00:00:00 | |
| DD8BA-10 | 2026-09-01 05:52:23 | 52.69782 | 8.50925 | 92° | 55km/h | 7118m | -15.0m/s | -26.2°C | 74.2% | 413.1hPa | 2.6V | 00:00:00 | 00:00:00 | 00:00:00 | |
| GOEST3-10 | 2026-09-01 05:52:22 | 52.69782 | 8.50902 | 92° | 55km/h | 7133m | -15.1m/s | -26.3°C | 73.8% | 412.3hPa | 2.6V | 08:12:00 | 00:00:00 | 00:00:00 | |
| DB0UT-7 | 2026-09-01 05:52:21 | 52.69783 | 8.50879 | 94° | 53km/h | 7148m | -15.0m/s | -26.4°C | 73.9% | 411.4hPa | 2.6V | 00:00:00 | 00:00:00 | 00:00:00 | |
| DL1XH1-15 | 2026-09-01 05:52:20 | 52.69786 | 8.50742 | 91° | 53km/h | 7236m | -15.1m/s | -27.1°C | 74.4% | 406.5hPa | 2.6V | 08:13:00 | 02:20:34 | 00:00:00 | |
| AA1-15 | 2026-09-01 05:52:19 | 52.69784 | 8.50834 | 91° | 55km/h | 7177m | -15.2m/s | -26.6°C | 79% | 409.9hPa | 2.5V | 08:13:19 | 02:20:38 | 00:00:00 | |
| DO2JMG | 2026-09-01 05:52:17 | 52.69785 | 8.50788 | 91° | 57km/h | 7206m | -15.3m/s | -26.9°C | 80.4% | 408.2hPa | 2.5V | 08:13:19 | 02:20:36 | 00:00:00 | |
| DL1XH-west | 2026-09-01 05:52:15 | 52.69786 | 8.50742 | 92° | 53km/h | 7236m | -15.1m/s | -27.1°C | 80.4% | 406.5hPa | 2.6V | 08:13:19 | 02:20:34 | 00:00:00 | |
| DL1XH-15 | 2026-09-01 05:52:14 | 52.69790 | 8.50609 | 91° | 53km/h | 7325m | -15.7m/s | -27.7°C | 75.4% | 401.5hPa | 2.6V | 08:13:06 | 02:20:28 | 00:00:00 | |
| BIOWL1-15 | 2026-09-01 05:52:13 | 52.69787 | 8.50697 | 92° | 57km/h | 7266m | -15.2m/s | -27.3°C | 80.2% | 404.9hPa | 2.5V | 08:13:19 | 02:20:32 | 00:00:00 | |
| DD8BA-10 | 2026-09-01 05:52:13 | 52.69787 | 8.50697 | 92° | 53km/h | 7266m | -15.1m/s | -27.2°C | 74.3% | 404.8hPa | 2.5V | 00:00:00 | 00:00:00 | 00:00:00 | |
| GOEST3-10 | 2026-09-01 05:52:12 | 52.69787 | 8.50674 | 93° | 53km/h | 7280m | -15.4m/s | -27.3°C | 74.0% | 404.0hPa | 2.6V | 00:00:00 | 00:00:00 | 00:00:00 | |
| DM0DOS-11 | 2026-09-01 05:52:10 | 52.69792 | 8.50520 | 93° | 51km/h | 7387m | -15.6m/s | -28.1°C | 74.9% | 398.1hPa | 2.6V | 08:13:10 | 02:20:24 | 00:00:00 | |
| AA1-15 | 2026-09-01 05:52:08 | 52.69790 | 8.50587 | 91° | 53km/h | 7341m | -15.7m/s | -27.8°C | 81.6% | 400.6hPa | 2.5V | 08:13:19 | 02:20:27 | 00:00:00 | |
| DO2JMG | 2026-09-01 05:52:07 | 52.69791 | 8.50564 | 91° | 55km/h | 7356m | -15.5m/s | -27.9°C | 81% | 399.9hPa | 2.5V | 08:13:19 | 02:20:26 | 00:00:00 | |
| DL1XH-west | 2026-09-01 05:52:05 | 52.69792 | 8.50520 | 94° | 51km/h | 7387m | -15.6m/s | -28.1°C | 81.3% | 398.1hPa | 2.6V | 08:13:19 | 02:20:24 | 00:00:00 | |
| BIOWL1-15 | 2026-09-01 05:52:03 | 52.69792 | 8.50477 | 89° | 53km/h | 7418m | -15.4m/s | -28.4°C | 82% | 396.4hPa | 2.6V | 08:13:19 | 02:20:22 | 00:00:00 | |
| HSKMA3-T | 2026-09-01 05:52:02 | 52.69792 | 8.50455 | 90° | 55km/h | 7433m | -15.5m/s | -28.5°C | 82.8% | 395.6hPa | 2.5V | 08:13:19 | 02:20:21 | 00:00:00 | |
| DL1XH1-15 | 2026-09-01 05:52:00 | 52.69793 | 8.50304 | 90° | 47km/h | 7539m | -15.4m/s | -29.4°C | 81% | 389.8hPa | 2.5V | 08:13:20 | 02:20:14 | 00:00:00 | |
| AA1-15 | 2026-09-01 05:51:58 | 52.69793 | 8.50369 | 89° | 53km/h | 7494m | -15.7m/s | -29.1°C | 85.6% | 392.2hPa | 2.6V | 08:13:19 | 02:20:17 | 00:00:00 | |
| DO2JMG | 2026-09-01 05:51:56 | 52.69793 | 8.50326 | 92° | 51km/h | 7524m | -15.4m/s | -29.3°C | 86.8% | 390.6hPa | 2.5V | 08:13:19 | 02:20:15 | 00:00:00 | |
| DB0DAN | 2026-09-01 05:51:55 | 52.69793 | 8.50304 | 90° | 46km/h | 7539m | -15.4m/s | -29.5°C | 78.7% | 389.75hPa | 2.5V | 00:00:00 | 00:00:00 | 00:00:00 | |
| DL1XH-west | 2026-09-01 05:51:54 | 52.69793 | 8.50284 | 89° | 49km/h | 7554m | -15.5m/s | -29.6°C | 86.3% | 388.9hPa | 2.6V | 08:14:10 | 02:20:13 | 00:00:00 | |
| HSKMA3-T | 2026-09-01 05:51:52 | 52.69793 | 8.50242 | 91° | 51km/h | 7585m | -15.8m/s | -29.8°C | 85.3% | 387.3hPa | 2.6V | 08:14:10 | 02:20:11 | 00:00:00 | |
| DL3AQ-11 | 2026-09-01 05:51:51 | 52.69794 | 8.50202 | 91° | 46km/h | 7615m | -15.3m/s | -30.0°C | 76.5% | 385.6hPa | 2.6V | 00:00:00 | 00:00:00 | 00:00:00 | |
| DM0DOS-11 | 2026-09-01 05:51:50 | 52.69795 | 8.50104 | 91° | 44km/h | 7692m | -15.5m/s | -30.6°C | 77% | 381.5hPa | 2.6V | 08:13:30 | 02:20:04 | 00:00:00 | |
| AA1-15 | 2026-09-01 05:51:47 | 52.69794 | 8.50143 | 91° | 49km/h | 7661m | -15.9m/s | -30.3°C | 84% | 383.1hPa | 2.6V | 08:14:10 | 02:20:06 | 00:00:00 | |
| DO2JMG | 2026-09-01 05:51:45 | 52.69795 | 8.50104 | 92° | 44km/h | 7692m | -15.5m/s | -30.6°C | 82.7% | 381.5hPa | 2.6V | 08:14:10 | 02:20:04 | 00:00:00 | |
| DL1XH-west | 2026-09-01 05:51:43 | 52.69795 | 8.50066 | 91° | 47km/h | 7723m | -15.7m/s | -30.8°C | 82.1% | 379.9hPa | 2.5V | 08:14:10 | 02:20:02 | 00:00:00 | |
| HSKMA3-T | 2026-09-01 05:51:42 | 52.69795 | 8.50047 | 91° | 49km/h | 7738m | -16m/s | -30.9°C | 82.6% | 378.9hPa | 2.5V | 08:14:10 | 02:20:01 | 00:00:00 | |
| DB0DAN | 2026-09-01 05:51:40 | 52.69796 | 8.50008 | 91° | 42km/h | 7770m | -15.6m/s | -31.1°C | 75.5% | 377.36hPa | 2.6V | 00:00:00 | 00:00:00 | 00:00:00 | |
| DM0DOS-11 | 2026-09-01 05:51:40 | 52.69796 | 8.49911 | 87° | 46km/h | 7846m | -15.3m/s | -31.7°C | 78.8% | 373.2hPa | 2.6V | 08:13:40 | 02:19:54 | 00:00:00 | |
| AA1-15 | 2026-09-01 05:51:36 | 52.69796 | 8.49930 | 91° | 47km/h | 7832m | -15.4m/s | -31.6°C | 84.7% | 374.1hPa | 2.6V | 08:14:10 | 02:19:55 | 00:00:00 | |
| DO2JMG | 2026-09-01 05:51:34 | 52.69795 | 8.49891 | 87° | 51km/h | 7861m | -15.4m/s | -31.8°C | 84% | 372.4hPa | 2.5V | 08:14:10 | 02:19:53 | 00:00:00 | |
| DL1XH-west | 2026-09-01 05:51:33 | 52.69794 | 8.49870 | 86° | 51km/h | 7877m | -15.3m/s | -31.9°C | 83.9% | 371.7hPa | 2.5V | 08:14:10 | 02:19:52 | 00:00:00 | |
| HSKMA3-T | 2026-09-01 05:51:32 | 52.69793 | 8.49849 | 87° | 51km/h | 7892m | -15.4m/s | -32°C | 83.7% | 370.9hPa | 2.6V | 08:14:10 | 02:19:51 | 00:00:00 | |
| BIOWL1-15 | 2026-09-01 05:51:31 | 52.69793 | 8.49828 | 87° | 49km/h | 7907m | -15m/s | -32.1°C | 83.9% | 370hPa | 2.6V | 08:14:10 | 02:19:50 | 00:00:00 | |
| DM0DOS-11 | 2026-09-01 05:51:30 | 52.69785 | 8.49701 | 81° | 53km/h | 7995m | -15.5m/s | -32.3°C | 75% | 365.4hPa | 2.5V | 08:13:50 | 02:19:44 | 00:00:00 | |
| AA1-15 | 2026-09-01 05:51:25 | 52.69785 | 8.49701 | 82° | 53km/h | 7995m | -15.5m/s | -32.3°C | 80.6% | 365.4hPa | 2.5V | 08:14:10 | 02:19:44 | 00:00:00 | |
| DB0DAN | 2026-09-01 05:51:25 | 52.69785 | 8.49701 | 81° | 51km/h | 7995m | -15.5m/s | -32.3°C | 72.4% | 365.39hPa | 2.5V | 00:00:00 | 00:00:00 | 00:00:00 | |
| DL1XH-15 | 2026-09-01 05:51:24 | 52.69775 | 8.49561 | 82° | 60km/h | 8084m | -15.2m/s | -33.1°C | 78.5% | 360.9hPa | 2.5V | 08:13:56 | 02:19:38 | 00:00:00 | |
| DO2JMG | 2026-09-01 05:51:24 | 52.69783 | 8.49678 | 83° | 57km/h | 8010m | -15.2m/s | -32.4°C | 80.9% | 364.6hPa | 2.5V | 08:14:10 | 02:19:43 | 00:00:00 | |
| DL1XH-west | 2026-09-01 05:51:23 | 52.69781 | 8.49655 | 84° | 57km/h | 8024m | -14.9m/s | -32.6°C | 81.6% | 363.8hPa | 2.5V | 08:14:10 | 02:19:42 | 00:00:00 | |
| HSKMA3-T | 2026-09-01 05:51:22 | 52.69780 | 8.49631 | 85° | 57km/h | 8039m | -14.9m/s | -32.7°C | 82.3% | 363.1hPa | 2.6V | 08:14:10 | 02:19:41 | 00:00:00 | |
| BIOWL1-15 | 2026-09-01 05:51:21 | 52.69779 | 8.49608 | 86° | 55km/h | 8054m | -14.9m/s | -32.8°C | 82.9% | 362.4hPa | 2.6V | 08:14:10 | 02:19:40 | 00:00:00 | |
| DB0UT-7 | 2026-09-01 05:51:21 | 52.69779 | 8.49608 | 86° | 71km/h | 8054m | -14.8m/s | -32.8°C | 77.2% | 362.3hPa | 2.6V | 00:00:00 | 00:00:00 | 00:00:00 | |
| DL1XH1-15 | 2026-09-01 05:51:20 | 52.69769 | 8.49463 | 82° | 60km/h | 8141m | -14.8m/s | -33.6°C | 81.2% | 357.9hPa | 2.6V | 08:14:00 | 02:19:34 | 00:00:00 | |
| AA1-15 | 2026-09-01 05:51:14 | 52.69768 | 8.49437 | 83° | 62km/h | 8156m | -15.3m/s | -33.7°C | 87.1% | 357.2hPa | 2.6V | 08:14:10 | 02:19:33 | 00:00:00 | |
| BIOWL1-15 | 2026-09-01 05:51:14 | 52.69762 | 8.49330 | 85° | 66km/h | 8215m | -15.1m/s | -34.2°C | 87.8% | 354.2hPa | 2.5V | 08:14:10 | 02:19:29 | 00:00:00 | |
| DO2JMG | 2026-09-01 05:51:13 | 52.69766 | 8.49411 | 84° | 64km/h | 8171m | -15.2m/s | -33.9°C | 87.5% | 356.4hPa | 2.6V | 08:14:10 | 02:19:32 | 00:00:00 | |
| DL1XH-west | 2026-09-01 05:51:12 | 52.69764 | 8.49385 | 85° | 66km/h | 8185m | -15.3m/s | -34°C | 87.8% | 355.6hPa | 2.5V | 08:14:10 | 02:19:31 | 00:00:00 | |
| HSKMA3-T | 2026-09-01 05:51:11 | 52.69763 | 8.49357 | 87° | 66km/h | 8201m | -15.1m/s | -34.1°C | 87.9% | 354.9hPa | 2.5V | 08:14:10 | 02:19:30 | 00:00:00 | |
| DL3AQ-11 | 2026-09-01 05:51:11 | 52.69762 | 8.49330 | 85° | 66km/h | 8215m | -15.1m/s | -34.2°C | 79.6% | 354.2hPa | 2.6V | 00:00:00 | 00:00:00 | 00:00:00 | |
| D01LWL | 2026-09-01 05:51:10 | 52.69760 | 8.49302 | 83° | 69km/h | 8230m | -15.5m/s | -34.2°C | 79.3% | 353.4hPa | 2.6V | 00:00:00 | 00:00:00 | 00:00:00 | |
| DB0DAN | 2026-09-01 05:51:10 | 52.69762 | 8.49330 | 85° | 62km/h | 8215m | -15.1m/s | -34.2°C | 79.6% | 354.17hPa | 2.5V | 00:00:00 | 00:00:00 | 00:00:00 | |
| DJ2DS-15 | 2026-09-01 05:51:09 | 52.69760 | 8.49302 | 84° | 78km/h | 8230m | -15.4m/s | -34.1°C | 82.2% | 353.4hPa | 2.6V | 00:00:00 | 02:19:28 | 00:00:00 | |
| DO3DL | 2026-09-01 05:51:08 | 52.69760 | 8.49302 | 85° | 69km/h | 8230m | -15.5m/s | -34.2°C | 79.3% | 353.5hPa | 2.6V | 08:14:00 | 00:00:00 | 00:00:00 | |
| GOEST3-10 | 2026-09-01 05:51:07 | 52.69757 | 8.49243 | 86° | 75km/h | 8260m | -15.4m/s | -34.2°C | 81.4% | 351.8hPa | 2.6V | 00:00:00 | 02:19:26 | 00:00:00 | |
| BUE01 | 2026-09-01 05:51:05 | 52.69755 | 8.49183 | 85° | 71km/h | 8290m | -15.1m/s | -34.5°C | 79.3% | 350.4hPa | 2.6V | 00:00:00 | 00:00:00 | 00:00:00 | |
| DL1XH-15 | 2026-09-01 05:51:04 | 52.69748 | 8.48989 | 87° | 78km/h | 8383m | -15.5m/s | -35°C | 85% | 345.8hPa | 2.6V | 08:14:16 | 02:19:18 | 00:00:00 | |
| AA1-15 | 2026-09-01 05:51:04 | 52.69754 | 8.49152 | 85° | 75km/h | 8305m | -15.4m/s | -34.6°C | 88.8% | 349.7hPa | 2.5V | 08:15:01 | 02:19:23 | 00:00:00 | |
| DO2JMG | 2026-09-01 05:51:02 | 52.69751 | 8.49088 | 86° | 80km/h | 8336m | -16m/s | -34.7°C | 89.5% | 348.1hPa | 2.5V | 08:15:01 | 02:19:21 | 00:00:00 | |
| BIOWL1-15 | 2026-09-01 05:51:02 | 52.69749 | 8.49021 | 89° | 78km/h | 8368m | -15.7m/s | -34.9°C | 90.6% | 346.6hPa | 2.6V | 08:15:01 | 02:19:19 | 00:00:00 | |
| HSKMA3-T | 2026-09-01 05:51:01 | 52.69750 | 8.49054 | 87° | 80km/h | 8352m | -15.9m/s | -34.8°C | 90.1% | 347.3hPa | 2.6V | 08:15:01 | 02:19:20 | 00:00:00 | |
| DL3AQ-11 | 2026-09-01 05:50:59 | 52.69748 | 8.48989 | 87° | 77km/h | 8383m | -15.5m/s | -35.0°C | 81.9% | 345.8hPa | 2.5V | 00:00:00 | 00:00:00 | 00:00:00 | |
| DJ2DS-15 | 2026-09-01 05:50:58 | 52.69747 | 8.48922 | 87° | 82km/h | 8413m | -15.8m/s | -35.2°C | 83.0% | 344.2hPa | 2.5V | 00:00:00 | 00:00:00 | 00:00:00 | |
| DD1CC8 | 2026-09-01 05:50:57 | 52.69747 | 8.48922 | 87° | 82km/h | 8413m | -15.8m/s | -35.2°C | 83.0% | 344.2hPa | 2.5V | 00:00:00 | 00:00:00 | 00:00:00 | |
| HTAHTA | 2026-09-01 05:50:56 | 52.69746 | 8.48854 | 90° | 80km/h | 8445m | -15.9m/s | -35.5°C | 84.0% | 342.7hPa | 2.5V | 00:00:00 | 00:00:00 | 00:00:00 | |
| DL1XH-15 | 2026-09-01 05:50:54 | 52.69749 | 8.48653 | 92° | 78km/h | 8539m | -15.6m/s | -36.1°C | 83.3% | 338.2hPa | 2.5V | 08:14:26 | 02:19:08 | 00:00:00 | |
| AA1-15 | 2026-09-01 05:50:53 | 52.69747 | 8.48787 | 90° | 78km/h | 8476m | -15.8m/s | -35.7°C | 93.6% | 341.2hPa | 2.6V | 08:15:01 | 02:19:12 | 00:00:00 | |
| DO2JMG | 2026-09-01 05:50:52 | 52.69747 | 8.48754 | 90° | 80km/h | 8492m | -15.8m/s | -35.8°C | 93% | 340.4hPa | 2.6V | 08:15:01 | 02:19:11 | 00:00:00 | |
| DL1XH-west | 2026-09-01 05:50:50 | 52.69748 | 8.48687 | 92° | 80km/h | 8523m | -15.7m/s | -36°C | 90.6% | 338.9hPa | 2.5V | 08:15:01 | 02:19:09 | 00:00:00 | |
| BIOWL1-15 | 2026-09-01 05:50:49 | 52.69749 | 8.48653 | 93° | 78km/h | 8539m | -15.6m/s | -36.1°C | 90% | 338.2hPa | 2.5V | 08:15:01 | 02:19:08 | 00:00:00 | |
| DJ2DS-15 | 2026-09-01 05:50:49 | 52.69749 | 8.48653 | 93° | 77km/h | 8539m | -15.6m/s | -36.1°C | 83.3% | 338.1hPa | 2.6V | 00:00:00 | 02:19:08 | 00:00:00 | |
| DF5WG-10 | 2026-09-01 05:50:47 | 52.69750 | 8.48590 | 91° | 75km/h | 8569m | -15.5m/s | -36.3°C | 82.5% | 336.6hPa | 2.6V | 00:00:00 | 02:19:06 | 00:00:00 | |
| DL1XH-15 | 2026-09-01 05:50:44 | 52.69757 | 8.48339 | 92° | 77km/h | 8692m | -15.7m/s | -37.2°C | 79% | 330.8hPa | 2.6V | 08:14:36 | 02:18:58 | 00:00:00 | |
| AA1-15 | 2026-09-01 05:50:42 | 52.69753 | 8.48431 | 95° | 75km/h | 8647m | -15.7m/s | -36.7°C | 86.8% | 332.9hPa | 2.5V | 08:15:01 | 02:19:01 | 00:00:00 | |
| DO2JMG | 2026-09-01 05:50:41 | 52.69755 | 8.48401 | 94° | 73km/h | 8662m | -15.6m/s | -36.9°C | 86.8% | 332.1hPa | 2.5V | 08:15:01 | 02:19:00 | 00:00:00 | |
| DB0DAN | 2026-09-01 05:50:40 | 52.69756 | 8.48370 | 92° | 69km/h | 8677m | -15.8m/s | -37°C | 76.3% | 331.44hPa | 2.6V | 00:00:00 | 00:00:00 | 00:00:00 | |
| DL1XH-west | 2026-09-01 05:50:39 | 52.69757 | 8.48339 | 93° | 77km/h | 8692m | -15.7m/s | -37.2°C | 85.7% | 330.8hPa | 2.6V | 08:15:01 | 02:18:58 | 00:00:00 | |
| BIOWL1-15 | 2026-09-01 05:50:38 | 52.69758 | 8.48308 | 94° | 77km/h | 8708m | -15.7m/s | -37.3°C | 85.5% | 329.9hPa | 2.6V | 08:15:01 | 02:18:57 | 00:00:00 | |
| DL4XJ-10 | 2026-09-01 05:50:38 | 52.69758 | 8.48308 | 94° | 80km/h | 8708m | -15.7m/s | -39.9°C | 0% | 0hPa | 2.5V | 00:00:00 | 00:00:00 | 00:00:00 | |
| DF5WG-10 | 2026-09-01 05:50:37 | 52.69759 | 8.48275 | 95° | 78km/h | 8723m | -15.6m/s | -37.4°C | 78.6% | 329.2hPa | 2.5V | 00:00:00 | 02:18:56 | 00:00:00 | |
| DO3DL | 2026-09-01 05:50:35 | 52.69761 | 8.48243 | 96° | 77km/h | 8739m | -15.6m/s | -37.6°C | 75.2% | 328.4hPa | 2.5V | 08:15:00 | 00:00:00 | 00:00:00 | |
| DL1XH-15 | 2026-09-01 05:50:34 | 52.69772 | 8.48016 | 95° | 80km/h | 8848m | -16.1m/s | -38.4°C | 80.6% | 323.2hPa | 2.5V | 08:14:46 | 02:18:48 | 00:00:00 | |
| DO2JMG | 2026-09-01 05:50:31 | 52.69769 | 8.48083 | 94° | 80km/h | 8816m | -15.8m/s | -38.2°C | 86.8% | 324.8hPa | 2.6V | 08:15:01 | 02:18:50 | 00:00:00 | |
| DF8AY | 2026-09-01 05:50:30 | 52.69771 | 8.48050 | 94° | 82km/h | 8832m | -16m/s | -38.3°C | 87.4% | 0hPa | 2.5V | 08:16:43 | 02:18:49 | 00:00:00 | |
| HSKMA3-T | 2026-09-01 05:50:29 | 52.69772 | 8.48016 | 95° | 80km/h | 8848m | -16.2m/s | -38.4°C | 87.9% | 323.2hPa | 2.5V | 08:15:01 | 02:18:48 | 00:00:00 | |
| DL1XH-west | 2026-09-01 05:50:28 | 52.69774 | 8.47982 | 96° | 80km/h | 8864m | -16.1m/s | -38.6°C | 87.7% | 322.6hPa | 2.5V | 08:15:01 | 02:18:47 | 00:00:00 | |
| BIOWL1-15 | 2026-09-01 05:50:27 | 52.69776 | 8.47949 | 96° | 78km/h | 8880m | -16m/s | -38.7°C | 86% | 321.8hPa | 2.5V | 08:15:01 | 02:18:46 | 00:00:00 | |
| DF5WG-10 | 2026-09-01 05:50:27 | 52.69776 | 8.47949 | 96° | 80km/h | 8880m | -15.9m/s | -38.6°C | 78.6% | 321.8hPa | 2.5V | 00:00:00 | 02:18:46 | 00:00:00 | |
| DD1CC8 | 2026-09-01 05:50:26 | 52.69778 | 8.47916 | 94° | 78km/h | 8896m | -16.0m/s | -38.8°C | 72.8% | 321.1hPa | 2.6V | 00:00:00 | 00:00:00 | 00:00:00 | |
| DL1XH-15 | 2026-09-01 05:50:24 | 52.69791 | 8.47680 | 94° | 78km/h | 9006m | -15.9m/s | -39.6°C | 77.6% | 315.9hPa | 2.6V | 08:14:56 | 02:18:38 | 00:00:00 | |
| AA1-15 | 2026-09-01 05:50:20 | 52.69789 | 8.47713 | 96° | 80km/h | 8990m | -15.6m/s | -39.4°C | 84.3% | 316.6hPa | 2.6V | 08:15:01 | 02:18:39 | 00:00:00 | |
| DF8AY | 2026-09-01 05:50:19 | 52.69791 | 8.47680 | 95° | 78km/h | 9006m | -15.9m/s | -39.6°C | 85.2% | 0hPa | 2.6V | 08:16:43 | 02:18:38 | 00:00:00 | |
| HSKMA3-T | 2026-09-01 05:50:18 | 52.69792 | 8.47647 | 94° | 80km/h | 9021m | -16m/s | -39.7°C | 86.1% | 315.2hPa | 2.6V | 08:15:01 | 02:18:37 | 00:00:00 | |
| BIOWL1-15 | 2026-09-01 05:50:18 | 52.69796 | 8.47579 | 95° | 84km/h | 9052m | -15.8m/s | -40°C | 87.6% | 313.8hPa | 2.5V | 08:15:01 | 02:18:35 | 00:00:00 | |
| DL1XH-west | 2026-09-01 05:50:17 | 52.69794 | 8.47614 | 94° | 84km/h | 9037m | -16m/s | -39.9°C | 87% | 314.5hPa | 2.6V | 08:15:01 | 02:18:36 | 00:00:00 | |
| DF5WG-10 | 2026-09-01 05:50:17 | 52.69794 | 8.47614 | 95° | 80km/h | 9037m | -16.0m/s | -39.8°C | 80.0% | 314.4hPa | 2.5V | 00:00:00 | 02:18:36 | 00:00:00 | |
| DO3DL | 2026-09-01 05:50:15 | 52.69795 | 8.47579 | 96° | 84km/h | 9052m | -15.8m/s | -40.0°C | 76.9% | 313.8hPa | 2.5V | 08:15:00 | 00:00:00 | 00:00:00 | |
| DL1XH-15 | 2026-09-01 05:50:14 | 52.69809 | 8.47345 | 95° | 77km/h | 9157m | -14.6m/s | -41°C | 79.4% | 308.9hPa | 2.5V | 08:15:06 | 02:18:28 | 00:00:00 | |
| DD8BA-10 | 2026-09-01 05:50:13 | 52.69801 | 8.47479 | 95° | 80km/h | 9098m | -15.1m/s | -40.4°C | 83.4% | 311.6hPa | 2.5V | 00:00:00 | 00:00:00 | 00:00:00 | |
| GOEST3-10 | 2026-09-01 05:50:12 | 52.69803 | 8.47445 | 95° | 80km/h | 9113m | -14.9m/s | -40.5°C | 83.6% | 310.9hPa | 2.6V | 00:00:00 | 00:00:00 | 00:00:00 | |
| DB0DAN | 2026-09-01 05:50:10 | 52.69807 | 8.47378 | 97° | 77km/h | 9142m | -14.6m/s | -40.8°C | 77.3% | 309.58hPa | 2.6V | 00:00:00 | 00:00:00 | 00:00:00 | |
| DO2JMG | 2026-09-01 05:50:10 | 52.69807 | 8.47378 | 97° | 80km/h | 9142m | -14.6m/s | -40.8°C | 87.7% | 309.6hPa | 2.6V | 08:15:52 | 02:18:29 | 00:00:00 | |
| AA1-15 | 2026-09-01 05:50:09 | 52.69809 | 8.47345 | 96° | 78km/h | 9157m | -14.6m/s | -41°C | 86.1% | 309hPa | 2.5V | 08:15:52 | 02:18:28 | 00:00:00 | |
| HSKMA3-T | 2026-09-01 05:50:07 | 52.69813 | 8.47281 | 95° | 78km/h | 9187m | -15.2m/s | -41.2°C | 85.8% | 307.7hPa | 2.5V | 08:15:52 | 02:18:26 | 00:00:00 | |
| DL1XH-west | 2026-09-01 05:50:06 | 52.69815 | 8.47248 | 95° | 80km/h | 9201m | -15m/s | -41.4°C | 85.3% | 307hPa | 2.5V | 08:15:52 | 02:18:25 | 00:00:00 | |
| BIOWL1-15 | 2026-09-01 05:50:05 | 52.69817 | 8.47214 | 95° | 80km/h | 9216m | -14.9m/s | -41.5°C | 84.2% | 306.3hPa | 2.6V | 08:15:52 | 02:18:24 | 00:00:00 | |
| AM1SDL-15 | 2026-09-01 05:50:04 | 52.69819 | 8.47181 | 97° | 78km/h | 9231m | -14.7m/s | -41.6°C | 75.9% | 305.5hPa | 2.6V | 00:00:00 | 02:18:23 | 00:00:00 | |
| DD8BA-10 | 2026-09-01 05:50:03 | 52.69821 | 8.47149 | 97° | 77km/h | 9245m | -14.4m/s | -41.7°C | 74.5% | 304.9hPa | 2.5V | 00:00:00 | 00:00:00 | 00:00:00 | |
| DL4BBY-15 | 2026-09-01 05:50:02 | 52.69823 | 8.47117 | 97° | 75km/h | 9260m | -14.6m/s | -44.4°C | 0% | 0hPa | 2.5V | 00:00:00 | 00:00:00 | 00:00:00 | |
| DC6BW-12 | 2026-09-01 05:50:01 | 52.69824 | 8.47117 | 97° | 77km/h | 9260m | -14.6m/s | -41.9°C | 69.3% | 304.3hPa | 2.5V | 08:15:00 | 00:00:00 | 00:00:00 | |
| DM0DOS-11 | 2026-09-01 05:50:00 | 52.69837 | 8.46891 | 95° | 75km/h | 9369m | -15.7m/s | -42.7°C | 67.9% | 299.5hPa | 2.5V | 08:15:20 | 02:18:14 | 00:00:00 | |
| DO2JMG | 2026-09-01 05:49:59 | 52.69829 | 8.47021 | 95° | 80km/h | 9305m | -15.9m/s | -42.2°C | 77.1% | 302.3hPa | 2.6V | 08:15:52 | 02:18:18 | 00:00:00 | |
| AA1-15 | 2026-09-01 05:49:58 | 52.69831 | 8.46988 | 95° | 80km/h | 9321m | -15.9m/s | -42.3°C | 76.7% | 301.6hPa | 2.6V | 08:15:52 | 02:18:17 | 00:00:00 | |
| DL1XH-west | 2026-09-01 05:49:56 | 52.69835 | 8.46923 | 96° | 77km/h | 9353m | -16m/s | -42.6°C | 75.9% | 300.2hPa | 2.6V | 08:15:52 | 02:18:15 | 00:00:00 | |
| DB0DAN | 2026-09-01 05:49:55 | 52.69837 | 8.46891 | 95° | 71km/h | 9369m | -15.7m/s | -42.7°C | 64% | 299.52hPa | 2.5V | 00:00:00 | 00:00:00 | 00:00:00 | |
| BIOWL1-15 | 2026-09-01 05:49:54 | 52.69838 | 8.46860 | 93° | 77km/h | 9384m | -15.9m/s | -42.8°C | 73.7% | 298.8hPa | 2.5V | 08:15:52 | 02:18:13 | 00:00:00 | |
| DD8BA-10 | 2026-09-01 05:49:53 | 52.69840 | 8.46828 | 94° | 75km/h | 9400m | -15.7m/s | -42.9°C | 64.8% | 298.0hPa | 2.6V | 00:00:00 | 00:00:00 | 00:00:00 | |
| GOEST3-10 | 2026-09-01 05:49:52 | 52.69841 | 8.46796 | 94° | 75km/h | 9416m | -15.7m/s | -43.0°C | 62.5% | 297.4hPa | 2.6V | 00:00:00 | 00:00:00 | 00:00:00 | |
| DB0UT-7 | 2026-09-01 05:49:51 | 52.69842 | 8.46764 | 95° | 71km/h | 9431m | -15.7m/s | -43.1°C | 60.2% | 296.7hPa | 2.5V | 00:00:00 | 02:18:10 | 00:00:00 | |
| DM0DOS-11 | 2026-09-01 05:49:50 | 52.69850 | 8.46580 | 95° | 73km/h | 9525m | -15.7m/s | -44°C | 45.9% | 292.7hPa | 2.5V | 08:15:30 | 02:18:04 | 00:00:00 | |
| DO2JMG | 2026-09-01 05:49:49 | 52.69846 | 8.46703 | 93° | 73km/h | 9462m | -16.1m/s | -43.5°C | 64% | 295.3hPa | 2.6V | 08:15:52 | 02:18:08 | 00:00:00 | |
| AA1-15 | 2026-09-01 05:49:47 | 52.69847 | 8.46642 | 94° | 77km/h | 9494m | -15.9m/s | -43.8°C | 59.4% | 293.9hPa | 2.5V | 08:15:52 | 02:18:06 | 00:00:00 | |
| DJ2DS-15 | 2026-09-01 05:49:46 | 52.69850 | 8.46580 | 95° | 71km/h | 9525m | -15.7m/s | -44.0°C | 42.5% | 292.7hPa | 2.6V | 00:00:00 | 00:00:00 | 00:00:00 | |
| BIOWL1-15 | 2026-09-01 05:49:45 | 52.69853 | 8.46521 | 93° | 71km/h | 9557m | -16m/s | -44.3°C | 51.6% | 291.2hPa | 2.6V | 08:15:52 | 02:18:02 | 00:00:00 | |
| DL1XH-west | 2026-09-01 05:49:45 | 52.69850 | 8.46580 | 96° | 73km/h | 9526m | -15.7m/s | -44°C | 52.4% | 292.7hPa | 2.5V | 08:15:52 | 02:18:04 | 00:00:00 | |
| DL1XH-15 | 2026-09-01 05:49:44 | 52.69857 | 8.46401 | 95° | 71km/h | 9620m | -16m/s | -44.8°C | 53% | 288.5hPa | 2.5V | 08:15:36 | 02:17:58 | 00:00:00 | |
| GOEST3-10 | 2026-09-01 05:49:42 | 52.69854 | 8.46492 | 93° | 71km/h | 9573m | -15.9m/s | -44.3°C | 47.0% | 290.5hPa | 2.5V | 00:00:00 | 00:00:00 | 00:00:00 | |
| DO3DL | 2026-09-01 05:49:41 | 52.69854 | 8.46492 | 94° | 73km/h | 9573m | -16.0m/s | -44.4°C | 43.4% | 290.5hPa | 2.5V | 08:15:00 | 00:00:00 | 00:00:00 | |
| DB0DAN | 2026-09-01 05:49:40 | 52.69856 | 8.46431 | 94° | 69km/h | 9604m | -16.4m/s | -44.7°C | 47.6% | 289.21hPa | 2.5V | 00:00:00 | 00:00:00 | 00:00:00 | |
| DM0DOS-11 | 2026-09-01 05:49:40 | 52.69862 | 8.46285 | 93° | 71km/h | 9683m | -16.5m/s | -45.4°C | 54.4% | 285.8hPa | 2.6V | 08:15:40 | 02:17:54 | 00:00:00 | |
| DF8AY | 2026-09-01 05:49:38 | 52.69865 | 8.46226 | 96° | 69km/h | 9717m | -16.5m/s | -45.7°C | 64.5% | 0hPa | 2.5V | 08:16:43 | 02:17:52 | 00:00:00 | |
| DO2JMG | 2026-09-01 05:49:38 | 52.69859 | 8.46372 | 94° | 69km/h | 9636m | -16.1m/s | -45°C | 61.3% | 287.8hPa | 2.6V | 08:15:52 | 02:17:57 | 00:00:00 | |
| AA1-15 | 2026-09-01 05:49:36 | 52.69861 | 8.46314 | 93° | 71km/h | 9668m | -15.9m/s | -45.3°C | 62.4% | 286.5hPa | 2.6V | 08:15:52 | 02:17:55 | 00:00:00 | |
| DL1XH-west | 2026-09-01 05:49:35 | 52.69862 | 8.46285 | 93° | 71km/h | 9683m | -16.5m/s | -45.4°C | 61.8% | 285.8hPa | 2.6V | 08:15:52 | 02:17:54 | 00:00:00 | |
| DL1XH-15 | 2026-09-01 05:49:34 | 52.69871 | 8.46112 | 94° | 69km/h | 9782m | -16.8m/s | -46.3°C | 58.9% | 281.6hPa | 2.6V | 08:15:46 | 02:17:48 | 00:00:00 | |
| BIOWL1-15 | 2026-09-01 05:49:32 | 52.69867 | 8.46197 | 95° | 68km/h | 9733m | -16.6m/s | -45.9°C | 66% | 283.6hPa | 2.5V | 08:15:52 | 02:17:51 | 00:00:00 | |
| DL4BBY-15 | 2026-09-01 05:49:32 | 52.69867 | 8.46197 | 96° | 64km/h | 9733m | -16.6m/s | -48.4°C | 0% | 0hPa | 2.5V | 00:00:00 | 00:00:00 | 00:00:00 | |
| EDDB2-12 | 2026-09-01 05:49:31 | 52.69868 | 8.46169 | 93° | 66km/h | 9750m | -16.7m/s | -46.0°C | 54.5% | 282.9hPa | 2.5V | 00:00:00 | 00:00:00 | 00:00:00 | |
| DM0DOS-11 | 2026-09-01 05:49:30 | 52.69877 | 8.46001 | 93° | 66km/h | 9848m | -16.9m/s | -46.8°C | 55.3% | 278.7hPa | 2.5V | 08:15:50 | 02:17:44 | 00:00:00 | |
| DO2JMG | 2026-09-01 05:49:28 | 52.69872 | 8.46083 | 96° | 69km/h | 9799m | -16.9m/s | -46.5°C | 66.3% | 280.9hPa | 2.6V | 08:15:52 | 02:17:47 | 00:00:00 | |
| GOEST3-10 | 2026-09-01 05:49:27 | 52.69874 | 8.46055 | 97° | 66km/h | 9816m | -16.4m/s | -46.5°C | 58.9% | 280.1hPa | 2.5V | 00:00:00 | 02:17:46 | 00:00:00 | |
| DO3DL | 2026-09-01 05:49:26 | 52.69874 | 8.46055 | 97° | 66km/h | 9816m | -16.5m/s | -46.6°C | 54.7% | 280.2hPa | 2.5V | 08:15:00 | 00:00:00 | 00:00:00 | |
| DB0DAN | 2026-09-01 05:49:25 | 52.69877 | 8.46001 | 93° | 64km/h | 9848m | -16.9m/s | -46.8°C | 51.2% | 278.7hPa | 2.5V | 00:00:00 | 00:00:00 | 00:00:00 | |
| DL1XH-west | 2026-09-01 05:49:25 | 52.69877 | 8.46001 | 93° | 66km/h | 9849m | -16.9m/s | -46.8°C | 62.4% | 278.7hPa | 2.5V | 08:15:52 | 02:17:44 | 00:00:00 | |
| BIOWL1-15 | 2026-09-01 05:49:22 | 52.69881 | 8.45919 | 97° | 64km/h | 9898m | -16.8m/s | -47.2°C | 55.8% | 276.6hPa | 2.6V | 08:16:43 | 02:17:41 | 00:00:00 | |
| DB0UT-7 | 2026-09-01 05:49:21 | 52.69882 | 8.45893 | 94° | 66km/h | 9915m | -16.7m/s | -47.3°C | 48.3% | 275.8hPa | 2.6V | 00:00:00 | 00:00:00 | 00:00:00 | |
| DO3DL | 2026-09-01 05:49:20 | 52.69882 | 8.45893 | 95° | 62km/h | 9915m | -16.8m/s | -47.3°C | 44.3% | 275.9hPa | 2.6V | 08:16:00 | 00:00:00 | 00:00:00 | |
| DM0DOS-11 | 2026-09-01 05:49:19 | 52.69891 | 8.45738 | 93° | 60km/h | 10015m | -17.2m/s | -48°C | 43.5% | 271.8hPa | 2.6V | 08:16:00 | 02:17:34 | 00:00:00 | |
| DO2JMG | 2026-09-01 05:49:17 | 52.69888 | 8.45789 | 97° | 62km/h | 9982m | -17.1m/s | -47.8°C | 49.3% | 273.2hPa | 2.6V | 08:16:43 | 02:17:36 | 00:00:00 | |
| BIOWL1-15 | 2026-09-01 05:49:15 | 52.69897 | 8.45636 | 95° | 60km/h | 10084m | -17.2m/s | -48.5°C | 45% | 269hPa | 2.5V | 08:16:43 | 02:17:30 | 00:00:00 | |
| HSKMA3-T | 2026-09-01 05:49:15 | 52.69891 | 8.45738 | 94° | 60km/h | 10015m | -17.2m/s | -48°C | 50.2% | 271.8hPa | 2.6V | 08:16:43 | 02:17:34 | 00:00:00 | |
| DL1XH-west | 2026-09-01 05:49:14 | 52.69893 | 8.45713 | 94° | 62km/h | 10032m | -17.3m/s | -48.1°C | 49.3% | 271.1hPa | 2.6V | 08:16:43 | 02:17:33 | 00:00:00 | |
| DD8BA-10 | 2026-09-01 05:49:13 | 52.69894 | 8.45687 | 94° | 64km/h | 10050m | -17.5m/s | -48.2°C | 41.7% | 270.3hPa | 2.5V | 00:00:00 | 00:00:00 | 00:00:00 | |
| GOEST3-10 | 2026-09-01 05:49:12 | 52.69895 | 8.45661 | 96° | 62km/h | 10067m | -17.2m/s | -48.3°C | 40.1% | 269.6hPa | 2.6V | 00:00:00 | 00:00:00 | 00:00:00 | |
| AP2371 | 2026-09-01 05:49:11 | 52.69895 | 8.45661 | 96° | 62km/h | 10067m | -17.3m/s | -48.4°C | 36.2% | 269.7hPa | 2.6V | 00:00:00 | 00:00:00 | 00:00:00 | |
| DB0DAN | 2026-09-01 05:49:10 | 52.69898 | 8.45611 | 93° | 57km/h | 10101m | -17.6m/s | -48.6°C | 33.3% | 268.29hPa | 2.6V | 00:00:00 | 00:00:00 | 00:00:00 | |
| DO2JMG | 2026-09-01 05:49:07 | 52.69900 | 8.45532 | 94° | 66km/h | 10153m | -17.6m/s | -48.9°C | 42.4% | 266.1hPa | 2.6V | 08:16:43 | 02:17:26 | 00:00:00 | |
| AA1-15 | 2026-09-01 05:49:04 | 52.69903 | 8.45452 | 92° | 64km/h | 10205m | -17.4m/s | -49.3°C | 42.5% | 264.1hPa | 2.5V | 08:16:43 | 02:17:23 | 00:00:00 | |
| DL1XH-west | 2026-09-01 05:49:03 | 52.69904 | 8.45425 | 93° | 68km/h | 10223m | -17.5m/s | -49.4°C | 42.8% | 263.4hPa | 2.6V | 08:16:43 | 02:17:22 | 00:00:00 | |
| BIOWL1-15 | 2026-09-01 05:49:00 | 52.69907 | 8.45340 | 94° | 66km/h | 10275m | -17.1m/s | -49.8°C | 43.7% | 261.3hPa | 2.6V | 08:16:43 | 02:17:19 | 00:00:00 | |
| DO2JMG | 2026-09-01 05:48:56 | 52.69910 | 8.45225 | 95° | 69km/h | 10346m | -17.6m/s | -50.4°C | 45.2% | 258.4hPa | 2.6V | 08:16:43 | 02:17:15 | 00:00:00 | |
| DM0DOS-11 | 2026-09-01 05:48:55 | 52.69911 | 8.45197 | 93° | 68km/h | 10364m | -17.3m/s | -50.5°C | 39.5% | 257.8hPa | 2.6V | 08:16:20 | 02:17:14 | 00:00:00 | |
| DL1XH-15 | 2026-09-01 05:48:54 | 52.69920 | 8.45024 | 95° | 69km/h | 10470m | -17.7m/s | -51.2°C | 41.7% | 253.7hPa | 2.6V | 08:16:26 | 02:17:08 | 00:00:00 | |
| HSKMA3-T | 2026-09-01 05:48:54 | 52.69912 | 8.45168 | 93° | 69km/h | 10381m | -17.5m/s | -50.7°C | 46% | 257.1hPa | 2.6V | 08:16:43 | 02:17:13 | 00:00:00 | |
| AA1-15 | 2026-09-01 05:48:53 | 52.69913 | 8.45139 | 94° | 71km/h | 10399m | -17.3m/s | -50.8°C | 46.4% | 256.4hPa | 2.6V | 08:16:43 | 02:17:12 | 00:00:00 | |
| BIOWL1-15 | 2026-09-01 05:48:49 | 52.69920 | 8.45024 | 96° | 69km/h | 10470m | -17.7m/s | -51.2°C | 48.1% | 253.7hPa | 2.6V | 08:16:43 | 02:17:08 | 00:00:00 | |
| DM0DOS-11 | 2026-09-01 05:48:49 | 52.69929 | 8.44909 | 98° | 68km/h | 10540m | -17.4m/s | -51.7°C | 43.6% | 251hPa | 2.6V | 08:16:30 | 02:17:04 | 00:00:00 | |
| DF8AY | 2026-09-01 05:48:48 | 52.69921 | 8.44995 | 96° | 71km/h | 10487m | -17.8m/s | -51.3°C | 48.6% | 0hPa | 2.6V | 08:16:43 | 02:17:07 | 00:00:00 | |
| DO2JMG | 2026-09-01 05:48:46 | 52.69926 | 8.44937 | 100° | 68km/h | 10523m | -17.3m/s | -51.6°C | 49.4% | 251.6hPa | 2.5V | 08:16:43 | 02:17:05 | 00:00:00 | |
| DL1CLM-18 | 2026-09-01 05:48:45 | 52.69926 | 8.44937 | 101° | 68km/h | 10523m | -17.3m/s | -51.6°C | 38.5% | 251.6hPa | 2.6V | 00:00:00 | 00:00:00 | 00:00:00 | |
| DL1XH-15 | 2026-09-01 05:48:44 | 52.69942 | 8.44739 | 95° | 71km/h | 10645m | -17.5m/s | -52.5°C | 47% | 246.9hPa | 2.6V | 08:16:36 | 02:16:58 | 00:00:00 | |
| HSKMA3-T | 2026-09-01 05:48:43 | 52.69933 | 8.44852 | 98° | 71km/h | 10575m | -17.7m/s | -52°C | 51% | 249.6hPa | 2.6V | 08:16:43 | 02:17:02 | 00:00:00 | |
| DL1XH-west | 2026-09-01 05:48:42 | 52.69936 | 8.44823 | 99° | 69km/h | 10592m | -17.6m/s | -52.1°C | 51.6% | 249hPa | 2.5V | 08:16:43 | 02:17:01 | 00:00:00 | |
| DB0DAN | 2026-09-01 05:48:40 | 52.69940 | 8.44767 | 95° | 66km/h | 10627m | -17.7m/s | -52.4°C | 41.6% | 247.6hPa | 2.6V | 00:00:00 | 00:00:00 | 00:00:00 | |
| DM0DOS-11 | 2026-09-01 05:48:40 | 52.69949 | 8.44623 | 94° | 71km/h | 10713m | -17.2m/s | -53.1°C | 49.2% | 244.3hPa | 2.6V | 08:16:40 | 02:16:54 | 00:00:00 | |
| BIOWL1-15 | 2026-09-01 05:48:40 | 52.69944 | 8.44710 | 96° | 69km/h | 10662m | -17.4m/s | -52.7°C | 53.8% | 246.3hPa | 2.5V | 08:16:43 | 02:16:57 | 00:00:00 | |
| DO2JMG | 2026-09-01 05:48:35 | 52.69949 | 8.44623 | 94° | 73km/h | 10713m | -17.2m/s | -53.1°C | 55% | 244.3hPa | 2.6V | 08:16:43 | 02:16:54 | 00:00:00 | |
| D01LWL | 2026-09-01 05:48:35 | 52.69950 | 8.44593 | 94° | 71km/h | 10730m | -17.2m/s | -53.3°C | 44.2% | 243.6hPa | 2.6V | 00:00:00 | 00:00:00 | 00:00:00 | |
| DL1XH-15 | 2026-09-01 05:48:34 | 52.69957 | 8.44439 | 95° | 77km/h | 10816m | -17.1m/s | -53.8°C | 48.4% | 240.4hPa | 2.6V | 08:16:46 | 02:16:48 | 00:00:00 | |
| DL1XH-west | 2026-09-01 05:48:32 | 52.69953 | 8.44532 | 94° | 75km/h | 10764m | -17.4m/s | -53.5°C | 54.8% | 242.3hPa | 2.5V | 08:16:43 | 02:16:51 | 00:00:00 | |
| AA1-15 | 2026-09-01 05:48:31 | 52.69954 | 8.44501 | 94° | 73km/h | 10782m | -17.2m/s | -53.6°C | 54.5% | 241.7hPa | 2.6V | 08:17:34 | 02:16:50 | 00:00:00 | |
| BIOWL1-15 | 2026-09-01 05:48:29 | 52.69959 | 8.44375 | 93° | 78km/h | 10850m | -17.2m/s | -54.1°C | 53.3% | 239.2hPa | 2.5V | 08:17:34 | 02:16:46 | 00:00:00 | |
| DO2JMG | 2026-09-01 05:48:25 | 52.69962 | 8.44311 | 94° | 75km/h | 10885m | -17.3m/s | -54.4°C | 52.5% | 237.9hPa | 2.5V | 08:17:34 | 02:16:44 | 00:00:00 | |
| DL1XH-15 | 2026-09-01 05:48:24 | 52.69972 | 8.44122 | 95° | 77km/h | 10988m | -17.5m/s | -55.1°C | 47.4% | 234.1hPa | 2.5V | 08:16:56 | 02:16:38 | 00:00:00 | |
| DL1XH-west | 2026-09-01 05:48:22 | 52.69967 | 8.44216 | 96° | 75km/h | 10936m | -17.2m/s | -54.8°C | 51.8% | 235.9hPa | 2.6V | 08:17:34 | 02:16:41 | 00:00:00 | |
| DF8AY | 2026-09-01 05:48:21 | 52.69968 | 8.44185 | 94° | 75km/h | 10953m | -17.4m/s | -54.9°C | 51.5% | 0hPa | 2.6V | 08:17:34 | 02:16:40 | 00:00:00 | |
| DB0UT-7 | 2026-09-01 05:48:21 | 52.69968 | 8.44184 | 95° | 77km/h | 10953m | -17.3m/s | -54.9°C | 47.9% | 235.2hPa | 2.6V | 00:00:00 | 00:00:00 | 00:00:00 | |
| DM0DOS-11 | 2026-09-01 05:48:20 | 52.69978 | 8.43999 | 94° | 73km/h | 11058m | -17.7m/s | -55.5°C | 45.7% | 231.5hPa | 2.6V | 08:17:00 | 02:16:34 | 00:00:00 | |
| AA1-15 | 2026-09-01 05:48:20 | 52.69970 | 8.44153 | 95° | 77km/h | 10970m | -17.3m/s | -55°C | 51% | 234.7hPa | 2.5V | 08:17:34 | 02:16:39 | 00:00:00 | |
| BIOWL1-15 | 2026-09-01 05:48:17 | 52.69975 | 8.44061 | 93° | 73km/h | 11023m | -17.5m/s | -55.3°C | 49.3% | 232.8hPa | 2.5V | 08:17:34 | 02:16:36 | 00:00:00 | |
| DO2JMG | 2026-09-01 05:48:15 | 52.69978 | 8.43999 | 95° | 73km/h | 11058m | -17.7m/s | -55.5°C | 48.4% | 231.5hPa | 2.6V | 08:17:34 | 02:16:34 | 00:00:00 | |
| DL1XH-15 | 2026-09-01 05:48:14 | 52.69983 | 8.43817 | 89° | 73km/h | 11161m | -17.6m/s | -56.1°C | 43% | 227.7hPa | 2.6V | 08:17:06 | 02:16:28 | 00:00:00 | |
| HSKMA3-T | 2026-09-01 05:48:12 | 52.69981 | 8.43908 | 92° | 75km/h | 11110m | -17.6m/s | -55.8°C | 47% | 229.6hPa | 2.5V | 08:17:34 | 02:16:31 | 00:00:00 | |
| DL1XH-west | 2026-09-01 05:48:11 | 52.69982 | 8.43877 | 93° | 73km/h | 11127m | -17.3m/s | -55.9°C | 46.4% | 228.9hPa | 2.5V | 08:17:34 | 02:16:30 | 00:00:00 | |
| DB0DAN | 2026-09-01 05:48:10 | 52.69983 | 8.43847 | 92° | 69km/h | 11144m | -17m/s | -56°C | 38.1% | 228.34hPa | 2.6V | 00:00:00 | 00:00:00 | 00:00:00 | |
| DM0DOS-11 | 2026-09-01 05:48:10 | 52.69982 | 8.43690 | 89° | 75km/h | 11232m | -17.9m/s | -56.2°C | 39.8% | 225.2hPa | 2.6V | 08:17:10 | 02:16:24 | 00:00:00 | |
| AA1-15 | 2026-09-01 05:48:09 | 52.69983 | 8.43817 | 90° | 73km/h | 11161m | -17.6m/s | -56.1°C | 45.3% | 227.8hPa | 2.6V | 08:17:34 | 02:16:28 | 00:00:00 | |
| BIOWL1-15 | 2026-09-01 05:48:06 | 52.69983 | 8.43722 | 89° | 77km/h | 11214m | -18.1m/s | -56.2°C | 43.1% | 225.8hPa | 2.6V | 08:17:34 | 02:16:25 | 00:00:00 | |
| DO2JMG | 2026-09-01 05:48:04 | 52.69982 | 8.43658 | 87° | 75km/h | 11250m | -17.8m/s | -56.2°C | 41.7% | 224.6hPa | 2.6V | 08:17:34 | 02:16:23 | 00:00:00 | |
| DL3AQ-11 | 2026-09-01 05:48:04 | 52.69981 | 8.43626 | 87° | 78km/h | 11268m | -17.8m/s | -56.1°C | 32.5% | 223.9hPa | 2.6V | 00:00:00 | 00:00:00 | 00:00:00 | |
| DL1NUX | 2026-09-01 05:48:03 | 52.69976 | 8.43460 | 86° | 82km/h | 11357m | -18m/s | -56°C | 34.5% | 220.8hPa | 2.6V | 08:17:17 | 02:16:17 | 00:00:00 | |
| DL1XH-west | 2026-09-01 05:48:01 | 52.69979 | 8.43560 | 88° | 78km/h | 11303m | -18.1m/s | -56.1°C | 39.7% | 222.7hPa | 2.5V | 08:17:34 | 02:16:20 | 00:00:00 | |
| DM0DOS-11 | 2026-09-01 05:48:00 | 52.69973 | 8.43356 | 88° | 82km/h | 11411m | -17.7m/s | -56.2°C | 33.5% | 219hPa | 2.5V | 08:17:20 | 02:16:14 | 00:00:00 | |
| AA1-15 | 2026-09-01 05:47:59 | 52.69976 | 8.43460 | 86° | 82km/h | 11357m | -18m/s | -56°C | 37.9% | 220.8hPa | 2.6V | 08:17:34 | 02:16:17 | 00:00:00 | |
| BIOWL1-15 | 2026-09-01 05:47:56 | 52.69973 | 8.43390 | 88° | 82km/h | 11393m | -17.8m/s | -56.2°C | 37% | 219.6hPa | 2.6V | 08:17:34 | 02:16:15 | 00:00:00 | |
| DO2JMG | 2026-09-01 05:47:54 | 52.69972 | 8.43322 | 88° | 82km/h | 11429m | -18.1m/s | -56.2°C | 36% | 218.4hPa | 2.5V | 08:17:34 | 02:16:13 | 00:00:00 | |
| DL1NUX | 2026-09-01 05:47:53 | 52.69970 | 8.43113 | 88° | 84km/h | 11537m | -18.5m/s | -56.9°C | 31.9% | 214.7hPa | 2.5V | 08:17:27 | 02:16:07 | 00:00:00 | |
| HSKMA3-T | 2026-09-01 05:47:51 | 52.69970 | 8.43217 | 89° | 84km/h | 11483m | -18.2m/s | -56.4°C | 34.6% | 216.5hPa | 2.6V | 08:17:34 | 02:16:10 | 00:00:00 | |
| DL1XH-west | 2026-09-01 05:47:50 | 52.69970 | 8.43182 | 90° | 84km/h | 11501m | -18.1m/s | -56.6°C | 34.3% | 215.9hPa | 2.5V | 08:17:34 | 02:16:09 | 00:00:00 | |
| AA1-15 | 2026-09-01 05:47:47 | 52.69969 | 8.43077 | 89° | 88km/h | 11556m | -18.5m/s | -57°C | 32.9% | 214.1hPa | 2.6V | 08:17:34 | 02:16:06 | 00:00:00 | |
| DF5WG-10 | 2026-09-01 05:47:47 | 52.69969 | 8.43077 | 90° | 86km/h | 11556m | -18.5m/s | -57.0°C | 31.7% | 214.0hPa | 2.5V | 00:00:00 | 02:16:06 | 00:00:00 | |
| DO3DL | 2026-09-01 05:47:46 | 52.69969 | 8.43077 | 90° | 88km/h | 11556m | -18.5m/s | -57.0°C | 26.5% | 214.1hPa | 2.5V | 08:17:00 | 00:00:00 | 00:00:00 | |
| DO9LL-15 | 2026-09-01 05:47:45 | 52.69969 | 8.43005 | 91° | 86km/h | 11593m | -18.3m/s | -57.2°C | 31.1% | 212.7hPa | 2.5V | 00:00:00 | 02:16:04 | 00:00:00 | |
| BIOWL1-15 | 2026-09-01 05:47:45 | 52.69969 | 8.43005 | 91° | 84km/h | 11593m | -18.3m/s | -57.2°C | 31.8% | 212.8hPa | 2.6V | 08:17:34 | 02:16:04 | 00:00:00 | |
| DL1XH-15 | 2026-09-01 05:47:44 | 52.69970 | 8.42792 | 92° | 84km/h | 11703m | -18.2m/s | -57.7°C | 28.7% | 209.1hPa | 2.5V | 08:17:36 | 02:15:58 | 00:00:00 | |
| DO2JMG | 2026-09-01 05:47:43 | 52.69969 | 8.42935 | 89° | 86km/h | 11629m | -18.5m/s | -57.5°C | 30.9% | 211.5hPa | 2.5V | 08:17:34 | 02:16:02 | 00:00:00 | |
| DD8BA-10 | 2026-09-01 05:47:43 | 52.69969 | 8.42935 | 90° | 86km/h | 11629m | -18.5m/s | -57.5°C | 30.9% | 211.5hPa | 2.5V | 00:00:00 | 00:00:00 | 00:00:00 | |
| GOEST3-10 | 2026-09-01 05:47:42 | 52.69968 | 8.42899 | 90° | 86km/h | 11648m | -18.5m/s | -57.6°C | 30.5% | 210.9hPa | 2.6V | 00:00:00 | 00:00:00 | 00:00:00 | |
| DB0DAN | 2026-09-01 05:47:40 | 52.69969 | 8.42827 | 92° | 82km/h | 11685m | -18.5m/s | -57.7°C | 24.2% | 209.71hPa | 2.6V | 00:00:00 | 00:00:00 | 00:00:00 | |
| DL1XH-west | 2026-09-01 05:47:40 | 52.69969 | 8.42827 | 92° | 86km/h | 11685m | -18.5m/s | -57.7°C | 29% | 209.7hPa | 2.6V | 08:18:25 | 02:15:59 | 00:00:00 | |
| AA1-15 | 2026-09-01 05:47:37 | 52.69971 | 8.42722 | 92° | 86km/h | 11739m | -18.3m/s | -57.8°C | 26.8% | 207.9hPa | 2.5V | 08:18:25 | 02:15:56 | 00:00:00 | |
| BIOWL1-15 | 2026-09-01 05:47:36 | 52.69974 | 8.42616 | 95° | 84km/h | 11795m | -18.7m/s | -57.6°C | 24.4% | 206.1hPa | 2.6V | 08:18:25 | 02:15:53 | 00:00:00 | |
| DO2JMG | 2026-09-01 05:47:33 | 52.69976 | 8.42581 | 94° | 82km/h | 11813m | -18.5m/s | -57.7°C | 23.5% | 205.5hPa | 2.5V | 08:18:25 | 02:15:52 | 00:00:00 | |
| HSKMA3-T | 2026-09-01 05:47:30 | 52.69980 | 8.42476 | 94° | 88km/h | 11869m | -19m/s | -57.5°C | 20.6% | 203.7hPa | 2.5V | 08:18:25 | 02:15:49 | 00:00:00 | |
| DL1XH-west | 2026-09-01 05:47:29 | 52.69982 | 8.42440 | 95° | 86km/h | 11887m | -18.8m/s | -57.5°C | 19.8% | 203.1hPa | 2.6V | 08:18:25 | 02:15:48 | 00:00:00 | |
| AA1-15 | 2026-09-01 05:47:26 | 52.69986 | 8.42333 | 92° | 86km/h | 11943m | -19m/s | -56.8°C | 17.4% | 201.3hPa | 2.5V | 08:19:16 | 02:15:45 | 00:00:00 | |
| SMARD9-15 | 2026-09-01 05:47:25 | 52.69987 | 8.42296 | 93° | 88km/h | 11962m | -18.9m/s | -56.9°C | 13.7% | 200.7hPa | 2.5V | 00:00:00 | 00:00:00 | 00:00:00 | |
| DL1XH-15 | 2026-09-01 05:47:24 | 52.69992 | 8.42080 | 89° | 89km/h | 12074m | -19.3m/s | -56.5°C | 14.2% | 197.1hPa | 2.5V | 08:17:56 | 02:15:38 | 00:00:00 | |
| BIOWL1-15 | 2026-09-01 05:47:24 | 52.69989 | 8.42260 | 94° | 88km/h | 11981m | -18.9m/s | -56.9°C | 16% | 200.1hPa | 2.5V | 08:18:25 | 02:15:43 | 00:00:00 | |
| DO2JMG | 2026-09-01 05:47:22 | 52.69991 | 8.42188 | 92° | 86km/h | 12018m | -18.5m/s | -56.7°C | 14.6% | 198.9hPa | 2.6V | 08:18:25 | 02:15:41 | 00:00:00 | |
| DL1XH-west | 2026-09-01 05:47:19 | 52.69992 | 8.42080 | 90° | 89km/h | 12074m | -19.3m/s | -56.6°C | 12.6% | 197.1hPa | 2.5V | 08:18:25 | 02:15:38 | 00:00:00 | |
| DF8AY | 2026-09-01 05:47:18 | 52.69992 | 8.42043 | 90° | 89km/h | 12093m | -19.3m/s | 0°C | 0% | 0hPa | 2.6V | 08:18:25 | 02:15:37 | 00:00:00 | |
| AA1-15 | 2026-09-01 05:47:16 | 52.69992 | 8.41971 | 92° | 86km/h | 12132m | -18.8m/s | -56.7°C | 10.6% | 195.4hPa | 2.6V | 08:18:25 | 02:15:35 | 00:00:00 | |
| BIOWL1-15 | 2026-09-01 05:47:15 | 52.69993 | 8.41865 | 91° | 86km/h | 12187m | -18.9m/s | -56.3°C | 8.4% | 193.7hPa | 2.5V | 08:18:25 | 02:15:32 | 00:00:00 | |
| DO9LL-15 | 2026-09-01 05:47:15 | 52.69993 | 8.41936 | 91° | 75km/h | 12151m | -18.6m/s | -56.6°C | 11.9% | 194.8hPa | 2.5V | 00:00:00 | 02:15:34 | 00:00:00 | |
| DL1XH-15 | 2026-09-01 05:47:14 | 52.69997 | 8.41733 | 93° | 77km/h | 12263m | -19.3m/s | -55°C | 8.1% | 191.4hPa | 2.5V | 08:18:06 | 02:15:28 | 00:00:00 | |
| DO2JMG | 2026-09-01 05:47:12 | 52.69994 | 8.41830 | 93° | 82km/h | 12206m | -19m/s | -56.2°C | 7.8% | 193.1hPa | 2.6V | 08:18:25 | 02:15:31 | 00:00:00 | |
| DB0DAN | 2026-09-01 05:47:10 | 52.69996 | 8.41765 | 92° | 73km/h | 12244m | -19.2m/s | -55.3°C | 5.4% | 191.97hPa | 2.5V | 00:00:00 | 00:00:00 | 00:00:00 | |
| DL1XH-west | 2026-09-01 05:47:09 | 52.69997 | 8.41733 | 93° | 77km/h | 12263m | -19.3m/s | -55°C | 5.9% | 191.4hPa | 2.5V | 08:18:25 | 02:15:28 | 00:00:00 | |
| HSKMA3-T | 2026-09-01 05:47:08 | 52.69998 | 8.41702 | 95° | 71km/h | 12282m | -19.1m/s | -54.6°C | 5.4% | 190.8hPa | 2.5V | 08:18:25 | 02:15:27 | 00:00:00 | |
| AA1-15 | 2026-09-01 05:47:05 | 52.70001 | 8.41615 | 92° | 69km/h | 12338m | -19.1m/s | -54.7°C | 4.7% | 189.1hPa | 2.6V | 08:18:25 | 02:15:24 | 00:00:00 | |
| BIOWL1-15 | 2026-09-01 05:47:03 | 52.70003 | 8.41533 | 90° | 64km/h | 12396m | -19.6m/s | -54.5°C | 3.9% | 187.4hPa | 2.5V | 08:18:25 | 02:15:21 | 00:00:00 | |
| DO2JMG | 2026-09-01 05:47:03 | 52.70003 | 8.41507 | 88° | 66km/h | 12415m | -19.7m/s | -54.3°C | 3.6% | 186.9hPa | 2.5V | 08:18:25 | 02:15:20 | 00:00:00 | |
| DL1XH-west | 2026-09-01 05:46:59 | 52.70002 | 8.41451 | 89° | 69km/h | 12454m | -19.7m/s | -54°C | 3.2% | 185.7hPa | 2.6V | 08:18:25 | 02:15:18 | 00:00:00 | |
| DM0DOS-11 | 2026-09-01 05:46:58 | 52.70003 | 8.41333 | 90° | 75km/h | 12532m | -19.6m/s | -54.1°C | 5.5% | 183.5hPa | 2.5V | 08:18:20 | 02:15:14 | 00:00:00 | |
| HSKMA3-T | 2026-09-01 05:46:58 | 52.70002 | 8.41422 | 91° | 69km/h | 12474m | -19.4m/s | -53.9°C | 3% | 185.1hPa | 2.6V | 08:18:25 | 02:15:17 | 00:00:00 | |
| DF8AY | 2026-09-01 05:46:57 | 52.70002 | 8.41393 | 91° | 69km/h | 12494m | -19.4m/s | 0°C | 0% | 0hPa | 2.5V | 08:18:25 | 02:15:16 | 00:00:00 | |
| EDDB2-12 | 2026-09-01 05:46:56 | 52.70003 | 8.41363 | 90° | 69km/h | 12513m | -19.4m/s | -54.0°C | 2.8% | 184.1hPa | 2.6V | 00:00:00 | 00:00:00 | 00:00:00 | |
| DC6BW-12 | 2026-09-01 05:46:55 | 52.70003 | 8.41363 | 92° | 71km/h | 12513m | -19.4m/s | -54.0°C | 2.9% | 184.1hPa | 2.6V | 08:18:00 | 00:00:00 | 00:00:00 | |
| DL1XH-15 | 2026-09-01 05:46:54 | 52.70013 | 8.41144 | 96° | 77km/h | 12650m | -20.1m/s | -53.4°C | 4.8% | 180.1hPa | 2.6V | 08:18:26 | 02:15:08 | 00:00:00 | |
| AA1-15 | 2026-09-01 05:46:54 | 52.70003 | 8.41302 | 92° | 77km/h | 12552m | -19.6m/s | -54.3°C | 2.6% | 182.9hPa | 2.6V | 08:19:16 | 02:15:13 | 00:00:00 | |
| BIOWL1-15 | 2026-09-01 05:46:52 | 52.70006 | 8.41238 | 96° | 77km/h | 12591m | -19.8m/s | -54.1°C | 2.2% | 181.8hPa | 2.5V | 08:18:25 | 02:15:11 | 00:00:00 | |
| DL1NUX | 2026-09-01 05:46:51 | 52.70020 | 8.41048 | 97° | 77km/h | 12710m | -20.2m/s | -52.7°C | 4.4% | 178.5hPa | 2.5V | 08:18:29 | 02:15:05 | 00:00:00 | |
| DO2JMG | 2026-09-01 05:46:51 | 52.70008 | 8.41207 | 97° | 77km/h | 12610m | -19.6m/s | -53.9°C | 2.1% | 181.2hPa | 2.5V | 08:18:25 | 02:15:10 | 00:00:00 | |
| DL1XH-west | 2026-09-01 05:46:49 | 52.70013 | 8.41144 | 96° | 77km/h | 12650m | -20.1m/s | -53.4°C | 1.8% | 180.1hPa | 2.6V | 08:19:16 | 02:15:08 | 00:00:00 | |
| HSKMA3-T | 2026-09-01 05:46:48 | 52.70015 | 8.41113 | 97° | 78km/h | 12669m | -20.4m/s | -53°C | 1.7% | 179.6hPa | 2.6V | 08:19:16 | 02:15:07 | 00:00:00 | |
| DF8AY | 2026-09-01 05:46:45 | 52.70023 | 8.41017 | 98° | 75km/h | 12730m | -20m/s | 0°C | 0% | 0hPa | 2.5V | 18:12:15 | 02:15:04 | 00:00:00 | |
| DO9LL-15 | 2026-09-01 05:46:45 | 52.70023 | 8.41017 | 99° | 66km/h | 12730m | -19.9m/s | -52.7°C | 4.3% | 177.9hPa | 2.5V | 00:00:00 | 02:15:04 | 00:00:00 | |
| DL1XH-15 | 2026-09-01 05:46:44 | 52.70031 | 8.40840 | 91° | 69km/h | 12849m | -19.7m/s | -53°C | 4.3% | 174.7hPa | 2.5V | 08:18:36 | 02:14:58 | 00:00:00 | |
| AA1-15 | 2026-09-01 05:46:43 | 52.70028 | 8.40958 | 95° | 69km/h | 12770m | -20.1m/s | -52.6°C | 1.3% | 176.8hPa | 2.6V | 08:19:16 | 02:15:02 | 00:00:00 | |
| BIOWL1-15 | 2026-09-01 05:46:41 | 52.70030 | 8.40900 | 92° | 71km/h | 12809m | -20m/s | -52.7°C | 1.2% | 175.7hPa | 2.5V | 08:19:16 | 02:15:00 | 00:00:00 | |
| DB0DAN | 2026-09-01 05:46:40 | 52.70031 | 8.40870 | 91° | 69km/h | 12829m | -20.1m/s | -52.9°C | 1.9% | 175.18hPa | 2.5V | 00:00:00 | 00:00:00 | 00:00:00 | |
| DO2JMG | 2026-09-01 05:46:40 | 52.70031 | 8.40870 | 91° | 71km/h | 12829m | -20.1m/s | -52.9°C | 1.2% | 175.2hPa | 2.5V | 08:19:16 | 02:14:59 | 00:00:00 | |
| DM0DOS-11 | 2026-09-01 05:46:38 | 52.70028 | 8.40722 | 86° | 75km/h | 12927m | -20.4m/s | -53.2°C | 4.4% | 172.5hPa | 2.5V | 08:18:40 | 02:14:54 | 00:00:00 | |
| DL1XH-west | 2026-09-01 05:46:38 | 52.70031 | 8.40811 | 89° | 69km/h | 12868m | -19.6m/s | -53°C | 1.1% | 174.1hPa | 2.6V | 08:19:16 | 02:14:57 | 00:00:00 | |
| HSKMA3-T | 2026-09-01 05:46:37 | 52.70030 | 8.40782 | 86° | 71km/h | 12888m | -19.8m/s | -53.1°C | 1.1% | 173.6hPa | 2.6V | 08:19:16 | 02:14:56 | 00:00:00 | |
| DF8AY | 2026-09-01 05:46:36 | 52.70028 | 8.40722 | 86° | 75km/h | 12927m | -20.4m/s | 0°C | 0% | 0hPa | 2.5V | 18:12:15 | 02:14:54 | 00:00:00 | |
| DC6BW-12 | 2026-09-01 05:46:35 | 52.70029 | 8.40753 | 87° | 75km/h | 12907m | -20.3m/s | -53.1°C | 1.9% | 173.0hPa | 2.5V | 08:19:00 | 00:00:00 | 00:00:00 | |
| DL1XH-15 | 2026-09-01 05:46:34 | 52.70023 | 8.40534 | 90° | 78km/h | 13049m | -20.3m/s | -52.6°C | 4.2% | 169.4hPa | 2.5V | 08:18:46 | 02:14:48 | 00:00:00 | |
| AA1-15 | 2026-09-01 05:46:32 | 52.70024 | 8.40628 | 88° | 75km/h | 12988m | -20.1m/s | -53.3°C | 1.1% | 170.9hPa | 2.6V | 08:19:16 | 02:14:51 | 00:00:00 | |
| BIOWL1-15 | 2026-09-01 05:46:31 | 52.70024 | 8.40597 | 88° | 73km/h | 13009m | -19.8m/s | -53.2°C | 1.2% | 170.4hPa | 2.6V | 08:19:16 | 02:14:50 | 00:00:00 | |
| DO2JMG | 2026-09-01 05:46:29 | 52.70023 | 8.40534 | 90° | 78km/h | 13049m | -20.3m/s | -52.6°C | 1% | 169.4hPa | 2.5V | 08:19:16 | 02:14:48 | 00:00:00 | |
| DL1NUX | 2026-09-01 05:46:28 | 52.70025 | 8.40437 | 94° | 78km/h | 13110m | -20.6m/s | -52.3°C | 4.1% | 167.7hPa | 2.6V | 08:18:49 | 02:14:45 | 00:00:00 | |
| DL1XH-west | 2026-09-01 05:46:27 | 52.70024 | 8.40469 | 93° | 78km/h | 13089m | -20.8m/s | -52.4°C | 0.9% | 168.3hPa | 2.6V | 08:19:16 | 02:14:46 | 00:00:00 | |
| DF5WG-10 | 2026-09-01 05:46:27 | 52.70024 | 8.40469 | 94° | 75km/h | 13090m | -20.8m/s | -52.3°C | 4.1% | 168.3hPa | 2.6V | 08:18:00 | 02:14:46 | 00:00:00 | |
| DO3DL | 2026-09-01 05:46:26 | 52.70024 | 8.40469 | 94° | 78km/h | 13090m | -20.8m/s | -52.4°C | 1.7% | 168.3hPa | 2.6V | 08:19:00 | 00:00:00 | 00:00:00 | |
| DB0DAN | 2026-09-01 05:46:25 | 52.70027 | 8.40404 | 95° | 73km/h | 13131m | -20.5m/s | -52.3°C | 1.7% | 167.22hPa | 2.6V | 00:00:00 | 00:00:00 | 00:00:00 | |
| EDDB2-12 | 2026-09-01 05:46:25 | 52.70027 | 8.40404 | 95° | 77km/h | 13131m | -20.5m/s | -52.3°C | 1.7% | 167.2hPa | 2.5V | 00:00:00 | 00:00:00 | 00:00:00 | |
| DL1XH-15 | 2026-09-01 05:46:24 | 52.70034 | 8.40219 | 92° | 75km/h | 13254m | -21.4m/s | -51.7°C | 3.9% | 164.1hPa | 2.5V | 08:18:56 | 02:14:38 | 00:00:00 | |
| AA1-15 | 2026-09-01 05:46:21 | 52.70032 | 8.40281 | 93° | 75km/h | 13212m | -20.9m/s | -52.1°C | 0.9% | 165.1hPa | 2.6V | 08:19:16 | 02:14:40 | 00:00:00 | |
| BIOWL1-15 | 2026-09-01 05:46:20 | 52.70033 | 8.40250 | 92° | 75km/h | 13233m | -20.9m/s | -52°C | 0.9% | 164.6hPa | 2.6V | 08:19:16 | 02:14:39 | 00:00:00 | |
| DO2JMG | 2026-09-01 05:46:18 | 52.70035 | 8.40188 | 93° | 73km/h | 13275m | -21.1m/s | -51.6°C | 0.8% | 163.6hPa | 2.6V | 08:19:16 | 02:14:37 | 00:00:00 | |
| DM0DOS-11 | 2026-09-01 05:46:18 | 52.70039 | 8.40102 | 94° | 66km/h | 13337m | -20.5m/s | -51°C | 3.7% | 162hPa | 2.6V | 08:19:00 | 02:14:34 | 00:00:00 | |
| DL1XH-west | 2026-09-01 05:46:17 | 52.70036 | 8.40159 | 94° | 71km/h | 13296m | -20.9m/s | -51.2°C | 0.8% | 163.1hPa | 2.6V | 08:19:16 | 02:14:36 | 00:00:00 | |
| GOEST3-10 | 2026-09-01 05:46:17 | 52.70036 | 8.40159 | 95° | 68km/h | 13296m | -20.8m/s | -51.2°C | 3.8% | 163.0hPa | 2.6V | 00:00:00 | 02:14:36 | 00:00:00 | |
| HTAHTA | 2026-09-01 05:46:16 | 52.70037 | 8.40130 | 94° | 68km/h | 13317m | -20.6m/s | -51.0°C | 1.5% | 162.5hPa | 2.6V | 00:00:00 | 00:00:00 | 00:00:00 | |
| DD1CC3-15 | 2026-09-01 05:46:15 | 52.70037 | 8.40130 | 96° | 68km/h | 13317m | -20.6m/s | -51.0°C | 1.5% | 162.5hPa | 2.6V | 08:19:00 | 00:00:00 | 00:00:00 | |
| DL1XH-15 | 2026-09-01 05:46:14 | 52.70047 | 8.39939 | 95° | 66km/h | 13462m | -21.2m/s | -51.3°C | 3.8% | 158.9hPa | 2.6V | 08:19:06 | 02:14:28 | 00:00:00 | |
| AA1-15 | 2026-09-01 05:46:11 | 52.70044 | 8.39993 | 95° | 66km/h | 13420m | -21.1m/s | -51.1°C | 0.7% | 159.9hPa | 2.5V | 08:19:16 | 02:14:30 | 00:00:00 | |
| BIOWL1-15 | 2026-09-01 05:46:11 | 52.70047 | 8.39939 | 96° | 66km/h | 13462m | -21.2m/s | -51.3°C | 0.8% | 158.9hPa | 2.6V | 08:19:16 | 02:14:28 | 00:00:00 | |
| DK9SH | 2026-09-01 05:46:10 | 52.70044 | 8.39993 | 96° | 66km/h | 13421m | -21.1m/s | -51.0°C | 1.5% | 160.0hPa | 2.6V | 08:19:00 | 00:00:00 | 00:00:00 | |
| DJ2DS-15 | 2026-09-01 05:46:09 | 52.70047 | 8.39939 | 95° | 64km/h | 13462m | -21.2m/s | -51.3°C | 1.5% | 158.9hPa | 2.6V | 00:00:00 | 00:00:00 | 00:00:00 | |
| DM0DOS-11 | 2026-09-01 05:46:08 | 52.70055 | 8.39834 | 96° | 60km/h | 13546m | -20.8m/s | -51.1°C | 3.8% | 156.8hPa | 2.6V | 08:19:10 | 02:14:24 | 00:00:00 | |
| DO2JMG | 2026-09-01 05:46:08 | 52.70049 | 8.39912 | 97° | 64km/h | 13484m | -21.3m/s | -51.4°C | 0.8% | 158.4hPa | 2.6V | 08:19:16 | 02:14:27 | 00:00:00 | |
| DL1XH-west | 2026-09-01 05:46:06 | 52.70053 | 8.39859 | 97° | 62km/h | 13526m | -20.8m/s | -51.1°C | 0.8% | 157.3hPa | 2.6V | 08:19:16 | 02:14:25 | 00:00:00 | |
| DL1XH-15 | 2026-09-01 05:46:04 | 52.70063 | 8.39682 | 95° | 62km/h | 13673m | -21.3m/s | -51.4°C | 3.8% | 153.9hPa | 2.6V | 08:19:16 | 02:14:18 | 00:00:00 | |
| AA1-15 | 2026-09-01 05:46:00 | 52.70061 | 8.39708 | 95° | 62km/h | 13651m | -21.7m/s | -51.3°C | 0.8% | 154.3hPa | 2.6V | 08:19:16 | 02:14:19 | 00:00:00 | |
| BIOWL1-15 | 2026-09-01 05:45:58 | 52.70065 | 8.39656 | 96° | 62km/h | 13694m | -21.1m/s | -51.4°C | 0.8% | 153.3hPa | 2.5V | 08:20:07 | 02:14:17 | 00:00:00 | |
| DO2JMG | 2026-09-01 05:45:57 | 52.70066 | 8.39630 | 96° | 62km/h | 13715m | -21m/s | -51.3°C | 0.8% | 152.9hPa | 2.5V | 08:20:07 | 02:14:16 | 00:00:00 | |
| DL1XH-west | 2026-09-01 05:45:56 | 52.70068 | 8.39605 | 95° | 64km/h | 13736m | -21.3m/s | -51.2°C | 0.8% | 152.4hPa | 2.6V | 08:20:07 | 02:14:15 | 00:00:00 | |
| DB0DAN | 2026-09-01 05:45:55 | 52.70069 | 8.39578 | 94° | 62km/h | 13757m | -21.6m/s | -51.2°C | 1.5% | 151.87hPa | 2.6V | 00:00:00 | 00:00:00 | 00:00:00 | |
| DO9LL-15 | 2026-09-01 05:45:55 | 52.70069 | 8.39578 | 95° | 58km/h | 13758m | -21.6m/s | -51.1°C | 3.7% | 151.8hPa | 2.6V | 00:00:00 | 02:14:14 | 00:00:00 | |
| DL1XH-15 | 2026-09-01 05:45:54 | 52.70081 | 8.39412 | 99° | 64km/h | 13887m | -21.3m/s | -51.1°C | 3.7% | 148.9hPa | 2.6V | 08:19:26 | 02:14:08 | 00:00:00 | |
| AA1-15 | 2026-09-01 05:45:50 | 52.70078 | 8.39439 | 99° | 66km/h | 13865m | -21.5m/s | -51.2°C | 0.8% | 149.4hPa | 2.6V | 08:20:07 | 02:14:09 | 00:00:00 | |
| DK9SH | 2026-09-01 05:45:49 | 52.70078 | 8.39439 | 100° | 66km/h | 13865m | -21.5m/s | -51.2°C | 1.5% | 149.4hPa | 2.6V | 08:20:00 | 00:00:00 | 00:00:00 | |
| DM0DOS-11 | 2026-09-01 05:45:48 | 52.70090 | 8.39313 | 96° | 58km/h | 13972m | -22.1m/s | -51.1°C | 3.6% | 146.9hPa | 2.6V | 08:19:30 | 02:14:04 | 00:00:00 | |
| BIOWL1-15 | 2026-09-01 05:45:47 | 52.70086 | 8.39362 | 99° | 58km/h | 13929m | -21.5m/s | -51.1°C | 0.7% | 147.9hPa | 2.6V | 08:20:07 | 02:14:06 | 00:00:00 | |
| DL1XH-west | 2026-09-01 05:45:46 | 52.70088 | 8.39338 | 98° | 58km/h | 13950m | -21.9m/s | -51°C | 0.7% | 147.4hPa | 2.6V | 08:20:07 | 02:14:05 | 00:00:00 | |
| HSKMA3-T | 2026-09-01 05:45:45 | 52.70090 | 8.39313 | 97° | 58km/h | 13972m | -22.1m/s | -51.1°C | 0.7% | 146.9hPa | 2.6V | 08:20:07 | 02:14:04 | 00:00:00 | |
| AA1-15 | 2026-09-01 05:45:39 | 52.70105 | 8.39169 | 104° | 57km/h | 14105m | -22.1m/s | -50.8°C | 0.5% | 143.9hPa | 2.6V | 08:20:07 | 02:13:58 | 00:00:00 | |
| DM0DOS-11 | 2026-09-01 05:45:39 | 52.70119 | 8.39080 | 102° | 57km/h | 14194m | -22.1m/s | -50.9°C | 3.5% | 142hPa | 2.6V | 08:19:40 | 02:13:54 | 00:00:00 | |
| BIOWL1-15 | 2026-09-01 05:45:37 | 52.70112 | 8.39124 | 104° | 53km/h | 14150m | -22.7m/s | -50.8°C | 0.5% | 142.9hPa | 2.6V | 08:20:07 | 02:13:56 | 00:00:00 | |
| DL1XH-west | 2026-09-01 05:45:36 | 52.70116 | 8.39102 | 102° | 55km/h | 14172m | -22.6m/s | -50.8°C | 0.5% | 142.5hPa | 2.6V | 08:20:07 | 02:13:55 | 00:00:00 | |
| HSKMA3-T | 2026-09-01 05:45:34 | 52.70122 | 8.39057 | 102° | 57km/h | 14216m | -22.2m/s | -50.9°C | 0.5% | 141.5hPa | 2.6V | 08:20:07 | 02:13:53 | 00:00:00 | |
| DB0NH | 2026-09-01 05:45:33 | 52.70125 | 8.39034 | 103° | 53km/h | 14238m | -22.0m/s | -50.9°C | 3.5% | 141.0hPa | 2.6V | 00:00:00 | 02:13:52 | 00:00:00 | |
| DO2SHX-10 | 2026-09-01 05:45:32 | 52.70127 | 8.39011 | 103° | 53km/h | 14260m | -21.7m/s | -51.0°C | 3.5% | 140.5hPa | 2.6V | 08:19:00 | 02:13:51 | 00:00:00 | |
| DD1CC2-15 | 2026-09-01 05:45:31 | 52.70127 | 8.39011 | 103° | 55km/h | 14260m | -21.7m/s | -51.1°C | 1.4% | 140.5hPa | 2.5V | 08:20:00 | 00:00:00 | 00:00:00 | |
| BIOWL9-15 | 2026-09-01 05:45:30 | 52.70133 | 8.38967 | 98° | 53km/h | 14303m | -22.1m/s | -51.4°C | 1.3% | 139.6hPa | 2.5V | 00:00:00 | 00:00:00 | 00:00:00 | |
| DO2SHX-10 | 2026-09-01 05:45:29 | 52.70134 | 8.38945 | 97° | 57km/h | 14325m | -22.7m/s | -51.6°C | 3.6% | 139.1hPa | 2.5V | 00:00:00 | 02:13:48 | 00:00:00 | |
| DM0DOS-11 | 2026-09-01 05:45:28 | 52.70139 | 8.38850 | 93° | 60km/h | 14416m | -23.6m/s | -51.9°C | 3.7% | 137.2hPa | 2.5V | 08:19:50 | 02:13:44 | 00:00:00 | |
| AA1-15 | 2026-09-01 05:45:28 | 52.70136 | 8.38922 | 95° | 57km/h | 14348m | -23.1m/s | -51.7°C | 0.5% | 138.7hPa | 2.6V | 08:20:07 | 02:13:47 | 00:00:00 | |
| BIOWL1-15 | 2026-09-01 05:45:26 | 52.70138 | 8.38875 | 93° | 58km/h | 14394m | -23.5m/s | -51.8°C | 0.6% | 137.7hPa | 2.6V | 08:20:07 | 02:13:45 | 00:00:00 | |
| DL1XH-west | 2026-09-01 05:45:25 | 52.70139 | 8.38850 | 93° | 60km/h | 14417m | -23.6m/s | -51.9°C | 0.6% | 137.2hPa | 2.5V | 08:20:07 | 02:13:44 | 00:00:00 | |
| HSKMA3-T | 2026-09-01 05:45:23 | 52.70141 | 8.38802 | 97° | 57km/h | 14464m | -23.4m/s | -51.9°C | 0.6% | 136.3hPa | 2.6V | 08:20:07 | 02:13:42 | 00:00:00 | |
| DD8BA-10 | 2026-09-01 05:45:23 | 52.70141 | 8.38801 | 97° | 53km/h | 14464m | -23.4m/s | -51.8°C | 3.7% | 136.2hPa | 2.6V | 00:00:00 | 00:00:00 | 00:00:00 | |
| GOEST3-10 | 2026-09-01 05:45:22 | 52.70143 | 8.38778 | 98° | 55km/h | 14488m | -23.1m/s | -51.9°C | 3.7% | 135.7hPa | 2.6V | 00:00:00 | 00:00:00 | 00:00:00 | |
| DB0UT-7 | 2026-09-01 05:45:21 | 52.70145 | 8.38756 | 97° | 51km/h | 14510m | -23.1m/s | -51.9°C | 3.8% | 135.2hPa | 2.6V | 00:00:00 | 00:00:00 | 00:00:00 | |
| SMARD9-15 | 2026-09-01 05:45:20 | 52.70146 | 8.38735 | 95° | 51km/h | 14533m | -23.5m/s | -51.9°C | 1.4% | 134.8hPa | 2.6V | 00:00:00 | 00:00:00 | 00:00:00 | |
| DM0DOS-11 | 2026-09-01 05:45:18 | 52.70156 | 8.38624 | 99° | 51km/h | 14649m | -23.8m/s | -51.9°C | 3.8% | 132.3hPa | 2.6V | 08:20:00 | 02:13:34 | 00:00:00 | |
| AA1-15 | 2026-09-01 05:45:17 | 52.70152 | 8.38668 | 98° | 55km/h | 14602m | -23.7m/s | -51.8°C | 0.5% | 133.3hPa | 2.6V | 08:20:07 | 02:13:36 | 00:00:00 | |
| DO2JMG | 2026-09-01 05:45:15 | 52.70156 | 8.38624 | 99° | 51km/h | 14649m | -23.8m/s | -51.9°C | 0.6% | 132.3hPa | 2.6V | 08:20:07 | 02:13:34 | 00:00:00 | |
| DL1XH-west | 2026-09-01 05:45:14 | 52.70158 | 8.38603 | 100° | 51km/h | 14673m | -23.4m/s | -52°C | 0.6% | 131.9hPa | 2.5V | 08:20:07 | 02:13:33 | 00:00:00 | |
| HSKMA3-T | 2026-09-01 05:45:13 | 52.70160 | 8.38582 | 97° | 51km/h | 14696m | -23.6m/s | -52.1°C | 0.5% | 131.4hPa | 2.5V | 08:20:07 | 02:13:32 | 00:00:00 | |
| DD8BA-10 | 2026-09-01 05:45:13 | 52.70160 | 8.38582 | 98° | 51km/h | 14696m | -23.6m/s | -52.0°C | 3.8% | 131.3hPa | 2.5V | 08:20:00 | 00:00:00 | 00:00:00 | |
| GOEST3-10 | 2026-09-01 05:45:12 | 52.70161 | 8.38561 | 94° | 53km/h | 14719m | -23.5m/s | -52.0°C | 3.8% | 130.9hPa | 2.6V | 00:00:00 | 00:00:00 | 00:00:00 | |
| DL8OAI-8 | 2026-09-01 05:45:11 | 52.70161 | 8.38561 | 95° | 51km/h | 14719m | -23.5m/s | -52.1°C | 1.4% | 130.9hPa | 2.6V | 00:00:00 | 00:00:00 | 00:00:00 | |
| DB0DAN | 2026-09-01 05:45:10 | 52.70162 | 8.38518 | 91° | 51km/h | 14765m | -23.9m/s | -52°C | 1.3% | 129.95hPa | 2.6V | 00:00:00 | 00:00:00 | 00:00:00 | |
| DM0DOS-11 | 2026-09-01 05:45:08 | 52.70161 | 8.38411 | 88° | 49km/h | 14885m | -24m/s | -52°C | 3.9% | 127.7hPa | 2.5V | 08:20:10 | 02:13:24 | 00:00:00 | |
| AA1-15 | 2026-09-01 05:45:06 | 52.70161 | 8.38432 | 89° | 49km/h | 14861m | -24.1m/s | -52.3°C | 0.6% | 128.2hPa | 2.6V | 08:20:58 | 02:13:25 | 00:00:00 | |
| DL1XH-west | 2026-09-01 05:45:04 | 52.70161 | 8.38391 | 87° | 47km/h | 14909m | -24.2m/s | -51.8°C | 0.4% | 127.2hPa | 2.6V | 08:20:58 | 02:13:23 | 00:00:00 | |
| HSKMA3-T | 2026-09-01 05:45:03 | 52.70160 | 8.38372 | 87° | 46km/h | 14933m | -24.2m/s | -51.6°C | 0.4% | 126.7hPa | 2.6V | 08:20:58 | 02:13:22 | 00:00:00 | |
| DD8BA-10 | 2026-09-01 05:45:03 | 52.70160 | 8.38372 | 87° | 49km/h | 14933m | -24.2m/s | -51.6°C | 3.7% | 126.7hPa | 2.6V | 00:00:00 | 00:00:00 | 00:00:00 | |
| DO3DL | 2026-09-01 05:45:01 | 52.70160 | 8.38353 | 85° | 47km/h | 14957m | -24.6m/s | -51.6°C | 1.2% | 126.2hPa | 2.6V | 08:20:00 | 00:00:00 | 00:00:00 | |
| DL3AQ-11 | 2026-09-01 05:45:00 | 52.70156 | 8.38292 | 85° | 51km/h | 15029m | -24.6m/s | -50.9°C | 1.2% | 124.8hPa | 2.6V | 00:00:00 | 00:00:00 | 00:00:00 | |
| DB0ND-19 | 2026-09-01 05:44:59 | 52.70155 | 8.38270 | 85° | 51km/h | 15054m | -24.7m/s | -50.6°C | 1.2% | 124.3hPa | 2.6V | 00:00:00 | 00:00:00 | 00:00:00 | |
| DM0DOS-11 | 2026-09-01 05:44:58 | 52.70153 | 8.38208 | 85° | 49km/h | 15127m | -24.6m/s | -50.3°C | 3.3% | 123hPa | 2.6V | 08:20:20 | 02:13:14 | 00:00:00 | |
| AA1-15 | 2026-09-01 05:44:55 | 52.70153 | 8.38208 | 85° | 49km/h | 15127m | -24.6m/s | -50.3°C | 0.2% | 123hPa | 2.6V | 08:20:58 | 02:13:14 | 00:00:00 | |
| BIOWL1-15 | 2026-09-01 05:44:54 | 52.70152 | 8.38187 | 84° | 49km/h | 15151m | -24.6m/s | -50.4°C | 0.3% | 122.5hPa | 2.6V | 08:20:58 | 02:13:13 | 00:00:00 | |
| DL1XH-west | 2026-09-01 05:44:53 | 52.70151 | 8.38167 | 83° | 51km/h | 15176m | -24.9m/s | -50.4°C | 0.2% | 122.1hPa | 2.6V | 08:20:58 | 02:13:12 | 00:00:00 | |
| BUE01 | 2026-09-01 05:44:53 | 52.70151 | 8.38167 | 82° | 49km/h | 15176m | -24.9m/s | -50.4°C | 1.1% | 122.1hPa | 2.6V | 00:00:00 | 00:00:00 | 00:00:00 | |
| EDDB2-12 | 2026-09-01 05:44:52 | 52.70149 | 8.38146 | 83° | 51km/h | 15200m | -24.8m/s | -50.4°C | 1.1% | 121.6hPa | 2.6V | 00:00:00 | 00:00:00 | 00:00:00 | |
| DB0UT-7 | 2026-09-01 05:44:51 | 52.70148 | 8.38124 | 84° | 44km/h | 15225m | -24.8m/s | -50.3°C | 3.4% | 121.1hPa | 2.6V | 00:00:00 | 02:13:10 | 00:00:00 | |
| DD1CC2-15 | 2026-09-01 05:44:50 | 52.70148 | 8.38124 | 84° | 53km/h | 15225m | -24.8m/s | -50.4°C | 1.2% | 121.1hPa | 2.6V | 08:20:00 | 00:00:00 | 00:00:00 | |
| DL8OAI-8 | 2026-09-01 05:44:49 | 52.70146 | 8.38103 | 85° | 51km/h | 15250m | -25.0m/s | -50.5°C | 1.2% | 120.7hPa | 2.6V | 08:20:00 | 00:00:00 | 00:00:00 | |
| DM0DOS-11 | 2026-09-01 05:44:48 | 52.70141 | 8.38008 | 78° | 44km/h | 15373m | -24.9m/s | -50°C | 3.3% | 118.4hPa | 2.6V | 08:20:30 | 02:13:04 | 00:00:00 | |
| AA1-15 | 2026-09-01 05:44:44 | 52.70139 | 8.37991 | 78° | 46km/h | 15398m | -24.9m/s | -50.2°C | 0.2% | 117.9hPa | 2.6V | 08:20:58 | 02:13:03 | 00:00:00 | |
| DO2JMG | 2026-09-01 05:44:43 | 52.70137 | 8.37972 | 78° | 47km/h | 15422m | -25m/s | -50.4°C | 0.2% | 117.5hPa | 2.6V | 08:20:58 | 02:13:02 | 00:00:00 | |
| HSKMA3-T | 2026-09-01 05:44:42 | 52.70134 | 8.37953 | 78° | 47km/h | 15447m | -25.2m/s | -50.4°C | 0.3% | 117hPa | 2.6V | 08:20:58 | 02:13:01 | 00:00:00 | |
| GOEST3-10 | 2026-09-01 05:44:42 | 52.70134 | 8.37953 | 78° | 49km/h | 15447m | -25.1m/s | -50.4°C | 3.4% | 117.0hPa | 2.6V | 00:00:00 | 00:00:00 | 00:00:00 | |
| DO2LYB-13 | 2026-09-01 05:44:41 | 52.70134 | 8.37953 | 79° | 47km/h | 15447m | -25.2m/s | -50.4°C | 1.2% | 117.0hPa | 2.6V | 00:00:00 | 00:00:00 | 00:00:00 | |
| DB0DAN | 2026-09-01 05:44:40 | 52.70129 | 8.37914 | 79° | 46km/h | 15497m | -25m/s | -50°C | 1.1% | 116.16hPa | 2.6V | 00:00:00 | 00:00:00 | 00:00:00 | |
| DL4XJ-10 | 2026-09-01 05:44:38 | 52.70125 | 8.37873 | 81° | 40km/h | 15547m | -24.9m/s | -52.2°C | 0% | 0hPa | 2.6V | 00:00:00 | 00:00:00 | 00:00:00 | |
| GOEST3-10 | 2026-09-01 05:44:37 | 52.70123 | 8.37853 | 79° | 49km/h | 15572m | -25.0m/s | -49.5°C | 3.1% | 114.8hPa | 2.6V | 00:00:00 | 02:12:56 | 00:00:00 | |
| DM0DOS-11 | 2026-09-01 05:44:36 | 52.70118 | 8.37814 | 79° | 49km/h | 15623m | -25.7m/s | -49.6°C | 3.2% | 114hPa | 2.6V | 08:20:40 | 02:12:54 | 00:00:00 | |
| DO2JMG | 2026-09-01 05:44:33 | 52.70114 | 8.37774 | 83° | 49km/h | 15674m | -25.8m/s | -49.4°C | 0.1% | 113.1hPa | 2.6V | 08:20:58 | 02:12:52 | 00:00:00 | |
| DL1XH-west | 2026-09-01 05:44:32 | 52.70113 | 8.37753 | 86° | 49km/h | 15700m | -26.2m/s | -49.4°C | 0% | 112.7hPa | 2.6V | 08:20:58 | 02:12:51 | 00:00:00 | |
| HSKMA3-T | 2026-09-01 05:44:31 | 52.70112 | 8.37733 | 87° | 47km/h | 15726m | -26.5m/s | -49.3°C | 0% | 112.2hPa | 2.6V | 08:20:58 | 02:12:50 | 00:00:00 | |
| DL3AQ-11 | 2026-09-01 05:44:30 | 52.70112 | 8.37714 | 87° | 44km/h | 15752m | -26.2m/s | -49.3°C | 1.0% | 111.8hPa | 2.6V | 00:00:00 | 00:00:00 | 00:00:00 | |
| DD1CC2-15 | 2026-09-01 05:44:29 | 52.70112 | 8.37714 | 89° | 44km/h | 15752m | -26.2m/s | -49.3°C | 1.0% | 111.8hPa | 2.6V | 08:20:00 | 00:00:00 | 00:00:00 | |
| DJ2DS-15 | 2026-09-01 05:44:28 | 52.70111 | 8.37680 | 86° | 37km/h | 15804m | -25.4m/s | -49.2°C | 3.1% | 110.8hPa | 2.6V | 00:00:00 | 02:12:47 | 00:00:00 | |
| GOEST3-10 | 2026-09-01 05:44:27 | 52.70110 | 8.37665 | 86° | 35km/h | 15829m | -25.6m/s | -49.2°C | 3.1% | 110.4hPa | 2.7V | 00:00:00 | 02:12:46 | 00:00:00 | |
| DM0DOS-11 | 2026-09-01 05:44:26 | 52.70109 | 8.37636 | 82° | 37km/h | 15879m | -26m/s | -49°C | 3% | 109.6hPa | 2.7V | 08:20:50 | 02:12:44 | 00:00:00 | |
| DB0DAN | 2026-09-01 05:44:25 | 52.70109 | 8.37636 | 83° | 35km/h | 15879m | -26m/s | -49°C | 1% | 109.57hPa | 2.7V | 00:00:00 | 00:00:00 | 00:00:00 | |
| DO9LL-15 | 2026-09-01 05:44:25 | 52.70109 | 8.37636 | 83° | 37km/h | 15880m | -26.0m/s | -48.9°C | 3.0% | 109.5hPa | 2.7V | 00:00:00 | 02:12:44 | 00:00:00 | |
| DL1XH-15 | 2026-09-01 05:44:24 | 52.70102 | 8.37554 | 83° | 31km/h | 16036m | -26.4m/s | -49.6°C | 3.1% | 107hPa | 2.7V | 08:20:56 | 02:12:38 | 00:00:00 | |
| AA1-15 | 2026-09-01 05:44:23 | 52.70106 | 8.37608 | 82° | 35km/h | 15931m | -26.2m/s | -49.1°C | 0% | 108.7hPa | 2.6V | 08:20:58 | 02:12:42 | 00:00:00 | |
| BIOWL1-15 | 2026-09-01 05:44:22 | 52.70105 | 8.37594 | 83° | 33km/h | 15957m | -26.2m/s | -49.2°C | 0% | 108.3hPa | 2.6V | 08:20:58 | 02:12:41 | 00:00:00 | |
| DL1XH-west | 2026-09-01 05:44:21 | 52.70104 | 8.37580 | 86° | 33km/h | 15984m | -25.9m/s | -49.4°C | 0% | 107.9hPa | 2.6V | 08:20:58 | 02:12:40 | 00:00:00 | |
| DF8AY | 2026-09-01 05:44:16 | 52.70097 | 8.37513 | 80° | 38km/h | 16114m | -25.9m/s | -49.8°C | 0.1% | 105.7hPa | 2.6V | 08:21:49 | 02:12:35 | 00:00:00 | |
| DO3DL | 2026-09-01 05:44:15 | 52.70097 | 8.37512 | 81° | 38km/h | 16114m | -25.9m/s | -49.8°C | 1.0% | 105.7hPa | 2.6V | 08:21:00 | 00:00:00 | 00:00:00 | |
| DL1XH-15 | 2026-09-01 05:44:14 | 52.70085 | 8.37403 | 85° | 35km/h | 16299m | -26.4m/s | -50.1°C | 3.3% | 102.8hPa | 2.6V | 08:21:06 | 02:12:28 | 00:00:00 | |
| AA1-15 | 2026-09-01 05:44:13 | 52.70091 | 8.37465 | 81° | 40km/h | 16192m | -26.4m/s | -49.8°C | 0.1% | 104.5hPa | 2.6V | 08:21:49 | 02:12:32 | 00:00:00 | |
| DO2JMG | 2026-09-01 05:44:12 | 52.70089 | 8.37449 | 81° | 40km/h | 16219m | -26.7m/s | -49.9°C | 0.2% | 104.1hPa | 2.6V | 08:21:49 | 02:12:31 | 00:00:00 | |
| DL1XH-west | 2026-09-01 05:44:11 | 52.70088 | 8.37433 | 83° | 38km/h | 16246m | -26.5m/s | -50°C | 0.1% | 103.7hPa | 2.6V | 08:21:49 | 02:12:30 | 00:00:00 | |
| DB0DAN | 2026-09-01 05:44:10 | 52.70086 | 8.37417 | 85° | 35km/h | 16273m | -26.5m/s | -50.2°C | 1% | 103.22hPa | 2.6V | 00:00:00 | 00:00:00 | 00:00:00 | |
| HSKMA3-T | 2026-09-01 05:44:10 | 52.70086 | 8.37417 | 85° | 37km/h | 16273m | -26.5m/s | -50.2°C | 0.2% | 103.2hPa | 2.6V | 08:21:49 | 02:12:29 | 00:00:00 | |
| DF8AY | 2026-09-01 05:44:06 | 52.70083 | 8.37360 | 86° | 33km/h | 16383m | -27.9m/s | -50°C | 0.2% | 101.6hPa | 2.6V | 08:21:49 | 02:12:25 | 00:00:00 | |
| DL1XH-15 | 2026-09-01 05:44:04 | 52.70072 | 8.37259 | 78° | 37km/h | 16571m | -25m/s | -49.9°C | 3.2% | 98.6hPa | 2.7V | 08:21:16 | 02:12:18 | 00:00:00 | |
| AA1-15 | 2026-09-01 05:44:02 | 52.70077 | 8.37303 | 77° | 37km/h | 16493m | -26.6m/s | -49.8°C | 0.1% | 99.8hPa | 2.6V | 08:21:49 | 02:12:21 | 00:00:00 | |
| DL1XH-west | 2026-09-01 05:44:01 | 52.70075 | 8.37288 | 79° | 37km/h | 16520m | -26.4m/s | -49.9°C | 0% | 99.5hPa | 2.6V | 08:21:49 | 02:12:20 | 00:00:00 | |
| BIOWL1-15 | 2026-09-01 05:44:00 | 52.70073 | 8.37274 | 81° | 37km/h | 16546m | -25.7m/s | -50°C | 0% | 99hPa | 2.6V | 08:21:49 | 02:12:19 | 00:00:00 | |
| HSKMA3-T | 2026-09-01 05:43:59 | 52.70072 | 8.37259 | 79° | 37km/h | 16571m | -25m/s | -49.9°C | 0.1% | 98.6hPa | 2.7V | 08:21:49 | 02:12:18 | 00:00:00 | |
| BIOWL9-15 | 2026-09-01 05:43:57 | 52.70068 | 8.37229 | 80° | 35km/h | 16618m | -22.2m/s | -49.8°C | 0.9% | 97.8hPa | 2.6V | 00:00:00 | 00:00:00 | 00:00:00 | |
| SONCRA | 2026-09-01 05:43:56 | 52.70067 | 8.37214 | 80° | 37km/h | 16641m | -22.7m/s | -49.6°C | 0.9% | 97.5hPa | 2.6V | 00:00:00 | 00:00:00 | 00:00:00 | |
| DB0DAN | 2026-09-01 05:43:55 | 52.70066 | 8.37198 | 81° | 35km/h | 16663m | -21m/s | -49.6°C | 1% | 97.12hPa | 2.6V | 00:00:00 | 00:00:00 | 00:00:00 | |
| DF8AY | 2026-09-01 05:43:55 | 52.70066 | 8.37198 | 82° | 37km/h | 16663m | -21m/s | -49.6°C | 0.1% | 97.1hPa | 2.6V | 08:21:49 | 02:12:14 | 00:00:00 | |
| DL1ZP-14 | 2026-09-01 05:43:55 | 52.70064 | 8.37184 | 83° | 35km/h | 16682m | -17.9m/s | -49.5°C | 0.9% | 96.8hPa | 2.6V | 00:00:00 | 00:00:00 | 00:00:00 | |
| DL1XH-15 | 2026-09-01 05:43:54 | 52.70060 | 8.37116 | 84° | 29km/h | 16764m | -15.6m/s | -49.4°C | 3.1% | 95.6hPa | 2.7V | 08:21:26 | 02:12:08 | 00:00:00 | |
| DL1XH-west | 2026-09-01 05:43:51 | 52.70062 | 8.37141 | 81° | 31km/h | 16732m | -16.5m/s | -49.4°C | 0% | 96hPa | 2.6V | 08:21:49 | 02:12:10 | 00:00:00 | |
| DO2JMG | 2026-09-01 05:43:50 | 52.70060 | 8.37128 | 83° | 31km/h | 16748m | -15.7m/s | -49.4°C | 0.1% | 95.8hPa | 2.6V | 08:21:49 | 02:12:09 | 00:00:00 | |
| HSKMA3-T | 2026-09-01 05:43:49 | 52.70060 | 8.37116 | 84° | 29km/h | 16764m | -15.6m/s | -49.4°C | 0% | 95.6hPa | 2.7V | 08:21:49 | 02:12:08 | 00:00:00 | |
| DF8AY | 2026-09-01 05:43:45 | 52.70054 | 8.37072 | 72° | 26km/h | 16829m | -16.5m/s | -49.2°C | 0% | 94.6hPa | 2.6V | 08:21:49 | 02:12:04 | 00:00:00 | |
| DF5WG-10 | 2026-09-01 05:43:44 | 52.70052 | 8.37062 | 70° | 27km/h | 16846m | -16.3m/s | -49.3°C | 3.0% | 94.3hPa | 2.7V | 00:00:00 | 02:12:03 | 00:00:00 | |
| DD8BA-10 | 2026-09-01 05:43:43 | 52.70050 | 8.37053 | 64° | 29km/h | 16862m | -15.9m/s | -49.4°C | 3.1% | 94.1hPa | 2.7V | 08:21:00 | 00:00:00 | 00:00:00 | |
| GOEST3-10 | 2026-09-01 05:43:42 | 52.70047 | 8.37044 | 60° | 26km/h | 16878m | -16.0m/s | -49.5°C | 3.1% | 93.9hPa | 2.6V | 00:00:00 | 00:00:00 | 00:00:00 | |
| DB0DAN | 2026-09-01 05:43:40 | 52.70039 | 8.37027 | 51° | 24km/h | 16910m | -15.5m/s | -49.8°C | 0.9% | 93.42hPa | 2.6V | 00:00:00 | 00:00:00 | 00:00:00 | |
| DL1XH-west | 2026-09-01 05:43:40 | 52.70039 | 8.37027 | 51° | 26km/h | 16910m | -15.5m/s | -49.8°C | 0% | 93.4hPa | 2.6V | 08:21:49 | 02:11:59 | 00:00:00 | |
| DO2JMG | 2026-09-01 05:43:39 | 52.70035 | 8.37019 | 50° | 26km/h | 16926m | -16.2m/s | -49.8°C | 0% | 93.2hPa | 2.6V | 08:21:49 | 02:11:58 | 00:00:00 | |
| HSKMA3-T | 2026-09-01 05:43:38 | 52.70030 | 8.37011 | 47° | 29km/h | 16942m | -16.2m/s | -49.9°C | 0.1% | 93hPa | 2.7V | 08:21:49 | 02:11:57 | 00:00:00 | |
| DF8AY | 2026-09-01 05:43:34 | 52.70009 | 8.36972 | 48° | 33km/h | 17008m | -16.3m/s | -50.2°C | 0.1% | 92hPa | 2.7V | 08:21:49 | 02:11:53 | 00:00:00 | |
| DL1XH-west | 2026-09-01 05:43:30 | 52.69986 | 8.36928 | 50° | 35km/h | 17075m | -16.9m/s | -50.3°C | 0% | 91.1hPa | 2.6V | 08:21:49 | 02:11:49 | 00:00:00 | |
| AA1-15 | 2026-09-01 05:43:29 | 52.69981 | 8.36917 | 53° | 35km/h | 17092m | -16.9m/s | -50.3°C | 0.2% | 90.8hPa | 2.7V | 08:21:49 | 02:11:48 | 00:00:00 | |
| DO2JMG | 2026-09-01 05:43:28 | 52.69975 | 8.36906 | 53° | 35km/h | 17109m | -16.6m/s | -50.4°C | 0.1% | 90.7hPa | 2.7V | 08:21:49 | 02:11:47 | 00:00:00 | |
| GOEST3-10 | 2026-09-01 05:43:27 | 52.69970 | 8.36894 | 56° | 37km/h | 17126m | -16.9m/s | -50.4°C | 3.3% | 90.4hPa | 2.6V | 00:00:00 | 02:11:46 | 00:00:00 | |
| DD1CC2-15 | 2026-09-01 05:43:26 | 52.69970 | 8.36894 | 56° | 35km/h | 17126m | -17.0m/s | -50.4°C | 1.0% | 90.4hPa | 2.6V | 08:21:00 | 00:00:00 | 00:00:00 | |
| DB0DAN | 2026-09-01 05:43:25 | 52.69960 | 8.36870 | 53° | 35km/h | 17160m | -16.9m/s | -50.5°C | 1% | 89.9hPa | 2.6V | 00:00:00 | 00:00:00 | 00:00:00 | |
| DO9LL-15 | 2026-09-01 05:43:25 | 52.69960 | 8.36870 | 53° | 38km/h | 17161m | -16.9m/s | -50.5°C | 3.3% | 89.9hPa | 2.6V | 00:00:00 | 02:11:44 | 00:00:00 | |
| DL1XH-15 | 2026-09-01 05:43:24 | 52.69926 | 8.36792 | 56° | 42km/h | 17262m | -17.2m/s | -50.4°C | 3.2% | 88.6hPa | 2.6V | 08:21:56 | 02:11:38 | 00:00:00 | |
| DF8AY | 2026-09-01 05:43:23 | 52.69948 | 8.36846 | 55° | 37km/h | 17194m | -16.7m/s | -50.4°C | 0.1% | 89.5hPa | 2.7V | 08:22:40 | 02:11:42 | 00:00:00 | |
| DL1XH-west | 2026-09-01 05:43:19 | 52.69926 | 8.36792 | 56° | 42km/h | 17262m | -17.2m/s | -50.4°C | 0.1% | 88.6hPa | 2.6V | 08:22:40 | 02:11:38 | 00:00:00 | |
| BIOWL1-15 | 2026-09-01 05:43:18 | 52.69920 | 8.36777 | 61° | 42km/h | 17279m | -16.9m/s | -50.4°C | 0.1% | 88.3hPa | 2.7V | 08:22:40 | 02:11:37 | 00:00:00 | |
| HSKMA3-T | 2026-09-01 05:43:17 | 52.69915 | 8.36762 | 63° | 42km/h | 17296m | -16.8m/s | -50.5°C | 0.1% | 88.1hPa | 2.7V | 08:22:40 | 02:11:36 | 00:00:00 | |
| GOEST3-10 | 2026-09-01 05:43:17 | 52.69915 | 8.36762 | 63° | 42km/h | 17296m | -16.8m/s | -50.5°C | 3.2% | 88.0hPa | 2.6V | 00:00:00 | 02:11:36 | 00:00:00 | |
| SMARD9-15 | 2026-09-01 05:43:16 | 52.69910 | 8.36746 | 64° | 42km/h | 17314m | -16.9m/s | -50.6°C | 1.0% | 87.8hPa | 2.6V | 00:00:00 | 00:00:00 | 00:00:00 | |
| DO3DL | 2026-09-01 05:43:15 | 52.69910 | 8.36746 | 65° | 42km/h | 17314m | -16.9m/s | -50.6°C | 1.0% | 87.8hPa | 2.6V | 08:22:00 | 00:00:00 | 00:00:00 | |
| DL1XH-15 | 2026-09-01 05:43:14 | 52.69889 | 8.36638 | 76° | 33km/h | 17434m | -16.8m/s | -50.9°C | 3.4% | 86.2hPa | 2.6V | 08:22:06 | 02:11:28 | 00:00:00 | |
| DF8AY | 2026-09-01 05:43:13 | 52.69899 | 8.36698 | 71° | 40km/h | 17365m | -16.9m/s | -50.8°C | 0.2% | 87.2hPa | 2.6V | 08:22:40 | 02:11:32 | 00:00:00 | |
| DD8BA-10 | 2026-09-01 05:43:13 | 52.69899 | 8.36697 | 72° | 37km/h | 17365m | -16.9m/s | -50.7°C | 3.3% | 87.1hPa | 2.6V | 00:00:00 | 00:00:00 | 00:00:00 | |
| DF5WG-10 | 2026-09-01 05:43:12 | 52.69896 | 8.36682 | 76° | 37km/h | 17382m | -16.6m/s | -50.8°C | 3.3% | 86.9hPa | 2.7V | 00:00:00 | 02:11:31 | 00:00:00 | |
| DB0DAN | 2026-09-01 05:43:10 | 52.69891 | 8.36652 | 74° | 35km/h | 17416m | -17.3m/s | -50.9°C | 1% | 86.45hPa | 2.7V | 00:00:00 | 00:00:00 | 00:00:00 | |
| DL1XH-west | 2026-09-01 05:43:09 | 52.69889 | 8.36638 | 77° | 33km/h | 17434m | -16.8m/s | -50.9°C | 0.3% | 86.2hPa | 2.6V | 08:22:40 | 02:11:28 | 00:00:00 | |
| DO2JMG | 2026-09-01 05:43:08 | 52.69887 | 8.36624 | 75° | 35km/h | 17450m | -17m/s | -50.8°C | 0.2% | 86hPa | 2.6V | 08:22:40 | 02:11:27 | 00:00:00 | |
| HSKMA3-T | 2026-09-01 05:43:07 | 52.69884 | 8.36610 | 72° | 33km/h | 17467m | -17m/s | -50.8°C | 0.2% | 85.8hPa | 2.6V | 08:22:40 | 02:11:26 | 00:00:00 | |
| GOEST3-10 | 2026-09-01 05:43:07 | 52.69884 | 8.36610 | 72° | 35km/h | 17468m | -17.0m/s | -50.8°C | 3.3% | 85.7hPa | 2.6V | 00:00:00 | 02:11:26 | 00:00:00 | |
| DJ2DS-15 | 2026-09-01 05:43:06 | 52.69881 | 8.36597 | 72° | 37km/h | 17485m | -17.1m/s | -50.7°C | 3.4% | 85.5hPa | 2.7V | 00:00:00 | 02:11:25 | 00:00:00 | |
| DL1LOL-11 | 2026-09-01 05:43:05 | 52.69881 | 8.36597 | 73° | 33km/h | 17485m | -17.1m/s | -50.8°C | 1.0% | 85.6hPa | 2.7V | 00:00:00 | 00:00:00 | 00:00:00 | |
| DL1XH-15 | 2026-09-01 05:43:04 | 52.69855 | 8.36497 | 66° | 40km/h | 17605m | -17.3m/s | -50.9°C | 3.4% | 84hPa | 2.7V | 08:22:16 | 02:11:18 | 00:00:00 | |
| DF8AY | 2026-09-01 05:43:02 | 52.69868 | 8.36542 | 66° | 38km/h | 17553m | -17.1m/s | -50.7°C | 0.1% | 84.6hPa | 2.6V | 08:22:40 | 02:11:21 | 00:00:00 | |
| DL1XH-west | 2026-09-01 05:42:59 | 52.69856 | 8.36497 | 67° | 40km/h | 17606m | -17.3m/s | -50.9°C | 0.3% | 84hPa | 2.7V | 08:22:40 | 02:11:18 | 00:00:00 | |
| DL4XJ-10 | 2026-09-01 05:42:58 | 52.69852 | 8.36482 | 69° | 35km/h | 17624m | -17.6m/s | -53.5°C | 0% | 0hPa | 2.7V | 00:00:00 | 00:00:00 | 00:00:00 | |
| GOEST3-10 | 2026-09-01 05:42:57 | 52.69848 | 8.36467 | 71° | 37km/h | 17641m | -17.4m/s | -51.0°C | 3.5% | 83.5hPa | 2.7V | 00:00:00 | 02:11:16 | 00:00:00 | |
| DO2JMG | 2026-09-01 05:42:57 | 52.69848 | 8.36467 | 70° | 38km/h | 17641m | -17.5m/s | -51.1°C | 0.3% | 83.5hPa | 2.6V | 08:22:40 | 02:11:16 | 00:00:00 | |
| DM0DOS-11 | 2026-09-01 05:42:56 | 52.69842 | 8.36437 | 75° | 38km/h | 17676m | -17.6m/s | -51.2°C | 3.5% | 83.1hPa | 2.7V | 08:22:20 | 02:11:14 | 00:00:00 | |
| HSKMA3-T | 2026-09-01 05:42:56 | 52.69845 | 8.36452 | 71° | 38km/h | 17658m | -17.8m/s | -51.2°C | 0.3% | 83.3hPa | 2.6V | 08:22:40 | 02:11:15 | 00:00:00 | |
| DB0ND-19 | 2026-09-01 05:42:55 | 52.69840 | 8.36422 | 74° | 37km/h | 17694m | -17.6m/s | -51.2°C | 1.0% | 82.8hPa | 2.7V | 00:00:00 | 00:00:00 | 00:00:00 | |
| DL1XH-15 | 2026-09-01 05:42:54 | 52.69828 | 8.36353 | 76° | 33km/h | 17781m | -17.5m/s | -50.9°C | 3.5% | 81.7hPa | 2.7V | 08:22:26 | 02:11:08 | 00:00:00 | |
| DF8AY | 2026-09-01 05:42:51 | 52.69833 | 8.36379 | 75° | 35km/h | 17746m | -17.2m/s | -51°C | 0.3% | 82.2hPa | 2.6V | 08:22:40 | 02:11:10 | 00:00:00 | |
| DL1XH-west | 2026-09-01 05:42:49 | 52.69828 | 8.36353 | 76° | 33km/h | 17782m | -17.5m/s | -50.9°C | 0.3% | 81.7hPa | 2.7V | 08:22:40 | 02:11:08 | 00:00:00 | |
| DO2JMG | 2026-09-01 05:42:47 | 52.69824 | 8.36327 | 76° | 31km/h | 17816m | -17.5m/s | -50.9°C | 0.3% | 81.3hPa | 2.6V | 08:22:40 | 02:11:06 | 00:00:00 | |
| DB0NH | 2026-09-01 05:42:47 | 52.69824 | 8.36327 | 76° | 26km/h | 17817m | -17.5m/s | -50.8°C | 3.5% | 81.2hPa | 2.6V | 00:00:00 | 02:11:06 | 00:00:00 | |
| DM0DOS-11 | 2026-09-01 05:42:46 | 52.69820 | 8.36301 | 76° | 35km/h | 17852m | -18.1m/s | -51°C | 3.6% | 80.8hPa | 2.6V | 08:22:30 | 02:11:04 | 00:00:00 | |
| BIOWL1-15 | 2026-09-01 05:42:46 | 52.69822 | 8.36314 | 75° | 33km/h | 17834m | -18m/s | -50.9°C | 0.3% | 81hPa | 2.6V | 08:22:40 | 02:11:05 | 00:00:00 | |
| HSKMA3-T | 2026-09-01 05:42:45 | 52.69820 | 8.36301 | 77° | 35km/h | 17852m | -18.1m/s | -51°C | 0.4% | 80.8hPa | 2.6V | 08:22:40 | 02:11:04 | 00:00:00 | |
| DL1XH-15 | 2026-09-01 05:42:44 | 52.69810 | 8.36216 | 78° | 33km/h | 17960m | -17.7m/s | -50.4°C | 3.4% | 79.5hPa | 2.6V | 08:22:36 | 02:10:58 | 00:00:00 | |
| DL3AQ-11 | 2026-09-01 05:42:44 | 52.69816 | 8.36273 | 76° | 35km/h | 17888m | -17.9m/s | -50.9°C | 1.0% | 80.4hPa | 2.7V | 00:00:00 | 00:00:00 | 00:00:00 | |
| DD8BA-10 | 2026-09-01 05:42:43 | 52.69816 | 8.36273 | 77° | 31km/h | 17888m | -17.8m/s | -50.9°C | 3.5% | 80.3hPa | 2.7V | 00:00:00 | 00:00:00 | 00:00:00 | |
| DL1NUX | 2026-09-01 05:42:42 | 52.69807 | 8.36190 | 79° | 29km/h | 17996m | -18.1m/s | -50.1°C | 3.3% | 79hPa | 2.7V | 08:22:38 | 02:10:56 | 00:00:00 | |
| DF8AY | 2026-09-01 05:42:41 | 52.69813 | 8.36244 | 79° | 35km/h | 17924m | -18m/s | -50.5°C | 0.3% | 79.9hPa | 2.6V | 08:22:40 | 02:11:00 | 00:00:00 | |
| DB0DAN | 2026-09-01 05:42:40 | 52.69811 | 8.36230 | 79° | 33km/h | 17942m | -17.8m/s | -50.5°C | 1% | 79.71hPa | 2.6V | 00:00:00 | 00:00:00 | 00:00:00 | |
| DL1XH-west | 2026-09-01 05:42:38 | 52.69808 | 8.36203 | 81° | 31km/h | 17978m | -17.8m/s | -50.2°C | 0.2% | 79.2hPa | 2.7V | 08:22:40 | 02:10:57 | 00:00:00 | |
| DL4XJ-10 | 2026-09-01 05:42:38 | 52.69808 | 8.36203 | 81° | 27km/h | 17978m | -17.8m/s | -52.7°C | 0% | 0hPa | 2.7V | 00:00:00 | 00:00:00 | 00:00:00 | |
| GOEST3-10 | 2026-09-01 05:42:37 | 52.69807 | 8.36190 | 80° | 29km/h | 17996m | -18.1m/s | -50.0°C | 3.3% | 79.0hPa | 2.7V | 08:22:00 | 02:10:56 | 00:00:00 | |
| DM0DOS-11 | 2026-09-01 05:42:36 | 52.69804 | 8.36167 | 78° | 27km/h | 18032m | -18m/s | -50°C | 3.3% | 78.6hPa | 2.6V | 08:22:40 | 02:10:54 | 00:00:00 | |
| DO2JMG | 2026-09-01 05:42:36 | 52.69805 | 8.36178 | 76° | 29km/h | 18014m | -18.3m/s | -50.1°C | 0.2% | 78.8hPa | 2.7V | 08:22:40 | 02:10:55 | 00:00:00 | |
| HSKMA3-T | 2026-09-01 05:42:35 | 52.69804 | 8.36167 | 78° | 27km/h | 18032m | -18m/s | -50.1°C | 0.2% | 78.6hPa | 2.6V | 08:22:40 | 02:10:54 | 00:00:00 | |
| DL1XH-15 | 2026-09-01 05:42:34 | 52.69794 | 8.36096 | 80° | 31km/h | 18142m | -18.3m/s | -49.6°C | 3.1% | 77.3hPa | 2.6V | 08:22:46 | 02:10:48 | 00:00:00 | |
| DF8AY | 2026-09-01 05:42:31 | 52.69797 | 8.36121 | 75° | 31km/h | 18105m | -18.6m/s | -49.6°C | 0.1% | 77.8hPa | 2.7V | 08:23:31 | 02:10:50 | 00:00:00 | |
| DL1XH-west | 2026-09-01 05:42:28 | 52.69793 | 8.36084 | 81° | 29km/h | 18160m | -17.9m/s | -49.7°C | 0.1% | 77.1hPa | 2.6V | 08:23:31 | 02:10:47 | 00:00:00 | |
| GOEST3-10 | 2026-09-01 05:42:27 | 52.69791 | 8.36071 | 81° | 27km/h | 18178m | -18.3m/s | -49.7°C | 3.2% | 76.9hPa | 2.7V | 00:00:00 | 02:10:46 | 00:00:00 | |
| DM0DOS-11 | 2026-09-01 05:42:26 | 52.69788 | 8.36048 | 79° | 27km/h | 18215m | -18.2m/s | -49.7°C | 3.2% | 76.4hPa | 2.7V | 08:22:50 | 02:10:44 | 00:00:00 | |
| DO2JMG | 2026-09-01 05:42:26 | 52.69790 | 8.36059 | 78° | 29km/h | 18196m | -18.2m/s | -49.7°C | 0.1% | 76.7hPa | 2.7V | 08:23:31 | 02:10:45 | 00:00:00 | |
| HSKMA3-T | 2026-09-01 05:42:25 | 52.69789 | 8.36048 | 80° | 27km/h | 18215m | -18.2m/s | -49.7°C | 0.1% | 76.4hPa | 2.7V | 08:23:31 | 02:10:44 | 00:00:00 | |
| AA1-15 | 2026-09-01 05:42:24 | 52.69787 | 8.36037 | 76° | 27km/h | 18233m | -18.3m/s | -49.7°C | 0.1% | 76.2hPa | 2.6V | 08:23:31 | 02:10:43 | 00:00:00 | |
| DF8AY | 2026-09-01 05:42:20 | 52.69778 | 8.35997 | 64° | 22km/h | 18306m | -18m/s | -49.5°C | 0% | 75.4hPa | 2.7V | 08:23:31 | 02:10:39 | 00:00:00 | |
| DL1XH-west | 2026-09-01 05:42:18 | 52.69772 | 8.35981 | 52° | 24km/h | 18343m | -17.9m/s | -49.7°C | 0% | 75hPa | 2.6V | 08:23:31 | 02:10:37 | 00:00:00 | |
| DO2JMG | 2026-09-01 05:42:16 | 52.69765 | 8.35966 | 52° | 24km/h | 18379m | -18.5m/s | -49.9°C | 0.1% | 74.5hPa | 2.6V | 08:23:31 | 02:10:35 | 00:00:00 | |
| HSKMA3-T | 2026-09-01 05:42:15 | 52.69761 | 8.35958 | 49° | 26km/h | 18397m | -18.3m/s | -50°C | 0.1% | 74.3hPa | 2.7V | 08:23:31 | 02:10:34 | 00:00:00 | |
| BIOWL1-15 | 2026-09-01 05:42:14 | 52.69757 | 8.35949 | 48° | 27km/h | 18416m | -18.4m/s | -50°C | 0.1% | 74.2hPa | 2.7V | 08:23:31 | 02:10:33 | 00:00:00 | |
| DD8BA-10 | 2026-09-01 05:42:13 | 52.69752 | 8.35941 | 46° | 31km/h | 18435m | -18.8m/s | -49.8°C | 3.1% | 73.9hPa | 2.6V | 08:23:00 | 00:00:00 | 00:00:00 | |
| GOEST3-10 | 2026-09-01 05:42:12 | 52.69747 | 8.35932 | 51° | 33km/h | 18453m | -18.7m/s | -49.7°C | 3.1% | 73.6hPa | 2.7V | 00:00:00 | 00:00:00 | 00:00:00 | |
| DB0DAN | 2026-09-01 05:42:10 | 52.69736 | 8.35912 | 48° | 31km/h | 18490m | -18.7m/s | -50°C | 0.9% | 73.27hPa | 2.7V | 00:00:00 | 00:00:00 | 00:00:00 | |
| DF8AY | 2026-09-01 05:42:10 | 52.69736 | 8.35912 | 48° | 33km/h | 18490m | -18.7m/s | -50°C | 0.1% | 73.3hPa | 2.7V | 08:23:31 | 02:10:29 | 00:00:00 | |
| DL1XH-west | 2026-09-01 05:42:07 | 52.69722 | 8.35879 | 57° | 33km/h | 18546m | -18.4m/s | -50.3°C | 0.2% | 72.6hPa | 2.6V | 08:23:31 | 02:10:26 | 00:00:00 | |
| DO2JMG | 2026-09-01 05:42:05 | 52.69714 | 8.35856 | 63° | 31km/h | 18583m | -18.9m/s | -50.3°C | 0.1% | 72.2hPa | 2.7V | 08:23:31 | 02:10:24 | 00:00:00 | |
| BIOWL1-15 | 2026-09-01 05:42:04 | 52.69711 | 8.35844 | 67° | 29km/h | 18602m | -18.1m/s | -50.4°C | 0.2% | 72hPa | 2.7V | 08:23:31 | 02:10:23 | 00:00:00 | |
| AA1-15 | 2026-09-01 05:42:03 | 52.69708 | 8.35832 | 69° | 31km/h | 18620m | -18.2m/s | -50.4°C | 0.2% | 71.9hPa | 2.6V | 08:23:31 | 02:10:22 | 00:00:00 | |
| DF8AY | 2026-09-01 05:41:59 | 52.69699 | 8.35784 | 77° | 31km/h | 18694m | -18.7m/s | -50.6°C | 0.2% | 71hPa | 2.7V | 08:23:31 | 02:10:18 | 00:00:00 | |
| DL4XJ-10 | 2026-09-01 05:41:58 | 52.69697 | 8.35772 | 72° | 24km/h | 18712m | -18.4m/s | -53.1°C | 0% | 0hPa | 2.6V | 00:00:00 | 00:00:00 | 00:00:00 | |
| DL1NUX | 2026-09-01 05:41:57 | 52.69684 | 8.35702 | 69° | 27km/h | 18823m | -18.6m/s | -50.7°C | 3.3% | 69.6hPa | 2.6V | 08:23:23 | 02:10:11 | 00:00:00 | |
| GOEST3-10 | 2026-09-01 05:41:57 | 52.69695 | 8.35760 | 75° | 29km/h | 18731m | -18.0m/s | -50.6°C | 3.3% | 70.6hPa | 2.6V | 00:00:00 | 02:10:16 | 00:00:00 | |
| DL1XH-west | 2026-09-01 05:41:57 | 52.69695 | 8.35760 | 75° | 29km/h | 18731m | -18m/s | -50.7°C | 0.2% | 70.6hPa | 2.6V | 08:23:31 | 02:10:16 | 00:00:00 | |
| DD1CC1-15 | 2026-09-01 05:41:56 | 52.69695 | 8.35760 | 76° | 29km/h | 18731m | -18.0m/s | -50.7°C | 1.0% | 70.6hPa | 2.6V | 08:23:00 | 00:00:00 | 00:00:00 | |
| DB0DAN | 2026-09-01 05:41:55 | 52.69690 | 8.35736 | 72° | 29km/h | 18768m | -18.5m/s | -50.7°C | 1% | 70.2hPa | 2.6V | 00:00:00 | 00:00:00 | 00:00:00 | |
| DO2JMG | 2026-09-01 05:41:54 | 52.69688 | 8.35725 | 74° | 29km/h | 18786m | -18.1m/s | -50.6°C | 0.2% | 70hPa | 2.7V | 08:23:31 | 02:10:13 | 00:00:00 | |
| HSKMA3-T | 2026-09-01 05:41:53 | 52.69686 | 8.35713 | 71° | 29km/h | 18804m | -18.4m/s | -50.6°C | 0.2% | 69.8hPa | 2.7V | 08:23:31 | 02:10:12 | 00:00:00 | |
| DF8AY | 2026-09-01 05:41:49 | 52.69678 | 8.35671 | 78° | 24km/h | 18879m | -18.2m/s | -51°C | 0.2% | 69hPa | 2.7V | 08:23:31 | 02:10:08 | 00:00:00 | |
| DL1NUX | 2026-09-01 05:41:47 | 52.69671 | 8.35618 | 71° | 16km/h | 19010m | -18.7m/s | -51.3°C | 3.4% | 67.7hPa | 2.6V | 08:23:33 | 02:10:01 | 00:00:00 | |
| GOEST3-10 | 2026-09-01 05:41:47 | 52.69676 | 8.35653 | 78° | 18km/h | 18916m | -18.5m/s | -50.9°C | 3.3% | 68.5hPa | 2.7V | 00:00:00 | 02:10:06 | 00:00:00 | |
| DM0DOS-11 | 2026-09-01 05:41:46 | 52.69674 | 8.35638 | 76° | 18km/h | 18953m | -19m/s | -51°C | 3.3% | 68.2hPa | 2.7V | 08:23:30 | 02:10:04 | 00:00:00 | |
| DL1XH-west | 2026-09-01 05:41:46 | 52.69675 | 8.35645 | 81° | 18km/h | 18934m | -18.7m/s | -50.9°C | 0.2% | 68.5hPa | 2.6V | 08:23:31 | 02:10:05 | 00:00:00 | |
| DO2JMG | 2026-09-01 05:41:44 | 52.69673 | 8.35631 | 77° | 16km/h | 18972m | -18.9m/s | -51.1°C | 0.2% | 68hPa | 2.7V | 08:23:31 | 02:10:03 | 00:00:00 | |
| HSKMA3-T | 2026-09-01 05:41:43 | 52.69672 | 8.35624 | 75° | 16km/h | 18991m | -18.8m/s | -51.2°C | 0.2% | 67.8hPa | 2.7V | 08:24:22 | 02:10:02 | 00:00:00 | |
| BIOWL1-15 | 2026-09-01 05:41:42 | 52.69671 | 8.35617 | 72° | 16km/h | 19010m | -18.7m/s | -51.3°C | 0.3% | 67.7hPa | 2.6V | 08:24:22 | 02:10:01 | 00:00:00 | |
| DF8AY-15 | 2026-09-01 05:41:42 | 52.69671 | 8.35617 | 72° | 27km/h | 19010m | -18.7m/s | -51.3°C | 3.4% | 67.6hPa | 2.6V | 00:00:00 | 02:10:01 | 00:00:00 | |
| DF4FW | 2026-09-01 05:41:41 | 52.69671 | 8.35618 | 73° | 16km/h | 19010m | -18.7m/s | -51.3°C | 1.0% | 67.7hPa | 2.6V | 08:24:00 | 00:00:00 | 00:00:00 | |
| DB0DAN | 2026-09-01 05:41:40 | 52.69668 | 8.35604 | 63° | 18km/h | 19048m | -18.8m/s | -51.4°C | 1% | 67.25hPa | 2.6V | 00:00:00 | 00:00:00 | 00:00:00 | |
| DF8AY | 2026-09-01 05:41:39 | 52.69665 | 8.35597 | 60° | 20km/h | 19067m | -18.5m/s | -51.5°C | 0.3% | 67.1hPa | 2.7V | 08:24:22 | 02:09:58 | 00:00:00 | |
| SONDE2-11 | 2026-09-01 05:41:39 | 52.69665 | 8.35597 | 60° | 18km/h | 19067m | -18.5m/s | -51.5°C | 1.0% | 67.1hPa | 2.7V | 00:00:00 | 00:00:00 | 00:00:00 | |
| DL4XJ-10 | 2026-09-01 05:41:38 | 52.69663 | 8.35589 | 64° | 27km/h | 19086m | -18.4m/s | -54.1°C | 0% | 0hPa | 2.7V | 00:00:00 | 00:00:00 | 00:00:00 | |
| DL1NUX | 2026-09-01 05:41:37 | 52.69647 | 8.35526 | 75° | 29km/h | 19199m | -19m/s | -52.1°C | 3.7% | 65.7hPa | 2.7V | 08:23:43 | 02:09:51 | 00:00:00 | |
| GOEST3-10 | 2026-09-01 05:41:37 | 52.69660 | 8.35580 | 64° | 27km/h | 19105m | -18.4m/s | -51.6°C | 3.6% | 66.6hPa | 2.7V | 00:00:00 | 02:09:56 | 00:00:00 | |
| DM0DOS-11 | 2026-09-01 05:41:36 | 52.69654 | 8.35561 | 65° | 27km/h | 19142m | -18.8m/s | -51.7°C | 3.6% | 66.2hPa | 2.6V | 08:23:40 | 02:09:54 | 00:00:00 | |
| DL1XH-west | 2026-09-01 05:41:35 | 52.69655 | 8.35561 | 66° | 27km/h | 19142m | -18.8m/s | -51.7°C | 0.3% | 66.2hPa | 2.6V | 08:24:22 | 02:09:54 | 00:00:00 | |
| DO2JMG | 2026-09-01 05:41:33 | 52.69649 | 8.35538 | 73° | 29km/h | 19180m | -19.1m/s | -52°C | 0.4% | 65.9hPa | 2.7V | 08:24:22 | 02:09:52 | 00:00:00 | |
| AA1-15 | 2026-09-01 05:41:31 | 52.69646 | 8.35514 | 79° | 31km/h | 19218m | -19m/s | -52.1°C | 0.5% | 65.5hPa | 2.6V | 08:24:22 | 02:09:50 | 00:00:00 | |
| DF8AY | 2026-09-01 05:41:28 | 52.69642 | 8.35478 | 83° | 27km/h | 19276m | -19.2m/s | -52°C | 0.5% | 64.9hPa | 2.7V | 08:24:22 | 02:09:47 | 00:00:00 | |
| DF5WG-10 | 2026-09-01 05:41:28 | 52.69642 | 8.35477 | 83° | 20km/h | 19276m | -19.2m/s | -52.0°C | 3.7% | 64.8hPa | 2.6V | 00:00:00 | 02:09:47 | 00:00:00 | |
| DL1NUX | 2026-09-01 05:41:27 | 52.69630 | 8.35415 | 63° | 26km/h | 19392m | -19.6m/s | -51.8°C | 3.8% | 63.7hPa | 2.6V | 08:23:53 | 02:09:41 | 00:00:00 | |
| GOEST3-10 | 2026-09-01 05:41:27 | 52.69641 | 8.35466 | 79° | 26km/h | 19295m | -19.4m/s | -52.0°C | 3.8% | 64.7hPa | 2.7V | 00:00:00 | 02:09:46 | 00:00:00 | |
| DD1CC3-15 | 2026-09-01 05:41:26 | 52.69641 | 8.35466 | 79° | 27km/h | 19295m | -19.5m/s | -52.1°C | 1.1% | 64.7hPa | 2.7V | 08:24:00 | 00:00:00 | 00:00:00 | |
| DB0DAN | 2026-09-01 05:41:25 | 52.69638 | 8.35444 | 71° | 24km/h | 19334m | -19.3m/s | -52.1°C | 1.1% | 64.37hPa | 2.7V | 00:00:00 | 00:00:00 | 00:00:00 | |
| DL1XH-west | 2026-09-01 05:41:24 | 52.69636 | 8.35434 | 69° | 26km/h | 19353m | -19m/s | -52°C | 0.6% | 64.1hPa | 2.7V | 08:24:22 | 02:09:43 | 00:00:00 | |
| DL1XH-15 | 2026-09-01 05:41:24 | 52.69621 | 8.35389 | 59° | 24km/h | 19450m | -19.3m/s | -51.2°C | 3.6% | 63.2hPa | 2.7V | 08:23:56 | 02:09:38 | 00:00:00 | |
| DO2JMG | 2026-09-01 05:41:23 | 52.69633 | 8.35425 | 63° | 26km/h | 19372m | -19.2m/s | -51.9°C | 0.6% | 63.9hPa | 2.6V | 08:24:22 | 02:09:42 | 00:00:00 | |
| HSKMA3-T | 2026-09-01 05:41:22 | 52.69630 | 8.35415 | 63° | 26km/h | 19392m | -19.6m/s | -51.8°C | 0.5% | 63.7hPa | 2.6V | 08:24:22 | 02:09:41 | 00:00:00 | |
| AA1-15 | 2026-09-01 05:41:20 | 52.69624 | 8.35397 | 57° | 24km/h | 19431m | -19.7m/s | -51.2°C | 0.4% | 63.4hPa | 2.7V | 08:24:22 | 02:09:39 | 00:00:00 | |
| DF8AY | 2026-09-01 05:41:17 | 52.69616 | 8.35372 | 65° | 22km/h | 19489m | -19.9m/s | -51.2°C | 0.4% | 62.8hPa | 2.6V | 08:24:22 | 02:09:36 | 00:00:00 | |
| GOEST3-10 | 2026-09-01 05:41:17 | 52.69616 | 8.35372 | 66° | 20km/h | 19490m | -19.8m/s | -51.2°C | 3.6% | 62.7hPa | 2.6V | 00:00:00 | 02:09:36 | 00:00:00 | |
| DK5PH-5 | 2026-09-01 05:41:16 | 52.69613 | 8.35363 | 69° | 16km/h | 19509m | -19.7m/s | -51.1°C | 3.6% | 62.5hPa | 2.6V | 00:00:00 | 02:09:35 | 00:00:00 | |
| DC6BW-12 | 2026-09-01 05:41:15 | 52.69613 | 8.35363 | 69° | 22km/h | 19509m | -19.7m/s | -51.2°C | 1.1% | 62.6hPa | 2.6V | 08:24:00 | 00:00:00 | 00:00:00 | |
| DL1XH-15 | 2026-09-01 05:41:14 | 52.69608 | 8.35310 | 90° | 15km/h | 19648m | -19.9m/s | -50.1°C | 3.2% | 61.3hPa | 2.6V | 08:24:06 | 02:09:28 | 00:00:00 | |
| DL1XH-west | 2026-09-01 05:41:13 | 52.69609 | 8.35340 | 79° | 18km/h | 19568m | -19.6m/s | -50.7°C | 0.4% | 62hPa | 2.7V | 08:24:22 | 02:09:32 | 00:00:00 | |
| DO2JMG | 2026-09-01 05:41:12 | 52.69608 | 8.35332 | 85° | 20km/h | 19588m | -20m/s | -50.5°C | 0.2% | 61.8hPa | 2.7V | 08:24:22 | 02:09:31 | 00:00:00 | |
| BIOWL1-15 | 2026-09-01 05:41:12 | 52.69608 | 8.35316 | 89° | 16km/h | 19628m | -20.3m/s | -50.1°C | 0.2% | 61.4hPa | 2.6V | 08:24:22 | 02:09:29 | 00:00:00 | |
| GOEST3-10 | 2026-09-01 05:41:12 | 52.69608 | 8.35332 | 86° | 16km/h | 19588m | -20.0m/s | -50.4°C | 3.4% | 61.8hPa | 2.6V | 00:00:00 | 00:00:00 | 00:00:00 | |
| DB0DAN | 2026-09-01 05:41:10 | 52.69608 | 8.35316 | 89° | 16km/h | 19628m | -20.3m/s | -50.1°C | 0.9% | 61.44hPa | 2.6V | 00:00:00 | 00:00:00 | 00:00:00 | |
| AA1-15 | 2026-09-01 05:41:09 | 52.69608 | 8.35310 | 91° | 16km/h | 19649m | -19.9m/s | -50.1°C | 0.2% | 61.3hPa | 2.6V | 08:24:22 | 02:09:28 | 00:00:00 | |
| DF8AY | 2026-09-01 05:41:07 | 52.69608 | 8.35298 | 80° | 15km/h | 19688m | -20.2m/s | -50.3°C | 0.2% | 60.9hPa | 2.7V | 08:24:22 | 02:09:26 | 00:00:00 | |
| GOEST3-10 | 2026-09-01 05:41:07 | 52.69608 | 8.35297 | 81° | 13km/h | 19689m | -20.1m/s | -50.2°C | 3.3% | 60.8hPa | 2.7V | 08:24:00 | 02:09:26 | 00:00:00 | |
| DM0DOS-11 | 2026-09-01 05:41:06 | 52.69606 | 8.35287 | 71° | 11km/h | 19729m | -20.3m/s | -50.4°C | 3.3% | 60.5hPa | 2.6V | 08:24:10 | 02:09:24 | 00:00:00 | |
| DJ2DS-15 | 2026-09-01 05:41:06 | 52.69607 | 8.35292 | 75° | 16km/h | 19709m | -20.2m/s | -50.3°C | 3.3% | 60.6hPa | 2.7V | 00:00:00 | 02:09:25 | 00:00:00 | |
| DL8OAI-8 | 2026-09-01 05:41:05 | 52.69607 | 8.35292 | 76° | 13km/h | 19709m | -20.3m/s | -50.4°C | 1.0% | 60.7hPa | 2.7V | 08:24:00 | 00:00:00 | 00:00:00 | |
| DL1XH-15 | 2026-09-01 05:41:04 | 52.69591 | 8.35270 | 8° | 16km/h | 19851m | -20.6m/s | -50.3°C | 3.3% | 59.4hPa | 2.7V | 08:24:16 | 02:09:18 | 00:00:00 | |
| DL1XH-west | 2026-09-01 05:41:02 | 52.69601 | 8.35276 | 31° | 13km/h | 19789m | -20.1m/s | -50.1°C | 0.1% | 59.9hPa | 2.6V | 08:24:22 | 02:09:21 | 00:00:00 | |
| DO2JMG | 2026-09-01 05:41:01 | 52.69598 | 8.35273 | 22° | 15km/h | 19810m | -20.2m/s | -50.2°C | 0.1% | 59.8hPa | 2.6V | 08:24:22 | 02:09:20 | 00:00:00 | |
| BIOWL1-15 | 2026-09-01 05:40:59 | 52.69591 | 8.35270 | 9° | 16km/h | 19851m | -20.6m/s | -50.3°C | 0.2% | 59.4hPa | 2.7V | 08:24:22 | 02:09:18 | 00:00:00 | |
| AA1-15 | 2026-09-01 05:40:58 | 52.69586 | 8.35269 | 10° | 18km/h | 19871m | -20.3m/s | -50.5°C | 0.2% | 59.2hPa | 2.6V | 08:24:22 | 02:09:17 | 00:00:00 | |
| DF8AY | 2026-09-01 05:40:57 | 52.69582 | 8.35268 | 9° | 18km/h | 19892m | -20.2m/s | -50.6°C | 0.2% | 59hPa | 2.6V | 08:24:22 | 02:09:16 | 00:00:00 | |
| GOEST3-10 | 2026-09-01 05:40:56 | 52.69577 | 8.35266 | 8° | 20km/h | 19912m | -20.2m/s | -50.5°C | 3.3% | 58.8hPa | 2.7V | 00:00:00 | 02:09:15 | 00:00:00 | |
| DO9LL-15 | 2026-09-01 05:40:55 | 52.69572 | 8.35265 | 11° | 18km/h | 19933m | -20.4m/s | -50.4°C | 3.3% | 58.6hPa | 2.7V | 00:00:00 | 02:09:14 | 00:00:00 | |
| DL1XH-15 | 2026-09-01 05:40:54 | 52.69546 | 8.35250 | 30° | 16km/h | 20056m | -20.4m/s | -50.5°C | 3.3% | 57.5hPa | 2.7V | 08:24:26 | 02:09:08 | 00:00:00 | |
| DL1XH-west | 2026-09-01 05:40:51 | 52.69554 | 8.35256 | 21° | 18km/h | 20015m | -20.5m/s | -50.4°C | 0.2% | 57.9hPa | 2.6V | 08:25:13 | 02:09:10 | 00:00:00 | |
| BIOWL1-15 | 2026-09-01 05:40:50 | 52.69543 | 8.35246 | 34° | 15km/h | 20077m | -20.3m/s | -50.6°C | 0.2% | 57.4hPa | 2.7V | 08:25:13 | 02:09:07 | 00:00:00 | |
| DO2JMG | 2026-09-01 05:40:50 | 52.69550 | 8.35253 | 28° | 16km/h | 20036m | -20.6m/s | -50.5°C | 0.1% | 57.7hPa | 2.6V | 08:25:13 | 02:09:09 | 00:00:00 | |
| AA1-15 | 2026-09-01 05:40:47 | 52.69540 | 8.35243 | 39° | 15km/h | 20098m | -20.8m/s | -50.7°C | 0.3% | 57.2hPa | 2.7V | 08:25:13 | 02:09:06 | 00:00:00 | |
| DF8AY | 2026-09-01 05:40:46 | 52.69537 | 8.35239 | 42° | 15km/h | 20118m | -20.6m/s | -50.8°C | 0.3% | 57hPa | 2.6V | 08:25:13 | 02:09:05 | 00:00:00 | |
| DJ2DS-15 | 2026-09-01 05:40:45 | 52.69531 | 8.35229 | 44° | 16km/h | 20160m | -21.2m/s | -50.9°C | 1.0% | 56.6hPa | 2.6V | 00:00:00 | 00:00:00 | 00:00:00 | |
| DL1XH-15 | 2026-09-01 05:40:44 | 52.69513 | 8.35201 | 45° | 22km/h | 20265m | -21.1m/s | -51°C | 3.4% | 55.7hPa | 2.6V | 08:24:36 | 02:08:58 | 00:00:00 | |
| DK5PH-5 | 2026-09-01 05:40:44 | 52.69531 | 8.35229 | 45° | 16km/h | 20160m | -21.1m/s | -50.9°C | 3.4% | 56.6hPa | 2.6V | 00:00:00 | 02:09:03 | 00:00:00 | |
| DD8BA-10 | 2026-09-01 05:40:43 | 52.69528 | 8.35224 | 42° | 22km/h | 20181m | -20.5m/s | -50.9°C | 3.3% | 56.4hPa | 2.7V | 08:24:00 | 00:00:00 | 00:00:00 | |
| DL1NUX | 2026-09-01 05:40:42 | 52.69505 | 8.35186 | 53° | 24km/h | 20307m | -20.9m/s | -51.2°C | 3.4% | 55.3hPa | 2.7V | 08:24:38 | 02:08:56 | 00:00:00 | |
| DL1XH-west | 2026-09-01 05:40:40 | 52.69517 | 8.35207 | 45° | 22km/h | 20244m | -20.8m/s | -51°C | 0.2% | 55.9hPa | 2.6V | 08:25:13 | 02:08:59 | 00:00:00 | |
| HSKMA3-T | 2026-09-01 05:40:39 | 52.69513 | 8.35201 | 46° | 22km/h | 20265m | -21.1m/s | -51.1°C | 0.3% | 55.7hPa | 2.6V | 08:25:13 | 02:08:58 | 00:00:00 | |
| BIOWL1-15 | 2026-09-01 05:40:37 | 52.69505 | 8.35186 | 54° | 24km/h | 20307m | -21m/s | -51.2°C | 0.3% | 55.3hPa | 2.7V | 08:25:13 | 02:08:56 | 00:00:00 | |
| AA1-15 | 2026-09-01 05:40:36 | 52.69502 | 8.35178 | 57° | 24km/h | 20328m | -21m/s | -51.3°C | 0.3% | 55.1hPa | 2.7V | 08:25:13 | 02:08:55 | 00:00:00 | |
| DF8AY | 2026-09-01 05:40:35 | 52.69499 | 8.35169 | 60° | 26km/h | 20350m | -21.3m/s | -51.5°C | 0.3% | 55hPa | 2.6V | 08:25:13 | 02:08:54 | 00:00:00 | |
| HTAHTA | 2026-09-01 05:40:35 | 52.69496 | 8.35160 | 66° | 24km/h | 20371m | -21.0m/s | -51.5°C | 1.0% | 54.8hPa | 2.7V | 00:00:00 | 00:00:00 | 00:00:00 | |
| DL1XH-15 | 2026-09-01 05:40:34 | 52.69490 | 8.35121 | 83° | 15km/h | 20477m | -21.3m/s | -52°C | 3.6% | 53.9hPa | 2.7V | 08:24:46 | 02:08:48 | 00:00:00 | |
| DL1XH-west | 2026-09-01 05:40:30 | 52.69491 | 8.35127 | 84° | 16km/h | 20456m | -21.1m/s | -51.9°C | 0.4% | 54hPa | 2.6V | 08:25:13 | 02:08:49 | 00:00:00 | |
| BIOWL1-15 | 2026-09-01 05:40:29 | 52.69490 | 8.35112 | 74° | 9km/h | 20520m | -21.1m/s | -52°C | 0.4% | 53.5hPa | 2.6V | 08:25:13 | 02:08:46 | 00:00:00 | |
| DO2JMG | 2026-09-01 05:40:29 | 52.69490 | 8.35121 | 84° | 15km/h | 20477m | -21.3m/s | -52°C | 0.4% | 53.9hPa | 2.7V | 08:25:13 | 02:08:48 | 00:00:00 | |
| HSKMA3-T | 2026-09-01 05:40:28 | 52.69490 | 8.35116 | 83° | 11km/h | 20498m | -21.2m/s | -52°C | 0.4% | 53.7hPa | 2.7V | 08:25:13 | 02:08:47 | 00:00:00 | |
| DO2SHX-10 | 2026-09-01 05:40:27 | 52.69490 | 8.35112 | 74° | 9km/h | 20520m | -21.0m/s | -52.0°C | 3.6% | 53.5hPa | 2.6V | 08:24:00 | 02:08:46 | 00:00:00 | |
| DO2LYB-13 | 2026-09-01 05:40:26 | 52.69490 | 8.35112 | 75° | 9km/h | 20520m | -21.1m/s | -52.0°C | 1.1% | 53.5hPa | 2.7V | 00:00:00 | 00:00:00 | 00:00:00 | |
| DB0DAN | 2026-09-01 05:40:25 | 52.69488 | 8.35106 | 46° | 7km/h | 20562m | -21.6m/s | -51.6°C | 1% | 53.18hPa | 2.7V | 00:00:00 | 00:00:00 | 00:00:00 | |
| DF8AY | 2026-09-01 05:40:25 | 52.69488 | 8.35106 | 46° | 7km/h | 20562m | -21.6m/s | -51.6°C | 0.4% | 53.2hPa | 2.7V | 08:25:13 | 02:08:44 | 00:00:00 | |
| HSKMA3-T | 2026-09-01 05:40:23 | 52.69470 | 8.35084 | 52° | 16km/h | 20715m | -21.8m/s | -52.1°C | 0.4% | 51.9hPa | 2.7V | 08:25:13 | 02:08:37 | 00:00:00 | |
| DL1XH-west | 2026-09-01 05:40:20 | 52.69475 | 8.35094 | 36° | 15km/h | 20671m | -21.5m/s | -51.8°C | 0.3% | 52.3hPa | 2.7V | 08:25:13 | 02:08:39 | 00:00:00 | |
| DO2JMG | 2026-09-01 05:40:19 | 52.69473 | 8.35089 | 47° | 16km/h | 20693m | -21.9m/s | -51.9°C | 0.3% | 52.1hPa | 2.7V | 08:25:13 | 02:08:38 | 00:00:00 | |
| BIOWL1-15 | 2026-09-01 05:40:18 | 52.69465 | 8.35072 | 63° | 18km/h | 20758m | -21.9m/s | -52.3°C | 0.5% | 51.6hPa | 2.6V | 08:25:13 | 02:08:35 | 00:00:00 | |
| DL4XJ-10 | 2026-09-01 05:40:18 | 52.69470 | 8.35084 | 53° | 18km/h | 20715m | -21.7m/s | -54.6°C | 0% | 0hPa | 2.6V | 00:00:00 | 00:00:00 | 00:00:00 | |
| DL1ZP-14 | 2026-09-01 05:40:17 | 52.69467 | 8.35078 | 57° | 18km/h | 20736m | -21.8m/s | -52.2°C | 1.0% | 51.8hPa | 2.6V | 00:00:00 | 00:00:00 | 00:00:00 | |
| DL1XH1-15 | 2026-09-01 05:40:16 | 52.69463 | 8.35065 | 65° | 18km/h | 20780m | -21.7m/s | -52.3°C | 3.7% | 51.4hPa | 2.6V | 08:25:00 | 02:08:34 | 00:00:00 | |
| DF8AY | 2026-09-01 05:40:14 | 52.69461 | 8.35058 | 70° | 18km/h | 20802m | -21.9m/s | -52.3°C | 0.5% | 51.2hPa | 2.7V | 08:25:13 | 02:08:33 | 00:00:00 | |
| BUE01 | 2026-09-01 05:40:14 | 52.69460 | 8.35051 | 74° | 16km/h | 20824m | -22.2m/s | -52.3°C | 1.0% | 51.1hPa | 2.7V | 00:00:00 | 00:00:00 | 00:00:00 | |
| DD8BA-10 | 2026-09-01 05:40:13 | 52.69460 | 8.35051 | 75° | 15km/h | 20824m | -22.2m/s | -52.2°C | 3.6% | 51.0hPa | 2.7V | 00:00:00 | 00:00:00 | 00:00:00 | |
| DO2SHX-10 | 2026-09-01 05:40:12 | 52.69459 | 8.35043 | 74° | 16km/h | 20846m | -21.9m/s | -52.2°C | 3.6% | 50.8hPa | 2.7V | 00:00:00 | 02:08:31 | 00:00:00 | |
| DL1NUX | 2026-09-01 05:40:11 | 52.69453 | 8.35008 | 77° | 15km/h | 20980m | -22.4m/s | -52.5°C | 3.8% | 49.8hPa | 2.7V | 08:25:09 | 02:08:25 | 00:00:00 | |
| DB0DAN | 2026-09-01 05:40:10 | 52.69457 | 8.35031 | 76° | 15km/h | 20891m | -22.4m/s | -52.2°C | 1% | 50.55hPa | 2.6V | 00:00:00 | 00:00:00 | 00:00:00 | |
| DL1XH-west | 2026-09-01 05:40:10 | 52.69457 | 8.35031 | 76° | 16km/h | 20891m | -22.4m/s | -52.2°C | 0.4% | 50.5hPa | 2.6V | 08:25:13 | 02:08:29 | 00:00:00 | |
| DO2JMG | 2026-09-01 05:40:09 | 52.69456 | 8.35025 | 75° | 15km/h | 20913m | -22.5m/s | -52.3°C | 0.4% | 50.4hPa | 2.6V | 08:25:13 | 02:08:28 | 00:00:00 | |
| HSKMA3-T | 2026-09-01 05:40:07 | 52.69454 | 8.35014 | 75° | 13km/h | 20958m | -22.2m/s | -52.5°C | 0.5% | 50hPa | 2.7V | 08:25:13 | 02:08:26 | 00:00:00 | |
| BIOWL1-15 | 2026-09-01 05:40:07 | 52.69452 | 8.35002 | 77° | 15km/h | 21003m | -22.8m/s | -52.4°C | 0.5% | 49.6hPa | 2.6V | 08:25:13 | 02:08:24 | 00:00:00 | |
| DF8AY | 2026-09-01 05:40:05 | 52.69452 | 8.34996 | 82° | 16km/h | 21025m | -22.5m/s | -52.4°C | 0.5% | 49.5hPa | 2.6V | 08:25:13 | 02:08:23 | 00:00:00 | |
| AA1-15 | 2026-09-01 05:40:03 | 52.69451 | 8.34989 | 82° | 18km/h | 21048m | -22.3m/s | -52.3°C | 0.6% | 49.3hPa | 2.6V | 08:25:13 | 02:08:22 | 00:00:00 | |
| DD8BA-10 | 2026-09-01 05:40:03 | 52.69451 | 8.34988 | 83° | 20km/h | 21048m | -22.3m/s | -52.3°C | 3.8% | 49.2hPa | 2.7V | 00:00:00 | 00:00:00 | 00:00:00 | |
| DO2SHX-10 | 2026-09-01 05:40:02 | 52.69450 | 8.34980 | 84° | 22km/h | 21071m | -22.0m/s | -52.2°C | 3.7% | 49.1hPa | 2.7V | 00:00:00 | 02:08:21 | 00:00:00 | |
| DL1NUX | 2026-09-01 05:40:01 | 52.69447 | 8.34926 | 82° | 20km/h | 21206m | -22.9m/s | -52.5°C | 3.8% | 48.1hPa | 2.7V | 08:30:00 | 02:08:15 | 00:00:00 | |
| DJ8HS-15 | 2026-09-01 05:40:01 | 52.69450 | 8.34972 | 84° | 15km/h | 21093m | -22.4m/s | -52.2°C | 3.7% | 48.9hPa | 2.7V | 08:25:00 | 02:08:20 | 00:00:00 | |
| DL1XH1-15 | 2026-09-01 05:40:00 | 52.69446 | 8.34918 | 80° | 18km/h | 21228m | -22.9m/s | -52.6°C | 3.8% | 47.9hPa | 2.7V | 08:25:20 | 02:08:14 | 00:00:00 | |
| DL1XH-west | 2026-09-01 05:40:00 | 52.69449 | 8.34963 | 84° | 22km/h | 21115m | -22.6m/s | -52.3°C | 0.5% | 48.8hPa | 2.7V | 08:26:04 | 02:08:19 | 00:00:00 | |
| DO2JMG | 2026-09-01 05:39:58 | 52.69448 | 8.34944 | 85° | 24km/h | 21160m | -22.7m/s | -52.3°C | 0.5% | 48.5hPa | 2.6V | 08:26:04 | 02:08:17 | 00:00:00 | |
| BIOWL1-15 | 2026-09-01 05:39:57 | 52.69446 | 8.34918 | 80° | 18km/h | 21228m | -22.9m/s | -52.6°C | 0.6% | 47.9hPa | 2.7V | 08:26:04 | 02:08:14 | 00:00:00 | |
| HSKMA3-T | 2026-09-01 05:39:57 | 52.69447 | 8.34935 | 83° | 22km/h | 21183m | -22.4m/s | -52.4°C | 0.5% | 48.3hPa | 2.6V | 08:26:04 | 02:08:16 | 00:00:00 | |
| DF8AY | 2026-09-01 05:39:53 | 52.69445 | 8.34904 | 80° | 16km/h | 21274m | -23.1m/s | -52.5°C | 0.5% | 47.6hPa | 2.6V | 08:26:04 | 02:08:12 | 00:00:00 | |
| AA1-15 | 2026-09-01 05:39:52 | 52.69444 | 8.34897 | 79° | 15km/h | 21297m | -23.1m/s | -52.3°C | 0.5% | 47.4hPa | 2.6V | 08:26:04 | 02:08:11 | 00:00:00 | |
| DL3AQ-11 | 2026-09-01 05:39:51 | 52.69443 | 8.34887 | 80° | 11km/h | 21344m | -23.2m/s | -52.2°C | 1.0% | 47.0hPa | 2.6V | 00:00:00 | 00:00:00 | 00:00:00 | |
| DM0DOS-11 | 2026-09-01 05:39:50 | 52.69444 | 8.34874 | 146° | 4km/h | 21460m | -23.4m/s | -51.8°C | 3.6% | 46.2hPa | 2.6V | 08:25:30 | 02:08:04 | 00:00:00 | |
| DL1XH-west | 2026-09-01 05:39:49 | 52.69442 | 8.34883 | 82° | 9km/h | 21367m | -23.1m/s | -52°C | 0.4% | 46.9hPa | 2.7V | 08:26:04 | 02:08:08 | 00:00:00 | |
| DO2JMG | 2026-09-01 05:39:47 | 52.69443 | 8.34877 | 104° | 5km/h | 21413m | -23.3m/s | -51.9°C | 0.4% | 46.5hPa | 2.6V | 08:26:04 | 02:08:06 | 00:00:00 | |
| HSKMA3-T | 2026-09-01 05:39:46 | 52.69443 | 8.34875 | 124° | 4km/h | 21437m | -23.4m/s | -51.9°C | 0.4% | 46.4hPa | 2.6V | 08:26:04 | 02:08:05 | 00:00:00 | |
| BIOWL1-15 | 2026-09-01 05:39:45 | 52.69444 | 8.34874 | 147° | 4km/h | 21460m | -23.4m/s | -51.8°C | 0.4% | 46.2hPa | 2.6V | 08:26:04 | 02:08:04 | 00:00:00 | |
| DF8AY | 2026-09-01 05:39:43 | 52.69445 | 8.34873 | 183° | 4km/h | 21507m | -23.5m/s | -51.4°C | 0.3% | 45.9hPa | 2.7V | 08:26:04 | 02:08:02 | 00:00:00 | |
| AA1-15 | 2026-09-01 05:39:41 | 52.69447 | 8.34873 | 154° | 4km/h | 21555m | -24.1m/s | -51.6°C | 0.4% | 45.6hPa | 2.6V | 08:26:04 | 02:08:00 | 00:00:00 | |
| DJ8HS-15 | 2026-09-01 05:39:41 | 52.69447 | 8.34873 | 154° | 15km/h | 21555m | -24.1m/s | -51.6°C | 3.5% | 45.5hPa | 2.7V | 00:00:00 | 02:08:00 | 00:00:00 | |
| DM0DOS-11 | 2026-09-01 05:39:40 | 52.69450 | 8.34867 | 344° | 4km/h | 21698m | -23.7m/s | -52.1°C | 3.7% | 44.5hPa | 2.7V | 08:25:40 | 02:07:54 | 00:00:00 | |
| DL1XH-west | 2026-09-01 05:39:38 | 52.69450 | 8.34869 | 132° | 5km/h | 21626m | -23.8m/s | -51.9°C | 0.4% | 45.1hPa | 2.6V | 08:26:04 | 02:07:57 | 00:00:00 | |
| DO2JMG | 2026-09-01 05:39:37 | 52.69450 | 8.34868 | 137° | 4km/h | 21650m | -24.2m/s | -52°C | 0.5% | 44.9hPa | 2.6V | 08:26:04 | 02:07:56 | 00:00:00 | |
| BIOWL1-15 | 2026-09-01 05:39:36 | 52.69449 | 8.34867 | 345° | 5km/h | 21722m | -23.6m/s | -52.1°C | 0.5% | 44.4hPa | 2.6V | 08:26:04 | 02:07:53 | 00:00:00 | |
| HSKMA3-T | 2026-09-01 05:39:35 | 52.69451 | 8.34867 | 345° | 4km/h | 21698m | -23.7m/s | -52.1°C | 0.5% | 44.5hPa | 2.7V | 08:26:04 | 02:07:54 | 00:00:00 | |
| DO2SHX-10 | 2026-09-01 05:39:35 | 52.69451 | 8.34867 | 345° | 5km/h | 21699m | -23.7m/s | -52.1°C | 3.7% | 44.5hPa | 2.7V | 00:00:00 | 02:07:54 | 00:00:00 | |
| DL1XH-15 | 2026-09-01 05:39:34 | 52.69433 | 8.34881 | 334° | 22km/h | 21842m | -24m/s | -52°C | 3.6% | 43.6hPa | 2.6V | 08:25:46 | 02:07:48 | 00:00:00 | |
| DF8AY | 2026-09-01 05:39:33 | 52.69448 | 8.34868 | 335° | 9km/h | 21746m | -23.9m/s | -52.1°C | 0.5% | 44.2hPa | 2.6V | 08:26:04 | 02:07:52 | 00:00:00 | |
| AA1-15 | 2026-09-01 05:39:30 | 52.69438 | 8.34877 | 333° | 20km/h | 21818m | -23.8m/s | -51.9°C | 0.4% | 43.7hPa | 2.6V | 08:26:04 | 02:07:49 | 00:00:00 | |
| DO2SHX-10 | 2026-09-01 05:39:29 | 52.69433 | 8.34881 | 335° | 22km/h | 21842m | -23.9m/s | -52.0°C | 3.6% | 43.5hPa | 2.6V | 00:00:00 | 02:07:48 | 00:00:00 | |
| DM0DOS-11 | 2026-09-01 05:39:28 | 52.69410 | 8.34890 | 0° | 22km/h | 21940m | -24.4m/s | -52.2°C | 3.6% | 42.9hPa | 2.6V | 08:25:50 | 02:07:44 | 00:00:00 | |
| DL1XH-west | 2026-09-01 05:39:28 | 52.69428 | 8.34885 | 339° | 22km/h | 21866m | -24.2m/s | -52°C | 0.4% | 43.4hPa | 2.7V | 08:26:04 | 02:07:47 | 00:00:00 | |
| DO2JMG | 2026-09-01 05:39:26 | 52.69416 | 8.34890 | 352° | 24km/h | 21915m | -24.5m/s | -52.1°C | 0.4% | 43.1hPa | 2.6V | 08:26:04 | 02:07:45 | 00:00:00 | |
| HSKMA3-T | 2026-09-01 05:39:25 | 52.69411 | 8.34890 | 1° | 22km/h | 21940m | -24.4m/s | -52.2°C | 0.4% | 42.9hPa | 2.6V | 08:26:04 | 02:07:44 | 00:00:00 | |
| BIOWL1-15 | 2026-09-01 05:39:23 | 52.69398 | 8.34888 | 14° | 24km/h | 21988m | -24.2m/s | -52.4°C | 0.5% | 42.6hPa | 2.7V | 08:26:04 | 02:07:42 | 00:00:00 | |
| DF8AY | 2026-09-01 05:39:22 | 52.69392 | 8.34884 | 23° | 26km/h | 22012m | -24.1m/s | -52.3°C | 0.5% | 42.5hPa | 2.6V | 08:26:04 | 02:07:41 | 00:00:00 | |
| DL1NUX | 2026-09-01 05:39:21 | 52.69360 | 8.34848 | 44° | 24km/h | 22158m | -24.8m/s | -52°C | 3.6% | 41.5hPa | 2.7V | 08:30:00 | 02:07:35 | 00:00:00 | |
| AA1-15 | 2026-09-01 05:39:20 | 52.69381 | 8.34875 | 32° | 27km/h | 22061m | -24.4m/s | -52.3°C | 0.5% | 42.1hPa | 2.7V | 08:26:04 | 02:07:39 | 00:00:00 | |
| DL1XH-west | 2026-09-01 05:39:18 | 52.69370 | 8.34862 | 36° | 26km/h | 22109m | -24.3m/s | -52.1°C | 0.4% | 41.8hPa | 2.6V | 08:26:04 | 02:07:37 | 00:00:00 | |
| DO2JMG | 2026-09-01 05:39:15 | 52.69356 | 8.34840 | 46° | 26km/h | 22183m | -24.8m/s | -52°C | 0.4% | 41.3hPa | 2.7V | 08:26:04 | 02:07:34 | 00:00:00 | |
| HSKMA3-T | 2026-09-01 05:39:14 | 52.69351 | 8.34832 | 53° | 27km/h | 22208m | -24.9m/s | -52°C | 0.4% | 41.1hPa | 2.6V | 08:26:04 | 02:07:33 | 00:00:00 | |
| BIOWL1-15 | 2026-09-01 05:39:14 | 52.69344 | 8.34813 | 61° | 29km/h | 22257m | -24.6m/s | -51.9°C | 0.4% | 40.8hPa | 2.7V | 08:26:04 | 02:07:31 | 00:00:00 | |
| DF8AY | 2026-09-01 05:39:11 | 52.69341 | 8.34802 | 71° | 27km/h | 22282m | -24.9m/s | -51.9°C | 0.4% | 40.7hPa | 2.7V | 08:26:04 | 02:07:30 | 00:00:00 | |
| DB0DAN | 2026-09-01 05:39:10 | 52.69338 | 8.34791 | 76° | 26km/h | 22307m | -24.9m/s | -51.9°C | 1% | 40.51hPa | 2.6V | 00:00:00 | 00:00:00 | 00:00:00 | |
| DM0DOS-11 | 2026-09-01 05:39:10 | 52.69339 | 8.34744 | 116° | 16km/h | 22433m | -25.2m/s | -51.8°C | 3.6% | 39.8hPa | 2.6V | 08:26:10 | 02:07:24 | 00:00:00 | |
| AA1-15 | 2026-09-01 05:39:10 | 52.69338 | 8.34791 | 76° | 27km/h | 22307m | -24.9m/s | -51.9°C | 0.4% | 40.5hPa | 2.6V | 08:26:55 | 02:07:29 | 00:00:00 | |
| DL1XH-west | 2026-09-01 05:39:08 | 52.69336 | 8.34769 | 89° | 24km/h | 22357m | -24.9m/s | -51.9°C | 0.4% | 40.2hPa | 2.7V | 08:26:55 | 02:07:27 | 00:00:00 | |
| BIOWL1-15 | 2026-09-01 05:39:05 | 52.69344 | 8.34733 | 165° | 5km/h | 22509m | -25.8m/s | -51.6°C | 0.4% | 39.3hPa | 2.6V | 08:26:55 | 02:07:21 | 00:00:00 | |
| DO2JMG | 2026-09-01 05:39:04 | 52.69340 | 8.34738 | 132° | 15km/h | 22458m | -25.2m/s | -51.8°C | 0.4% | 39.6hPa | 2.7V | 08:26:55 | 02:07:23 | 00:00:00 | |
| HSKMA3-T | 2026-09-01 05:39:03 | 52.69343 | 8.34735 | 147° | 9km/h | 22484m | -25.7m/s | -51.7°C | 0.4% | 39.5hPa | 2.7V | 08:26:55 | 02:07:22 | 00:00:00 | |
| DF8AY | 2026-09-01 05:39:01 | 52.69345 | 8.34733 | 210° | 4km/h | 22535m | -25.5m/s | -51.6°C | 0.4% | 39.2hPa | 2.6V | 08:27:46 | 02:07:20 | 00:00:00 | |
| AA1-15 | 2026-09-01 05:38:59 | 52.69345 | 8.34735 | 329° | 7km/h | 22585m | -25.5m/s | -51.7°C | 0.4% | 38.8hPa | 2.7V | 08:26:55 | 02:07:18 | 00:00:00 | |
| DO2SHX-10 | 2026-09-01 05:38:59 | 52.69345 | 8.34735 | 330° | 9km/h | 22586m | -25.4m/s | -51.7°C | 3.6% | 38.8hPa | 2.7V | 08:26:00 | 02:07:18 | 00:00:00 | |
| DM0DOS-11 | 2026-09-01 05:38:58 | 52.69332 | 8.34733 | 15° | 18km/h | 22687m | -25.9m/s | -52.2°C | 3.7% | 38.2hPa | 2.7V | 08:26:20 | 02:07:14 | 00:00:00 | |
| DL1XH-west | 2026-09-01 05:38:57 | 52.69340 | 8.34736 | 6° | 15km/h | 22636m | -25.8m/s | -51.9°C | 0.5% | 38.5hPa | 2.6V | 08:26:55 | 02:07:16 | 00:00:00 | |
| DO2JMG | 2026-09-01 05:38:53 | 52.69323 | 8.34728 | 27° | 18km/h | 22739m | -25.6m/s | -52.2°C | 0.5% | 37.9hPa | 2.6V | 08:26:55 | 02:07:12 | 00:00:00 | |
| DF8AY | 2026-09-01 05:38:51 | 52.69316 | 8.34715 | 67° | 13km/h | 22815m | -25.9m/s | -52°C | 0.5% | 37.5hPa | 2.6V | 08:27:46 | 02:07:09 | 00:00:00 | |
| BIOWL1-15 | 2026-09-01 05:38:51 | 52.69317 | 8.34719 | 53° | 15km/h | 22790m | -25.6m/s | -52.1°C | 0.5% | 37.6hPa | 2.7V | 08:26:55 | 02:07:10 | 00:00:00 | |
| AA1-15 | 2026-09-01 05:38:49 | 52.69315 | 8.34705 | 97° | 11km/h | 22867m | -26.4m/s | -51.9°C | 0.4% | 37.2hPa | 2.7V | 08:26:55 | 02:07:07 | 00:00:00 | |
| DM0DOS-11 | 2026-09-01 05:38:48 | 52.69318 | 8.34693 | 117° | 9km/h | 22947m | -26.1m/s | -51.7°C | 3.6% | 36.7hPa | 2.6V | 08:26:30 | 02:07:04 | 00:00:00 | |
| DL1XH-west | 2026-09-01 05:38:46 | 52.69317 | 8.34697 | 115° | 11km/h | 22921m | -26.3m/s | -51.8°C | 0.4% | 36.8hPa | 2.6V | 08:26:55 | 02:07:05 | 00:00:00 | |
| SONCRA | 2026-09-01 05:38:45 | 52.69318 | 8.34693 | 117° | 9km/h | 22947m | -26.1m/s | -51.7°C | 1.0% | 36.7hPa | 2.7V | 00:00:00 | 00:00:00 | 00:00:00 | |
| DL1ZP-14 | 2026-09-01 05:38:44 | 52.69319 | 8.34689 | 112° | 5km/h | 22973m | -25.8m/s | -51.6°C | 0.9% | 36.5hPa | 2.7V | 00:00:00 | 00:00:00 | 00:00:00 | |
| DL1XH-15 | 2026-09-01 05:38:44 | 52.69317 | 8.34686 | 332° | 7km/h | 23104m | -26.6m/s | -51.5°C | 3.6% | 35.8hPa | 2.7V | 08:26:36 | 02:06:58 | 00:00:00 | |
| DO2JMG | 2026-09-01 05:38:43 | 52.69319 | 8.34687 | 97° | 2km/h | 22999m | -26m/s | -51.6°C | 0.4% | 36.4hPa | 2.7V | 08:26:55 | 02:07:02 | 00:00:00 | |
| BIOWL1-15 | 2026-09-01 05:38:41 | 52.69320 | 8.34686 | 32° | 4km/h | 23051m | -26.9m/s | -51.6°C | 0.4% | 36.1hPa | 2.6V | 08:26:55 | 02:07:00 | 00:00:00 | |
| DJ8HS-15 | 2026-09-01 05:38:41 | 52.69319 | 8.34686 | 32° | 11km/h | 23051m | -26.9m/s | -51.5°C | 3.5% | 36.1hPa | 2.7V | 00:00:00 | 02:07:00 | 00:00:00 | |
| BUE01 | 2026-09-01 05:38:40 | 52.69319 | 8.34685 | 13° | 4km/h | 23078m | -26.4m/s | -51.5°C | 0.9% | 35.9hPa | 2.7V | 00:00:00 | 00:00:00 | 00:00:00 | |
| DB0DAN | 2026-09-01 05:38:40 | 52.69319 | 8.34685 | 14° | 4km/h | 23078m | -26.4m/s | -51.5°C | 0.9% | 35.91hPa | 2.7V | 00:00:00 | 00:00:00 | 00:00:00 | |
| DF8AY | 2026-09-01 05:38:40 | 52.69319 | 8.34685 | 14° | 5km/h | 23078m | -26.4m/s | -51.5°C | 0.4% | 35.9hPa | 2.7V | 08:27:46 | 02:06:59 | 00:00:00 | |
| EDDB2-12 | 2026-09-01 05:38:39 | 52.69317 | 8.34686 | 332° | 7km/h | 23104m | -26.6m/s | -51.5°C | 1.0% | 35.8hPa | 2.7V | 00:00:00 | 00:00:00 | 00:00:00 | |
| DM0DOS-11 | 2026-09-01 05:38:38 | 52.69312 | 8.34694 | 291° | 7km/h | 23211m | -27.3m/s | -51.6°C | 3.6% | 35.2hPa | 2.7V | 08:26:40 | 02:06:54 | 00:00:00 | |
| AA1-15 | 2026-09-01 05:38:38 | 52.69316 | 8.34687 | 316° | 7km/h | 23130m | -27.3m/s | -51.5°C | 0.4% | 35.7hPa | 2.6V | 08:26:55 | 02:06:57 | 00:00:00 | |
| DL1XH-west | 2026-09-01 05:38:35 | 52.69312 | 8.34694 | 292° | 7km/h | 23211m | -27.3m/s | -51.7°C | 0.4% | 35.2hPa | 2.7V | 08:26:55 | 02:06:54 | 00:00:00 | |
| DO2JMG | 2026-09-01 05:38:33 | 52.69312 | 8.34696 | 212° | 0km/h | 23265m | -27m/s | -51.6°C | 0.5% | 34.9hPa | 2.6V | 08:26:55 | 02:06:52 | 00:00:00 | |
| HSKMA3-T | 2026-09-01 05:38:32 | 52.69313 | 8.34696 | 152° | 4km/h | 23292m | -27.1m/s | -51.7°C | 0.4% | 34.8hPa | 2.7V | 08:26:55 | 02:06:51 | 00:00:00 | |
| BIOWL1-15 | 2026-09-01 05:38:30 | 52.69315 | 8.34689 | 116° | 15km/h | 23346m | -27m/s | -51.9°C | 0.5% | 34.5hPa | 2.6V | 08:26:55 | 02:06:49 | 00:00:00 | |
| AA1-15 | 2026-09-01 05:38:27 | 52.69319 | 8.34670 | 92° | 20km/h | 23427m | -27.2m/s | -51.8°C | 0.4% | 34hPa | 2.7V | 08:26:55 | 02:06:46 | 00:00:00 | |
| DB0DAN | 2026-09-01 05:38:25 | 52.69318 | 8.34654 | 87° | 16km/h | 23482m | -27.6m/s | -51.5°C | 0.9% | 33.73hPa | 2.6V | 00:00:00 | 00:00:00 | 00:00:00 | |
| DO2SHX-10 | 2026-09-01 05:38:25 | 52.69318 | 8.34654 | 88° | 16km/h | 23482m | -27.6m/s | -51.5°C | 3.5% | 33.7hPa | 2.7V | 00:00:00 | 02:06:44 | 00:00:00 | |
| DL1XH-15 | 2026-09-01 05:38:24 | 52.69311 | 8.34634 | 140° | 5km/h | 23646m | -27.8m/s | -51.2°C | 3.4% | 32.9hPa | 2.7V | 08:26:56 | 02:06:38 | 00:00:00 | |
| BIOWL1-15 | 2026-09-01 05:38:24 | 52.69310 | 8.34635 | 45° | 2km/h | 23619m | -27.7m/s | -51.2°C | 0.3% | 33.1hPa | 2.7V | 08:26:55 | 02:06:39 | 00:00:00 | |
| DL1XH-west | 2026-09-01 05:38:24 | 52.69317 | 8.34647 | 67° | 18km/h | 23509m | -27.3m/s | -51.4°C | 0.4% | 33.6hPa | 2.7V | 08:26:55 | 02:06:43 | 00:00:00 | |
| HSKMA3-T | 2026-09-01 05:38:22 | 52.69313 | 8.34638 | 45° | 9km/h | 23564m | -27.8m/s | -51.3°C | 0.3% | 33.3hPa | 2.6V | 08:26:55 | 02:06:41 | 00:00:00 | |
| DF8AY | 2026-09-01 05:38:18 | 52.69312 | 8.34633 | 158° | 7km/h | 23674m | -27.5m/s | -51.2°C | 0.3% | 32.7hPa | 2.7V | 08:27:46 | 02:06:37 | 00:00:00 | |
| AA1-15 | 2026-09-01 05:38:17 | 52.69315 | 8.34631 | 161° | 15km/h | 23702m | -27.5m/s | -51.2°C | 0.3% | 32.6hPa | 2.6V | 08:27:46 | 02:06:36 | 00:00:00 | |
| DL1XH-west | 2026-09-01 05:38:13 | 52.69328 | 8.34609 | 108° | 22km/h | 23812m | -28.1m/s | -51.3°C | 0.3% | 32hPa | 2.7V | 08:27:46 | 02:06:32 | 00:00:00 | |
| DO2JMG | 2026-09-01 05:38:12 | 52.69329 | 8.34601 | 99° | 15km/h | 23840m | -28.3m/s | -51.4°C | 0.4% | 31.9hPa | 2.7V | 08:27:46 | 02:06:31 | 00:00:00 | |
| DB0DAN | 2026-09-01 05:38:10 | 52.69328 | 8.34590 | 49° | 11km/h | 23896m | -27.6m/s | -51.6°C | 0.9% | 31.63hPa | 2.6V | 00:00:00 | 00:00:00 | 00:00:00 | |
| BIOWL1-15 | 2026-09-01 05:38:09 | 52.69326 | 8.34588 | 17° | 9km/h | 23924m | -28.2m/s | -51.7°C | 0.3% | 31.5hPa | 2.6V | 08:27:46 | 02:06:28 | 00:00:00 | |
| DM0DOS-11 | 2026-09-01 05:38:08 | 52.69318 | 8.34595 | 299° | 9km/h | 24035m | -28.3m/s | -51.6°C | 3.6% | 30.9hPa | 2.6V | 08:27:10 | 02:06:24 | 00:00:00 | |
| AA1-15 | 2026-09-01 05:38:06 | 52.69319 | 8.34592 | 304° | 11km/h | 24007m | -28.5m/s | -51.7°C | 0.4% | 31.1hPa | 2.7V | 08:27:46 | 02:06:25 | 00:00:00 | |
| DJ2DS-15 | 2026-09-01 05:38:06 | 52.69319 | 8.34592 | 304° | 11km/h | 24008m | -28.4m/s | -51.6°C | 3.6% | 31.0hPa | 2.6V | 00:00:00 | 02:06:25 | 00:00:00 | |
| EDDB2-11 | 2026-09-01 05:38:05 | 52.69318 | 8.34595 | 299° | 7km/h | 24036m | -28.3m/s | -51.6°C | 1.0% | 30.9hPa | 2.6V | 00:00:00 | 00:00:00 | 00:00:00 | |
| DL1XH-15 | 2026-09-01 05:38:04 | 52.69313 | 8.34586 | 57° | 18km/h | 24205m | -28.9m/s | -51.4°C | 3.6% | 30.1hPa | 2.6V | 08:27:16 | 02:06:18 | 00:00:00 | |
| DO2JMG | 2026-09-01 05:38:02 | 52.69317 | 8.34599 | 82° | 4km/h | 24121m | -28.8m/s | -51.4°C | 0.3% | 30.5hPa | 2.7V | 08:27:46 | 02:06:21 | 00:00:00 | |
| BIOWL1-15 | 2026-09-01 05:38:01 | 52.69313 | 8.34586 | 57° | 18km/h | 24205m | -28.9m/s | -51.4°C | 0.4% | 30.1hPa | 2.6V | 08:27:46 | 02:06:18 | 00:00:00 | |
| HSKMA3-T | 2026-09-01 05:38:01 | 52.69317 | 8.34596 | 71° | 11km/h | 24149m | -28.3m/s | -51.4°C | 0.4% | 30.4hPa | 2.7V | 08:27:46 | 02:06:20 | 00:00:00 | |
| DD1CC8 | 2026-09-01 05:38:00 | 52.69316 | 8.34591 | 57° | 13km/h | 24177m | -28.5m/s | -51.4°C | 0.9% | 30.2hPa | 2.7V | 00:00:00 | 00:00:00 | 00:00:00 | |
| DO1YAY-16 | 2026-09-01 05:37:59 | 52.69310 | 8.34580 | 42° | 18km/h | 24234m | -28.5m/s | -51.4°C | 0.9% | 30.0hPa | 2.7V | 00:00:00 | 00:00:00 | 00:00:00 | |
| DM0DOS-11 | 2026-09-01 05:37:58 | 52.69302 | 8.34568 | 25° | 7km/h | 24321m | -28.9m/s | -51.3°C | 3.5% | 29.6hPa | 2.7V | 08:27:20 | 02:06:14 | 00:00:00 | |
| DO2SHX-10 | 2026-09-01 05:37:58 | 52.69310 | 8.34580 | 43° | 16km/h | 24235m | -28.5m/s | -51.3°C | 3.5% | 29.9hPa | 2.7V | 00:00:00 | 02:06:17 | 00:00:00 | |
| DB0DAN | 2026-09-01 05:37:55 | 52.69302 | 8.34568 | 26° | 7km/h | 24321m | -28.9m/s | -51.3°C | 0.9% | 29.58hPa | 2.7V | 00:00:00 | 00:00:00 | 00:00:00 | |
| AA1-15 | 2026-09-01 05:37:55 | 52.69302 | 8.34568 | 26° | 7km/h | 24321m | -28.9m/s | -51.3°C | 0.3% | 29.6hPa | 2.7V | 08:27:46 | 02:06:14 | 00:00:00 | |
| DF8AY | 2026-09-01 05:37:53 | 52.69302 | 8.34566 | 193° | 5km/h | 24379m | -28.7m/s | -51.2°C | 0.4% | 29.3hPa | 2.6V | 08:27:46 | 02:06:12 | 00:00:00 | |
| DL1XH-west | 2026-09-01 05:37:51 | 52.69308 | 8.34566 | 177° | 16km/h | 24437m | -29.3m/s | -51.3°C | 0.4% | 29hPa | 2.6V | 08:27:46 | 02:06:10 | 00:00:00 | |
| BIOWL1-15 | 2026-09-01 05:37:48 | 52.69321 | 8.34557 | 146° | 20km/h | 24525m | -29.9m/s | -51.2°C | 0.4% | 28.6hPa | 2.7V | 08:27:46 | 02:06:07 | 00:00:00 | |
| AA1-15 | 2026-09-01 05:37:44 | 52.69327 | 8.34544 | 49° | 4km/h | 24645m | -30m/s | -51.1°C | 0.3% | 28.2hPa | 2.7V | 08:27:46 | 02:06:03 | 00:00:00 | |
| DO2JMG | 2026-09-01 05:37:41 | 52.69326 | 8.34549 | 261° | 9km/h | 24734m | -29.8m/s | -51.2°C | 0.4% | 27.7hPa | 2.6V | 08:27:46 | 02:06:00 | 00:00:00 | |
| DB0DAN | 2026-09-01 05:37:40 | 52.69327 | 8.34554 | 242° | 13km/h | 24763m | -30.3m/s | -51.2°C | 0.9% | 27.61hPa | 2.6V | 00:00:00 | 00:00:00 | 00:00:00 | |
| HSKMA3-T | 2026-09-01 05:37:40 | 52.69327 | 8.34554 | 242° | 13km/h | 24763m | -30.3m/s | -51.2°C | 0.3% | 27.6hPa | 2.6V | 08:27:46 | 02:05:59 | 00:00:00 | |
| BIOWL1-15 | 2026-09-01 05:37:38 | 52.69332 | 8.34565 | 230° | 16km/h | 24824m | -30.3m/s | -51.4°C | 0.4% | 27.3hPa | 2.7V | 08:27:46 | 02:05:57 | 00:00:00 | |
| DL4XJ-10 | 2026-09-01 05:37:38 | 52.69332 | 8.34565 | 231° | 15km/h | 24824m | -30.3m/s | -53.9°C | 0% | 0hPa | 2.7V | 00:00:00 | 00:00:00 | 00:00:00 | |
| EDDB2-12 | 2026-09-01 05:37:37 | 52.69335 | 8.34569 | 211° | 13km/h | 24854m | -30.1m/s | -51.5°C | 1.0% | 27.2hPa | 2.7V | 00:00:00 | 00:00:00 | 00:00:00 | |
| DL1XH-15 | 2026-09-01 05:37:34 | 52.69330 | 8.34560 | 2° | 20km/h | 25098m | -31m/s | -51.4°C | 3.7% | 26.2hPa | 2.7V | 08:27:46 | 02:05:48 | 00:00:00 | |
| AA1-15 | 2026-09-01 05:37:33 | 52.69344 | 8.34571 | 57° | 5km/h | 24977m | -30.3m/s | -51.5°C | 0.5% | 26.7hPa | 2.7V | 08:27:46 | 02:05:52 | 00:00:00 | |
| BIOWL1-15 | 2026-09-01 05:37:30 | 52.69325 | 8.34559 | 359° | 20km/h | 25129m | -30.7m/s | -51.4°C | 0.5% | 26.1hPa | 2.7V | 08:28:37 | 02:05:47 | 00:00:00 | |
| DL1XH-west | 2026-09-01 05:37:30 | 52.69335 | 8.34562 | 17° | 20km/h | 25067m | -30.9m/s | -51.5°C | 0.5% | 26.3hPa | 2.6V | 08:27:46 | 02:05:49 | 00:00:00 | |
| HSKMA3-T | 2026-09-01 05:37:29 | 52.69330 | 8.34560 | 3° | 20km/h | 25098m | -31m/s | -51.4°C | 0.5% | 26.2hPa | 2.7V | 08:27:46 | 02:05:48 | 00:00:00 | |
| DM0DOS-11 | 2026-09-01 05:37:28 | 52.69313 | 8.34561 | 352° | 9km/h | 25222m | -31.6m/s | -51°C | 3.7% | 25.7hPa | 2.7V | 08:27:50 | 02:05:44 | 00:00:00 | |
| DO1YAY-16 | 2026-09-01 05:37:28 | 52.69320 | 8.34559 | 354° | 18km/h | 25160m | -30.8m/s | -51.3°C | 1.0% | 26.0hPa | 2.7V | 00:00:00 | 00:00:00 | 00:00:00 | |
| DO2SHX-10 | 2026-09-01 05:37:27 | 52.69320 | 8.34559 | 355° | 15km/h | 25160m | -30.7m/s | -51.3°C | 3.8% | 25.9hPa | 2.7V | 00:00:00 | 02:05:46 | 00:00:00 | |
| DO2KSM | 2026-09-01 05:37:26 | 52.69320 | 8.34559 | 355° | 20km/h | 25160m | -30.8m/s | -51.3°C | 1.0% | 26.0hPa | 2.7V | 08:28:00 | 00:00:00 | 00:00:00 | |
| DB0DAN | 2026-09-01 05:37:25 | 52.69313 | 8.34561 | 352° | 9km/h | 25222m | -31.6m/s | -51°C | 1% | 25.72hPa | 2.7V | 00:00:00 | 00:00:00 | 00:00:00 | |
| AM1SDL-15 | 2026-09-01 05:37:25 | 52.69313 | 8.34560 | 353° | 13km/h | 25222m | -31.5m/s | -51.0°C | 3.7% | 25.7hPa | 2.7V | 00:00:00 | 02:05:44 | 00:00:00 | |
| DL1XH-15 | 2026-09-01 05:37:24 | 52.69318 | 8.34538 | 129° | 18km/h | 25415m | -35.5m/s | -50.5°C | 3.5% | 25hPa | 2.7V | 08:27:56 | 02:05:38 | 00:00:00 | |
| DF8AY | 2026-09-01 05:37:23 | 52.69311 | 8.34558 | 92° | 5km/h | 25285m | -31.9m/s | -50.7°C | 0.5% | 25.4hPa | 2.7V | 08:29:28 | 02:05:42 | 00:00:00 | |
| AA1-15 | 2026-09-01 05:37:22 | 52.69312 | 8.34554 | 110° | 11km/h | 25316m | -31.7m/s | -50.5°C | 0.4% | 25.4hPa | 2.6V | 08:28:37 | 02:05:41 | 00:00:00 | |
| DL1XH-west | 2026-09-01 05:37:19 | 52.69318 | 8.34538 | 130° | 18km/h | 25415m | -35.5m/s | -50.5°C | 0.3% | 25hPa | 2.7V | 08:28:37 | 02:05:38 | 00:00:00 | |
| DM0DOS-11 | 2026-09-01 05:37:18 | 52.69331 | 8.34525 | 187° | 9km/h | 25570m | -43.2m/s | -50.2°C | 3.5% | 24.4hPa | 2.6V | 08:28:00 | 02:05:34 | 00:00:00 | |
| BIOWL1-15 | 2026-09-01 05:37:17 | 52.69326 | 8.34529 | 148° | 16km/h | 25490m | -39.9m/s | -50.5°C | 0.4% | 24.7hPa | 2.7V | 08:28:37 | 02:05:36 | 00:00:00 | |
| DB0NH | 2026-09-01 05:37:17 | 52.69325 | 8.34529 | 149° | 11km/h | 25491m | -39.9m/s | -50.5°C | 3.6% | 24.7hPa | 2.6V | 00:00:00 | 02:05:36 | 00:00:00 | |
| GOEST3-10 | 2026-09-01 05:37:16 | 52.69329 | 8.34526 | 156° | 11km/h | 25530m | -39.1m/s | -50.4°C | 3.5% | 24.5hPa | 2.6V | 00:00:00 | 02:05:35 | 00:00:00 | |
| DO2SHX-10 | 2026-09-01 05:37:15 | 52.69331 | 8.34525 | 188° | 7km/h | 25571m | -43.2m/s | -50.2°C | 3.5% | 24.4hPa | 2.6V | 00:00:00 | 02:05:34 | 00:00:00 | |
| DL1XH-15 | 2026-09-01 05:37:14 | 52.69340 | 8.34535 | 235° | 7km/h | 25839m | -40.2m/s | -49.6°C | 3.4% | 23.4hPa | 2.6V | 08:28:06 | 02:05:28 | 00:00:00 | |
| DF8AY | 2026-09-01 05:37:13 | 52.69336 | 8.34528 | 213° | 9km/h | 25708m | -47.1m/s | -49.3°C | 0.1% | 24hPa | 2.7V | 08:29:28 | 02:05:31 | 00:00:00 | |
| AA1-15 | 2026-09-01 05:37:11 | 52.69338 | 8.34530 | 237° | 5km/h | 25754m | -45.2m/s | -49.4°C | 0.2% | 23.8hPa | 2.7V | 08:28:37 | 02:05:30 | 00:00:00 | |
| DO2SHX-10 | 2026-09-01 05:37:09 | 52.69340 | 8.34534 | 236° | 7km/h | 25840m | -40.2m/s | -49.6°C | 3.4% | 23.4hPa | 2.7V | 00:00:00 | 02:05:28 | 00:00:00 | |
| DM0DOS-11 | 2026-09-01 05:37:08 | 52.69343 | 8.34546 | 225° | 9km/h | 25989m | -34.4m/s | -50.2°C | 3.7% | 22.8hPa | 2.7V | 08:28:10 | 02:05:24 | 00:00:00 | |
| BIOWL1-15 | 2026-09-01 05:37:08 | 52.69342 | 8.34543 | 234° | 9km/h | 25953m | -37.3m/s | -50°C | 0.4% | 23hPa | 2.7V | 08:28:37 | 02:05:25 | 00:00:00 | |
| DL1XH-west | 2026-09-01 05:37:08 | 52.69340 | 8.34537 | 263° | 7km/h | 25878m | -37.8m/s | -49.8°C | 0.3% | 23.2hPa | 2.6V | 08:28:37 | 02:05:27 | 00:00:00 | |
| DO3MHA-11 | 2026-09-01 05:37:07 | 52.69341 | 8.34540 | 238° | 9km/h | 25916m | -37.9m/s | -49.8°C | 3.5% | 23.0hPa | 2.7V | 00:00:00 | 02:05:26 | 00:00:00 | |
| DO3DL | 2026-09-01 05:37:06 | 52.69342 | 8.34543 | 235° | 9km/h | 25953m | -37.3m/s | -50.0°C | 0.9% | 23.0hPa | 2.7V | 08:28:00 | 00:00:00 | 00:00:00 | |
| DL1CLM-18 | 2026-09-01 05:37:05 | 52.69342 | 8.34543 | 235° | 9km/h | 25953m | -37.3m/s | -50.0°C | 0.9% | 23.0hPa | 2.7V | 00:00:00 | 00:00:00 | 00:00:00 | |
| DL1XH-15 | 2026-09-01 05:37:04 | 52.69347 | 8.34561 | 325° | 5km/h | 26231m | -42.9m/s | -50.2°C | 3.8% | 22.1hPa | 2.7V | 08:28:16 | 02:05:18 | 00:00:00 | |
| DF8AY | 2026-09-01 05:37:02 | 52.69346 | 8.34554 | 248° | 9km/h | 26106m | -41.9m/s | -50.2°C | 0.5% | 22.4hPa | 2.6V | 08:29:28 | 02:05:21 | 00:00:00 | |
| AA1-15 | 2026-09-01 05:37:00 | 52.69347 | 8.34559 | 256° | 5km/h | 26189m | -41.4m/s | -50.4°C | 0.6% | 22.1hPa | 2.7V | 08:28:37 | 02:05:19 | 00:00:00 | |
| BIOWL1-15 | 2026-09-01 05:36:58 | 52.69343 | 8.34563 | 32° | 11km/h | 26361m | -43.9m/s | -49.4°C | 0.4% | 21.6hPa | 2.7V | 08:28:37 | 02:05:15 | 00:00:00 | |
| DL1XH-west | 2026-09-01 05:36:58 | 52.69346 | 8.34563 | 325° | 5km/h | 26274m | -43.6m/s | -49.9°C | 0.6% | 21.9hPa | 2.6V | 08:28:37 | 02:05:17 | 00:00:00 | |
| DO2JMG | 2026-09-01 05:36:57 | 52.69345 | 8.34564 | 351° | 7km/h | 26317m | -43.3m/s | -49.6°C | 0.5% | 21.8hPa | 2.6V | 08:28:37 | 02:05:16 | 00:00:00 | |
| DO1YAY-16 | 2026-09-01 05:36:57 | 52.69343 | 8.34563 | 31° | 11km/h | 26361m | -43.9m/s | -49.4°C | 0.9% | 21.6hPa | 2.7V | 00:00:00 | 00:00:00 | 00:00:00 | |
| DD1CC2-15 | 2026-09-01 05:36:56 | 52.69345 | 8.34564 | 352° | 7km/h | 26318m | -43.3m/s | -49.6°C | 1.0% | 21.7hPa | 2.7V | 08:28:00 | 00:00:00 | 00:00:00 | |
| DB0DAN | 2026-09-01 05:36:55 | 52.69341 | 8.34561 | 40° | 11km/h | 26404m | -44m/s | -49.1°C | 0.9% | 21.45hPa | 2.7V | 00:00:00 | 00:00:00 | 00:00:00 | |
| DL1XH-15 | 2026-09-01 05:36:54 | 52.69344 | 8.34540 | 143° | 13km/h | 26672m | -42.5m/s | -47.6°C | 3.1% | 20.6hPa | 2.6V | 08:28:26 | 02:05:08 | 00:00:00 | |
| DF8AY | 2026-09-01 05:36:52 | 52.69339 | 8.34551 | 94° | 11km/h | 26541m | -45.6m/s | -48.4°C | 0.2% | 21hPa | 2.7V | 08:29:28 | 02:05:11 | 00:00:00 | |
| AA1-15 | 2026-09-01 05:36:50 | 52.69341 | 8.34542 | 134° | 9km/h | 26630m | -44.2m/s | -47.9°C | 0.2% | 20.8hPa | 2.7V | 08:28:37 | 02:05:09 | 00:00:00 | |
| DL1XH-west | 2026-09-01 05:36:48 | 52.69347 | 8.34537 | 158° | 15km/h | 26715m | -42.2m/s | -47.5°C | 0.1% | 20.4hPa | 2.6V | 08:28:37 | 02:05:07 | 00:00:00 | |
| DO2JMG | 2026-09-01 05:36:47 | 52.69350 | 8.34536 | 172° | 15km/h | 26757m | -42m/s | -47.3°C | 0.1% | 20.3hPa | 2.6V | 08:28:37 | 02:05:06 | 00:00:00 | |
| BIOWL1-15 | 2026-09-01 05:36:45 | 52.69357 | 8.34537 | 203° | 13km/h | 26839m | -41.5m/s | -46.9°C | 0% | 20hPa | 2.7V | 08:28:37 | 02:05:04 | 00:00:00 | |
| DF5WG-10 | 2026-09-01 05:36:45 | 52.69357 | 8.34537 | 203° | 13km/h | 26840m | -41.4m/s | -46.9°C | 2.9% | 20.0hPa | 2.7V | 00:00:00 | 02:05:04 | 00:00:00 | |
| DL1XH-15 | 2026-09-01 05:36:44 | 52.69368 | 8.34558 | 271° | 5km/h | 27090m | -42.3m/s | -46.6°C | 2.9% | 19.3hPa | 2.7V | 08:28:36 | 02:04:58 | 00:00:00 | |
| DF8AY | 2026-09-01 05:36:41 | 52.69366 | 8.34552 | 238° | 9km/h | 27006m | -42m/s | -47°C | 0% | 19.5hPa | 2.6V | 08:29:28 | 02:05:00 | 00:00:00 | |
| DB0DAN | 2026-09-01 05:36:40 | 52.69368 | 8.34555 | 252° | 7km/h | 27048m | -41.9m/s | -46.8°C | 0.7% | 19.41hPa | 2.7V | 00:00:00 | 00:00:00 | 00:00:00 | |
| AA1-15 | 2026-09-01 05:36:39 | 52.69368 | 8.34558 | 272° | 5km/h | 27090m | -42.3m/s | -46.7°C | 0% | 19.3hPa | 2.7V | 08:28:37 | 02:04:58 | 00:00:00 | |
| DO9LL-15 | 2026-09-01 05:36:39 | 52.69368 | 8.34558 | 272° | 9km/h | 27090m | -42.2m/s | -46.6°C | 2.9% | 19.2hPa | 2.6V | 00:00:00 | 02:04:58 | 00:00:00 | |
| DM0DOS-11 | 2026-09-01 05:36:38 | 52.69367 | 8.34561 | 302° | 0km/h | 27259m | -42.3m/s | -46.4°C | 2.8% | 18.8hPa | 2.6V | 08:28:40 | 02:04:54 | 00:00:00 | |
| DL1XH-west | 2026-09-01 05:36:37 | 52.69367 | 8.34560 | 299° | 2km/h | 27174m | -42.3m/s | -46.7°C | 0% | 19hPa | 2.6V | 08:29:28 | 02:04:56 | 00:00:00 | |
| DO2JMG | 2026-09-01 05:36:36 | 52.69367 | 8.34561 | 288° | 2km/h | 27217m | -42.3m/s | -46.5°C | 0% | 18.9hPa | 2.6V | 08:29:28 | 02:04:55 | 00:00:00 | |
| BIOWL1-15 | 2026-09-01 05:36:36 | 52.69367 | 8.34561 | 175° | 2km/h | 27301m | -42.6m/s | -46.3°C | 0% | 18.7hPa | 2.7V | 08:29:28 | 02:04:53 | 00:00:00 | |
| AA1-15 | 2026-09-01 05:36:29 | 52.69379 | 8.34559 | 180° | 16km/h | 27514m | -43m/s | -46.6°C | 0% | 18hPa | 2.7V | 08:29:28 | 02:04:48 | 00:00:00 | |
| SONDE2-11 | 2026-09-01 05:36:29 | 52.69383 | 8.34560 | 186° | 18km/h | 27557m | -43.3m/s | -46.5°C | 0.7% | 17.9hPa | 2.7V | 00:00:00 | 00:00:00 | 00:00:00 | |
| DM0DOS-11 | 2026-09-01 05:36:28 | 52.69397 | 8.34566 | 201° | 16km/h | 27685m | -43.6m/s | -46.5°C | 2.9% | 17.6hPa | 2.7V | 08:28:50 | 02:04:44 | 00:00:00 | |
| DL1XH-west | 2026-09-01 05:36:27 | 52.69388 | 8.34561 | 192° | 20km/h | 27599m | -43m/s | -46.4°C | 0% | 17.8hPa | 2.6V | 08:29:28 | 02:04:46 | 00:00:00 | |
| BIOWL1-15 | 2026-09-01 05:36:26 | 52.69401 | 8.34569 | 208° | 13km/h | 27728m | -43.5m/s | -46.6°C | 0% | 17.5hPa | 2.7V | 08:29:28 | 02:04:43 | 00:00:00 | |
| DO2JMG | 2026-09-01 05:36:26 | 52.69392 | 8.34564 | 198° | 18km/h | 27642m | -43.5m/s | -46.4°C | 0% | 17.7hPa | 2.6V | 08:29:28 | 02:04:45 | 00:00:00 | |
| DB0DAN | 2026-09-01 05:36:25 | 52.69397 | 8.34566 | 201° | 16km/h | 27685m | -43.6m/s | -46.5°C | 0.7% | 17.55hPa | 2.7V | 00:00:00 | 00:00:00 | 00:00:00 | |
| DO2SHX-10 | 2026-09-01 05:36:25 | 52.69397 | 8.34566 | 202° | 13km/h | 27686m | -43.5m/s | -46.4°C | 2.9% | 17.5hPa | 2.7V | 00:00:00 | 02:04:44 | 00:00:00 | |
| DL1XH-15 | 2026-09-01 05:36:24 | 52.69404 | 8.34576 | 356° | 7km/h | 27944m | -43.4m/s | -45.8°C | 2.8% | 16.9hPa | 2.7V | 08:28:56 | 02:04:38 | 00:00:00 | |
| DF4FW | 2026-09-01 05:36:23 | 52.69400 | 8.34569 | 209° | 13km/h | 27729m | -43.5m/s | -46.6°C | 0.7% | 17.5hPa | 2.7V | 08:29:00 | 00:00:00 | 00:00:00 | |
| DO2SHX-10 | 2026-09-01 05:36:22 | 52.69405 | 8.34573 | 229° | 4km/h | 27815m | -43.3m/s | -46.5°C | 3.0% | 17.2hPa | 2.7V | 00:00:00 | 02:04:41 | 00:00:00 | |
| GOEST3-10 | 2026-09-01 05:36:21 | 52.69405 | 8.34575 | 283° | 5km/h | 27858m | -43.4m/s | -46.2°C | 2.9% | 17.0hPa | 2.7V | 00:00:00 | 02:04:40 | 00:00:00 | |
| DL3AQ-11 | 2026-09-01 05:36:20 | 52.69404 | 8.34576 | 356° | 5km/h | 27945m | -43.4m/s | -45.8°C | 0.7% | 16.9hPa | 2.7V | 00:00:00 | 00:00:00 | 00:00:00 | |
| DO2SHX-10 | 2026-09-01 05:36:19 | 52.69404 | 8.34576 | 357° | 7km/h | 27945m | -43.4m/s | -45.7°C | 2.8% | 16.8hPa | 2.7V | 00:00:00 | 02:04:38 | 00:00:00 | |
| DM0DOS-11 | 2026-09-01 05:36:18 | 52.69397 | 8.34572 | 54° | 9km/h | 28118m | -44.3m/s | -46.3°C | 3% | 16.5hPa | 2.7V | 08:29:00 | 02:04:34 | 00:00:00 | |
| AA1-15 | 2026-09-01 05:36:18 | 52.69402 | 8.34576 | 3° | 7km/h | 27988m | -43.6m/s | -45.8°C | 0% | 16.8hPa | 2.6V | 08:29:28 | 02:04:37 | 00:00:00 | |
| DL1XH-west | 2026-09-01 05:36:16 | 52.69398 | 8.34574 | 29° | 7km/h | 28075m | -43.9m/s | -46.2°C | 0% | 16.6hPa | 2.6V | 08:29:28 | 02:04:35 | 00:00:00 | |
| DO2JMG | 2026-09-01 05:36:15 | 52.69397 | 8.34572 | 55° | 9km/h | 28118m | -44.3m/s | -46.3°C | 0% | 16.5hPa | 2.7V | 08:29:28 | 02:04:34 | 00:00:00 | |
| DL1XH-15 | 2026-09-01 05:36:14 | 52.69397 | 8.34540 | 114° | 15km/h | 28386m | -44.5m/s | -45.8°C | 2.9% | 15.8hPa | 2.7V | 08:29:06 | 02:04:28 | 00:00:00 | |
| BIOWL1-15 | 2026-09-01 05:36:13 | 52.69395 | 8.34564 | 79° | 13km/h | 28206m | -44.7m/s | -46.3°C | 0% | 16.2hPa | 2.7V | 08:29:28 | 02:04:32 | 00:00:00 | |
| DD8BA-10 | 2026-09-01 05:36:13 | 52.69395 | 8.34564 | 79° | 15km/h | 28207m | -44.6m/s | -46.3°C | 3.0% | 16.2hPa | 2.7V | 08:29:00 | 00:00:00 | 00:00:00 | |
| DL1LOL-11 | 2026-09-01 05:36:12 | 52.69394 | 8.34558 | 87° | 15km/h | 28251m | -45.0m/s | -46.2°C | 0.7% | 16.1hPa | 2.6V | 08:29:00 | 00:00:00 | 00:00:00 | |
| DL3OBA | 2026-09-01 05:36:11 | 52.69394 | 8.34558 | 87° | 15km/h | 28251m | -45.0m/s | -46.2°C | 0.7% | 16.1hPa | 2.6V | 08:29:00 | 00:00:00 | 00:00:00 | |
| DB0DAN | 2026-09-01 05:36:10 | 52.69395 | 8.34546 | 106° | 15km/h | 28341m | -44.7m/s | -46.1°C | 0.7% | 15.88hPa | 2.6V | 00:00:00 | 00:00:00 | 00:00:00 | |
| DO2SHX-10 | 2026-09-01 05:36:10 | 52.69395 | 8.34546 | 106° | 15km/h | 28342m | -44.7m/s | -46.0°C | 3.0% | 15.8hPa | 2.6V | 08:29:00 | 02:04:29 | 00:00:00 | |
| DO9LL-15 | 2026-09-01 05:36:09 | 52.69397 | 8.34540 | 115° | 13km/h | 28386m | -44.4m/s | -45.7°C | 2.9% | 15.7hPa | 2.7V | 00:00:00 | 02:04:28 | 00:00:00 | |
| DM0DOS-11 | 2026-09-01 05:36:08 | 52.69406 | 8.34528 | 188° | 13km/h | 28563m | -45.1m/s | -44.9°C | 2.8% | 15.3hPa | 2.6V | 08:29:10 | 02:04:24 | 00:00:00 | |
| DF8AY | 2026-09-01 05:36:07 | 52.69401 | 8.34530 | 145° | 11km/h | 28474m | -44.5m/s | -45.6°C | 0% | 15.6hPa | 2.7V | 08:29:28 | 02:04:26 | 00:00:00 | |
| HSKMA3-T | 2026-09-01 05:36:06 | 52.69403 | 8.34528 | 171° | 9km/h | 28518m | -44.8m/s | -45.3°C | 0% | 15.5hPa | 2.6V | 08:29:28 | 02:04:25 | 00:00:00 | |
| DL1XH-west | 2026-09-01 05:36:05 | 52.69406 | 8.34528 | 188° | 13km/h | 28563m | -45.1m/s | -44.9°C | 0% | 15.3hPa | 2.6V | 08:29:28 | 02:04:24 | 00:00:00 | |
| DL1XH-15 | 2026-09-01 05:36:04 | 52.69421 | 8.34548 | 253° | 7km/h | 28836m | -46.3m/s | -44.3°C | 2.6% | 14.7hPa | 2.6V | 08:29:16 | 02:04:18 | 00:00:00 | |
| BIOWL1-15 | 2026-09-01 05:36:03 | 52.69416 | 8.34536 | 216° | 15km/h | 28698m | -46m/s | -44.5°C | 0% | 15.1hPa | 2.7V | 08:29:28 | 02:04:21 | 00:00:00 | |
| DD8BA-10 | 2026-09-01 05:36:03 | 52.69412 | 8.34533 | 214° | 9km/h | 28653m | -45.7m/s | -44.6°C | 2.7% | 15.1hPa | 2.7V | 00:00:00 | 00:00:00 | 00:00:00 | |
| DL4BBY-15 | 2026-09-01 05:36:02 | 52.69416 | 8.34536 | 217° | 13km/h | 28698m | -46.0m/s | -47.1°C | 0% | 0hPa | 2.7V | 00:00:00 | 00:00:00 | 00:00:00 | |
| DO2SHX-10 | 2026-09-01 05:36:01 | 52.69418 | 8.34540 | 229° | 11km/h | 28744m | -46.1m/s | -44.3°C | 2.6% | 14.9hPa | 2.7V | 00:00:00 | 02:04:20 | 00:00:00 | |
| SMARD9-10 | 2026-09-01 05:36:00 | 52.69418 | 8.34540 | 230° | 13km/h | 28744m | -46.2m/s | -44.4°C | 0.6% | 14.9hPa | 2.6V | 00:00:00 | 00:00:00 | 00:00:00 | |
| DM0DOS-11 | 2026-09-01 05:35:58 | 52.69417 | 8.34553 | 347° | 11km/h | 29020m | -46.7m/s | -44.6°C | 2.8% | 14.3hPa | 2.6V | 08:29:20 | 02:04:14 | 00:00:00 | |
| AA1-15 | 2026-09-01 05:35:57 | 52.69421 | 8.34551 | 330° | 5km/h | 28928m | -46.1m/s | -44.5°C | 0% | 14.5hPa | 2.7V | 08:29:28 | 02:04:16 | 00:00:00 | |
| HSKMA3-T | 2026-09-01 05:35:56 | 52.69419 | 8.34552 | 342° | 7km/h | 28974m | -46.4m/s | -44.6°C | 0% | 14.4hPa | 2.6V | 08:29:28 | 02:04:15 | 00:00:00 | |
| DB0DAN | 2026-09-01 05:35:55 | 52.69417 | 8.34553 | 348° | 9km/h | 29020m | -46.7m/s | -44.6°C | 0.7% | 14.33hPa | 2.6V | 00:00:00 | 00:00:00 | 00:00:00 | |
| DL1XH-west | 2026-09-01 05:35:55 | 52.69417 | 8.34553 | 348° | 11km/h | 29020m | -46.7m/s | -44.6°C | 0% | 14.3hPa | 2.6V | 08:29:28 | 02:04:14 | 00:00:00 | |
| DO2SHX-10 | 2026-09-01 05:35:55 | 52.69417 | 8.34553 | 348° | 11km/h | 29020m | -46.7m/s | -44.6°C | 2.8% | 14.3hPa | 2.6V | 00:00:00 | 02:04:14 | 00:00:00 | |
| DD1CC2-15 | 2026-09-01 05:35:54 | 52.69417 | 8.34553 | 349° | 11km/h | 29020m | -46.7m/s | -44.6°C | 0.7% | 14.3hPa | 2.6V | 08:29:00 | 00:00:00 | 00:00:00 | |
| DD8BA-10 | 2026-09-01 05:35:53 | 52.69411 | 8.34553 | 13° | 18km/h | 29114m | -47.1m/s | -44.4°C | 2.7% | 14.1hPa | 2.6V | 00:00:00 | 00:00:00 | 00:00:00 | |
| DO2SHX-10 | 2026-09-01 05:35:52 | 52.69408 | 8.34552 | 20° | 18km/h | 29161m | -47.4m/s | -44.4°C | 2.7% | 14.0hPa | 2.6V | 00:00:00 | 02:04:11 | 00:00:00 | |
| DK9SH | 2026-09-01 05:35:51 | 52.69405 | 8.34549 | 31° | 18km/h | 29208m | -47.5m/s | -44.3°C | 0.6% | 13.9hPa | 2.6V | 08:29:00 | 00:00:00 | 00:00:00 | |
| DL3OBA | 2026-09-01 05:35:50 | 52.69405 | 8.34549 | 31° | 18km/h | 29208m | -47.5m/s | -44.3°C | 0.6% | 13.9hPa | 2.6V | 08:29:00 | 00:00:00 | 00:00:00 | |
| DB0UT-7 | 2026-09-01 05:35:49 | 52.69397 | 8.34540 | 46° | 11km/h | 29303m | -47.7m/s | -44.2°C | 2.7% | 13.6hPa | 2.6V | 00:00:00 | 02:04:08 | 00:00:00 | |
| DM0DOS-11 | 2026-09-01 05:35:48 | 52.69389 | 8.34511 | 78° | 18km/h | 29495m | -48.6m/s | -44.2°C | 2.7% | 13.3hPa | 2.6V | 08:30:00 | 02:04:04 | 00:00:00 | |
| HSKMA3-T | 2026-09-01 05:35:46 | 52.69390 | 8.34519 | 72° | 20km/h | 29446m | -48.5m/s | -44.2°C | 0% | 13.4hPa | 2.6V | 18:12:15 | 02:04:05 | 00:00:00 | |
| DL1XH-west | 2026-09-01 05:35:45 | 52.69389 | 8.34511 | 78° | 18km/h | 29495m | -48.6m/s | -44.2°C | 0% | 13.3hPa | 2.6V | 18:12:15 | 02:04:04 | 00:00:00 | |
| DO2JMG | 2026-09-01 05:35:44 | 52.69389 | 8.34505 | 90° | 13km/h | 29544m | -48.5m/s | -44.1°C | 0% | 13.2hPa | 2.7V | 18:12:15 | 02:04:03 | 00:00:00 | |
| DD8BA-10 | 2026-09-01 05:35:43 | 52.69389 | 8.34499 | 93° | 11km/h | 29592m | -48.9m/s | -44.0°C | 2.7% | 13.1hPa | 2.7V | 00:00:00 | 00:00:00 | 00:00:00 | |
| DO3DL | 2026-09-01 05:35:42 | 52.69389 | 8.34499 | 93° | 13km/h | 29592m | -49.0m/s | -44.1°C | 0.6% | 13.1hPa | 2.6V | 00:00:00 | 00:00:00 | 00:00:00 | |
| DB0DAN | 2026-09-01 05:35:40 | 52.69390 | 8.34486 | 83° | 9km/h | 29739m | -49.5m/s | -43.4°C | 0.6% | 12.79hPa | 2.6V | 00:00:00 | 00:00:00 | 00:00:00 | |
| DO2SHX-10 | 2026-09-01 05:35:40 | 52.69390 | 8.34486 | 83° | 11km/h | 29739m | -49.4m/s | -43.3°C | 2.6% | 12.7hPa | 2.6V | 00:00:00 | 02:03:59 | 00:00:00 | |
| DO9LL-15 | 2026-09-01 05:35:39 | 52.69389 | 8.34482 | 76° | 7km/h | 29788m | -49.4m/s | -43.1°C | 2.6% | 12.6hPa | 2.6V | 00:00:00 | 02:03:58 | 00:00:00 | |
| DM0DOS-11 | 2026-09-01 05:35:38 | 52.69387 | 8.34464 | 81° | 11km/h | 29985m | -49.6m/s | -42.6°C | 2.5% | 12.3hPa | 2.6V | 08:30:00 | 02:03:54 | 00:00:00 | |
| BIOWL1-15 | 2026-09-01 05:35:36 | 52.69386 | 8.34459 | 71° | 11km/h | 30034m | -49m/s | -42.3°C | 0% | 12.2hPa | 2.6V | 18:12:15 | 02:03:53 | 00:00:00 | |
| HSKMA3-T | 2026-09-01 05:35:36 | 52.69387 | 8.34468 | 76° | 13km/h | 29936m | -49.3m/s | -42.8°C | 0% | 12.4hPa | 2.7V | 18:12:15 | 02:03:55 | 00:00:00 | |
| DL1XH-west | 2026-09-01 05:35:35 | 52.69387 | 8.34464 | 81° | 11km/h | 29985m | -49.6m/s | -42.6°C | 0% | 12.3hPa | 2.6V | 18:12:15 | 02:03:54 | 00:00:00 | |
| DO2JMG | 2026-09-01 05:35:33 | 52.69385 | 8.34455 | 75° | 11km/h | 30083m | -49m/s | -42.1°C | 0% | 12.1hPa | 2.6V | 18:12:15 | 02:03:52 | 00:00:00 | |
| DD8BA-10 | 2026-09-01 05:35:33 | 52.69385 | 8.34455 | 76° | 7km/h | 30084m | -48.9m/s | -42.0°C | 2.4% | 12.1hPa | 2.7V | 00:00:00 | 00:00:00 | 00:00:00 | |
| DL4BBY-15 | 2026-09-01 05:35:32 | 52.69385 | 8.34451 | 83° | 5km/h | 30133m | -49.9m/s | -44.4°C | 0% | 0hPa | 2.7V | 00:00:00 | 00:00:00 | 00:00:00 | |
| DO2SHX-10 | 2026-09-01 05:35:31 | 52.69384 | 8.34448 | 82° | 7km/h | 30183m | -49.4m/s | -41.9°C | 2.3% | 11.9hPa | 2.7V | 00:00:00 | 02:03:50 | 00:00:00 | |
| GOEST3-10 | 2026-09-01 05:35:30 | 52.69384 | 8.34445 | 87° | 7km/h | 30232m | -50.1m/s | -41.9°C | 2.4% | 11.8hPa | 2.7V | 00:00:00 | 02:03:49 | 00:00:00 | |
| DO3DL | 2026-09-01 05:35:29 | 52.69384 | 8.34445 | 87° | 7km/h | 30232m | -50.2m/s | -42.0°C | 0.5% | 11.9hPa | 2.7V | 00:00:00 | 00:00:00 | 00:00:00 | |
| DM0DOS-11 | 2026-09-01 05:35:28 | 52.69389 | 8.34437 | 144° | 5km/h | 30485m | -52.5m/s | -42.2°C | 2.4% | 11.4hPa | 2.7V | 08:30:00 | 02:03:44 | 00:00:00 | |
| DO2SHX-10 | 2026-09-01 05:35:28 | 52.69385 | 8.34440 | 105° | 7km/h | 30332m | -50.9m/s | -41.7°C | 2.3% | 11.6hPa | 2.7V | 00:00:00 | 02:03:47 | 00:00:00 | |
| SMARD9-10 | 2026-09-01 05:35:26 | 52.69386 | 8.34439 | 139° | 7km/h | 30383m | -51.4m/s | -41.9°C | 0.5% | 11.6hPa | 2.7V | 00:00:00 | 00:00:00 | 00:00:00 | |
| DB0DAN | 2026-09-01 05:35:25 | 52.69389 | 8.34437 | 145° | 5km/h | 30485m | -52.5m/s | -42.3°C | 0.5% | 11.39hPa | 2.7V | 00:00:00 | 00:00:00 | 00:00:00 | |
| DF8AY | 2026-09-01 05:35:25 | 52.69389 | 8.34437 | 145° | 5km/h | 30485m | -52.5m/s | -42.3°C | 0% | 11.4hPa | 2.7V | 18:12:15 | 02:03:44 | 00:00:00 | |
| DL1XH-west | 2026-09-01 05:35:24 | 52.69390 | 8.34437 | 165° | 4km/h | 30538m | -52.7m/s | -42.3°C | 0% | 11.3hPa | 2.7V | 18:12:15 | 02:03:43 | 00:00:00 | |
| DO2JMG | 2026-09-01 05:35:23 | 52.69391 | 8.34438 | 201° | 5km/h | 30590m | -53.3m/s | -42.2°C | 0% | 11.2hPa | 2.6V | 18:12:15 | 02:03:42 | 00:00:00 | |
| DD8BA-10 | 2026-09-01 05:35:23 | 52.69391 | 8.34438 | 202° | 4km/h | 30590m | -53.2m/s | -42.2°C | 2.4% | 11.2hPa | 2.6V | 00:00:00 | 00:00:00 | 00:00:00 | |
| DO2SHX-10 | 2026-09-01 05:35:22 | 52.69393 | 8.34439 | 204° | 5km/h | 30643m | -54.2m/s | -42.2°C | 2.4% | 11.1hPa | 2.6V | 00:00:00 | 02:03:41 | 00:00:00 | |
| DJ8HS-15 | 2026-09-01 05:35:21 | 52.69394 | 8.34440 | 199° | 5km/h | 30697m | -54.1m/s | -42.0°C | 2.4% | 11.0hPa | 2.6V | 00:00:00 | 02:03:40 | 00:00:00 | |
| GOEST3-10 | 2026-09-01 05:35:20 | 52.69395 | 8.34442 | 230° | 5km/h | 30751m | -54.6m/s | -41.9°C | 2.4% | 10.9hPa | 2.6V | 00:00:00 | 02:03:39 | 00:00:00 | |
| DB0UT-7 | 2026-09-01 05:35:19 | 52.69395 | 8.34443 | 226° | 7km/h | 30806m | -54.6m/s | -41.6°C | 2.3% | 10.8hPa | 2.6V | 00:00:00 | 00:00:00 | 08:30:00 | |
| DM0DOS-11 | 2026-09-01 05:35:18 | 52.69398 | 8.34448 | 234° | 2km/h | 31024m | -56.3m/s | -41.1°C | 2.2% | 10.5hPa | 2.6V | 08:30:00 | 02:03:34 | 00:00:00 | |
| HSKMA3-T | 2026-09-01 05:35:15 | 52.69398 | 8.34448 | 234° | 2km/h | 31024m | -56.3m/s | -41.1°C | 0% | 10.5hPa | 2.6V | 18:12:15 | 02:03:34 | 00:00:00 | |
| BIOWL1-15 | 2026-09-01 05:35:14 | 52.69398 | 8.34449 | 24° | 2km/h | 31081m | -55.6m/s | -41.1°C | 0% | 10.4hPa | 2.6V | 18:12:15 | 02:03:33 | 00:00:00 | |
| DO2JMG | 2026-09-01 05:35:13 | 52.69397 | 8.34448 | 335° | 2km/h | 31136m | -55.5m/s | -41.2°C | 0% | 10.3hPa | 2.7V | 18:12:15 | 02:03:32 | 00:00:00 | |
| DD8BA-10 | 2026-09-01 05:35:13 | 52.69397 | 8.34448 | 335° | 5km/h | 31137m | -55.5m/s | -41.2°C | 2.2% | 10.3hPa | 2.7V | 00:00:00 | 00:00:00 | 00:00:00 | |
| DB0DAN | 2026-09-01 05:35:10 | 52.69394 | 8.34449 | 342° | 2km/h | 31305m | -56.1m/s | -41.9°C | 0.5% | 10.06hPa | 2.6V | 00:00:00 | 00:00:00 | 00:00:00 | |
| DO2SHX-10 | 2026-09-01 05:35:10 | 52.69394 | 8.34449 | 342° | 5km/h | 31305m | -56.0m/s | -41.8°C | 2.4% | 10.0hPa | 2.6V | 00:00:00 | 02:03:29 | 00:00:00 | |
| DO9LL-15 | 2026-09-01 05:35:09 | 52.69394 | 8.34450 | 249° | 11km/h | 31361m | -55.9m/s | -41.9°C | 2.4% | 9.9hPa | 2.6V | 00:00:00 | 02:03:28 | 00:00:00 | |
| DM0DOS-11 | 2026-09-01 05:35:08 | 52.69394 | 8.34462 | 310° | 7km/h | 31582m | -54.2m/s | -41.9°C | 2.4% | 9.6hPa | 2.6V | 08:30:00 | 02:03:24 | 00:00:00 | |
| HSKMA3-T | 2026-09-01 05:35:05 | 52.69394 | 8.34462 | 311° | 7km/h | 31582m | -54.2m/s | -41.9°C | 0% | 9.6hPa | 2.6V | 18:12:15 | 02:03:24 | 00:00:00 | |
| DL1XH-west | 2026-09-01 05:35:04 | 52.69393 | 8.34463 | 359° | 5km/h | 31636m | -53.2m/s | -41.8°C | 0% | 9.6hPa | 2.6V | 18:12:15 | 02:03:23 | 00:00:00 | |
| BIOWL1-15 | 2026-09-01 05:35:03 | 52.69386 | 8.34456 | 47° | 16km/h | 31799m | -53.2m/s | -41.4°C | 0% | 9.3hPa | 2.7V | 18:12:15 | 02:03:20 | 00:00:00 | |
| AA1-15 | 2026-09-01 05:35:03 | 52.69391 | 8.34462 | 29° | 11km/h | 31690m | -54.1m/s | -41.6°C | 0% | 9.5hPa | 2.7V | 18:12:15 | 02:03:22 | 00:00:00 | |
| DO2JMG | 2026-09-01 05:35:02 | 52.69388 | 8.34460 | 42° | 15km/h | 31745m | -54.2m/s | -41.5°C | 0% | 9.4hPa | 2.7V | 18:12:15 | 02:03:21 | 00:00:00 | |
| DB0NH | 2026-09-01 05:35:02 | 52.69388 | 8.34460 | 42° | 15km/h | 31745m | -54.2m/s | -41.4°C | 2.3% | 9.3hPa | 2.7V | 00:00:00 | 02:03:21 | 00:00:00 | |
| DO2KSM | 2026-09-01 05:35:01 | 52.69388 | 8.34460 | 42° | 15km/h | 31745m | -54.2m/s | -41.5°C | 0.5% | 9.4hPa | 2.7V | 00:00:00 | 00:00:00 | 00:00:00 | |
| SMARD9-15 | 2026-09-01 05:34:59 | 52.69381 | 8.34446 | 46° | 13km/h | 31905m | -50.5m/s | -41.1°C | 0.5% | 9.1hPa | 2.7V | 00:00:00 | 00:00:00 | 00:00:00 | |
| DM0DOS-11 | 2026-09-01 05:34:58 | 52.69385 | 8.34442 | 207° | 13km/h | 32115m | -49.8m/s | -40.5°C | 2.1% | 8.9hPa | 2.7V | 08:30:00 | 02:03:14 | 00:00:00 | |
| SONDE2-11 | 2026-09-01 05:34:56 | 52.69385 | 8.34442 | 207° | 13km/h | 32115m | -49.8m/s | -40.5°C | 0.5% | 8.9hPa | 2.7V | 00:00:00 | 00:00:00 | 00:00:00 | |
| DB0DAN | 2026-09-01 05:34:55 | 52.69385 | 8.34442 | 207° | 13km/h | 32115m | -49.8m/s | -40.5°C | 0.5% | 8.86hPa | 2.7V | 00:00:00 | 00:00:00 | 00:00:00 | |
| DO2SHX-10 | 2026-09-01 05:34:55 | 52.69385 | 8.34442 | 208° | 13km/h | 32115m | -49.8m/s | -40.5°C | 2.1% | 8.8hPa | 2.7V | 00:00:00 | 02:03:14 | 00:00:00 | |
| DL1XH-15 | 2026-09-01 05:34:54 | 52.69399 | 8.34439 | 117° | 9km/h | 32390m | -30.8m/s | -40.5°C | 2.2% | 8.3hPa | 2.7V | 08:30:00 | 02:03:08 | 00:00:00 | |
| HSKMA3-T | 2026-09-01 05:34:54 | 52.69389 | 8.34444 | 193° | 15km/h | 32164m | -48.9m/s | -40.4°C | 0% | 8.8hPa | 2.6V | 18:12:15 | 02:03:13 | 00:00:00 | |
| DL1XH-west | 2026-09-01 05:34:53 | 52.69392 | 8.34444 | 173° | 9km/h | 32216m | -54.8m/s | -40.4°C | 0% | 8.7hPa | 2.6V | 18:12:15 | 02:03:12 | 00:00:00 | |
| BIOWL1-15 | 2026-09-01 05:34:52 | 52.69394 | 8.34444 | 169° | 9km/h | 32268m | -49.7m/s | -40.5°C | 0% | 8.6hPa | 2.6V | 18:12:15 | 02:03:11 | 00:00:00 | |
| DO2SHX-10 | 2026-09-01 05:34:52 | 52.69394 | 8.34444 | 169° | 9km/h | 32269m | -49.7m/s | -40.4°C | 2.1% | 8.6hPa | 2.7V | 00:00:00 | 02:03:11 | 00:00:00 | |
| DF8AY-15 | 2026-09-01 05:34:50 | 52.69398 | 8.34442 | 146° | 18km/h | 32356m | -37.5m/s | -40.5°C | 2.1% | 8.4hPa | 2.7V | 00:00:00 | 02:03:09 | 00:00:00 | |
| DO2SHX-10 | 2026-09-01 05:34:49 | 52.69399 | 8.34439 | 118° | 9km/h | 32390m | -30.7m/s | -40.5°C | 2.2% | 8.3hPa | 2.7V | 00:00:00 | 02:03:08 | 08:30:00 | |
| DM0DOS-11 | 2026-09-01 05:34:48 | 52.69397 | 8.34417 | 73° | 15km/h | 32449m | 2m/s | -40.5°C | 2.2% | 8.3hPa | 2.7V | 08:30:00 | 02:03:04 | 00:00:00 | |
| DB0UT-7 | 2026-09-01 05:34:48 | 52.69399 | 8.34435 | 86° | 16km/h | 32417m | -23.4m/s | -40.5°C | 2.2% | 8.3hPa | 2.7V | 00:00:00 | 02:03:07 | 00:00:00 | |
| DO2LYB-13 | 2026-09-01 05:34:47 | 52.69399 | 8.34435 | 86° | 13km/h | 32417m | -23.4m/s | -40.5°C | 0.5% | 8.3hPa | 2.7V | 00:00:00 | 00:00:00 | 00:00:00 | |
| DJ2DS-15 | 2026-09-01 05:34:46 | 52.69398 | 8.34423 | 75° | 20km/h | 32447m | -7.0m/s | -40.4°C | 2.2% | 8.2hPa | 2.7V | 00:00:00 | 02:03:05 | 00:00:00 | |
| DO2SHX-10 | 2026-09-01 05:34:45 | 52.69397 | 8.34417 | 74° | 15km/h | 32450m | 2.0m/s | -40.5°C | 2.2% | 8.2hPa | 2.7V | 00:00:00 | 02:03:04 | 00:00:00 | |
| DL1XH-15 | 2026-09-01 05:34:44 | 52.69399 | 8.34376 | 107° | 27km/h | 32413m | 7.6m/s | -40.7°C | 2.1% | 8.3hPa | 2.7V | 08:30:00 | 02:02:58 | 00:00:00 | |
| HSKMA3-T | 2026-09-01 05:34:43 | 52.69395 | 8.34406 | 81° | 13km/h | 32438m | 7.2m/s | -40.6°C | 0% | 8.3hPa | 2.7V | 18:12:15 | 02:03:02 | 00:00:00 | |
| DL1XH-west | 2026-09-01 05:34:42 | 52.69395 | 8.34400 | 96° | 15km/h | 32432m | 5.7m/s | -40.6°C | 0% | 8.3hPa | 2.6V | 18:12:15 | 02:03:01 | 00:00:00 | |
| DO2JMG | 2026-09-01 05:34:41 | 52.69396 | 8.34394 | 104° | 18km/h | 32426m | 5m/s | -40.7°C | 0% | 8.3hPa | 2.6V | 18:12:15 | 02:03:00 | 00:00:00 | |
| DB0DAN | 2026-09-01 05:34:40 | 52.69397 | 8.34386 | 107° | 22km/h | 32421m | 6.5m/s | -40.7°C | 0.5% | 8.31hPa | 2.7V | 00:00:00 | 00:00:00 | 00:00:00 | |
| DL4XJ-10 | 2026-09-01 05:34:40 | 52.69397 | 8.34386 | 108° | 18km/h | 32420m | 6.5m/s | -43.3°C | 0% | 0hPa | 2.7V | 00:00:00 | 00:00:00 | 00:00:00 | |
| DO9LL-15 | 2026-09-01 05:34:39 | 52.69399 | 8.34376 | 108° | 16km/h | 32414m | 7.6m/s | -40.7°C | 2.1% | 8.3hPa | 2.7V | 00:00:00 | 02:02:58 | 08:30:00 | |
| BIOWL9-15 | 2026-09-01 05:34:38 | 52.69401 | 8.34364 | 108° | 31km/h | 32407m | 6.3m/s | -40.7°C | 0.5% | 8.3hPa | 2.6V | 00:00:00 | 00:00:00 | 00:00:00 | |
| SONCRA | 2026-09-01 05:34:37 | 52.69404 | 8.34351 | 111° | 31km/h | 32401m | 5.6m/s | -40.7°C | 0.5% | 8.3hPa | 2.6V | 00:00:00 | 00:00:00 | 00:00:00 | |
| DO2SHX-10 | 2026-09-01 05:34:36 | 52.69407 | 8.34340 | 116° | 22km/h | 32395m | 6.1m/s | -40.7°C | 2.1% | 8.3hPa | 2.6V | 00:00:00 | 02:02:55 | 00:00:00 | |
| GOEST3-10 | 2026-09-01 05:34:35 | 52.69410 | 8.34330 | 120° | 13km/h | 32389m | 6.7m/s | -40.6°C | 2.1% | 8.3hPa | 2.6V | 00:00:00 | 00:00:00 | 00:00:00 | |
| DL1XH-15 | 2026-09-01 05:34:34 | 52.69405 | 8.34303 | 43° | 22km/h | 32350m | 5.8m/s | -40.8°C | 2.3% | 8.4hPa | 2.6V | 08:30:00 | 02:02:48 | 00:00:00 | |
| HSKMA3-T | 2026-09-01 05:34:32 | 52.69413 | 8.34316 | 65° | 9km/h | 32370m | 6.3m/s | -40.8°C | 0% | 8.4hPa | 2.7V | 18:12:15 | 02:02:51 | 00:00:00 | |
| DL1XH-west | 2026-09-01 05:34:31 | 52.69412 | 8.34313 | 46° | 13km/h | 32364m | 7.4m/s | -40.8°C | 0% | 8.4hPa | 2.7V | 18:12:15 | 02:02:50 | 00:00:00 | |
| AA1-15 | 2026-09-01 05:34:30 | 52.69409 | 8.34308 | 42° | 18km/h | 32356m | 7m/s | -40.8°C | 0% | 8.4hPa | 2.6V | 18:12:15 | 02:02:49 | 00:00:00 | |
| DO2SHX-10 | 2026-09-01 05:34:30 | 52.69409 | 8.34308 | 42° | 20km/h | 32357m | 7.0m/s | -40.8°C | 2.3% | 8.3hPa | 2.6V | 00:00:00 | 02:02:49 | 00:00:00 | |
| DD1CC9-15 | 2026-09-01 05:34:29 | 52.69409 | 8.34308 | 43° | 18km/h | 32357m | 7.0m/s | -40.8°C | 0.5% | 8.4hPa | 2.6V | 00:00:00 | 00:00:00 | 00:00:00 | |
| DF8AY-15 | 2026-09-01 05:34:28 | 52.69401 | 8.34296 | 49° | 13km/h | 32345m | 5.2m/s | -40.8°C | 2.2% | 8.4hPa | 2.6V | 00:00:00 | 02:02:47 | 00:00:00 | |
| DO2SHX-10 | 2026-09-01 05:34:27 | 52.69399 | 8.34290 | 56° | 13km/h | 32339m | 6.2m/s | -40.8°C | 2.2% | 8.4hPa | 2.6V | 00:00:00 | 02:02:46 | 00:00:00 | |
| DB0DAN | 2026-09-01 05:34:25 | 52.69397 | 8.34282 | 113° | 9km/h | 32325m | 6.8m/s | -40.8°C | 0.5% | 8.43hPa | 2.6V | 00:00:00 | 00:00:00 | 00:00:00 | |
| GOEST3-10 | 2026-09-01 05:34:25 | 52.69397 | 8.34282 | 113° | 15km/h | 32325m | 6.7m/s | -40.8°C | 2.1% | 8.4hPa | 2.6V | 00:00:00 | 00:00:00 | 00:00:00 | |
| DL1XH-15 | 2026-09-01 05:34:24 | 52.69409 | 8.34250 | 106° | 15km/h | 32287m | 5.4m/s | -41.1°C | 2.3% | 8.5hPa | 2.6V | 08:30:00 | 02:02:38 | 00:00:00 | |
| BIOWL1-15 | 2026-09-01 05:34:22 | 52.69410 | 8.34245 | 108° | 11km/h | 32281m | 7.2m/s | -41.1°C | 0% | 8.5hPa | 2.6V | 18:12:15 | 02:02:37 | 00:00:00 | |
| DF8AY | 2026-09-01 05:34:22 | 52.69403 | 8.34269 | 125° | 16km/h | 32304m | 7.2m/s | -41°C | 0% | 8.5hPa | 2.7V | 18:12:15 | 02:02:41 | 00:00:00 | |
| DL1XH-west | 2026-09-01 05:34:21 | 52.69406 | 8.34263 | 116° | 18km/h | 32298m | 5.9m/s | -41.1°C | 0% | 8.5hPa | 2.7V | 18:12:15 | 02:02:40 | 00:00:00 | |
| DO2JMG | 2026-09-01 05:34:20 | 52.69407 | 8.34256 | 111° | 18km/h | 32292m | 5.2m/s | -41.1°C | 0% | 8.5hPa | 2.7V | 18:12:15 | 02:02:39 | 00:00:00 | |
| AA1-15 | 2026-09-01 05:34:19 | 52.69409 | 8.34250 | 107° | 15km/h | 32287m | 5.4m/s | -41.1°C | 0% | 8.5hPa | 2.6V | 18:12:15 | 02:02:38 | 00:00:00 | |
| DM0DOS-11 | 2026-09-01 05:34:18 | 52.69409 | 8.34240 | 14° | 7km/h | 32262m | 5.4m/s | -41°C | 2.2% | 8.5hPa | 2.7V | 08:30:00 | 02:02:34 | 00:00:00 | |
| DB0UT-7 | 2026-09-01 05:34:18 | 52.69410 | 8.34245 | 109° | 13km/h | 32281m | 7.1m/s | -41.0°C | 2.2% | 8.4hPa | 2.7V | 00:00:00 | 00:00:00 | 00:00:00 | |
| DF4FW | 2026-09-01 05:34:17 | 52.69410 | 8.34245 | 109° | 11km/h | 32281m | 7.2m/s | -41.1°C | 0.5% | 8.5hPa | 2.7V | 00:00:00 | 00:00:00 | 00:00:00 | |
| S3001 | 2026-09-01 05:34:15 | 52.69407 | 8.34239 | 26° | 11km/h | 32256m | 6.8m/s | -41.0°C | 0.5% | 8.5hPa | 2.7V | 00:00:00 | 00:00:00 | 00:00:00 | |
| DL1XH-15 | 2026-09-01 05:34:14 | 52.69390 | 8.34209 | 62° | 18km/h | 32223m | 7.1m/s | -41°C | 2.2% | 8.6hPa | 2.7V | 08:30:00 | 02:02:28 | 00:00:00 | |
| HSKMA3-T | 2026-09-01 05:34:11 | 52.69396 | 8.34223 | 50° | 24km/h | 32236m | 5.4m/s | -41°C | 0% | 8.6hPa | 2.6V | 18:12:15 | 02:02:30 | 00:00:00 | |
| DL1XH-west | 2026-09-01 05:34:10 | 52.69393 | 8.34216 | 55° | 22km/h | 32230m | 6.4m/s | -41°C | 0% | 8.6hPa | 2.7V | 18:12:15 | 02:02:29 | 00:00:00 | |
| DB0DAN | 2026-09-01 05:34:10 | 52.69393 | 8.34216 | 55° | 20km/h | 32230m | 6.4m/s | -41°C | 0.5% | 8.55hPa | 2.7V | 00:00:00 | 00:00:00 | 00:00:00 | |
| DO2JMG | 2026-09-01 05:34:09 | 52.69390 | 8.34209 | 62° | 18km/h | 32223m | 7.1m/s | -41°C | 0% | 8.6hPa | 2.7V | 18:12:15 | 02:02:28 | 00:00:00 | |
| AA1-15 | 2026-09-01 05:34:08 | 52.69389 | 8.34203 | 75° | 13km/h | 32217m | 6.5m/s | -41.1°C | 0% | 8.6hPa | 2.7V | 18:12:15 | 02:02:27 | 00:00:00 | |
| DF8AY-15 | 2026-09-01 05:34:08 | 52.69388 | 8.34203 | 76° | 13km/h | 32217m | 6.5m/s | -41.0°C | 2.2% | 8.5hPa | 2.6V | 00:00:00 | 02:02:27 | 00:00:00 | |
| BIOWL9-15 | 2026-09-01 05:34:07 | 52.69388 | 8.34198 | 91° | 11km/h | 32211m | 6.1m/s | -41.0°C | 0.5% | 8.6hPa | 2.6V | 00:00:00 | 00:00:00 | 00:00:00 | |
| DO2SHX-10 | 2026-09-01 05:34:06 | 52.69388 | 8.34192 | 103° | 13km/h | 32205m | 6.3m/s | -41.0°C | 2.2% | 8.5hPa | 2.6V | 00:00:00 | 02:02:25 | 00:00:00 | |
| GOEST3-10 | 2026-09-01 05:34:05 | 52.69389 | 8.34187 | 104° | 11km/h | 32198m | 7.4m/s | -41.0°C | 2.2% | 8.5hPa | 2.6V | 00:00:00 | 00:00:00 | 00:00:00 | |
| DL1XH-15 | 2026-09-01 05:34:04 | 52.69393 | 8.34165 | 60° | 7km/h | 32159m | 5.4m/s | -41°C | 2.2% | 8.7hPa | 2.6V | 08:30:00 | 02:02:18 | 00:00:00 | |
| DF8AY | 2026-09-01 05:34:01 | 52.69393 | 8.34169 | 122° | 5km/h | 32171m | 7m/s | -41°C | 0% | 8.6hPa | 2.6V | 18:12:15 | 02:02:20 | 00:00:00 | |
| BIOWL1-15 | 2026-09-01 05:34:00 | 52.69393 | 8.34167 | 99° | 4km/h | 32165m | 5.5m/s | -41°C | 0% | 8.7hPa | 2.6V | 18:12:15 | 02:02:19 | 00:00:00 | |
| DO2JMG | 2026-09-01 05:33:58 | 52.69392 | 8.34161 | 51° | 13km/h | 32153m | 7.2m/s | -41.1°C | 0% | 8.7hPa | 2.7V | 18:12:15 | 02:02:17 | 00:00:00 | |
| AA1-15 | 2026-09-01 05:33:57 | 52.69389 | 8.34156 | 50° | 20km/h | 32145m | 7.7m/s | -41.1°C | 0% | 8.7hPa | 2.7V | 18:12:15 | 02:02:16 | 00:00:00 | |
| DO2SHX-10 | 2026-09-01 05:33:57 | 52.69389 | 8.34156 | 50° | 24km/h | 32146m | 7.7m/s | -41.1°C | 2.2% | 8.6hPa | 2.6V | 00:00:00 | 02:02:16 | 00:00:00 | |
| BIOWL7-15 | 2026-09-01 05:33:56 | 52.69389 | 8.34156 | 51° | 20km/h | 32146m | 7.7m/s | -41.1°C | 0.5% | 8.7hPa | 2.6V | 00:00:00 | 00:00:00 | 00:00:00 | |
| DB0DAN | 2026-09-01 05:33:55 | 52.69381 | 8.34141 | 50° | 24km/h | 32133m | 5.5m/s | -41.3°C | 0.5% | 8.72hPa | 2.6V | 00:00:00 | 00:00:00 | 00:00:00 | |
| DL4BBY-15 | 2026-09-01 05:33:55 | 52.69381 | 8.34141 | 50° | 16km/h | 32133m | 5.5m/s | -43.8°C | 0% | 0hPa | 2.7V | 00:00:00 | 00:00:00 | 00:00:00 | |
| DL1XH-15 | 2026-09-01 05:33:54 | 52.69370 | 8.34113 | 80° | 11km/h | 32094m | 7.3m/s | -41.6°C | 2.3% | 8.8hPa | 2.7V | 08:30:00 | 02:02:08 | 00:00:00 | |
| HSKMA3-T | 2026-09-01 05:33:50 | 52.69370 | 8.34117 | 77° | 9km/h | 32101m | 6.8m/s | -41.6°C | 0% | 8.7hPa | 2.6V | 18:12:15 | 02:02:09 | 00:00:00 | |
| DL1XH-west | 2026-09-01 05:33:49 | 52.69370 | 8.34113 | 80° | 11km/h | 32094m | 7.3m/s | -41.6°C | 0% | 8.8hPa | 2.7V | 18:12:15 | 02:02:08 | 00:00:00 | |
| AA1-15 | 2026-09-01 05:33:47 | 52.69368 | 8.34101 | 76° | 16km/h | 32081m | 5.1m/s | -41.7°C | 0% | 8.8hPa | 2.6V | 18:12:15 | 02:02:06 | 00:00:00 | |
| DB0UT-7 | 2026-09-01 05:33:47 | 52.69368 | 8.34101 | 76° | 13km/h | 32082m | 5.0m/s | -41.6°C | 2.3% | 8.7hPa | 2.6V | 00:00:00 | 02:02:06 | 00:00:00 | |
| DF4FW | 2026-09-01 05:33:46 | 52.69368 | 8.34101 | 77° | 16km/h | 32082m | 5.1m/s | -41.6°C | 0.5% | 8.8hPa | 2.7V | 00:00:00 | 00:00:00 | 00:00:00 | |
| DO2SHX-10 | 2026-09-01 05:33:45 | 52.69366 | 8.34089 | 71° | 13km/h | 32070m | 6.6m/s | -41.6°C | 2.4% | 8.7hPa | 2.7V | 00:00:00 | 02:02:04 | 00:00:00 | |
| DL1XH-15 | 2026-09-01 05:33:44 | 52.69347 | 8.34065 | 29° | 24km/h | 32031m | 5.2m/s | -41.7°C | 2.2% | 8.9hPa | 2.6V | 08:30:00 | 02:01:58 | 00:00:00 | |
| DF8AY | 2026-09-01 05:33:40 | 52.69352 | 8.34069 | 29° | 24km/h | 32037m | 7.4m/s | -41.8°C | 0% | 8.8hPa | 2.7V | 18:12:15 | 02:01:59 | 00:00:00 | |
| BIOWL1-15 | 2026-09-01 05:33:39 | 52.69347 | 8.34065 | 30° | 24km/h | 32031m | 5.3m/s | -41.7°C | 0% | 8.9hPa | 2.6V | 18:12:15 | 02:01:58 | 00:00:00 | |
| DL1XH-west | 2026-09-01 05:33:38 | 52.69342 | 8.34060 | 32° | 20km/h | 32026m | 4.4m/s | -41.7°C | 0% | 8.8hPa | 2.6V | 18:12:15 | 02:01:57 | 00:00:00 | |
| DO2JMG | 2026-09-01 05:33:37 | 52.69338 | 8.34057 | 31° | 13km/h | 32020m | 6.6m/s | -41.6°C | 0% | 8.9hPa | 2.7V | 18:12:15 | 02:01:56 | 00:00:00 | |
| AA1-15 | 2026-09-01 05:33:36 | 52.69337 | 8.34055 | 31° | 5km/h | 32013m | 7.6m/s | -41.5°C | 0% | 8.9hPa | 2.7V | 18:12:15 | 02:01:55 | 00:00:00 | |
| BIOWL9-15 | 2026-09-01 05:33:36 | 52.69337 | 8.34055 | 30° | 4km/h | 32014m | 7.6m/s | -41.5°C | 0.5% | 8.9hPa | 2.6V | 00:00:00 | 00:00:00 | 00:00:00 | |
| GOEST3-10 | 2026-09-01 05:33:35 | 52.69336 | 8.34054 | 191° | 9km/h | 32007m | 6.3m/s | -41.5°C | 2.3% | 8.8hPa | 2.6V | 00:00:00 | 00:00:00 | 00:00:00 | |
| DL1XH-15 | 2026-09-01 05:33:34 | 52.69342 | 8.34041 | 45° | 18km/h | 31970m | 6m/s | -41.6°C | 2.3% | 8.9hPa | 2.6V | 08:30:00 | 02:01:48 | 00:00:00 | |
| DF8AY | 2026-09-01 05:33:29 | 52.69342 | 8.34041 | 45° | 18km/h | 31970m | 6m/s | -41.6°C | 0% | 8.9hPa | 2.6V | 18:12:15 | 02:01:48 | 00:00:00 | |
| DM0DOS-11 | 2026-09-01 05:33:28 | 52.69327 | 8.34029 | 6° | 11km/h | 31945m | 6m/s | -41.6°C | 2.3% | 9hPa | 2.7V | 08:30:00 | 02:01:44 | 00:00:00 | |
| HSKMA3-T | 2026-09-01 05:33:28 | 52.69338 | 8.34036 | 34° | 18km/h | 31964m | 6.3m/s | -41.7°C | 0% | 8.9hPa | 2.6V | 18:12:15 | 02:01:47 | 00:00:00 | |
| DL1XH-west | 2026-09-01 05:33:27 | 52.69334 | 8.34033 | 24° | 18km/h | 31958m | 6.6m/s | -41.7°C | 0% | 8.9hPa | 2.7V | 18:12:15 | 02:01:46 | 00:00:00 | |
| AA1-15 | 2026-09-01 05:33:26 | 52.69330 | 8.34030 | 14° | 15km/h | 31951m | 6.5m/s | -41.6°C | 0% | 9hPa | 2.7V | 18:12:15 | 02:01:45 | 00:00:00 | |
| DB0DAN | 2026-09-01 05:33:25 | 52.69327 | 8.34029 | 7° | 11km/h | 31945m | 6m/s | -41.6°C | 0.5% | 8.97hPa | 2.7V | 00:00:00 | 00:00:00 | 00:00:00 | |
| GOEST3-10 | 2026-09-01 05:33:25 | 52.69327 | 8.34029 | 7° | 7km/h | 31945m | 6.0m/s | -41.6°C | 2.3% | 8.9hPa | 2.7V | 00:00:00 | 00:00:00 | 00:00:00 | |
| DL1XH-15 | 2026-09-01 05:33:24 | 52.69321 | 8.34021 | 149° | 5km/h | 31906m | 7.3m/s | -41.8°C | 2.3% | 9hPa | 2.7V | 08:30:00 | 02:01:38 | 00:00:00 | |
| DF8AY | 2026-09-01 05:33:19 | 52.69322 | 8.34021 | 150° | 5km/h | 31906m | 7.4m/s | -41.8°C | 0% | 9hPa | 2.7V | 18:12:15 | 02:01:38 | 00:00:00 | |
| DM0DOS-11 | 2026-09-01 05:33:18 | 52.69323 | 8.34023 | 349° | 9km/h | 31884m | 7m/s | -41.8°C | 2.3% | 9hPa | 2.7V | 08:30:00 | 02:01:34 | 00:00:00 | |
| HSKMA3-T | 2026-09-01 05:33:18 | 52.69323 | 8.34020 | 190° | 5km/h | 31900m | 6.5m/s | -41.8°C | 0% | 9hPa | 2.6V | 18:12:15 | 02:01:37 | 00:00:00 | |
| BIOWL1-15 | 2026-09-01 05:33:17 | 52.69324 | 8.34021 | 223° | 4km/h | 31894m | 4.6m/s | -41.8°C | 0% | 9.1hPa | 2.6V | 18:12:15 | 02:01:36 | 00:00:00 | |
| DL1XH-west | 2026-09-01 05:33:16 | 52.69324 | 8.34022 | 313° | 4km/h | 31890m | 4.3m/s | -41.8°C | 0% | 9hPa | 2.6V | 18:12:15 | 02:01:35 | 00:00:00 | |
| AA1-15 | 2026-09-01 05:33:15 | 52.69323 | 8.34023 | 349° | 9km/h | 31884m | 7m/s | -41.8°C | 0% | 9hPa | 2.7V | 18:12:15 | 02:01:34 | 00:00:00 | |
| DO2SHX-10 | 2026-09-01 05:33:15 | 52.69323 | 8.34023 | 350° | 16km/h | 31884m | 7.0m/s | -41.8°C | 2.3% | 9.0hPa | 2.7V | 00:00:00 | 02:01:34 | 00:00:00 | |
| DL1XH-15 | 2026-09-01 05:33:14 | 52.69295 | 8.34024 | 337° | 9km/h | 31845m | 5.9m/s | -42°C | 2.3% | 9.1hPa | 2.7V | 08:30:00 | 02:01:28 | 00:00:00 | |
| DK5PH-5 | 2026-09-01 05:33:14 | 52.69319 | 8.34023 | 2° | 11km/h | 31877m | 7.5m/s | -41.8°C | 2.3% | 9.0hPa | 2.7V | 00:00:00 | 02:01:33 | 08:30:00 | |
| S3001 | 2026-09-01 05:33:13 | 52.69309 | 8.34022 | 3° | 24km/h | 31864m | 5.5m/s | -41.9°C | 0.5% | 9.1hPa | 2.6V | 00:00:00 | 00:00:00 | 00:00:00 | |
| DJ8HS-15 | 2026-09-01 05:33:12 | 52.69308 | 8.34022 | 4° | 13km/h | 31864m | 5.4m/s | -41.9°C | 2.3% | 9.0hPa | 2.6V | 00:00:00 | 02:01:31 | 00:00:00 | |
| DL1LOL-11 | 2026-09-01 05:33:11 | 52.69309 | 8.34022 | 5° | 24km/h | 31864m | 5.5m/s | -41.9°C | 0.5% | 9.1hPa | 2.6V | 00:00:00 | 00:00:00 | 00:00:00 | |
| DB0DAN | 2026-09-01 05:33:10 | 52.69298 | 8.34023 | 350° | 16km/h | 31851m | 6.3m/s | -42°C | 0.5% | 9.09hPa | 2.6V | 00:00:00 | 00:00:00 | 00:00:00 | |
| GOEST3-10 | 2026-09-01 05:33:10 | 52.69298 | 8.34023 | 351° | 7km/h | 31851m | 6.3m/s | -41.9°C | 2.3% | 9.0hPa | 2.6V | 00:00:00 | 02:01:29 | 08:30:00 | |
| DO9LL-15 | 2026-09-01 05:33:09 | 52.69295 | 8.34024 | 338° | 9km/h | 31845m | 5.9m/s | -41.9°C | 2.3% | 9.1hPa | 2.7V | 00:00:00 | 02:01:28 | 00:00:00 | |
| DM0DOS-11 | 2026-09-01 05:33:08 | 52.69294 | 8.34027 | 180° | 4km/h | 31819m | 5.3m/s | -42.1°C | 2.3% | 9.1hPa | 2.6V | 08:30:00 | 02:01:24 | 00:00:00 | |
| DF8AY | 2026-09-01 05:33:08 | 52.69293 | 8.34026 | 312° | 5km/h | 31839m | 6.1m/s | -42°C | 0% | 9.1hPa | 2.7V | 18:12:15 | 02:01:27 | 00:00:00 | |
| HSKMA3-T | 2026-09-01 05:33:07 | 52.69293 | 8.34027 | 269° | 2km/h | 31832m | 7.2m/s | -42°C | 0% | 9.1hPa | 2.7V | 18:12:15 | 02:01:26 | 00:00:00 | |
| DL1XH-west | 2026-09-01 05:33:06 | 52.69293 | 8.34027 | 180° | 2km/h | 31825m | 6.7m/s | -42.1°C | 0% | 9.1hPa | 2.6V | 18:12:15 | 02:01:25 | 00:00:00 | |
| AA1-15 | 2026-09-01 05:33:05 | 52.69294 | 8.34027 | 180° | 4km/h | 31819m | 5.4m/s | -42.1°C | 0% | 9.1hPa | 2.6V | 18:12:15 | 02:01:24 | 00:00:00 | |
| DF8AY | 2026-09-01 05:32:59 | 52.69295 | 8.34049 | 343° | 15km/h | 31776m | 7.1m/s | -42.1°C | 0% | 9.2hPa | 2.6V | 18:12:15 | 02:01:17 | 00:00:00 | |
| DL4XJ-10 | 2026-09-01 05:32:59 | 52.69298 | 8.34046 | 313° | 9km/h | 31784m | 7.0m/s | -44.6°C | 0% | 0hPa | 2.7V | 00:00:00 | 00:00:00 | 00:00:00 | |
| DM0DOS-11 | 2026-09-01 05:32:58 | 52.69281 | 8.34051 | 356° | 18km/h | 31759m | 6.8m/s | -42.2°C | 2.4% | 9.2hPa | 2.7V | 08:30:00 | 02:01:14 | 00:00:00 | |
| HSKMA3-T | 2026-09-01 05:32:57 | 52.69291 | 8.34050 | 357° | 20km/h | 31770m | 5.3m/s | -42.2°C | 0% | 9.2hPa | 2.7V | 18:12:15 | 02:01:16 | 00:00:00 | |
| DL1XH-west | 2026-09-01 05:32:56 | 52.69286 | 8.34050 | 0° | 20km/h | 31764m | 5m/s | -42.2°C | 0% | 9.2hPa | 2.7V | 18:12:15 | 02:01:15 | 00:00:00 | |
| DO2JMG | 2026-09-01 05:32:55 | 52.69281 | 8.34051 | 356° | 18km/h | 31759m | 6.8m/s | -42.2°C | 0% | 9.2hPa | 2.7V | 18:12:15 | 02:01:14 | 00:00:00 | |
| AA1-15 | 2026-09-01 05:32:54 | 52.69277 | 8.34052 | 343° | 13km/h | 31752m | 6.8m/s | -42.3°C | 0% | 9.2hPa | 2.6V | 18:12:15 | 02:01:13 | 00:00:00 | |
| SONDE2-11 | 2026-09-01 05:32:51 | 52.69276 | 8.34059 | 223° | 7km/h | 31734m | 6.4m/s | -42.2°C | 0.5% | 9.3hPa | 2.7V | 00:00:00 | 00:00:00 | 00:00:00 | |
| DD1CC8 | 2026-09-01 05:32:50 | 52.69278 | 8.34060 | 200° | 7km/h | 31727m | 7.4m/s | -42.2°C | 0.5% | 9.3hPa | 2.7V | 00:00:00 | 00:00:00 | 00:00:00 | |
| DF7PN | 2026-09-01 05:32:49 | 52.69281 | 8.34060 | 159° | 5km/h | 31714m | 5.3m/s | -42.2°C | 0.5% | 9.3hPa | 2.7V | 00:00:00 | 00:00:00 | 00:00:00 | |
| DM0DOS-11 | 2026-09-01 05:32:48 | 52.69284 | 8.34062 | 236° | 7km/h | 31698m | 7.2m/s | -42.4°C | 2.3% | 9.3hPa | 2.7V | 08:30:00 | 02:01:04 | 00:00:00 | |
| HSKMA3-T | 2026-09-01 05:32:47 | 52.69282 | 8.34060 | 170° | 4km/h | 31709m | 4.6m/s | -42.3°C | 0% | 9.3hPa | 2.6V | 18:12:15 | 02:01:06 | 00:00:00 | |
| BIOWL1-15 | 2026-09-01 05:32:46 | 52.69283 | 8.34060 | 214° | 4km/h | 31704m | 4.9m/s | -42.3°C | 0% | 9.3hPa | 2.6V | 18:12:15 | 02:01:05 | 00:00:00 | |
| DL1XH-west | 2026-09-01 05:32:45 | 52.69284 | 8.34062 | 237° | 7km/h | 31698m | 7.2m/s | -42.4°C | 0% | 9.3hPa | 2.7V | 18:12:15 | 02:01:04 | 00:00:00 | |
| DO2JMG | 2026-09-01 05:32:44 | 52.69285 | 8.34066 | 249° | 11km/h | 31691m | 7m/s | -42.4°C | 0% | 9.3hPa | 2.7V | 18:12:15 | 02:01:03 | 00:00:00 | |
| AA1-15 | 2026-09-01 05:32:43 | 52.69286 | 8.34071 | 256° | 15km/h | 31684m | 5.9m/s | -42.4°C | 0% | 9.4hPa | 2.7V | 18:12:15 | 02:01:02 | 00:00:00 | |
| DF8AY | 2026-09-01 05:32:42 | 52.69279 | 8.34080 | 37° | 11km/h | 31649m | 4.6m/s | -42.7°C | 0% | 9.4hPa | 2.7V | 18:12:15 | 02:00:56 | 00:00:00 | |
| DO2SHX-10 | 2026-09-01 05:32:42 | 52.69286 | 8.34076 | 264° | 9km/h | 31679m | 4.9m/s | -42.3°C | 2.4% | 9.3hPa | 2.6V | 00:00:00 | 02:01:01 | 00:00:00 | |
| DL8DAS-15 | 2026-09-01 05:32:41 | 52.69287 | 8.34076 | 265° | 13km/h | 31679m | 4.9m/s | 0°C | 0% | 0hPa | 2.6V | 00:00:00 | 00:00:00 | 00:00:00 | |
| DB0DAN | 2026-09-01 05:32:40 | 52.69286 | 8.34084 | 313° | 5km/h | 31667m | 7.5m/s | -42.5°C | 0.6% | 9.34hPa | 2.6V | 00:00:00 | 00:00:00 | 00:00:00 | |
| GOEST3-10 | 2026-09-01 05:32:40 | 52.69286 | 8.34084 | 314° | 9km/h | 31668m | 7.4m/s | -42.4°C | 2.4% | 9.3hPa | 2.6V | 00:00:00 | 02:00:59 | 00:00:00 | |
| DO2SHX-10 | 2026-09-01 05:32:39 | 52.69284 | 8.34084 | 16° | 11km/h | 31660m | 6.9m/s | -42.5°C | 2.4% | 9.3hPa | 2.6V | 00:00:00 | 02:00:58 | 00:00:00 | |
| DM0DOS-11 | 2026-09-01 05:32:38 | 52.69276 | 8.34077 | 348° | 4km/h | 31636m | 6.8m/s | -42.7°C | 2.4% | 9.4hPa | 2.6V | 08:30:00 | 02:00:54 | 00:00:00 | |
| BIOWL1-15 | 2026-09-01 05:32:36 | 52.69277 | 8.34078 | 31° | 9km/h | 31643m | 6.8m/s | -42.7°C | 0% | 9.4hPa | 2.6V | 18:12:15 | 02:00:55 | 00:00:00 | |
| DL1XH-west | 2026-09-01 05:32:34 | 52.69275 | 8.34078 | 284° | 5km/h | 31630m | 6.1m/s | -42.7°C | 0% | 9.4hPa | 2.6V | 18:12:15 | 02:00:53 | 00:00:00 | |
| DO2JMG | 2026-09-01 05:32:33 | 52.69275 | 8.34081 | 271° | 7km/h | 31624m | 5.7m/s | -42.7°C | 0% | 9.4hPa | 2.7V | 18:12:15 | 02:00:52 | 00:00:00 | |
| AA1-15 | 2026-09-01 05:32:32 | 52.69275 | 8.34085 | 274° | 9km/h | 31618m | 6.4m/s | -42.7°C | 0% | 9.4hPa | 2.7V | 18:12:15 | 02:00:51 | 00:00:00 | |
| DD8BA-10 | 2026-09-01 05:32:32 | 52.69275 | 8.34085 | 274° | 13km/h | 31618m | 6.4m/s | -42.7°C | 2.4% | 9.4hPa | 2.7V | 00:00:00 | 00:00:00 | 00:00:00 | |
| DL3AQ-11 | 2026-09-01 05:32:31 | 52.69274 | 8.34092 | 299° | 9km/h | 31605m | 5.9m/s | -42.7°C | 0.6% | 9.4hPa | 2.7V | 00:00:00 | 00:00:00 | 00:00:00 | |
| DO2SHX-10 | 2026-09-01 05:32:30 | 52.69274 | 8.34092 | 300° | 13km/h | 31605m | 5.8m/s | -42.7°C | 2.5% | 9.4hPa | 2.7V | 00:00:00 | 02:00:49 | 00:00:00 | |
| DD1CC2-15 | 2026-09-01 05:32:29 | 52.69274 | 8.34092 | 300° | 11km/h | 31605m | 5.9m/s | -42.7°C | 0.6% | 9.4hPa | 2.7V | 00:00:00 | 00:00:00 | 00:00:00 | |
| DM0DOS-11 | 2026-09-01 05:32:28 | 52.69262 | 8.34117 | 327° | 15km/h | 31574m | 5.5m/s | -42.6°C | 2.4% | 9.5hPa | 2.7V | 08:30:00 | 02:00:44 | 00:00:00 | |
| DF8AY | 2026-09-01 05:32:26 | 52.69265 | 8.34112 | 311° | 16km/h | 31580m | 4.9m/s | -42.6°C | 0% | 9.5hPa | 2.7V | 18:12:15 | 02:00:45 | 00:00:00 | |
| DB0DAN | 2026-09-01 05:32:25 | 52.69262 | 8.34117 | 328° | 15km/h | 31575m | 5.5m/s | -42.7°C | 0.6% | 9.49hPa | 2.7V | 00:00:00 | 00:00:00 | 00:00:00 | |
| HSKMA3-T | 2026-09-01 05:32:25 | 52.69262 | 8.34117 | 328° | 15km/h | 31575m | 5.5m/s | -42.7°C | 0% | 9.5hPa | 2.7V | 18:12:15 | 02:00:44 | 00:00:00 | |
| DL1XH-west | 2026-09-01 05:32:23 | 52.69255 | 8.34118 | 24° | 15km/h | 31561m | 6.9m/s | -42.6°C | 0% | 9.5hPa | 2.6V | 18:12:15 | 02:00:42 | 00:00:00 | |
| AA1-15 | 2026-09-01 05:32:22 | 52.69252 | 8.34115 | 42° | 15km/h | 31555m | 4.9m/s | -42.6°C | 0% | 9.5hPa | 2.6V | 18:12:15 | 02:00:41 | 00:00:00 | |
| DD8BA-10 | 2026-09-01 05:32:22 | 52.69252 | 8.34114 | 42° | 11km/h | 31555m | 4.8m/s | -42.6°C | 2.4% | 9.5hPa | 2.7V | 00:00:00 | 00:00:00 | 00:00:00 | |
| DO2SHX-10 | 2026-09-01 05:32:21 | 52.69250 | 8.34111 | 52° | 7km/h | 31551m | 4.3m/s | -42.5°C | 2.4% | 9.5hPa | 2.7V | 00:00:00 | 02:00:40 | 00:00:00 | |
| DL3AQ-11 | 2026-09-01 05:32:20 | 52.69248 | 8.34108 | 290° | 2km/h | 31538m | 6.9m/s | -42.6°C | 0.6% | 9.5hPa | 2.7V | 00:00:00 | 00:00:00 | 00:00:00 | |
| DD1CC8 | 2026-09-01 05:32:19 | 52.69248 | 8.34110 | 262° | 9km/h | 31532m | 6.2m/s | -42.6°C | 0.6% | 9.6hPa | 2.7V | 00:00:00 | 00:00:00 | 00:00:00 | |
| DM0DOS-11 | 2026-09-01 05:32:18 | 52.69248 | 8.34127 | 281° | 13km/h | 31513m | 6.7m/s | -42.7°C | 2.4% | 9.6hPa | 2.7V | 08:30:00 | 02:00:34 | 00:00:00 | |
| BIOWL1-15 | 2026-09-01 05:32:17 | 52.69248 | 8.34127 | 282° | 13km/h | 31513m | 6.7m/s | -42.7°C | 0% | 9.6hPa | 2.7V | 18:12:15 | 02:00:34 | 00:00:00 | |
| HSKMA3-T | 2026-09-01 05:32:14 | 52.69247 | 8.34131 | 300° | 11km/h | 31507m | 5.6m/s | -42.7°C | 0% | 9.6hPa | 2.7V | 18:12:15 | 02:00:33 | 00:00:00 | |
| DL1XH-west | 2026-09-01 05:32:13 | 52.69246 | 8.34135 | 316° | 11km/h | 31502m | 5.1m/s | -42.6°C | 0% | 9.6hPa | 2.7V | 18:12:15 | 02:00:32 | 00:00:00 | |
| DO2JMG | 2026-09-01 05:32:12 | 52.69244 | 8.34138 | 322° | 9km/h | 31496m | 5.6m/s | -42.6°C | 0% | 9.6hPa | 2.6V | 18:12:15 | 02:00:31 | 00:00:00 | |
| DD8BA-10 | 2026-09-01 05:32:12 | 52.69244 | 8.34138 | 322° | 15km/h | 31497m | 5.6m/s | -42.6°C | 2.5% | 9.6hPa | 2.6V | 00:00:00 | 00:00:00 | 00:00:00 | |
| DO3DL | 2026-09-01 05:32:11 | 52.69243 | 8.34138 | 323° | 9km/h | 31497m | 5.6m/s | -42.6°C | 0.6% | 9.6hPa | 2.6V | 00:00:00 | 00:00:00 | 00:00:00 | |
| AA1-15 | 2026-09-01 05:32:11 | 52.69242 | 8.34140 | 316° | 7km/h | 31490m | 6.3m/s | -42.7°C | 0% | 9.6hPa | 2.6V | 18:12:15 | 02:00:30 | 00:00:00 | |
| DB0DAN | 2026-09-01 05:32:10 | 52.69242 | 8.34141 | 263° | 2km/h | 31484m | 5.7m/s | -42.6°C | 0.6% | 9.63hPa | 2.6V | 00:00:00 | 00:00:00 | 00:00:00 | |
| GOEST3-10 | 2026-09-01 05:32:10 | 52.69242 | 8.34141 | 264° | 13km/h | 31485m | 5.6m/s | -42.6°C | 2.4% | 9.6hPa | 2.6V | 00:00:00 | 02:00:29 | 00:00:00 | |
| DO9LL-15 | 2026-09-01 05:32:09 | 52.69242 | 8.34141 | 151° | 13km/h | 31479m | 5.3m/s | -42.6°C | 2.4% | 9.6hPa | 2.6V | 00:00:00 | 02:00:28 | 00:00:00 | |
| DM0DOS-11 | 2026-09-01 05:32:08 | 52.69253 | 8.34118 | 124° | 24km/h | 31453m | 5.1m/s | -42.8°C | 2.4% | 9.7hPa | 2.6V | 08:30:00 | 02:00:24 | 00:00:00 | |
| BIOWL1-15 | 2026-09-01 05:32:05 | 52.69253 | 8.34118 | 124° | 24km/h | 31453m | 5.1m/s | -42.8°C | 0% | 9.7hPa | 2.6V | 18:12:15 | 02:00:24 | 00:00:00 | |
| DO3MHA-11 | 2026-09-01 05:32:05 | 52.69253 | 8.34118 | 125° | 15km/h | 31453m | 5.1m/s | -42.7°C | 2.4% | 9.6hPa | 2.6V | 00:00:00 | 02:00:24 | 00:00:00 | |
| DL1XH-15 | 2026-09-01 05:32:04 | 52.69260 | 8.34119 | 303° | 18km/h | 31418m | 5.8m/s | -42.7°C | 2.5% | 9.7hPa | 2.6V | 08:30:00 | 02:00:18 | 00:00:00 | |
| DF8AY | 2026-09-01 05:32:04 | 52.69257 | 8.34110 | 128° | 20km/h | 31448m | 4.4m/s | -42.8°C | 0% | 9.7hPa | 2.6V | 18:12:15 | 02:00:23 | 00:00:00 | |
| DL1XH-west | 2026-09-01 05:32:03 | 52.69259 | 8.34105 | 143° | 13km/h | 31443m | 6.4m/s | -42.8°C | 0% | 9.7hPa | 2.7V | 18:12:15 | 02:00:22 | 00:00:00 | |
| DO2JMG | 2026-09-01 05:32:01 | 52.69263 | 8.34107 | 264° | 11km/h | 31430m | 6m/s | -42.7°C | 0% | 9.7hPa | 2.7V | 18:12:15 | 02:00:20 | 00:00:00 | |
| BIOWL1-15 | 2026-09-01 05:31:57 | 52.69248 | 8.34124 | 46° | 11km/h | 31396m | 5.7m/s | -42.7°C | 0% | 9.8hPa | 2.7V | 18:12:15 | 02:00:14 | 00:00:00 | |
| EDDB2-12 | 2026-09-01 05:31:56 | 52.69250 | 8.34126 | 16° | 13km/h | 31401m | 5.2m/s | -42.7°C | 0.6% | 9.8hPa | 2.7V | 00:00:00 | 00:00:00 | 00:00:00 | |
| DB0DAN | 2026-09-01 05:31:55 | 52.69248 | 8.34124 | 46° | 11km/h | 31396m | 5.7m/s | -42.7°C | 0.6% | 9.76hPa | 2.7V | 00:00:00 | 00:00:00 | 00:00:00 | |
| DO3MHA-11 | 2026-09-01 05:31:55 | 52.69248 | 8.34124 | 47° | 9km/h | 31396m | 5.7m/s | -42.7°C | 2.4% | 9.7hPa | 2.7V | 00:00:00 | 02:00:14 | 08:30:00 | |
| DL1XH-15 | 2026-09-01 05:31:54 | 52.69255 | 8.34105 | 138° | 9km/h | 31360m | 6.6m/s | -42.6°C | 2.5% | 9.8hPa | 2.7V | 08:30:00 | 02:00:08 | 00:00:00 | |
| DF8AY | 2026-09-01 05:31:53 | 52.69247 | 8.34116 | 113° | 11km/h | 31382m | 6.7m/s | -42.7°C | 0% | 9.8hPa | 2.6V | 18:12:15 | 02:00:12 | 00:00:00 | |
| DL1XH-west | 2026-09-01 05:31:52 | 52.69248 | 8.34113 | 140° | 13km/h | 31376m | 5.6m/s | -42.7°C | 0% | 9.8hPa | 2.6V | 18:12:15 | 02:00:11 | 00:00:00 | |
| DO2JMG | 2026-09-01 05:31:50 | 52.69253 | 8.34107 | 152° | 11km/h | 31366m | 5.2m/s | -42.7°C | 0% | 9.8hPa | 2.7V | 18:12:15 | 02:00:09 | 00:00:00 | |
| BIOWL1-15 | 2026-09-01 05:31:46 | 52.69253 | 8.34102 | 295° | 9km/h | 31330m | 7.3m/s | -42.5°C | 0% | 9.9hPa | 2.7V | 18:12:15 | 02:00:03 | 00:00:00 | |
| DO2SHX-10 | 2026-09-01 05:31:45 | 52.69254 | 8.34099 | 328° | 9km/h | 31337m | 5.8m/s | -42.4°C | 2.4% | 9.8hPa | 2.7V | 00:00:00 | 02:00:04 | 00:00:00 | |
| DL1XH-15 | 2026-09-01 05:31:44 | 52.69251 | 8.34120 | 37° | 4km/h | 31299m | 6.1m/s | -42.5°C | 2.5% | 9.9hPa | 2.7V | 08:30:00 | 01:59:58 | 00:00:00 | |
| DJ2DS-15 | 2026-09-01 05:31:44 | 52.69253 | 8.34102 | 294° | 9km/h | 31330m | 7.3m/s | -42.5°C | 0.6% | 9.9hPa | 2.6V | 00:00:00 | 00:00:00 | 00:00:00 | |
| DF8AY | 2026-09-01 05:31:42 | 52.69252 | 8.34112 | 270° | 13km/h | 31318m | 5.2m/s | -42.5°C | 0% | 9.9hPa | 2.6V | 18:12:15 | 02:00:01 | 00:00:00 | |
| HSKMA3-T | 2026-09-01 05:31:41 | 52.69252 | 8.34116 | 271° | 9km/h | 31312m | 5.7m/s | -42.6°C | 0% | 9.9hPa | 2.6V | 18:12:15 | 02:00:00 | 00:00:00 | |
| DB0DAN | 2026-09-01 05:31:40 | 52.69252 | 8.34119 | 289° | 5km/h | 31306m | 7.2m/s | -42.5°C | 0.6% | 9.91hPa | 2.6V | 00:00:00 | 00:00:00 | 00:00:00 | |
| DO2JMG | 2026-09-01 05:31:39 | 52.69251 | 8.34120 | 37° | 4km/h | 31299m | 6.1m/s | -42.5°C | 0% | 9.9hPa | 2.7V | 18:12:15 | 01:59:58 | 00:00:00 | |
| DO9LL-15 | 2026-09-01 05:31:39 | 52.69251 | 8.34120 | 38° | 7km/h | 31299m | 6.0m/s | -42.4°C | 2.5% | 9.9hPa | 2.7V | 00:00:00 | 01:59:58 | 00:00:00 | |
| DM0DOS-11 | 2026-09-01 05:31:38 | 52.69252 | 8.34111 | 119° | 5km/h | 31274m | 6.1m/s | -42.3°C | 2.4% | 9.9hPa | 2.6V | 08:30:00 | 01:59:54 | 00:00:00 | |
| BIOWL1-15 | 2026-09-01 05:31:34 | 52.69252 | 8.34109 | 106° | 5km/h | 31268m | 5.9m/s | -42.3°C | 0% | 10hPa | 2.6V | 18:12:15 | 01:59:53 | 00:00:00 | |
| DF8AY | 2026-09-01 05:31:32 | 52.69252 | 8.34105 | 49° | 5km/h | 31255m | 6.1m/s | -42.2°C | 0% | 10hPa | 2.7V | 18:12:15 | 01:59:51 | 00:00:00 | |
| DL1XH-west | 2026-09-01 05:31:31 | 52.69251 | 8.34104 | 17° | 4km/h | 31249m | 5.4m/s | -42.2°C | 0% | 10hPa | 2.7V | 18:12:15 | 01:59:50 | 00:00:00 | |
| DO2JMG | 2026-09-01 05:31:29 | 52.69251 | 8.34106 | 238° | 7km/h | 31237m | 7.4m/s | -42.2°C | 0% | 10.1hPa | 2.6V | 18:12:15 | 01:59:48 | 00:00:00 | |
| DM0DOS-11 | 2026-09-01 05:31:29 | 52.69257 | 8.34117 | 229° | 2km/h | 31211m | 7.1m/s | -42°C | 2.4% | 10.1hPa | 2.7V | 08:30:00 | 01:59:44 | 00:00:00 | |
| AA1-15 | 2026-09-01 05:31:29 | 52.69253 | 8.34109 | 228° | 11km/h | 31230m | 6.1m/s | -42.1°C | 0% | 10hPa | 2.6V | 18:12:15 | 01:59:47 | 00:00:00 | |
| DF8AY-15 | 2026-09-01 05:31:28 | 52.69253 | 8.34109 | 228° | 9km/h | 31230m | 6.1m/s | 0°C | 0% | 0hPa | 2.7V | 00:00:00 | 01:59:47 | 00:00:00 | |
| DO2SHX-10 | 2026-09-01 05:31:27 | 52.69255 | 8.34112 | 225° | 7km/h | 31224m | 5.5m/s | -42.0°C | 2.4% | 10.0hPa | 2.7V | 00:00:00 | 01:59:46 | 00:00:00 | |
| DB0DAN | 2026-09-01 05:31:25 | 52.69257 | 8.34117 | 229° | 2km/h | 31211m | 7.1m/s | -42°C | 0.6% | 10.06hPa | 2.7V | 00:00:00 | 00:00:00 | 00:00:00 | |
| EDDB2-12 | 2026-09-01 05:31:25 | 52.69257 | 8.34117 | 229° | 2km/h | 31211m | 7.1m/s | -42.0°C | 0.6% | 10.1hPa | 2.7V | 00:00:00 | 00:00:00 | 00:00:00 | |
| DL1XH-15 | 2026-09-01 05:31:24 | 52.69260 | 8.34103 | 115° | 9km/h | 31173m | 5.9m/s | -41.9°C | 2.3% | 10.1hPa | 2.7V | 08:30:00 | 01:59:38 | 00:00:00 | |
| BIOWL1-15 | 2026-09-01 05:31:24 | 52.69258 | 8.34117 | 62° | 2km/h | 31205m | 5.9m/s | -42°C | 0% | 10.1hPa | 2.6V | 18:12:15 | 01:59:43 | 00:00:00 | |
| DF8AY | 2026-09-01 05:31:22 | 52.69257 | 8.34113 | 99° | 7km/h | 31192m | 7.2m/s | -41.9°C | 0% | 10.1hPa | 2.6V | 18:12:15 | 01:59:41 | 00:00:00 | |
| HSKMA3-T | 2026-09-01 05:31:21 | 52.69258 | 8.34110 | 121° | 9km/h | 31185m | 6.8m/s | -41.9°C | 0% | 10.1hPa | 2.7V | 18:12:15 | 01:59:40 | 00:00:00 | |
| DL1XH-west | 2026-09-01 05:31:20 | 52.69259 | 8.34107 | 121° | 9km/h | 31179m | 5.8m/s | -41.9°C | 0% | 10.1hPa | 2.7V | 18:12:15 | 01:59:39 | 00:00:00 | |
| DO2JMG | 2026-09-01 05:31:18 | 52.69261 | 8.34100 | 103° | 9km/h | 31167m | 7.3m/s | -41.8°C | 0% | 10.1hPa | 2.6V | 18:12:15 | 01:59:37 | 00:00:00 | |
| BIOWL1-15 | 2026-09-01 05:31:17 | 52.69267 | 8.34100 | 224° | 16km/h | 31135m | 5.4m/s | -41.8°C | 0% | 10.2hPa | 2.7V | 18:12:15 | 01:59:32 | 00:00:00 | |
| AA1-15 | 2026-09-01 05:31:17 | 52.69261 | 8.34097 | 96° | 7km/h | 31160m | 6.1m/s | -41.8°C | 0% | 10.1hPa | 2.6V | 18:12:15 | 01:59:36 | 00:00:00 | |
| DB0UT-7 | 2026-09-01 05:31:17 | 52.69261 | 8.34097 | 96° | 9km/h | 31160m | 6.0m/s | -41.7°C | 2.3% | 10.1hPa | 2.7V | 00:00:00 | 00:00:00 | 00:00:00 | |
| DF7PN | 2026-09-01 05:31:16 | 52.69262 | 8.34095 | 199° | 4km/h | 31148m | 6.6m/s | -41.9°C | 0.5% | 10.2hPa | 2.7V | 00:00:00 | 00:00:00 | 00:00:00 | |
| DO2SHX-10 | 2026-09-01 05:31:15 | 52.69262 | 8.34095 | 200° | 11km/h | 31148m | 6.5m/s | -41.8°C | 2.3% | 10.1hPa | 2.7V | 00:00:00 | 01:59:34 | 00:00:00 | |
| DL1XH-15 | 2026-09-01 05:31:14 | 52.69275 | 8.34115 | 226° | 2km/h | 31112m | 6.6m/s | -41.8°C | 2.3% | 10.2hPa | 2.7V | 08:30:00 | 01:59:28 | 00:00:00 | |
| DF8AY | 2026-09-01 05:31:11 | 52.69272 | 8.34110 | 229° | 15km/h | 31125m | 5.3m/s | -41.8°C | 0% | 10.2hPa | 2.6V | 18:12:15 | 01:59:30 | 00:00:00 | |
| DB0DAN | 2026-09-01 05:31:10 | 52.69274 | 8.34114 | 229° | 9km/h | 31119m | 7.2m/s | -41.8°C | 0.5% | 10.21hPa | 2.6V | 00:00:00 | 00:00:00 | 00:00:00 | |
| DL1XH-west | 2026-09-01 05:31:10 | 52.69274 | 8.34114 | 230° | 9km/h | 31119m | 7.2m/s | -41.8°C | 0% | 10.2hPa | 2.6V | 18:12:15 | 01:59:29 | 00:00:00 | |
| AA1-15 | 2026-09-01 05:31:07 | 52.69275 | 8.34112 | 88° | 7km/h | 31100m | 5.5m/s | -41.8°C | 0% | 10.2hPa | 2.7V | 18:12:15 | 01:59:26 | 00:00:00 | |
| DF5WG-10 | 2026-09-01 05:31:07 | 52.69275 | 8.34112 | 89° | 7km/h | 31101m | 5.5m/s | -41.8°C | 2.3% | 10.2hPa | 2.6V | 00:00:00 | 01:59:26 | 00:00:00 | |
| DO2SHX-10 | 2026-09-01 05:31:06 | 52.69275 | 8.34109 | 116° | 11km/h | 31094m | 6.9m/s | -41.8°C | 2.3% | 10.2hPa | 2.6V | 00:00:00 | 01:59:25 | 00:00:00 | |
| DL1XH-15 | 2026-09-01 05:31:04 | 52.69295 | 8.34093 | 134° | 9km/h | 31050m | 5.5m/s | -41.9°C | 2.4% | 10.3hPa | 2.6V | 08:30:00 | 01:59:18 | 00:00:00 | |
| BIOWL1-15 | 2026-09-01 05:31:03 | 52.69287 | 8.34101 | 166° | 15km/h | 31069m | 5.5m/s | -41.9°C | 0% | 10.3hPa | 2.7V | 18:12:15 | 01:59:21 | 00:00:00 | |
| DF8AY | 2026-09-01 05:31:00 | 52.69293 | 8.34096 | 142° | 11km/h | 31056m | 6.8m/s | -41.9°C | 0% | 10.3hPa | 2.6V | 18:12:15 | 01:59:19 | 00:00:00 | |
| DL1XH-west | 2026-09-01 05:30:59 | 52.69295 | 8.34093 | 135° | 9km/h | 31050m | 5.5m/s | -41.9°C | 0% | 10.3hPa | 2.6V | 18:12:15 | 01:59:18 | 00:00:00 | |
| D01LWL | 2026-09-01 05:30:59 | 52.69297 | 8.34091 | 133° | 7km/h | 31045m | 4.8m/s | -41.9°C | 0.6% | 10.3hPa | 2.7V | 00:00:00 | 00:00:00 | 00:00:00 | |
| DM0DOS-11 | 2026-09-01 05:30:58 | 52.69302 | 8.34088 | 193° | 9km/h | 31025m | 6.3m/s | -41.9°C | 2.3% | 10.3hPa | 2.7V | 08:30:00 | 01:59:14 | 00:00:00 | |
| DO2JMG | 2026-09-01 05:30:56 | 52.69300 | 8.34088 | 179° | 9km/h | 31032m | 7.3m/s | -41.9°C | 0% | 10.3hPa | 2.7V | 18:12:15 | 01:59:15 | 00:00:00 | |
| DB0DAN | 2026-09-01 05:30:55 | 52.69302 | 8.34088 | 193° | 9km/h | 31025m | 6.3m/s | -41.9°C | 0.6% | 10.34hPa | 2.7V | 00:00:00 | 00:00:00 | 00:00:00 | |
| DL1XH-15 | 2026-09-01 05:30:54 | 52.69307 | 8.34086 | 152° | 7km/h | 30988m | 7.3m/s | -42°C | 2.3% | 10.4hPa | 2.7V | 08:30:00 | 01:59:08 | 00:00:00 | |
| BIOWL1-15 | 2026-09-01 05:30:52 | 52.69306 | 8.34090 | 103° | 2km/h | 31005m | 6.4m/s | -41.9°C | 0% | 10.4hPa | 2.6V | 18:12:15 | 01:59:11 | 00:00:00 | |
| DL1XH-west | 2026-09-01 05:30:49 | 52.69307 | 8.34086 | 153° | 7km/h | 30988m | 7.3m/s | -42°C | 0% | 10.4hPa | 2.7V | 18:12:15 | 01:59:08 | 00:00:00 | |
| DM0DOS-11 | 2026-09-01 05:30:48 | 52.69319 | 8.34078 | 145° | 13km/h | 30962m | 7.1m/s | -42°C | 2.3% | 10.4hPa | 2.7V | 08:30:00 | 01:59:04 | 00:00:00 | |
| HSKMA3-T | 2026-09-01 05:30:48 | 52.69309 | 8.34085 | 164° | 11km/h | 30981m | 6.4m/s | -42°C | 0% | 10.4hPa | 2.6V | 18:12:15 | 01:59:07 | 00:00:00 | |
| DO2JMG | 2026-09-01 05:30:45 | 52.69319 | 8.34078 | 145° | 13km/h | 30963m | 7.1m/s | -42.1°C | 0% | 10.4hPa | 2.7V | 18:12:15 | 01:59:04 | 00:00:00 | |
| HTAHTA | 2026-09-01 05:30:45 | 52.69321 | 8.34075 | 127° | 9km/h | 30956m | 6.9m/s | -42.1°C | 0.5% | 10.5hPa | 2.6V | 00:00:00 | 00:00:00 | 00:00:00 | |
| DO1YAY-16 | 2026-09-01 05:30:44 | 52.69321 | 8.34075 | 127° | 9km/h | 30956m | 6.9m/s | -42.1°C | 0.5% | 10.5hPa | 2.6V | 00:00:00 | 00:00:00 | 00:00:00 | |
| BIOWL1-15 | 2026-09-01 05:30:41 | 52.69324 | 8.34068 | 161° | 5km/h | 30938m | 7.2m/s | -42.2°C | 0% | 10.5hPa | 2.6V | 18:12:15 | 01:59:00 | 00:00:00 | |
| DB0DAN | 2026-09-01 05:30:40 | 52.69326 | 8.34068 | 199° | 7km/h | 30930m | 6.5m/s | -42.1°C | 0.6% | 10.49hPa | 2.6V | 00:00:00 | 00:00:00 | 00:00:00 | |
| DO9LL-15 | 2026-09-01 05:30:39 | 52.69327 | 8.34069 | 213° | 9km/h | 30925m | 5.1m/s | -42.1°C | 2.3% | 10.5hPa | 2.6V | 00:00:00 | 01:58:58 | 00:00:00 | |
| DM0DOS-11 | 2026-09-01 05:30:38 | 52.69330 | 8.34075 | 358° | 4km/h | 30899m | 6m/s | -42.2°C | 2.3% | 10.5hPa | 2.6V | 08:30:00 | 01:58:54 | 00:00:00 | |
| DL1XH-west | 2026-09-01 05:30:38 | 52.69329 | 8.34072 | 218° | 7km/h | 30919m | 5m/s | -42.2°C | 0% | 10.5hPa | 2.7V | 18:12:15 | 01:58:57 | 00:00:00 | |
| DO2JMG | 2026-09-01 05:30:34 | 52.69329 | 8.34075 | 19° | 4km/h | 30894m | 5.1m/s | -42.3°C | 0% | 10.6hPa | 2.6V | 18:12:15 | 01:58:53 | 00:00:00 | |
| BIOWL1-15 | 2026-09-01 05:30:31 | 52.69331 | 8.34073 | 174° | 11km/h | 30875m | 6.4m/s | -42.3°C | 0% | 10.6hPa | 2.7V | 18:12:15 | 01:58:50 | 00:00:00 | |
| BIOWL9-15 | 2026-09-01 05:30:30 | 52.69338 | 8.34071 | 164° | 15km/h | 30864m | 5.6m/s | -42.4°C | 0.6% | 10.6hPa | 2.7V | 00:00:00 | 00:00:00 | 00:00:00 | |
| DM0DOS-11 | 2026-09-01 05:30:28 | 52.69347 | 8.34065 | 220° | 2km/h | 30839m | 6.2m/s | -42.4°C | 2.4% | 10.6hPa | 2.7V | 08:30:00 | 01:58:44 | 00:00:00 | |
| DF8AY | 2026-09-01 05:30:28 | 52.69342 | 8.34069 | 158° | 15km/h | 30857m | 6.9m/s | -42.4°C | 0% | 10.6hPa | 2.6V | 18:12:15 | 01:58:47 | 00:00:00 | |
| DL1XH-west | 2026-09-01 05:30:27 | 52.69345 | 8.34067 | 147° | 11km/h | 30851m | 6.2m/s | -42.4°C | 0% | 10.7hPa | 2.7V | 18:12:15 | 01:58:46 | 00:00:00 | |
| DO2SHX-10 | 2026-09-01 05:30:27 | 52.69345 | 8.34067 | 147° | 5km/h | 30851m | 6.2m/s | -42.3°C | 2.4% | 10.6hPa | 2.7V | 00:00:00 | 01:58:46 | 00:00:00 | |
| DF4FW | 2026-09-01 05:30:26 | 52.69345 | 8.34067 | 148° | 11km/h | 30851m | 6.2m/s | -42.4°C | 0.6% | 10.6hPa | 2.7V | 00:00:00 | 00:00:00 | 00:00:00 | |
| DB0DAN | 2026-09-01 05:30:25 | 52.69347 | 8.34065 | 221° | 2km/h | 30839m | 6.2m/s | -42.4°C | 0.6% | 10.63hPa | 2.7V | 00:00:00 | 00:00:00 | 00:00:00 | |
| DL1XH-15 | 2026-09-01 05:30:25 | 52.69341 | 8.34089 | 328° | 11km/h | 30800m | 5.8m/s | -42.5°C | 2.4% | 10.7hPa | 2.7V | 08:30:00 | 01:58:38 | 00:00:00 | |
| DO2JMG | 2026-09-01 05:30:24 | 52.69348 | 8.34067 | 264° | 7km/h | 30832m | 7.7m/s | -42.5°C | 0% | 10.7hPa | 2.6V | 18:12:15 | 01:58:43 | 00:00:00 | |
| AA1-15 | 2026-09-01 05:30:23 | 52.69348 | 8.34071 | 276° | 13km/h | 30825m | 6.3m/s | -42.5°C | 0% | 10.7hPa | 2.6V | 18:12:15 | 01:58:42 | 00:00:00 | |
| BIOWL1-15 | 2026-09-01 05:30:21 | 52.69346 | 8.34082 | 300° | 15km/h | 30813m | 5.9m/s | -42.5°C | 0% | 10.7hPa | 2.7V | 18:12:15 | 01:58:40 | 00:00:00 | |
| DO2SHX-10 | 2026-09-01 05:30:21 | 52.69345 | 8.34082 | 301° | 13km/h | 30813m | 5.8m/s | -42.5°C | 2.4% | 10.7hPa | 2.7V | 00:00:00 | 01:58:40 | 00:00:00 | |
| GOEST3-10 | 2026-09-01 05:30:20 | 52.69343 | 8.34086 | 315° | 7km/h | 30807m | 7.4m/s | -42.5°C | 2.4% | 10.7hPa | 2.7V | 00:00:00 | 00:00:00 | 00:00:00 | |
| SMARD9-10 | 2026-09-01 05:30:19 | 52.69343 | 8.34086 | 315° | 13km/h | 30807m | 7.5m/s | -42.5°C | 0.6% | 10.7hPa | 2.7V | 00:00:00 | 00:00:00 | 00:00:00 | |
| DM0DOS-11 | 2026-09-01 05:30:18 | 52.69341 | 8.34096 | 206° | 13km/h | 30774m | 6.4m/s | -42.5°C | 2.4% | 10.8hPa | 2.7V | 08:30:00 | 01:58:34 | 00:00:00 | |
| DF8AY | 2026-09-01 05:30:18 | 52.69339 | 8.34091 | 335° | 7km/h | 30794m | 5.1m/s | -42.5°C | 0% | 10.7hPa | 2.6V | 18:12:15 | 01:58:37 | 00:00:00 | |
| DL1XH-west | 2026-09-01 05:30:17 | 52.69338 | 8.34092 | 298° | 4km/h | 30788m | 6.6m/s | -42.6°C | 0% | 10.7hPa | 2.6V | 18:12:15 | 01:58:36 | 00:00:00 | |
| HSKMA3-T | 2026-09-01 05:30:16 | 52.69339 | 8.34094 | 229° | 7km/h | 30781m | 7.6m/s | -42.5°C | 0% | 10.8hPa | 2.6V | 18:12:15 | 01:58:35 | 00:00:00 | |
| DB0UT-7 | 2026-09-01 05:30:16 | 52.69338 | 8.34094 | 229° | 15km/h | 30782m | 7.5m/s | -42.5°C | 2.4% | 10.7hPa | 2.7V | 00:00:00 | 00:00:00 | 00:00:00 | |
| DD1CC8 | 2026-09-01 05:30:15 | 52.69344 | 8.34098 | 196° | 16km/h | 30769m | 5.8m/s | -42.5°C | 0.6% | 10.8hPa | 2.7V | 00:00:00 | 00:00:00 | 00:00:00 | |
| DL1XH-15 | 2026-09-01 05:30:14 | 52.69358 | 8.34096 | 114° | 4km/h | 30736m | 6.7m/s | -42.6°C | 2.4% | 10.8hPa | 2.7V | 08:30:00 | 01:58:28 | 00:00:00 | |
| DO2JMG | 2026-09-01 05:30:13 | 52.69348 | 8.34100 | 189° | 16km/h | 30762m | 6m/s | -42.5°C | 0% | 10.8hPa | 2.7V | 18:12:15 | 01:58:32 | 00:00:00 | |
| AA1-15 | 2026-09-01 05:30:12 | 52.69352 | 8.34100 | 176° | 15km/h | 30756m | 7.1m/s | -42.6°C | 0% | 10.8hPa | 2.6V | 18:12:15 | 01:58:31 | 00:00:00 | |
| DD8BA-10 | 2026-09-01 05:30:12 | 52.69352 | 8.34100 | 176° | 7km/h | 30756m | 7.1m/s | -42.5°C | 2.4% | 10.8hPa | 2.6V | 00:00:00 | 00:00:00 | 08:30:00 | |
| DB0DAN | 2026-09-01 05:30:10 | 52.69357 | 8.34097 | 130° | 5km/h | 30743m | 5.9m/s | -42.6°C | 0.6% | 10.81hPa | 2.6V | 00:00:00 | 00:00:00 | 00:00:00 | |
| BIOWL1-15 | 2026-09-01 05:30:10 | 52.69357 | 8.34097 | 130° | 7km/h | 30743m | 5.9m/s | -42.6°C | 0% | 10.8hPa | 2.6V | 18:12:15 | 01:58:29 | 00:00:00 | |
| DL1XH-west | 2026-09-01 05:30:07 | 52.69358 | 8.34095 | 223° | 2km/h | 30722m | 6.2m/s | -42.7°C | 0% | 10.8hPa | 2.7V | 18:12:15 | 01:58:26 | 00:00:00 | |
| HSKMA3-T | 2026-09-01 05:30:06 | 52.69359 | 8.34095 | 182° | 4km/h | 30717m | 5m/s | -42.7°C | 0% | 10.8hPa | 2.6V | 18:12:15 | 01:58:25 | 00:00:00 | |
| DO2SHX-10 | 2026-09-01 05:30:06 | 52.69359 | 8.34095 | 182° | 5km/h | 30717m | 5.0m/s | -42.6°C | 2.4% | 10.8hPa | 2.6V | 00:00:00 | 01:58:25 | 00:00:00 | |
| DD1CC2-15 | 2026-09-01 05:30:05 | 52.69359 | 8.34095 | 183° | 4km/h | 30717m | 5.0m/s | -42.7°C | 0.6% | 10.8hPa | 2.6V | 00:00:00 | 00:00:00 | 00:00:00 | |
| DL1XH-15 | 2026-09-01 05:30:04 | 52.69379 | 8.34064 | 156° | 22km/h | 30670m | 6.4m/s | -42.8°C | 2.4% | 10.9hPa | 2.6V | 08:30:00 | 01:58:18 | 00:00:00 | |
| DO2JMG | 2026-09-01 05:30:02 | 52.69366 | 8.34081 | 130° | 22km/h | 30690m | 6.2m/s | -42.7°C | 0% | 10.9hPa | 2.7V | 18:12:15 | 01:58:21 | 00:00:00 | |
| AA1-15 | 2026-09-01 05:30:01 | 52.69370 | 8.34074 | 138° | 24km/h | 30684m | 6.2m/s | -42.8°C | 0% | 10.9hPa | 2.7V | 18:12:15 | 01:58:20 | 00:00:00 | |
| BIOWL1-15 | 2026-09-01 05:30:00 | 52.69374 | 8.34068 | 146° | 22km/h | 30677m | 7.8m/s | -42.8°C | 0% | 10.9hPa | 2.6V | 18:12:15 | 01:58:19 | 00:00:00 | |
| BIOWL9-15 | 2026-09-01 05:29:59 | 52.69384 | 8.34061 | 160° | 18km/h | 30664m | 5.4m/s | -42.8°C | 0.6% | 11.0hPa | 2.7V | 00:00:00 | 00:00:00 | 00:00:00 | |
| DM0DOS-11 | 2026-09-01 05:29:58 | 52.69397 | 8.34048 | 132° | 22km/h | 30645m | 7.4m/s | -42.9°C | 2.5% | 11hPa | 2.7V | 08:30:00 | 01:58:14 | 00:00:00 | |
| DF8AY | 2026-09-01 05:29:57 | 52.69389 | 8.34058 | 155° | 18km/h | 30658m | 5.2m/s | -42.9°C | 0% | 11hPa | 2.7V | 18:12:15 | 01:58:16 | 00:00:00 | |
| DL1XH-west | 2026-09-01 05:29:56 | 52.69393 | 8.34054 | 145° | 20km/h | 30653m | 6.8m/s | -42.9°C | 0% | 11hPa | 2.7V | 18:12:15 | 01:58:15 | 00:00:00 | |
| HSKMA3-T | 2026-09-01 05:29:55 | 52.69397 | 8.34048 | 133° | 22km/h | 30645m | 7.4m/s | -42.9°C | 0% | 11hPa | 2.7V | 18:12:15 | 01:58:14 | 00:00:00 | |
| DO2JMG | 2026-09-01 05:29:52 | 52.69406 | 8.34025 | 123° | 22km/h | 30625m | 7.4m/s | -42.9°C | 0% | 11hPa | 2.6V | 18:12:15 | 01:58:11 | 00:00:00 | |
| AA1-15 | 2026-09-01 05:29:50 | 52.69412 | 8.34012 | 133° | 18km/h | 30611m | 5.9m/s | -42.8°C | 0% | 11hPa | 2.7V | 18:12:15 | 01:58:09 | 00:00:00 | |
| BIOWL1-15 | 2026-09-01 05:29:49 | 52.69415 | 8.34007 | 132° | 18km/h | 30605m | 6.2m/s | -42.7°C | 0% | 11.1hPa | 2.7V | 18:12:15 | 01:58:08 | 00:00:00 | |
| DF8AY | 2026-09-01 05:29:47 | 52.69422 | 8.33993 | 120° | 24km/h | 30591m | 7.5m/s | -42.7°C | 0% | 11.1hPa | 2.6V | 18:12:15 | 01:58:06 | 00:00:00 | |
| DL1XH-west | 2026-09-01 05:29:45 | 52.69427 | 8.33975 | 118° | 26km/h | 30578m | 5.7m/s | -42.7°C | 0% | 11.1hPa | 2.7V | 18:12:15 | 01:58:04 | 00:00:00 | |
| HSKMA3-T | 2026-09-01 05:29:44 | 52.69430 | 8.33966 | 121° | 22km/h | 30572m | 7m/s | -42.6°C | 0% | 11.1hPa | 2.7V | 18:12:15 | 01:58:03 | 00:00:00 | |
| DO2JMG | 2026-09-01 05:29:41 | 52.69439 | 8.33948 | 126° | 16km/h | 30553m | 5.5m/s | -42.6°C | 0% | 11.2hPa | 2.6V | 18:12:15 | 01:58:00 | 00:00:00 | |
| DB0DAN | 2026-09-01 05:29:40 | 52.69441 | 8.33941 | 119° | 18km/h | 30547m | 7.3m/s | -42.5°C | 0.6% | 11.16hPa | 2.6V | 00:00:00 | 00:00:00 | 00:00:00 | |
| AA1-15 | 2026-09-01 05:29:40 | 52.69441 | 8.33941 | 120° | 18km/h | 30547m | 7.3m/s | -42.5°C | 0% | 11.2hPa | 2.6V | 18:12:15 | 01:57:59 | 00:00:00 | |
| DL3AQ-11 | 2026-09-01 05:29:40 | 52.69443 | 8.33934 | 109° | 20km/h | 30540m | 6.8m/s | -42.6°C | 0.6% | 11.2hPa | 2.6V | 00:00:00 | 00:00:00 | 00:00:00 | |
| DO2SHX-10 | 2026-09-01 05:29:39 | 52.69443 | 8.33934 | 110° | 20km/h | 30540m | 6.7m/s | -42.5°C | 2.5% | 11.1hPa | 2.6V | 00:00:00 | 01:57:58 | 00:00:00 | |
| DM0DOS-11 | 2026-09-01 05:29:38 | 52.69447 | 8.33904 | 94° | 13km/h | 30513m | 6.7m/s | -42.6°C | 2.5% | 11.2hPa | 2.6V | 08:30:00 | 01:57:54 | 00:00:00 | |
| BIOWL1-15 | 2026-09-01 05:29:38 | 52.69445 | 8.33925 | 104° | 22km/h | 30533m | 5.7m/s | -42.6°C | 0% | 11.2hPa | 2.7V | 18:12:15 | 01:57:57 | 00:00:00 | |
| DF8AY | 2026-09-01 05:29:37 | 52.69446 | 8.33917 | 100° | 20km/h | 30528m | 6m/s | -42.6°C | 0% | 11.2hPa | 2.7V | 18:12:15 | 01:57:56 | 00:00:00 | |
| DL1XH-west | 2026-09-01 05:29:34 | 52.69447 | 8.33899 | 94° | 13km/h | 30507m | 5.8m/s | -42.6°C | 0% | 11.2hPa | 2.6V | 18:12:15 | 01:57:53 | 00:00:00 | |
| HSKMA3-T | 2026-09-01 05:29:33 | 52.69447 | 8.33893 | 93° | 15km/h | 30501m | 6.6m/s | -42.6°C | 0% | 11.2hPa | 2.7V | 18:12:15 | 01:57:52 | 00:00:00 | |
| DO2JMG | 2026-09-01 05:29:31 | 52.69449 | 8.33878 | 99° | 22km/h | 30486m | 6.7m/s | -42.6°C | 0% | 11.3hPa | 2.7V | 18:12:15 | 01:57:50 | 00:00:00 | |
| AA1-15 | 2026-09-01 05:29:29 | 52.69451 | 8.33862 | 106° | 18km/h | 30473m | 7.6m/s | -42.5°C | 0% | 11.3hPa | 2.6V | 18:12:15 | 01:57:48 | 00:00:00 | |
| BIOWL1-15 | 2026-09-01 05:29:28 | 52.69452 | 8.33855 | 112° | 15km/h | 30466m | 6.9m/s | -42.4°C | 0% | 11.3hPa | 2.6V | 18:12:15 | 01:57:47 | 00:00:00 | |
| DF8AY | 2026-09-01 05:29:27 | 52.69454 | 8.33850 | 118° | 15km/h | 30460m | 5.7m/s | -42.4°C | 0% | 11.3hPa | 2.7V | 18:12:15 | 01:57:46 | 00:00:00 | |
| DO2SHX-10 | 2026-09-01 05:29:27 | 52.69454 | 8.33849 | 118° | 16km/h | 30460m | 5.7m/s | -42.3°C | 2.4% | 11.3hPa | 2.7V | 00:00:00 | 01:57:46 | 00:00:00 | |
| DB0DAN | 2026-09-01 05:29:25 | 52.69457 | 8.33838 | 114° | 16km/h | 30447m | 7.8m/s | -42.2°C | 0.6% | 11.32hPa | 2.7V | 00:00:00 | 00:00:00 | 00:00:00 | |
| DL1XH-west | 2026-09-01 05:29:24 | 52.69459 | 8.33831 | 112° | 18km/h | 30440m | 6.1m/s | -42.2°C | 0% | 11.3hPa | 2.6V | 18:12:15 | 01:57:43 | 00:00:00 | |
| HSKMA3-T | 2026-09-01 05:29:23 | 52.69461 | 8.33824 | 108° | 15km/h | 30434m | 5.5m/s | -42.2°C | 0% | 11.4hPa | 2.6V | 18:12:15 | 01:57:42 | 00:00:00 | |
| DO2JMG | 2026-09-01 05:29:20 | 52.69462 | 8.33814 | 66° | 4km/h | 30414m | 6.2m/s | -42.1°C | 0% | 11.4hPa | 2.7V | 18:12:15 | 01:57:39 | 00:00:00 | |
| DO3DL | 2026-09-01 05:29:20 | 52.69462 | 8.33814 | 67° | 4km/h | 30414m | 6.2m/s | -42.1°C | 0.6% | 11.4hPa | 2.7V | 00:00:00 | 00:00:00 | 00:00:00 | |
| DM0DOS-11 | 2026-09-01 05:29:18 | 52.69462 | 8.33798 | 107° | 9km/h | 30381m | 7.4m/s | -42°C | 2.4% | 11.4hPa | 2.7V | 08:30:00 | 01:57:34 | 00:00:00 | |
| BIOWL1-15 | 2026-09-01 05:29:18 | 52.69461 | 8.33810 | 78° | 7km/h | 30400m | 7.7m/s | -42.1°C | 0% | 11.4hPa | 2.6V | 18:12:15 | 01:57:37 | 00:00:00 | |
| DF8AY | 2026-09-01 05:29:16 | 52.69461 | 8.33802 | 99° | 11km/h | 30388m | 5.8m/s | -42.1°C | 0% | 11.4hPa | 2.6V | 18:12:15 | 01:57:35 | 00:00:00 | |
| DL1XH-west | 2026-09-01 05:29:13 | 52.69464 | 8.33793 | 135° | 9km/h | 30367m | 6m/s | -41.9°C | 0% | 11.4hPa | 2.7V | 18:12:15 | 01:57:32 | 00:00:00 | |
| HSKMA3-T | 2026-09-01 05:29:12 | 52.69466 | 8.33790 | 134° | 11km/h | 30361m | 6.2m/s | -41.9°C | 0% | 11.5hPa | 2.6V | 18:12:15 | 01:57:31 | 00:00:00 | |
| DD8BA-10 | 2026-09-01 05:29:12 | 52.69466 | 8.33790 | 134° | 11km/h | 30361m | 6.2m/s | -41.9°C | 2.4% | 11.4hPa | 2.6V | 00:00:00 | 00:00:00 | 00:00:00 | |
| DO2KSM | 2026-09-01 05:29:11 | 52.69466 | 8.33790 | 135° | 11km/h | 30361m | 6.2m/s | -41.9°C | 0.6% | 11.5hPa | 2.6V | 00:00:00 | 00:00:00 | 00:00:00 | |
| DB0DAN | 2026-09-01 05:29:10 | 52.69471 | 8.33781 | 135° | 16km/h | 30347m | 6.2m/s | -41.9°C | 0.5% | 11.51hPa | 2.6V | 00:00:00 | 00:00:00 | 00:00:00 | |
| DO2JMG | 2026-09-01 05:29:09 | 52.69474 | 8.33776 | 143° | 16km/h | 30341m | 5.1m/s | -41.9°C | 0% | 11.5hPa | 2.7V | 18:12:15 | 01:57:28 | 00:00:00 | |
| DO9LL-15 | 2026-09-01 05:29:09 | 52.69474 | 8.33776 | 143° | 16km/h | 30342m | 5.0m/s | -41.8°C | 2.4% | 11.5hPa | 2.6V | 00:00:00 | 01:57:28 | 00:00:00 | |
| DM0DOS-11 | 2026-09-01 05:29:08 | 52.69484 | 8.33773 | 215° | 4km/h | 30316m | 5.5m/s | -41.7°C | 2.3% | 11.6hPa | 2.6V | 08:30:00 | 01:57:24 | 00:00:00 | |
| AA1-15 | 2026-09-01 05:29:07 | 52.69480 | 8.33772 | 174° | 11km/h | 30329m | 7.7m/s | -41.8°C | 0% | 11.6hPa | 2.7V | 18:12:15 | 01:57:26 | 00:00:00 | |
| DF8AY | 2026-09-01 05:29:05 | 52.69484 | 8.33773 | 215° | 4km/h | 30316m | 5.5m/s | -41.7°C | 0% | 11.6hPa | 2.6V | 18:12:15 | 01:57:24 | 00:00:00 | |
| DL1XH-west | 2026-09-01 05:29:03 | 52.69484 | 8.33772 | 59° | 7km/h | 30302m | 7.6m/s | -41.6°C | 0% | 11.6hPa | 2.7V | 18:12:15 | 01:57:22 | 00:00:00 | |
| HSKMA3-T | 2026-09-01 05:29:01 | 52.69480 | 8.33761 | 65° | 20km/h | 30289m | 5.7m/s | -41.6°C | 0% | 11.6hPa | 2.7V | 18:12:15 | 01:57:20 | 00:00:00 | |
| BIOWL1-15 | 2026-09-01 05:29:01 | 52.69479 | 8.33733 | 127° | 16km/h | 30263m | 6.5m/s | -41.9°C | 0% | 11.7hPa | 2.7V | 18:12:15 | 01:57:16 | 00:00:00 | |
| DL3AQ-11 | 2026-09-01 05:29:00 | 52.69477 | 8.33746 | 80° | 16km/h | 30277m | 6.9m/s | -41.8°C | 0.5% | 11.6hPa | 2.7V | 00:00:00 | 00:00:00 | 00:00:00 | |
| DO2SHX-10 | 2026-09-01 05:28:59 | 52.69477 | 8.33746 | 81° | 16km/h | 30277m | 6.9m/s | -41.7°C | 2.3% | 11.6hPa | 2.7V | 00:00:00 | 01:57:18 | 00:00:00 | |
| DM0DOS-11 | 2026-09-01 05:28:58 | 52.69487 | 8.33721 | 139° | 24km/h | 30250m | 7.5m/s | -42°C | 2.4% | 11.7hPa | 2.7V | 08:30:00 | 01:57:14 | 00:00:00 | |
| DO2JMG | 2026-09-01 05:28:58 | 52.69477 | 8.33739 | 104° | 15km/h | 30270m | 6.9m/s | -41.8°C | 0% | 11.6hPa | 2.6V | 18:12:15 | 01:57:17 | 00:00:00 | |
| AA1-15 | 2026-09-01 05:28:56 | 52.69482 | 8.33727 | 138° | 20km/h | 30257m | 6.7m/s | -42°C | 0% | 11.7hPa | 2.7V | 18:12:15 | 01:57:15 | 00:00:00 | |
| DF8AY | 2026-09-01 05:28:55 | 52.69486 | 8.33721 | 139° | 24km/h | 30250m | 7.5m/s | -42°C | 0% | 11.7hPa | 2.7V | 18:12:15 | 01:57:14 | 00:00:00 | |
| DL1XH-15 | 2026-09-01 05:28:54 | 52.69500 | 8.33683 | 63° | 11km/h | 30211m | 5.9m/s | -42.1°C | 2.4% | 11.7hPa | 2.7V | 08:30:00 | 01:57:08 | 00:00:00 | |
| DL1XH-west | 2026-09-01 05:28:53 | 52.69495 | 8.33707 | 127° | 24km/h | 30236m | 5.4m/s | -42°C | 0% | 11.7hPa | 2.6V | 18:12:15 | 01:57:12 | 00:00:00 | |
| HSKMA3-T | 2026-09-01 05:28:51 | 52.69500 | 8.33693 | 114° | 15km/h | 30225m | 7.3m/s | -42°C | 0% | 11.7hPa | 2.7V | 18:12:15 | 01:57:10 | 00:00:00 | |
| EDDB2-12 | 2026-09-01 05:28:50 | 52.69500 | 8.33683 | 63° | 11km/h | 30211m | 5.9m/s | -42.1°C | 0.6% | 11.8hPa | 2.7V | 00:00:00 | 00:00:00 | 00:00:00 | |
| DL4XJ-10 | 2026-09-01 05:28:49 | 52.69500 | 8.33683 | 64° | 20km/h | 30211m | 5.9m/s | -44.6°C | 0% | 0hPa | 2.7V | 00:00:00 | 00:00:00 | 00:00:00 | |
| DM0DOS-11 | 2026-09-01 05:28:48 | 52.69490 | 8.33653 | 71° | 29km/h | 30185m | 5.6m/s | -42°C | 2.4% | 11.8hPa | 2.7V | 08:30:00 | 01:57:04 | 00:00:00 | |
| DO2JMG | 2026-09-01 05:28:47 | 52.69496 | 8.33672 | 57° | 20km/h | 30199m | 7.2m/s | -42°C | 0% | 11.8hPa | 2.6V | 18:12:15 | 01:57:06 | 00:00:00 | |
| BIOWL1-15 | 2026-09-01 05:28:46 | 52.69493 | 8.33664 | 64° | 27km/h | 30192m | 7.3m/s | -42°C | 0% | 11.8hPa | 2.6V | 18:12:15 | 01:57:05 | 00:00:00 | |
| AA1-15 | 2026-09-01 05:28:45 | 52.69490 | 8.33653 | 71° | 29km/h | 30185m | 5.6m/s | -42°C | 0% | 11.8hPa | 2.7V | 18:12:15 | 01:57:04 | 00:00:00 | |
| DL1XH-15 | 2026-09-01 05:28:44 | 52.69495 | 8.33602 | 122° | 18km/h | 30145m | 7.1m/s | -41.8°C | 2.3% | 11.9hPa | 2.7V | 08:30:00 | 01:56:58 | 00:00:00 | |
| DF8AY | 2026-09-01 05:28:44 | 52.69489 | 8.33642 | 80° | 27km/h | 30180m | 5.1m/s | -42°C | 0% | 11.8hPa | 2.7V | 18:12:15 | 01:57:03 | 00:00:00 | |
| DJ2DS-15 | 2026-09-01 05:28:44 | 52.69489 | 8.33642 | 79° | 27km/h | 30180m | 5.1m/s | -42.0°C | 0.6% | 11.8hPa | 2.7V | 00:00:00 | 00:00:00 | 00:00:00 | |
| DL1XH-west | 2026-09-01 05:28:43 | 52.69488 | 8.33631 | 87° | 24km/h | 30173m | 7.7m/s | -42°C | 0% | 11.8hPa | 2.7V | 18:12:15 | 01:57:02 | 00:00:00 | |
| DL4BBY-15 | 2026-09-01 05:28:43 | 52.69488 | 8.33631 | 88° | 20km/h | 30174m | 7.6m/s | -44.5°C | 0% | 0hPa | 2.6V | 00:00:00 | 00:00:00 | 00:00:00 | |
| DD8BA-10 | 2026-09-01 05:28:42 | 52.69488 | 8.33622 | 103° | 18km/h | 30166m | 7.2m/s | -41.9°C | 2.4% | 11.8hPa | 2.6V | 00:00:00 | 00:00:00 | 08:30:00 | |
| DF4FW | 2026-09-01 05:28:41 | 52.69488 | 8.33622 | 104° | 20km/h | 30166m | 7.2m/s | -41.9°C | 0.6% | 11.9hPa | 2.6V | 00:00:00 | 00:00:00 | 00:00:00 | |
| DB0DAN | 2026-09-01 05:28:40 | 52.69492 | 8.33608 | 127° | 16km/h | 30152m | 6.5m/s | -41.8°C | 0.5% | 11.84hPa | 2.6V | 00:00:00 | 00:00:00 | 00:00:00 | |
| HSKMA3-T | 2026-09-01 05:28:40 | 52.69492 | 8.33608 | 127° | 18km/h | 30152m | 6.5m/s | -41.8°C | 0% | 11.8hPa | 2.6V | 18:12:15 | 01:56:59 | 00:00:00 | |
| BIOWL1-15 | 2026-09-01 05:28:38 | 52.69497 | 8.33583 | 70° | 15km/h | 30127m | 6m/s | -41.8°C | 0% | 11.9hPa | 2.6V | 18:12:15 | 01:56:55 | 00:00:00 | |
| DO2JMG | 2026-09-01 05:28:37 | 52.69497 | 8.33589 | 89° | 16km/h | 30133m | 5.3m/s | -41.8°C | 0% | 11.9hPa | 2.7V | 18:12:15 | 01:56:56 | 00:00:00 | |
| DF8AY | 2026-09-01 05:28:34 | 52.69492 | 8.33573 | 43° | 16km/h | 30113m | 6.5m/s | -41.9°C | 0% | 11.9hPa | 2.6V | 18:12:15 | 01:56:53 | 00:00:00 | |
| DL1XH-west | 2026-09-01 05:28:32 | 52.69486 | 8.33561 | 54° | 24km/h | 30102m | 6.1m/s | -41.9°C | 0% | 12hPa | 2.7V | 18:12:15 | 01:56:51 | 00:00:00 | |
| HSKMA3-T | 2026-09-01 05:28:30 | 52.69480 | 8.33541 | 72° | 31km/h | 30088m | 5.9m/s | -41.9°C | 0% | 12hPa | 2.6V | 18:12:15 | 01:56:49 | 00:00:00 | |
| GOEST3-10 | 2026-09-01 05:28:30 | 52.69480 | 8.33540 | 72° | 22km/h | 30088m | 5.9m/s | -41.9°C | 2.3% | 11.9hPa | 2.6V | 00:00:00 | 01:56:49 | 00:00:00 | |
| DF5WG-10 | 2026-09-01 05:28:29 | 52.69477 | 8.33528 | 80° | 20km/h | 30082m | 5.5m/s | -41.9°C | 2.3% | 11.9hPa | 2.6V | 00:00:00 | 01:56:48 | 00:00:00 | |
| DM0DOS-11 | 2026-09-01 05:28:28 | 52.69479 | 8.33491 | 115° | 15km/h | 30056m | 5.6m/s | -42°C | 2.3% | 12.1hPa | 2.7V | 08:30:00 | 01:56:44 | 00:00:00 | |
| BIOWL1-15 | 2026-09-01 05:28:27 | 52.69479 | 8.33491 | 116° | 15km/h | 30056m | 5.6m/s | -42°C | 0% | 12.1hPa | 2.7V | 18:12:15 | 01:56:44 | 00:00:00 | |
| DO2JMG | 2026-09-01 05:28:27 | 52.69477 | 8.33505 | 95° | 22km/h | 30068m | 7.3m/s | -42°C | 0% | 12.1hPa | 2.7V | 18:12:15 | 01:56:46 | 00:00:00 | |
| DD1CC3-15 | 2026-09-01 05:28:26 | 52.69477 | 8.33505 | 96° | 22km/h | 30069m | 7.3m/s | -42.0°C | 0.6% | 12.0hPa | 2.7V | 00:00:00 | 00:00:00 | 00:00:00 | |
| DB0DAN | 2026-09-01 05:28:25 | 52.69479 | 8.33491 | 116° | 13km/h | 30056m | 5.6m/s | -42°C | 0.6% | 12.05hPa | 2.7V | 00:00:00 | 00:00:00 | 00:00:00 | |
| DF8AY | 2026-09-01 05:28:24 | 52.69480 | 8.33486 | 114° | 13km/h | 30050m | 6.2m/s | -42.1°C | 0% | 12hPa | 2.6V | 18:12:15 | 01:56:43 | 00:00:00 | |
| DL1XH-west | 2026-09-01 05:28:22 | 52.69482 | 8.33474 | 93° | 16km/h | 30037m | 6.2m/s | -42.2°C | 0% | 12.1hPa | 2.6V | 18:12:15 | 01:56:41 | 00:00:00 | |
| HSKMA3-T | 2026-09-01 05:28:19 | 52.69479 | 8.33453 | 59° | 16km/h | 30019m | 7m/s | -42.4°C | 0% | 12.1hPa | 2.6V | 18:12:15 | 01:56:38 | 00:00:00 | |
| EDDB2-12 | 2026-09-01 05:28:19 | 52.69477 | 8.33447 | 48° | 15km/h | 30012m | 7.3m/s | -42.4°C | 0.6% | 12.1hPa | 2.6V | 00:00:00 | 00:00:00 | 00:00:00 | |
| DM0DOS-11 | 2026-09-01 05:28:18 | 52.69468 | 8.33433 | 58° | 18km/h | 29994m | 6.8m/s | -42.4°C | 2.3% | 12.1hPa | 2.6V | 08:30:00 | 01:56:34 | 00:00:00 | |
| DO2JMG | 2026-09-01 05:28:16 | 52.69471 | 8.33438 | 44° | 16km/h | 30000m | 5.6m/s | -42.4°C | 0% | 12.1hPa | 2.7V | 18:12:15 | 01:56:35 | 00:00:00 | |
| BIOWL1-15 | 2026-09-01 05:28:15 | 52.69468 | 8.33433 | 58° | 18km/h | 29994m | 6.9m/s | -42.4°C | 0% | 12.1hPa | 2.6V | 18:12:15 | 01:56:34 | 00:00:00 | |
| AA1-15 | 2026-09-01 05:28:14 | 52.69466 | 8.33425 | 75° | 20km/h | 29987m | 6.9m/s | -42.4°C | 0% | 12.2hPa | 2.6V | 18:12:15 | 01:56:33 | 00:00:00 | |
| DF8AY | 2026-09-01 05:28:13 | 52.69465 | 8.33417 | 89° | 22km/h | 29980m | 6.1m/s | -42.4°C | 0% | 12.2hPa | 2.7V | 18:12:15 | 01:56:32 | 00:00:00 | |
| DL1XH-west | 2026-09-01 05:28:11 | 52.69467 | 8.33401 | 107° | 16km/h | 29967m | 7.5m/s | -42.5°C | 0% | 12.2hPa | 2.6V | 18:12:15 | 01:56:30 | 00:00:00 | |
| DO2SHX-10 | 2026-09-01 05:28:11 | 52.69467 | 8.33401 | 108° | 13km/h | 29967m | 7.5m/s | -42.5°C | 2.4% | 12.1hPa | 2.6V | 00:00:00 | 01:56:30 | 00:00:00 | |
| HTAHTA | 2026-09-01 05:28:10 | 52.69470 | 8.33391 | 122° | 9km/h | 29954m | 5.4m/s | -42.5°C | 0.6% | 12.2hPa | 2.6V | 00:00:00 | 00:00:00 | 00:00:00 | |
| DO1YAY-16 | 2026-09-01 05:28:09 | 52.69471 | 8.33387 | 118° | 9km/h | 29949m | 6.0m/s | -42.6°C | 0.6% | 12.2hPa | 2.6V | 00:00:00 | 00:00:00 | 00:00:00 | |
| DM0DOS-11 | 2026-09-01 05:28:08 | 52.69471 | 8.33373 | 66° | 13km/h | 29930m | 5.7m/s | -42.8°C | 2.5% | 12.3hPa | 2.6V | 08:30:00 | 01:56:24 | 00:00:00 | |
| HSKMA3-T | 2026-09-01 05:28:08 | 52.69471 | 8.33387 | 119° | 11km/h | 29948m | 6m/s | -42.6°C | 0% | 12.2hPa | 2.7V | 18:12:15 | 01:56:27 | 00:00:00 | |
| BIOWL1-15 | 2026-09-01 05:28:08 | 52.69470 | 8.33369 | 44° | 13km/h | 29923m | 6.6m/s | -42.8°C | 0% | 12.3hPa | 2.7V | 18:12:15 | 01:56:23 | 00:00:00 | |
| DO2JMG | 2026-09-01 05:28:05 | 52.69471 | 8.33373 | 67° | 13km/h | 29930m | 5.7m/s | -42.8°C | 0% | 12.3hPa | 2.6V | 18:12:15 | 01:56:24 | 00:00:00 | |
| DF8AY | 2026-09-01 05:28:03 | 52.69467 | 8.33366 | 19° | 13km/h | 29916m | 7.5m/s | -42.9°C | 0% | 12.3hPa | 2.7V | 18:12:15 | 01:56:22 | 00:00:00 | |
| DL1XH-west | 2026-09-01 05:28:01 | 52.69461 | 8.33366 | 350° | 11km/h | 29904m | 4.5m/s | -42.9°C | 0% | 12.3hPa | 2.6V | 18:12:15 | 01:56:20 | 00:00:00 | |
| HSKMA3-T | 2026-09-01 05:27:58 | 52.69456 | 8.33363 | 80° | 9km/h | 29887m | 6.4m/s | -42.9°C | 0% | 12.4hPa | 2.7V | 18:12:15 | 01:56:17 | 00:00:00 | |
| DL1CLM-18 | 2026-09-01 05:27:57 | 52.69456 | 8.33362 | 81° | 9km/h | 29887m | 6.4m/s | -42.9°C | 0.6% | 12.4hPa | 2.6V | 00:00:00 | 00:00:00 | 00:00:00 | |
| DL3OBA | 2026-09-01 05:27:56 | 52.69456 | 8.33358 | 102° | 13km/h | 29881m | 5.9m/s | -42.9°C | 0.6% | 12.4hPa | 2.6V | 00:00:00 | 00:00:00 | 00:00:00 | |
| DB0DAN | 2026-09-01 05:27:55 | 52.69458 | 8.33349 | 122° | 11km/h | 29868m | 7.3m/s | -42.9°C | 0.6% | 12.39hPa | 2.6V | 00:00:00 | 00:00:00 | 00:00:00 | |
| DO2JMG | 2026-09-01 05:27:54 | 52.69459 | 8.33345 | 132° | 11km/h | 29861m | 5.8m/s | -42.9°C | 0% | 12.4hPa | 2.6V | 18:12:15 | 01:56:13 | 00:00:00 | |
| BIOWL1-15 | 2026-09-01 05:27:53 | 52.69461 | 8.33342 | 138° | 11km/h | 29855m | 5.5m/s | -42.9°C | 0% | 12.4hPa | 2.6V | 18:12:15 | 01:56:12 | 00:00:00 | |
| AA1-15 | 2026-09-01 05:27:52 | 52.69464 | 8.33338 | 137° | 13km/h | 29850m | 6.2m/s | -42.9°C | 0% | 12.4hPa | 2.7V | 18:12:15 | 01:56:11 | 00:00:00 | |
| DL1XH-west | 2026-09-01 05:27:50 | 52.69469 | 8.33329 | 129° | 18km/h | 29836m | 5.7m/s | -42.8°C | 0% | 12.5hPa | 2.7V | 18:12:15 | 01:56:09 | 00:00:00 | |
| EDDB2-12 | 2026-09-01 05:27:48 | 52.69477 | 8.33315 | 148° | 9km/h | 29819m | 7.1m/s | -42.9°C | 0.6% | 12.5hPa | 2.6V | 00:00:00 | 00:00:00 | 00:00:00 | |
| HSKMA3-T | 2026-09-01 05:27:47 | 52.69477 | 8.33315 | 148° | 11km/h | 29819m | 7.1m/s | -42.9°C | 0% | 12.5hPa | 2.6V | 18:12:15 | 01:56:06 | 00:00:00 | |
| BIOWL1-15 | 2026-09-01 05:27:45 | 52.69482 | 8.33307 | 101° | 11km/h | 29795m | 7.3m/s | -43°C | 0% | 12.5hPa | 2.6V | 18:12:15 | 01:56:02 | 00:00:00 | |
| DL4XJ-10 | 2026-09-01 05:27:45 | 52.69480 | 8.33313 | 151° | 18km/h | 29807m | 5.1m/s | -45.5°C | 0% | 0hPa | 2.7V | 00:00:00 | 00:00:00 | 00:00:00 | |
| DL1XH-15 | 2026-09-01 05:27:44 | 52.69485 | 8.33275 | 104° | 20km/h | 29769m | 6.8m/s | -43.1°C | 2.4% | 12.6hPa | 2.7V | 08:30:00 | 01:55:58 | 00:00:00 | |
| DO2JMG | 2026-09-01 05:27:44 | 52.69481 | 8.33311 | 115° | 7km/h | 29802m | 5.2m/s | -43°C | 0% | 12.5hPa | 2.7V | 18:12:15 | 01:56:03 | 00:00:00 | |
| AA1-15 | 2026-09-01 05:27:41 | 52.69483 | 8.33293 | 97° | 22km/h | 29782m | 5.9m/s | -43.1°C | 0% | 12.6hPa | 2.6V | 18:12:15 | 01:56:00 | 00:00:00 | |
| DB0DAN | 2026-09-01 05:27:40 | 52.69484 | 8.33284 | 100° | 22km/h | 29776m | 6.7m/s | -43.1°C | 0.6% | 12.56hPa | 2.7V | 00:00:00 | 00:00:00 | 00:00:00 | |
| DL1XH-west | 2026-09-01 05:27:39 | 52.69485 | 8.33275 | 104° | 22km/h | 29769m | 6.8m/s | -43.2°C | 0% | 12.6hPa | 2.7V | 18:12:15 | 01:55:58 | 00:00:00 | |
| HSKMA3-T | 2026-09-01 05:27:36 | 52.69490 | 8.33252 | 112° | 20km/h | 29752m | 6.3m/s | -43°C | 0% | 12.6hPa | 2.6V | 18:12:15 | 01:55:55 | 00:00:00 | |
| BIOWL1-15 | 2026-09-01 05:27:34 | 52.69495 | 8.33220 | 108° | 16km/h | 29728m | 5.8m/s | -43.1°C | 0% | 12.7hPa | 2.6V | 18:12:15 | 01:55:51 | 00:00:00 | |
| DL1XH-15 | 2026-09-01 05:27:34 | 52.69502 | 8.33206 | 139° | 16km/h | 29709m | 5.1m/s | -43.2°C | 2.4% | 12.7hPa | 2.7V | 08:30:00 | 01:55:48 | 00:00:00 | |
| DO2JMG | 2026-09-01 05:27:33 | 52.69494 | 8.33227 | 101° | 20km/h | 29734m | 5.2m/s | -43°C | 0% | 12.7hPa | 2.7V | 18:12:15 | 01:55:52 | 00:00:00 | |
| AA1-15 | 2026-09-01 05:27:30 | 52.69499 | 8.33210 | 139° | 15km/h | 29715m | 6m/s | -43.2°C | 0% | 12.7hPa | 2.7V | 18:12:15 | 01:55:49 | 00:00:00 | |
| DL1XH-west | 2026-09-01 05:27:29 | 52.69502 | 8.33206 | 140° | 16km/h | 29709m | 5.1m/s | -43.2°C | 0% | 12.7hPa | 2.7V | 18:12:15 | 01:55:48 | 00:00:00 | |
| HSKMA3-T | 2026-09-01 05:27:26 | 52.69511 | 8.33183 | 112° | 29km/h | 29691m | 5.5m/s | -43.3°C | 0% | 12.7hPa | 2.7V | 18:12:15 | 01:55:45 | 00:00:00 | |
| DB0DAN | 2026-09-01 05:27:25 | 52.69514 | 8.33170 | 110° | 31km/h | 29686m | 5.2m/s | -43.3°C | 0.6% | 12.73hPa | 2.7V | 00:00:00 | 00:00:00 | 00:00:00 | |
| DL4XJ-10 | 2026-09-01 05:27:25 | 52.69514 | 8.33170 | 110° | 27km/h | 29686m | 5.2m/s | -45.9°C | 0% | 0hPa | 2.6V | 00:00:00 | 00:00:00 | 00:00:00 | |
| DL1XH-15 | 2026-09-01 05:27:24 | 52.69528 | 8.33103 | 94° | 26km/h | 29651m | 6.7m/s | -43.7°C | 2.6% | 12.8hPa | 2.6V | 08:30:00 | 01:55:38 | 00:00:00 | |
| DO2JMG | 2026-09-01 05:27:22 | 52.69523 | 8.33133 | 114° | 29km/h | 29667m | 5.5m/s | -43.6°C | 0% | 12.8hPa | 2.7V | 18:12:15 | 01:55:41 | 00:00:00 | |
| DF8AY | 2026-09-01 05:27:20 | 52.69527 | 8.33113 | 104° | 24km/h | 29657m | 5.5m/s | -43.7°C | 0% | 12.8hPa | 2.6V | 18:12:15 | 01:55:39 | 00:00:00 | |
| AA1-15 | 2026-09-01 05:27:19 | 52.69528 | 8.33103 | 94° | 26km/h | 29651m | 6.7m/s | -43.8°C | 0% | 12.8hPa | 2.6V | 18:12:15 | 01:55:38 | 00:00:00 | |
| DL1XH-west | 2026-09-01 05:27:18 | 52.69528 | 8.33092 | 86° | 27km/h | 29644m | 6.5m/s | -43.8°C | 0% | 12.8hPa | 2.6V | 18:12:15 | 01:55:37 | 00:00:00 | |
| HSKMA3-T | 2026-09-01 05:27:16 | 52.69527 | 8.33069 | 84° | 26km/h | 29632m | 5.4m/s | -43.9°C | 0% | 12.9hPa | 2.7V | 18:12:15 | 01:55:35 | 00:00:00 | |
| DB0UT-7 | 2026-09-01 05:27:16 | 52.69527 | 8.33069 | 84° | 26km/h | 29633m | 5.4m/s | -43.9°C | 2.6% | 12.8hPa | 2.7V | 00:00:00 | 00:00:00 | 00:00:00 | |
| DF5WG-10 | 2026-09-01 05:27:15 | 52.69526 | 8.33059 | 89° | 24km/h | 29627m | 7.3m/s | -43.9°C | 2.6% | 12.8hPa | 2.7V | 00:00:00 | 01:55:34 | 00:00:00 | |
| DL1XH-15 | 2026-09-01 05:27:14 | 52.69526 | 8.32998 | 84° | 29km/h | 29589m | 6.3m/s | -44.2°C | 2.6% | 12.9hPa | 2.7V | 08:30:00 | 01:55:28 | 00:00:00 | |
| DO2JMG | 2026-09-01 05:27:12 | 52.69527 | 8.33031 | 93° | 24km/h | 29608m | 6.6m/s | -44.1°C | 0% | 12.9hPa | 2.6V | 18:12:15 | 01:55:31 | 00:00:00 | |
| BIOWL1-15 | 2026-09-01 05:27:11 | 52.69527 | 8.33021 | 86° | 26km/h | 29602m | 7.1m/s | -44.2°C | 0% | 12.9hPa | 2.7V | 18:12:15 | 01:55:30 | 00:00:00 | |
| DB0DAN | 2026-09-01 05:27:10 | 52.69527 | 8.33010 | 84° | 27km/h | 29595m | 5.7m/s | -44.2°C | 0.7% | 12.9hPa | 2.7V | 00:00:00 | 00:00:00 | 00:00:00 | |
| AA1-15 | 2026-09-01 05:27:09 | 52.69526 | 8.32998 | 85° | 29km/h | 29589m | 6.3m/s | -44.2°C | 0% | 12.9hPa | 2.7V | 18:12:15 | 01:55:28 | 00:00:00 | |
| DO9LL-15 | 2026-09-01 05:27:09 | 52.69526 | 8.32998 | 85° | 24km/h | 29590m | 6.3m/s | -44.2°C | 2.6% | 12.9hPa | 2.7V | 00:00:00 | 01:55:28 | 00:00:00 | |
| DM0DOS-11 | 2026-09-01 05:27:08 | 52.69522 | 8.32953 | 69° | 29km/h | 29566m | 6.7m/s | -44.2°C | 2.6% | 13hPa | 2.7V | 08:30:00 | 01:55:24 | 00:00:00 | |
| DL1XH-west | 2026-09-01 05:27:07 | 52.69525 | 8.32975 | 84° | 27km/h | 29577m | 5m/s | -44.1°C | 0% | 13hPa | 2.6V | 18:12:15 | 01:55:26 | 00:00:00 | |
| HSKMA3-T | 2026-09-01 05:27:05 | 52.69522 | 8.32953 | 69° | 29km/h | 29566m | 6.7m/s | -44.2°C | 0% | 13hPa | 2.7V | 18:12:15 | 01:55:24 | 00:00:00 | |
| DO2JMG | 2026-09-01 05:27:01 | 52.69506 | 8.32908 | 56° | 27km/h | 29541m | 6.9m/s | -44.1°C | 0% | 13.1hPa | 2.6V | 18:12:15 | 01:55:20 | 00:00:00 | |
| DF8AY | 2026-09-01 05:26:59 | 52.69500 | 8.32893 | 65° | 16km/h | 29528m | 4.9m/s | -44°C | 0% | 13.1hPa | 2.7V | 18:12:15 | 01:55:18 | 00:00:00 | |
| AA1-15 | 2026-09-01 05:26:58 | 52.69499 | 8.32887 | 72° | 16km/h | 29524m | 5m/s | -44.1°C | 0% | 13.1hPa | 2.7V | 18:12:15 | 01:55:17 | 00:00:00 | |
| DL1XH-west | 2026-09-01 05:26:57 | 52.69497 | 8.32879 | 73° | 20km/h | 29517m | 6.9m/s | -44.2°C | 0% | 13.1hPa | 2.7V | 18:12:15 | 01:55:16 | 00:00:00 | |
| DJTTGO | 2026-09-01 05:26:56 | 52.69497 | 8.32879 | 74° | 20km/h | 29518m | 6.9m/s | -44.1°C | 0.7% | 13.1hPa | 2.6V | 00:00:00 | 00:00:00 | 00:00:00 | |
| DB0DAN | 2026-09-01 05:26:55 | 52.69494 | 8.32860 | 75° | 26km/h | 29505m | 5.4m/s | -44.1°C | 0.7% | 13.1hPa | 2.6V | 00:00:00 | 00:00:00 | 00:00:00 | |
| HSKMA3-T | 2026-09-01 05:26:54 | 52.69492 | 8.32848 | 76° | 27km/h | 29499m | 5.4m/s | -44.2°C | 0% | 13.1hPa | 2.6V | 18:12:15 | 01:55:13 | 00:00:00 | |
| DO2JMG | 2026-09-01 05:26:50 | 52.69484 | 8.32811 | 53° | 22km/h | 29476m | 5.5m/s | -44.1°C | 0% | 13.2hPa | 2.6V | 18:12:15 | 01:55:09 | 00:00:00 | |
| DL1ZP-14 | 2026-09-01 05:26:50 | 52.69480 | 8.32804 | 43° | 24km/h | 29470m | 7.4m/s | -44.1°C | 0.6% | 13.2hPa | 2.7V | 00:00:00 | 00:00:00 | 00:00:00 | |
| DD1CC9-15 | 2026-09-01 05:26:49 | 52.69484 | 8.32811 | 54° | 22km/h | 29476m | 5.5m/s | -44.1°C | 0.7% | 13.2hPa | 2.7V | 00:00:00 | 00:00:00 | 00:00:00 | |
| DM0DOS-11 | 2026-09-01 05:26:48 | 52.69459 | 8.32781 | 26° | 18km/h | 29444m | 6.5m/s | -44°C | 2.6% | 13.2hPa | 2.7V | 08:30:00 | 01:55:04 | 00:00:00 | |
| DF8AY | 2026-09-01 05:26:48 | 52.69475 | 8.32797 | 36° | 27km/h | 29463m | 6.2m/s | -44.1°C | 0% | 13.2hPa | 2.7V | 18:12:15 | 01:55:07 | 00:00:00 | |
| DL1XH-west | 2026-09-01 05:26:46 | 52.69464 | 8.32785 | 28° | 24km/h | 29450m | 6.6m/s | -44.1°C | 0% | 13.2hPa | 2.6V | 18:12:15 | 01:55:05 | 00:00:00 | |
| BUE01 | 2026-09-01 05:26:46 | 52.69459 | 8.32781 | 26° | 18km/h | 29444m | 6.5m/s | -44.1°C | 0.6% | 13.2hPa | 2.7V | 00:00:00 | 00:00:00 | 00:00:00 | |
| DL4XJ-10 | 2026-09-01 05:26:45 | 52.69458 | 8.32781 | 27° | 20km/h | 29443m | 6.4m/s | -46.6°C | 0% | 0hPa | 2.7V | 00:00:00 | 00:00:00 | 00:00:00 | |
| DL1XH-15 | 2026-09-01 05:26:44 | 52.69440 | 8.32748 | 53° | 20km/h | 29409m | 5.4m/s | -44.1°C | 2.6% | 13.3hPa | 2.7V | 08:30:00 | 01:54:58 | 00:00:00 | |
| HSKMA3-T | 2026-09-01 05:26:43 | 52.69452 | 8.32774 | 42° | 16km/h | 29433m | 5.4m/s | -44.1°C | 0% | 13.3hPa | 2.6V | 18:12:15 | 01:55:02 | 00:00:00 | |
| EDDB2-11 | 2026-09-01 05:26:43 | 52.69449 | 8.32768 | 50° | 16km/h | 29427m | 7.2m/s | -44.1°C | 0.7% | 13.3hPa | 2.7V | 00:00:00 | 00:00:00 | 00:00:00 | |
| SMARD9-15 | 2026-09-01 05:26:42 | 52.69449 | 8.32768 | 50° | 16km/h | 29427m | 7.2m/s | -44.1°C | 0.7% | 13.3hPa | 2.7V | 00:00:00 | 00:00:00 | 00:00:00 | |
| DD1CC2-15 | 2026-09-01 05:26:41 | 52.69449 | 8.32768 | 51° | 18km/h | 29427m | 7.2m/s | -44.1°C | 0.7% | 13.3hPa | 2.7V | 00:00:00 | 00:00:00 | 00:00:00 | |
| DB0DAN | 2026-09-01 05:26:40 | 52.69443 | 8.32755 | 55° | 20km/h | 29414m | 5.1m/s | -44.1°C | 0.6% | 13.31hPa | 2.7V | 00:00:00 | 00:00:00 | 00:00:00 | |
| DO2JMG | 2026-09-01 05:26:39 | 52.69440 | 8.32748 | 53° | 20km/h | 29409m | 5.4m/s | -44.1°C | 0% | 13.3hPa | 2.7V | 18:12:15 | 01:54:58 | 00:00:00 | |
| DO9LL-15 | 2026-09-01 05:26:39 | 52.69440 | 8.32747 | 54° | 20km/h | 29409m | 5.3m/s | -44.0°C | 2.6% | 13.3hPa | 2.6V | 00:00:00 | 01:54:58 | 00:00:00 | |
| DM0DOS-11 | 2026-09-01 05:26:38 | 52.69424 | 8.32731 | 15° | 22km/h | 29384m | 6.8m/s | -44.2°C | 2.5% | 13.4hPa | 2.6V | 08:30:00 | 01:54:54 | 00:00:00 | |
| DF8AY | 2026-09-01 05:26:38 | 52.69437 | 8.32742 | 48° | 18km/h | 29403m | 7m/s | -44.1°C | 0% | 13.3hPa | 2.7V | 18:12:15 | 01:54:57 | 00:00:00 | |
| AA1-15 | 2026-09-01 05:26:37 | 52.69433 | 8.32737 | 35° | 16km/h | 29396m | 5.7m/s | -44.1°C | 0% | 13.3hPa | 2.6V | 18:12:15 | 01:54:56 | 00:00:00 | |
| DL1XH-west | 2026-09-01 05:26:36 | 52.69429 | 8.32733 | 22° | 18km/h | 29390m | 5.6m/s | -44.2°C | 0% | 13.3hPa | 2.6V | 18:12:15 | 01:54:55 | 00:00:00 | |
| GOEST3-10 | 2026-09-01 05:26:36 | 52.69429 | 8.32733 | 22° | 26km/h | 29391m | 5.6m/s | -44.1°C | 2.5% | 13.3hPa | 2.6V | 00:00:00 | 00:00:00 | 00:00:00 | |
| DO2SHX-10 | 2026-09-01 05:26:35 | 52.69425 | 8.32731 | 16° | 27km/h | 29385m | 6.8m/s | -44.2°C | 2.5% | 13.3hPa | 2.7V | 00:00:00 | 01:54:54 | 00:00:00 | |
| DB0NH | 2026-09-01 05:26:34 | 52.69418 | 8.32728 | 12° | 24km/h | 29378m | 6.7m/s | -44.2°C | 2.5% | 13.3hPa | 2.7V | 00:00:00 | 01:54:53 | 00:00:00 | |
| DL1XH-15 | 2026-09-01 05:26:33 | 52.69382 | 8.32723 | 21° | 13km/h | 29342m | 5.4m/s | -44.1°C | 2.6% | 13.4hPa | 2.7V | 08:30:00 | 01:54:47 | 00:00:00 | |
| HSKMA3-T | 2026-09-01 05:26:33 | 52.69411 | 8.32726 | 8° | 31km/h | 29371m | 5.9m/s | -44.2°C | 0% | 13.4hPa | 2.7V | 18:12:15 | 01:54:52 | 00:00:00 | |
| DO2SHX-10 | 2026-09-01 05:26:32 | 52.69403 | 8.32725 | 5° | 26km/h | 29365m | 6.2m/s | -44.1°C | 2.6% | 13.3hPa | 2.6V | 00:00:00 | 01:54:51 | 00:00:00 | |
| DD8BA-10 | 2026-09-01 05:26:31 | 52.69396 | 8.32724 | 1° | 18km/h | 29359m | 6.6m/s | -44.1°C | 2.7% | 13.4hPa | 2.6V | 00:00:00 | 00:00:00 | 00:00:00 | |
| DO3DL | 2026-09-01 05:26:30 | 52.69396 | 8.32724 | 2° | 27km/h | 29359m | 6.7m/s | -44.2°C | 0.7% | 13.4hPa | 2.6V | 00:00:00 | 00:00:00 | 00:00:00 | |
| DO2SHX-10 | 2026-09-01 05:26:29 | 52.69386 | 8.32724 | 5° | 15km/h | 29348m | 4.7m/s | -44.1°C | 2.6% | 13.4hPa | 2.6V | 00:00:00 | 01:54:48 | 00:00:00 | |
| DM0DOS-11 | 2026-09-01 05:26:28 | 52.69372 | 8.32711 | 34° | 18km/h | 29324m | 5.2m/s | -44.1°C | 2.6% | 13.5hPa | 2.6V | 08:30:00 | 01:54:44 | 00:00:00 | |
| BIOWL1-15 | 2026-09-01 05:26:28 | 52.69382 | 8.32723 | 21° | 13km/h | 29342m | 5.4m/s | -44.2°C | 0% | 13.4hPa | 2.7V | 18:12:15 | 01:54:47 | 00:00:00 | |
| AA1-15 | 2026-09-01 05:26:26 | 52.69376 | 8.32716 | 38° | 18km/h | 29330m | 5.8m/s | -44.1°C | 0% | 13.5hPa | 2.7V | 18:12:15 | 01:54:45 | 00:00:00 | |
| DL1XH-west | 2026-09-01 05:26:25 | 52.69372 | 8.32711 | 35° | 18km/h | 29324m | 5.2m/s | -44.1°C | 0% | 13.5hPa | 2.6V | 18:12:15 | 01:54:44 | 00:00:00 | |
| DL4XJ-10 | 2026-09-01 05:26:25 | 52.69372 | 8.32711 | 35° | 18km/h | 29325m | 5.1m/s | -46.6°C | 0% | 0hPa | 2.7V | 00:00:00 | 00:00:00 | 00:00:00 | |
| DC6BW-12 | 2026-09-01 05:26:24 | 52.69372 | 8.32711 | 36° | 18km/h | 29325m | 5.2m/s | -44.1°C | 0.7% | 13.5hPa | 2.7V | 00:00:00 | 00:00:00 | 00:00:00 | |
| DL1XH-15 | 2026-09-01 05:26:23 | 52.69339 | 8.32698 | 10° | 24km/h | 29281m | 4.7m/s | -44.2°C | 2.6% | 13.6hPa | 2.7V | 08:30:00 | 01:54:37 | 00:00:00 | |
| HSKMA3-T | 2026-09-01 05:26:22 | 52.69360 | 8.32704 | 6° | 18km/h | 29305m | 5.7m/s | -44.1°C | 0% | 13.5hPa | 2.7V | 18:12:15 | 01:54:41 | 00:00:00 | |
| DO2JMG | 2026-09-01 05:26:18 | 52.69338 | 8.32698 | 10° | 24km/h | 29282m | 4.7m/s | -44.2°C | 0% | 13.6hPa | 2.7V | 18:12:15 | 01:54:37 | 00:00:00 | |
| DM0DOS-11 | 2026-09-01 05:26:17 | 52.69324 | 8.32697 | 350° | 15km/h | 29263m | 5.8m/s | -44.2°C | 2.6% | 13.6hPa | 2.6V | 08:30:00 | 01:54:34 | 00:00:00 | |
| DL1XH-west | 2026-09-01 05:26:15 | 52.69324 | 8.32697 | 350° | 15km/h | 29263m | 5.8m/s | -44.2°C | 0% | 13.6hPa | 2.6V | 18:12:15 | 01:54:34 | 00:00:00 | |
| DB0UT-7 | 2026-09-01 05:26:15 | 52.69324 | 8.32697 | 351° | 16km/h | 29264m | 5.7m/s | -44.2°C | 2.6% | 13.6hPa | 2.6V | 00:00:00 | 00:00:00 | 08:30:00 | |
| DO2SHX-10 | 2026-09-01 05:26:14 | 52.69320 | 8.32698 | 348° | 18km/h | 29258m | 4.5m/s | -44.2°C | 2.6% | 13.6hPa | 2.7V | 00:00:00 | 01:54:33 | 00:00:00 | |
| DL1XH-15 | 2026-09-01 05:26:13 | 52.69292 | 8.32685 | 27° | 20km/h | 29224m | 6.8m/s | -44.3°C | 2.7% | 13.7hPa | 2.7V | 08:30:00 | 01:54:27 | 00:00:00 | |
| HSKMA3-T | 2026-09-01 05:26:11 | 52.69307 | 8.32697 | 19° | 22km/h | 29241m | 6.4m/s | -44.3°C | 0% | 13.7hPa | 2.6V | 18:12:15 | 01:54:30 | 00:00:00 | |
| DB0DAN | 2026-09-01 05:26:10 | 52.69302 | 8.32693 | 25° | 24km/h | 29235m | 5.5m/s | -44.3°C | 0.6% | 13.68hPa | 2.6V | 00:00:00 | 00:00:00 | 00:00:00 | |
| DO2SHX-10 | 2026-09-01 05:26:09 | 52.69297 | 8.32689 | 29° | 20km/h | 29230m | 5.0m/s | -44.3°C | 2.7% | 13.6hPa | 2.7V | 00:00:00 | 01:54:28 | 08:30:00 | |
| SONDE2-11 | 2026-09-01 05:26:08 | 52.69292 | 8.32685 | 27° | 18km/h | 29224m | 6.8m/s | -44.3°C | 0.7% | 13.7hPa | 2.6V | 00:00:00 | 00:00:00 | 00:00:00 | |
| DM0DOS-11 | 2026-09-01 05:26:07 | 52.69279 | 8.32680 | 355° | 18km/h | 29204m | 7.1m/s | -44.4°C | 2.6% | 13.7hPa | 2.6V | 08:30:00 | 01:54:24 | 00:00:00 | |
| DO2JMG | 2026-09-01 05:26:07 | 52.69288 | 8.32682 | 19° | 16km/h | 29217m | 6.1m/s | -44.3°C | 0% | 13.7hPa | 2.7V | 18:12:15 | 01:54:26 | 00:00:00 | |
| AA1-15 | 2026-09-01 05:26:04 | 52.69274 | 8.32682 | 350° | 22km/h | 29197m | 7m/s | -44.4°C | 0% | 13.8hPa | 2.6V | 18:12:15 | 01:54:23 | 00:00:00 | |
| DL1XH-15 | 2026-09-01 05:26:03 | 52.69253 | 8.32689 | 51° | 9km/h | 29161m | 6.6m/s | -44.4°C | 2.6% | 13.8hPa | 2.6V | 08:30:00 | 01:54:17 | 00:00:00 | |
| DO2SHX-10 | 2026-09-01 05:26:03 | 52.69269 | 8.32684 | 345° | 20km/h | 29192m | 5.1m/s | -44.3°C | 2.6% | 13.7hPa | 2.6V | 00:00:00 | 01:54:22 | 00:00:00 | |
| DD1CC3-15 | 2026-09-01 05:26:02 | 52.69268 | 8.32684 | 345° | 22km/h | 29192m | 5.2m/s | -44.3°C | 0.7% | 13.8hPa | 2.6V | 00:00:00 | 00:00:00 | 00:00:00 | |
| GOEST3-10 | 2026-09-01 05:26:01 | 52.69259 | 8.32689 | 339° | 11km/h | 29181m | 7.0m/s | -44.2°C | 2.5% | 13.7hPa | 2.6V | 00:00:00 | 01:54:20 | 00:00:00 | |
| HSKMA3-T | 2026-09-01 05:26:01 | 52.69259 | 8.32689 | 339° | 16km/h | 29181m | 7m/s | -44.3°C | 0% | 13.8hPa | 2.7V | 18:12:15 | 01:54:20 | 00:00:00 | |
| DO2SHX-10 | 2026-09-01 05:26:00 | 52.69256 | 8.32690 | 345° | 7km/h | 29174m | 6.5m/s | -44.2°C | 2.5% | 13.8hPa | 2.6V | 00:00:00 | 01:54:19 | 00:00:00 | |
| DM0DOS-11 | 2026-09-01 05:25:57 | 52.69248 | 8.32673 | 70° | 18km/h | 29142m | 5.5m/s | -44.4°C | 2.7% | 13.9hPa | 2.7V | 08:30:00 | 01:54:14 | 00:00:00 | |
| DO2JMG | 2026-09-01 05:25:57 | 52.69251 | 8.32685 | 59° | 13km/h | 29154m | 7.2m/s | -44.4°C | 0% | 13.8hPa | 2.7V | 18:12:15 | 01:54:16 | 00:00:00 | |
| DL8DAS-14 | 2026-09-01 05:25:56 | 52.69250 | 8.32680 | 65° | 16km/h | 29148m | 5.9m/s | -44.4°C | 0.6% | 13.9hPa | 2.7V | 00:00:00 | 00:00:00 | 00:00:00 | |
| DB0DAN | 2026-09-01 05:25:55 | 52.69248 | 8.32673 | 70° | 18km/h | 29142m | 5.6m/s | -44.4°C | 0.6% | 13.87hPa | 2.7V | 00:00:00 | 00:00:00 | 00:00:00 | |
| DL1XH-west | 2026-09-01 05:25:54 | 52.69247 | 8.32665 | 78° | 18km/h | 29136m | 6.6m/s | -44.5°C | 0% | 13.9hPa | 2.6V | 18:12:15 | 01:54:13 | 00:00:00 | |
| DO2SHX-10 | 2026-09-01 05:25:54 | 52.69247 | 8.32665 | 78° | 13km/h | 29136m | 6.6m/s | -44.4°C | 2.7% | 13.8hPa | 2.6V | 00:00:00 | 01:54:13 | 00:00:00 | |
| DL1XH-15 | 2026-09-01 05:25:53 | 52.69235 | 8.32665 | 312° | 22km/h | 29099m | 4.8m/s | -44.5°C | 2.6% | 14hPa | 2.6V | 08:30:00 | 01:54:07 | 00:00:00 | |
| HSKMA3-T | 2026-09-01 05:25:51 | 52.69244 | 8.32654 | 2° | 5km/h | 29118m | 6.4m/s | -44.5°C | 0% | 13.9hPa | 2.7V | 18:12:15 | 01:54:10 | 00:00:00 | |
| BIOWL9-15 | 2026-09-01 05:25:50 | 52.69242 | 8.32655 | 331° | 11km/h | 29111m | 7.5m/s | -44.4°C | 0.7% | 13.9hPa | 2.6V | 00:00:00 | 00:00:00 | 00:00:00 | |
| SONCRA | 2026-09-01 05:25:49 | 52.69239 | 8.32659 | 319° | 18km/h | 29104m | 6.0m/s | -44.5°C | 0.6% | 13.9hPa | 2.6V | 00:00:00 | 00:00:00 | 00:00:00 | |
| D01LWL | 2026-09-01 05:25:48 | 52.69235 | 8.32665 | 312° | 22km/h | 29099m | 4.8m/s | -44.5°C | 0.6% | 14.0hPa | 2.6V | 00:00:00 | 00:00:00 | 00:00:00 | |
| DM0DOS-11 | 2026-09-01 05:25:47 | 52.69229 | 8.32684 | 268° | 9km/h | 29081m | 6.3m/s | -44.4°C | 2.6% | 14hPa | 2.6V | 08:30:00 | 01:54:04 | 00:00:00 | |
| DO2JMG | 2026-09-01 05:25:47 | 52.69232 | 8.32672 | 304° | 20km/h | 29094m | 5.2m/s | -44.5°C | 0% | 14hPa | 2.7V | 18:12:15 | 01:54:06 | 00:00:00 | |
| DF8AY | 2026-09-01 05:25:46 | 52.69229 | 8.32679 | 291° | 16km/h | 29088m | 6.9m/s | -44.4°C | 0% | 14hPa | 2.7V | 18:12:15 | 01:54:05 | 00:00:00 | |
| DL1XH-west | 2026-09-01 05:25:44 | 52.69229 | 8.32686 | 218° | 5km/h | 29075m | 6.3m/s | -44.5°C | 0% | 14hPa | 2.6V | 18:12:15 | 01:54:03 | 00:00:00 | |
| AA1-15 | 2026-09-01 05:25:43 | 52.69230 | 8.32687 | 146° | 5km/h | 29068m | 7.8m/s | -44.4°C | 0% | 14hPa | 2.6V | 18:12:15 | 01:54:02 | 00:00:00 | |
| HSKMA3-T | 2026-09-01 05:25:41 | 52.69232 | 8.32680 | 110° | 11km/h | 29055m | 5.3m/s | -44.4°C | 0% | 14.1hPa | 2.7V | 18:12:15 | 01:54:00 | 00:00:00 | |
| DB0DAN | 2026-09-01 05:25:40 | 52.69233 | 8.32676 | 114° | 11km/h | 29050m | 5.2m/s | -44.4°C | 0.7% | 14.06hPa | 2.7V | 00:00:00 | 00:00:00 | 00:00:00 | |
| SMARD9-15 | 2026-09-01 05:25:40 | 52.69233 | 8.32676 | 113° | 11km/h | 29050m | 5.2m/s | -44.4°C | 0.7% | 14.1hPa | 2.6V | 00:00:00 | 00:00:00 | 00:00:00 | |
| DO2SHX-10 | 2026-09-01 05:25:39 | 52.69234 | 8.32671 | 129° | 7km/h | 29044m | 6.7m/s | -44.4°C | 2.7% | 14.0hPa | 2.6V | 00:00:00 | 01:53:58 | 08:30:00 | |
| DM0DOS-11 | 2026-09-01 05:25:37 | 52.69236 | 8.32677 | 305° | 16km/h | 29019m | 7.6m/s | -44.6°C | 2.7% | 14.1hPa | 2.7V | 08:30:00 | 01:53:54 | 00:00:00 | |
| BIOWL1-15 | 2026-09-01 05:25:37 | 52.69237 | 8.32670 | 243° | 5km/h | 29032m | 5.1m/s | -44.5°C | 0% | 14.1hPa | 2.6V | 18:12:15 | 01:53:56 | 00:00:00 | |
| DF8AY | 2026-09-01 05:25:35 | 52.69235 | 8.32677 | 306° | 16km/h | 29019m | 7.6m/s | -44.6°C | 0% | 14.1hPa | 2.7V | 18:12:15 | 01:53:54 | 00:00:00 | |
| DL1XH-west | 2026-09-01 05:25:34 | 52.69232 | 8.32684 | 310° | 24km/h | 29012m | 6.5m/s | -44.6°C | 0% | 14.1hPa | 2.7V | 18:12:15 | 01:53:53 | 00:00:00 | |
| AA1-15 | 2026-09-01 05:25:33 | 52.69228 | 8.32692 | 307° | 27km/h | 29006m | 5.4m/s | -44.6°C | 0% | 14.2hPa | 2.6V | 18:12:15 | 01:53:52 | 00:00:00 | |
| HSKMA3-T | 2026-09-01 05:25:31 | 52.69222 | 8.32712 | 285° | 26km/h | 28994m | 6.9m/s | -44.5°C | 0% | 14.2hPa | 2.6V | 18:12:15 | 01:53:50 | 00:00:00 | |
| DO2JMG | 2026-09-01 05:25:26 | 52.69227 | 8.32739 | 184° | 7km/h | 28962m | 5.4m/s | -44.4°C | 0% | 14.3hPa | 2.6V | 18:12:15 | 01:53:45 | 00:00:00 | |
| DF8AY | 2026-09-01 05:25:24 | 52.69232 | 8.32740 | 197° | 13km/h | 28949m | 6.9m/s | -44.3°C | 0% | 14.3hPa | 2.7V | 18:12:15 | 01:53:43 | 00:00:00 | |
| DL1XH-15 | 2026-09-01 05:25:23 | 52.69234 | 8.32765 | 291° | 16km/h | 28914m | 5.1m/s | -44.5°C | 2.7% | 14.4hPa | 2.6V | 08:30:00 | 01:53:37 | 00:00:00 | |
| DL1XH-west | 2026-09-01 05:25:23 | 52.69234 | 8.32742 | 214° | 13km/h | 28943m | 5.1m/s | -44.4°C | 0% | 14.3hPa | 2.7V | 18:12:15 | 01:53:42 | 00:00:00 | |
| AA1-15 | 2026-09-01 05:25:22 | 52.69236 | 8.32746 | 238° | 11km/h | 28938m | 4.8m/s | -44.5°C | 0% | 14.3hPa | 2.6V | 18:12:15 | 01:53:41 | 00:00:00 | |
| HSKMA3-T | 2026-09-01 05:25:20 | 52.69237 | 8.32754 | 291° | 11km/h | 28925m | 7.1m/s | -44.4°C | 0% | 14.3hPa | 2.7V | 18:12:15 | 01:53:39 | 00:00:00 | |
| DF8AY | 2026-09-01 05:25:19 | 52.69236 | 8.32798 | 242° | 24km/h | 28890m | 5m/s | -44.4°C | 0% | 14.4hPa | 2.7V | 18:12:15 | 01:53:33 | 00:00:00 | |
| BIOWL1-15 | 2026-09-01 05:25:16 | 52.69233 | 8.32780 | 263° | 22km/h | 28901m | 6.5m/s | -44.4°C | 0% | 14.4hPa | 2.6V | 18:12:15 | 01:53:35 | 00:00:00 | |
| GOEST3-10 | 2026-09-01 05:25:16 | 52.69233 | 8.32780 | 263° | 22km/h | 28901m | 6.4m/s | -44.4°C | 2.7% | 14.3hPa | 2.7V | 00:00:00 | 00:00:00 | 00:00:00 | |
| DB0UT-7 | 2026-09-01 05:25:14 | 52.69236 | 8.32798 | 243° | 20km/h | 28890m | 4.9m/s | -44.3°C | 2.6% | 14.4hPa | 2.7V | 00:00:00 | 00:00:00 | 00:00:00 | |
| DL1XH-15 | 2026-09-01 05:25:13 | 52.69252 | 8.32819 | 176° | 15km/h | 28853m | 7.3m/s | -44.4°C | 2.6% | 14.5hPa | 2.7V | 08:30:00 | 01:53:27 | 00:00:00 | |
| DL1XH-west | 2026-09-01 05:25:12 | 52.69242 | 8.32813 | 233° | 16km/h | 28878m | 6.6m/s | -44.5°C | 0% | 14.4hPa | 2.6V | 18:12:15 | 01:53:31 | 00:00:00 | |
| AA1-15 | 2026-09-01 05:25:11 | 52.69244 | 8.32817 | 223° | 11km/h | 28871m | 6.3m/s | -44.5°C | 0% | 14.5hPa | 2.6V | 18:12:15 | 01:53:30 | 00:00:00 | |
| DB0DAN | 2026-09-01 05:25:10 | 52.69246 | 8.32819 | 194° | 7km/h | 28865m | 5.6m/s | -44.4°C | 0.7% | 14.45hPa | 2.6V | 00:00:00 | 00:00:00 | 00:00:00 | |
| HSKMA3-T | 2026-09-01 05:25:09 | 52.69248 | 8.32819 | 177° | 11km/h | 28859m | 5.9m/s | -44.4°C | 0% | 14.5hPa | 2.7V | 18:12:15 | 01:53:28 | 00:00:00 | |
| DO2JMG | 2026-09-01 05:25:06 | 52.69260 | 8.32821 | 203° | 20km/h | 28840m | 5.3m/s | -44.4°C | 0% | 14.5hPa | 2.6V | 18:12:15 | 01:53:25 | 00:00:00 | |
| DF8AY | 2026-09-01 05:25:03 | 52.69272 | 8.32841 | 246° | 26km/h | 28821m | 6.2m/s | -44.3°C | 0% | 14.6hPa | 2.7V | 18:12:15 | 01:53:22 | 00:00:00 | |
| DL1XH-west | 2026-09-01 05:25:01 | 52.69277 | 8.32863 | 246° | 29km/h | 28808m | 7.1m/s | -44.4°C | 0% | 14.6hPa | 2.6V | 18:12:15 | 01:53:20 | 00:00:00 | |
| AA1-15 | 2026-09-01 05:25:00 | 52.69281 | 8.32874 | 237° | 29km/h | 28801m | 6.6m/s | -44.4°C | 0% | 14.6hPa | 2.6V | 18:12:15 | 01:53:19 | 00:00:00 | |
| HSKMA3-T | 2026-09-01 05:24:59 | 52.69286 | 8.32883 | 229° | 29km/h | 28795m | 5.3m/s | -44.4°C | 0% | 14.6hPa | 2.7V | 18:12:15 | 01:53:18 | 00:00:00 | |
| DF5WG-10 | 2026-09-01 05:24:59 | 52.69286 | 8.32883 | 229° | 18km/h | 28796m | 5.2m/s | -44.3°C | 2.6% | 14.6hPa | 2.6V | 00:00:00 | 01:53:18 | 00:00:00 | |
| DB0NH | 2026-09-01 05:24:58 | 52.69290 | 8.32891 | 222° | 18km/h | 28791m | 5.0m/s | -44.3°C | 2.6% | 14.6hPa | 2.6V | 00:00:00 | 01:53:17 | 00:00:00 | |
| DJ8HS-15 | 2026-09-01 05:24:57 | 52.69295 | 8.32897 | 217° | 16km/h | 28785m | 6.8m/s | -44.3°C | 2.7% | 14.6hPa | 2.6V | 00:00:00 | 01:53:16 | 00:00:00 | |
| DM0DOS-11 | 2026-09-01 05:24:56 | 52.69302 | 8.32904 | 198° | 13km/h | 28771m | 6.1m/s | -44.3°C | 2.6% | 14.7hPa | 2.7V | 08:30:00 | 01:53:14 | 00:00:00 | |
| DO2JMG | 2026-09-01 05:24:56 | 52.69299 | 8.32902 | 211° | 16km/h | 28777m | 7m/s | -44.3°C | 0% | 14.7hPa | 2.6V | 18:12:15 | 01:53:15 | 00:00:00 | |
| DB0DAN | 2026-09-01 05:24:55 | 52.69302 | 8.32904 | 199° | 13km/h | 28771m | 6.1m/s | -44.3°C | 0.6% | 14.69hPa | 2.7V | 00:00:00 | 00:00:00 | 00:00:00 | |
| DO2SHX-10 | 2026-09-01 05:24:54 | 52.69305 | 8.32905 | 186° | 16km/h | 28765m | 5.5m/s | -44.2°C | 2.6% | 14.7hPa | 2.7V | 00:00:00 | 01:53:13 | 00:00:00 | |
| DL1XH-15 | 2026-09-01 05:24:53 | 52.69332 | 8.32911 | 208° | 15km/h | 28728m | 6.6m/s | -44.4°C | 2.5% | 14.8hPa | 2.7V | 08:30:00 | 01:53:07 | 00:00:00 | |
| DF8AY | 2026-09-01 05:24:53 | 52.69309 | 8.32906 | 182° | 15km/h | 28759m | 6.8m/s | -44.3°C | 0% | 14.7hPa | 2.6V | 18:12:15 | 01:53:12 | 00:00:00 | |
| DL1XH-west | 2026-09-01 05:24:51 | 52.69318 | 8.32906 | 184° | 20km/h | 28746m | 4.8m/s | -44.3°C | 0% | 14.7hPa | 2.6V | 18:12:15 | 01:53:10 | 00:00:00 | |
| AA1-15 | 2026-09-01 05:24:49 | 52.69328 | 8.32909 | 194° | 18km/h | 28735m | 7.3m/s | -44.3°C | 0% | 14.8hPa | 2.7V | 18:12:15 | 01:53:08 | 00:00:00 | |
| HSKMA3-T | 2026-09-01 05:24:48 | 52.69332 | 8.32911 | 209° | 15km/h | 28728m | 6.6m/s | -44.4°C | 0% | 14.8hPa | 2.7V | 18:12:15 | 01:53:07 | 00:00:00 | |
| DO2SHX-10 | 2026-09-01 05:24:48 | 52.69332 | 8.32911 | 209° | 15km/h | 28729m | 6.6m/s | -44.3°C | 2.5% | 14.7hPa | 2.6V | 00:00:00 | 01:53:07 | 00:00:00 | |
| DF5WG-10 | 2026-09-01 05:24:47 | 52.69334 | 8.32915 | 225° | 18km/h | 28722m | 5.6m/s | -44.4°C | 2.6% | 14.7hPa | 2.6V | 00:00:00 | 01:53:06 | 08:30:00 | |
| DM0DOS-11 | 2026-09-01 05:24:46 | 52.69341 | 8.32925 | 226° | 20km/h | 28710m | 7.3m/s | -44.6°C | 2.6% | 14.8hPa | 2.6V | 08:30:00 | 01:53:04 | 00:00:00 | |
| DO2JMG | 2026-09-01 05:24:45 | 52.69340 | 8.32925 | 227° | 20km/h | 28710m | 7.3m/s | -44.6°C | 0% | 14.8hPa | 2.6V | 18:12:15 | 01:53:04 | 00:00:00 | |
| DL3AQ-11 | 2026-09-01 05:24:44 | 52.69363 | 8.32937 | 154° | 15km/h | 28680m | 7.0m/s | -44.6°C | 0.7% | 14.9hPa | 2.7V | 00:00:00 | 00:00:00 | 00:00:00 | |
| DL1XH-15 | 2026-09-01 05:24:43 | 52.69370 | 8.32929 | 140° | 18km/h | 28668m | 6.3m/s | -44.7°C | 2.6% | 14.9hPa | 2.7V | 08:30:00 | 01:52:57 | 00:00:00 | |
| DF8AY | 2026-09-01 05:24:42 | 52.69354 | 8.32938 | 191° | 20km/h | 28693m | 5.2m/s | -44.6°C | 0% | 14.9hPa | 2.7V | 18:12:15 | 01:53:01 | 00:00:00 | |
| DL1XH-west | 2026-09-01 05:24:41 | 52.69359 | 8.32939 | 176° | 18km/h | 28687m | 6.7m/s | -44.6°C | 0% | 14.9hPa | 2.6V | 18:12:15 | 01:53:00 | 00:00:00 | |
| DB0DAN | 2026-09-01 05:24:40 | 52.69363 | 8.32937 | 155° | 15km/h | 28680m | 7m/s | -44.6°C | 0.7% | 14.89hPa | 2.6V | 00:00:00 | 00:00:00 | 00:00:00 | |
| HSKMA3-T | 2026-09-01 05:24:38 | 52.69369 | 8.32929 | 141° | 18km/h | 28668m | 6.4m/s | -44.7°C | 0% | 14.9hPa | 2.7V | 18:12:15 | 01:52:57 | 00:00:00 | |
| DF5WG-10 | 2026-09-01 05:24:37 | 52.69373 | 8.32925 | 148° | 16km/h | 28661m | 7.0m/s | -44.7°C | 2.7% | 14.9hPa | 2.6V | 00:00:00 | 01:52:56 | 00:00:00 | |
| DM0DOS-11 | 2026-09-01 05:24:36 | 52.69381 | 8.32917 | 149° | 16km/h | 28650m | 5.2m/s | -44.8°C | 2.6% | 15hPa | 2.6V | 08:30:00 | 01:52:54 | 00:00:00 | |
| DO2JMG | 2026-09-01 05:24:35 | 52.69381 | 8.32917 | 150° | 16km/h | 28650m | 5.2m/s | -44.8°C | 0% | 15hPa | 2.6V | 18:12:15 | 01:52:54 | 00:00:00 | |
| SONDE2-11 | 2026-09-01 05:24:35 | 52.69381 | 8.32917 | 149° | 16km/h | 28650m | 5.2m/s | -44.8°C | 0.7% | 15.0hPa | 2.7V | 00:00:00 | 00:00:00 | 00:00:00 | |
| DL1XH-15 | 2026-09-01 05:24:33 | 52.69405 | 8.32900 | 165° | 20km/h | 28605m | 5.4m/s | -44.8°C | 2.6% | 15.1hPa | 2.7V | 08:30:00 | 01:52:47 | 00:00:00 | |
| DF8AY | 2026-09-01 05:24:31 | 52.69392 | 8.32904 | 156° | 13km/h | 28624m | 6.3m/s | -44.8°C | 0% | 15hPa | 2.6V | 18:12:15 | 01:52:50 | 00:00:00 | |
| DL1XH-west | 2026-09-01 05:24:30 | 52.69396 | 8.32903 | 169° | 16km/h | 28617m | 7.5m/s | -44.8°C | 0% | 15hPa | 2.6V | 18:12:15 | 01:52:49 | 00:00:00 | |
| HSKMA3-T | 2026-09-01 05:24:28 | 52.69405 | 8.32900 | 166° | 20km/h | 28605m | 5.4m/s | -44.8°C | 0% | 15.1hPa | 2.7V | 18:12:15 | 01:52:47 | 00:00:00 | |
| DO2JMG | 2026-09-01 05:24:24 | 52.69418 | 8.32879 | 112° | 20km/h | 28579m | 5.7m/s | -44.9°C | 0% | 15.1hPa | 2.6V | 18:12:15 | 01:52:43 | 00:00:00 | |
| DL1XH-west | 2026-09-01 05:24:20 | 52.69425 | 8.32851 | 107° | 16km/h | 28554m | 7.4m/s | -45.1°C | 0% | 15.2hPa | 2.6V | 18:12:15 | 01:52:39 | 00:00:00 | |
| HSKMA3-T | 2026-09-01 05:24:17 | 52.69428 | 8.32832 | 115° | 15km/h | 28534m | 7m/s | -45.3°C | 0% | 15.2hPa | 2.7V | 18:12:15 | 01:52:36 | 00:00:00 | |
| DF5WG-10 | 2026-09-01 05:24:17 | 52.69428 | 8.32832 | 116° | 20km/h | 28534m | 7.0m/s | -45.2°C | 2.6% | 15.2hPa | 2.7V | 00:00:00 | 01:52:36 | 00:00:00 | |
| DM0DOS-11 | 2026-09-01 05:24:16 | 52.69434 | 8.32822 | 134° | 18km/h | 28521m | 5.1m/s | -45.4°C | 2.7% | 15.3hPa | 2.6V | 08:30:00 | 01:52:34 | 00:00:00 | |
| BIOWL1-15 | 2026-09-01 05:24:13 | 52.69439 | 8.32809 | 116° | 20km/h | 28509m | 7.7m/s | -45.5°C | 0% | 15.3hPa | 2.7V | 18:12:15 | 01:52:32 | 00:00:00 | |
| DL1XH-west | 2026-09-01 05:24:09 | 52.69446 | 8.32772 | 110° | 24km/h | 28482m | 6.1m/s | -45.5°C | 0% | 15.4hPa | 2.6V | 18:12:15 | 01:52:28 | 00:00:00 | |
| AA1-15 | 2026-09-01 05:24:07 | 52.69449 | 8.32754 | 101° | 20km/h | 28470m | 6.2m/s | -45.7°C | 0% | 15.4hPa | 2.7V | 18:12:15 | 01:52:26 | 00:00:00 | |
| DF5WG-10 | 2026-09-01 05:24:07 | 52.69449 | 8.32754 | 101° | 15km/h | 28470m | 6.2m/s | -45.6°C | 2.8% | 15.3hPa | 2.6V | 00:00:00 | 01:52:26 | 00:00:00 | |
| DM0DOS-11 | 2026-09-01 05:24:06 | 52.69450 | 8.32737 | 83° | 20km/h | 28457m | 5.5m/s | -45.7°C | 2.8% | 15.4hPa | 2.6V | 08:30:00 | 01:52:24 | 00:00:00 | |
| HSKMA3-T | 2026-09-01 05:24:06 | 52.69450 | 8.32746 | 91° | 22km/h | 28463m | 7.3m/s | -45.7°C | 0% | 15.4hPa | 2.7V | 18:12:15 | 01:52:25 | 00:00:00 | |
| GOEST3-10 | 2026-09-01 05:24:06 | 52.69467 | 8.32746 | 92° | 18km/h | 28464m | 7.3m/s | -45.6°C | 2.8% | 15.3hPa | 2.7V | 00:00:00 | 00:00:00 | 00:00:00 | |
| DO2SHX-10 | 2026-09-01 05:24:05 | 52.69450 | 8.32737 | 84° | 20km/h | 28457m | 5.5m/s | -45.6°C | 2.8% | 15.4hPa | 2.6V | 00:00:00 | 01:52:24 | 00:00:00 | |
| SONDE2-11 | 2026-09-01 05:24:04 | 52.69448 | 8.32721 | 85° | 16km/h | 28447m | 6.2m/s | -45.7°C | 0.7% | 15.4hPa | 2.6V | 00:00:00 | 00:00:00 | 00:00:00 | |
| DL1XH-15 | 2026-09-01 05:24:03 | 52.69452 | 8.32696 | 87° | 13km/h | 28415m | 7.5m/s | -45.7°C | 2.8% | 15.5hPa | 2.6V | 08:30:00 | 01:52:17 | 00:00:00 | |
| DO2JMG | 2026-09-01 05:24:02 | 52.69448 | 8.32715 | 96° | 13km/h | 28440m | 7.3m/s | -45.7°C | 0% | 15.5hPa | 2.7V | 18:12:15 | 01:52:21 | 00:00:00 | |
| DL1XH-west | 2026-09-01 05:23:58 | 52.69452 | 8.32696 | 88° | 13km/h | 28415m | 7.5m/s | -45.7°C | 0% | 15.5hPa | 2.6V | 18:12:15 | 01:52:17 | 00:00:00 | |
| DO3DL | 2026-09-01 05:23:57 | 52.69452 | 8.32696 | 89° | 13km/h | 28415m | 7.5m/s | -45.7°C | 0.7% | 15.5hPa | 2.7V | 00:00:00 | 00:00:00 | 00:00:00 | |
| DM0DOS-11 | 2026-09-01 05:23:56 | 52.69450 | 8.32677 | 85° | 16km/h | 28395m | 7.3m/s | -45.6°C | 2.7% | 15.6hPa | 2.7V | 08:30:00 | 01:52:14 | 00:00:00 | |
| HSKMA3-T | 2026-09-01 05:23:56 | 52.69451 | 8.32684 | 79° | 16km/h | 28402m | 5.9m/s | -45.6°C | 0% | 15.6hPa | 2.7V | 18:12:15 | 01:52:15 | 00:00:00 | |
| DB0DAN | 2026-09-01 05:23:55 | 52.69450 | 8.32677 | 85° | 16km/h | 28395m | 7.3m/s | -45.6°C | 0.7% | 15.56hPa | 2.7V | 00:00:00 | 00:00:00 | 00:00:00 | |
| DO2SHX-10 | 2026-09-01 05:23:55 | 52.69450 | 8.32677 | 86° | 13km/h | 28395m | 7.3m/s | -45.5°C | 2.7% | 15.5hPa | 2.7V | 00:00:00 | 01:52:14 | 00:00:00 | |
| DL1XH-15 | 2026-09-01 05:23:53 | 52.69443 | 8.32644 | 67° | 7km/h | 28353m | 6.4m/s | -45.8°C | 2.8% | 15.7hPa | 2.6V | 08:30:00 | 01:52:07 | 00:00:00 | |
| BIOWL1-15 | 2026-09-01 05:23:53 | 52.69448 | 8.32654 | 58° | 13km/h | 28370m | 6.9m/s | -45.7°C | 0% | 15.6hPa | 2.7V | 18:12:15 | 01:52:10 | 00:00:00 | |
| DL8DAS-14 | 2026-09-01 05:23:52 | 52.69448 | 8.32654 | 57° | 13km/h | 28370m | 6.9m/s | 0°C | -1.0% | 15.6hPa | 2.7V | 00:00:00 | 00:00:00 | 00:00:00 | |
| DO2JMG | 2026-09-01 05:23:52 | 52.69449 | 8.32659 | 74° | 13km/h | 28377m | 6.9m/s | -45.6°C | 0% | 15.6hPa | 2.6V | 18:12:15 | 01:52:11 | 00:00:00 | |
| AP2371 | 2026-09-01 05:23:51 | 52.69448 | 8.32654 | 58° | 13km/h | 28370m | 6.9m/s | -45.7°C | 0.7% | 15.6hPa | 2.7V | 00:00:00 | 00:00:00 | 00:00:00 | |
| DO3DL | 2026-09-01 05:23:50 | 52.69448 | 8.32654 | 58° | 13km/h | 28370m | 6.9m/s | -45.7°C | 0.7% | 15.6hPa | 2.7V | 00:00:00 | 00:00:00 | 00:00:00 | |
| DM0DOS-11 | 2026-09-01 05:23:48 | 52.69446 | 8.32636 | 133° | 11km/h | 28334m | 5.3m/s | -46.1°C | 2.8% | 15.7hPa | 2.7V | 08:30:00 | 01:52:04 | 00:00:00 | |
| DL1XH-west | 2026-09-01 05:23:48 | 52.69443 | 8.32644 | 67° | 7km/h | 28353m | 6.4m/s | -45.8°C | 0% | 15.7hPa | 2.6V | 18:12:15 | 01:52:07 | 00:00:00 | |
| HSKMA3-T | 2026-09-01 05:23:46 | 52.69444 | 8.32639 | 136° | 9km/h | 28340m | 6.1m/s | -46.1°C | 0% | 15.7hPa | 2.6V | 18:12:15 | 01:52:05 | 00:00:00 | |
| AA1-15 | 2026-09-01 05:23:45 | 52.69446 | 8.32636 | 134° | 11km/h | 28334m | 5.3m/s | -46.1°C | 0% | 15.7hPa | 2.7V | 18:12:15 | 01:52:04 | 00:00:00 | |
| SONCRA | 2026-09-01 05:23:45 | 52.69448 | 8.32632 | 117° | 11km/h | 28328m | 6.8m/s | -46.1°C | 0.7% | 15.7hPa | 2.7V | 00:00:00 | 00:00:00 | 00:00:00 | |
| DK5PH-5 | 2026-09-01 05:23:44 | 52.69447 | 8.32632 | 118° | 13km/h | 28329m | 6.7m/s | -46.1°C | 2.8% | 15.7hPa | 2.7V | 00:00:00 | 01:52:03 | 00:00:00 | |
| DL1XH-15 | 2026-09-01 05:23:43 | 52.69444 | 8.32600 | 66° | 13km/h | 28289m | 4.8m/s | -46°C | 2.8% | 15.8hPa | 2.7V | 08:30:00 | 01:51:57 | 00:00:00 | |
| BIOWL1-15 | 2026-09-01 05:23:41 | 52.69447 | 8.32616 | 72° | 15km/h | 28308m | 6.4m/s | -46.1°C | 0% | 15.8hPa | 2.6V | 18:12:15 | 01:52:00 | 00:00:00 | |
| DB0DAN | 2026-09-01 05:23:40 | 52.69446 | 8.32611 | 73° | 13km/h | 28301m | 7.5m/s | -46.1°C | 0.7% | 15.81hPa | 2.6V | 00:00:00 | 00:00:00 | 00:00:00 | |
| DL1XH-west | 2026-09-01 05:23:37 | 52.69442 | 8.32595 | 55° | 13km/h | 28284m | 6.2m/s | -46°C | 0% | 15.8hPa | 2.6V | 18:12:15 | 01:51:56 | 00:00:00 | |
| HSKMA3-T | 2026-09-01 05:23:35 | 52.69437 | 8.32587 | 36° | 16km/h | 28270m | 6.3m/s | -46°C | 0% | 15.9hPa | 2.7V | 18:12:15 | 01:51:54 | 00:00:00 | |
| AA1-15 | 2026-09-01 05:23:34 | 52.69434 | 8.32583 | 37° | 16km/h | 28264m | 6.1m/s | -46°C | 0% | 15.9hPa | 2.7V | 18:12:15 | 01:51:53 | 00:00:00 | |
| DO2JMG | 2026-09-01 05:23:31 | 52.69427 | 8.32570 | 64° | 13km/h | 28245m | 4.5m/s | -46°C | 0% | 15.9hPa | 2.6V | 18:12:15 | 01:51:50 | 00:00:00 | |
| BIOWL1-15 | 2026-09-01 05:23:30 | 52.69425 | 8.32565 | 59° | 13km/h | 28239m | 6.4m/s | -46.1°C | 0% | 15.9hPa | 2.7V | 18:12:15 | 01:51:49 | 00:00:00 | |
| DF7PN | 2026-09-01 05:23:30 | 52.69423 | 8.32561 | 50° | 13km/h | 28233m | 7.2m/s | -46.1°C | 0.7% | 16.0hPa | 2.6V | 00:00:00 | 00:00:00 | 00:00:00 | |
| DO1YAY-16 | 2026-09-01 05:23:29 | 52.69421 | 8.32556 | 49° | 15km/h | 28226m | 5.8m/s | -46.1°C | 0.7% | 16.0hPa | 2.6V | 00:00:00 | 00:00:00 | 00:00:00 | |
| DM0DOS-11 | 2026-09-01 05:23:28 | 52.69417 | 8.32542 | 82° | 11km/h | 28207m | 5.9m/s | -46.2°C | 2.8% | 16hPa | 2.6V | 08:30:00 | 01:51:44 | 00:00:00 | |
| DL1XH-west | 2026-09-01 05:23:26 | 52.69418 | 8.32547 | 72° | 13km/h | 28214m | 7.6m/s | -46.2°C | 0% | 16hPa | 2.6V | 18:12:15 | 01:51:45 | 00:00:00 | |
| HSKMA3-T | 2026-09-01 05:23:25 | 52.69417 | 8.32542 | 82° | 11km/h | 28207m | 5.9m/s | -46.2°C | 0% | 16hPa | 2.6V | 18:12:15 | 01:51:44 | 00:00:00 | |
| AA1-15 | 2026-09-01 05:23:23 | 52.69415 | 8.32535 | 46° | 7km/h | 28196m | 7.4m/s | -46.2°C | 0% | 16.1hPa | 2.7V | 18:12:15 | 01:51:42 | 00:00:00 | |
| BIOWL1-15 | 2026-09-01 05:23:21 | 52.69405 | 8.32532 | 6° | 11km/h | 28169m | 6.7m/s | -46.2°C | 0% | 16.1hPa | 2.6V | 18:12:15 | 01:51:38 | 00:00:00 | |
| GOEST3-10 | 2026-09-01 05:23:21 | 52.69410 | 8.32533 | 4° | 13km/h | 28182m | 5.7m/s | -46.1°C | 2.9% | 16.1hPa | 2.6V | 00:00:00 | 01:51:40 | 00:00:00 | |
| DO2JMG | 2026-09-01 05:23:21 | 52.69411 | 8.32533 | 3° | 13km/h | 28182m | 5.7m/s | -46.2°C | 0% | 16.1hPa | 2.6V | 18:12:15 | 01:51:40 | 00:00:00 | |
| DL1XH1-15 | 2026-09-01 05:23:20 | 52.69388 | 8.32525 | 19° | 26km/h | 28144m | 5.4m/s | -46.1°C | 2.9% | 16.2hPa | 2.6V | 08:30:00 | 01:51:34 | 00:00:00 | |
| DL1XH-west | 2026-09-01 05:23:16 | 52.69393 | 8.32528 | 16° | 22km/h | 28150m | 7.3m/s | -46.2°C | 0% | 16.2hPa | 2.6V | 18:12:15 | 01:51:35 | 00:00:00 | |
| DF8AY | 2026-09-01 05:23:15 | 52.69388 | 8.32525 | 20° | 26km/h | 28144m | 5.4m/s | -46.1°C | 0% | 16.2hPa | 2.6V | 18:12:15 | 01:51:34 | 00:00:00 | |
| HSKMA3-T | 2026-09-01 05:23:14 | 52.69382 | 8.32521 | 26° | 26km/h | 28139m | 4.6m/s | -46.1°C | 0% | 16.2hPa | 2.7V | 18:12:15 | 01:51:33 | 00:00:00 | |
| AA1-15 | 2026-09-01 05:23:12 | 52.69372 | 8.32511 | 42° | 20km/h | 28126m | 6.7m/s | -46.2°C | 0% | 16.2hPa | 2.6V | 18:12:15 | 01:51:31 | 00:00:00 | |
| DO2JMG | 2026-09-01 05:23:11 | 52.69369 | 8.32505 | 44° | 16km/h | 28119m | 5.6m/s | -46.2°C | 0% | 16.2hPa | 2.6V | 18:12:15 | 01:51:30 | 00:00:00 | |
| DB0DAN | 2026-09-01 05:23:10 | 52.69366 | 8.32501 | 33° | 15km/h | 28114m | 5.6m/s | -46.2°C | 0.7% | 16.25hPa | 2.6V | 00:00:00 | 00:00:00 | 00:00:00 | |
| BIOWL1-15 | 2026-09-01 05:23:08 | 52.69358 | 8.32498 | 357° | 16km/h | 28101m | 5.7m/s | -46.1°C | 0% | 16.3hPa | 2.7V | 18:12:15 | 01:51:27 | 00:00:00 | |
| DL1XH-west | 2026-09-01 05:23:05 | 52.69347 | 8.32505 | 325° | 15km/h | 28082m | 6.8m/s | -46.1°C | 0% | 16.3hPa | 2.6V | 18:12:15 | 01:51:24 | 00:00:00 | |
| DF8AY | 2026-09-01 05:23:04 | 52.69344 | 8.32508 | 322° | 13km/h | 28076m | 5.8m/s | -46.1°C | 0% | 16.4hPa | 2.6V | 18:12:15 | 01:51:23 | 00:00:00 | |
| DL1XH-15 | 2026-09-01 05:23:04 | 52.69326 | 8.32509 | 73° | 13km/h | 28037m | 6.9m/s | -45.9°C | 2.8% | 16.4hPa | 2.7V | 08:30:00 | 01:51:17 | 00:00:00 | |
| HSKMA3-T | 2026-09-01 05:23:03 | 52.69341 | 8.32511 | 327° | 15km/h | 28070m | 6m/s | -46.1°C | 0% | 16.4hPa | 2.7V | 18:12:15 | 01:51:22 | 00:00:00 | |
| AA1-15 | 2026-09-01 05:23:02 | 52.69338 | 8.32514 | 337° | 15km/h | 28064m | 6.8m/s | -46.1°C | 0% | 16.4hPa | 2.7V | 18:12:15 | 01:51:21 | 00:00:00 | |
| DO2JMG | 2026-09-01 05:23:00 | 52.69331 | 8.32515 | 15° | 15km/h | 28052m | 5.9m/s | -46.1°C | 0% | 16.4hPa | 2.6V | 18:12:15 | 01:51:19 | 00:00:00 | |
| BIOWL1-15 | 2026-09-01 05:22:57 | 52.69325 | 8.32503 | 87° | 15km/h | 28032m | 5m/s | -45.9°C | 0% | 16.5hPa | 2.6V | 18:12:15 | 01:51:16 | 00:00:00 | |
| DB0DAN | 2026-09-01 05:22:55 | 52.69325 | 8.32492 | 75° | 9km/h | 28021m | 6.6m/s | -45.8°C | 0.7% | 16.5hPa | 2.6V | 00:00:00 | 00:00:00 | 00:00:00 | |
| DL1XH-west | 2026-09-01 05:22:54 | 52.69324 | 8.32490 | 22° | 7km/h | 28015m | 6.5m/s | -45.8°C | 0% | 16.5hPa | 2.7V | 18:12:15 | 01:51:13 | 00:00:00 | |
| DL1XH-15 | 2026-09-01 05:22:53 | 52.69316 | 8.32516 | 284° | 15km/h | 27977m | 5.9m/s | -45.6°C | 2.7% | 16.6hPa | 2.7V | 08:30:00 | 01:51:07 | 00:00:00 | |
| AA1-15 | 2026-09-01 05:22:52 | 52.69320 | 8.32493 | 308° | 13km/h | 28003m | 6m/s | -45.7°C | 0% | 16.6hPa | 2.7V | 18:12:15 | 01:51:11 | 00:00:00 | |
| DO2JMG | 2026-09-01 05:22:49 | 52.69316 | 8.32511 | 279° | 15km/h | 27983m | 5.7m/s | -45.6°C | 0% | 16.6hPa | 2.6V | 18:12:15 | 01:51:08 | 00:00:00 | |
| BIOWL1-15 | 2026-09-01 05:22:47 | 52.69315 | 8.32522 | 297° | 11km/h | 27971m | 7.1m/s | -45.6°C | 0% | 16.6hPa | 2.7V | 18:12:15 | 01:51:06 | 00:00:00 | |
| BIOWL9-15 | 2026-09-01 05:22:44 | 52.69313 | 8.32528 | 207° | 4km/h | 27952m | 7.3m/s | -45.7°C | 0.7% | 16.7hPa | 2.6V | 00:00:00 | 00:00:00 | 00:00:00 | |
| DL1XH-west | 2026-09-01 05:22:43 | 52.69315 | 8.32529 | 190° | 9km/h | 27945m | 6m/s | -45.7°C | 0% | 16.7hPa | 2.6V | 18:12:15 | 01:51:02 | 00:00:00 | |
| AA1-15 | 2026-09-01 05:22:41 | 52.69320 | 8.32531 | 193° | 9km/h | 27935m | 5.4m/s | -45.8°C | 0% | 16.7hPa | 2.7V | 18:12:15 | 01:51:00 | 00:00:00 | |
| DB0DAN | 2026-09-01 05:22:40 | 52.69321 | 8.32532 | 206° | 5km/h | 27929m | 7.2m/s | -45.9°C | 0.7% | 16.74hPa | 2.6V | 00:00:00 | 00:00:00 | 00:00:00 | |
| DO2JMG | 2026-09-01 05:22:39 | 52.69322 | 8.32533 | 263° | 5km/h | 27922m | 6.5m/s | -45.9°C | 0% | 16.7hPa | 2.6V | 18:12:15 | 01:50:58 | 00:00:00 | |
| BIOWL1-15 | 2026-09-01 05:22:37 | 52.69322 | 8.32540 | 279° | 11km/h | 27911m | 4.8m/s | -46.1°C | 0% | 16.8hPa | 2.7V | 18:12:15 | 01:50:56 | 00:00:00 | |
| DL1XH-west | 2026-09-01 05:22:33 | 52.69328 | 8.32567 | 233° | 26km/h | 27886m | 5.2m/s | -46.4°C | 0% | 16.8hPa | 2.6V | 18:12:15 | 01:50:52 | 00:00:00 | |
| HSKMA3-T | 2026-09-01 05:22:31 | 52.69336 | 8.32583 | 235° | 22km/h | 27874m | 6.5m/s | -46.5°C | 0% | 16.9hPa | 2.7V | 18:12:15 | 01:50:50 | 00:00:00 | |
| AA1-15 | 2026-09-01 05:22:30 | 52.69339 | 8.32590 | 235° | 20km/h | 27868m | 5.7m/s | -46.5°C | 0% | 16.9hPa | 2.7V | 18:12:15 | 01:50:49 | 00:00:00 | |
| DO2JMG | 2026-09-01 05:22:29 | 52.69342 | 8.32596 | 231° | 20km/h | 27863m | 5.4m/s | -46.5°C | 0% | 16.9hPa | 2.7V | 18:12:15 | 01:50:48 | 00:00:00 | |
| BIOWL1-15 | 2026-09-01 05:22:26 | 52.69353 | 8.32613 | 214° | 18km/h | 27844m | 5.3m/s | -46.6°C | 0% | 16.9hPa | 2.6V | 18:12:15 | 01:50:45 | 00:00:00 | |
| GOEST3-10 | 2026-09-01 05:22:26 | 52.69353 | 8.32613 | 214° | 15km/h | 27844m | 5.3m/s | -46.5°C | 2.8% | 16.9hPa | 2.7V | 00:00:00 | 00:00:00 | 00:00:00 | |
| DO3DL | 2026-09-01 05:22:25 | 52.69357 | 8.32617 | 214° | 16km/h | 27838m | 7.3m/s | -46.6°C | 0.7% | 17.0hPa | 2.7V | 00:00:00 | 00:00:00 | 00:00:00 | |
| DL1XH-15 | 2026-09-01 05:22:23 | 52.69384 | 8.32633 | 195° | 22km/h | 27796m | 7m/s | -46.8°C | 2.9% | 17.1hPa | 2.7V | 08:30:00 | 01:50:37 | 00:00:00 | |
| DL1XH-west | 2026-09-01 05:22:22 | 52.69365 | 8.32624 | 201° | 13km/h | 27820m | 4.7m/s | -46.8°C | 0% | 17hPa | 2.6V | 18:12:15 | 01:50:41 | 00:00:00 | |
| HSKMA3-T | 2026-09-01 05:22:20 | 52.69373 | 8.32628 | 196° | 20km/h | 27808m | 6.3m/s | -46.8°C | 0% | 17.1hPa | 2.7V | 18:12:15 | 01:50:39 | 00:00:00 | |
| AA1-15 | 2026-09-01 05:22:19 | 52.69378 | 8.32631 | 195° | 22km/h | 27802m | 5.3m/s | -46.8°C | 0% | 17.1hPa | 2.7V | 18:12:15 | 01:50:38 | 00:00:00 | |
| DO2JMG | 2026-09-01 05:22:18 | 52.69384 | 8.32633 | 195° | 22km/h | 27796m | 7m/s | -46.8°C | 0% | 17.1hPa | 2.7V | 18:12:15 | 01:50:37 | 00:00:00 | |
| BIOWL1-15 | 2026-09-01 05:22:15 | 52.69434 | 8.32652 | 186° | 18km/h | 27742m | 5.8m/s | -46.9°C | 0% | 17.2hPa | 2.6V | 18:12:15 | 01:50:28 | 00:00:00 | |
| DK5PH-5 | 2026-09-01 05:22:14 | 52.69403 | 8.32643 | 197° | 20km/h | 27771m | 7.2m/s | -46.8°C | 2.9% | 17.1hPa | 2.7V | 00:00:00 | 01:50:33 | 00:00:00 | |
| DL1XH-15 | 2026-09-01 05:22:13 | 52.69439 | 8.32653 | 188° | 18km/h | 27736m | 5.3m/s | -46.9°C | 3% | 17.2hPa | 2.7V | 08:30:00 | 01:50:27 | 00:00:00 | |
| DL1XH-west | 2026-09-01 05:22:12 | 52.69416 | 8.32648 | 191° | 27km/h | 27759m | 5.2m/s | -46.9°C | 0% | 17.2hPa | 2.7V | 18:12:15 | 01:50:31 | 00:00:00 | |
| SONCRA | 2026-09-01 05:22:12 | 52.69423 | 8.32650 | 187° | 24km/h | 27754m | 5.4m/s | -46.9°C | 0.8% | 17.2hPa | 2.6V | 00:00:00 | 00:00:00 | 00:00:00 | |
| D01LWL | 2026-09-01 05:22:11 | 52.69429 | 8.32651 | 186° | 20km/h | 27748m | 6.2m/s | -46.9°C | 0.8% | 17.2hPa | 2.6V | 00:00:00 | 00:00:00 | 00:00:00 | |
| DL1XH1-15 | 2026-09-01 05:22:10 | 52.69455 | 8.32658 | 189° | 24km/h | 27718m | 5m/s | -46.9°C | 2.9% | 17.3hPa | 2.6V | 08:30:00 | 01:50:24 | 00:00:00 | |
| DB0DAN | 2026-09-01 05:22:10 | 52.69429 | 8.32651 | 186° | 20km/h | 27748m | 6.2m/s | -46.9°C | 0.8% | 17.21hPa | 2.6V | 00:00:00 | 00:00:00 | 00:00:00 | |
| HSKMA3-T | 2026-09-01 05:22:10 | 52.69429 | 8.32651 | 186° | 22km/h | 27748m | 6.2m/s | -46.9°C | 0.1% | 17.2hPa | 2.6V | 18:12:15 | 01:50:29 | 00:00:00 | |
| AA1-15 | 2026-09-01 05:22:08 | 52.69438 | 8.32653 | 189° | 18km/h | 27736m | 5.3m/s | -46.9°C | 0.1% | 17.2hPa | 2.7V | 18:12:15 | 01:50:27 | 00:00:00 | |
| DO2JMG | 2026-09-01 05:22:07 | 52.69443 | 8.32654 | 191° | 20km/h | 27730m | 7.2m/s | -46.9°C | 0% | 17.3hPa | 2.7V | 18:12:15 | 01:50:26 | 00:00:00 | |
| GOEST3-10 | 2026-09-01 05:22:06 | 52.69449 | 8.32656 | 192° | 22km/h | 27723m | 6.2m/s | -46.8°C | 2.9% | 17.2hPa | 2.6V | 00:00:00 | 00:00:00 | 00:00:00 | |
| DO3DL | 2026-09-01 05:22:05 | 52.69449 | 8.32656 | 193° | 24km/h | 27723m | 6.3m/s | -46.9°C | 0.8% | 17.3hPa | 2.7V | 00:00:00 | 00:00:00 | 00:00:00 | |
| BIOWL7-15 | 2026-09-01 05:22:04 | 52.69455 | 8.32658 | 190° | 24km/h | 27718m | 5.0m/s | -46.9°C | 0.7% | 17.3hPa | 2.7V | 00:00:00 | 00:00:00 | 00:00:00 | |
| DL1XH-15 | 2026-09-01 05:22:03 | 52.69492 | 8.32649 | 165° | 27km/h | 27676m | 5m/s | -46.9°C | 2.9% | 17.4hPa | 2.7V | 08:30:00 | 01:50:17 | 00:00:00 | |
| DL1XH-west | 2026-09-01 05:22:01 | 52.69475 | 8.32656 | 163° | 20km/h | 27693m | 5.6m/s | -46.9°C | 0% | 17.4hPa | 2.6V | 18:12:15 | 01:50:20 | 00:00:00 | |
| DD8BA-10 | 2026-09-01 05:22:01 | 52.69475 | 8.32656 | 164° | 24km/h | 27694m | 5.6m/s | -46.8°C | 2.9% | 17.3hPa | 2.6V | 00:00:00 | 00:00:00 | 00:00:00 | |
| DL4XJ-10 | 2026-09-01 05:22:00 | 52.69480 | 8.32654 | 167° | 18km/h | 27688m | 7.1m/s | -49.4°C | 0% | 0hPa | 2.6V | 00:00:00 | 00:00:00 | 00:00:00 | |
| DM0DOS-11 | 2026-09-01 05:21:59 | 52.69510 | 8.32640 | 164° | 22km/h | 27657m | 5.4m/s | -47°C | 2.9% | 17.5hPa | 2.6V | 08:30:00 | 01:50:14 | 00:00:00 | |
| HSKMA3-T | 2026-09-01 05:21:59 | 52.69486 | 8.32651 | 166° | 26km/h | 27681m | 5.4m/s | -46.9°C | 0% | 17.4hPa | 2.7V | 18:12:15 | 01:50:18 | 00:00:00 | |
| DF8AY | 2026-09-01 05:21:58 | 52.69493 | 8.32649 | 165° | 27km/h | 27676m | 5m/s | -46.9°C | 0% | 17.4hPa | 2.7V | 18:12:15 | 01:50:17 | 00:00:00 | |
| DO2JMG | 2026-09-01 05:21:57 | 52.69499 | 8.32646 | 162° | 26km/h | 27670m | 6.8m/s | -47°C | 0% | 17.4hPa | 2.7V | 18:12:15 | 01:50:16 | 00:00:00 | |
| DO1YAY-16 | 2026-09-01 05:21:56 | 52.69505 | 8.32642 | 160° | 22km/h | 27663m | 6.2m/s | -47.0°C | 0.8% | 17.4hPa | 2.6V | 00:00:00 | 00:00:00 | 00:00:00 | |
| DB0DAN | 2026-09-01 05:21:55 | 52.69510 | 8.32640 | 164° | 20km/h | 27657m | 5.4m/s | -47°C | 0.8% | 17.48hPa | 2.6V | 00:00:00 | 00:00:00 | 00:00:00 | |
| DD1CC3-15 | 2026-09-01 05:21:54 | 52.69510 | 8.32640 | 165° | 22km/h | 27658m | 5.4m/s | -47.0°C | 0.8% | 17.5hPa | 2.7V | 00:00:00 | 00:00:00 | 00:00:00 | |
| DL1XH-15 | 2026-09-01 05:21:53 | 52.69539 | 8.32645 | 214° | 4km/h | 27616m | 6m/s | -47.2°C | 3% | 17.6hPa | 2.7V | 08:30:00 | 01:50:07 | 00:00:00 | |
| DL1XH-west | 2026-09-01 05:21:50 | 52.69535 | 8.32642 | 201° | 15km/h | 27630m | 7.1m/s | -47.1°C | 0% | 17.5hPa | 2.6V | 18:12:15 | 01:50:09 | 00:00:00 | |
| HSKMA3-T | 2026-09-01 05:21:48 | 52.69539 | 8.32645 | 214° | 4km/h | 27616m | 6m/s | -47.2°C | 0.1% | 17.6hPa | 2.7V | 18:12:15 | 01:50:07 | 00:00:00 | |
| DO2JMG | 2026-09-01 05:21:47 | 52.69540 | 8.32646 | 203° | 4km/h | 27610m | 5.3m/s | -47.2°C | 0.1% | 17.6hPa | 2.6V | 18:12:15 | 01:50:06 | 00:00:00 | |
| DF8AY | 2026-09-01 05:21:45 | 52.69544 | 8.32647 | 185° | 13km/h | 27598m | 6.7m/s | -47.3°C | 0.1% | 17.6hPa | 2.6V | 18:12:15 | 01:50:04 | 00:00:00 | |
| DK5PH-5 | 2026-09-01 05:21:44 | 52.69548 | 8.32647 | 178° | 11km/h | 27592m | 5.6m/s | -47.3°C | 3.0% | 17.6hPa | 2.7V | 00:00:00 | 01:50:03 | 00:00:00 | |
| DL1XH-15 | 2026-09-01 05:21:43 | 52.69573 | 8.32633 | 173° | 16km/h | 27556m | 6.8m/s | -47.3°C | 3% | 17.7hPa | 2.7V | 08:30:00 | 01:49:57 | 00:00:00 | |
| DL4BBY-15 | 2026-09-01 05:21:43 | 52.69552 | 8.32646 | 171° | 9km/h | 27586m | 6.1m/s | -49.9°C | 0% | 0hPa | 2.6V | 00:00:00 | 00:00:00 | 00:00:00 | |
| BIOWL9-15 | 2026-09-01 05:21:42 | 52.69557 | 8.32644 | 161° | 18km/h | 27579m | 7.2m/s | -47.3°C | 0.8% | 17.7hPa | 2.6V | 00:00:00 | 00:00:00 | 00:00:00 | |
| DD1CC9-15 | 2026-09-01 05:21:41 | 52.69557 | 8.32644 | 163° | 20km/h | 27580m | 7.2m/s | -47.3°C | 0.8% | 17.7hPa | 2.6V | 00:00:00 | 00:00:00 | 00:00:00 | |
| DB0DAN | 2026-09-01 05:21:40 | 52.69565 | 8.32638 | 153° | 16km/h | 27568m | 4.8m/s | -47.3°C | 0.8% | 17.7hPa | 2.6V | 00:00:00 | 00:00:00 | 00:00:00 | |
| DL1XH-west | 2026-09-01 05:21:40 | 52.69565 | 8.32638 | 153° | 18km/h | 27568m | 4.8m/s | -47.3°C | 0.1% | 17.7hPa | 2.6V | 18:12:15 | 01:49:59 | 00:00:00 | |
| HSKMA3-T | 2026-09-01 05:21:37 | 52.69577 | 8.32633 | 186° | 13km/h | 27550m | 5.4m/s | -47.4°C | 0.1% | 17.8hPa | 2.7V | 18:12:15 | 01:49:56 | 00:00:00 | |
| DO2JMG | 2026-09-01 05:21:36 | 52.69580 | 8.32634 | 198° | 9km/h | 27545m | 5m/s | -47.3°C | 0.1% | 17.8hPa | 2.6V | 18:12:15 | 01:49:55 | 00:00:00 | |
| DF8AY | 2026-09-01 05:21:35 | 52.69581 | 8.32635 | 207° | 4km/h | 27538m | 7.4m/s | -47.4°C | 0% | 17.8hPa | 2.6V | 18:12:15 | 01:49:54 | 00:00:00 | |
| AM1SDL-15 | 2026-09-01 05:21:34 | 52.69581 | 8.32635 | 8° | 7km/h | 27532m | 6.6m/s | -47.3°C | 3.0% | 17.7hPa | 2.7V | 00:00:00 | 01:49:53 | 00:00:00 | |
| DL1XH-15 | 2026-09-01 05:21:33 | 52.69579 | 8.32626 | 128° | 9km/h | 27495m | 6.8m/s | -47.3°C | 3% | 17.9hPa | 2.7V | 08:30:00 | 01:49:47 | 00:00:00 | |
| DL1XH-west | 2026-09-01 05:21:30 | 52.69577 | 8.32631 | 105° | 4km/h | 27506m | 5.9m/s | -47.3°C | 0% | 17.9hPa | 2.6V | 18:12:15 | 01:49:49 | 00:00:00 | |
| BIOWL1-15 | 2026-09-01 05:21:29 | 52.69577 | 8.32629 | 134° | 7km/h | 27501m | 5.2m/s | -47.3°C | 0% | 17.9hPa | 2.7V | 18:12:15 | 01:49:48 | 00:00:00 | |
| DO2JMG | 2026-09-01 05:21:26 | 52.69582 | 8.32619 | 127° | 11km/h | 27482m | 5.1m/s | -47.3°C | 0.1% | 17.9hPa | 2.6V | 18:12:15 | 01:49:45 | 00:00:00 | |
| DB0DAN | 2026-09-01 05:21:25 | 52.69584 | 8.32616 | 142° | 9km/h | 27477m | 5.1m/s | -47.3°C | 0.8% | 17.95hPa | 2.6V | 00:00:00 | 00:00:00 | 00:00:00 | |
| DF8AY | 2026-09-01 05:21:24 | 52.69586 | 8.32614 | 166° | 11km/h | 27471m | 7.1m/s | -47.3°C | 0% | 18hPa | 2.6V | 18:12:15 | 01:49:43 | 00:00:00 | |
| DL1XH-15 | 2026-09-01 05:21:23 | 52.69592 | 8.32627 | 281° | 7km/h | 27433m | 6.1m/s | -47.4°C | 2.9% | 18.1hPa | 2.7V | 08:30:00 | 01:49:37 | 00:00:00 | |
| DL1XH-west | 2026-09-01 05:21:20 | 52.69593 | 8.32621 | 274° | 7km/h | 27445m | 6.4m/s | -47.3°C | 0% | 18.1hPa | 2.6V | 18:12:15 | 01:49:39 | 00:00:00 | |
| BIOWL1-15 | 2026-09-01 05:21:19 | 52.69593 | 8.32624 | 288° | 7km/h | 27439m | 5.6m/s | -47.3°C | 0.1% | 18.1hPa | 2.7V | 18:12:15 | 01:49:38 | 00:00:00 | |
| DO2JMG | 2026-09-01 05:21:15 | 52.69594 | 8.32633 | 186° | 4km/h | 27415m | 5.4m/s | -47.5°C | 0% | 18.1hPa | 2.6V | 18:12:15 | 01:49:34 | 00:00:00 | |
| DK5PH-5 | 2026-09-01 05:21:14 | 52.69595 | 8.32632 | 128° | 13km/h | 27409m | 7.1m/s | -47.5°C | 2.9% | 18.1hPa | 2.7V | 00:00:00 | 01:49:33 | 00:00:00 | |
| DL1XH-15 | 2026-09-01 05:21:13 | 52.69604 | 8.32626 | 227° | 7km/h | 27373m | 6.1m/s | -47.6°C | 3% | 18.2hPa | 2.7V | 08:30:00 | 01:49:27 | 00:00:00 | |
| DL4BBY-15 | 2026-09-01 05:21:13 | 52.69595 | 8.32630 | 113° | 13km/h | 27402m | 5.8m/s | -50.1°C | 0% | 0hPa | 2.6V | 00:00:00 | 00:00:00 | 00:00:00 | |
| DB0DAN | 2026-09-01 05:21:10 | 52.69600 | 8.32624 | 172° | 9km/h | 27384m | 5.7m/s | -47.6°C | 0.8% | 18.19hPa | 2.6V | 00:00:00 | 00:00:00 | 00:00:00 | |
| DL1XH1-15 | 2026-09-01 05:21:10 | 52.69603 | 8.32638 | 292° | 15km/h | 27355m | 5.1m/s | -47.7°C | 3% | 18.3hPa | 2.6V | 08:30:00 | 01:49:24 | 00:00:00 | |
| DL1XH-west | 2026-09-01 05:21:09 | 52.69603 | 8.32624 | 197° | 9km/h | 27378m | 5.2m/s | -47.6°C | 0% | 18.2hPa | 2.6V | 18:12:15 | 01:49:28 | 00:00:00 | |
| BIOWL1-15 | 2026-09-01 05:21:08 | 52.69604 | 8.32626 | 227° | 7km/h | 27373m | 6.1m/s | -47.6°C | 0% | 18.2hPa | 2.7V | 18:12:15 | 01:49:27 | 00:00:00 | |
| DO2JMG | 2026-09-01 05:21:04 | 52.69602 | 8.32644 | 285° | 16km/h | 27348m | 7.2m/s | -47.7°C | 0% | 18.3hPa | 2.7V | 18:12:15 | 01:49:23 | 00:00:00 | |
| BIOWL7-15 | 2026-09-01 05:21:03 | 52.69602 | 8.32643 | 286° | 16km/h | 27349m | 7.2m/s | -47.7°C | 0.7% | 18.3hPa | 2.6V | 00:00:00 | 00:00:00 | 00:00:00 | |
| DB0NH | 2026-09-01 05:21:01 | 52.69600 | 8.32664 | 277° | 16km/h | 27331m | 5.4m/s | -47.7°C | 3.0% | 18.3hPa | 2.6V | 00:00:00 | 01:49:20 | 00:00:00 | |
| DL1XH1-15 | 2026-09-01 05:21:00 | 52.69596 | 8.32686 | 242° | 9km/h | 27295m | 5.5m/s | -47.9°C | 3.1% | 18.5hPa | 2.6V | 08:30:00 | 01:49:14 | 00:00:00 | |
| DL1XH-west | 2026-09-01 05:20:59 | 52.69598 | 8.32674 | 305° | 11km/h | 27318m | 5.8m/s | -47.8°C | 0.1% | 18.4hPa | 2.7V | 18:12:15 | 01:49:18 | 00:00:00 | |
| BIOWL1-15 | 2026-09-01 05:20:57 | 52.69595 | 8.32681 | 300° | 7km/h | 27307m | 5.8m/s | -47.8°C | 0.1% | 18.4hPa | 2.7V | 18:12:15 | 01:49:16 | 00:00:00 | |
| DB0DAN | 2026-09-01 05:20:55 | 52.69596 | 8.32686 | 243° | 7km/h | 27295m | 5.5m/s | -47.9°C | 0.8% | 18.47hPa | 2.6V | 00:00:00 | 00:00:00 | 00:00:00 | |
| HSKMA3-T | 2026-09-01 05:20:54 | 52.69597 | 8.32689 | 246° | 11km/h | 27289m | 4.9m/s | -47.9°C | 0.1% | 18.5hPa | 2.6V | 18:12:15 | 01:49:13 | 00:00:00 | |
| DO2JMG | 2026-09-01 05:20:53 | 52.69598 | 8.32694 | 256° | 11km/h | 27283m | 7m/s | -48°C | 0.1% | 18.5hPa | 2.7V | 18:12:15 | 01:49:12 | 00:00:00 | |
| DD1CC3-15 | 2026-09-01 05:20:53 | 52.69597 | 8.32693 | 257° | 11km/h | 27284m | 7.0m/s | -48.0°C | 0.8% | 18.5hPa | 2.6V | 00:00:00 | 00:00:00 | 00:00:00 | |
| DL1XH1-15 | 2026-09-01 05:20:50 | 52.69605 | 8.32751 | 261° | 16km/h | 27234m | 5.1m/s | -48°C | 3.1% | 18.6hPa | 2.6V | 08:30:00 | 01:49:04 | 00:00:00 | |
| DL1XH-west | 2026-09-01 05:20:48 | 52.69601 | 8.32728 | 249° | 22km/h | 27253m | 5.7m/s | -47.9°C | 0.1% | 18.6hPa | 2.7V | 18:12:15 | 01:49:07 | 00:00:00 | |
| BIOWL1-15 | 2026-09-01 05:20:47 | 52.69603 | 8.32736 | 252° | 20km/h | 27247m | 5.9m/s | -47.9°C | 0.1% | 18.6hPa | 2.7V | 18:12:15 | 01:49:06 | 00:00:00 | |
| HSKMA3-T | 2026-09-01 05:20:44 | 52.69606 | 8.32757 | 257° | 15km/h | 27230m | 4.7m/s | -48°C | 0.1% | 18.7hPa | 2.6V | 18:12:15 | 01:49:03 | 00:00:00 | |
| DO2JMG | 2026-09-01 05:20:42 | 52.69610 | 8.32769 | 229° | 16km/h | 27217m | 6.4m/s | -48°C | 0% | 18.7hPa | 2.7V | 18:12:15 | 01:49:01 | 00:00:00 | |
| DB0DAN | 2026-09-01 05:20:40 | 52.69617 | 8.32778 | 210° | 16km/h | 27206m | 5.6m/s | -47.9°C | 0.8% | 18.71hPa | 2.7V | 00:00:00 | 00:00:00 | 00:00:00 | |
| DL1XH1-15 | 2026-09-01 05:20:40 | 52.69630 | 8.32799 | 234° | 22km/h | 27176m | 6.5m/s | -47.9°C | 3.1% | 18.8hPa | 2.7V | 08:30:00 | 01:48:54 | 00:00:00 | |
| DL1XH-west | 2026-09-01 05:20:38 | 52.69623 | 8.32784 | 217° | 13km/h | 27194m | 5.7m/s | -47.8°C | 0.1% | 18.8hPa | 2.6V | 18:12:15 | 01:48:57 | 00:00:00 | |
| BIOWL1-15 | 2026-09-01 05:20:37 | 52.69625 | 8.32788 | 228° | 13km/h | 27188m | 5.2m/s | -47.9°C | 0.2% | 18.8hPa | 2.6V | 18:12:15 | 01:48:56 | 00:00:00 | |
| DF8AY | 2026-09-01 05:20:35 | 52.69631 | 8.32799 | 234° | 22km/h | 27176m | 6.5m/s | -47.9°C | 0.1% | 18.8hPa | 2.7V | 18:12:15 | 01:48:54 | 00:00:00 | |
| HSKMA3-T | 2026-09-01 05:20:33 | 52.69637 | 8.32815 | 242° | 24km/h | 27165m | 5.9m/s | -48.1°C | 0.1% | 18.9hPa | 2.7V | 18:12:15 | 01:48:52 | 00:00:00 | |
| DO2JMG | 2026-09-01 05:20:32 | 52.69639 | 8.32824 | 246° | 22km/h | 27159m | 6.8m/s | -48.1°C | 0.1% | 18.9hPa | 2.6V | 18:12:15 | 01:48:51 | 00:00:00 | |
| AA1-15 | 2026-09-01 05:20:31 | 52.69642 | 8.32832 | 245° | 20km/h | 27152m | 5.4m/s | -48.1°C | 0.1% | 18.9hPa | 2.6V | 18:12:15 | 01:48:50 | 00:00:00 | |
| DL3AQ-11 | 2026-09-01 05:20:31 | 52.69644 | 8.32839 | 235° | 18km/h | 27147m | 5.2m/s | -48.2°C | 0.8% | 18.9hPa | 2.6V | 00:00:00 | 00:00:00 | 00:00:00 | |
| DL1XH1-15 | 2026-09-01 05:20:30 | 52.69671 | 8.32865 | 199° | 26km/h | 27117m | 6.4m/s | -48.3°C | 3.1% | 19hPa | 2.6V | 08:30:00 | 01:48:44 | 00:00:00 | |
| BIOWL1-15 | 2026-09-01 05:20:30 | 52.69665 | 8.32861 | 200° | 27km/h | 27124m | 5.9m/s | -48.3°C | 0.1% | 19hPa | 2.6V | 18:12:15 | 01:48:45 | 00:00:00 | |
| DL1XH-west | 2026-09-01 05:20:27 | 52.69658 | 8.32857 | 204° | 29km/h | 27129m | 5m/s | -48.3°C | 0.2% | 19hPa | 2.7V | 18:12:15 | 01:48:46 | 00:00:00 | |
| DB0DAN | 2026-09-01 05:20:25 | 52.69671 | 8.32865 | 200° | 24km/h | 27117m | 6.4m/s | -48.3°C | 0.8% | 18.99hPa | 2.6V | 00:00:00 | 00:00:00 | 00:00:00 | |
| DF8AY | 2026-09-01 05:20:24 | 52.69677 | 8.32869 | 203° | 24km/h | 27112m | 5.5m/s | -48.3°C | 0.2% | 19hPa | 2.6V | 18:12:15 | 01:48:43 | 00:00:00 | |
| HTAHTA | 2026-09-01 05:20:24 | 52.69683 | 8.32873 | 209° | 24km/h | 27106m | 5.3m/s | -48.3°C | 0.8% | 19.0hPa | 2.7V | 00:00:00 | 00:00:00 | 00:00:00 | |
| DL1XH-15 | 2026-09-01 05:20:23 | 52.69709 | 8.32909 | 225° | 22km/h | 27077m | 6.6m/s | -48.1°C | 3% | 19.1hPa | 2.7V | 08:30:00 | 01:48:37 | 00:00:00 | |
| DO2JMG | 2026-09-01 05:20:22 | 52.69688 | 8.32879 | 214° | 27km/h | 27100m | 7m/s | -48.2°C | 0.1% | 19hPa | 2.7V | 18:12:15 | 01:48:41 | 00:00:00 | |
| AA1-15 | 2026-09-01 05:20:21 | 52.69694 | 8.32886 | 220° | 29km/h | 27094m | 5.5m/s | -48.1°C | 0.2% | 19hPa | 2.6V | 18:12:15 | 01:48:40 | 00:00:00 | |
| DD8BA-10 | 2026-09-01 05:20:21 | 52.69694 | 8.32886 | 220° | 27km/h | 27094m | 5.5m/s | -48.1°C | 3.1% | 19.0hPa | 2.6V | 00:00:00 | 00:00:00 | 00:00:00 | |
| DL1XH1-15 | 2026-09-01 05:20:20 | 52.69724 | 8.32922 | 191° | 26km/h | 27059m | 7.3m/s | -48.1°C | 3.1% | 19.2hPa | 2.6V | 08:30:00 | 01:48:34 | 00:00:00 | |
| BIOWL1-15 | 2026-09-01 05:20:17 | 52.69746 | 8.32920 | 168° | 29km/h | 27041m | 7.3m/s | -48.1°C | 0.1% | 19.2hPa | 2.7V | 18:12:15 | 01:48:31 | 00:00:00 | |
| DL1XH-west | 2026-09-01 05:20:16 | 52.69717 | 8.32919 | 201° | 22km/h | 27066m | 5.3m/s | -48°C | 0.1% | 19.1hPa | 2.7V | 18:12:15 | 01:48:35 | 00:00:00 | |
| DF8AY | 2026-09-01 05:20:15 | 52.69730 | 8.32923 | 181° | 31km/h | 27053m | 5.7m/s | -48.1°C | 0.2% | 19.2hPa | 2.6V | 18:12:15 | 01:48:33 | 00:00:00 | |
| HSKMA3-T | 2026-09-01 05:20:11 | 52.69753 | 8.32917 | 164° | 27km/h | 27034m | 5.7m/s | -48°C | 0% | 19.2hPa | 2.7V | 18:12:15 | 01:48:30 | 00:00:00 | |
| AA1-15 | 2026-09-01 05:20:10 | 52.69760 | 8.32914 | 168° | 27km/h | 27029m | 5.6m/s | -48.1°C | 0.1% | 19.2hPa | 2.7V | 18:12:15 | 01:48:29 | 00:00:00 | |
| DL1XH-west | 2026-09-01 05:20:05 | 52.69787 | 8.32924 | 232° | 15km/h | 26998m | 6.5m/s | -48.2°C | 0% | 19.3hPa | 2.7V | 18:12:15 | 01:48:24 | 00:00:00 | |
| DF8AY | 2026-09-01 05:20:03 | 52.69790 | 8.32932 | 244° | 9km/h | 26988m | 5.1m/s | -48.3°C | 0.1% | 19.4hPa | 2.7V | 18:12:15 | 01:48:22 | 00:00:00 | |
| HSKMA3-T | 2026-09-01 05:20:01 | 52.69793 | 8.32937 | 195° | 13km/h | 26976m | 5.6m/s | -48.6°C | 0.2% | 19.4hPa | 2.6V | 18:12:15 | 01:48:20 | 00:00:00 | |
| DO2JMG | 2026-09-01 05:20:00 | 52.69797 | 8.32938 | 174° | 16km/h | 26971m | 4.7m/s | -48.7°C | 0.2% | 19.4hPa | 2.6V | 18:12:15 | 01:48:19 | 00:00:00 | |
| EDDB2-11 | 2026-09-01 05:19:59 | 52.69801 | 8.32936 | 160° | 18km/h | 26966m | 5.5m/s | -48.7°C | 0.8% | 19.5hPa | 2.6V | 00:00:00 | 00:00:00 | 00:00:00 | |
| DO3DL | 2026-09-01 05:19:56 | 52.69810 | 8.32927 | 139° | 22km/h | 26953m | 6.4m/s | -48.8°C | 0.8% | 19.5hPa | 2.6V | 00:00:00 | 00:00:00 | 00:00:00 | |
| DB0DAN | 2026-09-01 05:19:55 | 52.69818 | 8.32915 | 143° | 22km/h | 26941m | 6.5m/s | -48.9°C | 0.8% | 19.54hPa | 2.6V | 00:00:00 | 00:00:00 | 00:00:00 | |
| DL1XH-west | 2026-09-01 05:19:55 | 52.69818 | 8.32915 | 143° | 24km/h | 26941m | 6.5m/s | -48.9°C | 0.2% | 19.5hPa | 2.6V | 18:12:15 | 01:48:14 | 00:00:00 | |
| DF8AY | 2026-09-01 05:19:52 | 52.69832 | 8.32903 | 155° | 15km/h | 26924m | 5.9m/s | -48.9°C | 0.1% | 19.6hPa | 2.7V | 18:12:15 | 01:48:11 | 00:00:00 | |
| HSKMA3-T | 2026-09-01 05:19:51 | 52.69835 | 8.32900 | 143° | 11km/h | 26917m | 7.3m/s | -49°C | 0.1% | 19.6hPa | 2.6V | 18:12:15 | 01:48:10 | 00:00:00 | |
| DL3AQ-11 | 2026-09-01 05:19:51 | 52.69836 | 8.32898 | 119° | 7km/h | 26911m | 6.1m/s | -49.0°C | 0.8% | 19.6hPa | 2.6V | 00:00:00 | 00:00:00 | 00:00:00 | |
| DL1XH1-15 | 2026-09-01 05:19:50 | 52.69840 | 8.32877 | 96° | 18km/h | 26881m | 7.5m/s | -49.3°C | 3.2% | 19.7hPa | 2.6V | 08:30:00 | 01:48:04 | 00:00:00 | |
| DO2JMG | 2026-09-01 05:19:49 | 52.69837 | 8.32895 | 104° | 7km/h | 26905m | 5.5m/s | -49.1°C | 0.1% | 19.6hPa | 2.6V | 18:12:15 | 01:48:08 | 00:00:00 | |
| BIOWL1-15 | 2026-09-01 05:19:45 | 52.69840 | 8.32877 | 96° | 18km/h | 26881m | 7.5m/s | -49.3°C | 0.2% | 19.7hPa | 2.6V | 18:12:15 | 01:48:04 | 00:00:00 | |
| DL1XH-west | 2026-09-01 05:19:44 | 52.69840 | 8.32868 | 95° | 22km/h | 26874m | 6.3m/s | -49.3°C | 0.3% | 19.7hPa | 2.6V | 18:12:15 | 01:48:03 | 00:00:00 | |
| DF8AY | 2026-09-01 05:19:42 | 52.69842 | 8.32849 | 106° | 24km/h | 26863m | 6.2m/s | -49.3°C | 0.2% | 19.8hPa | 2.7V | 18:12:15 | 01:48:01 | 00:00:00 | |
| DK9SH | 2026-09-01 05:19:41 | 52.69842 | 8.32849 | 107° | 24km/h | 26864m | 6.2m/s | -49.3°C | 0.8% | 19.8hPa | 2.6V | 00:00:00 | 00:00:00 | 00:00:00 | |
| DB0DAN | 2026-09-01 05:19:40 | 52.69847 | 8.32835 | 131° | 15km/h | 26851m | 5.6m/s | -49.3°C | 0.9% | 19.8hPa | 2.6V | 00:00:00 | 00:00:00 | 00:00:00 | |
| HSKMA3-T | 2026-09-01 05:19:40 | 52.69847 | 8.32835 | 131° | 15km/h | 26851m | 5.6m/s | -49.3°C | 0.2% | 19.8hPa | 2.6V | 18:12:15 | 01:47:59 | 00:00:00 | |
| DO2JMG | 2026-09-01 05:19:39 | 52.69849 | 8.32831 | 139° | 11km/h | 26845m | 5.7m/s | -49.3°C | 0.2% | 19.8hPa | 2.6V | 18:12:15 | 01:47:58 | 00:00:00 | |
| AA1-15 | 2026-09-01 05:19:38 | 52.69851 | 8.32828 | 129° | 7km/h | 26839m | 7.1m/s | -49.3°C | 0.2% | 19.8hPa | 2.7V | 18:12:15 | 01:47:57 | 00:00:00 | |
| BIOWL1-15 | 2026-09-01 05:19:36 | 52.69850 | 8.32824 | 127° | 2km/h | 26814m | 6.3m/s | -49.5°C | 0.1% | 19.9hPa | 2.6V | 18:12:15 | 01:47:53 | 00:00:00 | |
| DL1XH-west | 2026-09-01 05:19:33 | 52.69851 | 8.32822 | 117° | 5km/h | 26809m | 4.8m/s | -49.6°C | 0.2% | 19.9hPa | 2.7V | 18:12:15 | 01:47:52 | 00:00:00 | |
| DF8AY | 2026-09-01 05:19:32 | 52.69851 | 8.32819 | 98° | 11km/h | 26804m | 5.2m/s | -49.6°C | 0.2% | 19.9hPa | 2.7V | 18:12:15 | 01:47:51 | 00:00:00 | |
| HSKMA3-T | 2026-09-01 05:19:30 | 52.69851 | 8.32807 | 79° | 20km/h | 26791m | 6.3m/s | -49.7°C | 0.2% | 20hPa | 2.6V | 18:12:15 | 01:47:49 | 00:00:00 | |
| DO2JMG | 2026-09-01 05:19:28 | 52.69849 | 8.32790 | 77° | 20km/h | 26779m | 5.9m/s | -49.7°C | 0.3% | 20hPa | 2.6V | 18:12:15 | 01:47:47 | 00:00:00 | |
| AA1-15 | 2026-09-01 05:19:27 | 52.69848 | 8.32782 | 81° | 16km/h | 26773m | 6.3m/s | -49.8°C | 0.2% | 20.1hPa | 2.7V | 18:12:15 | 01:47:46 | 00:00:00 | |
| SMARD9-10 | 2026-09-01 05:19:26 | 52.69847 | 8.32782 | 82° | 16km/h | 26773m | 6.3m/s | -49.8°C | 0.8% | 20.0hPa | 2.6V | 00:00:00 | 00:00:00 | 00:00:00 | |
| DB0DAN | 2026-09-01 05:19:25 | 52.69846 | 8.32771 | 63° | 11km/h | 26762m | 5.3m/s | -49.8°C | 0.9% | 20.07hPa | 2.6V | 00:00:00 | 00:00:00 | 00:00:00 | |
| BIOWL1-15 | 2026-09-01 05:19:24 | 52.69844 | 8.32767 | 45° | 11km/h | 26756m | 6.9m/s | -49.9°C | 0.3% | 20.1hPa | 2.6V | 18:12:15 | 01:47:43 | 00:00:00 | |
| DL1XH-west | 2026-09-01 05:19:22 | 52.69838 | 8.32762 | 18° | 15km/h | 26744m | 5.2m/s | -50°C | 0.3% | 20.1hPa | 2.7V | 18:12:15 | 01:47:41 | 00:00:00 | |
| DF8AY | 2026-09-01 05:19:21 | 52.69835 | 8.32761 | 8° | 13km/h | 26739m | 5.4m/s | -50.1°C | 0.3% | 20.1hPa | 2.6V | 18:12:15 | 01:47:40 | 00:00:00 | |
| HSKMA3-T | 2026-09-01 05:19:19 | 52.69830 | 8.32760 | 6° | 7km/h | 26726m | 5.4m/s | -50°C | 0.2% | 20.2hPa | 2.6V | 18:12:15 | 01:47:38 | 00:00:00 | |
| DO2JMG | 2026-09-01 05:19:18 | 52.69828 | 8.32759 | 40° | 7km/h | 26722m | 5m/s | -50.1°C | 0.3% | 20.2hPa | 2.7V | 18:12:15 | 01:47:37 | 00:00:00 | |
| AA1-15 | 2026-09-01 05:19:16 | 52.69825 | 8.32751 | 61° | 18km/h | 26709m | 6.9m/s | -50.1°C | 0.4% | 20.2hPa | 2.7V | 18:12:15 | 01:47:35 | 00:00:00 | |
| GOEST3-10 | 2026-09-01 05:19:16 | 52.69825 | 8.32751 | 61° | 22km/h | 26709m | 6.8m/s | -50.0°C | 3.4% | 20.2hPa | 2.6V | 00:00:00 | 00:00:00 | 00:00:00 | |
| DO3DL | 2026-09-01 05:19:15 | 52.69825 | 8.32751 | 62° | 18km/h | 26709m | 6.9m/s | -50.1°C | 0.9% | 20.2hPa | 2.6V | 00:00:00 | 00:00:00 | 00:00:00 | |
| DK5PH-5 | 2026-09-01 05:19:14 | 52.69819 | 8.32735 | 61° | 18km/h | 26697m | 5.4m/s | -49.9°C | 3.3% | 20.2hPa | 2.6V | 00:00:00 | 01:47:33 | 00:00:00 | |
| DL1XH-15 | 2026-09-01 05:19:13 | 52.69793 | 8.32705 | 5° | 24km/h | 26660m | 4.6m/s | -49.9°C | 3.2% | 20.4hPa | 2.6V | 08:30:00 | 01:47:27 | 00:00:00 | |
| BIOWL1-15 | 2026-09-01 05:19:13 | 52.69816 | 8.32726 | 59° | 22km/h | 26691m | 6.6m/s | -50°C | 0.3% | 20.3hPa | 2.6V | 18:12:15 | 01:47:32 | 00:00:00 | |
| DL1XH-west | 2026-09-01 05:19:12 | 52.69813 | 8.32720 | 49° | 20km/h | 26685m | 5.7m/s | -50°C | 0.2% | 20.3hPa | 2.7V | 18:12:15 | 01:47:31 | 00:00:00 | |
| DD8BA-10 | 2026-09-01 05:19:11 | 52.69809 | 8.32714 | 36° | 20km/h | 26679m | 6.0m/s | -49.9°C | 3.3% | 20.3hPa | 2.7V | 00:00:00 | 00:00:00 | 00:00:00 | |
| DL1XH1-15 | 2026-09-01 05:19:10 | 52.69778 | 8.32707 | 348° | 16km/h | 26643m | 5.9m/s | -50.1°C | 3.3% | 20.4hPa | 2.7V | 08:30:00 | 01:47:24 | 00:00:00 | |
| DB0DAN | 2026-09-01 05:19:10 | 52.69805 | 8.32710 | 24° | 20km/h | 26672m | 6.9m/s | -49.9°C | 0.8% | 20.35hPa | 2.6V | 00:00:00 | 00:00:00 | 00:00:00 | |
| DF8AY | 2026-09-01 05:19:10 | 52.69805 | 8.32710 | 24° | 22km/h | 26672m | 6.9m/s | -49.9°C | 0.2% | 20.4hPa | 2.6V | 18:12:15 | 01:47:29 | 00:00:00 | |
| HSKMA3-T | 2026-09-01 05:19:09 | 52.69799 | 8.32707 | 15° | 24km/h | 26666m | 6.1m/s | -49.9°C | 0.2% | 20.4hPa | 2.6V | 18:12:15 | 01:47:28 | 00:00:00 | |
| DO2JMG | 2026-09-01 05:19:08 | 52.69793 | 8.32705 | 6° | 24km/h | 26660m | 4.6m/s | -49.9°C | 0.2% | 20.4hPa | 2.6V | 18:12:15 | 01:47:27 | 00:00:00 | |
| AA1-15 | 2026-09-01 05:19:06 | 52.69782 | 8.32705 | 352° | 20km/h | 26649m | 7.1m/s | -50°C | 0.2% | 20.4hPa | 2.7V | 18:12:15 | 01:47:25 | 00:00:00 | |
| D01LWL | 2026-09-01 05:19:05 | 52.69774 | 8.32708 | 352° | 15km/h | 26638m | 4.9m/s | -50.1°C | 0.9% | 20.5hPa | 2.6V | 00:00:00 | 00:00:00 | 00:00:00 | |
| DL1ZP-14 | 2026-09-01 05:19:04 | 52.69769 | 8.32708 | 2° | 16km/h | 26632m | 7.2m/s | 0°C | -1.0% | -1.0hPa | 2.6V | 00:00:00 | 00:00:00 | 00:00:00 | |
| DL1XH-15 | 2026-09-01 05:19:03 | 52.69747 | 8.32695 | 20° | 15km/h | 26601m | 5.2m/s | -50.5°C | 3.3% | 20.6hPa | 2.6V | 08:30:00 | 01:47:17 | 00:00:00 | |
| BIOWL1-15 | 2026-09-01 05:19:02 | 52.69765 | 8.32707 | 14° | 20km/h | 26625m | 6m/s | -50.3°C | 0.3% | 20.5hPa | 2.6V | 18:12:15 | 01:47:21 | 00:00:00 | |
| DL1XH-west | 2026-09-01 05:19:01 | 52.69760 | 8.32704 | 21° | 22km/h | 26619m | 5.3m/s | -50.4°C | 0.3% | 20.5hPa | 2.7V | 18:12:15 | 01:47:20 | 00:00:00 | |
| DD8BA-10 | 2026-09-01 05:19:01 | 52.69760 | 8.32704 | 21° | 18km/h | 26619m | 5.2m/s | -50.3°C | 3.3% | 20.5hPa | 2.6V | 00:00:00 | 00:00:00 | 00:00:00 | |
| DL1XH1-15 | 2026-09-01 05:19:00 | 52.69735 | 8.32692 | 2° | 20km/h | 26583m | 6.3m/s | -50.8°C | 3.4% | 20.6hPa | 2.6V | 08:30:00 | 01:47:14 | 00:00:00 | |
| DF8AY | 2026-09-01 05:18:59 | 52.69751 | 8.32698 | 25° | 18km/h | 26607m | 7.2m/s | -50.5°C | 0.3% | 20.6hPa | 2.6V | 18:12:15 | 01:47:18 | 00:00:00 | |
| HSKMA3-T | 2026-09-01 05:18:58 | 52.69747 | 8.32695 | 21° | 15km/h | 26601m | 5.2m/s | -50.5°C | 0.3% | 20.6hPa | 2.6V | 18:12:15 | 01:47:17 | 00:00:00 | |
| DO2JMG | 2026-09-01 05:18:57 | 52.69744 | 8.32694 | 15° | 15km/h | 26596m | 4.9m/s | -50.6°C | 0.2% | 20.6hPa | 2.7V | 18:12:15 | 01:47:16 | 00:00:00 | |
| DO3DL | 2026-09-01 05:18:56 | 52.69743 | 8.32693 | 16° | 15km/h | 26596m | 4.9m/s | -50.6°C | 0.9% | 20.6hPa | 2.6V | 00:00:00 | 00:00:00 | 00:00:00 | |
| DB0DAN | 2026-09-01 05:18:55 | 52.69735 | 8.32692 | 2° | 18km/h | 26583m | 6.3m/s | -50.8°C | 0.9% | 20.65hPa | 2.6V | 00:00:00 | 00:00:00 | 00:00:00 | |
| AA1-15 | 2026-09-01 05:18:55 | 52.69735 | 8.32692 | 2° | 20km/h | 26583m | 6.3m/s | -50.8°C | 0.4% | 20.6hPa | 2.6V | 18:12:15 | 01:47:14 | 00:00:00 | |
| DL1XH-15 | 2026-09-01 05:18:53 | 52.69707 | 8.32705 | 338° | 13km/h | 26541m | 6.2m/s | -50.9°C | 3.5% | 20.8hPa | 2.6V | 08:30:00 | 01:47:07 | 00:00:00 | |
| BIOWL1-15 | 2026-09-01 05:18:53 | 52.69716 | 8.32697 | 331° | 15km/h | 26558m | 5.8m/s | -50.8°C | 0.3% | 20.8hPa | 2.7V | 18:12:15 | 01:47:10 | 00:00:00 | |
| DL1XH-west | 2026-09-01 05:18:50 | 52.69713 | 8.32700 | 325° | 13km/h | 26553m | 4.8m/s | -50.9°C | 0.4% | 20.7hPa | 2.7V | 18:12:15 | 01:47:09 | 00:00:00 | |
| HSKMA3-T | 2026-09-01 05:18:48 | 52.69707 | 8.32705 | 338° | 13km/h | 26541m | 6.2m/s | -50.9°C | 0.4% | 20.8hPa | 2.6V | 18:12:15 | 01:47:07 | 00:00:00 | |
| DO2JMG | 2026-09-01 05:18:46 | 52.69703 | 8.32708 | 340° | 5km/h | 26529m | 6.4m/s | -51°C | 0.4% | 20.8hPa | 2.7V | 18:12:15 | 01:47:05 | 00:00:00 | |
| AA1-15 | 2026-09-01 05:18:45 | 52.69702 | 8.32709 | 312° | 4km/h | 26523m | 6.5m/s | -51°C | 0.4% | 20.9hPa | 2.7V | 18:12:15 | 01:47:04 | 00:00:00 | |
| DK5PH-5 | 2026-09-01 05:18:44 | 52.69701 | 8.32710 | 282° | 13km/h | 26518m | 4.9m/s | -51.0°C | 3.4% | 20.8hPa | 2.6V | 00:00:00 | 01:47:03 | 00:00:00 | |
| DL1XH-15 | 2026-09-01 05:18:43 | 52.69695 | 8.32742 | 271° | 18km/h | 26481m | 5.8m/s | -51.2°C | 3.5% | 21hPa | 2.6V | 08:30:00 | 01:46:57 | 00:00:00 | |
| BIOWL1-15 | 2026-09-01 05:18:41 | 52.69698 | 8.32722 | 298° | 15km/h | 26499m | 4.9m/s | -51.1°C | 0.3% | 20.9hPa | 2.7V | 18:12:15 | 01:47:00 | 00:00:00 | |
| DB0DAN | 2026-09-01 05:18:40 | 52.69696 | 8.32728 | 289° | 15km/h | 26494m | 5.6m/s | -51.2°C | 0.9% | 20.93hPa | 2.7V | 00:00:00 | 00:00:00 | 00:00:00 | |
| DL1XH-west | 2026-09-01 05:18:40 | 52.69696 | 8.32728 | 289° | 16km/h | 26494m | 5.6m/s | -51.2°C | 0.3% | 20.9hPa | 2.7V | 18:12:15 | 01:46:59 | 00:00:00 | |
| DF8AY | 2026-09-01 05:18:38 | 52.69695 | 8.32742 | 272° | 18km/h | 26481m | 5.8m/s | -51.2°C | 0.4% | 21hPa | 2.6V | 18:12:15 | 01:46:57 | 00:00:00 | |
| HSKMA3-T | 2026-09-01 05:18:37 | 52.69695 | 8.32749 | 272° | 16km/h | 26476m | 5m/s | -51.3°C | 0.3% | 21hPa | 2.6V | 18:12:15 | 01:46:56 | 00:00:00 | |
| DO2JMG | 2026-09-01 05:18:36 | 52.69695 | 8.32755 | 281° | 15km/h | 26469m | 7.1m/s | -51.3°C | 0.3% | 21hPa | 2.6V | 18:12:15 | 01:46:55 | 00:00:00 | |
| AA1-15 | 2026-09-01 05:18:34 | 52.69693 | 8.32763 | 283° | 7km/h | 26458m | 5.5m/s | -51.4°C | 0.4% | 21.1hPa | 2.7V | 18:12:15 | 01:46:53 | 00:00:00 | |
| BIOWL1-15 | 2026-09-01 05:18:30 | 52.69696 | 8.32771 | 252° | 5km/h | 26435m | 6.5m/s | -51.6°C | 0.4% | 21.1hPa | 2.7V | 18:12:15 | 01:46:49 | 00:00:00 | |
| DL1XH-west | 2026-09-01 05:18:29 | 52.69696 | 8.32773 | 293° | 7km/h | 26428m | 6.1m/s | -51.6°C | 0.4% | 21.2hPa | 2.6V | 18:12:15 | 01:46:48 | 00:00:00 | |
| HSKMA3-T | 2026-09-01 05:18:27 | 52.69695 | 8.32779 | 275° | 9km/h | 26418m | 5.4m/s | -51.7°C | 0.4% | 21.2hPa | 2.6V | 18:12:15 | 01:46:46 | 00:00:00 | |
| DB0DAN | 2026-09-01 05:18:25 | 52.69696 | 8.32788 | 247° | 13km/h | 26405m | 5.8m/s | -51.9°C | 1% | 21.25hPa | 2.7V | 00:00:00 | 00:00:00 | 00:00:00 | |
| DO2JMG | 2026-09-01 05:18:25 | 52.69696 | 8.32788 | 247° | 15km/h | 26405m | 5.8m/s | -51.9°C | 0.5% | 21.2hPa | 2.7V | 18:12:15 | 01:46:44 | 00:00:00 | |
| DO3DL | 2026-09-01 05:18:24 | 52.69697 | 8.32794 | 250° | 16km/h | 26400m | 6.2m/s | -51.9°C | 1.0% | 21.2hPa | 2.6V | 00:00:00 | 00:00:00 | 00:00:00 | |
| DL1XH-15 | 2026-09-01 05:18:23 | 52.69711 | 8.32832 | 210° | 15km/h | 26363m | 5.6m/s | -52°C | 3.7% | 21.4hPa | 2.6V | 08:30:00 | 01:46:37 | 00:00:00 | |
| AA1-15 | 2026-09-01 05:18:23 | 52.69699 | 8.32801 | 254° | 18km/h | 26393m | 6.9m/s | -52°C | 0.5% | 21.3hPa | 2.6V | 18:12:15 | 01:46:42 | 00:00:00 | |
| BIOWL1-15 | 2026-09-01 05:18:21 | 52.69707 | 8.32828 | 220° | 16km/h | 26369m | 6.2m/s | -52°C | 0.5% | 21.4hPa | 2.7V | 18:12:15 | 01:46:38 | 00:00:00 | |
| DD8BA-10 | 2026-09-01 05:18:21 | 52.69702 | 8.32816 | 247° | 15km/h | 26382m | 5.2m/s | -51.9°C | 3.7% | 21.3hPa | 2.7V | 00:00:00 | 00:00:00 | 00:00:00 | |
| DL1XH1-15 | 2026-09-01 05:18:20 | 52.69718 | 8.32839 | 211° | 9km/h | 26345m | 5.1m/s | -51.9°C | 3.7% | 21.4hPa | 2.7V | 08:30:00 | 01:46:34 | 00:00:00 | |
| DL1XH-west | 2026-09-01 05:18:18 | 52.69711 | 8.32832 | 210° | 15km/h | 26363m | 5.6m/s | -52°C | 0.6% | 21.4hPa | 2.6V | 18:12:15 | 01:46:37 | 00:00:00 | |
| DF8AY | 2026-09-01 05:18:17 | 52.69714 | 8.32834 | 210° | 13km/h | 26357m | 6.7m/s | -52°C | 0.6% | 21.4hPa | 2.6V | 18:12:15 | 01:46:36 | 00:00:00 | |
| HSKMA3-T | 2026-09-01 05:18:16 | 52.69716 | 8.32837 | 214° | 9km/h | 26351m | 6m/s | -51.9°C | 0.5% | 21.4hPa | 2.6V | 18:12:15 | 01:46:35 | 00:00:00 | |
| DO2JMG | 2026-09-01 05:18:15 | 52.69718 | 8.32839 | 212° | 9km/h | 26345m | 5.1m/s | -51.9°C | 0.5% | 21.4hPa | 2.7V | 18:12:15 | 01:46:34 | 00:00:00 | |
| DK5PH-5 | 2026-09-01 05:18:14 | 52.69720 | 8.32841 | 202° | 15km/h | 26340m | 5.7m/s | -51.8°C | 3.7% | 21.4hPa | 2.7V | 00:00:00 | 01:46:33 | 00:00:00 | |
| DL1XH-15 | 2026-09-01 05:18:13 | 52.69741 | 8.32859 | 228° | 16km/h | 26303m | 5.5m/s | -51.8°C | 3.6% | 21.6hPa | 2.7V | 08:30:00 | 01:46:27 | 00:00:00 | |
| AA1-15 | 2026-09-01 05:18:12 | 52.69727 | 8.32844 | 196° | 18km/h | 26327m | 5.2m/s | -51.8°C | 0.5% | 21.5hPa | 2.6V | 18:12:15 | 01:46:31 | 00:00:00 | |
| DB0DAN | 2026-09-01 05:18:10 | 52.69735 | 8.32850 | 213° | 15km/h | 26315m | 7.1m/s | -51.8°C | 0.9% | 21.53hPa | 2.6V | 00:00:00 | 00:00:00 | 00:00:00 | |
| BIOWL1-15 | 2026-09-01 05:18:09 | 52.69738 | 8.32854 | 225° | 16km/h | 26309m | 5.6m/s | -51.8°C | 0.4% | 21.6hPa | 2.7V | 18:12:15 | 01:46:28 | 00:00:00 | |
| DL1XH-west | 2026-09-01 05:18:07 | 52.69744 | 8.32864 | 226° | 18km/h | 26297m | 7.3m/s | -51.9°C | 0.5% | 21.6hPa | 2.6V | 18:12:15 | 01:46:26 | 00:00:00 | |
| DM0DOS-11 | 2026-09-01 05:18:06 | 52.69751 | 8.32877 | 232° | 20km/h | 26285m | 5.6m/s | -51.8°C | 3.7% | 21.6hPa | 2.7V | 08:30:00 | 01:46:24 | 00:00:00 | |
| DO2JMG | 2026-09-01 05:18:05 | 52.69751 | 8.32877 | 232° | 20km/h | 26285m | 5.6m/s | -51.8°C | 0.6% | 21.6hPa | 2.7V | 18:12:15 | 01:46:24 | 00:00:00 | |
| BIOWL9-15 | 2026-09-01 05:18:05 | 52.69754 | 8.32883 | 240° | 18km/h | 26279m | 7.1m/s | -51.8°C | 1.0% | 21.6hPa | 2.7V | 00:00:00 | 00:00:00 | 00:00:00 | |
| DL3AQ-11 | 2026-09-01 05:18:04 | 52.69755 | 8.32890 | 251° | 15km/h | 26272m | 6.0m/s | -51.8°C | 1.0% | 21.7hPa | 2.7V | 00:00:00 | 00:00:00 | 00:00:00 | |
| DL1XH-15 | 2026-09-01 05:18:03 | 52.69765 | 8.32911 | 202° | 15km/h | 26244m | 4.7m/s | -51.6°C | 3.7% | 21.8hPa | 2.7V | 08:30:00 | 01:46:17 | 00:00:00 | |
| AA1-15 | 2026-09-01 05:18:01 | 52.69757 | 8.32901 | 248° | 13km/h | 26262m | 5.4m/s | -51.7°C | 0.6% | 21.7hPa | 2.6V | 18:12:15 | 01:46:20 | 00:00:00 | |
| DD8BA-10 | 2026-09-01 05:18:01 | 52.69757 | 8.32901 | 249° | 13km/h | 26262m | 5.3m/s | -51.7°C | 3.8% | 21.7hPa | 2.6V | 00:00:00 | 00:00:00 | 00:00:00 | |
| DL1XH1-15 | 2026-09-01 05:18:00 | 52.69772 | 8.32918 | 232° | 9km/h | 26226m | 5.2m/s | -51.5°C | 3.6% | 21.9hPa | 2.6V | 08:30:00 | 01:46:14 | 00:00:00 | |
| BIOWL1-15 | 2026-09-01 05:18:00 | 52.69765 | 8.32911 | 203° | 15km/h | 26244m | 4.7m/s | -51.6°C | 0.6% | 21.8hPa | 2.7V | 18:12:15 | 01:46:17 | 00:00:00 | |
| DL1XH-west | 2026-09-01 05:17:57 | 52.69768 | 8.32913 | 205° | 13km/h | 26238m | 6.2m/s | -51.6°C | 0.5% | 21.8hPa | 2.6V | 18:12:15 | 01:46:16 | 00:00:00 | |
| DF8AY | 2026-09-01 05:17:56 | 52.69770 | 8.32916 | 217° | 9km/h | 26232m | 6.8m/s | -51.5°C | 0.5% | 21.8hPa | 2.6V | 18:12:15 | 01:46:15 | 00:00:00 | |
| DB0DAN | 2026-09-01 05:17:55 | 52.69772 | 8.32918 | 232° | 9km/h | 26226m | 5.2m/s | -51.5°C | 0.9% | 21.85hPa | 2.6V | 00:00:00 | 00:00:00 | 00:00:00 | |
| HSKMA3-T | 2026-09-01 05:17:54 | 52.69773 | 8.32922 | 237° | 11km/h | 26221m | 5.3m/s | -51.5°C | 0.4% | 21.9hPa | 2.7V | 18:12:15 | 01:46:13 | 00:00:00 | |
| AA1-15 | 2026-09-01 05:17:51 | 52.69779 | 8.32936 | 246° | 15km/h | 26203m | 5.3m/s | -51.4°C | 0.4% | 21.9hPa | 2.6V | 18:12:15 | 01:46:10 | 00:00:00 | |
| DL3AQ-11 | 2026-09-01 05:17:51 | 52.69780 | 8.32942 | 258° | 15km/h | 26197m | 6.8m/s | -51.4°C | 1.0% | 21.9hPa | 2.6V | 00:00:00 | 00:00:00 | 00:00:00 | |
| DL1XH1-15 | 2026-09-01 05:17:50 | 52.69779 | 8.32975 | 253° | 15km/h | 26167m | 6.1m/s | -51.3°C | 3.7% | 22hPa | 2.6V | 08:30:00 | 01:46:04 | 00:00:00 | |
| BIOWL1-15 | 2026-09-01 05:17:50 | 52.69780 | 8.32956 | 282° | 16km/h | 26184m | 5.1m/s | -51.4°C | 0.5% | 22hPa | 2.7V | 18:12:15 | 01:46:07 | 00:00:00 | |
| DL1XH-west | 2026-09-01 05:17:47 | 52.69779 | 8.32962 | 280° | 16km/h | 26179m | 4.7m/s | -51.4°C | 0.5% | 22hPa | 2.7V | 18:12:15 | 01:46:06 | 00:00:00 | |
| DF8AY | 2026-09-01 05:17:45 | 52.69779 | 8.32975 | 253° | 15km/h | 26167m | 6.1m/s | -51.3°C | 0.5% | 22hPa | 2.6V | 18:12:15 | 01:46:04 | 00:00:00 | |
| DK5PH-5 | 2026-09-01 05:17:44 | 52.69780 | 8.32980 | 244° | 15km/h | 26162m | 5.0m/s | -51.3°C | 3.7% | 22.0hPa | 2.7V | 00:00:00 | 01:46:03 | 00:00:00 | |
| DL1XH-15 | 2026-09-01 05:17:43 | 52.69786 | 8.32999 | 235° | 11km/h | 26126m | 5.3m/s | -51.2°C | 3.6% | 22.2hPa | 2.7V | 08:30:00 | 01:45:57 | 00:00:00 | |
| HSKMA3-T | 2026-09-01 05:17:43 | 52.69782 | 8.32984 | 243° | 11km/h | 26156m | 6.1m/s | -51.3°C | 0.5% | 22.1hPa | 2.7V | 18:12:15 | 01:46:02 | 00:00:00 | |
| BIOWL1-15 | 2026-09-01 05:17:41 | 52.69787 | 8.33003 | 252° | 13km/h | 26120m | 5.9m/s | -51.3°C | 0.4% | 22.2hPa | 2.6V | 18:12:15 | 01:45:56 | 00:00:00 | |
| AA1-15 | 2026-09-01 05:17:40 | 52.69784 | 8.32993 | 242° | 5km/h | 26138m | 5.6m/s | -51.3°C | 0.6% | 22.1hPa | 2.6V | 18:12:15 | 01:45:59 | 00:00:00 | |
| DL1XH1-15 | 2026-09-01 05:17:40 | 52.69788 | 8.33014 | 279° | 16km/h | 26107m | 5.7m/s | -51.3°C | 3.5% | 22.2hPa | 2.6V | 08:30:00 | 01:45:54 | 00:00:00 | |
| DL1XH-west | 2026-09-01 05:17:36 | 52.69788 | 8.33008 | 272° | 13km/h | 26114m | 7.2m/s | -51.3°C | 0.5% | 22.2hPa | 2.6V | 18:12:15 | 01:45:55 | 00:00:00 | |
| DF8AY | 2026-09-01 05:17:35 | 52.69787 | 8.33014 | 280° | 16km/h | 26107m | 5.7m/s | -51.3°C | 0.4% | 22.2hPa | 2.6V | 18:12:15 | 01:45:54 | 00:00:00 | |
| DO2JMG | 2026-09-01 05:17:33 | 52.69786 | 8.33030 | 273° | 22km/h | 26095m | 7.2m/s | -51.2°C | 0.4% | 22.3hPa | 2.7V | 18:12:15 | 01:45:52 | 00:00:00 | |
| HSKMA3-T | 2026-09-01 05:17:32 | 52.69786 | 8.33040 | 266° | 22km/h | 26089m | 5.8m/s | -51.1°C | 0.5% | 22.3hPa | 2.7V | 18:12:15 | 01:45:51 | 00:00:00 | |
| DL1XH1-15 | 2026-09-01 05:17:31 | 52.69794 | 8.33081 | 195° | 15km/h | 26048m | 5.3m/s | -50.8°C | 3.5% | 22.5hPa | 2.6V | 08:30:00 | 01:45:44 | 00:00:00 | |
| AA1-15 | 2026-09-01 05:17:31 | 52.69787 | 8.33058 | 269° | 20km/h | 26078m | 6.6m/s | -51°C | 0.5% | 22.4hPa | 2.6V | 18:12:15 | 01:45:49 | 00:00:00 | |
| BIOWL1-15 | 2026-09-01 05:17:28 | 52.69791 | 8.33079 | 210° | 15km/h | 26054m | 6.9m/s | -50.8°C | 0.4% | 22.5hPa | 2.6V | 18:12:15 | 01:45:45 | 00:00:00 | |
| DL1CLM-18 | 2026-09-01 05:17:27 | 52.69787 | 8.33071 | 259° | 13km/h | 26066m | 5.0m/s | -50.9°C | 1.0% | 22.4hPa | 2.6V | 00:00:00 | 00:00:00 | 00:00:00 | |
| DB0DAN | 2026-09-01 05:17:25 | 52.69794 | 8.33081 | 196° | 15km/h | 26048m | 5.3m/s | -50.8°C | 0.9% | 22.47hPa | 2.6V | 00:00:00 | 00:00:00 | 00:00:00 | |
| DL1XH-west | 2026-09-01 05:17:25 | 52.69794 | 8.33081 | 196° | 15km/h | 26048m | 5.3m/s | -50.8°C | 0.4% | 22.5hPa | 2.6V | 18:12:15 | 01:45:44 | 00:00:00 | |
| DF8AY | 2026-09-01 05:17:24 | 52.69798 | 8.33082 | 190° | 13km/h | 26042m | 6.1m/s | -50.8°C | 0.3% | 22.5hPa | 2.6V | 18:12:15 | 01:45:43 | 00:00:00 | |
| DL1XH-15 | 2026-09-01 05:17:23 | 52.69810 | 8.33109 | 263° | 20km/h | 26007m | 5.7m/s | -50.8°C | 3.4% | 22.6hPa | 2.6V | 08:30:00 | 01:45:37 | 00:00:00 | |
| DO2JMG | 2026-09-01 05:17:23 | 52.69801 | 8.33083 | 198° | 11km/h | 26036m | 6.2m/s | -50.8°C | 0.4% | 22.5hPa | 2.7V | 18:12:15 | 01:45:42 | 00:00:00 | |
| HSKMA3-T | 2026-09-01 05:17:21 | 52.69805 | 8.33089 | 232° | 13km/h | 26025m | 6.3m/s | -50.8°C | 0.4% | 22.6hPa | 2.7V | 18:12:15 | 01:45:40 | 00:00:00 | |
| AA1-15 | 2026-09-01 05:17:20 | 52.69807 | 8.33094 | 241° | 16km/h | 26019m | 6.5m/s | -50.8°C | 0.4% | 22.6hPa | 2.6V | 18:12:15 | 01:45:39 | 00:00:00 | |
| BIOWL1-15 | 2026-09-01 05:17:17 | 52.69810 | 8.33132 | 263° | 15km/h | 25990m | 4.6m/s | -50.9°C | 0.5% | 22.7hPa | 2.6V | 18:12:15 | 01:45:34 | 00:00:00 | |
| DL1XH-west | 2026-09-01 05:17:14 | 52.69811 | 8.33137 | 237° | 13km/h | 25985m | 6.8m/s | -50.9°C | 0.5% | 22.7hPa | 2.6V | 18:12:15 | 01:45:33 | 00:00:00 | |
| DK5PH-5 | 2026-09-01 05:17:14 | 52.69811 | 8.33137 | 238° | 15km/h | 25985m | 6.7m/s | -50.8°C | 3.6% | 22.6hPa | 2.7V | 00:00:00 | 01:45:33 | 00:00:00 | |
| DL1XH-15 | 2026-09-01 05:17:13 | 52.69839 | 8.33140 | 185° | 20km/h | 25949m | 5.5m/s | -50.8°C | 3.5% | 22.8hPa | 2.7V | 08:30:00 | 01:45:27 | 00:00:00 | |
| DO2JMG | 2026-09-01 05:17:12 | 52.69818 | 8.33142 | 182° | 20km/h | 25972m | 5.1m/s | -50.9°C | 0.5% | 22.7hPa | 2.7V | 18:12:15 | 01:45:31 | 00:00:00 | |
| HSKMA3-T | 2026-09-01 05:17:11 | 52.69823 | 8.33142 | 174° | 22km/h | 25967m | 6.2m/s | -50.8°C | 0.5% | 22.7hPa | 2.6V | 18:12:15 | 01:45:30 | 00:00:00 | |
| DB0DAN | 2026-09-01 05:17:10 | 52.69829 | 8.33141 | 172° | 20km/h | 25960m | 5.9m/s | -50.8°C | 0.9% | 22.77hPa | 2.6V | 00:00:00 | 00:00:00 | 00:00:00 | |
| AA1-15 | 2026-09-01 05:17:10 | 52.69829 | 8.33141 | 172° | 22km/h | 25961m | 5.9m/s | -50.8°C | 0.4% | 22.8hPa | 2.6V | 18:12:15 | 01:45:29 | 00:00:00 | |
| DL1XH-west | 2026-09-01 05:17:04 | 52.69857 | 8.33156 | 235° | 18km/h | 25926m | 6.1m/s | -50.6°C | 0.4% | 22.9hPa | 2.6V | 18:12:15 | 01:45:23 | 00:00:00 | |
| DF8AY | 2026-09-01 05:17:03 | 52.69858 | 8.33161 | 254° | 13km/h | 25919m | 6.7m/s | -50.6°C | 0.4% | 22.9hPa | 2.6V | 18:12:15 | 01:45:22 | 00:00:00 | |
| HSKMA3-T | 2026-09-01 05:17:01 | 52.69859 | 8.33170 | 258° | 7km/h | 25908m | 5.8m/s | -50.6°C | 0.4% | 22.9hPa | 2.7V | 18:12:15 | 01:45:20 | 00:00:00 | |
| AA1-15 | 2026-09-01 05:16:59 | 52.69862 | 8.33173 | 178° | 9km/h | 25896m | 5m/s | -50.5°C | 0.4% | 23hPa | 2.6V | 18:12:15 | 01:45:18 | 00:00:00 | |
| BUE01 | 2026-09-01 05:16:56 | 52.69874 | 8.33165 | 166° | 16km/h | 25872m | 5.4m/s | -50.5°C | 1.0% | 23.1hPa | 2.7V | 00:00:00 | 00:00:00 | 00:00:00 | |
| DB0DAN | 2026-09-01 05:16:55 | 52.69874 | 8.33165 | 166° | 16km/h | 25872m | 5.4m/s | -50.5°C | 1% | 23.07hPa | 2.7V | 00:00:00 | 00:00:00 | 00:00:00 | |
| DL1XH-west | 2026-09-01 05:16:53 | 52.69884 | 8.33165 | 192° | 22km/h | 25860m | 4.5m/s | -50.4°C | 0.4% | 23.1hPa | 2.6V | 18:12:15 | 01:45:12 | 00:00:00 | |
| DO2JMG | 2026-09-01 05:16:50 | 52.69896 | 8.33176 | 235° | 13km/h | 25843m | 6.3m/s | -50.4°C | 0.3% | 23.2hPa | 2.7V | 18:12:15 | 01:45:09 | 00:00:00 | |
| AA1-15 | 2026-09-01 05:16:49 | 52.69897 | 8.33180 | 256° | 9km/h | 25838m | 5m/s | -50.4°C | 0.3% | 23.2hPa | 2.6V | 18:12:15 | 01:45:08 | 00:00:00 | |
| DD1CC8 | 2026-09-01 05:16:47 | 52.69898 | 8.33192 | 249° | 11km/h | 25821m | 6.1m/s | -50.3°C | 0.9% | 23.3hPa | 2.6V | 00:00:00 | 00:00:00 | 00:00:00 | |
| DO1YAY-16 | 2026-09-01 05:16:46 | 52.69900 | 8.33196 | 234° | 13km/h | 25816m | 5.4m/s | -50.4°C | 0.9% | 23.3hPa | 2.6V | 00:00:00 | 00:00:00 | 00:00:00 | |
| DL1XH-west | 2026-09-01 05:16:43 | 52.69905 | 8.33203 | 202° | 15km/h | 25805m | 6.4m/s | -50.4°C | 0.2% | 23.3hPa | 2.6V | 18:12:15 | 01:45:02 | 00:00:00 | |
| BIOWL1-15 | 2026-09-01 05:16:42 | 52.69908 | 8.33204 | 186° | 15km/h | 25798m | 6.6m/s | -50.4°C | 0.3% | 23.4hPa | 2.7V | 18:12:15 | 01:45:01 | 00:00:00 | |
| DF4FW | 2026-09-01 05:16:41 | 52.69908 | 8.33204 | 187° | 15km/h | 25799m | 6.6m/s | -50.4°C | 0.9% | 23.4hPa | 2.7V | 00:00:00 | 00:00:00 | 00:00:00 | |
| DB0DAN | 2026-09-01 05:16:40 | 52.69917 | 8.33204 | 174° | 20km/h | 25787m | 6.5m/s | -50.5°C | 0.9% | 23.38hPa | 2.7V | 00:00:00 | 00:00:00 | 00:00:00 | |
| DO2JMG | 2026-09-01 05:16:40 | 52.69917 | 8.33204 | 174° | 20km/h | 25787m | 6.5m/s | -50.5°C | 0.4% | 23.4hPa | 2.7V | 18:12:15 | 01:44:59 | 00:00:00 | |
| HSKMA3-T | 2026-09-01 05:16:39 | 52.69923 | 8.33203 | 174° | 24km/h | 25781m | 6m/s | -50.5°C | 0.4% | 23.4hPa | 2.6V | 18:12:15 | 01:44:58 | 00:00:00 | |
| AA1-15 | 2026-09-01 05:16:38 | 52.69928 | 8.33202 | 172° | 22km/h | 25776m | 3.9m/s | -50.6°C | 0.4% | 23.5hPa | 2.6V | 18:12:15 | 01:44:57 | 00:00:00 | |
| DL1XH-west | 2026-09-01 05:16:33 | 52.69940 | 8.33196 | 283° | 4km/h | 25750m | 5.2m/s | -50.7°C | 0.3% | 23.5hPa | 2.6V | 18:12:15 | 01:44:52 | 00:00:00 | |
| DF8AY | 2026-09-01 05:16:32 | 52.69940 | 8.33198 | 266° | 7km/h | 25744m | 6.7m/s | -50.8°C | 0.2% | 23.6hPa | 2.6V | 18:12:15 | 01:44:51 | 00:00:00 | |
| DO2JMG | 2026-09-01 05:16:30 | 52.69945 | 8.33209 | 207° | 13km/h | 25728m | 4.5m/s | -51.1°C | 0.3% | 23.6hPa | 2.7V | 18:12:15 | 01:44:48 | 00:00:00 | |
| HSKMA3-T | 2026-09-01 05:16:29 | 52.69947 | 8.33210 | 182° | 11km/h | 25723m | 5.8m/s | -51.2°C | 0.4% | 23.6hPa | 2.6V | 18:12:15 | 01:44:47 | 00:00:00 | |
| AA1-15 | 2026-09-01 05:16:28 | 52.69950 | 8.33209 | 153° | 13km/h | 25717m | 6.1m/s | -51.2°C | 0.4% | 23.6hPa | 2.6V | 18:12:15 | 01:44:46 | 00:00:00 | |
| DL1XH-west | 2026-09-01 05:16:25 | 52.69964 | 8.33189 | 147° | 22km/h | 25693m | 6.4m/s | -51.3°C | 0.5% | 23.7hPa | 2.6V | 18:12:15 | 01:44:42 | 00:00:00 | |
| DF8AY | 2026-09-01 05:16:24 | 52.69968 | 8.33184 | 151° | 22km/h | 25687m | 5.1m/s | -51.3°C | 0.4% | 23.8hPa | 2.6V | 18:12:15 | 01:44:41 | 00:00:00 | |
| DO2JMG | 2026-09-01 05:16:23 | 52.69980 | 8.33173 | 151° | 15km/h | 25668m | 5.2m/s | -51.4°C | 0.5% | 23.8hPa | 2.6V | 18:12:15 | 01:44:38 | 00:00:00 | |
| HSKMA3-T | 2026-09-01 05:16:20 | 52.69986 | 8.33170 | 176° | 13km/h | 25657m | 6.9m/s | -51.5°C | 0.5% | 23.9hPa | 2.6V | 18:12:15 | 01:44:36 | 00:00:00 | |
| AA1-15 | 2026-09-01 05:16:18 | 52.69990 | 8.33169 | 180° | 13km/h | 25651m | 5m/s | -51.6°C | 0.5% | 23.9hPa | 2.7V | 18:12:15 | 01:44:35 | 00:00:00 | |
| DL1XH-west | 2026-09-01 05:16:12 | 52.69999 | 8.33158 | 121° | 18km/h | 25628m | 5.4m/s | -51.7°C | 0.5% | 24hPa | 2.6V | 18:12:15 | 01:44:31 | 00:00:00 | |
| DB0DAN | 2026-09-01 05:16:10 | 52.70005 | 8.33143 | 128° | 24km/h | 25615m | 5.3m/s | -51.6°C | 1% | 24.03hPa | 2.7V | 00:00:00 | 00:00:00 | 00:00:00 | |
| DL1XH1-15 | 2026-09-01 05:16:10 | 52.70021 | 8.33104 | 136° | 15km/h | 25587m | 7.3m/s | -51.6°C | 3.6% | 24.1hPa | 2.7V | 08:30:00 | 01:44:24 | 00:00:00 | |
| BIOWL1-15 | 2026-09-01 05:16:09 | 52.70009 | 8.33135 | 126° | 26km/h | 25610m | 5.4m/s | -51.5°C | 0.5% | 24.1hPa | 2.7V | 18:12:15 | 01:44:28 | 00:00:00 | |
| HSKMA3-T | 2026-09-01 05:16:07 | 52.70016 | 8.33117 | 119° | 22km/h | 25598m | 5.5m/s | -51.5°C | 0.5% | 24.1hPa | 2.6V | 18:12:15 | 01:44:26 | 00:00:00 | |
| AA1-15 | 2026-09-01 05:16:05 | 52.70021 | 8.33104 | 136° | 15km/h | 25587m | 7.3m/s | -51.6°C | 0.5% | 24.1hPa | 2.7V | 18:12:15 | 01:44:24 | 00:00:00 | |
| DL3AQ-11 | 2026-09-01 05:16:04 | 52.70024 | 8.33101 | 152° | 11km/h | 25580m | 5.9m/s | -51.5°C | 1.0% | 24.2hPa | 2.7V | 00:00:00 | 00:00:00 | 00:00:00 | |
| DL1XH-15 | 2026-09-01 05:16:03 | 52.70035 | 8.33079 | 122° | 20km/h | 25545m | 5.1m/s | -51.5°C | 3.5% | 24.3hPa | 2.7V | 08:30:00 | 01:44:17 | 00:00:00 | |
| DL1XH-west | 2026-09-01 05:16:02 | 52.70028 | 8.33097 | 138° | 7km/h | 25568m | 7m/s | -51.4°C | 0.5% | 24.2hPa | 2.6V | 18:12:15 | 01:44:21 | 00:00:00 | |
| DF8AY | 2026-09-01 05:16:01 | 52.70029 | 8.33094 | 119° | 9km/h | 25562m | 5.4m/s | -51.4°C | 0.5% | 24.2hPa | 2.6V | 18:12:15 | 01:44:20 | 00:00:00 | |
| DO2JMG | 2026-09-01 05:15:59 | 52.70032 | 8.33085 | 123° | 15km/h | 25551m | 7m/s | -51.4°C | 0.5% | 24.3hPa | 2.7V | 18:12:15 | 01:44:18 | 00:00:00 | |
| HSKMA3-T | 2026-09-01 05:15:56 | 52.70040 | 8.33063 | 111° | 26km/h | 25534m | 6.9m/s | -51.4°C | 0.5% | 24.4hPa | 2.6V | 18:12:15 | 01:44:15 | 00:00:00 | |
| DB0DAN | 2026-09-01 05:15:55 | 52.70042 | 8.33053 | 103° | 26km/h | 25528m | 6.3m/s | -51.4°C | 0.9% | 24.37hPa | 2.6V | 00:00:00 | 00:00:00 | 00:00:00 | |
| AA1-15 | 2026-09-01 05:15:55 | 52.70042 | 8.33053 | 103° | 26km/h | 25528m | 6.3m/s | -51.4°C | 0.4% | 24.4hPa | 2.6V | 18:12:15 | 01:44:14 | 00:00:00 | |
| EDDB2-12 | 2026-09-01 05:15:54 | 52.70044 | 8.33031 | 101° | 26km/h | 25516m | 5.9m/s | -51.4°C | 0.9% | 24.4hPa | 2.7V | 00:00:00 | 00:00:00 | 00:00:00 | |
| DL1XH-15 | 2026-09-01 05:15:53 | 52.70049 | 8.32994 | 77° | 13km/h | 25488m | 6.2m/s | -51.3°C | 3.7% | 24.5hPa | 2.7V | 08:30:00 | 01:44:07 | 00:00:00 | |
| DL1XH-west | 2026-09-01 05:15:52 | 52.70045 | 8.33021 | 106° | 24km/h | 25510m | 6.3m/s | -51.4°C | 0.5% | 24.4hPa | 2.7V | 18:12:15 | 01:44:11 | 00:00:00 | |
| DF8AY | 2026-09-01 05:15:50 | 52.70048 | 8.33005 | 107° | 16km/h | 25500m | 4.8m/s | -51.3°C | 0.4% | 24.5hPa | 2.6V | 18:12:15 | 01:44:09 | 00:00:00 | |
| DO2JMG | 2026-09-01 05:15:48 | 52.70049 | 8.32994 | 77° | 13km/h | 25488m | 6.2m/s | -51.3°C | 0.5% | 24.5hPa | 2.7V | 18:12:15 | 01:44:07 | 00:00:00 | |
| BIOWL1-15 | 2026-09-01 05:15:47 | 52.70048 | 8.32989 | 73° | 13km/h | 25482m | 5.2m/s | -51.3°C | 0.5% | 24.6hPa | 2.7V | 18:12:15 | 01:44:06 | 00:00:00 | |
| HSKMA3-T | 2026-09-01 05:15:46 | 52.70047 | 8.32984 | 82° | 13km/h | 25477m | 5.5m/s | -51.3°C | 0.5% | 24.6hPa | 2.6V | 18:12:15 | 01:44:05 | 00:00:00 | |
| AA1-15 | 2026-09-01 05:15:44 | 52.70048 | 8.32973 | 102° | 15km/h | 25465m | 5.4m/s | -51.3°C | 0.5% | 24.6hPa | 2.7V | 18:12:15 | 01:44:03 | 00:00:00 | |
| DF7PN | 2026-09-01 05:15:44 | 52.70048 | 8.32967 | 98° | 13km/h | 25459m | 6.4m/s | -51.3°C | 0.9% | 24.6hPa | 2.7V | 00:00:00 | 00:00:00 | 00:00:00 | |
| DL1XH-15 | 2026-09-01 05:15:43 | 52.70051 | 8.32940 | 111° | 9km/h | 25429m | 5.4m/s | -51.1°C | 3.5% | 24.8hPa | 2.7V | 08:30:00 | 01:43:57 | 00:00:00 | |
| DL1XH-west | 2026-09-01 05:15:41 | 52.70049 | 8.32955 | 91° | 15km/h | 25447m | 4.9m/s | -51.2°C | 0.5% | 24.7hPa | 2.6V | 18:12:15 | 01:44:00 | 00:00:00 | |
| DB0DAN | 2026-09-01 05:15:40 | 52.70049 | 8.32950 | 100° | 13km/h | 25441m | 5.8m/s | -51.2°C | 0.9% | 24.7hPa | 2.6V | 00:00:00 | 00:00:00 | 00:00:00 | |
| DF8AY | 2026-09-01 05:15:39 | 52.70050 | 8.32944 | 113° | 13km/h | 25435m | 6.7m/s | -51.1°C | 0.3% | 24.7hPa | 2.7V | 18:12:15 | 01:43:58 | 00:00:00 | |
| DO2JMG | 2026-09-01 05:15:37 | 52.70052 | 8.32937 | 90° | 7km/h | 25423m | 6.4m/s | -51.1°C | 0.3% | 24.8hPa | 2.7V | 18:12:15 | 01:43:56 | 00:00:00 | |
| BIOWL1-15 | 2026-09-01 05:15:36 | 52.70051 | 8.32934 | 51° | 7km/h | 25416m | 6.9m/s | -51.1°C | 0.4% | 24.8hPa | 2.6V | 18:12:15 | 01:43:55 | 00:00:00 | |
| AA1-15 | 2026-09-01 05:15:34 | 52.70046 | 8.32929 | 31° | 13km/h | 25405m | 6.3m/s | -51.1°C | 0.4% | 24.9hPa | 2.6V | 18:12:15 | 01:43:53 | 00:00:00 | |
| DL1XH-west | 2026-09-01 05:15:30 | 52.70033 | 8.32915 | 27° | 18km/h | 25381m | 7.1m/s | -51.1°C | 0.4% | 24.9hPa | 2.6V | 18:12:15 | 01:43:49 | 00:00:00 | |
| DF8AY | 2026-09-01 05:15:29 | 52.70029 | 8.32911 | 26° | 18km/h | 25375m | 5.4m/s | -51.1°C | 0.4% | 25hPa | 2.6V | 18:12:15 | 01:43:48 | 00:00:00 | |
| BIOWL1-15 | 2026-09-01 05:15:26 | 52.70022 | 8.32902 | 63° | 7km/h | 25358m | 5m/s | -51.4°C | 0.5% | 25hPa | 2.7V | 18:12:15 | 01:43:45 | 00:00:00 | |
| DB0DAN | 2026-09-01 05:15:25 | 52.70021 | 8.32899 | 63° | 5km/h | 25353m | 5.1m/s | -51.4°C | 1% | 25.05hPa | 2.6V | 00:00:00 | 00:00:00 | 00:00:00 | |
| SMARD9-10 | 2026-09-01 05:15:24 | 52.70021 | 8.32899 | 64° | 5km/h | 25353m | 5.1m/s | -51.4°C | 1.0% | 25.0hPa | 2.6V | 00:00:00 | 00:00:00 | 00:00:00 | |
| DL1XH-15 | 2026-09-01 05:15:23 | 52.69999 | 8.32896 | 358° | 26km/h | 25310m | 7.2m/s | -51.6°C | 3.5% | 25.2hPa | 2.6V | 08:30:00 | 01:43:37 | 00:00:00 | |
| AA1-15 | 2026-09-01 05:15:23 | 52.70018 | 8.32897 | 6° | 9km/h | 25340m | 6.3m/s | -51.4°C | 0.5% | 25.1hPa | 2.6V | 18:12:15 | 01:43:42 | 00:00:00 | |
| DL1XH-west | 2026-09-01 05:15:20 | 52.70009 | 8.32896 | 4° | 16km/h | 25321m | 5.2m/s | -51.6°C | 0.5% | 25.2hPa | 2.6V | 18:12:15 | 01:43:39 | 00:00:00 | |
| DF8AY | 2026-09-01 05:15:19 | 52.70005 | 8.32896 | 1° | 20km/h | 25316m | 5.1m/s | -51.6°C | 0.5% | 25.2hPa | 2.6V | 18:12:15 | 01:43:38 | 00:00:00 | |
| DO2JMG | 2026-09-01 05:15:16 | 52.69984 | 8.32897 | 360° | 31km/h | 25296m | 5.9m/s | -51.5°C | 0.4% | 25.3hPa | 2.7V | 18:12:15 | 01:43:35 | 00:00:00 | |
| DJ8HS-15 | 2026-09-01 05:15:16 | 52.69984 | 8.32897 | 360° | 20km/h | 25297m | 5.8m/s | -51.5°C | 3.5% | 25.2hPa | 2.6V | 00:00:00 | 01:43:35 | 00:00:00 | |
| DD1CC9-15 | 2026-09-01 05:15:15 | 52.69984 | 8.32897 | 361° | 33km/h | 25297m | 5.9m/s | -51.5°C | 1.0% | 25.3hPa | 2.6V | 00:00:00 | 00:00:00 | 00:00:00 | |
| DD1CC8 | 2026-09-01 05:15:14 | 52.69964 | 8.32892 | 18° | 20km/h | 25279m | 4.8m/s | -51.5°C | 1.0% | 25.3hPa | 2.6V | 00:00:00 | 00:00:00 | 00:00:00 | |
| DL1XH-15 | 2026-09-01 05:15:13 | 52.69943 | 8.32887 | 355° | 11km/h | 25248m | 7.4m/s | -51.6°C | 3.6% | 25.5hPa | 2.6V | 08:30:00 | 01:43:27 | 00:00:00 | |
| AA1-15 | 2026-09-01 05:15:12 | 52.69959 | 8.32890 | 18° | 18km/h | 25273m | 5.8m/s | -51.5°C | 0.4% | 25.4hPa | 2.6V | 18:12:15 | 01:43:31 | 00:00:00 | |
| DB0DAN | 2026-09-01 05:15:10 | 52.69951 | 8.32887 | 2° | 16km/h | 25261m | 5.6m/s | -51.5°C | 1% | 25.41hPa | 2.7V | 00:00:00 | 00:00:00 | 00:00:00 | |
| DL1XH-west | 2026-09-01 05:15:09 | 52.69947 | 8.32887 | 357° | 15km/h | 25255m | 5.8m/s | -51.5°C | 0.5% | 25.5hPa | 2.6V | 18:12:15 | 01:43:28 | 00:00:00 | |
| DJ2DS-15 | 2026-09-01 05:15:09 | 52.69947 | 8.32887 | 358° | 15km/h | 25255m | 5.8m/s | -51.5°C | 3.6% | 25.4hPa | 2.6V | 00:00:00 | 01:43:28 | 08:30:00 | |
| DM0DOS-11 | 2026-09-01 05:15:08 | 52.69934 | 8.32892 | 335° | 18km/h | 25230m | 7.1m/s | -51.7°C | 3.6% | 25.5hPa | 2.7V | 08:30:00 | 01:43:24 | 00:00:00 | |
| DO2JMG | 2026-09-01 05:15:06 | 52.69938 | 8.32890 | 338° | 13km/h | 25237m | 5.1m/s | -51.7°C | 0.5% | 25.5hPa | 2.7V | 18:12:15 | 01:43:25 | 00:00:00 | |
| BIOWL1-15 | 2026-09-01 05:15:05 | 52.69934 | 8.32892 | 335° | 18km/h | 25230m | 7.1m/s | -51.7°C | 0.4% | 25.5hPa | 2.7V | 18:12:15 | 01:43:24 | 00:00:00 | |
| DC6BW-12 | 2026-09-01 05:15:04 | 52.69934 | 8.32892 | 336° | 18km/h | 25231m | 7.1m/s | -51.7°C | 1.0% | 25.5hPa | 2.6V | 00:00:00 | 00:00:00 | 00:00:00 | |
| DL1XH-15 | 2026-09-01 05:15:03 | 52.69897 | 8.32914 | 349° | 20km/h | 25188m | 6.7m/s | -51.7°C | 3.7% | 25.7hPa | 2.6V | 08:30:00 | 01:43:17 | 00:00:00 | |
| AA1-15 | 2026-09-01 05:15:01 | 52.69912 | 8.32908 | 342° | 24km/h | 25205m | 6.3m/s | -51.7°C | 0.5% | 25.6hPa | 2.6V | 18:12:15 | 01:43:20 | 00:00:00 | |
| DL1XH-west | 2026-09-01 05:14:59 | 52.69902 | 8.32912 | 351° | 20km/h | 25194m | 5.2m/s | -51.7°C | 0.5% | 25.7hPa | 2.7V | 18:12:15 | 01:43:18 | 00:00:00 | |
| DO2JMG | 2026-09-01 05:14:56 | 52.69888 | 8.32917 | 347° | 13km/h | 25177m | 5.1m/s | -51.7°C | 0.5% | 25.8hPa | 2.7V | 18:12:15 | 01:43:15 | 00:00:00 | |
| DB0DAN | 2026-09-01 05:14:55 | 52.69886 | 8.32918 | 355° | 7km/h | 25171m | 6.3m/s | -51.7°C | 1% | 25.77hPa | 2.7V | 00:00:00 | 00:00:00 | 00:00:00 | |
| BIOWL1-15 | 2026-09-01 05:14:55 | 52.69886 | 8.32918 | 355° | 9km/h | 25171m | 6.3m/s | -51.7°C | 0.5% | 25.8hPa | 2.7V | 18:12:15 | 01:43:14 | 00:00:00 | |
| HSKMA3-T | 2026-09-01 05:14:54 | 52.69884 | 8.32917 | 24° | 4km/h | 25165m | 7.1m/s | -51.7°C | 0.5% | 25.8hPa | 2.6V | 18:12:15 | 01:43:13 | 00:00:00 | |
| DL1XH-15 | 2026-09-01 05:14:53 | 52.69881 | 8.32927 | 323° | 11km/h | 25129m | 6.8m/s | -51.7°C | 3.6% | 25.9hPa | 2.6V | 08:30:00 | 01:43:07 | 00:00:00 | |
| AA1-15 | 2026-09-01 05:14:50 | 52.69884 | 8.32921 | 294° | 7km/h | 25140m | 5.5m/s | -51.7°C | 0.5% | 25.9hPa | 2.7V | 18:12:15 | 01:43:09 | 00:00:00 | |
| DF8AY | 2026-09-01 05:14:48 | 52.69881 | 8.32927 | 323° | 11km/h | 25129m | 6.8m/s | -51.7°C | 0.5% | 25.9hPa | 2.6V | 18:12:15 | 01:43:07 | 00:00:00 | |
| DO2JMG | 2026-09-01 05:14:45 | 52.69872 | 8.32935 | 328° | 18km/h | 25110m | 7.2m/s | -51.7°C | 0.5% | 26hPa | 2.7V | 18:12:15 | 01:43:04 | 00:00:00 | |
| BIOWL1-15 | 2026-09-01 05:14:44 | 52.69868 | 8.32940 | 324° | 20km/h | 25104m | 5.2m/s | -51.7°C | 0.5% | 26.1hPa | 2.7V | 18:12:15 | 01:43:03 | 00:00:00 | |
| HSKMA3-T | 2026-09-01 05:14:43 | 52.69864 | 8.32945 | 323° | 18km/h | 25099m | 4.2m/s | -51.7°C | 0.6% | 26.1hPa | 2.6V | 18:12:15 | 01:43:02 | 00:00:00 | |
| DD1CC8 | 2026-09-01 05:14:43 | 52.69860 | 8.32949 | 326° | 15km/h | 25094m | 6.2m/s | -51.8°C | 1.0% | 26.1hPa | 2.6V | 00:00:00 | 00:00:00 | 00:00:00 | |
| DF7PN | 2026-09-01 05:14:42 | 52.69858 | 8.32951 | 335° | 7km/h | 25087m | 6.6m/s | -51.8°C | 1.0% | 26.1hPa | 2.6V | 00:00:00 | 00:00:00 | 00:00:00 | |
| GOEST3-10 | 2026-09-01 05:14:41 | 52.69858 | 8.32951 | 336° | 7km/h | 25087m | 6.5m/s | -51.7°C | 3.7% | 26.1hPa | 2.6V | 00:00:00 | 00:00:00 | 08:30:00 | |
| DL1XH1-15 | 2026-09-01 05:14:40 | 52.69862 | 8.32953 | 169° | 7km/h | 25051m | 6.9m/s | -51.6°C | 3.6% | 26.3hPa | 2.6V | 08:30:00 | 01:42:54 | 00:00:00 | |
| DB0DAN | 2026-09-01 05:14:40 | 52.69857 | 8.32952 | 2° | 2km/h | 25081m | 5.3m/s | -51.7°C | 1% | 26.16hPa | 2.7V | 00:00:00 | 00:00:00 | 00:00:00 | |
| AA1-15 | 2026-09-01 05:14:40 | 52.69856 | 8.32952 | 162° | 2km/h | 25076m | 5.9m/s | -51.7°C | 0.5% | 26.1hPa | 2.7V | 18:12:15 | 01:42:58 | 00:00:00 | |
| DL1XH-west | 2026-09-01 05:14:37 | 52.69859 | 8.32952 | 193° | 7km/h | 25063m | 5.5m/s | -51.7°C | 0.5% | 26.2hPa | 2.6V | 18:12:15 | 01:42:56 | 00:00:00 | |
| BIOWL1-15 | 2026-09-01 05:14:34 | 52.69864 | 8.32952 | 170° | 4km/h | 25045m | 5.3m/s | -51.7°C | 0.5% | 26.3hPa | 2.7V | 18:12:15 | 01:42:53 | 00:00:00 | |
| HSKMA3-T | 2026-09-01 05:14:33 | 52.69864 | 8.32953 | 268° | 2km/h | 25040m | 5.5m/s | -51.6°C | 0.5% | 26.3hPa | 2.7V | 18:12:15 | 01:42:52 | 00:00:00 | |
| DF8AY | 2026-09-01 05:14:31 | 52.69855 | 8.32975 | 248° | 5km/h | 24999m | 6.2m/s | -51.6°C | 0.5% | 26.5hPa | 2.6V | 18:12:15 | 01:42:45 | 00:00:00 | |
| AA1-15 | 2026-09-01 05:14:29 | 52.69858 | 8.32967 | 313° | 13km/h | 25016m | 6.6m/s | -51.6°C | 0.5% | 26.4hPa | 2.7V | 18:12:15 | 01:42:48 | 00:00:00 | |
| DJ2DS-15 | 2026-09-01 05:14:29 | 52.69858 | 8.32967 | 314° | 7km/h | 25016m | 6.6m/s | -51.6°C | 3.6% | 26.4hPa | 2.6V | 00:00:00 | 01:42:48 | 00:00:00 | |
| DM0DOS-11 | 2026-09-01 05:14:28 | 52.69856 | 8.32978 | 225° | 9km/h | 24993m | 6.1m/s | -51.6°C | 3.7% | 26.5hPa | 2.6V | 08:30:00 | 01:42:44 | 00:00:00 | |
| DL1XH-west | 2026-09-01 05:14:27 | 52.69855 | 8.32973 | 291° | 5km/h | 25005m | 5m/s | -51.6°C | 0.4% | 26.5hPa | 2.7V | 18:12:15 | 01:42:46 | 00:00:00 | |
| DO2JMG | 2026-09-01 05:14:23 | 52.69860 | 8.32981 | 196° | 9km/h | 24982m | 5.7m/s | -51.6°C | 0.5% | 26.6hPa | 2.7V | 18:12:15 | 01:42:42 | 00:00:00 | |
| HSKMA3-T | 2026-09-01 05:14:22 | 52.69862 | 8.32982 | 172° | 9km/h | 24976m | 6.7m/s | -51.6°C | 0.5% | 26.6hPa | 2.7V | 18:12:15 | 01:42:41 | 00:00:00 | |
| AA1-15 | 2026-09-01 05:14:18 | 52.69868 | 8.32980 | 239° | 5km/h | 24952m | 6m/s | -51.6°C | 0.5% | 26.7hPa | 2.7V | 18:12:15 | 01:42:37 | 00:00:00 | |
| DM0DOS-11 | 2026-09-01 05:14:18 | 52.69868 | 8.32987 | 292° | 5km/h | 24934m | 6.1m/s | -51.7°C | 3.7% | 26.8hPa | 2.6V | 08:30:00 | 01:42:34 | 00:00:00 | |
| DL1XH-west | 2026-09-01 05:14:16 | 52.69868 | 8.32985 | 272° | 5km/h | 24941m | 6.7m/s | -51.7°C | 0.5% | 26.7hPa | 2.7V | 18:12:15 | 01:42:35 | 00:00:00 | |
| DF8AY | 2026-09-01 05:14:15 | 52.69868 | 8.32987 | 292° | 5km/h | 24934m | 6.1m/s | -51.7°C | 0.6% | 26.8hPa | 2.6V | 18:12:15 | 01:42:34 | 00:00:00 | |
| DO2JMG | 2026-09-01 05:14:13 | 52.69868 | 8.32991 | 261° | 5km/h | 24923m | 6.1m/s | -51.7°C | 0.5% | 26.8hPa | 2.6V | 18:12:15 | 01:42:32 | 00:00:00 | |
| BIOWL1-15 | 2026-09-01 05:14:12 | 52.69868 | 8.32994 | 247° | 9km/h | 24917m | 6.2m/s | -51.7°C | 0.5% | 26.8hPa | 2.7V | 18:12:15 | 01:42:31 | 00:00:00 | |
| DO2SHX-10 | 2026-09-01 05:14:12 | 52.69868 | 8.32994 | 248° | 9km/h | 24917m | 6.2m/s | -51.6°C | 3.6% | 26.8hPa | 2.6V | 00:00:00 | 01:42:31 | 00:00:00 | |
| DL3OBA | 2026-09-01 05:14:11 | 52.69868 | 8.32994 | 248° | 9km/h | 24917m | 6.2m/s | -51.7°C | 1.0% | 26.8hPa | 2.6V | 00:00:00 | 00:00:00 | 00:00:00 | |
| DB0DAN | 2026-09-01 05:14:10 | 52.69871 | 8.33000 | 217° | 7km/h | 24906m | 5.8m/s | -51.6°C | 1% | 26.86hPa | 2.6V | 00:00:00 | 00:00:00 | 00:00:00 | |
| AA1-15 | 2026-09-01 05:14:08 | 52.69874 | 8.33000 | 147° | 7km/h | 24893m | 5.5m/s | -51.6°C | 0.5% | 26.9hPa | 2.6V | 18:12:15 | 01:42:27 | 00:00:00 | |
| DM0DOS-11 | 2026-09-01 05:14:08 | 52.69878 | 8.32996 | 143° | 5km/h | 24875m | 4.9m/s | -51.5°C | 3.6% | 27hPa | 2.7V | 08:30:00 | 01:42:24 | 00:00:00 | |
| DL1XH-west | 2026-09-01 05:14:05 | 52.69878 | 8.32996 | 144° | 5km/h | 24875m | 4.9m/s | -51.5°C | 0.5% | 27hPa | 2.7V | 18:12:15 | 01:42:24 | 00:00:00 | |
| DF8AY | 2026-09-01 05:14:04 | 52.69879 | 8.32994 | 123° | 5km/h | 24870m | 5.5m/s | -51.5°C | 0.4% | 27hPa | 2.6V | 18:12:15 | 01:42:23 | 00:00:00 | |
| DL3AQ-11 | 2026-09-01 05:14:04 | 52.69880 | 8.32992 | 110° | 7km/h | 24864m | 7.3m/s | -51.5°C | 1.0% | 27.1hPa | 2.6V | 00:00:00 | 00:00:00 | 00:00:00 | |
| DL1XH-15 | 2026-09-01 05:14:03 | 52.69886 | 8.32981 | 197° | 9km/h | 24835m | 4.7m/s | -51.4°C | 3.6% | 27.2hPa | 2.6V | 08:30:00 | 01:42:17 | 00:00:00 | |
| BIOWL1-15 | 2026-09-01 05:14:03 | 52.69881 | 8.32988 | 107° | 11km/h | 24857m | 5.6m/s | -51.5°C | 0.5% | 27.1hPa | 2.6V | 18:12:15 | 01:42:21 | 00:00:00 | |
| DO9LL-15 | 2026-09-01 05:14:03 | 52.69880 | 8.32992 | 111° | 9km/h | 24864m | 7.2m/s | -51.4°C | 3.6% | 27.0hPa | 2.6V | 00:00:00 | 01:42:22 | 00:00:00 | |
| DO2JMG | 2026-09-01 05:14:03 | 52.69880 | 8.32992 | 111° | 9km/h | 24864m | 7.3m/s | -51.5°C | 0.5% | 27.1hPa | 2.6V | 18:12:15 | 01:42:22 | 00:00:00 | |
| DC6BW-12 | 2026-09-01 05:14:02 | 52.69880 | 8.32992 | 112° | 9km/h | 24864m | 7.3m/s | -51.5°C | 1.0% | 27.1hPa | 2.6V | 00:00:00 | 00:00:00 | 00:00:00 | |
| GOEST3-10 | 2026-09-01 05:14:01 | 52.69882 | 8.32984 | 112° | 9km/h | 24852m | 4.9m/s | -51.4°C | 3.6% | 27.0hPa | 2.6V | 00:00:00 | 00:00:00 | 00:00:00 | |
| HSKMA3-T | 2026-09-01 05:14:01 | 52.69882 | 8.32984 | 111° | 9km/h | 24852m | 5m/s | -51.4°C | 0.5% | 27.1hPa | 2.7V | 18:12:15 | 01:42:20 | 00:00:00 | |
| DL4XJ-10 | 2026-09-01 05:14:00 | 52.69882 | 8.32981 | 133° | 9km/h | 24847m | 6.5m/s | -53.9°C | 0% | 0hPa | 2.6V | 00:00:00 | 00:00:00 | 00:00:00 | |
| DO2SHX-10 | 2026-09-01 05:13:59 | 52.69884 | 8.32980 | 178° | 7km/h | 24840m | 5.9m/s | -51.3°C | 3.6% | 27.1hPa | 2.6V | 00:00:00 | 01:42:18 | 00:00:00 | |
| DB0NH | 2026-09-01 05:13:58 | 52.69886 | 8.32981 | 198° | 9km/h | 24835m | 4.6m/s | -51.3°C | 3.6% | 27.1hPa | 2.6V | 00:00:00 | 01:42:17 | 00:00:00 | |
| DM0DOS-11 | 2026-09-01 05:13:57 | 52.69894 | 8.32981 | 160° | 13km/h | 24817m | 5.9m/s | -51.4°C | 3.6% | 27.3hPa | 2.7V | 08:30:00 | 01:42:14 | 00:00:00 | |
| DB0ND-19 | 2026-09-01 05:13:57 | 52.69891 | 8.32982 | 173° | 11km/h | 24824m | 6.6m/s | -51.4°C | 1.0% | 27.2hPa | 2.7V | 00:00:00 | 00:00:00 | 00:00:00 | |
| AA1-15 | 2026-09-01 05:13:57 | 52.69888 | 8.32982 | 189° | 11km/h | 24830m | 5.6m/s | -51.4°C | 0.4% | 27.2hPa | 2.6V | 18:12:15 | 01:42:16 | 00:00:00 | |
| DL1LOL-11 | 2026-09-01 05:13:56 | 52.69888 | 8.32982 | 190° | 11km/h | 24830m | 5.6m/s | -51.4°C | 1.0% | 27.2hPa | 2.7V | 00:00:00 | 00:00:00 | 00:00:00 | |
| DB0DAN | 2026-09-01 05:13:55 | 52.69894 | 8.32981 | 160° | 13km/h | 24817m | 5.9m/s | -51.4°C | 1% | 27.27hPa | 2.7V | 00:00:00 | 00:00:00 | 00:00:00 | |
| DL1XH-west | 2026-09-01 05:13:54 | 52.69897 | 8.32979 | 157° | 13km/h | 24811m | 5.7m/s | -51.4°C | 0.4% | 27.3hPa | 2.7V | 18:12:15 | 01:42:13 | 00:00:00 | |
| DO2JMG | 2026-09-01 05:13:52 | 52.69902 | 8.32976 | 167° | 9km/h | 24799m | 6.1m/s | -51.4°C | 0.5% | 27.3hPa | 2.6V | 18:12:15 | 01:42:11 | 00:00:00 | |
| HSKMA3-T | 2026-09-01 05:13:51 | 52.69904 | 8.32975 | 163° | 7km/h | 24793m | 4.6m/s | -51.3°C | 0.5% | 27.4hPa | 2.6V | 18:12:15 | 01:42:10 | 00:00:00 | |
| AA1-15 | 2026-09-01 05:13:46 | 52.69911 | 8.32966 | 177° | 5km/h | 24765m | 7m/s | -51.3°C | 0.3% | 27.5hPa | 2.6V | 18:12:15 | 01:42:05 | 00:00:00 | |
| DL1XH-west | 2026-09-01 05:13:44 | 52.69914 | 8.32967 | 196° | 9km/h | 24754m | 4.9m/s | -51.3°C | 0.5% | 27.5hPa | 2.7V | 18:12:15 | 01:42:03 | 00:00:00 | |
| DF8AY | 2026-09-01 05:13:43 | 52.69916 | 8.32968 | 183° | 9km/h | 24749m | 6.4m/s | -51.3°C | 0.4% | 27.5hPa | 2.7V | 18:12:15 | 01:42:02 | 00:00:00 | |
| DO2JMG | 2026-09-01 05:13:41 | 52.69922 | 8.32965 | 148° | 13km/h | 24737m | 5.2m/s | -51.3°C | 0.4% | 27.6hPa | 2.6V | 18:12:15 | 01:42:00 | 00:00:00 | |
| DB0DAN | 2026-09-01 05:13:40 | 52.69924 | 8.32963 | 144° | 11km/h | 24731m | 5.1m/s | -51.3°C | 1% | 27.61hPa | 2.6V | 00:00:00 | 00:00:00 | 00:00:00 | |
| HSKMA3-T | 2026-09-01 05:13:40 | 52.69924 | 8.32963 | 144° | 11km/h | 24731m | 5.1m/s | -51.3°C | 0.4% | 27.6hPa | 2.6V | 18:12:15 | 01:41:59 | 00:00:00 | |
| AA1-15 | 2026-09-01 05:13:35 | 52.69932 | 8.32951 | 117° | 11km/h | 24701m | 6.3m/s | -51.4°C | 0.4% | 27.8hPa | 2.6V | 18:12:15 | 01:41:54 | 00:00:00 | |
| DO2SHX-10 | 2026-09-01 05:13:35 | 52.69932 | 8.32951 | 117° | 9km/h | 24702m | 6.2m/s | -51.4°C | 3.6% | 27.7hPa | 2.7V | 00:00:00 | 01:41:54 | 00:00:00 | |
| DO3MHA-11 | 2026-09-01 05:13:34 | 52.69933 | 8.32947 | 124° | 9km/h | 24696m | 4.5m/s | 0°C | 0% | 0hPa | 2.7V | 00:00:00 | 01:41:53 | 00:00:00 | |
| DL1XH-15 | 2026-09-01 05:13:33 | 52.69941 | 8.32945 | 188° | 7km/h | 24661m | 5.3m/s | -51.7°C | 3.6% | 27.9hPa | 2.7V | 08:30:00 | 01:41:47 | 00:00:00 | |
| DL1XH-west | 2026-09-01 05:13:33 | 52.69934 | 8.32944 | 132° | 7km/h | 24691m | 4.9m/s | -51.5°C | 0.4% | 27.8hPa | 2.7V | 18:12:15 | 01:41:52 | 00:00:00 | |
| DF8AY | 2026-09-01 05:13:32 | 52.69936 | 8.32943 | 157° | 5km/h | 24685m | 6.8m/s | -51.6°C | 0.5% | 27.8hPa | 2.7V | 18:12:15 | 01:41:51 | 00:00:00 | |
| DO2JMG | 2026-09-01 05:13:30 | 52.69938 | 8.32943 | 205° | 5km/h | 24673m | 5.8m/s | -51.7°C | 0.5% | 27.9hPa | 2.6V | 18:12:15 | 01:41:49 | 00:00:00 | |
| HSKMA3-T | 2026-09-01 05:13:29 | 52.69940 | 8.32944 | 192° | 7km/h | 24667m | 6.3m/s | -51.7°C | 0.4% | 27.9hPa | 2.6V | 18:12:15 | 01:41:48 | 00:00:00 | |
| DJ2DS-15 | 2026-09-01 05:13:29 | 52.69940 | 8.32944 | 193° | 9km/h | 24667m | 6.2m/s | -51.6°C | 3.5% | 27.8hPa | 2.6V | 00:00:00 | 01:41:48 | 00:00:00 | |
| DB0NH | 2026-09-01 05:13:28 | 52.69941 | 8.32945 | 189° | 11km/h | 24661m | 5.2m/s | -51.6°C | 3.6% | 27.9hPa | 2.6V | 00:00:00 | 01:41:47 | 00:00:00 | |
| DB0DAN | 2026-09-01 05:13:25 | 52.69947 | 8.32949 | 210° | 9km/h | 24643m | 5.2m/s | -51.6°C | 1% | 28.02hPa | 2.6V | 00:00:00 | 00:00:00 | 00:00:00 | |
| AA1-15 | 2026-09-01 05:13:24 | 52.69949 | 8.32950 | 192° | 9km/h | 24638m | 4.8m/s | -51.6°C | 0.4% | 28hPa | 2.6V | 18:12:15 | 01:41:43 | 00:00:00 | |
| DL1XH-west | 2026-09-01 05:13:22 | 52.69954 | 8.32949 | 154° | 13km/h | 24626m | 5.2m/s | -51.5°C | 0.5% | 28.1hPa | 2.7V | 18:12:15 | 01:41:41 | 00:00:00 | |
| DF8AY | 2026-09-01 05:13:21 | 52.69957 | 8.32946 | 150° | 13km/h | 24621m | 4.5m/s | -51.5°C | 0.6% | 28.1hPa | 2.7V | 18:12:15 | 01:41:40 | 00:00:00 | |
| DO2JMG | 2026-09-01 05:13:19 | 52.69963 | 8.32943 | 171° | 11km/h | 24610m | 5.7m/s | -51.6°C | 0.5% | 28.1hPa | 2.6V | 18:12:15 | 01:41:38 | 00:00:00 | |
| HSKMA3-T | 2026-09-01 05:13:18 | 52.69965 | 8.32942 | 181° | 11km/h | 24604m | 4.4m/s | -51.6°C | 0.5% | 28.2hPa | 2.6V | 18:12:15 | 01:41:37 | 00:00:00 | |
| DM0DOS-11 | 2026-09-01 05:13:17 | 52.69973 | 8.32938 | 138° | 11km/h | 24587m | 5.6m/s | -51.6°C | 3.5% | 28.2hPa | 2.6V | 08:30:00 | 01:41:34 | 00:00:00 | |
| AA1-15 | 2026-09-01 05:13:13 | 52.69977 | 8.32932 | 144° | 11km/h | 24576m | 6.1m/s | -51.7°C | 0.4% | 28.3hPa | 2.6V | 18:12:15 | 01:41:32 | 00:00:00 | |
| DL1XH-west | 2026-09-01 05:13:11 | 52.69981 | 8.32928 | 150° | 9km/h | 24564m | 5.3m/s | -51.7°C | 0.4% | 28.4hPa | 2.7V | 18:12:15 | 01:41:30 | 00:00:00 | |
| DF8AY | 2026-09-01 05:13:10 | 52.69983 | 8.32926 | 136° | 9km/h | 24558m | 6.5m/s | -51.7°C | 0.4% | 28.4hPa | 2.7V | 18:12:15 | 01:41:29 | 00:00:00 | |
| DO2JMG | 2026-09-01 05:13:09 | 52.69984 | 8.32922 | 121° | 13km/h | 24552m | 6.3m/s | -51.7°C | 0.5% | 28.4hPa | 2.6V | 18:12:15 | 01:41:28 | 00:00:00 | |
| BIOWL1-15 | 2026-09-01 05:13:08 | 52.69986 | 8.32918 | 117° | 13km/h | 24546m | 5.1m/s | -51.7°C | 0.6% | 28.4hPa | 2.6V | 18:12:15 | 01:41:27 | 00:00:00 | |
| DB0UT-7 | 2026-09-01 05:13:08 | 52.69986 | 8.32918 | 118° | 15km/h | 24546m | 5.1m/s | -51.6°C | 3.8% | 28.4hPa | 2.7V | 00:00:00 | 00:00:00 | 00:00:00 | |
| DM0DOS-11 | 2026-09-01 05:13:07 | 52.69991 | 8.32905 | 123° | 11km/h | 24528m | 5.2m/s | -51.6°C | 3.7% | 28.5hPa | 2.7V | 08:30:00 | 01:41:24 | 00:00:00 | |
| GOEST3-10 | 2026-09-01 05:13:06 | 52.69989 | 8.32909 | 126° | 15km/h | 24535m | 6.3m/s | -51.6°C | 3.7% | 28.4hPa | 2.6V | 00:00:00 | 01:41:25 | 00:00:00 | |
| DO2LYB-13 | 2026-09-01 05:13:05 | 52.69989 | 8.32909 | 126° | 11km/h | 24535m | 6.3m/s | -51.6°C | 1.1% | 28.5hPa | 2.6V | 00:00:00 | 00:00:00 | 00:00:00 | |
| DL1XH-15 | 2026-09-01 05:13:03 | 52.70000 | 8.32863 | 108° | 13km/h | 24489m | 4.9m/s | -51.5°C | 3.5% | 28.7hPa | 2.6V | 08:30:00 | 01:41:17 | 00:00:00 | |
| AA1-15 | 2026-09-01 05:13:02 | 52.69995 | 8.32887 | 107° | 18km/h | 24511m | 4.5m/s | -51.5°C | 0.4% | 28.6hPa | 2.6V | 18:12:15 | 01:41:21 | 00:00:00 | |
| DL1XH-west | 2026-09-01 05:13:01 | 52.69997 | 8.32880 | 107° | 18km/h | 24507m | 5.4m/s | -51.5°C | 0.4% | 28.6hPa | 2.7V | 18:12:15 | 01:41:20 | 00:00:00 | |
| DF8AY | 2026-09-01 05:13:00 | 52.69998 | 8.32873 | 110° | 15km/h | 24501m | 6.4m/s | -51.5°C | 0.4% | 28.6hPa | 2.7V | 18:12:15 | 01:41:19 | 00:00:00 | |
| BIOWL1-15 | 2026-09-01 05:12:59 | 52.70001 | 8.32857 | 105° | 15km/h | 24484m | 6.8m/s | -51.5°C | 0.5% | 28.7hPa | 2.6V | 18:12:15 | 01:41:16 | 00:00:00 | |
| DO2JMG | 2026-09-01 05:12:58 | 52.70000 | 8.32863 | 109° | 13km/h | 24489m | 4.9m/s | -51.5°C | 0.4% | 28.7hPa | 2.6V | 18:12:15 | 01:41:17 | 00:00:00 | |
| DB0NH | 2026-09-01 05:12:58 | 52.70000 | 8.32863 | 109° | 15km/h | 24490m | 4.9m/s | -51.4°C | 3.5% | 28.6hPa | 2.7V | 00:00:00 | 01:41:17 | 00:00:00 | |
| DO2KSM | 2026-09-01 05:12:57 | 52.70000 | 8.32862 | 110° | 13km/h | 24490m | 4.9m/s | -51.5°C | 1.0% | 28.7hPa | 2.7V | 00:00:00 | 00:00:00 | 00:00:00 | |
| DB0DAN | 2026-09-01 05:12:55 | 52.70003 | 8.32843 | 99° | 16km/h | 24472m | 5.3m/s | -51.5°C | 1% | 28.79hPa | 2.7V | 00:00:00 | 00:00:00 | 00:00:00 | |
| DB0ND-19 | 2026-09-01 05:12:55 | 52.70004 | 8.32837 | 98° | 15km/h | 24466m | 6.2m/s | -51.5°C | 1.0% | 28.8hPa | 2.7V | 00:00:00 | 00:00:00 | 00:00:00 | |
| BIOWL9-15 | 2026-09-01 05:12:54 | 52.70004 | 8.32837 | 98° | 15km/h | 24466m | 6.2m/s | -51.5°C | 1.0% | 28.8hPa | 2.7V | 00:00:00 | 00:00:00 | 00:00:00 | |
| DL1XH-15 | 2026-09-01 05:12:53 | 52.70002 | 8.32799 | 89° | 20km/h | 24433m | 5.6m/s | -51.5°C | 3.5% | 28.9hPa | 2.7V | 08:30:00 | 01:41:07 | 00:00:00 | |
| AA1-15 | 2026-09-01 05:12:52 | 52.70004 | 8.32826 | 83° | 11km/h | 24455m | 4.5m/s | -51.4°C | 0.6% | 28.9hPa | 2.6V | 18:12:15 | 01:41:11 | 00:00:00 | |
| DL1XH-west | 2026-09-01 05:12:51 | 52.70003 | 8.32821 | 78° | 15km/h | 24450m | 5.3m/s | -51.4°C | 0.5% | 28.9hPa | 2.6V | 18:12:15 | 01:41:10 | 00:00:00 | |
| DF8AY | 2026-09-01 05:12:50 | 52.70003 | 8.32815 | 78° | 18km/h | 24444m | 6.2m/s | -51.5°C | 0.4% | 28.9hPa | 2.7V | 18:12:15 | 01:41:09 | 00:00:00 | |
| HSKMA3-T | 2026-09-01 05:12:48 | 52.70001 | 8.32799 | 89° | 20km/h | 24433m | 5.6m/s | -51.5°C | 0.4% | 28.9hPa | 2.7V | 18:12:15 | 01:41:07 | 00:00:00 | |
| BIOWL1-15 | 2026-09-01 05:12:46 | 52.70003 | 8.32783 | 105° | 18km/h | 24421m | 5.2m/s | -51.5°C | 0.5% | 29hPa | 2.6V | 18:12:15 | 01:41:05 | 00:00:00 | |
| DO2SHX-10 | 2026-09-01 05:12:46 | 52.70003 | 8.32783 | 105° | 18km/h | 24421m | 5.2m/s | -51.4°C | 3.5% | 29.0hPa | 2.7V | 00:00:00 | 01:41:05 | 00:00:00 | |
| SMARD9-15 | 2026-09-01 05:12:44 | 52.70005 | 8.32761 | 86° | 16km/h | 24404m | 5.2m/s | -51.4°C | 1.0% | 29.1hPa | 2.7V | 00:00:00 | 00:00:00 | 00:00:00 | |
| DL1XH-15 | 2026-09-01 05:12:43 | 52.69997 | 8.32743 | 21° | 13km/h | 24376m | 6.8m/s | -51.5°C | 3.7% | 29.2hPa | 2.7V | 08:30:00 | 01:40:57 | 00:00:00 | |
| AA1-15 | 2026-09-01 05:12:41 | 52.70003 | 8.32749 | 65° | 11km/h | 24393m | 6.9m/s | -51.4°C | 0.5% | 29.1hPa | 2.6V | 18:12:15 | 01:41:00 | 00:00:00 | |
| DB0DAN | 2026-09-01 05:12:40 | 52.70002 | 8.32746 | 37° | 7km/h | 24387m | 5.4m/s | -51.4°C | 1% | 29.15hPa | 2.6V | 00:00:00 | 00:00:00 | 00:00:00 | |
| DL1XH-west | 2026-09-01 05:12:40 | 52.70002 | 8.32746 | 37° | 9km/h | 24387m | 5.4m/s | -51.4°C | 0.4% | 29.1hPa | 2.6V | 18:12:15 | 01:40:59 | 00:00:00 | |
| DF8AY | 2026-09-01 05:12:39 | 52.70000 | 8.32745 | 20° | 9km/h | 24382m | 4.9m/s | -51.5°C | 0.5% | 29.2hPa | 2.7V | 18:12:15 | 01:40:58 | 00:00:00 | |
| DO2JMG | 2026-09-01 05:12:38 | 52.69997 | 8.32743 | 22° | 13km/h | 24376m | 6.8m/s | -51.5°C | 0.5% | 29.2hPa | 2.7V | 18:12:15 | 01:40:57 | 00:00:00 | |
| BIOWL1-15 | 2026-09-01 05:12:36 | 52.69991 | 8.32737 | 33° | 16km/h | 24364m | 4.5m/s | -51.5°C | 0.5% | 29.3hPa | 2.6V | 18:12:15 | 01:40:55 | 00:00:00 | |
| GOEST3-10 | 2026-09-01 05:12:36 | 52.69991 | 8.32737 | 34° | 11km/h | 24365m | 4.5m/s | -51.5°C | 3.7% | 29.2hPa | 2.7V | 00:00:00 | 01:40:55 | 00:00:00 | |
| DL1CLM-18 | 2026-09-01 05:12:35 | 52.69991 | 8.32737 | 34° | 16km/h | 24365m | 4.5m/s | -51.5°C | 1.0% | 29.3hPa | 2.7V | 00:00:00 | 00:00:00 | 00:00:00 | |
| DL1LOL-11 | 2026-09-01 05:12:34 | 52.69988 | 8.32734 | 40° | 15km/h | 24360m | 5.1m/s | -51.5°C | 1.0% | 29.3hPa | 2.7V | 00:00:00 | 00:00:00 | 00:00:00 | |
| DL1XH-15 | 2026-09-01 05:12:33 | 52.69983 | 8.32704 | 69° | 11km/h | 24323m | 4m/s | -51.6°C | 3.6% | 29.4hPa | 2.7V | 08:30:00 | 01:40:47 | 00:00:00 | |
| DL1XH-west | 2026-09-01 05:12:30 | 52.69984 | 8.32714 | 86° | 13km/h | 24332m | 5.9m/s | -51.5°C | 0.5% | 29.4hPa | 2.6V | 18:12:15 | 01:40:49 | 00:00:00 | |
| DF8AY | 2026-09-01 05:12:29 | 52.69984 | 8.32709 | 80° | 13km/h | 24327m | 4.6m/s | -51.6°C | 0.4% | 29.4hPa | 2.6V | 18:12:15 | 01:40:48 | 00:00:00 | |
| DO2JMG | 2026-09-01 05:12:28 | 52.69983 | 8.32704 | 69° | 11km/h | 24323m | 4m/s | -51.6°C | 0.4% | 29.4hPa | 2.7V | 18:12:15 | 01:40:47 | 00:00:00 | |
| DM0DOS-11 | 2026-09-01 05:12:27 | 52.69979 | 8.32699 | 346° | 9km/h | 24305m | 5.1m/s | -51.6°C | 3.6% | 29.5hPa | 2.6V | 08:30:00 | 01:40:44 | 00:00:00 | |
| HSKMA3-T | 2026-09-01 05:12:27 | 52.69982 | 8.32700 | 61° | 7km/h | 24318m | 6.7m/s | -51.6°C | 0.5% | 29.5hPa | 2.7V | 18:12:15 | 01:40:46 | 00:00:00 | |
| BIOWL1-15 | 2026-09-01 05:12:26 | 52.69981 | 8.32699 | 14° | 5km/h | 24311m | 6m/s | -51.6°C | 0.5% | 29.5hPa | 2.7V | 18:12:15 | 01:40:45 | 00:00:00 | |
| DB0DAN | 2026-09-01 05:12:25 | 52.69979 | 8.32699 | 347° | 9km/h | 24305m | 5.1m/s | -51.6°C | 1% | 29.53hPa | 2.6V | 00:00:00 | 00:00:00 | 00:00:00 | |
| DB0ND-19 | 2026-09-01 05:12:24 | 52.69973 | 8.32701 | 351° | 15km/h | 24293m | 5.1m/s | -51.7°C | 1.0% | 29.6hPa | 2.6V | 00:00:00 | 00:00:00 | 00:00:00 | |
| DL1XH-15 | 2026-09-01 05:12:23 | 52.69957 | 8.32707 | 15° | 9km/h | 24265m | 6.7m/s | -51.7°C | 3.7% | 29.7hPa | 2.6V | 08:30:00 | 01:40:37 | 00:00:00 | |
| DL1XH-west | 2026-09-01 05:12:20 | 52.69962 | 8.32705 | 339° | 13km/h | 24276m | 5.7m/s | -51.7°C | 0.5% | 29.7hPa | 2.6V | 18:12:15 | 01:40:39 | 00:00:00 | |
| AA1-15 | 2026-09-01 05:12:19 | 52.69960 | 8.32707 | 350° | 9km/h | 24271m | 5m/s | -51.7°C | 0.5% | 29.7hPa | 2.6V | 18:12:15 | 01:40:38 | 00:00:00 | |
| DF8AY | 2026-09-01 05:12:18 | 52.69957 | 8.32707 | 16° | 9km/h | 24265m | 6.7m/s | -51.7°C | 0.5% | 29.7hPa | 2.6V | 18:12:15 | 01:40:37 | 00:00:00 | |
| DO2JMG | 2026-09-01 05:12:17 | 52.69955 | 8.32705 | 36° | 9km/h | 24259m | 4.7m/s | -51.7°C | 0.5% | 29.8hPa | 2.7V | 18:12:15 | 01:40:36 | 00:00:00 | |
| HSKMA3-T | 2026-09-01 05:12:16 | 52.69954 | 8.32703 | 47° | 7km/h | 24254m | 5m/s | -51.7°C | 0.6% | 29.8hPa | 2.7V | 18:12:15 | 01:40:35 | 00:00:00 | |
| BIOWL1-15 | 2026-09-01 05:12:15 | 52.69953 | 8.32701 | 42° | 4km/h | 24248m | 6.7m/s | -51.6°C | 0.6% | 29.8hPa | 2.7V | 18:12:15 | 01:40:34 | 00:00:00 | |
| DO2SHX-10 | 2026-09-01 05:12:15 | 52.69953 | 8.32701 | 43° | 4km/h | 24249m | 6.7m/s | -51.6°C | 3.7% | 29.8hPa | 2.6V | 00:00:00 | 01:40:34 | 00:00:00 | |
| DK5PH-5 | 2026-09-01 05:12:14 | 52.69953 | 8.32701 | 354° | 11km/h | 24243m | 5.3m/s | -51.5°C | 3.7% | 29.8hPa | 2.6V | 00:00:00 | 01:40:33 | 00:00:00 | |
| DL1XH-15 | 2026-09-01 05:12:13 | 52.69936 | 8.32710 | 331° | 20km/h | 24208m | 5.2m/s | -51.6°C | 3.7% | 30hPa | 2.6V | 08:30:00 | 01:40:27 | 00:00:00 | |
| DL4BBY-15 | 2026-09-01 05:12:12 | 52.69950 | 8.32701 | 357° | 11km/h | 24231m | 5.9m/s | -54.1°C | 0% | 0hPa | 2.7V | 00:00:00 | 00:00:00 | 00:00:00 | |
| DD1CC9-15 | 2026-09-01 05:12:11 | 52.69950 | 8.32701 | 357° | 9km/h | 24231m | 6.0m/s | -51.6°C | 1.1% | 29.9hPa | 2.7V | 00:00:00 | 00:00:00 | 00:00:00 | |
| DB0DAN | 2026-09-01 05:12:10 | 52.69944 | 8.32704 | 340° | 15km/h | 24220m | 6.1m/s | -51.6°C | 1% | 29.94hPa | 2.7V | 00:00:00 | 00:00:00 | 00:00:00 | |
| DL1XH-west | 2026-09-01 05:12:10 | 52.69944 | 8.32704 | 340° | 15km/h | 24220m | 6.1m/s | -51.6°C | 0.5% | 29.9hPa | 2.7V | 18:12:15 | 01:40:29 | 00:00:00 | |
| AA1-15 | 2026-09-01 05:12:08 | 52.69936 | 8.32710 | 331° | 20km/h | 24208m | 5.2m/s | -51.6°C | 0.6% | 30hPa | 2.6V | 18:12:15 | 01:40:27 | 00:00:00 | |
| DO2SHX-10 | 2026-09-01 05:12:08 | 52.69936 | 8.32710 | 332° | 18km/h | 24208m | 5.1m/s | -51.6°C | 3.7% | 29.9hPa | 2.6V | 00:00:00 | 01:40:27 | 00:00:00 | |
| DM0DOS-11 | 2026-09-01 05:12:07 | 52.69921 | 8.32719 | 348° | 18km/h | 24191m | 4.4m/s | -51.5°C | 3.6% | 30.1hPa | 2.7V | 08:30:00 | 01:40:24 | 00:00:00 | |
| DF8AY | 2026-09-01 05:12:07 | 52.69931 | 8.32714 | 337° | 22km/h | 24202m | 6.5m/s | -51.6°C | 0.5% | 30hPa | 2.6V | 18:12:15 | 01:40:26 | 00:00:00 | |
| DO2JMG | 2026-09-01 05:12:06 | 52.69926 | 8.32717 | 345° | 20km/h | 24196m | 5.7m/s | -51.5°C | 0.5% | 30.1hPa | 2.7V | 18:12:15 | 01:40:25 | 00:00:00 | |
| BIOWL1-15 | 2026-09-01 05:12:05 | 52.69921 | 8.32719 | 348° | 18km/h | 24191m | 4.4m/s | -51.5°C | 0.5% | 30.1hPa | 2.7V | 18:12:15 | 01:40:24 | 00:00:00 | |
| DL3AQ-11 | 2026-09-01 05:12:04 | 52.69913 | 8.32723 | 337° | 15km/h | 24180m | 6.3m/s | -51.6°C | 1.0% | 30.1hPa | 2.6V | 00:00:00 | 00:00:00 | 00:00:00 | |
| DL1XH-15 | 2026-09-01 05:12:03 | 52.69904 | 8.32726 | 58° | 5km/h | 24152m | 5.6m/s | -51.5°C | 3.6% | 30.2hPa | 2.6V | 08:30:00 | 01:40:17 | 00:00:00 | |
| DL1XH-west | 2026-09-01 05:11:59 | 52.69904 | 8.32728 | 34° | 5km/h | 24158m | 6.1m/s | -51.5°C | 0.5% | 30.2hPa | 2.7V | 18:12:15 | 01:40:18 | 00:00:00 | |
| DL8DAS-14 | 2026-09-01 05:11:58 | 52.69903 | 8.32726 | 58° | 5km/h | 24152m | 5.6m/s | -51.5°C | 1.0% | 30.2hPa | 2.7V | 00:00:00 | 00:00:00 | 00:00:00 | |
| DM0DOS-11 | 2026-09-01 05:11:57 | 52.69901 | 8.32723 | 355° | 5km/h | 24135m | 4.3m/s | -51.4°C | 3.6% | 30.3hPa | 2.7V | 08:30:00 | 01:40:14 | 00:00:00 | |
| DF8AY | 2026-09-01 05:11:57 | 52.69903 | 8.32724 | 63° | 4km/h | 24146m | 6.4m/s | -51.4°C | 0.5% | 30.3hPa | 2.6V | 18:12:15 | 01:40:16 | 00:00:00 | |
| BIOWL1-15 | 2026-09-01 05:11:56 | 52.69899 | 8.32724 | 360° | 9km/h | 24130m | 5.9m/s | -51.4°C | 0.4% | 30.4hPa | 2.7V | 18:12:15 | 01:40:13 | 00:00:00 | |
| DO2JMG | 2026-09-01 05:11:56 | 52.69902 | 8.32724 | 21° | 4km/h | 24140m | 5.3m/s | -51.4°C | 0.4% | 30.3hPa | 2.6V | 18:12:15 | 01:40:15 | 00:00:00 | |
| DB0DAN | 2026-09-01 05:11:55 | 52.69901 | 8.32723 | 355° | 5km/h | 24135m | 4.3m/s | -51.4°C | 1% | 30.33hPa | 2.7V | 00:00:00 | 00:00:00 | 00:00:00 | |
| HSKMA3-T | 2026-09-01 05:11:55 | 52.69901 | 8.32723 | 355° | 5km/h | 24135m | 4.3m/s | -51.4°C | 0.4% | 30.3hPa | 2.7V | 18:12:15 | 01:40:14 | 00:00:00 | |
| DL1XH-west | 2026-09-01 05:11:48 | 52.69881 | 8.32727 | 333° | 9km/h | 24098m | 4.2m/s | -51.3°C | 0.5% | 30.5hPa | 2.7V | 18:12:15 | 01:40:07 | 00:00:00 | |
| DF8AY | 2026-09-01 05:11:47 | 52.69879 | 8.32728 | 353° | 7km/h | 24094m | 5.1m/s | -51.3°C | 0.5% | 30.5hPa | 2.6V | 18:12:15 | 01:40:06 | 00:00:00 | |
| AA1-15 | 2026-09-01 05:11:46 | 52.69877 | 8.32728 | 23° | 7km/h | 24088m | 6.5m/s | -51.3°C | 0.5% | 30.6hPa | 2.6V | 18:12:15 | 01:40:05 | 00:00:00 | |
| DM0DOS-11 | 2026-09-01 05:11:45 | 52.69875 | 8.32726 | 38° | 11km/h | 24082m | 5.8m/s | -51.2°C | 3.6% | 30.6hPa | 2.6V | 08:30:00 | 01:40:04 | 00:00:00 | |
| DO2JMG | 2026-09-01 05:11:45 | 52.69875 | 8.32726 | 39° | 11km/h | 24082m | 5.8m/s | -51.2°C | 0.4% | 30.6hPa | 2.6V | 18:12:15 | 01:40:04 | 00:00:00 | |
| BIOWL1-15 | 2026-09-01 05:11:43 | 52.69871 | 8.32720 | 35° | 9km/h | 24070m | 6.2m/s | -51.2°C | 0.4% | 30.7hPa | 2.7V | 18:12:15 | 01:40:02 | 00:00:00 | |
| DO2SHX-10 | 2026-09-01 05:11:43 | 52.69871 | 8.32720 | 36° | 7km/h | 24070m | 6.1m/s | -51.2°C | 3.5% | 30.6hPa | 2.7V | 00:00:00 | 01:40:02 | 08:30:00 | |
| DL4BBY-15 | 2026-09-01 05:11:42 | 52.69870 | 8.32719 | 24° | 7km/h | 24065m | 4.8m/s | -53.7°C | 0% | 0hPa | 2.6V | 00:00:00 | 00:00:00 | 00:00:00 | |
| DB0DAN | 2026-09-01 05:11:40 | 52.69866 | 8.32716 | 23° | 9km/h | 24054m | 6.6m/s | -51.3°C | 1% | 30.73hPa | 2.6V | 00:00:00 | 00:00:00 | 00:00:00 | |
| DL1XH-west | 2026-09-01 05:11:37 | 52.69860 | 8.32713 | 348° | 5km/h | 24036m | 6.9m/s | -51.4°C | 0.4% | 30.8hPa | 2.7V | 18:12:15 | 01:39:56 | 00:00:00 | |
| DB0UT-7 | 2026-09-01 05:11:37 | 52.69860 | 8.32713 | 348° | 7km/h | 24036m | 6.8m/s | -51.3°C | 3.5% | 30.8hPa | 2.6V | 00:00:00 | 01:39:56 | 00:00:00 | |
| DM0DOS-11 | 2026-09-01 05:11:35 | 52.69858 | 8.32716 | 295° | 4km/h | 24025m | 4.4m/s | -51.3°C | 3.6% | 30.9hPa | 2.6V | 08:30:00 | 01:39:54 | 00:00:00 | |
| AA1-15 | 2026-09-01 05:11:35 | 52.69858 | 8.32716 | 296° | 4km/h | 24025m | 4.4m/s | -51.3°C | 0.5% | 30.9hPa | 2.6V | 18:12:15 | 01:39:54 | 00:00:00 | |
| DO2JMG | 2026-09-01 05:11:34 | 52.69858 | 8.32717 | 316° | 4km/h | 24019m | 6.5m/s | -51.4°C | 0.5% | 30.9hPa | 2.6V | 18:12:15 | 01:39:53 | 00:00:00 | |
| BIOWL1-15 | 2026-09-01 05:11:32 | 52.69856 | 8.32718 | 359° | 5km/h | 24008m | 5m/s | -51.4°C | 0.6% | 30.9hPa | 2.7V | 18:12:15 | 01:39:51 | 00:00:00 | |
| DL1XH-west | 2026-09-01 05:11:27 | 52.69850 | 8.32720 | 39° | 7km/h | 23982m | 6.4m/s | -51.3°C | 0.5% | 31.1hPa | 2.7V | 18:12:15 | 01:39:46 | 00:00:00 | |
| DB0DAN | 2026-09-01 05:11:25 | 52.69846 | 8.32715 | 38° | 9km/h | 23971m | 4.7m/s | -51.3°C | 1% | 31.12hPa | 2.6V | 00:00:00 | 00:00:00 | 00:00:00 | |
| HSKMA3-T | 2026-09-01 05:11:24 | 52.69844 | 8.32712 | 25° | 9km/h | 23966m | 6.7m/s | -51.3°C | 0.5% | 31.2hPa | 2.6V | 18:12:15 | 01:39:43 | 00:00:00 | |
| DO2JMG | 2026-09-01 05:11:23 | 52.69842 | 8.32711 | 20° | 9km/h | 23960m | 4.8m/s | -51.3°C | 0.4% | 31.2hPa | 2.6V | 18:12:15 | 01:39:42 | 00:00:00 | |
| BIOWL1-15 | 2026-09-01 05:11:22 | 52.69840 | 8.32709 | 26° | 9km/h | 23955m | 4.9m/s | -51.3°C | 0.4% | 31.2hPa | 2.7V | 18:12:15 | 01:39:41 | 00:00:00 | |
| DB0ND-19 | 2026-09-01 05:11:22 | 52.69837 | 8.32707 | 36° | 9km/h | 23949m | 6.7m/s | -51.3°C | 1.0% | 31.2hPa | 2.7V | 00:00:00 | 00:00:00 | 00:00:00 | |
| DO2SHX-10 | 2026-09-01 05:11:21 | 52.69837 | 8.32707 | 37° | 9km/h | 23949m | 6.7m/s | -51.3°C | 3.6% | 31.2hPa | 2.7V | 00:00:00 | 01:39:40 | 00:00:00 | |
| DL1XH1-15 | 2026-09-01 05:11:20 | 52.69835 | 8.32698 | 115° | 4km/h | 23916m | 5.5m/s | -51.2°C | 3.6% | 31.4hPa | 2.7V | 08:30:00 | 01:39:34 | 00:00:00 | |
| DL1XH-west | 2026-09-01 05:11:16 | 52.69834 | 8.32699 | 152° | 2km/h | 23921m | 4.1m/s | -51.3°C | 0.5% | 31.4hPa | 2.7V | 18:12:15 | 01:39:35 | 00:00:00 | |
| HSKMA3-T | 2026-09-01 05:11:13 | 52.69835 | 8.32692 | 99° | 9km/h | 23905m | 4.7m/s | -51.3°C | 0.6% | 31.5hPa | 2.6V | 18:12:15 | 01:39:32 | 00:00:00 | |
| DO2JMG | 2026-09-01 05:11:12 | 52.69836 | 8.32689 | 97° | 9km/h | 23900m | 4.9m/s | -51.3°C | 0.5% | 31.4hPa | 2.6V | 18:12:15 | 01:39:31 | 00:00:00 | |
| BIOWL1-15 | 2026-09-01 05:11:11 | 52.69836 | 8.32685 | 97° | 7km/h | 23894m | 6.4m/s | -51.3°C | 0.5% | 31.5hPa | 2.7V | 18:12:15 | 01:39:30 | 00:00:00 | |
| DL3AQ-11 | 2026-09-01 05:11:11 | 52.69836 | 8.32682 | 87° | 7km/h | 23889m | 4.8m/s | -51.3°C | 1.0% | 31.5hPa | 2.7V | 00:00:00 | 00:00:00 | 00:00:00 | |
| DL1XH1-15 | 2026-09-01 05:11:10 | 52.69833 | 8.32656 | 87° | 11km/h | 23861m | 7m/s | -51°C | 3.6% | 31.7hPa | 2.7V | 08:30:00 | 01:39:24 | 00:00:00 | |
| DF8AY | 2026-09-01 05:11:09 | 52.69836 | 8.32678 | 82° | 11km/h | 23884m | 5.4m/s | -51.2°C | 0.6% | 31.6hPa | 2.7V | 18:12:15 | 01:39:28 | 00:00:00 | |
| DL1XH-west | 2026-09-01 05:11:06 | 52.69834 | 8.32661 | 81° | 15km/h | 23867m | 4.9m/s | -51.1°C | 0.6% | 31.6hPa | 2.6V | 18:12:15 | 01:39:25 | 00:00:00 | |
| AA1-15 | 2026-09-01 05:11:03 | 52.69835 | 8.32650 | 144° | 7km/h | 23850m | 4.9m/s | -51°C | 0.5% | 31.7hPa | 2.6V | 18:12:15 | 01:39:22 | 00:00:00 | |
| DO2JMG | 2026-09-01 05:11:02 | 52.69837 | 8.32648 | 145° | 11km/h | 23845m | 5.3m/s | -51°C | 0.5% | 31.7hPa | 2.6V | 18:12:15 | 01:39:21 | 00:00:00 | |
| BIOWL1-15 | 2026-09-01 05:11:01 | 52.69839 | 8.32645 | 135° | 13km/h | 23839m | 6m/s | -51°C | 0.5% | 31.8hPa | 2.6V | 18:12:15 | 01:39:20 | 00:00:00 | |
| DL1XH-west | 2026-09-01 05:10:56 | 52.69850 | 8.32622 | 121° | 13km/h | 23811m | 4.7m/s | -50.9°C | 0.5% | 31.9hPa | 2.6V | 18:12:15 | 01:39:15 | 00:00:00 | |
| DB0DAN | 2026-09-01 05:10:55 | 52.69851 | 8.32617 | 112° | 15km/h | 23805m | 6.7m/s | -50.8°C | 0.9% | 31.92hPa | 2.6V | 00:00:00 | 00:00:00 | 00:00:00 | |
| DF8AY | 2026-09-01 05:10:54 | 52.69853 | 8.32611 | 101° | 16km/h | 23799m | 5.2m/s | -50.8°C | 0.5% | 31.9hPa | 2.7V | 18:12:15 | 01:39:13 | 00:00:00 | |
| HSKMA3-T | 2026-09-01 05:10:53 | 52.69853 | 8.32604 | 92° | 16km/h | 23795m | 4.9m/s | -50.9°C | 0.5% | 32hPa | 2.7V | 18:12:15 | 01:39:12 | 00:00:00 | |
| DO2JMG | 2026-09-01 05:10:52 | 52.69853 | 8.32598 | 84° | 13km/h | 23789m | 6.7m/s | -50.9°C | 0.5% | 32hPa | 2.6V | 18:12:15 | 01:39:11 | 00:00:00 | |
| BIOWL1-15 | 2026-09-01 05:10:50 | 52.69851 | 8.32590 | 54° | 9km/h | 23777m | 5m/s | -50.9°C | 0.4% | 32.1hPa | 2.6V | 18:12:15 | 01:39:09 | 00:00:00 | |
| DL1XH-west | 2026-09-01 05:10:45 | 52.69848 | 8.32567 | 95° | 11km/h | 23750m | 5.9m/s | -50.8°C | 0.4% | 32.2hPa | 2.6V | 18:12:15 | 01:39:04 | 00:00:00 | |
| DF8AY | 2026-09-01 05:10:44 | 52.69848 | 8.32562 | 95° | 11km/h | 23745m | 4.9m/s | -50.8°C | 0.3% | 32.2hPa | 2.6V | 18:12:15 | 01:39:03 | 00:00:00 | |
| HSKMA3-T | 2026-09-01 05:10:43 | 52.69849 | 8.32557 | 96° | 15km/h | 23739m | 5.7m/s | -50.8°C | 0.4% | 32.3hPa | 2.7V | 18:12:15 | 01:39:02 | 00:00:00 | |
| AA1-15 | 2026-09-01 05:10:42 | 52.69849 | 8.32550 | 94° | 18km/h | 23733m | 6.5m/s | -50.8°C | 0.4% | 32.3hPa | 2.7V | 18:12:15 | 01:39:01 | 00:00:00 | |
| DO2JMG | 2026-09-01 05:10:41 | 52.69849 | 8.32542 | 92° | 20km/h | 23727m | 4.6m/s | -50.7°C | 0.5% | 32.4hPa | 2.6V | 18:12:15 | 01:39:00 | 00:00:00 | |
| DO2SHX-10 | 2026-09-01 05:10:41 | 52.69849 | 8.32542 | 92° | 18km/h | 23728m | 4.5m/s | -50.7°C | 3.6% | 32.3hPa | 2.6V | 00:00:00 | 01:39:00 | 00:00:00 | |
| DL1XH1-15 | 2026-09-01 05:10:40 | 52.69846 | 8.32501 | 75° | 16km/h | 23693m | 5.1m/s | -50.7°C | 3.5% | 32.5hPa | 2.6V | 08:30:00 | 01:38:54 | 00:00:00 | |
| DB0DAN | 2026-09-01 05:10:40 | 52.69849 | 8.32534 | 89° | 18km/h | 23723m | 5.4m/s | -50.8°C | 1% | 32.35hPa | 2.6V | 00:00:00 | 00:00:00 | 00:00:00 | |
| BIOWL1-15 | 2026-09-01 05:10:39 | 52.69849 | 8.32526 | 86° | 16km/h | 23716m | 6.3m/s | -50.8°C | 0.4% | 32.4hPa | 2.6V | 18:12:15 | 01:38:58 | 00:00:00 | |
| DL1XH-west | 2026-09-01 05:10:34 | 52.69845 | 8.32495 | 73° | 13km/h | 23688m | 6.3m/s | -50.7°C | 0.4% | 32.5hPa | 2.6V | 18:12:15 | 01:38:53 | 00:00:00 | |
| HSKMA3-T | 2026-09-01 05:10:32 | 52.69843 | 8.32486 | 73° | 11km/h | 23675m | 5.5m/s | -50.6°C | 0.4% | 32.6hPa | 2.7V | 18:12:15 | 01:38:51 | 00:00:00 | |
| AA1-15 | 2026-09-01 05:10:31 | 52.69843 | 8.32481 | 80° | 13km/h | 23669m | 6.8m/s | -50.6°C | 0.3% | 32.6hPa | 2.7V | 18:12:15 | 01:38:50 | 00:00:00 | |
| DO2JMG | 2026-09-01 05:10:30 | 52.69842 | 8.32475 | 81° | 16km/h | 23663m | 5.9m/s | -50.6°C | 0.4% | 32.6hPa | 2.6V | 18:12:15 | 01:38:49 | 00:00:00 | |
| DF8AY | 2026-09-01 05:10:29 | 52.69841 | 8.32468 | 83° | 18km/h | 23657m | 4.9m/s | -50.6°C | 0.4% | 32.7hPa | 2.6V | 18:12:15 | 01:38:48 | 00:00:00 | |
| BIOWL1-15 | 2026-09-01 05:10:28 | 52.69841 | 8.32461 | 85° | 16km/h | 23652m | 5.9m/s | -50.6°C | 0.3% | 32.7hPa | 2.6V | 18:12:15 | 01:38:47 | 00:00:00 | |
| DF4FW | 2026-09-01 05:10:28 | 52.69841 | 8.32461 | 85° | 16km/h | 23652m | 5.9m/s | -50.6°C | 0.9% | 32.7hPa | 2.7V | 00:00:00 | 00:00:00 | 00:00:00 | |
| DD1CC3-15 | 2026-09-01 05:10:27 | 52.69841 | 8.32461 | 85° | 16km/h | 23652m | 5.9m/s | -50.6°C | 1.0% | 32.7hPa | 2.7V | 00:00:00 | 00:00:00 | 00:00:00 | |
| DB0DAN | 2026-09-01 05:10:25 | 52.69840 | 8.32443 | 82° | 15km/h | 23634m | 6.7m/s | -50.8°C | 1% | 32.82hPa | 2.7V | 00:00:00 | 00:00:00 | 00:00:00 | |
| DL1XH-west | 2026-09-01 05:10:23 | 52.69838 | 8.32430 | 75° | 16km/h | 23622m | 4m/s | -50.9°C | 0.5% | 32.8hPa | 2.6V | 18:12:15 | 01:38:42 | 00:00:00 | |
| HSKMA3-T | 2026-09-01 05:10:22 | 52.69837 | 8.32424 | 72° | 15km/h | 23618m | 5.6m/s | -50.9°C | 0.5% | 32.9hPa | 2.6V | 18:12:15 | 01:38:41 | 00:00:00 | |
| GOEST3-10 | 2026-09-01 05:10:21 | 52.69836 | 8.32419 | 70° | 9km/h | 23612m | 6.2m/s | -50.8°C | 3.5% | 32.9hPa | 2.7V | 00:00:00 | 00:00:00 | 00:00:00 | |
| DL1XH1-15 | 2026-09-01 05:10:20 | 52.69841 | 8.32395 | 124° | 13km/h | 23578m | 5.9m/s | -50.9°C | 3.5% | 33.1hPa | 2.7V | 08:30:00 | 01:38:34 | 00:00:00 | |
| DO2JMG | 2026-09-01 05:10:20 | 52.69836 | 8.32416 | 77° | 7km/h | 23606m | 5.2m/s | -50.8°C | 0.5% | 32.9hPa | 2.7V | 18:12:15 | 01:38:39 | 00:00:00 | |
| BIOWL1-15 | 2026-09-01 05:10:17 | 52.69837 | 8.32404 | 118° | 15km/h | 23589m | 5.3m/s | -50.8°C | 0.4% | 33hPa | 2.6V | 18:12:15 | 01:38:36 | 00:00:00 | |
| DF8AY | 2026-09-01 05:10:16 | 52.69839 | 8.32399 | 122° | 15km/h | 23584m | 4.9m/s | -50.9°C | 0.5% | 33hPa | 2.7V | 18:12:15 | 01:38:35 | 00:00:00 | |
| DL1XH-west | 2026-09-01 05:10:13 | 52.69843 | 8.32388 | 107° | 7km/h | 23567m | 4.8m/s | -50.8°C | 0.5% | 33.1hPa | 2.6V | 18:12:15 | 01:38:32 | 00:00:00 | |
| HSKMA3-T | 2026-09-01 05:10:12 | 52.69844 | 8.32385 | 85° | 7km/h | 23562m | 5.5m/s | -50.8°C | 0.4% | 33.2hPa | 2.6V | 18:12:15 | 01:38:31 | 00:00:00 | |
| DO2JMG | 2026-09-01 05:10:10 | 52.69842 | 8.32376 | 68° | 15km/h | 23549m | 5.3m/s | -50.9°C | 0.5% | 33.2hPa | 2.7V | 18:12:15 | 01:38:29 | 00:00:00 | |
| AA1-15 | 2026-09-01 05:10:09 | 52.69840 | 8.32370 | 59° | 16km/h | 23544m | 5.1m/s | -50.9°C | 0.4% | 33.3hPa | 2.7V | 18:12:15 | 01:38:28 | 00:00:00 | |
| BIOWL1-15 | 2026-09-01 05:10:09 | 52.69835 | 8.32361 | 42° | 15km/h | 23532m | 5m/s | -50.9°C | 0.4% | 33.3hPa | 2.6V | 18:12:15 | 01:38:26 | 00:00:00 | |
| DF8AY | 2026-09-01 05:10:06 | 52.69833 | 8.32357 | 50° | 15km/h | 23527m | 5m/s | -50.8°C | 0.4% | 33.4hPa | 2.6V | 18:12:15 | 01:38:25 | 00:00:00 | |
| DO2SHX-10 | 2026-09-01 05:10:05 | 52.69831 | 8.32352 | 68° | 13km/h | 23521m | 6.8m/s | -50.7°C | 3.4% | 33.3hPa | 2.7V | 00:00:00 | 01:38:24 | 00:00:00 | |
| DL1XH-15 | 2026-09-01 05:10:03 | 52.69838 | 8.32323 | 140° | 13km/h | 23480m | 4.9m/s | -50.9°C | 3.5% | 33.6hPa | 2.7V | 08:30:00 | 01:38:17 | 00:00:00 | |
| DL1XH-west | 2026-09-01 05:10:03 | 52.69830 | 8.32341 | 95° | 13km/h | 23510m | 5.3m/s | -50.8°C | 0.3% | 33.4hPa | 2.7V | 18:12:15 | 01:38:22 | 00:00:00 | |
| HSKMA3-T | 2026-09-01 05:10:02 | 52.69830 | 8.32336 | 104° | 9km/h | 23504m | 6.9m/s | -50.8°C | 0.4% | 33.5hPa | 2.6V | 18:12:15 | 01:38:21 | 00:00:00 | |
| DO2JMG | 2026-09-01 05:10:00 | 52.69833 | 8.32330 | 140° | 11km/h | 23492m | 5.4m/s | -50.8°C | 0.4% | 33.6hPa | 2.6V | 18:12:15 | 01:38:19 | 00:00:00 | |
| AA1-15 | 2026-09-01 05:09:58 | 52.69838 | 8.32323 | 141° | 13km/h | 23480m | 4.9m/s | -50.9°C | 0.5% | 33.6hPa | 2.7V | 18:12:15 | 01:38:17 | 00:00:00 | |
| BIOWL1-15 | 2026-09-01 05:09:57 | 52.69840 | 8.32320 | 135° | 11km/h | 23475m | 4.5m/s | -50.9°C | 0.4% | 33.6hPa | 2.6V | 18:12:15 | 01:38:16 | 00:00:00 | |
| DF8AY | 2026-09-01 05:09:55 | 52.69842 | 8.32314 | 68° | 7km/h | 23464m | 5m/s | -50.9°C | 0.4% | 33.7hPa | 2.6V | 18:12:15 | 01:38:14 | 00:00:00 | |
| DB0DAN | 2026-09-01 05:09:55 | 52.69842 | 8.32314 | 68° | 7km/h | 23464m | 5m/s | -50.9°C | 1% | 33.69hPa | 2.6V | 00:00:00 | 00:00:00 | 00:00:00 | |
| DL1XH-west | 2026-09-01 05:09:52 | 52.69836 | 8.32300 | 60° | 18km/h | 23447m | 5.4m/s | -51°C | 0.4% | 33.8hPa | 2.7V | 18:12:15 | 01:38:11 | 00:00:00 | |
| HSKMA3-T | 2026-09-01 05:09:51 | 52.69834 | 8.32294 | 59° | 18km/h | 23442m | 4.9m/s | -51°C | 0.4% | 33.8hPa | 2.6V | 18:12:15 | 01:38:10 | 00:00:00 | |
| DB0NH | 2026-09-01 05:09:51 | 52.69834 | 8.32294 | 59° | 16km/h | 23442m | 4.8m/s | -50.9°C | 3.5% | 33.7hPa | 2.6V | 00:00:00 | 01:38:10 | 08:30:00 | |
| DL1XH1-15 | 2026-09-01 05:09:50 | 52.69827 | 8.32258 | 93° | 13km/h | 23408m | 5.9m/s | -51.4°C | 3.6% | 34hPa | 2.6V | 08:30:00 | 01:38:04 | 00:00:00 | |
| DO2JMG | 2026-09-01 05:09:49 | 52.69829 | 8.32282 | 58° | 16km/h | 23430m | 5.3m/s | -51.1°C | 0.4% | 33.9hPa | 2.6V | 18:12:15 | 01:38:08 | 00:00:00 | |
| AA1-15 | 2026-09-01 05:09:47 | 52.69826 | 8.32270 | 83° | 16km/h | 23419m | 6.4m/s | -51.3°C | 0.4% | 33.9hPa | 2.7V | 18:12:15 | 01:38:06 | 00:00:00 | |
| SONCRA | 2026-09-01 05:09:46 | 52.69826 | 8.32264 | 92° | 15km/h | 23413m | 4.7m/s | -51.3°C | 1.0% | 34.0hPa | 2.6V | 00:00:00 | 00:00:00 | 00:00:00 | |
| D01LWL | 2026-09-01 05:09:45 | 52.69827 | 8.32258 | 93° | 13km/h | 23408m | 5.9m/s | -51.4°C | 1.0% | 34.0hPa | 2.6V | 00:00:00 | 00:00:00 | 00:00:00 | |
| DO2SHX-10 | 2026-09-01 05:09:44 | 52.69827 | 8.32253 | 92° | 11km/h | 23402m | 6.0m/s | -51.3°C | 3.5% | 34.0hPa | 2.6V | 00:00:00 | 01:38:03 | 00:00:00 | |
| DL1XH-15 | 2026-09-01 05:09:43 | 52.69818 | 8.32225 | 34° | 16km/h | 23367m | 5.7m/s | -51.3°C | 3.6% | 34.2hPa | 2.6V | 08:30:00 | 01:37:57 | 00:00:00 | |
| DF8AY | 2026-09-01 05:09:43 | 52.69826 | 8.32249 | 81° | 9km/h | 23396m | 5m/s | -51.3°C | 0.5% | 34hPa | 2.7V | 18:12:15 | 01:38:02 | 00:00:00 | |
| DL1XH-west | 2026-09-01 05:09:41 | 52.69825 | 8.32239 | 69° | 13km/h | 23385m | 5.9m/s | -51.4°C | 0.5% | 34.1hPa | 2.7V | 18:12:15 | 01:38:00 | 00:00:00 | |
| DB0DAN | 2026-09-01 05:09:40 | 52.69823 | 8.32234 | 60° | 15km/h | 23380m | 5.2m/s | -51.3°C | 1% | 34.16hPa | 2.6V | 00:00:00 | 00:00:00 | 00:00:00 | |
| HSKMA3-T | 2026-09-01 05:09:40 | 52.69823 | 8.32234 | 60° | 15km/h | 23380m | 5.2m/s | -51.3°C | 0.5% | 34.2hPa | 2.6V | 18:12:15 | 01:37:59 | 00:00:00 | |
| DO2JMG | 2026-09-01 05:09:39 | 52.69821 | 8.32229 | 47° | 15km/h | 23374m | 6.6m/s | -51.4°C | 0.5% | 34.2hPa | 2.6V | 18:12:15 | 01:37:58 | 00:00:00 | |
| AA1-15 | 2026-09-01 05:09:37 | 52.69815 | 8.32221 | 33° | 16km/h | 23362m | 4.9m/s | -51.4°C | 0.5% | 34.2hPa | 2.7V | 18:12:15 | 01:37:56 | 00:00:00 | |
| BIOWL1-15 | 2026-09-01 05:09:36 | 52.69811 | 8.32217 | 37° | 18km/h | 23357m | 5.6m/s | -51.4°C | 0.5% | 34.3hPa | 2.7V | 18:12:15 | 01:37:55 | 00:00:00 | |
| DO2SHX-10 | 2026-09-01 05:09:35 | 52.69808 | 8.32212 | 47° | 22km/h | 23351m | 7.0m/s | -51.4°C | 3.6% | 34.2hPa | 2.6V | 00:00:00 | 01:37:54 | 00:00:00 | |
| SONDE2-11 | 2026-09-01 05:09:34 | 52.69804 | 8.32205 | 51° | 20km/h | 23345m | 5.3m/s | -51.4°C | 1.0% | 34.3hPa | 2.6V | 00:00:00 | 00:00:00 | 00:00:00 | |
| DL1XH-15 | 2026-09-01 05:09:33 | 52.69786 | 8.32175 | 33° | 16km/h | 23311m | 6m/s | -51.4°C | 3.6% | 34.5hPa | 2.6V | 08:30:00 | 01:37:47 | 00:00:00 | |
| DF8AY | 2026-09-01 05:09:32 | 52.69798 | 8.32191 | 52° | 18km/h | 23335m | 6.2m/s | -51.5°C | 0.5% | 34.4hPa | 2.7V | 18:12:15 | 01:37:51 | 00:00:00 | |
| DL1XH-west | 2026-09-01 05:09:30 | 52.69792 | 8.32182 | 35° | 15km/h | 23323m | 5.1m/s | -51.4°C | 0.6% | 34.4hPa | 2.7V | 18:12:15 | 01:37:49 | 00:00:00 | |
| DO2JMG | 2026-09-01 05:09:28 | 52.69786 | 8.32175 | 34° | 16km/h | 23312m | 6m/s | -51.4°C | 0.5% | 34.5hPa | 2.6V | 18:12:15 | 01:37:47 | 00:00:00 | |
| AA1-15 | 2026-09-01 05:09:26 | 52.69778 | 8.32169 | 20° | 16km/h | 23301m | 5.6m/s | -51.4°C | 0.5% | 34.5hPa | 2.7V | 18:12:15 | 01:37:45 | 00:00:00 | |
| BIOWL1-15 | 2026-09-01 05:09:25 | 52.69774 | 8.32167 | 13° | 18km/h | 23295m | 6.5m/s | -51.4°C | 0.5% | 34.6hPa | 2.7V | 18:12:15 | 01:37:44 | 00:00:00 | |
| DB0DAN | 2026-09-01 05:09:25 | 52.69774 | 8.32167 | 13° | 16km/h | 23295m | 6.5m/s | -51.4°C | 1% | 34.59hPa | 2.7V | 00:00:00 | 00:00:00 | 00:00:00 | |
| DO2SHX-10 | 2026-09-01 05:09:25 | 52.69774 | 8.32167 | 13° | 18km/h | 23296m | 6.4m/s | -51.3°C | 3.6% | 34.5hPa | 2.6V | 00:00:00 | 01:37:44 | 00:00:00 | |
| DL8DAS-14 | 2026-09-01 05:09:24 | 52.69765 | 8.32163 | 21° | 18km/h | 23284m | 5.2m/s | -51.3°C | 1.0% | 34.7hPa | 2.6V | 00:00:00 | 00:00:00 | 00:00:00 | |
| DL1XH-15 | 2026-09-01 05:09:24 | 52.69750 | 8.32137 | 54° | 11km/h | 23256m | 5.8m/s | -51.2°C | 3.6% | 34.8hPa | 2.6V | 08:30:00 | 01:37:37 | 00:00:00 | |
| AM1SDL-15 | 2026-09-01 05:09:23 | 52.69765 | 8.32163 | 22° | 13km/h | 23285m | 5.1m/s | -51.3°C | 3.6% | 34.6hPa | 2.6V | 00:00:00 | 01:37:42 | 00:00:00 | |
| DO2SHX-10 | 2026-09-01 05:09:22 | 52.69761 | 8.32159 | 35° | 18km/h | 23278m | 6.5m/s | -51.2°C | 3.6% | 34.6hPa | 2.6V | 00:00:00 | 01:37:41 | 08:30:00 | |
| DB0NH | 2026-09-01 05:09:21 | 52.69757 | 8.32154 | 50° | 7km/h | 23273m | 5.1m/s | -51.2°C | 3.5% | 34.7hPa | 2.7V | 00:00:00 | 01:37:40 | 00:00:00 | |
| DL1XH1-15 | 2026-09-01 05:09:20 | 52.69746 | 8.32126 | 52° | 11km/h | 23239m | 5.7m/s | -51.2°C | 3.5% | 34.9hPa | 2.7V | 08:30:00 | 01:37:34 | 00:00:00 | |
| DF8AY | 2026-09-01 05:09:20 | 52.69754 | 8.32147 | 56° | 18km/h | 23267m | 5.2m/s | -51.3°C | 0.5% | 34.7hPa | 2.7V | 18:12:15 | 01:37:39 | 00:00:00 | |
| DL1XH-west | 2026-09-01 05:09:19 | 52.69752 | 8.32142 | 59° | 15km/h | 23262m | 6.1m/s | -51.3°C | 0.5% | 34.8hPa | 2.7V | 18:12:15 | 01:37:38 | 00:00:00 | |
| DO2JMG | 2026-09-01 05:09:17 | 52.69749 | 8.32133 | 54° | 9km/h | 23250m | 5.1m/s | -51.3°C | 0.5% | 34.8hPa | 2.6V | 18:12:15 | 01:37:36 | 00:00:00 | |
| AA1-15 | 2026-09-01 05:09:16 | 52.69747 | 8.32130 | 53° | 11km/h | 23245m | 6.5m/s | -51.3°C | 0.4% | 34.9hPa | 2.6V | 18:12:15 | 01:37:35 | 00:00:00 | |
| BIOWL1-15 | 2026-09-01 05:09:14 | 52.69744 | 8.32123 | 44° | 9km/h | 23233m | 4.8m/s | -51.2°C | 0.4% | 35hPa | 2.7V | 18:12:15 | 01:37:33 | 00:00:00 | |
| DK5PH-5 | 2026-09-01 05:09:14 | 52.69744 | 8.32123 | 45° | 7km/h | 23234m | 4.7m/s | -51.2°C | 3.5% | 34.9hPa | 2.7V | 00:00:00 | 01:37:33 | 00:00:00 | |
| DO2SHX-10 | 2026-09-01 05:09:13 | 52.69742 | 8.32121 | 30° | 7km/h | 23228m | 6.3m/s | -51.2°C | 3.5% | 34.9hPa | 2.6V | 00:00:00 | 01:37:32 | 00:00:00 | |
| DL4BBY-15 | 2026-09-01 05:09:12 | 52.69740 | 8.32120 | 6° | 7km/h | 23221m | 6.2m/s | -53.8°C | 0% | 0hPa | 2.6V | 00:00:00 | 00:00:00 | 00:00:00 | |
| DL3AQ-11 | 2026-09-01 05:09:11 | 52.69737 | 8.32120 | 10° | 5km/h | 23210m | 6.7m/s | -51.3°C | 1.0% | 35.0hPa | 2.6V | 00:00:00 | 00:00:00 | 00:00:00 | |
| DL1XH1-15 | 2026-09-01 05:09:10 | 52.69733 | 8.32109 | 80° | 4km/h | 23182m | 5.5m/s | -51.4°C | 3.6% | 35.2hPa | 2.6V | 08:30:00 | 01:37:24 | 00:00:00 | |
| DF8AY | 2026-09-01 05:09:10 | 52.69737 | 8.32120 | 11° | 7km/h | 23210m | 6.7m/s | -51.3°C | 0.5% | 35hPa | 2.7V | 18:12:15 | 01:37:29 | 00:00:00 | |
| DL1XH-west | 2026-09-01 05:09:09 | 52.69736 | 8.32119 | 38° | 7km/h | 23204m | 5.6m/s | -51.3°C | 0.4% | 35.1hPa | 2.7V | 18:12:15 | 01:37:28 | 00:00:00 | |
| HSKMA3-T | 2026-09-01 05:09:08 | 52.69735 | 8.32116 | 58° | 7km/h | 23199m | 4.5m/s | -51.3°C | 0.5% | 35.1hPa | 2.7V | 18:12:15 | 01:37:27 | 00:00:00 | |
| DO2JMG | 2026-09-01 05:09:07 | 52.69734 | 8.32113 | 71° | 7km/h | 23194m | 5.2m/s | -51.4°C | 0.5% | 35.1hPa | 2.6V | 18:12:15 | 01:37:26 | 00:00:00 | |
| AA1-15 | 2026-09-01 05:09:05 | 52.69733 | 8.32109 | 81° | 4km/h | 23182m | 5.5m/s | -51.4°C | 0.5% | 35.2hPa | 2.6V | 18:12:15 | 01:37:24 | 00:00:00 | |
| BIOWL1-15 | 2026-09-01 05:09:03 | 52.69732 | 8.32106 | 57° | 5km/h | 23172m | 6.7m/s | -51.4°C | 0.5% | 35.2hPa | 2.7V | 18:12:15 | 01:37:22 | 00:00:00 | |
| DO9LL-15 | 2026-09-01 05:09:03 | 52.69732 | 8.32106 | 57° | 7km/h | 23172m | 6.7m/s | -51.4°C | 3.6% | 35.2hPa | 2.7V | 00:00:00 | 01:37:22 | 00:00:00 | |
| DO2LYB-13 | 2026-09-01 05:09:02 | 52.69732 | 8.32106 | 58° | 5km/h | 23172m | 6.7m/s | -51.4°C | 1.0% | 35.2hPa | 2.6V | 00:00:00 | 00:00:00 | 00:00:00 | |
| DO2SHX-10 | 2026-09-01 05:09:01 | 52.69731 | 8.32103 | 72° | 4km/h | 23161m | 4.3m/s | -51.4°C | 3.6% | 35.3hPa | 2.6V | 00:00:00 | 01:37:20 | 00:00:00 | |
| DL1XH1-15 | 2026-09-01 05:09:00 | 52.69737 | 8.32102 | 144° | 7km/h | 23128m | 5.1m/s | -51.4°C | 3.6% | 35.5hPa | 2.6V | 08:30:00 | 01:37:14 | 00:00:00 | |
| DL1XH-west | 2026-09-01 05:08:58 | 52.69733 | 8.32102 | 204° | 5km/h | 23144m | 4.9m/s | -51.4°C | 0.5% | 35.4hPa | 2.6V | 18:12:15 | 01:37:17 | 00:00:00 | |
| HSKMA3-T | 2026-09-01 05:08:57 | 52.69734 | 8.32103 | 195° | 5km/h | 23139m | 5.5m/s | -51.4°C | 0.5% | 35.4hPa | 2.7V | 18:12:15 | 01:37:16 | 00:00:00 | |
| DO2JMG | 2026-09-01 05:08:56 | 52.69736 | 8.32103 | 164° | 5km/h | 23133m | 6m/s | -51.4°C | 0.5% | 35.5hPa | 2.7V | 18:12:15 | 01:37:15 | 00:00:00 | |
| DB0DAN | 2026-09-01 05:08:55 | 52.69737 | 8.32102 | 144° | 7km/h | 23128m | 5.1m/s | -51.5°C | 1% | 35.5hPa | 2.6V | 00:00:00 | 00:00:00 | 00:00:00 | |
| AA1-15 | 2026-09-01 05:08:54 | 52.69739 | 8.32100 | 138° | 9km/h | 23123m | 5.1m/s | -51.5°C | 0.5% | 35.5hPa | 2.6V | 18:12:15 | 01:37:13 | 00:00:00 | |
| DF4FW | 2026-09-01 05:08:53 | 52.69739 | 8.32100 | 139° | 9km/h | 23123m | 5.1m/s | -51.5°C | 1.0% | 35.5hPa | 2.6V | 00:00:00 | 00:00:00 | 00:00:00 | |
| DO2SHX-10 | 2026-09-01 05:08:52 | 52.69742 | 8.32096 | 154° | 7km/h | 23111m | 5.2m/s | -51.5°C | 3.6% | 35.5hPa | 2.6V | 00:00:00 | 01:37:11 | 00:00:00 | |
| BIOWL1-15 | 2026-09-01 05:08:52 | 52.69742 | 8.32096 | 153° | 9km/h | 23111m | 5.2m/s | -51.5°C | 0.5% | 35.6hPa | 2.7V | 18:12:15 | 01:37:11 | 00:00:00 | |
| GOEST3-10 | 2026-09-01 05:08:51 | 52.69744 | 8.32094 | 144° | 9km/h | 23107m | 4.7m/s | -51.5°C | 3.6% | 35.6hPa | 2.6V | 00:00:00 | 00:00:00 | 00:00:00 | |
| DD8BA-10 | 2026-09-01 05:08:50 | 52.69745 | 8.32092 | 116° | 9km/h | 23101m | 6.6m/s | -51.5°C | 3.6% | 35.6hPa | 2.6V | 00:00:00 | 00:00:00 | 00:00:00 | |
| DM0DOS-11 | 2026-09-01 05:08:49 | 52.69749 | 8.32074 | 106° | 11km/h | 23073m | 5.1m/s | -51.6°C | 3.6% | 35.8hPa | 2.6V | 08:30:00 | 01:37:04 | 00:00:00 | |
| DL1XH-west | 2026-09-01 05:08:48 | 52.69746 | 8.32085 | 102° | 9km/h | 23089m | 5.1m/s | -51.6°C | 0.5% | 35.7hPa | 2.7V | 18:12:15 | 01:37:07 | 00:00:00 | |
| DF8AY | 2026-09-01 05:08:47 | 52.69747 | 8.32081 | 113° | 9km/h | 23083m | 6.4m/s | -51.6°C | 0.5% | 35.7hPa | 2.7V | 18:12:15 | 01:37:06 | 00:00:00 | |
| HSKMA3-T | 2026-09-01 05:08:46 | 52.69748 | 8.32078 | 117° | 9km/h | 23078m | 4.8m/s | -51.6°C | 0.5% | 35.8hPa | 2.7V | 18:12:15 | 01:37:05 | 00:00:00 | |
| DO2JMG | 2026-09-01 05:08:45 | 52.69749 | 8.32074 | 106° | 11km/h | 23073m | 5.1m/s | -51.6°C | 0.5% | 35.9hPa | 2.6V | 18:12:15 | 01:37:04 | 00:00:00 | |
| SONCRA | 2026-09-01 05:08:44 | 52.69749 | 8.32069 | 94° | 11km/h | 23067m | 6.5m/s | -51.6°C | 1.0% | 35.8hPa | 2.6V | 00:00:00 | 00:00:00 | 00:00:00 | |
| AA1-15 | 2026-09-01 05:08:43 | 52.69749 | 8.32065 | 82° | 11km/h | 23061m | 5.4m/s | -51.6°C | 0.5% | 35.9hPa | 2.6V | 18:12:15 | 01:37:02 | 00:00:00 | |
| BIOWL1-15 | 2026-09-01 05:08:42 | 52.69749 | 8.32060 | 83° | 11km/h | 23056m | 4.9m/s | -51.6°C | 0.5% | 35.9hPa | 2.6V | 18:12:15 | 01:37:01 | 00:00:00 | |
| DL4BBY-15 | 2026-09-01 05:08:42 | 52.69749 | 8.32060 | 83° | 15km/h | 23055m | 4.9m/s | -54.1°C | 0% | 0hPa | 2.7V | 00:00:00 | 00:00:00 | 00:00:00 | |
| GOEST3-10 | 2026-09-01 05:08:41 | 52.69749 | 8.32057 | 91° | 9km/h | 23050m | 6.4m/s | -51.6°C | 3.6% | 35.9hPa | 2.7V | 00:00:00 | 00:00:00 | 08:30:00 | |
| DL1XH1-15 | 2026-09-01 05:08:40 | 52.69745 | 8.32035 | 85° | 11km/h | 23017m | 6.1m/s | -51.6°C | 3.6% | 36.1hPa | 2.7V | 08:30:00 | 01:36:54 | 00:00:00 | |
| DL1XH-west | 2026-09-01 05:08:37 | 52.69747 | 8.32044 | 67° | 13km/h | 23028m | 5.4m/s | -51.6°C | 0.5% | 36hPa | 2.6V | 18:12:15 | 01:36:56 | 00:00:00 | |
| HSKMA3-T | 2026-09-01 05:08:36 | 52.69746 | 8.32040 | 75° | 13km/h | 23023m | 5.3m/s | -51.6°C | 0.5% | 36.1hPa | 2.6V | 18:12:15 | 01:36:55 | 00:00:00 | |
| DF8AY | 2026-09-01 05:08:35 | 52.69745 | 8.32035 | 85° | 11km/h | 23017m | 6.1m/s | -51.6°C | 0.5% | 36.1hPa | 2.7V | 18:12:15 | 01:36:54 | 00:00:00 | |
| DO2JMG | 2026-09-01 05:08:34 | 52.69745 | 8.32030 | 89° | 13km/h | 23012m | 4.3m/s | -51.7°C | 0.5% | 36.1hPa | 2.7V | 18:12:15 | 01:36:53 | 00:00:00 | |
| DO2SHX-10 | 2026-09-01 05:08:34 | 52.69745 | 8.32030 | 89° | 16km/h | 23013m | 4.3m/s | -51.6°C | 3.6% | 36.1hPa | 2.7V | 00:00:00 | 01:36:53 | 00:00:00 | |
| DL1XH-15 | 2026-09-01 05:08:33 | 52.69740 | 8.31992 | 53° | 9km/h | 22979m | 4.8m/s | -51.7°C | 3.6% | 36.3hPa | 2.7V | 08:30:00 | 01:36:47 | 00:00:00 | |
| BIOWL1-15 | 2026-09-01 05:08:32 | 52.69744 | 8.32017 | 81° | 18km/h | 23001m | 6m/s | -51.7°C | 0.5% | 36.2hPa | 2.6V | 18:12:15 | 01:36:51 | 00:00:00 | |
| DO2SHX-10 | 2026-09-01 05:08:31 | 52.69743 | 8.32009 | 77° | 16km/h | 22996m | 5.0m/s | -51.6°C | 3.6% | 36.2hPa | 2.6V | 00:00:00 | 01:36:50 | 00:00:00 | |
| DL1XH1-15 | 2026-09-01 05:08:30 | 52.69733 | 8.31984 | 28° | 11km/h | 22963m | 4.7m/s | -51.9°C | 3.6% | 36.4hPa | 2.6V | 08:30:00 | 01:36:44 | 00:00:00 | |
| DL1XH-west | 2026-09-01 05:08:26 | 52.69736 | 8.31986 | 35° | 13km/h | 22968m | 5.8m/s | -51.8°C | 0.5% | 36.4hPa | 2.6V | 18:12:15 | 01:36:45 | 00:00:00 | |
| DF8AY | 2026-09-01 05:08:25 | 52.69733 | 8.31984 | 29° | 11km/h | 22963m | 4.7m/s | -51.9°C | 0.4% | 36.4hPa | 2.6V | 18:12:15 | 01:36:44 | 00:00:00 | |
| DO2JMG | 2026-09-01 05:08:24 | 52.69731 | 8.31982 | 19° | 11km/h | 22957m | 6.3m/s | -52°C | 0.5% | 36.4hPa | 2.7V | 18:12:15 | 01:36:43 | 00:00:00 | |
| DL1XH-15 | 2026-09-01 05:08:23 | 52.69713 | 8.31957 | 46° | 26km/h | 22926m | 5.2m/s | -51.9°C | 3.7% | 36.6hPa | 2.7V | 08:30:00 | 01:36:37 | 00:00:00 | |
| AA1-15 | 2026-09-01 05:08:22 | 52.69726 | 8.31979 | 28° | 11km/h | 22947m | 4.6m/s | -51.9°C | 0.5% | 36.5hPa | 2.6V | 18:12:15 | 01:36:41 | 00:00:00 | |
| BIOWL1-15 | 2026-09-01 05:08:21 | 52.69724 | 8.31976 | 42° | 15km/h | 22942m | 5.5m/s | -51.9°C | 0.5% | 36.6hPa | 2.6V | 18:12:15 | 01:36:40 | 00:00:00 | |
| GOEST3-10 | 2026-09-01 05:08:21 | 52.69723 | 8.31976 | 42° | 20km/h | 22942m | 5.5m/s | -51.9°C | 3.6% | 36.5hPa | 2.6V | 00:00:00 | 00:00:00 | 00:00:00 | |
| DL1XH1-15 | 2026-09-01 05:08:20 | 52.69701 | 8.31939 | 39° | 20km/h | 22910m | 4.3m/s | -51.9°C | 3.6% | 36.7hPa | 2.6V | 08:30:00 | 01:36:34 | 00:00:00 | |
| DL1XH-west | 2026-09-01 05:08:16 | 52.69705 | 8.31945 | 39° | 20km/h | 22915m | 4.5m/s | -51.9°C | 0.6% | 36.7hPa | 2.6V | 18:12:15 | 01:36:35 | 00:00:00 | |
| HSKMA3-T | 2026-09-01 05:08:15 | 52.69701 | 8.31939 | 39° | 20km/h | 22910m | 4.3m/s | -51.9°C | 0.5% | 36.7hPa | 2.6V | 18:12:15 | 01:36:34 | 00:00:00 | |
| DF8AY | 2026-09-01 05:08:14 | 52.69697 | 8.31934 | 42° | 18km/h | 22905m | 6.3m/s | -51.9°C | 0.5% | 36.8hPa | 2.6V | 18:12:15 | 01:36:33 | 00:00:00 | |
| DO2JMG | 2026-09-01 05:08:13 | 52.69693 | 8.31929 | 41° | 18km/h | 22899m | 5.6m/s | -52°C | 0.5% | 36.8hPa | 2.7V | 18:12:15 | 01:36:32 | 00:00:00 | |
| DO2SHX-10 | 2026-09-01 05:08:13 | 52.69693 | 8.31929 | 42° | 18km/h | 22900m | 5.6m/s | -51.9°C | 3.7% | 36.8hPa | 2.6V | 00:00:00 | 01:36:32 | 00:00:00 | |
| DL4BBY-15 | 2026-09-01 05:08:12 | 52.69690 | 8.31925 | 34° | 16km/h | 22895m | 4.4m/s | -54.5°C | 0% | 0hPa | 2.6V | 00:00:00 | 00:00:00 | 00:00:00 | |
| DF4FW | 2026-09-01 05:08:11 | 52.69690 | 8.31925 | 34° | 18km/h | 22894m | 4.5m/s | -52.0°C | 1.1% | 36.8hPa | 2.6V | 00:00:00 | 00:00:00 | 00:00:00 | |
| AA1-15 | 2026-09-01 05:08:11 | 52.69686 | 8.31921 | 22° | 16km/h | 22889m | 5.5m/s | -52°C | 0.7% | 36.9hPa | 2.6V | 18:12:15 | 01:36:30 | 00:00:00 | |
| DL1XH1-15 | 2026-09-01 05:08:10 | 52.69665 | 8.31926 | 11° | 15km/h | 22856m | 4.9m/s | -52°C | 3.7% | 37hPa | 2.6V | 08:30:00 | 01:36:24 | 00:00:00 | |
| DL1XH-west | 2026-09-01 05:08:05 | 52.69665 | 8.31926 | 12° | 15km/h | 22856m | 4.9m/s | -52°C | 0.6% | 37.1hPa | 2.6V | 18:12:15 | 01:36:24 | 00:00:00 | |
| DO2JMG | 2026-09-01 05:08:03 | 52.69657 | 8.31923 | 13° | 20km/h | 22845m | 5.8m/s | -52°C | 0.5% | 37.1hPa | 2.6V | 18:12:15 | 01:36:22 | 00:00:00 | |
| AA1-15 | 2026-09-01 05:08:01 | 52.69646 | 8.31917 | 25° | 24km/h | 22833m | 6.8m/s | -52.1°C | 0.5% | 37.2hPa | 2.7V | 18:12:15 | 01:36:20 | 00:00:00 | |
| BIOWL1-15 | 2026-09-01 05:08:00 | 52.69641 | 8.31913 | 27° | 24km/h | 22827m | 4.9m/s | -52°C | 0.6% | 37.2hPa | 2.6V | 18:12:15 | 01:36:19 | 00:00:00 | |
| HSKMA3-T | 2026-09-01 05:07:55 | 52.69620 | 8.31913 | 307° | 13km/h | 22802m | 5.8m/s | -52.2°C | 0.7% | 37.3hPa | 2.7V | 18:12:15 | 01:36:14 | 00:00:00 | |
| DO2JMG | 2026-09-01 05:07:52 | 52.69618 | 8.31922 | 302° | 4km/h | 22786m | 4.1m/s | -52.1°C | 0.5% | 37.5hPa | 2.6V | 18:12:15 | 01:36:11 | 00:00:00 | |
| DL3AQ-11 | 2026-09-01 05:07:51 | 52.69615 | 8.31922 | 10° | 9km/h | 22776m | 5.5m/s | -52.0°C | 1.1% | 37.5hPa | 2.7V | 00:00:00 | 00:00:00 | 00:00:00 | |
| DD8BA-10 | 2026-09-01 05:07:50 | 52.69615 | 8.31922 | 11° | 16km/h | 22776m | 5.5m/s | -52.0°C | 3.8% | 37.5hPa | 2.7V | 00:00:00 | 00:00:00 | 00:00:00 | |
| BIOWL1-15 | 2026-09-01 05:07:50 | 52.69615 | 8.31922 | 11° | 11km/h | 22776m | 5.5m/s | -52°C | 0.6% | 37.5hPa | 2.7V | 18:12:15 | 01:36:09 | 00:00:00 | |
| DO2SHX-10 | 2026-09-01 05:07:49 | 52.69612 | 8.31921 | 22° | 16km/h | 22771m | 4.5m/s | -52.0°C | 3.8% | 37.5hPa | 2.7V | 00:00:00 | 01:36:08 | 00:00:00 | |
| DM0DOS-11 | 2026-09-01 05:07:48 | 52.69596 | 8.31905 | 25° | 20km/h | 22748m | 6.2m/s | -52°C | 3.7% | 37.6hPa | 2.7V | 08:30:00 | 01:36:04 | 00:00:00 | |
| DL1XH-west | 2026-09-01 05:07:45 | 52.69596 | 8.31905 | 25° | 20km/h | 22748m | 6.2m/s | -52°C | 0.6% | 37.7hPa | 2.7V | 18:12:15 | 01:36:04 | 00:00:00 | |
| BIOWL9-15 | 2026-09-01 05:07:44 | 52.69587 | 8.31901 | 2° | 16km/h | 22738m | 3.7m/s | -52.0°C | 1.1% | 37.7hPa | 2.7V | 00:00:00 | 00:00:00 | 00:00:00 | |
| DL1XH-15 | 2026-09-01 05:07:43 | 52.69575 | 8.31904 | 293° | 7km/h | 22712m | 5.3m/s | -52°C | 3.7% | 37.9hPa | 2.7V | 08:30:00 | 01:35:57 | 00:00:00 | |
| BIOWL1-15 | 2026-09-01 05:07:42 | 52.69577 | 8.31902 | 352° | 7km/h | 22722m | 5.2m/s | -51.9°C | 0.5% | 37.8hPa | 2.6V | 18:12:15 | 01:35:59 | 00:00:00 | |
| DO2JMG | 2026-09-01 05:07:42 | 52.69583 | 8.31901 | 359° | 15km/h | 22734m | 5.5m/s | -52°C | 0.6% | 37.8hPa | 2.6V | 18:12:15 | 01:36:01 | 00:00:00 | |
| DF8AY | 2026-09-01 05:07:41 | 52.69579 | 8.31901 | 356° | 11km/h | 22728m | 5.9m/s | -51.9°C | 0.6% | 37.8hPa | 2.6V | 18:12:15 | 01:36:00 | 00:00:00 | |
| DB0DAN | 2026-09-01 05:07:40 | 52.69577 | 8.31902 | 352° | 5km/h | 22722m | 5.2m/s | -51.9°C | 1% | 37.82hPa | 2.6V | 00:00:00 | 00:00:00 | 00:00:00 | |
| AA1-15 | 2026-09-01 05:07:39 | 52.69576 | 8.31902 | 322° | 5km/h | 22717m | 5m/s | -52°C | 0.5% | 37.9hPa | 2.7V | 18:12:15 | 01:35:58 | 00:00:00 | |
| DL1XH-west | 2026-09-01 05:07:34 | 52.69571 | 8.31918 | 322° | 7km/h | 22691m | 6m/s | -51.9°C | 0.5% | 38hPa | 2.6V | 18:12:15 | 01:35:53 | 00:00:00 | |
| DO2JMG | 2026-09-01 05:07:32 | 52.69567 | 8.31919 | 7° | 9km/h | 22680m | 4.9m/s | -51.9°C | 0.6% | 38.1hPa | 2.7V | 18:12:15 | 01:35:51 | 00:00:00 | |
| BIOWL1-15 | 2026-09-01 05:07:32 | 52.69562 | 8.31919 | 351° | 13km/h | 22670m | 4.9m/s | -51.9°C | 0.6% | 38.1hPa | 2.6V | 18:12:15 | 01:35:49 | 00:00:00 | |
| DF8AY | 2026-09-01 05:07:31 | 52.69565 | 8.31918 | 360° | 11km/h | 22675m | 6.2m/s | -51.9°C | 0.6% | 38.1hPa | 2.6V | 18:12:15 | 01:35:50 | 00:00:00 | |
| AA1-15 | 2026-09-01 05:07:28 | 52.69556 | 8.31921 | 352° | 9km/h | 22660m | 5.9m/s | -51.8°C | 0.6% | 38.2hPa | 2.7V | 18:12:15 | 01:35:47 | 00:00:00 | |
| DO3DL | 2026-09-01 05:07:28 | 52.69556 | 8.31921 | 353° | 9km/h | 22660m | 5.9m/s | -51.8°C | 1.1% | 38.2hPa | 2.6V | 00:00:00 | 00:00:00 | 00:00:00 | |
| DB0DAN | 2026-09-01 05:07:25 | 52.69553 | 8.31923 | 262° | 5km/h | 22644m | 5.9m/s | -51.7°C | 1% | 38.31hPa | 2.6V | 00:00:00 | 00:00:00 | 00:00:00 | |
| DL1XH-west | 2026-09-01 05:07:23 | 52.69554 | 8.31931 | 251° | 11km/h | 22633m | 4.4m/s | -51.7°C | 0.5% | 38.4hPa | 2.7V | 18:12:15 | 01:35:42 | 00:00:00 | |
| DO2JMG | 2026-09-01 05:07:21 | 52.69556 | 8.31938 | 236° | 9km/h | 22621m | 5.4m/s | -51.6°C | 0.5% | 38.5hPa | 2.6V | 18:12:15 | 01:35:40 | 00:00:00 | |
| DF8AY | 2026-09-01 05:07:20 | 52.69558 | 8.31941 | 241° | 7km/h | 22617m | 3.9m/s | -51.6°C | 0.5% | 38.5hPa | 2.6V | 18:12:15 | 01:35:39 | 00:00:00 | |
| BIOWL1-15 | 2026-09-01 05:07:19 | 52.69558 | 8.31945 | 252° | 9km/h | 22611m | 6.5m/s | -51.6°C | 0.6% | 38.5hPa | 2.6V | 18:12:15 | 01:35:38 | 00:00:00 | |
| AA1-15 | 2026-09-01 05:07:17 | 52.69560 | 8.31951 | 249° | 5km/h | 22601m | 5.1m/s | -51.6°C | 0.5% | 38.6hPa | 2.7V | 18:12:15 | 01:35:36 | 00:00:00 | |
| DL1XH-west | 2026-09-01 05:07:12 | 52.69559 | 8.31951 | 19° | 4km/h | 22572m | 5.4m/s | -51.5°C | 0.4% | 38.7hPa | 2.6V | 18:12:15 | 01:35:31 | 00:00:00 | |
| BIOWL1-15 | 2026-09-01 05:07:11 | 52.69558 | 8.31948 | 47° | 2km/h | 22556m | 4.2m/s | -51.5°C | 0.5% | 38.8hPa | 2.6V | 18:12:15 | 01:35:28 | 00:00:00 | |
| DO2JMG | 2026-09-01 05:07:11 | 52.69558 | 8.31950 | 47° | 4km/h | 22566m | 6.7m/s | -51.5°C | 0.5% | 38.8hPa | 2.7V | 18:12:15 | 01:35:30 | 00:00:00 | |
| DB0DAN | 2026-09-01 05:07:10 | 52.69558 | 8.31949 | 63° | 4km/h | 22560m | 5m/s | -51.4°C | 1% | 38.79hPa | 2.7V | 00:00:00 | 00:00:00 | 00:00:00 | |
| DF8AY | 2026-09-01 05:07:10 | 52.69558 | 8.31949 | 63° | 4km/h | 22560m | 5m/s | -51.4°C | 0.5% | 38.8hPa | 2.7V | 18:12:15 | 01:35:29 | 00:00:00 | |
| AA1-15 | 2026-09-01 05:07:06 | 52.69557 | 8.31951 | 255° | 5km/h | 22540m | 4.1m/s | -51.5°C | 0.5% | 38.9hPa | 2.7V | 18:12:15 | 01:35:25 | 00:00:00 | |
| DL1XH-west | 2026-09-01 05:07:02 | 52.69563 | 8.31949 | 133° | 13km/h | 22520m | 4.6m/s | -51.6°C | 0.5% | 39hPa | 2.6V | 18:12:15 | 01:35:21 | 00:00:00 | |
| HSKMA3-T | 2026-09-01 05:07:01 | 52.69565 | 8.31945 | 122° | 11km/h | 22514m | 5.6m/s | -51.6°C | 0.5% | 39hPa | 2.6V | 18:12:15 | 01:35:20 | 00:00:00 | |
| DO2JMG | 2026-09-01 05:07:00 | 52.69566 | 8.31942 | 112° | 9km/h | 22509m | 5.6m/s | -51.5°C | 0.5% | 39.1hPa | 2.7V | 18:12:15 | 01:35:19 | 00:00:00 | |
| DF8AY | 2026-09-01 05:06:59 | 52.69567 | 8.31939 | 95° | 5km/h | 22504m | 4.1m/s | -51.5°C | 0.5% | 39.1hPa | 2.7V | 18:12:15 | 01:35:18 | 00:00:00 | |
| BIOWL1-15 | 2026-09-01 05:06:58 | 52.69567 | 8.31936 | 96° | 5km/h | 22499m | 5.2m/s | -51.6°C | 0.5% | 39.2hPa | 2.6V | 18:12:15 | 01:35:17 | 00:00:00 | |
| HTAHTA | 2026-09-01 05:06:57 | 52.69568 | 8.31931 | 97° | 7km/h | 22489m | 5.1m/s | -51.6°C | 1.0% | 39.2hPa | 2.7V | 00:00:00 | 00:00:00 | 00:00:00 | |
| DF7PN | 2026-09-01 05:06:56 | 52.69568 | 8.31927 | 81° | 7km/h | 22484m | 4.6m/s | -51.6°C | 1.0% | 39.2hPa | 2.7V | 00:00:00 | 00:00:00 | 00:00:00 | |
| DB0DAN | 2026-09-01 05:06:55 | 52.69568 | 8.31927 | 81° | 7km/h | 22484m | 4.6m/s | -51.6°C | 1% | 39.23hPa | 2.7V | 00:00:00 | 00:00:00 | 00:00:00 | |
| AA1-15 | 2026-09-01 05:06:55 | 52.69568 | 8.31927 | 81° | 9km/h | 22484m | 4.6m/s | -51.6°C | 0.4% | 39.2hPa | 2.7V | 18:12:15 | 01:35:14 | 00:00:00 | |
| DO2SHX-10 | 2026-09-01 05:06:55 | 52.69568 | 8.31927 | 82° | 9km/h | 22484m | 4.6m/s | -51.5°C | 3.5% | 39.2hPa | 2.7V | 00:00:00 | 01:35:14 | 00:00:00 | |
| AM1SDL-15 | 2026-09-01 05:06:54 | 52.69567 | 8.31924 | 61° | 20km/h | 22478m | 6.7m/s | -51.5°C | 3.5% | 39.2hPa | 2.7V | 00:00:00 | 01:35:13 | 00:00:00 | |
| DL1XH-15 | 2026-09-01 05:06:53 | 52.69568 | 8.31887 | 110° | 20km/h | 22449m | 5.9m/s | -51.6°C | 3.5% | 39.5hPa | 2.7V | 08:30:00 | 01:35:07 | 00:00:00 | |
| DL1XH-west | 2026-09-01 05:06:52 | 52.69564 | 8.31915 | 74° | 13km/h | 22468m | 4.2m/s | -51.6°C | 0.5% | 39.4hPa | 2.6V | 18:12:15 | 01:35:11 | 00:00:00 | |
| DO2JMG | 2026-09-01 05:06:50 | 52.69565 | 8.31903 | 104° | 18km/h | 22458m | 4.7m/s | -51.6°C | 0.4% | 39.4hPa | 2.6V | 18:12:15 | 01:35:09 | 00:00:00 | |
| DF8AY | 2026-09-01 05:06:49 | 52.69566 | 8.31895 | 110° | 20km/h | 22454m | 3.7m/s | -51.6°C | 0.5% | 39.4hPa | 2.7V | 18:12:15 | 01:35:08 | 00:00:00 | |
| BIOWL1-15 | 2026-09-01 05:06:47 | 52.69569 | 8.31879 | 107° | 20km/h | 22443m | 5.7m/s | -51.7°C | 0.5% | 39.5hPa | 2.6V | 18:12:15 | 01:35:06 | 00:00:00 | |
| AA1-15 | 2026-09-01 05:06:44 | 52.69573 | 8.31855 | 107° | 22km/h | 22428m | 5.9m/s | -51.8°C | 0.6% | 39.6hPa | 2.7V | 18:12:15 | 01:35:03 | 00:00:00 | |
| DL3AQ-11 | 2026-09-01 05:06:44 | 52.69575 | 8.31847 | 104° | 20km/h | 22423m | 4.5m/s | -51.8°C | 1.0% | 39.6hPa | 2.6V | 00:00:00 | 00:00:00 | 00:00:00 | |
| DL1XH-15 | 2026-09-01 05:06:43 | 52.69571 | 8.31813 | 67° | 18km/h | 22397m | 6m/s | -51.9°C | 3.7% | 39.8hPa | 2.6V | 08:30:00 | 01:34:57 | 00:00:00 | |
| DL1XH-west | 2026-09-01 05:06:42 | 52.69576 | 8.31839 | 97° | 18km/h | 22418m | 4.2m/s | -51.8°C | 0.5% | 39.6hPa | 2.7V | 18:12:15 | 01:35:01 | 00:00:00 | |
| HSKMA3-T | 2026-09-01 05:06:40 | 52.69575 | 8.31826 | 68° | 16km/h | 22407m | 5.1m/s | -51.9°C | 0.6% | 39.8hPa | 2.6V | 18:12:15 | 01:34:59 | 00:00:00 | |
| DO2JMG | 2026-09-01 05:06:39 | 52.69573 | 8.31820 | 62° | 16km/h | 22402m | 4.7m/s | -51.9°C | 0.6% | 39.8hPa | 2.6V | 18:12:15 | 01:34:58 | 00:00:00 | |
| BIOWL1-15 | 2026-09-01 05:06:37 | 52.69570 | 8.31806 | 71° | 18km/h | 22392m | 4.6m/s | -51.9°C | 0.5% | 39.8hPa | 2.7V | 18:12:15 | 01:34:56 | 00:00:00 | |
| AA1-15 | 2026-09-01 05:06:34 | 52.69564 | 8.31783 | 69° | 20km/h | 22377m | 5.3m/s | -52°C | 0.5% | 39.9hPa | 2.6V | 18:12:15 | 01:34:53 | 00:00:00 | |
| DL1XH-west | 2026-09-01 05:06:31 | 52.69562 | 8.31757 | 92° | 24km/h | 22361m | 4.4m/s | -51.9°C | 0.5% | 40hPa | 2.7V | 18:12:15 | 01:34:50 | 00:00:00 | |
| HSKMA3-T | 2026-09-01 05:06:30 | 52.69562 | 8.31747 | 90° | 24km/h | 22356m | 4.3m/s | -51.9°C | 0.5% | 40.1hPa | 2.7V | 18:12:15 | 01:34:49 | 00:00:00 | |
| DO2JMG | 2026-09-01 05:06:29 | 52.69562 | 8.31737 | 82° | 24km/h | 22351m | 5.8m/s | -51.8°C | 0.6% | 40.1hPa | 2.6V | 18:12:15 | 01:34:48 | 00:00:00 | |
| DF8AY | 2026-09-01 05:06:28 | 52.69560 | 8.31728 | 71° | 24km/h | 22346m | 4.6m/s | -51.8°C | 0.6% | 40.1hPa | 2.6V | 18:12:15 | 01:34:47 | 00:00:00 | |
| BIOWL1-15 | 2026-09-01 05:06:28 | 52.69555 | 8.31711 | 62° | 20km/h | 22337m | 5.5m/s | -51.8°C | 0.5% | 40.2hPa | 2.7V | 18:12:15 | 01:34:45 | 00:00:00 | |
| DO9LL-15 | 2026-09-01 05:06:28 | 52.69560 | 8.31728 | 71° | 24km/h | 22346m | 4.5m/s | -51.7°C | 3.7% | 40.1hPa | 2.7V | 00:00:00 | 01:34:47 | 00:00:00 | |
| DD1CC2-15 | 2026-09-01 05:06:27 | 52.69560 | 8.31728 | 72° | 24km/h | 22346m | 4.6m/s | -51.8°C | 1.1% | 40.1hPa | 2.7V | 00:00:00 | 00:00:00 | 00:00:00 | |
| DF4FW | 2026-09-01 05:06:26 | 52.69558 | 8.31719 | 64° | 22km/h | 22342m | 4.2m/s | -51.8°C | 1.1% | 40.1hPa | 2.7V | 00:00:00 | 00:00:00 | 00:00:00 | |
| DB0DAN | 2026-09-01 05:06:25 | 52.69553 | 8.31704 | 61° | 18km/h | 22331m | 5.7m/s | -51.8°C | 1.1% | 40.22hPa | 2.7V | 00:00:00 | 00:00:00 | 00:00:00 | |
| DO2SHX-10 | 2026-09-01 05:06:25 | 52.69553 | 8.31704 | 61° | 18km/h | 22331m | 5.6m/s | -51.8°C | 3.7% | 40.2hPa | 2.6V | 00:00:00 | 01:34:44 | 00:00:00 | |
| DF7PN | 2026-09-01 05:06:24 | 52.69551 | 8.31697 | 60° | 16km/h | 22326m | 4.5m/s | -51.8°C | 1.0% | 40.2hPa | 2.6V | 00:00:00 | 00:00:00 | 00:00:00 | |
| DL1XH-15 | 2026-09-01 05:06:23 | 52.69533 | 8.31649 | 69° | 20km/h | 22294m | 4.6m/s | -51.9°C | 3.6% | 40.5hPa | 2.6V | 08:30:00 | 01:34:37 | 00:00:00 | |
| AA1-15 | 2026-09-01 05:06:23 | 52.69548 | 8.31690 | 57° | 20km/h | 22321m | 4.7m/s | -51.9°C | 0.5% | 40.3hPa | 2.6V | 18:12:15 | 01:34:42 | 00:00:00 | |
| DO2SHX-10 | 2026-09-01 05:06:22 | 52.69545 | 8.31683 | 55° | 24km/h | 22316m | 6.5m/s | -51.9°C | 3.7% | 40.3hPa | 2.6V | 00:00:00 | 01:34:41 | 00:00:00 | |
| GOEST3-10 | 2026-09-01 05:06:21 | 52.69542 | 8.31675 | 55° | 22km/h | 22310m | 4.6m/s | -51.9°C | 3.6% | 40.3hPa | 2.7V | 00:00:00 | 00:00:00 | 00:00:00 | |
| DM0DOS-11 | 2026-09-01 05:06:20 | 52.69528 | 8.31625 | 64° | 24km/h | 22279m | 5.6m/s | -52°C | 3.7% | 40.5hPa | 2.7V | 08:30:00 | 01:34:34 | 00:00:00 | |
| DL1XH-west | 2026-09-01 05:06:20 | 52.69538 | 8.31666 | 58° | 24km/h | 22305m | 4.7m/s | -52°C | 0.4% | 40.4hPa | 2.7V | 18:12:15 | 01:34:39 | 00:00:00 | |
| HSKMA3-T | 2026-09-01 05:06:19 | 52.69535 | 8.31658 | 63° | 22km/h | 22300m | 6.4m/s | -52°C | 0.4% | 40.4hPa | 2.7V | 18:12:15 | 01:34:38 | 00:00:00 | |
| DO2JMG | 2026-09-01 05:06:18 | 52.69533 | 8.31650 | 70° | 20km/h | 22294m | 4.6m/s | -51.9°C | 0.5% | 40.5hPa | 2.6V | 18:12:15 | 01:34:37 | 00:00:00 | |
| BIOWL1-15 | 2026-09-01 05:06:18 | 52.69530 | 8.31633 | 70° | 22km/h | 22285m | 5.5m/s | -52°C | 0.4% | 40.5hPa | 2.6V | 18:12:15 | 01:34:35 | 00:00:00 | |
| DF8AY | 2026-09-01 05:06:17 | 52.69532 | 8.31642 | 73° | 20km/h | 22290m | 4m/s | -51.9°C | 0.5% | 40.5hPa | 2.6V | 18:12:15 | 01:34:36 | 00:00:00 | |
| DO2SHX-10 | 2026-09-01 05:06:16 | 52.69530 | 8.31633 | 71° | 22km/h | 22285m | 5.4m/s | -51.9°C | 3.6% | 40.5hPa | 2.7V | 00:00:00 | 01:34:35 | 00:00:00 | |
| DF4FW | 2026-09-01 05:06:15 | 52.69530 | 8.31633 | 71° | 22km/h | 22285m | 5.5m/s | -52.0°C | 1.0% | 40.5hPa | 2.7V | 00:00:00 | 00:00:00 | 00:00:00 | |
| DK5PH-5 | 2026-09-01 05:06:14 | 52.69525 | 8.31616 | 62° | 24km/h | 22274m | 4.7m/s | -52.0°C | 3.7% | 40.5hPa | 2.7V | 00:00:00 | 01:34:33 | 08:30:00 | |
| DL1XH-15 | 2026-09-01 05:06:13 | 52.69505 | 8.31583 | 24° | 24km/h | 22242m | 5.1m/s | -52°C | 3.7% | 40.8hPa | 2.7V | 08:30:00 | 01:34:27 | 00:00:00 | |
| AA1-15 | 2026-09-01 05:06:12 | 52.69520 | 8.31601 | 56° | 18km/h | 22264m | 6.2m/s | -52.1°C | 0.7% | 40.6hPa | 2.6V | 18:12:15 | 01:34:31 | 00:00:00 | |
| DL4BBY-15 | 2026-09-01 05:06:12 | 52.69520 | 8.31601 | 56° | 24km/h | 22264m | 6.1m/s | -54.6°C | 0% | 0hPa | 2.6V | 00:00:00 | 00:00:00 | 00:00:00 | |
| DC6BW-12 | 2026-09-01 05:06:11 | 52.69520 | 8.31601 | 57° | 18km/h | 22264m | 6.2m/s | -52.1°C | 1.1% | 40.6hPa | 2.6V | 00:00:00 | 00:00:00 | 00:00:00 | |
| DB0DAN | 2026-09-01 05:06:10 | 52.69514 | 8.31591 | 36° | 16km/h | 22254m | 5m/s | -52°C | 1.1% | 40.71hPa | 2.6V | 00:00:00 | 00:00:00 | 00:00:00 | |
| DL1XH-west | 2026-09-01 05:06:09 | 52.69510 | 8.31587 | 30° | 20km/h | 22248m | 6.8m/s | -52°C | 0.6% | 40.7hPa | 2.7V | 18:12:15 | 01:34:28 | 00:00:00 | |
| DO2JMG | 2026-09-01 05:06:08 | 52.69505 | 8.31583 | 24° | 24km/h | 22242m | 5.1m/s | -52°C | 0.6% | 40.8hPa | 2.7V | 18:12:15 | 01:34:27 | 00:00:00 | |
| DF8AY | 2026-09-01 05:06:07 | 52.69499 | 8.31579 | 24° | 24km/h | 22236m | 5.9m/s | -52°C | 0.6% | 40.8hPa | 2.6V | 18:12:15 | 01:34:26 | 00:00:00 | |
| DB0NH | 2026-09-01 05:06:07 | 52.69499 | 8.31579 | 24° | 24km/h | 22236m | 5.9m/s | -51.9°C | 3.7% | 40.8hPa | 2.6V | 00:00:00 | 01:34:26 | 00:00:00 | |
| DM0DOS-11 | 2026-09-01 05:06:06 | 52.69489 | 8.31569 | 32° | 26km/h | 22225m | 4.6m/s | -52°C | 3.7% | 40.9hPa | 2.6V | 08:30:00 | 01:34:24 | 00:00:00 | |
| BIOWL1-15 | 2026-09-01 05:06:05 | 52.69489 | 8.31569 | 33° | 26km/h | 22225m | 4.6m/s | -52°C | 0.6% | 40.9hPa | 2.6V | 18:12:15 | 01:34:24 | 00:00:00 | |
| BUE01 | 2026-09-01 05:06:04 | 52.69444 | 8.31502 | 31° | 26km/h | 22178m | 5.1m/s | -51.8°C | 1.0% | 41.2hPa | 2.6V | 00:00:00 | 00:00:00 | 00:00:00 | |
| DL1XH-15 | 2026-09-01 05:06:03 | 52.69454 | 8.31514 | 42° | 24km/h | 22189m | 5.5m/s | -51.8°C | 3.6% | 41.1hPa | 2.6V | 08:30:00 | 01:34:17 | 00:00:00 | |
| AA1-15 | 2026-09-01 05:06:01 | 52.69466 | 8.31537 | 49° | 29km/h | 22203m | 6.4m/s | -52°C | 0.6% | 41hPa | 2.6V | 18:12:15 | 01:34:20 | 00:00:00 | |
| DO2JMG | 2026-09-01 05:05:58 | 52.69454 | 8.31514 | 42° | 24km/h | 22189m | 5.5m/s | -51.8°C | 0.5% | 41.1hPa | 2.6V | 18:12:15 | 01:34:17 | 00:00:00 | |
| HSKMA3-T | 2026-09-01 05:05:57 | 52.69449 | 8.31508 | 37° | 26km/h | 22183m | 5.8m/s | -51.8°C | 0.5% | 41.1hPa | 2.7V | 18:12:15 | 01:34:16 | 00:00:00 | |
| DF8AY | 2026-09-01 05:05:56 | 52.69444 | 8.31502 | 31° | 26km/h | 22178m | 5.1m/s | -51.8°C | 0.5% | 41.2hPa | 2.7V | 18:12:15 | 01:34:15 | 00:00:00 | |
| BIOWL1-15 | 2026-09-01 05:05:55 | 52.69438 | 8.31497 | 28° | 24km/h | 22173m | 4.1m/s | -51.8°C | 0.5% | 41.2hPa | 2.7V | 18:12:15 | 01:34:14 | 00:00:00 | |
| HTAHTA | 2026-09-01 05:05:55 | 52.69433 | 8.31493 | 26° | 22km/h | 22168m | 6.3m/s | -51.9°C | 1.0% | 41.3hPa | 2.6V | 00:00:00 | 00:00:00 | 00:00:00 | |
| DF7PN | 2026-09-01 05:05:54 | 52.69428 | 8.31489 | 26° | 18km/h | 22162m | 5.7m/s | -51.8°C | 1.0% | 41.3hPa | 2.6V | 00:00:00 | 00:00:00 | 00:00:00 | |
| DL1XH-15 | 2026-09-01 05:05:53 | 52.69403 | 8.31464 | 35° | 22km/h | 22135m | 6.5m/s | -52°C | 3.7% | 41.5hPa | 2.6V | 08:30:00 | 01:34:07 | 00:00:00 | |
| AA1-15 | 2026-09-01 05:05:51 | 52.69413 | 8.31475 | 33° | 26km/h | 22145m | 4.6m/s | -51.9°C | 0.5% | 41.4hPa | 2.7V | 18:12:15 | 01:34:09 | 00:00:00 | |
| DL3AQ-11 | 2026-09-01 05:05:51 | 52.69413 | 8.31475 | 32° | 24km/h | 22145m | 4.6m/s | -51.9°C | 1.0% | 41.4hPa | 2.7V | 00:00:00 | 00:00:00 | 00:00:00 | |
| DL1XH1-15 | 2026-09-01 05:05:50 | 52.69390 | 8.31450 | 27° | 22km/h | 22118m | 6.3m/s | -52.4°C | 3.8% | 41.6hPa | 2.7V | 08:30:00 | 01:34:04 | 00:00:00 | |
| DL1XH-west | 2026-09-01 05:05:47 | 52.69399 | 8.31459 | 34° | 20km/h | 22129m | 5.2m/s | -52.2°C | 0.6% | 41.5hPa | 2.6V | 18:12:15 | 01:34:06 | 00:00:00 | |
| HSKMA3-T | 2026-09-01 05:05:46 | 52.69395 | 8.31454 | 31° | 20km/h | 22124m | 4.8m/s | -52.3°C | 0.6% | 41.5hPa | 2.7V | 18:12:15 | 01:34:05 | 00:00:00 | |
| DF8AY | 2026-09-01 05:05:45 | 52.69390 | 8.31450 | 28° | 22km/h | 22118m | 6.3m/s | -52.4°C | 0.6% | 41.6hPa | 2.7V | 18:12:15 | 01:34:04 | 00:00:00 | |
| BIOWL1-15 | 2026-09-01 05:05:44 | 52.69385 | 8.31446 | 22° | 22km/h | 22113m | 4.5m/s | -52.4°C | 0.6% | 41.6hPa | 2.7V | 18:12:15 | 01:34:03 | 00:00:00 | |
| DF4FW | 2026-09-01 05:05:44 | 52.69385 | 8.31446 | 23° | 22km/h | 22114m | 4.5m/s | -52.4°C | 1.1% | 41.6hPa | 2.6V | 00:00:00 | 00:00:00 | 00:00:00 | |
| DL1XH-15 | 2026-09-01 05:05:43 | 52.69353 | 8.31437 | 9° | 22km/h | 22081m | 3.8m/s | -52.4°C | 3.8% | 41.8hPa | 2.6V | 08:30:00 | 01:33:57 | 00:00:00 | |
| DO2SHX-10 | 2026-09-01 05:05:43 | 52.69380 | 8.31443 | 17° | 20km/h | 22108m | 5.7m/s | -52.4°C | 3.8% | 41.6hPa | 2.6V | 00:00:00 | 01:34:02 | 00:00:00 | |
| DL4BBY-15 | 2026-09-01 05:05:42 | 52.69375 | 8.31441 | 10° | 22km/h | 22103m | 6.0m/s | -55.0°C | 0% | 0hPa | 2.6V | 00:00:00 | 00:00:00 | 00:00:00 | |
| GOEST3-10 | 2026-09-01 05:05:41 | 52.69370 | 8.31440 | 5° | 22km/h | 22097m | 5.1m/s | -52.4°C | 3.8% | 41.7hPa | 2.6V | 00:00:00 | 00:00:00 | 08:30:00 | |
| DL1XH1-15 | 2026-09-01 05:05:40 | 52.69339 | 8.31433 | 7° | 16km/h | 22065m | 4.7m/s | -52.3°C | 3.7% | 41.9hPa | 2.7V | 08:30:00 | 01:33:54 | 00:00:00 | |
| AA1-15 | 2026-09-01 05:05:39 | 52.69359 | 8.31438 | 9° | 24km/h | 22085m | 4.8m/s | -52.4°C | 0.6% | 41.8hPa | 2.7V | 18:12:15 | 01:33:58 | 00:00:00 | |
| DL1XH-west | 2026-09-01 05:05:37 | 52.69348 | 8.31435 | 10° | 20km/h | 22076m | 6.3m/s | -52.4°C | 0.6% | 41.8hPa | 2.6V | 18:12:15 | 01:33:56 | 00:00:00 | |
| DO2JMG | 2026-09-01 05:05:36 | 52.69343 | 8.31434 | 9° | 16km/h | 22070m | 5.4m/s | -52.4°C | 0.6% | 41.9hPa | 2.6V | 18:12:15 | 01:33:55 | 00:00:00 | |
| HSKMA3-T | 2026-09-01 05:05:35 | 52.69339 | 8.31433 | 7° | 16km/h | 22065m | 4.7m/s | -52.3°C | 0.5% | 41.9hPa | 2.7V | 18:12:15 | 01:33:54 | 00:00:00 | |
| BIOWL1-15 | 2026-09-01 05:05:34 | 52.69335 | 8.31432 | 9° | 18km/h | 22060m | 5.9m/s | -52.3°C | 0.6% | 41.9hPa | 2.7V | 18:12:15 | 01:33:53 | 00:00:00 | |
| DO2SHX-10 | 2026-09-01 05:05:34 | 52.69334 | 8.31432 | 9° | 20km/h | 22060m | 5.8m/s | -52.2°C | 3.7% | 41.9hPa | 2.6V | 00:00:00 | 01:33:53 | 00:00:00 | |
| EDDB2-12 | 2026-09-01 05:05:33 | 52.69330 | 8.31431 | 7° | 20km/h | 22054m | 6.0m/s | -52.2°C | 1.1% | 42.0hPa | 2.6V | 00:00:00 | 00:00:00 | 00:00:00 | |
| DL1XH-15 | 2026-09-01 05:05:33 | 52.69303 | 8.31428 | 359° | 20km/h | 22027m | 3.9m/s | -52.3°C | 3.7% | 42.1hPa | 2.7V | 08:30:00 | 01:33:47 | 00:00:00 | |
| DL1XH1-15 | 2026-09-01 05:05:31 | 52.69286 | 8.31428 | 357° | 22km/h | 22012m | 4.2m/s | -52.3°C | 3.7% | 42.3hPa | 2.6V | 08:30:00 | 01:33:44 | 00:00:00 | |
| AA1-15 | 2026-09-01 05:05:28 | 52.69303 | 8.31428 | 359° | 20km/h | 22027m | 3.9m/s | -52.3°C | 0.6% | 42.1hPa | 2.7V | 18:12:15 | 01:33:47 | 00:00:00 | |
| DL1XH-west | 2026-09-01 05:05:26 | 52.69292 | 8.31428 | 359° | 24km/h | 22017m | 4.8m/s | -52.3°C | 0.6% | 42.3hPa | 2.7V | 18:12:15 | 01:33:45 | 00:00:00 | |
| DB0DAN | 2026-09-01 05:05:25 | 52.69286 | 8.31428 | 358° | 20km/h | 22012m | 4.2m/s | -52.3°C | 1.1% | 42.27hPa | 2.6V | 00:00:00 | 00:00:00 | 00:00:00 | |
| HSKMA3-T | 2026-09-01 05:05:25 | 52.69286 | 8.31428 | 358° | 22km/h | 22012m | 4.2m/s | -52.3°C | 0.6% | 42.3hPa | 2.6V | 18:12:15 | 01:33:44 | 00:00:00 | |
| BIOWL1-15 | 2026-09-01 05:05:24 | 52.69281 | 8.31429 | 355° | 18km/h | 22007m | 6.6m/s | -52.3°C | 0.6% | 42.3hPa | 2.6V | 18:12:15 | 01:33:43 | 00:00:00 | |
| DL3AQ-11 | 2026-09-01 05:05:24 | 52.69277 | 8.31429 | 351° | 15km/h | 22001m | 5.2m/s | -52.3°C | 1.1% | 42.3hPa | 2.6V | 00:00:00 | 00:00:00 | 00:00:00 | |
| DO2SHX-10 | 2026-09-01 05:05:22 | 52.69273 | 8.31430 | 349° | 18km/h | 21997m | 4.0m/s | -52.2°C | 3.8% | 42.3hPa | 2.6V | 00:00:00 | 01:33:41 | 00:00:00 | |
| GOEST3-10 | 2026-09-01 05:05:21 | 52.69268 | 8.31432 | 351° | 22km/h | 21992m | 5.0m/s | -52.2°C | 3.8% | 42.3hPa | 2.6V | 00:00:00 | 00:00:00 | 00:00:00 | |
| DD8BA-10 | 2026-09-01 05:05:20 | 52.69264 | 8.31433 | 355° | 26km/h | 21987m | 5.7m/s | -52.2°C | 3.8% | 42.4hPa | 2.6V | 00:00:00 | 00:00:00 | 00:00:00 | |
| DO2SHX-10 | 2026-09-01 05:05:19 | 52.69258 | 8.31434 | 356° | 24km/h | 21981m | 4.9m/s | -52.2°C | 3.8% | 42.4hPa | 2.6V | 00:00:00 | 01:33:38 | 08:30:00 | |
| DM0DOS-11 | 2026-09-01 05:05:18 | 52.69234 | 8.31442 | 338° | 24km/h | 21960m | 4.9m/s | -52.1°C | 3.8% | 42.6hPa | 2.7V | 08:30:00 | 01:33:34 | 00:00:00 | |
| AA1-15 | 2026-09-01 05:05:17 | 52.69246 | 8.31436 | 350° | 24km/h | 21971m | 5.8m/s | -52.2°C | 0.7% | 42.5hPa | 2.7V | 18:12:15 | 01:33:36 | 00:00:00 | |
| DO2JMG | 2026-09-01 05:05:16 | 52.69240 | 8.31438 | 343° | 24km/h | 21965m | 5.8m/s | -52.2°C | 0.7% | 42.6hPa | 2.7V | 18:12:15 | 01:33:35 | 00:00:00 | |
| DL1XH-west | 2026-09-01 05:05:15 | 52.69234 | 8.31442 | 339° | 24km/h | 21960m | 4.9m/s | -52.1°C | 0.7% | 42.6hPa | 2.7V | 18:12:15 | 01:33:34 | 00:00:00 | |
| HSKMA3-T | 2026-09-01 05:05:14 | 52.69228 | 8.31445 | 341° | 26km/h | 21954m | 6m/s | -52.1°C | 0.7% | 42.7hPa | 2.6V | 18:12:15 | 01:33:33 | 00:00:00 | |
| BIOWL1-15 | 2026-09-01 05:05:13 | 52.69222 | 8.31449 | 341° | 27km/h | 21949m | 5.6m/s | -52°C | 0.6% | 42.7hPa | 2.6V | 18:12:15 | 01:33:32 | 00:00:00 | |
| DO2SHX-10 | 2026-09-01 05:05:13 | 52.69222 | 8.31449 | 341° | 27km/h | 21949m | 5.6m/s | -52.0°C | 3.7% | 42.6hPa | 2.7V | 00:00:00 | 01:33:32 | 00:00:00 | |
| DL4BBY-15 | 2026-09-01 05:05:12 | 52.69216 | 8.31453 | 337° | 18km/h | 21943m | 4.9m/s | -54.5°C | 0% | 0hPa | 2.7V | 00:00:00 | 00:00:00 | 00:00:00 | |
| DF4FW | 2026-09-01 05:05:11 | 52.69215 | 8.31453 | 338° | 27km/h | 21944m | 4.9m/s | -52.0°C | 1.0% | 42.7hPa | 2.7V | 00:00:00 | 00:00:00 | 00:00:00 | |
| DB0DAN | 2026-09-01 05:05:10 | 52.69203 | 8.31465 | 324° | 27km/h | 21932m | 5.2m/s | -52°C | 1.1% | 42.79hPa | 2.7V | 00:00:00 | 00:00:00 | 00:00:00 | |
| DD8BA-10 | 2026-09-01 05:05:10 | 52.69203 | 8.31465 | 325° | 22km/h | 21932m | 5.1m/s | -51.9°C | 3.7% | 42.7hPa | 2.7V | 00:00:00 | 00:00:00 | 00:00:00 | |
| DJ2DS-15 | 2026-09-01 05:05:09 | 52.69197 | 8.31471 | 324° | 18km/h | 21927m | 4.1m/s | -52.0°C | 3.7% | 42.8hPa | 2.6V | 00:00:00 | 01:33:28 | 00:00:00 | |
| DM0DOS-11 | 2026-09-01 05:05:08 | 52.69177 | 8.31489 | 337° | 20km/h | 21906m | 5.6m/s | -51.9°C | 3.7% | 43hPa | 2.7V | 08:30:00 | 01:33:24 | 00:00:00 | |
| DO2JMG | 2026-09-01 05:05:06 | 52.69182 | 8.31486 | 340° | 22km/h | 21911m | 4.9m/s | -51.9°C | 0.5% | 43hPa | 2.7V | 18:12:15 | 01:33:25 | 00:00:00 | |
| DL1XH-west | 2026-09-01 05:05:04 | 52.69173 | 8.31492 | 329° | 18km/h | 21900m | 6.1m/s | -51.8°C | 0.5% | 43hPa | 2.7V | 18:12:15 | 01:33:23 | 00:00:00 | |
| DF8AY | 2026-09-01 05:05:03 | 52.69169 | 8.31497 | 324° | 20km/h | 21895m | 4.3m/s | -51.8°C | 0.6% | 43.1hPa | 2.6V | 18:12:15 | 01:33:22 | 00:00:00 | |
| BIOWL1-15 | 2026-09-01 05:05:02 | 52.69165 | 8.31502 | 324° | 20km/h | 21890m | 4.7m/s | -51.8°C | 0.6% | 43.1hPa | 2.6V | 18:12:15 | 01:33:21 | 00:00:00 | |
| EDDB2-12 | 2026-09-01 05:05:02 | 52.69161 | 8.31506 | 329° | 20km/h | 21885m | 6.1m/s | -51.8°C | 1.1% | 43.1hPa | 2.6V | 00:00:00 | 00:00:00 | 00:00:00 | |
| GOEST3-10 | 2026-09-01 05:05:01 | 52.69160 | 8.31506 | 330° | 24km/h | 21885m | 6.0m/s | -51.8°C | 3.7% | 43.1hPa | 2.6V | 00:00:00 | 00:00:00 | 00:00:00 | |
| DD8BA-10 | 2026-09-01 05:05:00 | 52.69156 | 8.31511 | 330° | 18km/h | 21879m | 4.9m/s | -51.8°C | 3.7% | 43.1hPa | 2.6V | 00:00:00 | 00:00:00 | 00:00:00 | |
| DO2LYB-13 | 2026-09-01 05:04:59 | 52.69156 | 8.31511 | 331° | 22km/h | 21879m | 4.9m/s | -51.9°C | 1.1% | 43.1hPa | 2.6V | 00:00:00 | 00:00:00 | 00:00:00 | |
| DM0DOS-11 | 2026-09-01 05:04:58 | 52.69132 | 8.31542 | 321° | 20km/h | 21853m | 6.4m/s | -51.9°C | 3.7% | 43.3hPa | 2.6V | 08:30:00 | 01:33:14 | 00:00:00 | |
| AA1-15 | 2026-09-01 05:04:56 | 52.69136 | 8.31536 | 318° | 24km/h | 21858m | 4.6m/s | -51.9°C | 0.6% | 43.3hPa | 2.6V | 18:12:15 | 01:33:15 | 00:00:00 | |
| DO2JMG | 2026-09-01 05:04:55 | 52.69132 | 8.31542 | 322° | 20km/h | 21853m | 6.4m/s | -51.9°C | 0.6% | 43.3hPa | 2.6V | 18:12:15 | 01:33:14 | 00:00:00 | |
| DL1XH-west | 2026-09-01 05:04:54 | 52.69129 | 8.31546 | 324° | 15km/h | 21847m | 5.4m/s | -51.8°C | 0.6% | 43.4hPa | 2.6V | 18:12:15 | 01:33:13 | 00:00:00 | |
| HSKMA3-T | 2026-09-01 05:04:53 | 52.69126 | 8.31549 | 315° | 11km/h | 21841m | 6.4m/s | -51.8°C | 0.5% | 43.4hPa | 2.7V | 18:12:15 | 01:33:12 | 00:00:00 | |
| BIOWL1-15 | 2026-09-01 05:04:52 | 52.69125 | 8.31552 | 302° | 7km/h | 21835m | 6m/s | -51.8°C | 0.6% | 43.4hPa | 2.7V | 18:12:15 | 01:33:11 | 00:00:00 | |
| DO2SHX-10 | 2026-09-01 05:04:52 | 52.69125 | 8.31552 | 302° | 5km/h | 21835m | 5.9m/s | -51.7°C | 3.7% | 43.4hPa | 2.7V | 00:00:00 | 01:33:11 | 08:30:00 | |
| GOEST3-10 | 2026-09-01 05:04:51 | 52.69124 | 8.31554 | 292° | 5km/h | 21829m | 5.3m/s | -51.7°C | 3.7% | 43.4hPa | 2.6V | 00:00:00 | 00:00:00 | 00:00:00 | |
| DL1XH1-15 | 2026-09-01 05:04:50 | 52.69116 | 8.31570 | 310° | 20km/h | 21797m | 4.8m/s | -51.8°C | 3.6% | 43.7hPa | 2.6V | 08:30:00 | 01:33:04 | 00:00:00 | |
| AA1-15 | 2026-09-01 05:04:45 | 52.69116 | 8.31570 | 310° | 20km/h | 21797m | 4.8m/s | -51.8°C | 0.5% | 43.7hPa | 2.6V | 18:12:15 | 01:33:04 | 00:00:00 | |
| DL3AQ-11 | 2026-09-01 05:04:44 | 52.69112 | 8.31576 | 316° | 18km/h | 21792m | 6.1m/s | -51.7°C | 1.1% | 43.8hPa | 2.6V | 00:00:00 | 00:00:00 | 00:00:00 | |
| DO2JMG | 2026-09-01 05:04:44 | 52.69112 | 8.31576 | 317° | 20km/h | 21792m | 6.1m/s | -51.7°C | 0.5% | 43.8hPa | 2.6V | 18:12:15 | 01:33:03 | 00:00:00 | |
| DL1XH-west | 2026-09-01 05:04:43 | 52.69109 | 8.31582 | 321° | 18km/h | 21786m | 5m/s | -51.7°C | 0.5% | 43.8hPa | 2.6V | 18:12:15 | 01:33:02 | 00:00:00 | |
| DF8AY | 2026-09-01 05:04:42 | 52.69106 | 8.31586 | 318° | 15km/h | 21782m | 4.4m/s | -51.7°C | 0.5% | 43.8hPa | 2.7V | 18:12:15 | 01:33:01 | 00:00:00 | |
| BIOWL1-15 | 2026-09-01 05:04:41 | 52.69103 | 8.31590 | 307° | 13km/h | 21777m | 5.8m/s | -51.7°C | 0.5% | 43.8hPa | 2.7V | 18:12:15 | 01:33:00 | 00:00:00 | |
| DD8BA-10 | 2026-09-01 05:04:41 | 52.69102 | 8.31594 | 288° | 4km/h | 21772m | 5.2m/s | -51.7°C | 3.6% | 43.8hPa | 2.6V | 00:00:00 | 00:00:00 | 08:30:00 | |
| AM1SDL-15 | 2026-09-01 05:04:40 | 52.69101 | 8.31597 | 268° | 5km/h | 21767m | 4.6m/s | -51.7°C | 3.6% | 43.9hPa | 2.7V | 00:00:00 | 01:32:58 | 00:00:00 | |
| DF4FW | 2026-09-01 05:04:39 | 52.69102 | 8.31597 | 269° | 7km/h | 21767m | 4.6m/s | -51.7°C | 1.0% | 43.9hPa | 2.7V | 00:00:00 | 00:00:00 | 00:00:00 | |
| DM0DOS-11 | 2026-09-01 05:04:38 | 52.69102 | 8.31601 | 254° | 0km/h | 21745m | 5.4m/s | -51.7°C | 3.6% | 44hPa | 2.7V | 08:30:00 | 01:32:54 | 00:00:00 | |
| AA1-15 | 2026-09-01 05:04:35 | 52.69102 | 8.31601 | 254° | 0km/h | 21745m | 5.4m/s | -51.7°C | 0.5% | 44hPa | 2.7V | 18:12:15 | 01:32:54 | 00:00:00 | |
| DO2JMG | 2026-09-01 05:04:34 | 52.69102 | 8.31601 | 215° | 4km/h | 21740m | 5.3m/s | -51.7°C | 0.6% | 44.1hPa | 2.6V | 18:12:15 | 01:32:53 | 00:00:00 | |
| BIOWL1-15 | 2026-09-01 05:04:33 | 52.69104 | 8.31602 | 38° | 0km/h | 21725m | 4.7m/s | -51.8°C | 0.5% | 44.2hPa | 2.6V | 18:12:15 | 01:32:50 | 00:00:00 | |
| DL1XH-west | 2026-09-01 05:04:33 | 52.69103 | 8.31602 | 197° | 4km/h | 21735m | 4.9m/s | -51.8°C | 0.6% | 44.1hPa | 2.6V | 18:12:15 | 01:32:52 | 00:00:00 | |
| HSKMA3-T | 2026-09-01 05:04:32 | 52.69104 | 8.31602 | 183° | 4km/h | 21730m | 4.8m/s | -51.8°C | 0.6% | 44.1hPa | 2.6V | 18:12:15 | 01:32:51 | 00:00:00 | |
| AA1-15 | 2026-09-01 05:04:24 | 52.69096 | 8.31619 | 295° | 4km/h | 21687m | 5.9m/s | -52°C | 0.6% | 44.5hPa | 2.7V | 18:12:15 | 01:32:43 | 00:00:00 | |
| DL1XH-west | 2026-09-01 05:04:23 | 52.69096 | 8.31620 | 258° | 2km/h | 21682m | 5m/s | -51.9°C | 0.6% | 44.5hPa | 2.7V | 18:12:15 | 01:32:42 | 00:00:00 | |
| HSKMA3-T | 2026-09-01 05:04:22 | 52.69096 | 8.31620 | 216° | 4km/h | 21676m | 6.2m/s | -51.9°C | 0.5% | 44.5hPa | 2.6V | 18:12:15 | 01:32:41 | 00:00:00 | |
| DF8AY | 2026-09-01 05:04:21 | 52.69097 | 8.31621 | 187° | 5km/h | 21671m | 5.4m/s | -51.9°C | 0.6% | 44.6hPa | 2.6V | 18:12:15 | 01:32:40 | 00:00:00 | |
| BIOWL1-15 | 2026-09-01 05:04:20 | 52.69098 | 8.31621 | 163° | 5km/h | 21665m | 4.7m/s | -51.9°C | 0.6% | 44.6hPa | 2.6V | 18:12:15 | 01:32:39 | 00:00:00 | |
| DD8BA-10 | 2026-09-01 05:04:20 | 52.69098 | 8.31621 | 163° | 5km/h | 21666m | 4.7m/s | -51.9°C | 3.7% | 44.6hPa | 2.6V | 00:00:00 | 00:00:00 | 00:00:00 | |
| DL4XJ-10 | 2026-09-01 05:04:19 | 52.69099 | 8.31619 | 131° | 5km/h | 21659m | 6.7m/s | -54.4°C | 0% | 0hPa | 2.6V | 00:00:00 | 00:00:00 | 00:00:00 | |
| DD1CC3-15 | 2026-09-01 05:04:17 | 52.69101 | 8.31617 | 115° | 9km/h | 21654m | 5.3m/s | -51.9°C | 1.1% | 44.7hPa | 2.6V | 00:00:00 | 00:00:00 | 00:00:00 | |
| DO2SHX-10 | 2026-09-01 05:04:16 | 52.69102 | 8.31610 | 116° | 5km/h | 21643m | 6.5m/s | -51.8°C | 3.7% | 44.7hPa | 2.6V | 00:00:00 | 01:32:35 | 00:00:00 | |
| DL1XH-15 | 2026-09-01 05:04:13 | 52.69108 | 8.31602 | 196° | 7km/h | 21599m | 5.8m/s | -51.9°C | 3.6% | 45.1hPa | 2.7V | 08:30:00 | 01:32:27 | 00:00:00 | |
| AA1-15 | 2026-09-01 05:04:13 | 52.69103 | 8.31605 | 91° | 5km/h | 21626m | 6.1m/s | -51.9°C | 0.6% | 44.9hPa | 2.7V | 18:12:15 | 01:32:32 | 00:00:00 | |
| DL1XH-west | 2026-09-01 05:04:12 | 52.69103 | 8.31603 | 101° | 5km/h | 21621m | 4.9m/s | -51.9°C | 0.5% | 44.9hPa | 2.7V | 18:12:15 | 01:32:31 | 00:00:00 | |
| DF8AY | 2026-09-01 05:04:11 | 52.69104 | 8.31601 | 141° | 4km/h | 21615m | 5.9m/s | -51.9°C | 0.6% | 45hPa | 2.6V | 18:12:15 | 01:32:30 | 00:00:00 | |
| DB0DAN | 2026-09-01 05:04:10 | 52.69105 | 8.31601 | 181° | 5km/h | 21609m | 5.8m/s | -51.9°C | 1.1% | 45hPa | 2.6V | 00:00:00 | 00:00:00 | 00:00:00 | |
| DL1XH1-15 | 2026-09-01 05:04:10 | 52.69112 | 8.31602 | 175° | 5km/h | 21583m | 5.1m/s | -51.8°C | 3.7% | 45.2hPa | 2.6V | 08:30:00 | 01:32:24 | 00:00:00 | |
| BIOWL1-15 | 2026-09-01 05:04:09 | 52.69106 | 8.31601 | 198° | 7km/h | 21604m | 4.4m/s | -51.9°C | 0.5% | 45.1hPa | 2.6V | 18:12:15 | 01:32:28 | 00:00:00 | |
| DJ2DS-15 | 2026-09-01 05:04:09 | 52.69106 | 8.31601 | 199° | 5km/h | 21605m | 4.4m/s | -51.8°C | 3.6% | 45.0hPa | 2.6V | 00:00:00 | 01:32:28 | 00:00:00 | |
| DO2SHX-10 | 2026-09-01 05:04:07 | 52.69109 | 8.31602 | 185° | 5km/h | 21594m | 5.6m/s | -51.8°C | 3.6% | 45.1hPa | 2.7V | 00:00:00 | 01:32:26 | 00:00:00 | |
| DJ2DS-15 | 2026-09-01 05:04:06 | 52.69112 | 8.31602 | 175° | 5km/h | 21583m | 5.1m/s | -51.8°C | 1.1% | 45.2hPa | 2.6V | 00:00:00 | 00:00:00 | 00:00:00 | |
| SONCRA | 2026-09-01 05:04:05 | 52.69114 | 8.31602 | 182° | 7km/h | 21578m | 6.3m/s | -51.8°C | 1.1% | 45.2hPa | 2.6V | 00:00:00 | 00:00:00 | 00:00:00 | |
| DO2SHX-10 | 2026-09-01 05:04:04 | 52.69114 | 8.31602 | 183° | 9km/h | 21578m | 6.3m/s | -51.8°C | 3.7% | 45.2hPa | 2.6V | 00:00:00 | 01:32:23 | 00:00:00 | |
| DL1XH-15 | 2026-09-01 05:04:03 | 52.69122 | 8.31595 | 133° | 4km/h | 21546m | 6.2m/s | -51.8°C | 3.7% | 45.5hPa | 2.6V | 08:30:00 | 01:32:17 | 00:00:00 | |
| DL1XH-west | 2026-09-01 05:04:02 | 52.69119 | 8.31602 | 165° | 7km/h | 21568m | 5m/s | -51.8°C | 0.5% | 45.3hPa | 2.6V | 18:12:15 | 01:32:21 | 00:00:00 | |
| HSKMA3-T | 2026-09-01 05:04:01 | 52.69120 | 8.31601 | 136° | 7km/h | 21562m | 6m/s | -51.7°C | 0.5% | 45.3hPa | 2.7V | 18:12:15 | 01:32:20 | 00:00:00 | |
| DF8AY | 2026-09-01 05:04:00 | 52.69121 | 8.31599 | 112° | 5km/h | 21557m | 5.1m/s | -51.7°C | 0.6% | 45.4hPa | 2.7V | 18:12:15 | 01:32:19 | 00:00:00 | |
| BIOWL1-15 | 2026-09-01 05:03:59 | 52.69122 | 8.31596 | 117° | 5km/h | 21551m | 4.9m/s | -51.7°C | 0.5% | 45.4hPa | 2.7V | 18:12:15 | 01:32:18 | 00:00:00 | |
| DO2SHX-10 | 2026-09-01 05:03:58 | 52.69122 | 8.31595 | 134° | 4km/h | 21546m | 6.1m/s | -51.7°C | 3.7% | 45.4hPa | 2.6V | 00:00:00 | 01:32:17 | 08:30:00 | |
| DL1CLM-18 | 2026-09-01 05:03:57 | 52.69122 | 8.31595 | 135° | 4km/h | 21546m | 6.2m/s | -51.8°C | 1.1% | 45.5hPa | 2.7V | 00:00:00 | 00:00:00 | 00:00:00 | |
| DD1CC3-15 | 2026-09-01 05:03:56 | 52.69123 | 8.31594 | 157° | 4km/h | 21541m | 4.6m/s | -51.7°C | 1.1% | 45.5hPa | 2.7V | 00:00:00 | 00:00:00 | 00:00:00 | |
| DB0DAN | 2026-09-01 05:03:55 | 52.69124 | 8.31592 | 113° | 2km/h | 21530m | 5.8m/s | -51.8°C | 1% | 45.61hPa | 2.7V | 00:00:00 | 00:00:00 | 00:00:00 | |
| DL4XJ-10 | 2026-09-01 05:03:55 | 52.69124 | 8.31592 | 114° | 11km/h | 21530m | 5.8m/s | -54.3°C | 0% | 0hPa | 2.7V | 00:00:00 | 00:00:00 | 00:00:00 | |
| DO2LYB-13 | 2026-09-01 05:03:54 | 52.69124 | 8.31592 | 114° | 2km/h | 21530m | 5.8m/s | -51.8°C | 1.1% | 45.6hPa | 2.7V | 00:00:00 | 00:00:00 | 00:00:00 | |
| DL1XH-15 | 2026-09-01 05:03:53 | 52.69131 | 8.31586 | 93° | 7km/h | 21491m | 4.7m/s | -52.1°C | 3.6% | 45.8hPa | 2.7V | 08:30:00 | 01:32:07 | 00:00:00 | |
| DO2JMG | 2026-09-01 05:03:51 | 52.69128 | 8.31591 | 172° | 7km/h | 21508m | 5m/s | -52°C | 0.5% | 45.7hPa | 2.6V | 18:12:15 | 01:32:10 | 00:00:00 | |
| HSKMA3-T | 2026-09-01 05:03:51 | 52.69130 | 8.31590 | 150° | 7km/h | 21502m | 6.4m/s | -52°C | 0.5% | 45.8hPa | 2.7V | 18:12:15 | 01:32:09 | 00:00:00 | |
| BIOWL1-15 | 2026-09-01 05:03:50 | 52.69131 | 8.31586 | 94° | 7km/h | 21491m | 4.7m/s | -52.1°C | 0.5% | 45.8hPa | 2.7V | 18:12:15 | 01:32:07 | 00:00:00 | |
| DD8BA-10 | 2026-09-01 05:03:50 | 52.69130 | 8.31590 | 151° | 9km/h | 21502m | 6.3m/s | -52.0°C | 3.6% | 45.7hPa | 2.7V | 00:00:00 | 00:00:00 | 00:00:00 | |
| DJ2DS-15 | 2026-09-01 05:03:49 | 52.69131 | 8.31588 | 117° | 11km/h | 21496m | 5.7m/s | -52.0°C | 3.6% | 45.7hPa | 2.7V | 00:00:00 | 01:32:08 | 00:00:00 | |
| GOEST3-10 | 2026-09-01 05:03:46 | 52.69132 | 8.31580 | 86° | 11km/h | 21480m | 4.9m/s | -52.1°C | 3.6% | 45.9hPa | 2.7V | 00:00:00 | 01:32:05 | 00:00:00 | |
| DF4FW | 2026-09-01 05:03:44 | 52.69131 | 8.31577 | 72° | 9km/h | 21476m | 4.0m/s | -52.3°C | 1.1% | 46.0hPa | 2.7V | 00:00:00 | 00:00:00 | 00:00:00 | |
| DL1XH-15 | 2026-09-01 05:03:43 | 52.69123 | 8.31548 | 84° | 11km/h | 21438m | 6.1m/s | -52.1°C | 3.7% | 46.2hPa | 2.7V | 08:30:00 | 01:31:57 | 00:00:00 | |
| DL1XH-west | 2026-09-01 05:03:41 | 52.69125 | 8.31558 | 63° | 11km/h | 21453m | 6m/s | -52.2°C | 0.6% | 46.1hPa | 2.6V | 18:12:15 | 01:32:00 | 00:00:00 | |
| DO2JMG | 2026-09-01 05:03:40 | 52.69124 | 8.31555 | 71° | 9km/h | 21448m | 4.4m/s | -52.2°C | 0.6% | 46.1hPa | 2.6V | 18:12:15 | 01:31:59 | 00:00:00 | |
| BIOWL1-15 | 2026-09-01 05:03:40 | 52.69124 | 8.31548 | 84° | 11km/h | 21438m | 6.1m/s | -52.1°C | 0.6% | 46.2hPa | 2.7V | 18:12:15 | 01:31:57 | 00:00:00 | |
| HSKMA3-T | 2026-09-01 05:03:39 | 52.69124 | 8.31552 | 80° | 9km/h | 21444m | 4.6m/s | -52.1°C | 0.6% | 46.2hPa | 2.7V | 18:12:15 | 01:31:58 | 00:00:00 | |
| DK9SH | 2026-09-01 05:03:38 | 52.69124 | 8.31551 | 81° | 9km/h | 21444m | 4.6m/s | -52.1°C | 1.1% | 46.2hPa | 2.6V | 00:00:00 | 00:00:00 | 00:00:00 | |
| DO2SHX-10 | 2026-09-01 05:03:37 | 52.69123 | 8.31543 | 93° | 13km/h | 21433m | 5.2m/s | -52.1°C | 3.7% | 46.2hPa | 2.6V | 00:00:00 | 01:31:56 | 00:00:00 | |
| DB0UT-7 | 2026-09-01 05:03:36 | 52.69124 | 8.31538 | 103° | 15km/h | 21427m | 5.7m/s | -52.1°C | 3.7% | 46.2hPa | 2.6V | 00:00:00 | 01:31:55 | 08:30:00 | |
| DB0NH | 2026-09-01 05:03:35 | 52.69125 | 8.31532 | 120° | 15km/h | 21421m | 6.6m/s | -52.1°C | 3.7% | 46.3hPa | 2.6V | 00:00:00 | 01:31:54 | 00:00:00 | |
| SONCRA | 2026-09-01 05:03:34 | 52.69130 | 8.31522 | 123° | 15km/h | 21411m | 4.2m/s | -52.2°C | 1.1% | 46.4hPa | 2.6V | 00:00:00 | 00:00:00 | 00:00:00 | |
| DL1XH-15 | 2026-09-01 05:03:33 | 52.69133 | 8.31497 | 76° | 9km/h | 21384m | 4.9m/s | -52.3°C | 3.6% | 46.6hPa | 2.6V | 08:30:00 | 01:31:47 | 00:00:00 | |
| DL1XH-west | 2026-09-01 05:03:30 | 52.69133 | 8.31505 | 90° | 11km/h | 21395m | 4.8m/s | -52.3°C | 0.5% | 46.5hPa | 2.7V | 18:12:15 | 01:31:49 | 00:00:00 | |
| DO2JMG | 2026-09-01 05:03:29 | 52.69133 | 8.31501 | 89° | 9km/h | 21389m | 6.2m/s | -52.3°C | 0.5% | 46.6hPa | 2.6V | 18:12:15 | 01:31:48 | 00:00:00 | |
| HSKMA3-T | 2026-09-01 05:03:28 | 52.69133 | 8.31497 | 77° | 9km/h | 21384m | 4.9m/s | -52.3°C | 0.5% | 46.6hPa | 2.6V | 18:12:15 | 01:31:47 | 00:00:00 | |
| BIOWL1-15 | 2026-09-01 05:03:27 | 52.69132 | 8.31494 | 61° | 9km/h | 21379m | 5.8m/s | -52.4°C | 0.5% | 46.6hPa | 2.6V | 18:12:15 | 01:31:46 | 00:00:00 | |
| DL8OAI-8 | 2026-09-01 05:03:26 | 52.69132 | 8.31494 | 62° | 9km/h | 21379m | 5.8m/s | -52.4°C | 1.1% | 46.6hPa | 2.7V | 00:00:00 | 00:00:00 | 00:00:00 | |
| DB0DAN | 2026-09-01 05:03:25 | 52.69128 | 8.31486 | 52° | 13km/h | 21367m | 4.8m/s | -52.5°C | 1.1% | 46.78hPa | 2.7V | 00:00:00 | 00:00:00 | 00:00:00 | |
| DO2SHX-10 | 2026-09-01 05:03:25 | 52.69128 | 8.31486 | 52° | 11km/h | 21367m | 4.7m/s | -52.4°C | 3.7% | 46.7hPa | 2.6V | 00:00:00 | 01:31:44 | 00:00:00 | |
| DL3AQ-11 | 2026-09-01 05:03:24 | 52.69126 | 8.31477 | 84° | 9km/h | 21356m | 5.9m/s | -52.5°C | 1.1% | 46.8hPa | 2.6V | 00:00:00 | 00:00:00 | 00:00:00 | |
| DL1XH-15 | 2026-09-01 05:03:23 | 52.69127 | 8.31452 | 95° | 15km/h | 21331m | 5.1m/s | -52.5°C | 3.8% | 47hPa | 2.6V | 08:30:00 | 01:31:37 | 00:00:00 | |
| DL1XH-west | 2026-09-01 05:03:19 | 52.69127 | 8.31458 | 89° | 15km/h | 21336m | 5m/s | -52.6°C | 0.6% | 47hPa | 2.7V | 18:12:15 | 01:31:38 | 00:00:00 | |
| DO2JMG | 2026-09-01 05:03:18 | 52.69127 | 8.31452 | 96° | 15km/h | 21331m | 5.1m/s | -52.5°C | 0.6% | 47hPa | 2.6V | 18:12:15 | 01:31:37 | 00:00:00 | |
| BIOWL1-15 | 2026-09-01 05:03:16 | 52.69128 | 8.31441 | 99° | 15km/h | 21320m | 4.5m/s | -52.5°C | 0.6% | 47.1hPa | 2.6V | 18:12:15 | 01:31:35 | 00:00:00 | |
| DO2SHX-10 | 2026-09-01 05:03:16 | 52.69128 | 8.31440 | 99° | 15km/h | 21320m | 4.4m/s | -52.5°C | 3.8% | 47.0hPa | 2.7V | 00:00:00 | 01:31:35 | 00:00:00 | |
| DD1CC3-15 | 2026-09-01 05:03:15 | 52.69128 | 8.31440 | 100° | 15km/h | 21320m | 4.5m/s | -52.5°C | 1.2% | 47.1hPa | 2.7V | 00:00:00 | 00:00:00 | 00:00:00 | |
| DL1XH-15 | 2026-09-01 05:03:13 | 52.69122 | 8.31385 | 76° | 20km/h | 21277m | 5.3m/s | 0°C | 0% | 0hPa | 2.7V | 08:30:00 | 01:31:27 | 00:00:00 | |
| DO2SHX-10 | 2026-09-01 05:03:13 | 52.69126 | 8.31422 | 71° | 18km/h | 21304m | 4.2m/s | -52.6°C | 3.8% | 47.2hPa | 2.6V | 00:00:00 | 01:31:32 | 00:00:00 | |
| DL4BBY-15 | 2026-09-01 05:03:12 | 52.69125 | 8.31415 | 76° | 24km/h | 21299m | 6.0m/s | -55.2°C | 0% | 0hPa | 2.6V | 00:00:00 | 00:00:00 | 00:00:00 | |
| DL3AQ-11 | 2026-09-01 05:03:11 | 52.69123 | 8.31401 | 82° | 16km/h | 21288m | 4.1m/s | -52.8°C | 1.1% | 47.3hPa | 2.6V | 00:00:00 | 00:00:00 | 00:00:00 | |
| DL1XH1-15 | 2026-09-01 05:03:10 | 52.69120 | 8.31359 | 93° | 22km/h | 21261m | 4.6m/s | -52.9°C | 3.9% | 47.5hPa | 2.6V | 08:30:00 | 01:31:24 | 00:00:00 | |
| DL1XH-west | 2026-09-01 05:03:09 | 52.69123 | 8.31393 | 78° | 20km/h | 21283m | 6.1m/s | -52.8°C | 0.7% | 47.4hPa | 2.7V | 18:12:15 | 01:31:28 | 00:00:00 | |
| DO2JMG | 2026-09-01 05:03:08 | 52.69122 | 8.31385 | 77° | 20km/h | 21277m | 5.3m/s | -52.9°C | 0.7% | 47.4hPa | 2.7V | 18:12:15 | 01:31:27 | 00:00:00 | |
| HSKMA3-T | 2026-09-01 05:03:07 | 52.69121 | 8.31376 | 82° | 22km/h | 21272m | 4.4m/s | -52.9°C | 0.7% | 47.4hPa | 2.6V | 18:12:15 | 01:31:26 | 00:00:00 | |
| BIOWL1-15 | 2026-09-01 05:03:05 | 52.69120 | 8.31359 | 93° | 22km/h | 21261m | 4.6m/s | -52.9°C | 0.7% | 47.5hPa | 2.6V | 18:12:15 | 01:31:24 | 00:00:00 | |
| DB0NH | 2026-09-01 05:03:05 | 52.69120 | 8.31359 | 94° | 24km/h | 21261m | 4.6m/s | -52.8°C | 3.9% | 47.5hPa | 2.6V | 00:00:00 | 01:31:24 | 00:00:00 | |
| DO2SHX-10 | 2026-09-01 05:03:04 | 52.69120 | 8.31350 | 90° | 24km/h | 21257m | 4.8m/s | -52.8°C | 3.9% | 47.5hPa | 2.6V | 00:00:00 | 01:31:23 | 08:30:00 | |
| DL1XH-15 | 2026-09-01 05:03:03 | 52.69116 | 8.31290 | 79° | 26km/h | 21224m | 5.5m/s | -52.7°C | 3.9% | 47.8hPa | 2.6V | 08:30:00 | 01:31:17 | 00:00:00 | |
| SONCRA | 2026-09-01 05:03:03 | 52.69119 | 8.31331 | 80° | 24km/h | 21245m | 5.0m/s | -52.9°C | 1.2% | 47.6hPa | 2.6V | 00:00:00 | 00:00:00 | 00:00:00 | |
| D01LWL | 2026-09-01 05:03:02 | 52.69119 | 8.31331 | 80° | 24km/h | 21245m | 5.0m/s | -52.9°C | 1.2% | 47.6hPa | 2.6V | 00:00:00 | 00:00:00 | 00:00:00 | |
| DO2SHX-10 | 2026-09-01 05:03:01 | 52.69118 | 8.31321 | 83° | 26km/h | 21240m | 5.5m/s | -52.8°C | 3.9% | 47.6hPa | 2.6V | 00:00:00 | 01:31:20 | 00:00:00 | |
| DL1XH1-15 | 2026-09-01 05:03:00 | 52.69110 | 8.31258 | 73° | 26km/h | 21209m | 5m/s | -52.6°C | 3.8% | 47.9hPa | 2.6V | 08:30:00 | 01:31:14 | 00:00:00 | |
| DL1XH-west | 2026-09-01 05:02:59 | 52.69117 | 8.31300 | 85° | 26km/h | 21229m | 4.3m/s | -52.8°C | 0.8% | 47.7hPa | 2.6V | 18:12:15 | 01:31:18 | 00:00:00 | |
| DO2JMG | 2026-09-01 05:02:58 | 52.69116 | 8.31290 | 80° | 26km/h | 21224m | 5.5m/s | -52.7°C | 0.7% | 47.8hPa | 2.6V | 18:12:15 | 01:31:17 | 00:00:00 | |
| DF8AY | 2026-09-01 05:02:57 | 52.69115 | 8.31279 | 73° | 27km/h | 21219m | 5.7m/s | -52.7°C | 0.7% | 47.9hPa | 2.7V | 18:12:15 | 01:31:16 | 00:00:00 | |
| HSKMA3-T | 2026-09-01 05:02:56 | 52.69112 | 8.31269 | 71° | 27km/h | 21214m | 4.1m/s | -52.6°C | 0.7% | 47.9hPa | 2.7V | 18:12:15 | 01:31:15 | 00:00:00 | |
| DB0DAN | 2026-09-01 05:02:55 | 52.69110 | 8.31258 | 73° | 26km/h | 21209m | 5m/s | -52.6°C | 1.1% | 47.9hPa | 2.6V | 00:00:00 | 00:00:00 | 00:00:00 | |
| BIOWL1-15 | 2026-09-01 05:02:54 | 52.69109 | 8.31248 | 81° | 26km/h | 21203m | 6.1m/s | -52.6°C | 0.6% | 48hPa | 2.6V | 18:12:15 | 01:31:13 | 00:00:00 | |
| DL1XH-15 | 2026-09-01 05:02:53 | 52.69110 | 8.31182 | 98° | 26km/h | 21172m | 6m/s | -52.4°C | 3.8% | 48.2hPa | 2.6V | 08:30:00 | 01:31:07 | 00:00:00 | |
| DL4XJ-10 | 2026-09-01 05:02:53 | 52.69108 | 8.31238 | 90° | 22km/h | 21198m | 4.7m/s | -55.0°C | 0% | 0hPa | 2.7V | 00:00:00 | 00:00:00 | 00:00:00 | |
| DO2SHX-10 | 2026-09-01 05:02:52 | 52.69108 | 8.31227 | 92° | 27km/h | 21193m | 4.9m/s | -52.4°C | 3.8% | 48.0hPa | 2.7V | 00:00:00 | 01:31:11 | 00:00:00 | |
| GOEST3-10 | 2026-09-01 05:02:51 | 52.69108 | 8.31216 | 90° | 26km/h | 21188m | 6.0m/s | -52.4°C | 3.8% | 48.0hPa | 2.7V | 00:00:00 | 00:00:00 | 00:00:00 | |
| DL1XH1-15 | 2026-09-01 05:02:50 | 52.69111 | 8.31155 | 79° | 20km/h | 21157m | 6.4m/s | -52.3°C | 3.8% | 48.3hPa | 2.7V | 08:30:00 | 01:31:04 | 00:00:00 | |
| DL1XH-west | 2026-09-01 05:02:48 | 52.69110 | 8.31182 | 99° | 26km/h | 21172m | 6m/s | -52.4°C | 0.6% | 48.2hPa | 2.6V | 18:12:15 | 01:31:07 | 00:00:00 | |
| DO2JMG | 2026-09-01 05:02:47 | 52.69111 | 8.31172 | 100° | 24km/h | 21167m | 4.4m/s | -52.3°C | 0.7% | 48.2hPa | 2.6V | 18:12:15 | 01:31:06 | 00:00:00 | |
| HSKMA3-T | 2026-09-01 05:02:46 | 52.69111 | 8.31163 | 91° | 22km/h | 21163m | 5m/s | -52.3°C | 0.6% | 48.3hPa | 2.7V | 18:12:15 | 01:31:05 | 00:00:00 | |
| DO2SHX-10 | 2026-09-01 05:02:46 | 52.69111 | 8.31163 | 92° | 20km/h | 21163m | 4.9m/s | -52.3°C | 3.8% | 48.2hPa | 2.7V | 00:00:00 | 01:31:05 | 00:00:00 | |
| DC6BW-12 | 2026-09-01 05:02:45 | 52.69111 | 8.31163 | 92° | 22km/h | 21163m | 5.0m/s | -52.3°C | 1.2% | 48.3hPa | 2.6V | 00:00:00 | 00:00:00 | 00:00:00 | |
| DL3AQ-11 | 2026-09-01 05:02:44 | 52.69107 | 8.31139 | 62° | 20km/h | 21147m | 4.2m/s | -52.2°C | 1.1% | 48.4hPa | 2.6V | 00:00:00 | 00:00:00 | 00:00:00 | |
| DL1XH-15 | 2026-09-01 05:02:43 | 52.69103 | 8.31103 | 89° | 18km/h | 21122m | 5.9m/s | -52.2°C | 3.7% | 48.5hPa | 2.6V | 08:30:00 | 01:30:57 | 00:00:00 | |
| BIOWL1-15 | 2026-09-01 05:02:43 | 52.69107 | 8.31139 | 63° | 20km/h | 21147m | 4.2m/s | -52.2°C | 0.5% | 48.4hPa | 2.6V | 18:12:15 | 01:31:02 | 00:00:00 | |
| DO2SHX-10 | 2026-09-01 05:02:43 | 52.69107 | 8.31138 | 63° | 18km/h | 21147m | 4.1m/s | -52.2°C | 3.7% | 48.3hPa | 2.7V | 00:00:00 | 01:31:02 | 00:00:00 | |
| DL4BBY-15 | 2026-09-01 05:02:42 | 52.69105 | 8.31131 | 66° | 15km/h | 21142m | 5.4m/s | -54.7°C | 0% | 0hPa | 2.7V | 00:00:00 | 00:00:00 | 00:00:00 | |
| DB0DAN | 2026-09-01 05:02:40 | 52.69103 | 8.31117 | 89° | 15km/h | 21131m | 4.3m/s | -52.2°C | 1.1% | 48.5hPa | 2.7V | 00:00:00 | 00:00:00 | 00:00:00 | |
| DL1XH1-15 | 2026-09-01 05:02:40 | 52.69104 | 8.31080 | 102° | 18km/h | 21106m | 6.1m/s | -52.2°C | 3.6% | 48.7hPa | 2.6V | 08:30:00 | 01:30:54 | 00:00:00 | |
| DL1XH-west | 2026-09-01 05:02:38 | 52.69103 | 8.31103 | 90° | 18km/h | 21122m | 5.9m/s | -52.2°C | 0.6% | 48.5hPa | 2.6V | 18:12:15 | 01:30:57 | 00:00:00 | |
| DO2JMG | 2026-09-01 05:02:36 | 52.69103 | 8.31088 | 94° | 18km/h | 21111m | 4.9m/s | -52.2°C | 0.5% | 48.6hPa | 2.6V | 18:12:15 | 01:30:55 | 00:00:00 | |
| BIOWL1-15 | 2026-09-01 05:02:35 | 52.69107 | 8.31065 | 105° | 18km/h | 21096m | 4.5m/s | -52.3°C | 0.5% | 48.8hPa | 2.7V | 18:12:15 | 01:30:52 | 00:00:00 | |
| HSKMA3-T | 2026-09-01 05:02:35 | 52.69104 | 8.31080 | 103° | 18km/h | 21106m | 6.1m/s | -52.3°C | 0.5% | 48.7hPa | 2.6V | 18:12:15 | 01:30:54 | 00:00:00 | |
| DB0NH | 2026-09-01 05:02:35 | 52.69104 | 8.31080 | 103° | 15km/h | 21106m | 6.0m/s | -52.2°C | 3.6% | 48.6hPa | 2.6V | 00:00:00 | 01:30:54 | 00:00:00 | |
| DO2SHX-10 | 2026-09-01 05:02:34 | 52.69105 | 8.31072 | 108° | 18km/h | 21100m | 5.0m/s | -52.2°C | 3.5% | 48.7hPa | 2.6V | 00:00:00 | 01:30:53 | 00:00:00 | |
| DL4XJ-10 | 2026-09-01 05:02:33 | 52.69107 | 8.31065 | 106° | 15km/h | 21096m | 4.5m/s | -54.8°C | 0% | 0hPa | 2.6V | 00:00:00 | 00:00:00 | 00:00:00 | |
| SONCRA | 2026-09-01 05:02:32 | 52.69107 | 8.31051 | 81° | 15km/h | 21084m | 4.9m/s | -52.4°C | 1.1% | 48.9hPa | 2.6V | 00:00:00 | 00:00:00 | 00:00:00 | |
| DO2SHX-10 | 2026-09-01 05:02:31 | 52.69107 | 8.31051 | 82° | 15km/h | 21085m | 4.9m/s | -52.3°C | 3.7% | 48.8hPa | 2.6V | 00:00:00 | 01:30:50 | 00:00:00 | |
| DL1XH1-15 | 2026-09-01 05:02:30 | 52.69103 | 8.31018 | 79° | 15km/h | 21053m | 5.3m/s | -52.7°C | 3.9% | 49.1hPa | 2.6V | 08:30:00 | 01:30:44 | 00:00:00 | |
| DL1XH-west | 2026-09-01 05:02:27 | 52.69104 | 8.31029 | 82° | 11km/h | 21064m | 3.9m/s | -52.6°C | 0.6% | 49hPa | 2.7V | 18:12:15 | 01:30:46 | 00:00:00 | |
| DB0DAN | 2026-09-01 05:02:25 | 52.69103 | 8.31018 | 80° | 15km/h | 21053m | 5.3m/s | -52.7°C | 1.2% | 49.09hPa | 2.6V | 00:00:00 | 00:00:00 | 00:00:00 | |
| DO2JMG | 2026-09-01 05:02:25 | 52.69103 | 8.31018 | 80° | 15km/h | 21053m | 5.3m/s | -52.7°C | 0.7% | 49.1hPa | 2.6V | 18:12:15 | 01:30:44 | 00:00:00 | |
| AA1-15 | 2026-09-01 05:02:24 | 52.69103 | 8.31012 | 86° | 16km/h | 21048m | 4.7m/s | -52.7°C | 0.7% | 49.1hPa | 2.6V | 18:12:15 | 01:30:43 | 00:00:00 | |
| BIOWL1-15 | 2026-09-01 05:02:23 | 52.69103 | 8.31006 | 95° | 15km/h | 21042m | 6.3m/s | -52.7°C | 0.7% | 49.2hPa | 2.7V | 18:12:15 | 01:30:42 | 00:00:00 | |
| DO2SHX-10 | 2026-09-01 05:02:22 | 52.69103 | 8.30999 | 99° | 15km/h | 21037m | 4.5m/s | -52.6°C | 3.9% | 49.2hPa | 2.6V | 00:00:00 | 01:30:41 | 00:00:00 | |
| GOEST3-10 | 2026-09-01 05:02:21 | 52.69103 | 8.30993 | 90° | 15km/h | 21032m | 4.2m/s | -52.6°C | 3.9% | 49.2hPa | 2.6V | 00:00:00 | 00:00:00 | 00:00:00 | |
| DL1XH1-15 | 2026-09-01 05:02:20 | 52.69096 | 8.30964 | 59° | 9km/h | 21001m | 3.9m/s | -52.8°C | 3.8% | 49.5hPa | 2.6V | 08:30:00 | 01:30:34 | 00:00:00 | |
| DL1XH-west | 2026-09-01 05:02:17 | 52.69098 | 8.30971 | 57° | 11km/h | 21010m | 6.4m/s | -52.8°C | 0.7% | 49.4hPa | 2.7V | 18:12:15 | 01:30:36 | 00:00:00 | |
| DO2JMG | 2026-09-01 05:02:15 | 52.69096 | 8.30964 | 59° | 9km/h | 21001m | 3.9m/s | -52.8°C | 0.7% | 49.5hPa | 2.6V | 18:12:15 | 01:30:34 | 00:00:00 | |
| HSKMA3-T | 2026-09-01 05:02:14 | 52.69094 | 8.30961 | 60° | 11km/h | 20996m | 5.7m/s | -52.8°C | 0.6% | 49.5hPa | 2.6V | 18:12:15 | 01:30:33 | 00:00:00 | |
| DL1XH-15 | 2026-09-01 05:02:13 | 52.69092 | 8.30927 | 105° | 16km/h | 20964m | 5.1m/s | -52.7°C | 3.8% | 49.8hPa | 2.6V | 08:30:00 | 01:30:27 | 00:00:00 | |
| AA1-15 | 2026-09-01 05:02:13 | 52.69093 | 8.30956 | 64° | 13km/h | 20990m | 5.5m/s | -52.7°C | 0.6% | 49.6hPa | 2.6V | 18:12:15 | 01:30:32 | 00:00:00 | |
| BIOWL1-15 | 2026-09-01 05:02:12 | 52.69092 | 8.30951 | 71° | 15km/h | 20985m | 4.7m/s | -52.7°C | 0.6% | 49.6hPa | 2.7V | 18:12:15 | 01:30:31 | 00:00:00 | |
| DL4BBY-15 | 2026-09-01 05:02:12 | 52.69092 | 8.30951 | 71° | 18km/h | 20985m | 4.7m/s | -55.2°C | 0% | 0hPa | 2.7V | 00:00:00 | 00:00:00 | 00:00:00 | |
| GOEST3-10 | 2026-09-01 05:02:11 | 52.69091 | 8.30945 | 81° | 15km/h | 20981m | 4.2m/s | -52.6°C | 3.7% | 49.6hPa | 2.7V | 00:00:00 | 00:00:00 | 00:00:00 | |
| DL1XH1-15 | 2026-09-01 05:02:10 | 52.69093 | 8.30906 | 83° | 16km/h | 20950m | 4.5m/s | -52.7°C | 3.9% | 49.9hPa | 2.7V | 08:30:00 | 01:30:24 | 00:00:00 | |
| DL1XH-west | 2026-09-01 05:02:06 | 52.69093 | 8.30913 | 89° | 18km/h | 20954m | 4.2m/s | -52.7°C | 0.6% | 49.9hPa | 2.6V | 18:12:15 | 01:30:25 | 00:00:00 | |
| HSKMA3-T | 2026-09-01 05:02:04 | 52.69092 | 8.30900 | 81° | 15km/h | 20944m | 5.8m/s | -52.7°C | 0.7% | 49.9hPa | 2.7V | 18:12:15 | 01:30:23 | 00:00:00 | |
| AA1-15 | 2026-09-01 05:02:02 | 52.69091 | 8.30889 | 75° | 13km/h | 20934m | 5.1m/s | -52.7°C | 0.7% | 50hPa | 2.6V | 18:12:15 | 01:30:21 | 00:00:00 | |
| BIOWL1-15 | 2026-09-01 05:02:01 | 52.69090 | 8.30884 | 67° | 16km/h | 20928m | 6.2m/s | -52.6°C | 0.7% | 50.1hPa | 2.6V | 18:12:15 | 01:30:20 | 00:00:00 | |
| D01LWL | 2026-09-01 05:02:00 | 52.69086 | 8.30870 | 57° | 18km/h | 20918m | 4.3m/s | -52.7°C | 1.1% | 50.1hPa | 2.7V | 00:00:00 | 00:00:00 | 00:00:00 | |
| DL1ZP-14 | 2026-09-01 05:01:58 | 52.69083 | 8.30864 | 55° | 16km/h | 20912m | 6.1m/s | 0°C | -1.0% | -1.0hPa | 2.7V | 00:00:00 | 00:00:00 | 00:00:00 | |
| EDDB2-12 | 2026-09-01 05:01:56 | 52.69075 | 8.30844 | 63° | 22km/h | 20897m | 6.2m/s | -52.9°C | 1.2% | 50.3hPa | 2.6V | 00:00:00 | 00:00:00 | 00:00:00 | |
| DB0DAN | 2026-09-01 05:01:55 | 52.69075 | 8.30844 | 63° | 22km/h | 20897m | 6.2m/s | -52.9°C | 1.2% | 50.29hPa | 2.6V | 00:00:00 | 00:00:00 | 00:00:00 | |
| DL1XH-west | 2026-09-01 05:01:55 | 52.69075 | 8.30844 | 64° | 22km/h | 20897m | 6.2m/s | -52.9°C | 0.7% | 50.3hPa | 2.6V | 18:12:15 | 01:30:14 | 00:00:00 | |
| DO2JMG | 2026-09-01 05:01:53 | 52.69072 | 8.30826 | 77° | 22km/h | 20886m | 5.8m/s | -52.9°C | 0.6% | 50.4hPa | 2.7V | 18:12:15 | 01:30:12 | 00:00:00 | |
| BIOWL1-15 | 2026-09-01 05:01:52 | 52.69070 | 8.30801 | 88° | 20km/h | 20870m | 6m/s | -52.8°C | 0.7% | 50.5hPa | 2.6V | 18:12:15 | 01:30:09 | 00:00:00 | |
| AA1-15 | 2026-09-01 05:01:51 | 52.69070 | 8.30809 | 90° | 20km/h | 20875m | 4.4m/s | -52.9°C | 0.7% | 50.5hPa | 2.6V | 18:12:15 | 01:30:10 | 00:00:00 | |
| DL1XH-west | 2026-09-01 05:01:45 | 52.69064 | 8.30768 | 44° | 15km/h | 20844m | 4.6m/s | -52.7°C | 0.7% | 50.7hPa | 2.6V | 18:12:15 | 01:30:04 | 00:00:00 | |
| DF7PN | 2026-09-01 05:01:45 | 52.69061 | 8.30763 | 41° | 16km/h | 20839m | 6.3m/s | -52.7°C | 1.2% | 50.8hPa | 2.7V | 00:00:00 | 00:00:00 | 00:00:00 | |
| DO2JMG | 2026-09-01 05:01:42 | 52.69053 | 8.30753 | 42° | 18km/h | 20828m | 4.3m/s | -52.6°C | 0.7% | 50.9hPa | 2.7V | 18:12:15 | 01:30:01 | 00:00:00 | |
| BIOWL1-15 | 2026-09-01 05:01:41 | 52.69045 | 8.30738 | 63° | 16km/h | 20813m | 5m/s | -52.5°C | 0.7% | 51hPa | 2.6V | 18:12:15 | 01:29:58 | 00:00:00 | |
| DB0DAN | 2026-09-01 05:01:40 | 52.69047 | 8.30743 | 52° | 15km/h | 20818m | 4.9m/s | -52.6°C | 1.1% | 50.93hPa | 2.6V | 00:00:00 | 00:00:00 | 00:00:00 | |
| AA1-15 | 2026-09-01 05:01:40 | 52.69047 | 8.30743 | 52° | 15km/h | 20818m | 4.9m/s | -52.6°C | 0.7% | 50.9hPa | 2.6V | 18:12:15 | 01:29:59 | 00:00:00 | |
| DL1XH1-15 | 2026-09-01 05:01:40 | 52.69038 | 8.30713 | 54° | 13km/h | 20793m | 5.9m/s | -52.4°C | 3.8% | 51.1hPa | 2.7V | 08:30:00 | 01:29:54 | 00:00:00 | |
| DL1XH-west | 2026-09-01 05:01:35 | 52.69038 | 8.30712 | 55° | 13km/h | 20793m | 5.9m/s | -52.4°C | 0.7% | 51.1hPa | 2.7V | 18:12:15 | 01:29:54 | 00:00:00 | |
| DB0NH | 2026-09-01 05:01:35 | 52.69038 | 8.30712 | 55° | 11km/h | 20793m | 5.8m/s | -52.4°C | 3.8% | 51.1hPa | 2.7V | 00:00:00 | 01:29:54 | 00:00:00 | |
| DO2SHX-10 | 2026-09-01 05:01:34 | 52.69036 | 8.30709 | 36° | 13km/h | 20788m | 4.4m/s | -52.4°C | 3.8% | 51.1hPa | 2.7V | 00:00:00 | 01:29:53 | 00:00:00 | |
| DL1XH-15 | 2026-09-01 05:01:33 | 52.69019 | 8.30691 | 29° | 13km/h | 20756m | 4.7m/s | -52.2°C | 3.8% | 51.4hPa | 2.6V | 08:30:00 | 01:29:47 | 00:00:00 | |
| HSKMA3-T | 2026-09-01 05:01:32 | 52.69031 | 8.30704 | 30° | 15km/h | 20778m | 5.9m/s | -52.4°C | 0.7% | 51.2hPa | 2.6V | 18:12:15 | 01:29:51 | 00:00:00 | |
| DO2JMG | 2026-09-01 05:01:31 | 52.69028 | 8.30701 | 33° | 15km/h | 20772m | 5.2m/s | -52.3°C | 0.6% | 51.3hPa | 2.6V | 18:12:15 | 01:29:50 | 00:00:00 | |
| BIOWL1-15 | 2026-09-01 05:01:30 | 52.69019 | 8.30691 | 29° | 13km/h | 20756m | 4.7m/s | -52.3°C | 0.6% | 51.4hPa | 2.6V | 18:12:15 | 01:29:47 | 00:00:00 | |
| AA1-15 | 2026-09-01 05:01:29 | 52.69022 | 8.30694 | 28° | 15km/h | 20762m | 6.4m/s | -52.3°C | 0.6% | 51.4hPa | 2.7V | 18:12:15 | 01:29:48 | 00:00:00 | |
| DF8AY | 2026-09-01 05:01:27 | 52.69006 | 8.30668 | 42° | 9km/h | 20724m | 4.8m/s | -52.2°C | 0.6% | 51.7hPa | 2.6V | 18:12:15 | 01:29:41 | 00:00:00 | |
| DL1XH-west | 2026-09-01 05:01:24 | 52.69009 | 8.30675 | 55° | 15km/h | 20735m | 4.6m/s | -52.2°C | 0.6% | 51.6hPa | 2.7V | 18:12:15 | 01:29:43 | 00:00:00 | |
| DL3AQ-11 | 2026-09-01 05:01:24 | 52.69007 | 8.30671 | 50° | 11km/h | 20730m | 6.2m/s | -52.2°C | 1.1% | 51.6hPa | 2.7V | 00:00:00 | 00:00:00 | 00:00:00 | |
| DL1XH-15 | 2026-09-01 05:01:23 | 52.68998 | 8.30659 | 12° | 9km/h | 20704m | 4.9m/s | -52.2°C | 3.7% | 51.8hPa | 2.7V | 08:30:00 | 01:29:37 | 00:00:00 | |
| HSKMA3-T | 2026-09-01 05:01:21 | 52.69004 | 8.30665 | 36° | 9km/h | 20719m | 4.6m/s | -52.2°C | 0.6% | 51.7hPa | 2.6V | 18:12:15 | 01:29:40 | 00:00:00 | |
| GOEST3-10 | 2026-09-01 05:01:21 | 52.69004 | 8.30665 | 36° | 9km/h | 20720m | 4.5m/s | -52.1°C | 3.7% | 51.6hPa | 2.6V | 00:00:00 | 00:00:00 | 00:00:00 | |
| DL1XH1-15 | 2026-09-01 05:01:20 | 52.68992 | 8.30659 | 9° | 9km/h | 20689m | 5.7m/s | -52.1°C | 3.7% | 52hPa | 2.6V | 08:30:00 | 01:29:34 | 00:00:00 | |
| DO2JMG | 2026-09-01 05:01:20 | 52.69002 | 8.30663 | 39° | 9km/h | 20714m | 5.8m/s | -52.2°C | 0.5% | 51.8hPa | 2.6V | 18:12:15 | 01:29:39 | 00:00:00 | |
| AA1-15 | 2026-09-01 05:01:18 | 52.68998 | 8.30659 | 13° | 9km/h | 20704m | 4.9m/s | -52.2°C | 0.6% | 51.8hPa | 2.7V | 18:12:15 | 01:29:37 | 00:00:00 | |
| DL1XH-west | 2026-09-01 05:01:13 | 52.68988 | 8.30654 | 48° | 11km/h | 20678m | 4.4m/s | -52.1°C | 0.6% | 52.1hPa | 2.7V | 18:12:15 | 01:29:32 | 00:00:00 | |
| HSKMA3-T | 2026-09-01 05:01:11 | 52.68985 | 8.30648 | 57° | 7km/h | 20668m | 6m/s | -52.1°C | 0.6% | 52.2hPa | 2.6V | 18:12:15 | 01:29:30 | 00:00:00 | |
| DO2JMG | 2026-09-01 05:01:09 | 52.68983 | 8.30643 | 71° | 7km/h | 20658m | 5.1m/s | -52°C | 0.6% | 52.2hPa | 2.6V | 18:12:15 | 01:29:28 | 00:00:00 | |
| BIOWL1-15 | 2026-09-01 05:01:07 | 52.68982 | 8.30636 | 78° | 9km/h | 20647m | 5m/s | -52.1°C | 0.5% | 52.3hPa | 2.7V | 18:12:15 | 01:29:26 | 00:00:00 | |
| DO2SHX-10 | 2026-09-01 05:01:07 | 52.68982 | 8.30636 | 78° | 5km/h | 20647m | 5.0m/s | -52.0°C | 3.6% | 52.3hPa | 2.7V | 00:00:00 | 01:29:26 | 00:00:00 | |
| DB0UT-7 | 2026-09-01 05:01:06 | 52.68982 | 8.30633 | 72° | 16km/h | 20642m | 4.8m/s | -52.0°C | 3.6% | 52.3hPa | 2.6V | 00:00:00 | 00:00:00 | 00:00:00 | |
| DB0NH | 2026-09-01 05:01:05 | 52.68981 | 8.30632 | 75° | 16km/h | 20637m | 6.3m/s | -52.1°C | 3.6% | 52.3hPa | 2.6V | 00:00:00 | 01:29:24 | 00:00:00 | |
| DO2SHX-10 | 2026-09-01 05:01:04 | 52.68981 | 8.30630 | 92° | 4km/h | 20632m | 3.8m/s | -52.1°C | 3.6% | 52.4hPa | 2.6V | 00:00:00 | 01:29:23 | 00:00:00 | |
| DL1XH-15 | 2026-09-01 05:01:03 | 52.68982 | 8.30614 | 90° | 13km/h | 20600m | 5.6m/s | -52.5°C | 3.7% | 52.7hPa | 2.6V | 08:30:00 | 01:29:17 | 00:00:00 | |
| DL1XH-west | 2026-09-01 05:01:03 | 52.68981 | 8.30629 | 87° | 4km/h | 20626m | 6.2m/s | -52.1°C | 0.5% | 52.5hPa | 2.7V | 18:12:15 | 01:29:22 | 00:00:00 | |
| DF8AY | 2026-09-01 05:01:01 | 52.68981 | 8.30624 | 96° | 7km/h | 20615m | 4.7m/s | -52.2°C | 0.5% | 52.6hPa | 2.7V | 18:12:15 | 01:29:20 | 00:00:00 | |
| HSKMA3-T | 2026-09-01 05:01:00 | 52.68981 | 8.30621 | 99° | 7km/h | 20610m | 6.2m/s | -52.3°C | 0.6% | 52.6hPa | 2.6V | 18:12:15 | 01:29:19 | 00:00:00 | |
| DO2JMG | 2026-09-01 05:00:58 | 52.68982 | 8.30614 | 91° | 13km/h | 20600m | 5.6m/s | -52.5°C | 0.6% | 52.7hPa | 2.6V | 18:12:15 | 01:29:17 | 00:00:00 | |
| BIOWL1-15 | 2026-09-01 05:00:57 | 52.68982 | 8.30608 | 86° | 16km/h | 20594m | 6.3m/s | -52.5°C | 0.7% | 52.7hPa | 2.6V | 18:12:15 | 01:29:16 | 00:00:00 | |
| AA1-15 | 2026-09-01 05:00:56 | 52.68981 | 8.30600 | 83° | 20km/h | 20588m | 4.6m/s | -52.5°C | 0.6% | 52.8hPa | 2.7V | 18:12:15 | 01:29:15 | 00:00:00 | |
| DB0DAN | 2026-09-01 05:00:55 | 52.68981 | 8.30592 | 82° | 18km/h | 20583m | 4.9m/s | -52.5°C | 1.1% | 52.82hPa | 2.7V | 00:00:00 | 00:00:00 | 00:00:00 | |
| DO2SHX-10 | 2026-09-01 05:00:55 | 52.68981 | 8.30592 | 83° | 18km/h | 20584m | 4.8m/s | -52.5°C | 3.8% | 52.8hPa | 2.6V | 00:00:00 | 01:29:14 | 00:00:00 | |
| DK9SH | 2026-09-01 05:00:54 | 52.68981 | 8.30592 | 83° | 18km/h | 20584m | 4.9m/s | -52.5°C | 1.1% | 52.8hPa | 2.6V | 00:00:00 | 00:00:00 | 00:00:00 | |
| DL1XH-15 | 2026-09-01 05:00:53 | 52.68984 | 8.30536 | 100° | 20km/h | 20546m | 5.9m/s | -52.6°C | 3.8% | 53.1hPa | 2.6V | 08:30:00 | 01:29:07 | 00:00:00 | |
| DL1XH-west | 2026-09-01 05:00:52 | 52.68980 | 8.30571 | 97° | 18km/h | 20568m | 5m/s | -52.5°C | 0.7% | 52.9hPa | 2.6V | 18:12:15 | 01:29:11 | 00:00:00 | |
| DF8AY | 2026-09-01 05:00:51 | 52.68981 | 8.30563 | 99° | 20km/h | 20562m | 6.6m/s | -52.5°C | 0.6% | 53hPa | 2.6V | 18:12:15 | 01:29:10 | 00:00:00 | |
| HSKMA3-T | 2026-09-01 05:00:49 | 52.68983 | 8.30545 | 100° | 22km/h | 20551m | 4.6m/s | -52.6°C | 0.7% | 53.1hPa | 2.7V | 18:12:15 | 01:29:08 | 00:00:00 | |
| DO2JMG | 2026-09-01 05:00:48 | 52.68984 | 8.30536 | 100° | 20km/h | 20546m | 5.9m/s | -52.6°C | 0.7% | 53.1hPa | 2.6V | 18:12:15 | 01:29:07 | 00:00:00 | |
| BIOWL1-15 | 2026-09-01 05:00:46 | 52.68985 | 8.30521 | 96° | 18km/h | 20537m | 4.1m/s | -52.6°C | 0.7% | 53.2hPa | 2.6V | 18:12:15 | 01:29:05 | 00:00:00 | |
| AA1-15 | 2026-09-01 05:00:45 | 52.68986 | 8.30512 | 93° | 22km/h | 20531m | 6m/s | -52.5°C | 0.6% | 53.2hPa | 2.7V | 18:12:15 | 01:29:04 | 00:00:00 | |
| HTAHTA | 2026-09-01 05:00:44 | 52.68986 | 8.30503 | 86° | 22km/h | 20526m | 4.4m/s | -52.5°C | 1.2% | 53.3hPa | 2.7V | 00:00:00 | 00:00:00 | 00:00:00 | |
| DL1XH-15 | 2026-09-01 05:00:43 | 52.68973 | 8.30457 | 58° | 22km/h | 20496m | 4.7m/s | -52.3°C | 3.8% | 53.6hPa | 2.7V | 08:30:00 | 01:28:57 | 00:00:00 | |
| DL1XH-west | 2026-09-01 05:00:41 | 52.68982 | 8.30479 | 59° | 18km/h | 20511m | 4.8m/s | -52.4°C | 0.7% | 53.4hPa | 2.6V | 18:12:15 | 01:29:00 | 00:00:00 | |
| GOEST3-10 | 2026-09-01 05:00:41 | 52.68982 | 8.30479 | 60° | 20km/h | 20511m | 4.8m/s | -52.3°C | 3.9% | 53.4hPa | 2.6V | 00:00:00 | 00:00:00 | 00:00:00 | |
| DL1XH1-15 | 2026-09-01 05:00:40 | 52.68965 | 8.30436 | 55° | 16km/h | 20481m | 5.2m/s | -52.3°C | 3.8% | 53.7hPa | 2.6V | 08:30:00 | 01:28:54 | 00:00:00 | |
| DB0DAN | 2026-09-01 05:00:40 | 52.68979 | 8.30472 | 54° | 18km/h | 20506m | 3.7m/s | -52.4°C | 1.1% | 53.46hPa | 2.6V | 00:00:00 | 00:00:00 | 00:00:00 | |
| DF8AY | 2026-09-01 05:00:40 | 52.68979 | 8.30472 | 54° | 20km/h | 20506m | 3.7m/s | -52.4°C | 0.6% | 53.5hPa | 2.6V | 18:12:15 | 01:28:59 | 00:00:00 | |
| HSKMA3-T | 2026-09-01 05:00:39 | 52.68976 | 8.30465 | 55° | 22km/h | 20501m | 5.9m/s | -52.4°C | 0.6% | 53.5hPa | 2.7V | 18:12:15 | 01:28:58 | 00:00:00 | |
| DO2JMG | 2026-09-01 05:00:37 | 52.68970 | 8.30450 | 60° | 22km/h | 20492m | 4.3m/s | -52.3°C | 0.6% | 53.6hPa | 2.6V | 18:12:15 | 01:28:56 | 00:00:00 | |
| AA1-15 | 2026-09-01 05:00:35 | 52.68965 | 8.30436 | 55° | 16km/h | 20481m | 5.2m/s | -52.3°C | 0.6% | 53.7hPa | 2.6V | 18:12:15 | 01:28:54 | 00:00:00 | |
| DB0NH | 2026-09-01 05:00:35 | 52.68965 | 8.30436 | 56° | 20km/h | 20482m | 5.2m/s | -52.3°C | 3.8% | 53.6hPa | 2.6V | 00:00:00 | 01:28:54 | 08:30:00 | |
| DO2SHX-10 | 2026-09-01 05:00:34 | 52.68962 | 8.30430 | 62° | 15km/h | 20477m | 4.2m/s | -52.2°C | 3.7% | 53.7hPa | 2.7V | 00:00:00 | 01:28:53 | 00:00:00 | |
| DL1XH-15 | 2026-09-01 05:00:33 | 52.68957 | 8.30396 | 58° | 16km/h | 20447m | 4.1m/s | -52.3°C | 3.8% | 54hPa | 2.7V | 08:30:00 | 01:28:47 | 00:00:00 | |
| DL1XH-west | 2026-09-01 05:00:30 | 52.68960 | 8.30407 | 81° | 13km/h | 20456m | 6.1m/s | -52.3°C | 0.7% | 53.9hPa | 2.6V | 18:12:15 | 01:28:49 | 00:00:00 | |
| HSKMA3-T | 2026-09-01 05:00:29 | 52.68959 | 8.30402 | 66° | 13km/h | 20451m | 4.3m/s | -52.3°C | 0.7% | 53.9hPa | 2.6V | 18:12:15 | 01:28:48 | 00:00:00 | |
| BIOWL1-15 | 2026-09-01 05:00:27 | 52.68949 | 8.30375 | 54° | 24km/h | 20432m | 4.4m/s | -52.2°C | 0.6% | 54.1hPa | 2.6V | 18:12:15 | 01:28:44 | 00:00:00 | |
| DO2JMG | 2026-09-01 05:00:26 | 52.68952 | 8.30383 | 58° | 22km/h | 20436m | 4.9m/s | -52.2°C | 0.6% | 54hPa | 2.6V | 18:12:15 | 01:28:45 | 00:00:00 | |
| DB0DAN | 2026-09-01 05:00:25 | 52.68949 | 8.30375 | 54° | 24km/h | 20432m | 4.4m/s | -52.2°C | 1.1% | 54.1hPa | 2.6V | 00:00:00 | 00:00:00 | 00:00:00 | |
| AA1-15 | 2026-09-01 05:00:24 | 52.68945 | 8.30367 | 46° | 24km/h | 20426m | 5.7m/s | -52.2°C | 0.6% | 54.2hPa | 2.6V | 18:12:15 | 01:28:43 | 00:00:00 | |
| DL1XH-west | 2026-09-01 05:00:20 | 52.68927 | 8.30342 | 44° | 22km/h | 20405m | 5.5m/s | -52°C | 0.6% | 54.3hPa | 2.6V | 18:12:15 | 01:28:39 | 00:00:00 | |
| HSKMA3-T | 2026-09-01 05:00:18 | 52.68920 | 8.30330 | 44° | 18km/h | 20395m | 6.1m/s | -52°C | 0.5% | 54.4hPa | 2.6V | 18:12:15 | 01:28:37 | 00:00:00 | |
| DO2JMG | 2026-09-01 05:00:15 | 52.68910 | 8.30313 | 53° | 20km/h | 20380m | 5.9m/s | -51.9°C | 0.5% | 54.5hPa | 2.7V | 18:12:15 | 01:28:34 | 00:00:00 | |
| BIOWL1-15 | 2026-09-01 05:00:14 | 52.68907 | 8.30306 | 54° | 22km/h | 20375m | 4.4m/s | -51.9°C | 0.6% | 54.5hPa | 2.7V | 18:12:15 | 01:28:33 | 00:00:00 | |
| DL1XH-15 | 2026-09-01 05:00:13 | 52.68883 | 8.30268 | 43° | 22km/h | 20346m | 3.8m/s | -51.9°C | 3.7% | 54.8hPa | 2.6V | 08:30:00 | 01:28:27 | 00:00:00 | |
| DO2SHX-10 | 2026-09-01 05:00:13 | 52.68903 | 8.30299 | 50° | 22km/h | 20370m | 4.7m/s | -51.8°C | 3.7% | 54.5hPa | 2.6V | 00:00:00 | 01:28:32 | 00:00:00 | |
| AA1-15 | 2026-09-01 05:00:13 | 52.68903 | 8.30299 | 50° | 22km/h | 20370m | 4.8m/s | -51.9°C | 0.6% | 54.6hPa | 2.6V | 18:12:15 | 01:28:32 | 00:00:00 | |
| DL4XJ-10 | 2026-09-01 05:00:12 | 52.68900 | 8.30292 | 44° | 16km/h | 20365m | 5.5m/s | -54.4°C | 0% | 0hPa | 2.7V | 00:00:00 | 00:00:00 | 00:00:00 | |
| DO3DL | 2026-09-01 05:00:11 | 52.68899 | 8.30292 | 45° | 22km/h | 20365m | 5.6m/s | -51.9°C | 1.1% | 54.6hPa | 2.7V | 00:00:00 | 00:00:00 | 00:00:00 | |
| DB0DAN | 2026-09-01 05:00:10 | 52.68891 | 8.30281 | 40° | 22km/h | 20355m | 4.9m/s | -51.9°C | 1.1% | 54.73hPa | 2.7V | 00:00:00 | 00:00:00 | 00:00:00 | |
| DM0DOS-11 | 2026-09-01 05:00:10 | 52.68872 | 8.30254 | 30° | 16km/h | 20331m | 4.9m/s | -52°C | 3.7% | 55hPa | 2.7V | 08:30:00 | 01:28:24 | 00:00:00 | |
| DL1XH-west | 2026-09-01 05:00:10 | 52.68891 | 8.30281 | 40° | 22km/h | 20355m | 4.9m/s | -51.9°C | 0.6% | 54.7hPa | 2.7V | 18:12:15 | 01:28:29 | 00:00:00 | |
| DF8AY | 2026-09-01 05:00:09 | 52.68887 | 8.30274 | 43° | 24km/h | 20350m | 5.7m/s | -51.9°C | 0.5% | 54.8hPa | 2.7V | 18:12:15 | 01:28:28 | 00:00:00 | |
| HSKMA3-T | 2026-09-01 05:00:08 | 52.68883 | 8.30268 | 44° | 22km/h | 20346m | 3.8m/s | -52°C | 0.5% | 54.8hPa | 2.6V | 18:12:15 | 01:28:27 | 00:00:00 | |
| DO2JMG | 2026-09-01 05:00:04 | 52.68868 | 8.30250 | 34° | 16km/h | 20326m | 6m/s | -52.1°C | 0.6% | 55hPa | 2.7V | 18:12:15 | 01:28:23 | 00:00:00 | |
| AA1-15 | 2026-09-01 05:00:02 | 52.68862 | 8.30242 | 46° | 15km/h | 20315m | 4.4m/s | -52.1°C | 0.6% | 55.1hPa | 2.6V | 18:12:15 | 01:28:21 | 00:00:00 | |
| DO2SHX-10 | 2026-09-01 05:00:01 | 52.68860 | 8.30238 | 46° | 9km/h | 20310m | 5.5m/s | -52.0°C | 3.8% | 55.1hPa | 2.6V | 00:00:00 | 01:28:20 | 00:00:00 | |
| DL1XH1-15 | 2026-09-01 05:00:00 | 52.68853 | 8.30214 | 77° | 13km/h | 20280m | 5m/s | -51.9°C | 3.7% | 55.4hPa | 2.6V | 08:30:00 | 01:28:14 | 00:00:00 | |
| DL1XH-west | 2026-09-01 04:59:59 | 52.68856 | 8.30232 | 50° | 7km/h | 20300m | 4.3m/s | -52°C | 0.6% | 55.2hPa | 2.7V | 18:12:15 | 01:28:18 | 00:00:00 | |
| DF8AY | 2026-09-01 04:59:58 | 52.68855 | 8.30229 | 64° | 9km/h | 20295m | 4.9m/s | -52°C | 0.6% | 55.3hPa | 2.7V | 18:12:15 | 01:28:17 | 00:00:00 | |
| HSKMA3-T | 2026-09-01 04:59:57 | 52.68854 | 8.30225 | 77° | 13km/h | 20290m | 5.6m/s | -52°C | 0.6% | 55.3hPa | 2.6V | 18:12:15 | 01:28:16 | 00:00:00 | |
| BIOWL1-15 | 2026-09-01 04:59:53 | 52.68851 | 8.30205 | 55° | 11km/h | 20270m | 3.9m/s | -51.9°C | 0.6% | 55.5hPa | 2.7V | 18:12:15 | 01:28:12 | 00:00:00 | |
| AA1-15 | 2026-09-01 04:59:51 | 52.68846 | 8.30197 | 48° | 15km/h | 20260m | 5.7m/s | -51.8°C | 0.6% | 55.5hPa | 2.6V | 18:12:15 | 01:28:10 | 00:00:00 | |
| DL1XH-west | 2026-09-01 04:59:48 | 52.68838 | 8.30186 | 31° | 11km/h | 20244m | 5.2m/s | -51.8°C | 0.5% | 55.7hPa | 2.7V | 18:12:15 | 01:28:07 | 00:00:00 | |
| HSKMA3-T | 2026-09-01 04:59:46 | 52.68834 | 8.30180 | 43° | 11km/h | 20234m | 6.2m/s | -51.9°C | 0.6% | 55.8hPa | 2.6V | 18:12:15 | 01:28:05 | 00:00:00 | |
| SONDE2-11 | 2026-09-01 04:59:45 | 52.68830 | 8.30173 | 60° | 9km/h | 20225m | 4.4m/s | -51.9°C | 1.1% | 55.8hPa | 2.7V | 00:00:00 | 00:00:00 | 00:00:00 | |
| DO2JMG | 2026-09-01 04:59:43 | 52.68829 | 8.30170 | 70° | 7km/h | 20220m | 5.7m/s | -51.8°C | 0.6% | 55.9hPa | 2.7V | 18:12:15 | 01:28:02 | 00:00:00 | |
| BIOWL1-15 | 2026-09-01 04:59:42 | 52.68829 | 8.30167 | 72° | 7km/h | 20214m | 4.6m/s | -51.9°C | 0.6% | 55.9hPa | 2.7V | 18:12:15 | 01:28:01 | 00:00:00 | |
| DO2SHX-10 | 2026-09-01 04:59:42 | 52.68829 | 8.30167 | 72° | 9km/h | 20215m | 4.6m/s | -51.8°C | 3.7% | 55.9hPa | 2.7V | 00:00:00 | 01:28:01 | 00:00:00 | |
| GOEST3-10 | 2026-09-01 04:59:41 | 52.68828 | 8.30164 | 71° | 11km/h | 20210m | 5.0m/s | -51.8°C | 3.8% | 55.9hPa | 2.7V | 00:00:00 | 00:00:00 | 08:30:00 | |
| DL1XH1-15 | 2026-09-01 04:59:40 | 52.68815 | 8.30145 | 21° | 15km/h | 20181m | 5.5m/s | -51.6°C | 3.7% | 56.2hPa | 2.7V | 08:30:00 | 01:27:54 | 00:00:00 | |
| DB0DAN | 2026-09-01 04:59:40 | 52.68827 | 8.30160 | 63° | 11km/h | 20205m | 5m/s | -51.8°C | 1.1% | 56.02hPa | 2.6V | 00:00:00 | 00:00:00 | 00:00:00 | |
| AA1-15 | 2026-09-01 04:59:40 | 52.68827 | 8.30160 | 63° | 11km/h | 20205m | 5m/s | -51.8°C | 0.6% | 56hPa | 2.6V | 18:12:15 | 01:27:59 | 00:00:00 | |
| DL1XH-west | 2026-09-01 04:59:38 | 52.68823 | 8.30152 | 43° | 13km/h | 20195m | 5.1m/s | -51.8°C | 0.6% | 56.1hPa | 2.6V | 18:12:15 | 01:27:57 | 00:00:00 | |
| DF8AY | 2026-09-01 04:59:37 | 52.68821 | 8.30149 | 30° | 11km/h | 20190m | 5.2m/s | -51.7°C | 0.6% | 56.2hPa | 2.6V | 18:12:15 | 01:27:56 | 00:00:00 | |
| HSKMA3-T | 2026-09-01 04:59:36 | 52.68818 | 8.30147 | 19° | 13km/h | 20185m | 4.4m/s | -51.7°C | 0.5% | 56.2hPa | 2.7V | 18:12:15 | 01:27:55 | 00:00:00 | |
| BIOWL1-15 | 2026-09-01 04:59:33 | 52.68800 | 8.30138 | 0° | 15km/h | 20160m | 4.4m/s | -51.5°C | 0.5% | 56.4hPa | 2.6V | 18:12:15 | 01:27:50 | 00:00:00 | |
| DO2JMG | 2026-09-01 04:59:32 | 52.68803 | 8.30139 | 8° | 16km/h | 20165m | 6m/s | -51.5°C | 0.6% | 56.4hPa | 2.6V | 18:12:15 | 01:27:51 | 00:00:00 | |
| GOEST3-10 | 2026-09-01 04:59:31 | 52.68799 | 8.30138 | 1° | 13km/h | 20160m | 4.4m/s | -51.4°C | 3.6% | 56.4hPa | 2.7V | 00:00:00 | 00:00:00 | 00:00:00 | |
| DL1XH1-15 | 2026-09-01 04:59:30 | 52.68783 | 8.30137 | 343° | 7km/h | 20130m | 4.2m/s | -51.2°C | 3.5% | 56.7hPa | 2.7V | 08:30:00 | 01:27:44 | 00:00:00 | |
| AA1-15 | 2026-09-01 04:59:29 | 52.68793 | 8.30138 | 9° | 13km/h | 20151m | 5.6m/s | -51.4°C | 0.5% | 56.5hPa | 2.7V | 18:12:15 | 01:27:48 | 00:00:00 | |
| DL1XH-west | 2026-09-01 04:59:28 | 52.68790 | 8.30137 | 16° | 11km/h | 20145m | 5m/s | -51.4°C | 0.5% | 56.5hPa | 2.6V | 18:12:15 | 01:27:47 | 00:00:00 | |
| DF8AY | 2026-09-01 04:59:27 | 52.68787 | 8.30136 | 5° | 9km/h | 20141m | 5.1m/s | -51.3°C | 0.5% | 56.6hPa | 2.6V | 18:12:15 | 01:27:46 | 00:00:00 | |
| HSKMA3-T | 2026-09-01 04:59:26 | 52.68785 | 8.30136 | 348° | 7km/h | 20135m | 5.4m/s | -51.2°C | 0.5% | 56.6hPa | 2.6V | 18:12:15 | 01:27:45 | 00:00:00 | |
| DB0DAN | 2026-09-01 04:59:25 | 52.68783 | 8.30137 | 343° | 7km/h | 20131m | 4.2m/s | -51.2°C | 1% | 56.7hPa | 2.7V | 00:00:00 | 00:00:00 | 00:00:00 | |
| BIOWL1-15 | 2026-09-01 04:59:23 | 52.68774 | 8.30138 | 351° | 11km/h | 20112m | 5.7m/s | -51.1°C | 0.5% | 56.8hPa | 2.6V | 18:12:15 | 01:27:40 | 00:00:00 | |
| DO2JMG | 2026-09-01 04:59:22 | 52.68777 | 8.30137 | 2° | 11km/h | 20116m | 3.5m/s | -51.1°C | 0.5% | 56.8hPa | 2.6V | 18:12:15 | 01:27:41 | 00:00:00 | |
| DO2SHX-10 | 2026-09-01 04:59:21 | 52.68774 | 8.30138 | 351° | 11km/h | 20112m | 5.7m/s | -51.1°C | 3.5% | 56.8hPa | 2.6V | 00:00:00 | 01:27:40 | 00:00:00 | |
| DM0DOS-11 | 2026-09-01 04:59:20 | 52.68757 | 8.30142 | 3° | 13km/h | 20081m | 3.3m/s | -51.2°C | 3.5% | 57.1hPa | 2.6V | 08:30:00 | 01:27:34 | 00:00:00 | |
| AA1-15 | 2026-09-01 04:59:18 | 52.68767 | 8.30142 | 345° | 11km/h | 20096m | 5.4m/s | -51.1°C | 0.4% | 57hPa | 2.7V | 18:12:15 | 01:27:37 | 00:00:00 | |
| DL1XH-west | 2026-09-01 04:59:17 | 52.68764 | 8.30142 | 359° | 13km/h | 20090m | 6.4m/s | -51.2°C | 0.5% | 57hPa | 2.6V | 18:12:15 | 01:27:36 | 00:00:00 | |
| DF8AY | 2026-09-01 04:59:16 | 52.68761 | 8.30142 | 6° | 13km/h | 20085m | 4.2m/s | -51.2°C | 0.4% | 57.1hPa | 2.6V | 18:12:15 | 01:27:35 | 00:00:00 | |
| HSKMA3-T | 2026-09-01 04:59:15 | 52.68757 | 8.30142 | 3° | 13km/h | 20081m | 3.3m/s | -51.2°C | 0.4% | 57.1hPa | 2.6V | 18:12:15 | 01:27:34 | 00:00:00 | |
| AP2371 | 2026-09-01 04:59:14 | 52.68757 | 8.30142 | 4° | 13km/h | 20081m | 3.3m/s | 0°C | 0% | 0hPa | 2.7V | 00:00:00 | 00:00:00 | 00:00:00 | |
| DL1XH-15 | 2026-09-01 04:59:13 | 52.68741 | 8.30155 | 297° | 9km/h | 20045m | 5.6m/s | -51.9°C | 3.8% | 57.4hPa | 2.7V | 08:30:00 | 01:27:27 | 00:00:00 | |
| DO2JMG | 2026-09-01 04:59:12 | 52.68749 | 8.30144 | 329° | 11km/h | 20066m | 4.3m/s | -51.4°C | 0.5% | 57.2hPa | 2.7V | 18:12:15 | 01:27:31 | 00:00:00 | |
| BIOWL1-15 | 2026-09-01 04:59:11 | 52.68747 | 8.30147 | 329° | 11km/h | 20061m | 6.1m/s | -51.5°C | 0.5% | 57.3hPa | 2.6V | 18:12:15 | 01:27:30 | 00:00:00 | |
| DB0DAN | 2026-09-01 04:59:10 | 52.68745 | 8.30149 | 327° | 11km/h | 20056m | 4.9m/s | -51.5°C | 1.1% | 57.33hPa | 2.6V | 00:00:00 | 00:00:00 | 00:00:00 | |
| DL1XH1-15 | 2026-09-01 04:59:10 | 52.68736 | 8.30166 | 324° | 13km/h | 20029m | 5.8m/s | -51.8°C | 3.9% | 57.6hPa | 2.6V | 08:30:00 | 01:27:24 | 00:00:00 | |
| AA1-15 | 2026-09-01 04:59:08 | 52.68741 | 8.30155 | 297° | 9km/h | 20045m | 5.6m/s | -51.9°C | 0.7% | 57.5hPa | 2.7V | 18:12:15 | 01:27:27 | 00:00:00 | |
| DL1XH-west | 2026-09-01 04:59:07 | 52.68740 | 8.30159 | 297° | 11km/h | 20040m | 4.2m/s | -51.9°C | 0.7% | 57.5hPa | 2.7V | 18:12:15 | 01:27:26 | 00:00:00 | |
| DF8AY | 2026-09-01 04:59:06 | 52.68738 | 8.30163 | 312° | 11km/h | 20035m | 5.6m/s | -51.9°C | 0.7% | 57.5hPa | 2.6V | 18:12:15 | 01:27:25 | 00:00:00 | |
| HSKMA3-T | 2026-09-01 04:59:04 | 52.68733 | 8.30169 | 331° | 13km/h | 20024m | 4.8m/s | -51.8°C | 0.6% | 57.6hPa | 2.6V | 18:12:15 | 01:27:23 | 00:00:00 | |
| DL1XH-15 | 2026-09-01 04:59:03 | 52.68711 | 8.30167 | 21° | 16km/h | 19994m | 4.9m/s | -51.6°C | 3.7% | 57.9hPa | 2.6V | 08:30:00 | 01:27:17 | 00:00:00 | |
| DO2JMG | 2026-09-01 04:59:02 | 52.68728 | 8.30172 | 351° | 13km/h | 20013m | 4.2m/s | -51.7°C | 0.6% | 57.7hPa | 2.7V | 18:12:15 | 01:27:21 | 00:00:00 | |
| BIOWL1-15 | 2026-09-01 04:59:01 | 52.68724 | 8.30173 | 4° | 15km/h | 20009m | 5.2m/s | -51.7°C | 0.5% | 57.8hPa | 2.7V | 18:12:15 | 01:27:20 | 00:00:00 | |
| GOEST3-10 | 2026-09-01 04:59:01 | 52.68724 | 8.30173 | 4° | 16km/h | 20009m | 5.2m/s | -51.7°C | 3.7% | 57.7hPa | 2.7V | 00:00:00 | 00:00:00 | 00:00:00 | |
| DL1XH1-15 | 2026-09-01 04:59:00 | 52.68704 | 8.30162 | 14° | 7km/h | 19978m | 4.9m/s | -51.5°C | 3.6% | 58hPa | 2.7V | 08:30:00 | 01:27:14 | 00:00:00 | |
| DL1XH-west | 2026-09-01 04:58:57 | 52.68708 | 8.30165 | 23° | 11km/h | 19988m | 5.7m/s | -51.6°C | 0.5% | 57.9hPa | 2.6V | 18:12:15 | 01:27:16 | 00:00:00 | |
| DB0ND-19 | 2026-09-01 04:58:57 | 52.68706 | 8.30163 | 18° | 7km/h | 19983m | 4.8m/s | -51.5°C | 1.1% | 58.0hPa | 2.7V | 00:00:00 | 00:00:00 | 00:00:00 | |
| BIOWL9-15 | 2026-09-01 04:58:56 | 52.68706 | 8.30163 | 18° | 7km/h | 19983m | 4.8m/s | -51.5°C | 1.1% | 58.0hPa | 2.7V | 00:00:00 | 00:00:00 | 00:00:00 | |
| DB0DAN | 2026-09-01 04:58:55 | 52.68704 | 8.30162 | 15° | 7km/h | 19978m | 4.9m/s | -51.5°C | 1.1% | 58.05hPa | 2.7V | 00:00:00 | 00:00:00 | 00:00:00 | |
| DF8AY | 2026-09-01 04:58:55 | 52.68704 | 8.30162 | 15° | 7km/h | 19978m | 4.9m/s | -51.5°C | 0.5% | 58hPa | 2.7V | 18:12:15 | 01:27:14 | 00:00:00 | |
| HSKMA3-T | 2026-09-01 04:58:54 | 52.68702 | 8.30162 | 14° | 9km/h | 19973m | 6m/s | -51.5°C | 0.5% | 58.1hPa | 2.7V | 18:12:15 | 01:27:13 | 00:00:00 | |
| DO2SHX-10 | 2026-09-01 04:58:54 | 52.68702 | 8.30162 | 15° | 5km/h | 19973m | 5.9m/s | -51.4°C | 3.6% | 58.0hPa | 2.7V | 00:00:00 | 01:27:13 | 08:30:00 | |
| DL1XH-15 | 2026-09-01 04:58:53 | 52.68694 | 8.30156 | 17° | 7km/h | 19942m | 6m/s | -51.3°C | 3.6% | 58.4hPa | 2.6V | 08:30:00 | 01:27:07 | 00:00:00 | |
| BIOWL1-15 | 2026-09-01 04:58:52 | 52.68696 | 8.30158 | 33° | 4km/h | 19952m | 4.4m/s | -51.3°C | 0.6% | 58.3hPa | 2.7V | 18:12:15 | 01:27:09 | 00:00:00 | |
| DO2JMG | 2026-09-01 04:58:51 | 52.68697 | 8.30159 | 25° | 4km/h | 19958m | 6.2m/s | -51.4°C | 0.5% | 58.2hPa | 2.6V | 18:12:15 | 01:27:10 | 00:00:00 | |
| AA1-15 | 2026-09-01 04:58:47 | 52.68692 | 8.30155 | 13° | 9km/h | 19937m | 4.7m/s | -51.2°C | 0.5% | 58.4hPa | 2.6V | 18:12:15 | 01:27:06 | 00:00:00 | |
| DL1XH-west | 2026-09-01 04:58:46 | 52.68690 | 8.30155 | 16° | 7km/h | 19932m | 5.1m/s | -51.2°C | 0.5% | 58.5hPa | 2.6V | 18:12:15 | 01:27:05 | 00:00:00 | |
| DF8AY | 2026-09-01 04:58:45 | 52.68688 | 8.30154 | 20° | 5km/h | 19927m | 5.9m/s | -51.2°C | 0.5% | 58.5hPa | 2.7V | 18:12:15 | 01:27:04 | 00:00:00 | |
| HSKMA3-T | 2026-09-01 04:58:44 | 52.68687 | 8.30153 | 39° | 5km/h | 19921m | 4.9m/s | -51.1°C | 0.5% | 58.5hPa | 2.7V | 18:12:15 | 01:27:03 | 00:00:00 | |
| DL4XJ-10 | 2026-09-01 04:58:44 | 52.68687 | 8.30153 | 40° | 5km/h | 19921m | 4.8m/s | -53.6°C | 0% | 0hPa | 2.7V | 00:00:00 | 00:00:00 | 00:00:00 | |
| DL1XH-15 | 2026-09-01 04:58:43 | 52.68686 | 8.30138 | 136° | 5km/h | 19891m | 4.3m/s | -51°C | 3.6% | 58.8hPa | 2.7V | 08:30:00 | 01:26:57 | 00:00:00 | |
| DO2SHX-10 | 2026-09-01 04:58:43 | 52.68686 | 8.30151 | 47° | 7km/h | 19916m | 6.2m/s | -51.0°C | 3.6% | 58.5hPa | 2.7V | 00:00:00 | 01:27:02 | 00:00:00 | |
| SONDE2-11 | 2026-09-01 04:58:42 | 52.68685 | 8.30149 | 59° | 7km/h | 19910m | 5.1m/s | -51.1°C | 1.1% | 58.6hPa | 2.6V | 00:00:00 | 00:00:00 | 00:00:00 | |
| DO2KSM | 2026-09-01 04:58:41 | 52.68685 | 8.30149 | 60° | 7km/h | 19910m | 5.1m/s | -51.1°C | 1.1% | 58.6hPa | 2.6V | 00:00:00 | 00:00:00 | 00:00:00 | |
| DB0DAN | 2026-09-01 04:58:40 | 52.68684 | 8.30143 | 104° | 7km/h | 19900m | 6.2m/s | -51°C | 1.1% | 58.73hPa | 2.6V | 00:00:00 | 00:00:00 | 00:00:00 | |
| DL1XH1-15 | 2026-09-01 04:58:40 | 52.68686 | 8.30136 | 333° | 2km/h | 19875m | 4.6m/s | -50.9°C | 3.4% | 59hPa | 2.6V | 08:30:00 | 01:26:54 | 00:00:00 | |
| DO2JMG | 2026-09-01 04:58:40 | 52.68684 | 8.30143 | 104° | 7km/h | 19900m | 6.2m/s | -51°C | 0.5% | 58.7hPa | 2.6V | 18:12:15 | 01:26:59 | 00:00:00 | |
| AA1-15 | 2026-09-01 04:58:36 | 52.68686 | 8.30137 | 48° | 2km/h | 19880m | 4.9m/s | -51°C | 0.5% | 58.9hPa | 2.6V | 18:12:15 | 01:26:55 | 00:00:00 | |
| DL1XH-west | 2026-09-01 04:58:35 | 52.68686 | 8.30137 | 334° | 2km/h | 19875m | 4.6m/s | -51°C | 0.4% | 59hPa | 2.6V | 18:12:15 | 01:26:54 | 00:00:00 | |
| HSKMA3-T | 2026-09-01 04:58:34 | 52.68686 | 8.30137 | 319° | 2km/h | 19870m | 6.3m/s | -50.9°C | 0.4% | 59hPa | 2.7V | 18:12:15 | 01:26:53 | 00:00:00 | |
| DO2SHX-10 | 2026-09-01 04:58:34 | 52.68686 | 8.30137 | 319° | 2km/h | 19870m | 6.2m/s | -50.9°C | 3.5% | 59.0hPa | 2.7V | 00:00:00 | 01:26:53 | 00:00:00 | |
| DL1XH-15 | 2026-09-01 04:58:33 | 52.68681 | 8.30123 | 78° | 11km/h | 19840m | 5.9m/s | -51°C | 3.5% | 59.3hPa | 2.7V | 08:30:00 | 01:26:47 | 00:00:00 | |
| DO2JMG | 2026-09-01 04:58:30 | 52.68683 | 8.30132 | 55° | 11km/h | 19850m | 5m/s | -50.9°C | 0.4% | 59.2hPa | 2.6V | 18:12:15 | 01:26:49 | 00:00:00 | |
| BIOWL1-15 | 2026-09-01 04:58:29 | 52.68682 | 8.30128 | 65° | 13km/h | 19845m | 3.9m/s | -50.9°C | 0.4% | 59.2hPa | 2.6V | 18:12:15 | 01:26:48 | 00:00:00 | |
| AA1-15 | 2026-09-01 04:58:25 | 52.68683 | 8.30110 | 121° | 9km/h | 19824m | 5.9m/s | -51.2°C | 0.5% | 59.5hPa | 2.6V | 18:12:15 | 01:26:44 | 00:00:00 | |
| DL1XH-west | 2026-09-01 04:58:24 | 52.68684 | 8.30107 | 125° | 7km/h | 19819m | 5.6m/s | -51.2°C | 0.5% | 59.5hPa | 2.6V | 18:12:15 | 01:26:43 | 00:00:00 | |
| HSKMA3-T | 2026-09-01 04:58:23 | 52.68686 | 8.30104 | 131° | 9km/h | 19814m | 4.3m/s | -51.2°C | 0.5% | 59.6hPa | 2.7V | 18:12:15 | 01:26:42 | 00:00:00 | |
| SONCRA | 2026-09-01 04:58:23 | 52.68686 | 8.30104 | 130° | 7km/h | 19814m | 4.3m/s | -51.2°C | 1.1% | 59.6hPa | 2.6V | 00:00:00 | 00:00:00 | 00:00:00 | |
| DO2SHX-10 | 2026-09-01 04:58:22 | 52.68687 | 8.30101 | 138° | 15km/h | 19809m | 5.4m/s | -51.1°C | 3.6% | 59.5hPa | 2.6V | 00:00:00 | 01:26:41 | 00:00:00 | |
| GOEST3-10 | 2026-09-01 04:58:21 | 52.68690 | 8.30098 | 138° | 16km/h | 19803m | 5.6m/s | -51.1°C | 3.6% | 59.6hPa | 2.6V | 00:00:00 | 00:00:00 | 00:00:00 | |
| DL1XH1-15 | 2026-09-01 04:58:20 | 52.68695 | 8.30055 | 85° | 22km/h | 19773m | 5.7m/s | -51°C | 3.6% | 59.9hPa | 2.6V | 08:30:00 | 01:26:34 | 00:00:00 | |
| DO2JMG | 2026-09-01 04:58:20 | 52.68692 | 8.30093 | 127° | 16km/h | 19798m | 4.3m/s | -51.1°C | 0.5% | 59.7hPa | 2.6V | 18:12:15 | 01:26:39 | 00:00:00 | |
| BIOWL1-15 | 2026-09-01 04:58:18 | 52.68696 | 8.30080 | 98° | 18km/h | 19788m | 6.3m/s | -51.1°C | 0.5% | 59.8hPa | 2.6V | 18:12:15 | 01:26:37 | 00:00:00 | |
| DL1XH-west | 2026-09-01 04:58:14 | 52.68695 | 8.30046 | 91° | 22km/h | 19768m | 4.6m/s | -51°C | 0.5% | 60hPa | 2.6V | 18:12:15 | 01:26:33 | 00:00:00 | |
| HSKMA3-T | 2026-09-01 04:58:13 | 52.68695 | 8.30038 | 93° | 18km/h | 19763m | 4.2m/s | -51°C | 0.4% | 60hPa | 2.6V | 18:12:15 | 01:26:32 | 00:00:00 | |
| DO2SHX-10 | 2026-09-01 04:58:12 | 52.68695 | 8.30030 | 93° | 13km/h | 19758m | 5.7m/s | -50.9°C | 3.5% | 60.0hPa | 2.7V | 00:00:00 | 01:26:31 | 00:00:00 | |
| DF4FW | 2026-09-01 04:58:11 | 52.68695 | 8.30030 | 94° | 15km/h | 19758m | 5.8m/s | -51.0°C | 1.0% | 60.0hPa | 2.7V | 00:00:00 | 00:00:00 | 00:00:00 | |
| DB0DAN | 2026-09-01 04:58:10 | 52.68695 | 8.30020 | 92° | 11km/h | 19748m | 4.9m/s | -51°C | 1% | 60.14hPa | 2.7V | 00:00:00 | 00:00:00 | 00:00:00 | |
| DL1XH1-15 | 2026-09-01 04:58:10 | 52.68700 | 8.29990 | 88° | 15km/h | 19722m | 5.7m/s | -51°C | 3.5% | 60.4hPa | 2.7V | 08:30:00 | 01:26:24 | 00:00:00 | |
| BIOWL1-15 | 2026-09-01 04:58:09 | 52.68698 | 8.30003 | 110° | 16km/h | 19731m | 4.4m/s | -51°C | 0.4% | 60.3hPa | 2.6V | 18:12:15 | 01:26:26 | 00:00:00 | |
| DO2JMG | 2026-09-01 04:58:09 | 52.68696 | 8.30015 | 104° | 13km/h | 19742m | 5.9m/s | -51°C | 0.4% | 60.2hPa | 2.6V | 18:12:15 | 01:26:28 | 00:00:00 | |
| DL1XH-west | 2026-09-01 04:58:03 | 52.68698 | 8.29980 | 59° | 11km/h | 19711m | 5.2m/s | -51°C | 0.5% | 60.5hPa | 2.6V | 18:12:15 | 01:26:22 | 00:00:00 | |
| HSKMA3-T | 2026-09-01 04:58:02 | 52.68696 | 8.29976 | 59° | 11km/h | 19705m | 5.5m/s | -50.9°C | 0.4% | 60.5hPa | 2.6V | 18:12:15 | 01:26:21 | 00:00:00 | |
| DO2SHX-10 | 2026-09-01 04:58:02 | 52.68696 | 8.29975 | 59° | 11km/h | 19706m | 5.4m/s | -50.9°C | 3.4% | 60.5hPa | 2.6V | 00:00:00 | 01:26:21 | 00:00:00 | |
| GOEST3-10 | 2026-09-01 04:58:01 | 52.68695 | 8.29972 | 64° | 11km/h | 19700m | 5.4m/s | -50.8°C | 3.4% | 60.6hPa | 2.7V | 00:00:00 | 00:00:00 | 00:00:00 | |
| DL1XH1-15 | 2026-09-01 04:58:00 | 52.68689 | 8.29945 | 90° | 16km/h | 19668m | 5.7m/s | -51.3°C | 3.6% | 60.9hPa | 2.7V | 08:30:00 | 01:26:14 | 00:00:00 | |
| DO2JMG | 2026-09-01 04:57:58 | 52.68691 | 8.29962 | 57° | 11km/h | 19684m | 4.5m/s | -51.1°C | 0.5% | 60.7hPa | 2.6V | 18:12:15 | 01:26:17 | 00:00:00 | |
| BIOWL1-15 | 2026-09-01 04:57:57 | 52.68690 | 8.29957 | 66° | 13km/h | 19679m | 4.4m/s | -51.2°C | 0.4% | 60.8hPa | 2.6V | 18:12:15 | 01:26:16 | 00:00:00 | |
| DB0DAN | 2026-09-01 04:57:55 | 52.68689 | 8.29945 | 91° | 16km/h | 19669m | 5.7m/s | -51.3°C | 1.1% | 60.89hPa | 2.7V | 00:00:00 | 00:00:00 | 00:00:00 | |
| AA1-15 | 2026-09-01 04:57:53 | 52.68689 | 8.29930 | 87° | 18km/h | 19658m | 5.7m/s | -51.4°C | 0.5% | 61hPa | 2.6V | 18:12:15 | 01:26:12 | 00:00:00 | |
| HSKMA3-T | 2026-09-01 04:57:52 | 52.68688 | 8.29922 | 85° | 18km/h | 19653m | 4.2m/s | -51.5°C | 0.5% | 61hPa | 2.6V | 18:12:15 | 01:26:11 | 00:00:00 | |
| SONCRA | 2026-09-01 04:57:52 | 52.68688 | 8.29922 | 85° | 16km/h | 19653m | 4.2m/s | -51.5°C | 1.1% | 61.0hPa | 2.6V | 00:00:00 | 00:00:00 | 00:00:00 | |
| DL3AQ-11 | 2026-09-01 04:57:51 | 52.68688 | 8.29908 | 95° | 15km/h | 19643m | 6.2m/s | -51.5°C | 1.1% | 61.1hPa | 2.6V | 00:00:00 | 00:00:00 | 00:00:00 | |
| DL1XH1-15 | 2026-09-01 04:57:50 | 52.68685 | 8.29882 | 70° | 15km/h | 19616m | 6m/s | -51.5°C | 3.5% | 61.4hPa | 2.6V | 08:30:00 | 01:26:04 | 00:00:00 | |
| BIOWL1-15 | 2026-09-01 04:57:48 | 52.68687 | 8.29887 | 63° | 13km/h | 19622m | 4.6m/s | -51.5°C | 0.5% | 61.3hPa | 2.6V | 18:12:15 | 01:26:05 | 00:00:00 | |
| DO2JMG | 2026-09-01 04:57:48 | 52.68689 | 8.29897 | 84° | 13km/h | 19632m | 5.9m/s | -51.5°C | 0.6% | 61.2hPa | 2.7V | 18:12:15 | 01:26:07 | 00:00:00 | |
| EDDB2-12 | 2026-09-01 04:57:47 | 52.68688 | 8.29892 | 68° | 11km/h | 19627m | 5.8m/s | -51.5°C | 1.1% | 61.3hPa | 2.7V | 00:00:00 | 00:00:00 | 00:00:00 | |
| BUE01 | 2026-09-01 04:57:46 | 52.68687 | 8.29887 | 63° | 13km/h | 19622m | 4.6m/s | -51.5°C | 1.1% | 61.3hPa | 2.7V | 00:00:00 | 00:00:00 | 00:00:00 | |
| DL1XH-west | 2026-09-01 04:57:42 | 52.68681 | 8.29858 | 73° | 26km/h | 19600m | 6m/s | -51.5°C | 0.5% | 61.5hPa | 2.7V | 18:12:15 | 01:26:01 | 00:00:00 | |
| HSKMA3-T | 2026-09-01 04:57:41 | 52.68679 | 8.29847 | 74° | 27km/h | 19595m | 5m/s | -51.5°C | 0.5% | 61.6hPa | 2.7V | 18:12:15 | 01:26:00 | 00:00:00 | |
| DB0DAN | 2026-09-01 04:57:40 | 52.68678 | 8.29836 | 78° | 26km/h | 19590m | 5m/s | -51.5°C | 1.1% | 61.63hPa | 2.6V | 00:00:00 | 00:00:00 | 00:00:00 | |
| DL1XH1-15 | 2026-09-01 04:57:40 | 52.68670 | 8.29790 | 58° | 20km/h | 19565m | 4.2m/s | -51.3°C | 3.6% | 61.9hPa | 2.6V | 08:30:00 | 01:25:54 | 00:00:00 | |
| DO2JMG | 2026-09-01 04:57:37 | 52.68674 | 8.29806 | 74° | 22km/h | 19575m | 5.4m/s | -51.4°C | 0.5% | 61.8hPa | 2.7V | 18:12:15 | 01:25:56 | 00:00:00 | |
| BIOWL1-15 | 2026-09-01 04:57:35 | 52.68670 | 8.29790 | 59° | 20km/h | 19565m | 4.2m/s | -51.3°C | 0.5% | 61.9hPa | 2.6V | 18:12:15 | 01:25:54 | 00:00:00 | |
| DL1XH-15 | 2026-09-01 04:57:33 | 52.68649 | 8.29737 | 58° | 27km/h | 19529m | 6.2m/s | -51.4°C | 3.6% | 62.2hPa | 2.6V | 08:30:00 | 01:25:47 | 00:00:00 | |
| DL1XH-west | 2026-09-01 04:57:32 | 52.68663 | 8.29770 | 58° | 18km/h | 19550m | 4m/s | -51.2°C | 0.4% | 62hPa | 2.7V | 18:12:15 | 01:25:51 | 00:00:00 | |
| DF8AY | 2026-09-01 04:57:31 | 52.68660 | 8.29763 | 56° | 22km/h | 19545m | 6m/s | -51.2°C | 0.5% | 62.1hPa | 2.7V | 18:12:15 | 01:25:50 | 00:00:00 | |
| DL1XH1-15 | 2026-09-01 04:57:31 | 52.68639 | 8.29706 | 63° | 31km/h | 19513m | 6.2m/s | -51.4°C | 3.6% | 62.4hPa | 2.7V | 08:30:00 | 01:25:44 | 00:00:00 | |
| HSKMA3-T | 2026-09-01 04:57:30 | 52.68657 | 8.29755 | 55° | 26km/h | 19539m | 5.3m/s | -51.3°C | 0.4% | 62.1hPa | 2.7V | 18:12:15 | 01:25:49 | 00:00:00 | |
| BIOWL1-15 | 2026-09-01 04:57:27 | 52.68639 | 8.29706 | 63° | 31km/h | 19513m | 6.2m/s | -51.4°C | 0.5% | 62.4hPa | 2.7V | 18:12:15 | 01:25:44 | 00:00:00 | |
| DO2JMG | 2026-09-01 04:57:26 | 52.68643 | 8.29717 | 64° | 29km/h | 19518m | 4.5m/s | -51.4°C | 0.5% | 62.4hPa | 2.7V | 18:12:15 | 01:25:45 | 00:00:00 | |
| DB0DAN | 2026-09-01 04:57:25 | 52.68639 | 8.29706 | 63° | 29km/h | 19513m | 6.2m/s | -51.4°C | 1.1% | 62.38hPa | 2.7V | 00:00:00 | 00:00:00 | 00:00:00 | |
| DO9LL-15 | 2026-09-01 04:57:25 | 52.68639 | 8.29706 | 64° | 24km/h | 19513m | 6.1m/s | -51.3°C | 3.6% | 62.3hPa | 2.7V | 00:00:00 | 01:25:44 | 00:00:00 | |
| DL3AQ-11 | 2026-09-01 04:57:24 | 52.68633 | 8.29684 | 62° | 26km/h | 19503m | 4.9m/s | -51.4°C | 1.1% | 62.5hPa | 2.6V | 00:00:00 | 00:00:00 | 00:00:00 | |
| DL1XH-15 | 2026-09-01 04:57:23 | 52.68617 | 8.29649 | 43° | 22km/h | 19477m | 4.6m/s | -51.3°C | 3.6% | 62.7hPa | 2.6V | 08:30:00 | 01:25:37 | 00:00:00 | |
| DL1XH-west | 2026-09-01 04:57:22 | 52.68630 | 8.29675 | 61° | 24km/h | 19497m | 6.5m/s | -51.4°C | 0.5% | 62.5hPa | 2.6V | 18:12:15 | 01:25:41 | 00:00:00 | |
| DF8AY | 2026-09-01 04:57:21 | 52.68627 | 8.29667 | 57° | 18km/h | 19491m | 4.4m/s | -51.4°C | 0.5% | 62.6hPa | 2.7V | 18:12:15 | 01:25:40 | 00:00:00 | |
| HSKMA3-T | 2026-09-01 04:57:20 | 52.68624 | 8.29661 | 52° | 18km/h | 19487m | 3.8m/s | -51.3°C | 0.4% | 62.6hPa | 2.7V | 18:12:15 | 01:25:39 | 00:00:00 | |
| DO2JMG | 2026-09-01 04:57:16 | 52.68608 | 8.29636 | 41° | 24km/h | 19468m | 5.1m/s | -51.3°C | 0.5% | 62.8hPa | 2.6V | 18:12:15 | 01:25:35 | 00:00:00 | |
| BIOWL1-15 | 2026-09-01 04:57:15 | 52.68604 | 8.29630 | 41° | 22km/h | 19462m | 5.7m/s | -51.3°C | 0.4% | 62.8hPa | 2.7V | 18:12:15 | 01:25:34 | 00:00:00 | |
| DO2SHX-10 | 2026-09-01 04:57:14 | 52.68600 | 8.29624 | 45° | 22km/h | 19458m | 4.3m/s | -51.2°C | 3.5% | 62.9hPa | 2.7V | 00:00:00 | 01:25:33 | 08:30:00 | |
| DL1XH-15 | 2026-09-01 04:57:13 | 52.68583 | 8.29578 | 71° | 18km/h | 19427m | 3.7m/s | -51.4°C | 3.5% | 63.2hPa | 2.7V | 08:30:00 | 01:25:27 | 00:00:00 | |
| DL1XH-west | 2026-09-01 04:57:11 | 52.68589 | 8.29602 | 58° | 24km/h | 19442m | 4.8m/s | -51.3°C | 0.4% | 63.1hPa | 2.6V | 18:12:15 | 01:25:30 | 00:00:00 | |
| HSKMA3-T | 2026-09-01 04:57:10 | 52.68586 | 8.29593 | 63° | 22km/h | 19437m | 5.5m/s | -51.3°C | 0.4% | 63.1hPa | 2.7V | 18:12:15 | 01:25:29 | 00:00:00 | |
| DO2JMG | 2026-09-01 04:57:06 | 52.68579 | 8.29563 | 64° | 22km/h | 19418m | 5.4m/s | -51.6°C | 0.6% | 63.3hPa | 2.6V | 18:12:15 | 01:25:25 | 00:00:00 | |
| BIOWL1-15 | 2026-09-01 04:57:05 | 52.68576 | 8.29555 | 60° | 22km/h | 19413m | 4.6m/s | -51.7°C | 0.5% | 63.4hPa | 2.6V | 18:12:15 | 01:25:24 | 00:00:00 | |
| DL3OBA | 2026-09-01 04:57:05 | 52.68576 | 8.29555 | 61° | 22km/h | 19413m | 4.6m/s | -51.7°C | 1.1% | 63.4hPa | 2.7V | 00:00:00 | 00:00:00 | 00:00:00 | |
| DL1XH-15 | 2026-09-01 04:57:03 | 52.68559 | 8.29492 | 68° | 31km/h | 19377m | 4.2m/s | -51.8°C | 3.7% | 63.7hPa | 2.7V | 08:30:00 | 01:25:17 | 00:00:00 | |
| DL1XH-west | 2026-09-01 04:57:01 | 52.68566 | 8.29524 | 68° | 24km/h | 19392m | 4.3m/s | -51.8°C | 0.6% | 63.6hPa | 2.6V | 18:12:15 | 01:25:20 | 00:00:00 | |
| DF8AY | 2026-09-01 04:57:00 | 52.68564 | 8.29515 | 68° | 27km/h | 19387m | 5.6m/s | -51.8°C | 0.6% | 63.6hPa | 2.6V | 18:12:15 | 01:25:19 | 00:00:00 | |
| DD8BA-10 | 2026-09-01 04:57:00 | 52.68564 | 8.29515 | 68° | 27km/h | 19387m | 5.5m/s | -51.7°C | 3.7% | 63.5hPa | 2.6V | 00:00:00 | 00:00:00 | 00:00:00 | |
| DL1NUX | 2026-09-01 04:56:59 | 52.68552 | 8.29448 | 82° | 26km/h | 19356m | 5.4m/s | -51.8°C | 3.6% | 63.9hPa | 2.6V | 08:30:00 | 01:25:13 | 00:00:00 | |
| HSKMA3-T | 2026-09-01 04:56:59 | 52.68561 | 8.29504 | 67° | 29km/h | 19382m | 5.2m/s | -51.8°C | 0.6% | 63.7hPa | 2.7V | 18:12:15 | 01:25:18 | 00:00:00 | |
| SO1NDE-10 | 2026-09-01 04:56:59 | 52.68561 | 8.29504 | 67° | 38km/h | 19382m | 5.2m/s | -51.8°C | 3.7% | 63.6hPa | 2.6V | 00:00:00 | 01:25:18 | 00:00:00 | |
| DC6BW-12 | 2026-09-01 04:56:58 | 52.68561 | 8.29504 | 68° | 29km/h | 19382m | 5.2m/s | -51.8°C | 1.2% | 63.7hPa | 2.6V | 00:00:00 | 00:00:00 | 00:00:00 | |
| DO3DL | 2026-09-01 04:56:57 | 52.68558 | 8.29492 | 70° | 31km/h | 19377m | 4.2m/s | -51.8°C | 1.1% | 63.7hPa | 2.6V | 00:00:00 | 00:00:00 | 00:00:00 | |
| BIOWL7-15 | 2026-09-01 04:56:56 | 52.68556 | 8.29481 | 75° | 29km/h | 19372m | 5.8m/s | -51.8°C | 1.1% | 63.8hPa | 2.6V | 00:00:00 | 00:00:00 | 00:00:00 | |
| DB0DAN | 2026-09-01 04:56:55 | 52.68553 | 8.29459 | 83° | 24km/h | 19361m | 4.6m/s | -51.8°C | 1.1% | 63.87hPa | 2.6V | 00:00:00 | 00:00:00 | 00:00:00 | |
| DO2JMG | 2026-09-01 04:56:55 | 52.68553 | 8.29459 | 83° | 26km/h | 19361m | 4.6m/s | -51.8°C | 0.6% | 63.9hPa | 2.6V | 18:12:15 | 01:25:14 | 00:00:00 | |
| BIOWL1-15 | 2026-09-01 04:56:54 | 52.68553 | 8.29448 | 83° | 26km/h | 19356m | 5.4m/s | -51.8°C | 0.5% | 63.9hPa | 2.6V | 18:12:15 | 01:25:13 | 00:00:00 | |
| DL1XH-15 | 2026-09-01 04:56:53 | 52.68547 | 8.29376 | 79° | 38km/h | 19325m | 5.4m/s | -51.8°C | 3.5% | 64.2hPa | 2.7V | 08:30:00 | 01:25:07 | 00:00:00 | |
| DL1XH-west | 2026-09-01 04:56:51 | 52.68550 | 8.29415 | 86° | 27km/h | 19340m | 6.2m/s | -51.8°C | 0.5% | 64.1hPa | 2.6V | 18:12:15 | 01:25:10 | 00:00:00 | |
| DF8AY | 2026-09-01 04:56:50 | 52.68550 | 8.29403 | 86° | 29km/h | 19335m | 4.3m/s | -51.7°C | 0.6% | 64.1hPa | 2.6V | 18:12:15 | 01:25:09 | 00:00:00 | |
| HSKMA3-T | 2026-09-01 04:56:49 | 52.68549 | 8.29390 | 82° | 33km/h | 19330m | 5.1m/s | -51.7°C | 0.5% | 64.2hPa | 2.6V | 18:12:15 | 01:25:08 | 00:00:00 | |
| AA1-15 | 2026-09-01 04:56:48 | 52.68547 | 8.29376 | 80° | 38km/h | 19325m | 5.4m/s | -51.8°C | 0.4% | 64.2hPa | 2.7V | 18:12:15 | 01:25:07 | 00:00:00 | |
| DJ2DS-15 | 2026-09-01 04:56:48 | 52.68547 | 8.29376 | 80° | 38km/h | 19325m | 5.3m/s | -51.7°C | 3.5% | 64.2hPa | 2.7V | 00:00:00 | 01:25:07 | 00:00:00 | |
| DL1NUX | 2026-09-01 04:56:47 | 52.68539 | 8.29272 | 78° | 40km/h | 19294m | 4.5m/s | -51.9°C | 3.6% | 64.5hPa | 2.7V | 08:30:00 | 01:25:01 | 00:00:00 | |
| BIOWL1-15 | 2026-09-01 04:56:44 | 52.68542 | 8.29307 | 84° | 44km/h | 19305m | 5.1m/s | -51.9°C | 0.5% | 64.4hPa | 2.6V | 18:12:15 | 01:25:03 | 00:00:00 | |
| DL3AQ-11 | 2026-09-01 04:56:44 | 52.68542 | 8.29307 | 83° | 42km/h | 19305m | 5.1m/s | -51.9°C | 1.1% | 64.4hPa | 2.6V | 00:00:00 | 00:00:00 | 00:00:00 | |
| DL1XH-15 | 2026-09-01 04:56:43 | 52.68533 | 8.29217 | 77° | 29km/h | 19275m | 4.9m/s | -52°C | 3.7% | 64.7hPa | 2.6V | 08:30:00 | 01:24:57 | 00:00:00 | |
| DL4XJ-10 | 2026-09-01 04:56:42 | 52.68538 | 8.29272 | 79° | 38km/h | 19294m | 4.4m/s | -54.4°C | 0% | 0hPa | 2.6V | 00:00:00 | 00:00:00 | 00:00:00 | |
| DL8OAI-8 | 2026-09-01 04:56:41 | 52.68538 | 8.29272 | 80° | 40km/h | 19294m | 4.5m/s | -51.9°C | 1.2% | 64.5hPa | 2.6V | 00:00:00 | 00:00:00 | 00:00:00 | |
| DB0DAN | 2026-09-01 04:56:40 | 52.68535 | 8.29242 | 82° | 31km/h | 19284m | 5.4m/s | -52°C | 1.2% | 64.64hPa | 2.6V | 00:00:00 | 00:00:00 | 00:00:00 | |
| DL1XH-west | 2026-09-01 04:56:40 | 52.68535 | 8.29242 | 82° | 33km/h | 19284m | 5.4m/s | -52°C | 0.6% | 64.6hPa | 2.6V | 18:12:15 | 01:24:59 | 00:00:00 | |
| HSKMA3-T | 2026-09-01 04:56:39 | 52.68534 | 8.29229 | 82° | 31km/h | 19279m | 3.8m/s | -52°C | 0.6% | 64.7hPa | 2.6V | 18:12:15 | 01:24:58 | 00:00:00 | |
| AA1-15 | 2026-09-01 04:56:37 | 52.68531 | 8.29205 | 72° | 29km/h | 19270m | 5.4m/s | -52.1°C | 0.6% | 64.8hPa | 2.7V | 18:12:15 | 01:24:56 | 00:00:00 | |
| DO2SHX-10 | 2026-09-01 04:56:37 | 52.68531 | 8.29205 | 73° | 29km/h | 19270m | 5.4m/s | -52.0°C | 3.7% | 64.7hPa | 2.7V | 00:00:00 | 01:24:56 | 00:00:00 | |
| DB0UT-7 | 2026-09-01 04:56:36 | 52.68528 | 8.29193 | 69° | 38km/h | 19265m | 4.0m/s | -52.0°C | 3.7% | 64.8hPa | 2.7V | 00:00:00 | 01:24:55 | 00:00:00 | |
| DL1NUX | 2026-09-01 04:56:35 | 52.68513 | 8.29103 | 73° | 46km/h | 19235m | 4.9m/s | -52.4°C | 3.8% | 65.1hPa | 2.7V | 08:30:00 | 01:24:49 | 00:00:00 | |
| BIOWL1-15 | 2026-09-01 04:56:35 | 52.68521 | 8.29154 | 77° | 37km/h | 19250m | 4.1m/s | -52.2°C | 0.6% | 65hPa | 2.6V | 18:12:15 | 01:24:52 | 00:00:00 | |
| DO2JMG | 2026-09-01 04:56:34 | 52.68523 | 8.29168 | 75° | 33km/h | 19255m | 5.6m/s | -52.1°C | 0.6% | 64.9hPa | 2.6V | 18:12:15 | 01:24:53 | 00:00:00 | |
| DO2SHX-10 | 2026-09-01 04:56:34 | 52.68523 | 8.29168 | 75° | 37km/h | 19255m | 5.5m/s | -52.1°C | 3.7% | 64.9hPa | 2.6V | 00:00:00 | 01:24:53 | 08:30:00 | |
| DL1XH-15 | 2026-09-01 04:56:33 | 52.68507 | 8.29066 | 76° | 47km/h | 19225m | 5.2m/s | -52.3°C | 3.9% | 65.2hPa | 2.6V | 08:30:00 | 01:24:47 | 00:00:00 | |
| DB0NH | 2026-09-01 04:56:33 | 52.68521 | 8.29154 | 78° | 38km/h | 19251m | 4.1m/s | -52.1°C | 3.7% | 64.9hPa | 2.7V | 00:00:00 | 01:24:52 | 00:00:00 | |
| DO3DL | 2026-09-01 04:56:32 | 52.68521 | 8.29154 | 78° | 37km/h | 19251m | 4.1m/s | -52.2°C | 1.2% | 65.0hPa | 2.7V | 00:00:00 | 00:00:00 | 00:00:00 | |
| DL3AQ-11 | 2026-09-01 04:56:31 | 52.68516 | 8.29121 | 75° | 42km/h | 19241m | 6.1m/s | -52.4°C | 1.2% | 65.1hPa | 2.7V | 00:00:00 | 00:00:00 | 00:00:00 | |
| DL1XH1-15 | 2026-09-01 04:56:30 | 52.68498 | 8.29010 | 71° | 46km/h | 19210m | 4.3m/s | -52.2°C | 3.8% | 65.4hPa | 2.7V | 08:30:00 | 01:24:44 | 00:00:00 | |
| DL1XH-west | 2026-09-01 04:56:29 | 52.68510 | 8.29085 | 76° | 47km/h | 19230m | 5.8m/s | -52.4°C | 0.7% | 65.2hPa | 2.6V | 18:12:15 | 01:24:48 | 00:00:00 | |
| HSKMA3-T | 2026-09-01 04:56:28 | 52.68508 | 8.29066 | 77° | 47km/h | 19225m | 5.2m/s | -52.3°C | 0.7% | 65.2hPa | 2.6V | 18:12:15 | 01:24:47 | 00:00:00 | |
| AA1-15 | 2026-09-01 04:56:27 | 52.68505 | 8.29047 | 76° | 47km/h | 19220m | 4.2m/s | -52.3°C | 0.6% | 65.3hPa | 2.6V | 18:12:15 | 01:24:46 | 00:00:00 | |
| SO1NDE-10 | 2026-09-01 04:56:27 | 52.68505 | 8.29047 | 76° | 35km/h | 19220m | 4.1m/s | -52.3°C | 3.8% | 65.3hPa | 2.6V | 00:00:00 | 01:24:46 | 08:30:00 | |
| DL1CLM-18 | 2026-09-01 04:56:26 | 52.68505 | 8.29047 | 77° | 47km/h | 19220m | 4.2m/s | -52.3°C | 1.2% | 65.3hPa | 2.7V | 00:00:00 | 00:00:00 | 00:00:00 | |
| DB0DAN | 2026-09-01 04:56:25 | 52.68498 | 8.29010 | 71° | 42km/h | 19210m | 4.3m/s | -52.3°C | 1.2% | 65.38hPa | 2.7V | 00:00:00 | 00:00:00 | 00:00:00 | |
| DL1NUX | 2026-09-01 04:56:25 | 52.68485 | 8.28935 | 70° | 33km/h | 19185m | 4.7m/s | -52.1°C | 3.8% | 65.7hPa | 2.7V | 08:30:00 | 01:24:39 | 00:00:00 | |
| DO2JMG | 2026-09-01 04:56:23 | 52.68492 | 8.28977 | 76° | 38km/h | 19201m | 5.7m/s | -52.2°C | 0.6% | 65.5hPa | 2.6V | 18:12:15 | 01:24:42 | 00:00:00 | |
| DB0ND-19 | 2026-09-01 04:56:22 | 52.68488 | 8.28949 | 73° | 33km/h | 19190m | 5.8m/s | -52.1°C | 1.1% | 65.7hPa | 2.7V | 00:00:00 | 00:00:00 | 00:00:00 | |
| BIOWL9-15 | 2026-09-01 04:56:21 | 52.68485 | 8.28935 | 70° | 33km/h | 19185m | 4.7m/s | -52.1°C | 1.2% | 65.7hPa | 2.7V | 00:00:00 | 00:00:00 | 00:00:00 | |
| DL1XH1-15 | 2026-09-01 04:56:20 | 52.68470 | 8.28871 | 61° | 35km/h | 19160m | 5.8m/s | -52°C | 3.7% | 65.9hPa | 2.7V | 08:30:00 | 01:24:34 | 00:00:00 | |
| DL1XH-west | 2026-09-01 04:56:19 | 52.68482 | 8.28922 | 70° | 33km/h | 19180m | 4.2m/s | -52.1°C | 0.7% | 65.7hPa | 2.7V | 18:12:15 | 01:24:38 | 00:00:00 | |
| HSKMA3-T | 2026-09-01 04:56:17 | 52.68477 | 8.28896 | 71° | 33km/h | 19170m | 4.9m/s | -52°C | 0.5% | 65.8hPa | 2.6V | 18:12:15 | 01:24:36 | 00:00:00 | |
| AA1-15 | 2026-09-01 04:56:16 | 52.68474 | 8.28884 | 66° | 33km/h | 19166m | 4.3m/s | -52°C | 0.6% | 65.8hPa | 2.6V | 18:12:15 | 01:24:35 | 00:00:00 | |
| GOEST3-10 | 2026-09-01 04:56:16 | 52.68474 | 8.28884 | 67° | 37km/h | 19166m | 4.2m/s | -52.0°C | 3.7% | 65.8hPa | 2.6V | 00:00:00 | 01:24:35 | 00:00:00 | |
| DL1NUX | 2026-09-01 04:56:15 | 52.68448 | 8.28798 | 68° | 40km/h | 19137m | 4.3m/s | -51.9°C | 3.7% | 66.1hPa | 2.6V | 08:30:00 | 01:24:29 | 00:00:00 | |
| AM1SDL-15 | 2026-09-01 04:56:14 | 52.68466 | 8.28858 | 60° | 37km/h | 19156m | 3.6m/s | -51.9°C | 3.8% | 65.9hPa | 2.7V | 00:00:00 | 01:24:33 | 00:00:00 | |
| DL1XH-15 | 2026-09-01 04:56:13 | 52.68440 | 8.28768 | 66° | 38km/h | 19127m | 4.6m/s | -51.8°C | 3.7% | 66.2hPa | 2.7V | 08:30:00 | 01:24:27 | 00:00:00 | |
| BIOWL1-15 | 2026-09-01 04:56:13 | 52.68461 | 8.28844 | 61° | 40km/h | 19152m | 3.9m/s | -51.9°C | 0.6% | 66hPa | 2.7V | 18:12:15 | 01:24:32 | 00:00:00 | |
| DO2SHX-10 | 2026-09-01 04:56:12 | 52.68456 | 8.28829 | 64° | 40km/h | 19147m | 5.7m/s | -51.9°C | 3.7% | 66.0hPa | 2.6V | 00:00:00 | 01:24:31 | 00:00:00 | |
| DO3DL | 2026-09-01 04:56:11 | 52.68456 | 8.28829 | 65° | 40km/h | 19147m | 5.8m/s | -51.9°C | 1.1% | 66.0hPa | 2.6V | 00:00:00 | 00:00:00 | 00:00:00 | |
| DB0DAN | 2026-09-01 04:56:10 | 52.68448 | 8.28798 | 69° | 38km/h | 19137m | 4.3m/s | -51.9°C | 1.1% | 66.12hPa | 2.6V | 00:00:00 | 00:00:00 | 00:00:00 | |
| DL1XH1-15 | 2026-09-01 04:56:10 | 52.68431 | 8.28727 | 73° | 33km/h | 19112m | 4.2m/s | -51.7°C | 3.7% | 66.4hPa | 2.6V | 08:30:00 | 01:24:24 | 00:00:00 | |
| DL1XH-west | 2026-09-01 04:56:08 | 52.68440 | 8.28768 | 66° | 38km/h | 19127m | 4.6m/s | -51.8°C | 0.6% | 66.2hPa | 2.7V | 18:12:15 | 01:24:27 | 00:00:00 | |
| HSKMA3-T | 2026-09-01 04:56:07 | 52.68437 | 8.28754 | 69° | 37km/h | 19122m | 4.8m/s | -51.8°C | 0.7% | 66.3hPa | 2.6V | 18:12:15 | 01:24:26 | 00:00:00 | |
| DJ2DS-15 | 2026-09-01 04:56:07 | 52.68437 | 8.28754 | 69° | 31km/h | 19123m | 4.7m/s | -51.7°C | 3.8% | 66.3hPa | 2.6V | 00:00:00 | 01:24:26 | 00:00:00 | |
| AA1-15 | 2026-09-01 04:56:06 | 52.68434 | 8.28740 | 73° | 35km/h | 19117m | 5.9m/s | -51.8°C | 0.6% | 66.4hPa | 2.6V | 18:12:15 | 01:24:25 | 00:00:00 | |
| DO2SHX-10 | 2026-09-01 04:56:06 | 52.68434 | 8.28740 | 73° | 33km/h | 19117m | 5.8m/s | -51.7°C | 3.7% | 66.3hPa | 2.7V | 00:00:00 | 01:24:25 | 00:00:00 | |
| HTAHTA | 2026-09-01 04:56:05 | 52.68429 | 8.28714 | 69° | 29km/h | 19107m | 5.8m/s | -51.7°C | 1.1% | 66.5hPa | 2.7V | 00:00:00 | 00:00:00 | 00:00:00 | |
| DL3AQ-11 | 2026-09-01 04:56:04 | 52.68429 | 8.28714 | 69° | 29km/h | 19107m | 5.8m/s | -51.7°C | 1.1% | 66.5hPa | 2.7V | 00:00:00 | 00:00:00 | 00:00:00 | |
| DL1XH-15 | 2026-09-01 04:56:03 | 52.68410 | 8.28650 | 57° | 29km/h | 19077m | 5.6m/s | -51.6°C | 3.7% | 66.8hPa | 2.7V | 08:30:00 | 01:24:17 | 00:00:00 | |
| DO2JMG | 2026-09-01 04:56:02 | 52.68423 | 8.28692 | 64° | 29km/h | 19096m | 4.4m/s | -51.7°C | 0.6% | 66.6hPa | 2.7V | 18:12:15 | 01:24:21 | 00:00:00 | |
| GOEST3-10 | 2026-09-01 04:56:01 | 52.68420 | 8.28681 | 66° | 29km/h | 19091m | 6.0m/s | -51.6°C | 3.7% | 66.6hPa | 2.6V | 00:00:00 | 00:00:00 | 00:00:00 | |
| DL1XH1-15 | 2026-09-01 04:56:00 | 52.68399 | 8.28616 | 70° | 31km/h | 19060m | 5m/s | -51.6°C | 3.8% | 67hPa | 2.6V | 08:30:00 | 01:24:14 | 00:00:00 | |
| DL1XH-west | 2026-09-01 04:55:57 | 52.68406 | 8.28639 | 58° | 31km/h | 19071m | 4.8m/s | -51.7°C | 0.6% | 66.8hPa | 2.7V | 18:12:15 | 01:24:16 | 00:00:00 | |
| DO2SHX-10 | 2026-09-01 04:55:57 | 52.68406 | 8.28639 | 58° | 31km/h | 19072m | 4.7m/s | -51.6°C | 3.7% | 66.8hPa | 2.6V | 00:00:00 | 01:24:16 | 00:00:00 | |
| GOEST3-10 | 2026-09-01 04:55:56 | 52.68402 | 8.28628 | 64° | 31km/h | 19066m | 5.7m/s | -51.6°C | 3.8% | 66.8hPa | 2.6V | 00:00:00 | 01:24:15 | 08:30:00 | |
| HSKMA3-T | 2026-09-01 04:55:56 | 52.68402 | 8.28628 | 63° | 31km/h | 19066m | 5.8m/s | -51.7°C | 0.7% | 66.9hPa | 2.6V | 18:12:15 | 01:24:15 | 00:00:00 | |
| DL1NUX | 2026-09-01 04:55:55 | 52.68388 | 8.28554 | 80° | 31km/h | 19036m | 6.1m/s | -51.6°C | 3.8% | 67.2hPa | 2.6V | 08:30:00 | 01:24:09 | 00:00:00 | |
| AA1-15 | 2026-09-01 04:55:55 | 52.68399 | 8.28616 | 71° | 31km/h | 19061m | 5m/s | -51.7°C | 0.6% | 67hPa | 2.6V | 18:12:15 | 01:24:14 | 00:00:00 | |
| DB0DAN | 2026-09-01 04:55:55 | 52.68399 | 8.28616 | 71° | 29km/h | 19061m | 5m/s | -51.7°C | 1.2% | 66.97hPa | 2.6V | 00:00:00 | 00:00:00 | 00:00:00 | |
| DO9LL-15 | 2026-09-01 04:55:54 | 52.68396 | 8.28604 | 76° | 27km/h | 19056m | 3.9m/s | -51.6°C | 3.8% | 66.9hPa | 2.6V | 00:00:00 | 01:24:13 | 08:30:00 | |
| DL1XH-15 | 2026-09-01 04:55:53 | 52.68386 | 8.28529 | 81° | 29km/h | 19027m | 3.4m/s | -51.5°C | 3.7% | 67.3hPa | 2.6V | 08:30:00 | 01:24:07 | 00:00:00 | |
| DO2JMG | 2026-09-01 04:55:51 | 52.68390 | 8.28566 | 75° | 31km/h | 19041m | 5.1m/s | -51.6°C | 0.6% | 67.1hPa | 2.7V | 18:12:15 | 01:24:10 | 00:00:00 | |
| DB0ND-19 | 2026-09-01 04:55:51 | 52.68388 | 8.28554 | 80° | 29km/h | 19036m | 6.1m/s | -51.6°C | 1.2% | 67.2hPa | 2.6V | 00:00:00 | 00:00:00 | 00:00:00 | |
| DL1XH1-15 | 2026-09-01 04:55:50 | 52.68380 | 8.28496 | 68° | 26km/h | 19013m | 3.7m/s | -51.4°C | 3.7% | 67.4hPa | 2.6V | 08:30:00 | 01:24:04 | 00:00:00 | |
| DL1XH-west | 2026-09-01 04:55:46 | 52.68383 | 8.28506 | 71° | 27km/h | 19017m | 4.8m/s | -51.5°C | 0.6% | 67.4hPa | 2.7V | 18:12:15 | 01:24:05 | 00:00:00 | |
| HSKMA3-T | 2026-09-01 04:55:45 | 52.68381 | 8.28496 | 69° | 26km/h | 19013m | 3.7m/s | -51.4°C | 0.6% | 67.4hPa | 2.6V | 18:12:15 | 01:24:04 | 00:00:00 | |
| DL1NUX | 2026-09-01 04:55:45 | 52.68373 | 8.28447 | 73° | 24km/h | 18988m | 5.2m/s | -51.3°C | 3.7% | 67.7hPa | 2.7V | 08:30:00 | 01:23:59 | 00:00:00 | |
| AA1-15 | 2026-09-01 04:55:44 | 52.68378 | 8.28486 | 72° | 26km/h | 19009m | 5.3m/s | -51.4°C | 0.5% | 67.5hPa | 2.6V | 18:12:15 | 01:24:03 | 00:00:00 | |
| DO2JMG | 2026-09-01 04:55:41 | 52.68374 | 8.28457 | 78° | 24km/h | 18994m | 5.1m/s | -51.4°C | 0.5% | 67.6hPa | 2.7V | 18:12:15 | 01:24:00 | 00:00:00 | |
| DB0DAN | 2026-09-01 04:55:40 | 52.68373 | 8.28447 | 74° | 24km/h | 18988m | 5.2m/s | -51.3°C | 1.2% | 67.69hPa | 2.7V | 00:00:00 | 00:00:00 | 00:00:00 | |
| DL1XH-west | 2026-09-01 04:55:36 | 52.68367 | 8.28403 | 81° | 31km/h | 18969m | 4.1m/s | -51.2°C | 0.6% | 67.9hPa | 2.7V | 18:12:15 | 01:23:55 | 00:00:00 | |
| HSKMA3-T | 2026-09-01 04:55:35 | 52.68365 | 8.28390 | 77° | 33km/h | 18964m | 5.7m/s | -51.2°C | 0.6% | 67.9hPa | 2.7V | 18:12:15 | 01:23:54 | 00:00:00 | |
| AA1-15 | 2026-09-01 04:55:34 | 52.68361 | 8.28364 | 74° | 33km/h | 18954m | 4.2m/s | -51.2°C | 0.5% | 68hPa | 2.6V | 18:12:15 | 01:23:52 | 00:00:00 | |
| BIOWL1-15 | 2026-09-01 04:55:30 | 52.68355 | 8.28328 | 73° | 26km/h | 18940m | 5.1m/s | -51.1°C | 0.5% | 68.2hPa | 2.7V | 18:12:15 | 01:23:49 | 00:00:00 | |
| DL1XH-west | 2026-09-01 04:55:26 | 52.68349 | 8.28294 | 79° | 22km/h | 18919m | 4.4m/s | -51.1°C | 0.5% | 68.4hPa | 2.6V | 18:12:15 | 01:23:45 | 00:00:00 | |
| DB0DAN | 2026-09-01 04:55:25 | 52.68347 | 8.28284 | 75° | 26km/h | 18915m | 5m/s | -51.1°C | 1.1% | 68.47hPa | 2.7V | 00:00:00 | 00:00:00 | 00:00:00 | |
| HSKMA3-T | 2026-09-01 04:55:25 | 52.68347 | 8.28284 | 75° | 26km/h | 18915m | 5m/s | -51.1°C | 0.5% | 68.5hPa | 2.7V | 18:12:15 | 01:23:44 | 00:00:00 | |
| DO9LL-15 | 2026-09-01 04:55:24 | 52.68345 | 8.28273 | 72° | 37km/h | 18909m | 5.2m/s | -51.1°C | 3.6% | 68.5hPa | 2.7V | 00:00:00 | 01:23:43 | 00:00:00 | |
| DL1XH-15 | 2026-09-01 04:55:23 | 52.68328 | 8.28177 | 70° | 40km/h | 18880m | 4.4m/s | -50.9°C | 3.5% | 68.8hPa | 2.7V | 08:30:00 | 01:23:37 | 00:00:00 | |
| AA1-15 | 2026-09-01 04:55:22 | 52.68340 | 8.28245 | 74° | 40km/h | 18899m | 6.2m/s | -51.1°C | 0.5% | 68.6hPa | 2.6V | 18:12:15 | 01:23:41 | 00:00:00 | |
| DB0NH | 2026-09-01 04:55:22 | 52.68340 | 8.28245 | 75° | 35km/h | 18899m | 6.2m/s | -51.1°C | 3.5% | 68.5hPa | 2.6V | 00:00:00 | 01:23:41 | 00:00:00 | |
| GOEST3-10 | 2026-09-01 04:55:21 | 52.68337 | 8.28228 | 76° | 42km/h | 18894m | 5.1m/s | -51.0°C | 3.5% | 68.6hPa | 2.6V | 00:00:00 | 00:00:00 | 00:00:00 | |
| DL1XH1-15 | 2026-09-01 04:55:20 | 52.68320 | 8.28136 | 72° | 29km/h | 18866m | 4.2m/s | -50.9°C | 3.5% | 69hPa | 2.6V | 08:30:00 | 01:23:34 | 00:00:00 | |
| DO2JMG | 2026-09-01 04:55:20 | 52.68334 | 8.28211 | 75° | 44km/h | 18889m | 3.7m/s | -51°C | 0.4% | 68.7hPa | 2.7V | 18:12:15 | 01:23:39 | 00:00:00 | |
| DF8AY | 2026-09-01 04:55:19 | 52.68317 | 8.28125 | 68° | 26km/h | 18862m | 4.4m/s | -50.9°C | 0.4% | 69hPa | 2.7V | 18:12:15 | 01:23:33 | 00:00:00 | |
| BIOWL1-15 | 2026-09-01 04:55:19 | 52.68331 | 8.28193 | 73° | 44km/h | 18884m | 5.5m/s | -51°C | 0.5% | 68.8hPa | 2.7V | 18:12:15 | 01:23:38 | 00:00:00 | |
| DL1XH-west | 2026-09-01 04:55:15 | 52.68320 | 8.28136 | 72° | 29km/h | 18866m | 4.2m/s | -50.9°C | 0.5% | 69hPa | 2.6V | 18:12:15 | 01:23:34 | 00:00:00 | |
| DO2SHX-10 | 2026-09-01 04:55:14 | 52.68317 | 8.28125 | 69° | 27km/h | 18862m | 4.4m/s | -50.8°C | 3.5% | 69.0hPa | 2.7V | 00:00:00 | 01:23:33 | 00:00:00 | |
| DL1XH-15 | 2026-09-01 04:55:13 | 52.68298 | 8.28058 | 65° | 37km/h | 18833m | 5.7m/s | -50.8°C | 3.5% | 69.3hPa | 2.7V | 08:30:00 | 01:23:27 | 00:00:00 | |
| AA1-15 | 2026-09-01 04:55:12 | 52.68311 | 8.28106 | 59° | 27km/h | 18852m | 4.5m/s | -50.9°C | 0.5% | 69.1hPa | 2.6V | 18:12:15 | 01:23:31 | 00:00:00 | |
| DB0DAN | 2026-09-01 04:55:10 | 52.68305 | 8.28084 | 67° | 29km/h | 18842m | 4.9m/s | -50.9°C | 1.1% | 69.26hPa | 2.6V | 00:00:00 | 00:00:00 | 00:00:00 | |
| DL1XH1-15 | 2026-09-01 04:55:10 | 52.68285 | 8.28015 | 66° | 38km/h | 18818m | 5.6m/s | -50.9°C | 3.6% | 69.5hPa | 2.6V | 08:30:00 | 01:23:24 | 00:00:00 | |
| DO2JMG | 2026-09-01 04:55:09 | 52.68301 | 8.28071 | 68° | 35km/h | 18838m | 4m/s | -50.8°C | 0.5% | 69.3hPa | 2.7V | 18:12:15 | 01:23:28 | 00:00:00 | |
| DL1XH-west | 2026-09-01 04:55:05 | 52.68285 | 8.28015 | 67° | 40km/h | 18818m | 5.6m/s | -50.9°C | 0.5% | 69.5hPa | 2.6V | 18:12:15 | 01:23:24 | 00:00:00 | |
| DF8AY | 2026-09-01 04:55:04 | 52.68281 | 8.28000 | 70° | 38km/h | 18813m | 5.3m/s | -50.8°C | 0.5% | 69.5hPa | 2.6V | 18:12:15 | 01:23:23 | 00:00:00 | |
| DO2SHX-10 | 2026-09-01 04:55:04 | 52.68281 | 8.27999 | 71° | 38km/h | 18813m | 5.3m/s | -50.8°C | 3.5% | 69.5hPa | 2.6V | 00:00:00 | 01:23:23 | 08:30:00 | |
| DL1XH-15 | 2026-09-01 04:55:03 | 52.68258 | 8.27912 | 66° | 40km/h | 18783m | 4.7m/s | -50.8°C | 3.5% | 69.9hPa | 2.7V | 08:30:00 | 01:23:17 | 00:00:00 | |
| AA1-15 | 2026-09-01 04:55:01 | 52.68271 | 8.27955 | 64° | 38km/h | 18798m | 4.4m/s | -50.8°C | 0.5% | 69.7hPa | 2.6V | 18:12:15 | 01:23:20 | 00:00:00 | |
| DO2SHX-10 | 2026-09-01 04:55:01 | 52.68271 | 8.27955 | 64° | 38km/h | 18798m | 4.4m/s | -50.8°C | 3.6% | 69.7hPa | 2.6V | 00:00:00 | 01:23:20 | 00:00:00 | |
| DL1XH1-15 | 2026-09-01 04:55:00 | 52.68245 | 8.27869 | 60° | 37km/h | 18768m | 4.2m/s | -50.8°C | 3.5% | 70hPa | 2.6V | 08:30:00 | 01:23:14 | 00:00:00 | |
| BIOWL1-15 | 2026-09-01 04:54:58 | 52.68258 | 8.27912 | 67° | 40km/h | 18783m | 4.7m/s | -50.8°C | 0.5% | 69.9hPa | 2.7V | 18:12:15 | 01:23:17 | 00:00:00 | |
| DO2SHX-10 | 2026-09-01 04:54:58 | 52.68258 | 8.27912 | 67° | 38km/h | 18783m | 4.7m/s | -50.7°C | 3.5% | 69.8hPa | 2.7V | 00:00:00 | 01:23:17 | 00:00:00 | |
| SO1NDE-10 | 2026-09-01 04:54:57 | 52.68254 | 8.27897 | 64° | 35km/h | 18778m | 5.0m/s | -50.7°C | 3.5% | 69.9hPa | 2.7V | 00:00:00 | 01:23:16 | 00:00:00 | |
| GOEST3-10 | 2026-09-01 04:54:56 | 52.68250 | 8.27883 | 62° | 37km/h | 18773m | 4.9m/s | -50.7°C | 3.5% | 69.9hPa | 2.7V | 00:00:00 | 01:23:15 | 00:00:00 | |
| DL1NUX | 2026-09-01 04:54:55 | 52.68227 | 8.27798 | 67° | 38km/h | 18744m | 4.7m/s | -50.8°C | 3.5% | 70.3hPa | 2.6V | 08:30:00 | 01:23:09 | 00:00:00 | |
| DL1XH-west | 2026-09-01 04:54:55 | 52.68245 | 8.27869 | 61° | 37km/h | 18768m | 4.2m/s | -50.8°C | 0.4% | 70hPa | 2.6V | 18:12:15 | 01:23:14 | 00:00:00 | |
| HSKMA3-T | 2026-09-01 04:54:54 | 52.68241 | 8.27856 | 64° | 37km/h | 18764m | 5.1m/s | -50.8°C | 0.5% | 70.1hPa | 2.6V | 18:12:15 | 01:23:13 | 00:00:00 | |
| DO9LL-15 | 2026-09-01 04:54:54 | 52.68241 | 8.27856 | 64° | 33km/h | 18764m | 5.1m/s | -50.7°C | 3.6% | 70.0hPa | 2.6V | 00:00:00 | 01:23:13 | 00:00:00 | |
| DL1XH-15 | 2026-09-01 04:54:53 | 52.68220 | 8.27769 | 70° | 37km/h | 18734m | 6.1m/s | -50.7°C | 3.5% | 70.4hPa | 2.6V | 08:30:00 | 01:23:07 | 00:00:00 | |
| DF8AY | 2026-09-01 04:54:53 | 52.68237 | 8.27842 | 68° | 37km/h | 18759m | 5.3m/s | -50.8°C | 0.4% | 70.1hPa | 2.6V | 18:12:15 | 01:23:12 | 00:00:00 | |
| AA1-15 | 2026-09-01 04:54:51 | 52.68231 | 8.27813 | 69° | 38km/h | 18749m | 5.5m/s | -50.8°C | 0.4% | 70.2hPa | 2.7V | 18:12:15 | 01:23:10 | 00:00:00 | |
| DO2JMG | 2026-09-01 04:54:48 | 52.68220 | 8.27769 | 71° | 37km/h | 18734m | 6.1m/s | -50.7°C | 0.4% | 70.4hPa | 2.6V | 18:12:15 | 01:23:07 | 00:00:00 | |
| BIOWL1-15 | 2026-09-01 04:54:47 | 52.68217 | 8.27755 | 74° | 33km/h | 18729m | 4.9m/s | -50.7°C | 0.4% | 70.5hPa | 2.7V | 18:12:15 | 01:23:06 | 00:00:00 | |
| SONCRA | 2026-09-01 04:54:46 | 52.68213 | 8.27731 | 70° | 29km/h | 18719m | 6.1m/s | -50.7°C | 1.0% | 70.6hPa | 2.7V | 00:00:00 | 00:00:00 | 00:00:00 | |
| DL1NUX | 2026-09-01 04:54:45 | 52.68204 | 8.27675 | 76° | 29km/h | 18693m | 5.6m/s | -50.8°C | 3.5% | 70.8hPa | 2.7V | 08:30:00 | 01:22:59 | 00:00:00 | |
| DL1XH-west | 2026-09-01 04:54:44 | 52.68210 | 8.27719 | 70° | 27km/h | 18714m | 4.6m/s | -50.7°C | 0.4% | 70.7hPa | 2.6V | 18:12:15 | 01:23:03 | 00:00:00 | |
| DL1XH-15 | 2026-09-01 04:54:43 | 52.68199 | 8.27650 | 69° | 35km/h | 18683m | 4m/s | -50.8°C | 3.6% | 70.9hPa | 2.6V | 08:30:00 | 01:22:57 | 00:00:00 | |
| HSKMA3-T | 2026-09-01 04:54:43 | 52.68208 | 8.27708 | 73° | 27km/h | 18709m | 4.7m/s | -50.8°C | 0.4% | 70.7hPa | 2.6V | 18:12:15 | 01:23:02 | 00:00:00 | |
| AA1-15 | 2026-09-01 04:54:41 | 52.68204 | 8.27675 | 77° | 29km/h | 18693m | 5.6m/s | -50.8°C | 0.4% | 70.8hPa | 2.7V | 18:12:15 | 01:22:59 | 00:00:00 | |
| DO2JMG | 2026-09-01 04:54:37 | 52.68196 | 8.27637 | 70° | 35km/h | 18679m | 5.4m/s | -50.8°C | 0.4% | 71hPa | 2.6V | 18:12:15 | 01:22:56 | 00:00:00 | |
| BIOWL1-15 | 2026-09-01 04:54:36 | 52.68193 | 8.27623 | 71° | 35km/h | 18674m | 4.9m/s | -50.7°C | 0.4% | 71hPa | 2.7V | 18:12:15 | 01:22:55 | 00:00:00 | |
| DB0UT-7 | 2026-09-01 04:54:36 | 52.68192 | 8.27623 | 71° | 35km/h | 18674m | 4.8m/s | -50.7°C | 3.5% | 71.0hPa | 2.7V | 00:00:00 | 01:22:55 | 08:30:00 | |
| DL1NUX | 2026-09-01 04:54:35 | 52.68167 | 8.27546 | 62° | 31km/h | 18644m | 5.5m/s | -50.7°C | 3.5% | 71.4hPa | 2.7V | 08:30:00 | 01:22:49 | 00:00:00 | |
| DL1XH-west | 2026-09-01 04:54:33 | 52.68181 | 8.27582 | 58° | 37km/h | 18658m | 4.9m/s | -50.7°C | 0.5% | 71.2hPa | 2.6V | 18:12:15 | 01:22:52 | 00:00:00 | |
| DF8AY | 2026-09-01 04:54:30 | 52.68168 | 8.27546 | 62° | 31km/h | 18644m | 5.5m/s | -50.7°C | 0.4% | 71.4hPa | 2.7V | 18:12:15 | 01:22:49 | 00:00:00 | |
| AA1-15 | 2026-09-01 04:54:29 | 52.68164 | 8.27534 | 66° | 31km/h | 18639m | 4.3m/s | -50.7°C | 0.5% | 71.4hPa | 2.7V | 18:12:15 | 01:22:48 | 00:00:00 | |
| DO2JMG | 2026-09-01 04:54:26 | 52.68153 | 8.27498 | 62° | 33km/h | 18624m | 3.9m/s | -50.6°C | 0.4% | 71.6hPa | 2.6V | 18:12:15 | 01:22:45 | 00:00:00 | |
| DB0DAN | 2026-09-01 04:54:25 | 52.68149 | 8.27486 | 63° | 33km/h | 18620m | 4.5m/s | -50.6°C | 1.1% | 71.63hPa | 2.7V | 00:00:00 | 00:00:00 | 00:00:00 | |
| BIOWL1-15 | 2026-09-01 04:54:25 | 52.68149 | 8.27486 | 63° | 35km/h | 18620m | 4.5m/s | -50.6°C | 0.4% | 71.6hPa | 2.7V | 18:12:15 | 01:22:44 | 00:00:00 | |
| DL1NUX | 2026-09-01 04:54:25 | 52.68126 | 8.27422 | 50° | 38km/h | 18594m | 3.7m/s | -50.4°C | 3.5% | 71.9hPa | 2.6V | 08:30:00 | 01:22:39 | 00:00:00 | |
| DL1XH-west | 2026-09-01 04:54:23 | 52.68142 | 8.27460 | 64° | 35km/h | 18610m | 5.2m/s | -50.5°C | 0.4% | 71.8hPa | 2.7V | 18:12:15 | 01:22:42 | 00:00:00 | |
| DO2SHX-10 | 2026-09-01 04:54:23 | 52.68142 | 8.27460 | 64° | 37km/h | 18610m | 5.1m/s | -50.5°C | 3.5% | 71.7hPa | 2.6V | 00:00:00 | 01:22:42 | 00:00:00 | |
| DL4XJ-10 | 2026-09-01 04:54:22 | 52.68137 | 8.27447 | 60° | 35km/h | 18604m | 5.4m/s | -53.0°C | 0% | 0hPa | 2.6V | 00:00:00 | 00:00:00 | 00:00:00 | |
| GOEST3-10 | 2026-09-01 04:54:21 | 52.68132 | 8.27434 | 55° | 38km/h | 18599m | 5.0m/s | -50.4°C | 3.5% | 71.8hPa | 2.6V | 00:00:00 | 00:00:00 | 00:00:00 | |
| DL1XH1-15 | 2026-09-01 04:54:20 | 52.68096 | 8.27362 | 47° | 38km/h | 18570m | 4.1m/s | -50.2°C | 3.5% | 72.2hPa | 2.6V | 08:30:00 | 01:22:34 | 00:00:00 | |
| DF8AY | 2026-09-01 04:54:20 | 52.68120 | 8.27410 | 51° | 37km/h | 18590m | 5.2m/s | -50.4°C | 0.5% | 72hPa | 2.7V | 18:12:15 | 01:22:38 | 00:00:00 | |
| AA1-15 | 2026-09-01 04:54:18 | 52.68115 | 8.27398 | 51° | 37km/h | 18585m | 5.1m/s | -50.4°C | 0.5% | 72hPa | 2.7V | 18:12:15 | 01:22:37 | 00:00:00 | |
| DO2JMG | 2026-09-01 04:54:16 | 52.68102 | 8.27374 | 48° | 38km/h | 18575m | 5.9m/s | -50.3°C | 0.5% | 72.2hPa | 2.6V | 18:12:15 | 01:22:35 | 00:00:00 | |
| BIOWL1-15 | 2026-09-01 04:54:15 | 52.68096 | 8.27362 | 48° | 38km/h | 18570m | 4.1m/s | -50.3°C | 0.4% | 72.2hPa | 2.6V | 18:12:15 | 01:22:34 | 00:00:00 | |
| DL1XH-west | 2026-09-01 04:54:13 | 52.68084 | 8.27339 | 54° | 35km/h | 18561m | 5.5m/s | -50.2°C | 0.4% | 72.3hPa | 2.7V | 18:12:15 | 01:22:32 | 00:00:00 | |
| HSKMA3-T | 2026-09-01 04:54:12 | 52.68079 | 8.27327 | 58° | 33km/h | 18556m | 4.2m/s | -50.2°C | 0.5% | 72.4hPa | 2.7V | 18:12:15 | 01:22:31 | 00:00:00 | |
| DL1XH1-15 | 2026-09-01 04:54:12 | 52.68044 | 8.27260 | 41° | 31km/h | 18522m | 4.7m/s | -50°C | 3.4% | 72.7hPa | 2.6V | 08:30:00 | 01:22:24 | 00:00:00 | |
| DF8AY | 2026-09-01 04:54:09 | 52.68065 | 8.27295 | 48° | 31km/h | 18543m | 5m/s | -50.1°C | 0.4% | 72.5hPa | 2.6V | 18:12:15 | 01:22:28 | 00:00:00 | |
| AA1-15 | 2026-09-01 04:54:07 | 52.68055 | 8.27277 | 46° | 29km/h | 18532m | 6.1m/s | -50.1°C | 0.4% | 72.6hPa | 2.7V | 18:12:15 | 01:22:26 | 00:00:00 | |
| DO2JMG | 2026-09-01 04:54:05 | 52.68044 | 8.27260 | 41° | 31km/h | 18522m | 4.7m/s | -50°C | 0.4% | 72.8hPa | 2.6V | 18:12:15 | 01:22:24 | 00:00:00 | |
| DL1XH-west | 2026-09-01 04:54:02 | 52.68024 | 8.27235 | 37° | 35km/h | 18505m | 5.6m/s | -50°C | 0.4% | 72.9hPa | 2.7V | 18:12:15 | 01:22:21 | 00:00:00 | |
| DO2SHX-10 | 2026-09-01 04:54:02 | 52.68024 | 8.27235 | 38° | 35km/h | 18506m | 5.6m/s | -49.9°C | 3.4% | 72.9hPa | 2.7V | 00:00:00 | 01:22:21 | 00:00:00 | |
| DL1XH-15 | 2026-09-01 04:54:01 | 52.67984 | 8.27183 | 41° | 31km/h | 18474m | 5.4m/s | -49.8°C | 3.4% | 73.3hPa | 2.7V | 08:30:00 | 01:22:15 | 00:00:00 | |
| HSKMA3-T | 2026-09-01 04:54:01 | 52.68017 | 8.27226 | 39° | 35km/h | 18500m | 4.7m/s | -50°C | 0.4% | 73hPa | 2.7V | 18:12:15 | 01:22:20 | 00:00:00 | |
| DF8AY | 2026-09-01 04:53:58 | 52.67997 | 8.27200 | 37° | 33km/h | 18485m | 4.9m/s | -49.8°C | 0.3% | 73.2hPa | 2.6V | 18:12:15 | 01:22:17 | 00:00:00 | |
| AA1-15 | 2026-09-01 04:53:56 | 52.67985 | 8.27183 | 42° | 31km/h | 18474m | 5.4m/s | -49.8°C | 0.4% | 73.3hPa | 2.7V | 18:12:15 | 01:22:15 | 00:00:00 | |
| BIOWL1-15 | 2026-09-01 04:53:56 | 52.67973 | 8.27167 | 40° | 29km/h | 18464m | 5.8m/s | -49.8°C | 0.5% | 73.4hPa | 2.6V | 18:12:15 | 01:22:13 | 00:00:00 | |
| DB0DAN | 2026-09-01 04:53:55 | 52.67979 | 8.27175 | 43° | 27km/h | 18469m | 4.1m/s | -49.8°C | 1.1% | 73.36hPa | 2.6V | 00:00:00 | 00:00:00 | 00:00:00 | |
| DO2JMG | 2026-09-01 04:53:55 | 52.67979 | 8.27175 | 43° | 29km/h | 18469m | 4.1m/s | -49.8°C | 0.4% | 73.4hPa | 2.6V | 18:12:15 | 01:22:14 | 00:00:00 | |
| DJ2DS-15 | 2026-09-01 04:53:53 | 52.67962 | 8.27151 | 40° | 29km/h | 18455m | 3.6m/s | -49.8°C | 1.1% | 73.5hPa | 2.7V | 00:00:00 | 00:00:00 | 00:00:00 | |
| DO2SHX-10 | 2026-09-01 04:53:52 | 52.67962 | 8.27151 | 41° | 29km/h | 18455m | 3.6m/s | -49.7°C | 3.5% | 73.5hPa | 2.7V | 00:00:00 | 01:22:11 | 00:00:00 | |
| DL1XH-west | 2026-09-01 04:53:52 | 52.67962 | 8.27151 | 41° | 29km/h | 18455m | 3.6m/s | -49.8°C | 0.4% | 73.5hPa | 2.7V | 18:12:15 | 01:22:11 | 00:00:00 | |
| DL1XH-15 | 2026-09-01 04:53:51 | 52.67931 | 8.27098 | 38° | 29km/h | 18426m | 4.5m/s | -49.7°C | 3.3% | 73.8hPa | 2.7V | 08:30:00 | 01:22:05 | 00:00:00 | |
| GOEST3-10 | 2026-09-01 04:53:51 | 52.67956 | 8.27143 | 45° | 29km/h | 18450m | 5.8m/s | -49.7°C | 3.4% | 73.5hPa | 2.7V | 00:00:00 | 00:00:00 | 00:00:00 | |
| DL1XH1-15 | 2026-09-01 04:53:50 | 52.67925 | 8.27091 | 37° | 27km/h | 18422m | 4.6m/s | -49.7°C | 3.3% | 73.9hPa | 2.7V | 08:30:00 | 01:22:04 | 00:00:00 | |
| HSKMA3-T | 2026-09-01 04:53:50 | 52.67952 | 8.27134 | 50° | 27km/h | 18445m | 5m/s | -49.7°C | 0.4% | 73.6hPa | 2.7V | 18:12:15 | 01:22:09 | 00:00:00 | |
| DF8AY | 2026-09-01 04:53:47 | 52.67937 | 8.27107 | 43° | 31km/h | 18431m | 4.7m/s | -49.7°C | 0.3% | 73.8hPa | 2.6V | 18:12:15 | 01:22:06 | 00:00:00 | |
| AA1-15 | 2026-09-01 04:53:46 | 52.67931 | 8.27098 | 38° | 29km/h | 18426m | 4.5m/s | -49.7°C | 0.3% | 73.8hPa | 2.7V | 18:12:15 | 01:22:05 | 00:00:00 | |
| BIOWL9-15 | 2026-09-01 04:53:46 | 52.67925 | 8.27091 | 37° | 27km/h | 18422m | 4.6m/s | -49.7°C | 1.1% | 73.9hPa | 2.7V | 00:00:00 | 00:00:00 | 00:00:00 | |
| DL1NUX | 2026-09-01 04:53:45 | 52.67900 | 8.27056 | 39° | 29km/h | 18397m | 4.6m/s | -49.6°C | 3.3% | 74.1hPa | 2.7V | 08:30:00 | 01:21:59 | 00:00:00 | |
| DO2JMG | 2026-09-01 04:53:45 | 52.67925 | 8.27091 | 38° | 27km/h | 18422m | 4.6m/s | -49.7°C | 0.3% | 73.9hPa | 2.7V | 18:12:15 | 01:22:04 | 00:00:00 | |
| BIOWL1-15 | 2026-09-01 04:53:44 | 52.67920 | 8.27084 | 40° | 26km/h | 18417m | 5.5m/s | -49.7°C | 0.4% | 73.9hPa | 2.6V | 18:12:15 | 01:22:03 | 00:00:00 | |
| DL1XH-west | 2026-09-01 04:53:41 | 52.67905 | 8.27064 | 38° | 27km/h | 18402m | 5.4m/s | -49.7°C | 0.3% | 74.1hPa | 2.7V | 18:12:15 | 01:22:00 | 00:00:00 | |
| GOEST3-10 | 2026-09-01 04:53:41 | 52.67905 | 8.27064 | 39° | 29km/h | 18402m | 5.3m/s | -49.6°C | 3.3% | 74.0hPa | 2.7V | 00:00:00 | 00:00:00 | 08:30:00 | |
| DL1XH1-15 | 2026-09-01 04:53:40 | 52.67876 | 8.27010 | 54° | 31km/h | 18372m | 4.4m/s | -49.7°C | 3.4% | 74.4hPa | 2.7V | 08:30:00 | 01:21:54 | 00:00:00 | |
| HSKMA3-T | 2026-09-01 04:53:39 | 52.67894 | 8.27048 | 45° | 29km/h | 18392m | 5.2m/s | -49.6°C | 0.4% | 74.2hPa | 2.7V | 18:12:15 | 01:21:58 | 00:00:00 | |
| DF8AY | 2026-09-01 04:53:37 | 52.67885 | 8.27030 | 53° | 29km/h | 18382m | 3.8m/s | -49.6°C | 0.3% | 74.3hPa | 2.6V | 18:12:15 | 01:21:56 | 00:00:00 | |
| AA1-15 | 2026-09-01 04:53:35 | 52.67876 | 8.27010 | 55° | 31km/h | 18372m | 4.4m/s | -49.7°C | 0.3% | 74.4hPa | 2.7V | 18:12:15 | 01:21:54 | 00:00:00 | |
| DO2JMG | 2026-09-01 04:53:34 | 52.67871 | 8.26999 | 58° | 31km/h | 18368m | 4.6m/s | -49.6°C | 0.4% | 74.5hPa | 2.7V | 18:12:15 | 01:21:53 | 00:00:00 | |
| BIOWL1-15 | 2026-09-01 04:53:33 | 52.67867 | 8.26987 | 62° | 31km/h | 18362m | 6m/s | -49.6°C | 0.4% | 74.5hPa | 2.6V | 18:12:15 | 01:21:52 | 00:00:00 | |
| DL1XH-west | 2026-09-01 04:53:31 | 52.67860 | 8.26964 | 61° | 31km/h | 18353m | 4.2m/s | -49.7°C | 0.3% | 74.7hPa | 2.6V | 18:12:15 | 01:21:50 | 00:00:00 | |
| GOEST3-10 | 2026-09-01 04:53:31 | 52.67860 | 8.26964 | 61° | 31km/h | 18354m | 4.1m/s | -49.6°C | 3.3% | 74.6hPa | 2.6V | 00:00:00 | 00:00:00 | 00:00:00 | |
| DL1XH1-15 | 2026-09-01 04:53:30 | 52.67831 | 8.26903 | 48° | 29km/h | 18323m | 5m/s | -49.5°C | 3.3% | 75hPa | 2.6V | 08:30:00 | 01:21:44 | 00:00:00 | |
| HSKMA3-T | 2026-09-01 04:53:28 | 52.67845 | 8.26932 | 50° | 31km/h | 18338m | 4.8m/s | -49.6°C | 0.3% | 74.8hPa | 2.7V | 18:12:15 | 01:21:47 | 00:00:00 | |
| DF8AY | 2026-09-01 04:53:27 | 52.67840 | 8.26922 | 51° | 31km/h | 18333m | 5.8m/s | -49.6°C | 0.3% | 74.9hPa | 2.6V | 18:12:15 | 01:21:46 | 00:00:00 | |
| DO3DL | 2026-09-01 04:53:27 | 52.67840 | 8.26922 | 52° | 31km/h | 18333m | 5.8m/s | -49.6°C | 1.1% | 74.9hPa | 2.6V | 00:00:00 | 00:00:00 | 00:00:00 | |
| GOEST3-10 | 2026-09-01 04:53:26 | 52.67835 | 8.26912 | 52° | 29km/h | 18328m | 4.2m/s | -49.5°C | 3.3% | 74.9hPa | 2.6V | 00:00:00 | 01:21:45 | 00:00:00 | |
| DL1NUX | 2026-09-01 04:53:25 | 52.67810 | 8.26856 | 68° | 27km/h | 18298m | 4m/s | -49.6°C | 3.3% | 75.3hPa | 2.6V | 08:30:00 | 01:21:39 | 00:00:00 | |
| DB0DAN | 2026-09-01 04:53:25 | 52.67831 | 8.26903 | 49° | 29km/h | 18323m | 5m/s | -49.6°C | 1% | 74.97hPa | 2.6V | 00:00:00 | 00:00:00 | 00:00:00 | |
| AA1-15 | 2026-09-01 04:53:25 | 52.67831 | 8.26903 | 49° | 29km/h | 18323m | 5m/s | -49.6°C | 0.3% | 75hPa | 2.6V | 18:12:15 | 01:21:44 | 00:00:00 | |
| BIOWL1-15 | 2026-09-01 04:53:23 | 52.67821 | 8.26884 | 49° | 29km/h | 18314m | 4.5m/s | -49.6°C | 0.3% | 75.1hPa | 2.7V | 18:12:15 | 01:21:42 | 00:00:00 | |
| DL8DAS-14 | 2026-09-01 04:53:22 | 52.67813 | 8.26866 | 63° | 26km/h | 18303m | 5.1m/s | -49.6°C | -1.0% | 75.2hPa | 2.6V | 00:00:00 | 00:00:00 | 00:00:00 | |
| GOEST3-10 | 2026-09-01 04:53:21 | 52.67813 | 8.26866 | 64° | 29km/h | 18303m | 5.1m/s | -49.5°C | 3.3% | 75.2hPa | 2.6V | 00:00:00 | 00:00:00 | 00:00:00 | |
| DL1XH1-15 | 2026-09-01 04:53:20 | 52.67798 | 8.26795 | 76° | 35km/h | 18273m | 4.1m/s | -49.5°C | 3.3% | 75.6hPa | 2.6V | 08:30:00 | 01:21:34 | 00:00:00 | |
| DL1XH-west | 2026-09-01 04:53:20 | 52.67810 | 8.26856 | 68° | 27km/h | 18298m | 4.1m/s | -49.6°C | 0.3% | 75.3hPa | 2.6V | 18:12:15 | 01:21:39 | 00:00:00 | |
| DD8BA-10 | 2026-09-01 04:53:20 | 52.67810 | 8.26856 | 69° | 33km/h | 18298m | 4.0m/s | -49.5°C | 3.3% | 75.2hPa | 2.6V | 00:00:00 | 00:00:00 | 00:00:00 | |
| DL1XH-15 | 2026-09-01 04:53:19 | 52.67796 | 8.26781 | 70° | 35km/h | 18268m | 5.1m/s | -49.5°C | 3.3% | 75.6hPa | 2.6V | 08:30:00 | 01:21:33 | 00:00:00 | |
| HSKMA3-T | 2026-09-01 04:53:19 | 52.67805 | 8.26834 | 70° | 29km/h | 18288m | 3.9m/s | -49.6°C | 0.4% | 75.3hPa | 2.7V | 18:12:15 | 01:21:37 | 00:00:00 | |
| DF8AY | 2026-09-01 04:53:16 | 52.67800 | 8.26809 | 77° | 33km/h | 18278m | 5.9m/s | -49.6°C | 0.4% | 75.5hPa | 2.6V | 18:12:15 | 01:21:35 | 00:00:00 | |
| DO2SHX-10 | 2026-09-01 04:53:16 | 52.67800 | 8.26809 | 77° | 35km/h | 18279m | 5.9m/s | -49.5°C | 3.4% | 75.5hPa | 2.6V | 00:00:00 | 01:21:35 | 00:00:00 | |
| DL1NUX | 2026-09-01 04:53:15 | 52.67781 | 8.26731 | 62° | 31km/h | 18250m | 4.8m/s | -49.5°C | 3.3% | 75.8hPa | 2.6V | 08:30:00 | 01:21:29 | 00:00:00 | |
| AA1-15 | 2026-09-01 04:53:14 | 52.67796 | 8.26781 | 71° | 35km/h | 18268m | 5.1m/s | -49.5°C | 0.3% | 75.6hPa | 2.6V | 18:12:15 | 01:21:33 | 00:00:00 | |
| DO2JMG | 2026-09-01 04:53:12 | 52.67789 | 8.26755 | 61° | 35km/h | 18259m | 3.8m/s | -49.5°C | 0.3% | 75.7hPa | 2.7V | 18:12:15 | 01:21:31 | 00:00:00 | |
| DL3AQ-11 | 2026-09-01 04:53:11 | 52.67781 | 8.26731 | 62° | 31km/h | 18250m | 4.8m/s | -49.5°C | 1.1% | 75.8hPa | 2.6V | 00:00:00 | 00:00:00 | 00:00:00 | |
| DL1XH1-15 | 2026-09-01 04:53:10 | 52.67760 | 8.26678 | 59° | 33km/h | 18228m | 4.2m/s | -49.5°C | 3.3% | 76.1hPa | 2.6V | 08:30:00 | 01:21:24 | 00:00:00 | |
| DB0DAN | 2026-09-01 04:53:10 | 52.67781 | 8.26731 | 62° | 31km/h | 18250m | 4.8m/s | -49.5°C | 1.1% | 75.85hPa | 2.6V | 00:00:00 | 00:00:00 | 00:00:00 | |
| DL1XH-west | 2026-09-01 04:53:10 | 52.67781 | 8.26731 | 62° | 31km/h | 18250m | 4.8m/s | -49.5°C | 0.4% | 75.8hPa | 2.6V | 18:12:15 | 01:21:29 | 00:00:00 | |
| DO2SHX-10 | 2026-09-01 04:53:10 | 52.67780 | 8.26730 | 63° | 29km/h | 18250m | 4.8m/s | -49.4°C | 3.3% | 75.8hPa | 2.6V | 00:00:00 | 01:21:29 | 00:00:00 | |
| DL1XH-15 | 2026-09-01 04:53:09 | 52.67756 | 8.26666 | 65° | 35km/h | 18223m | 5.8m/s | -49.5°C | 3.3% | 76.2hPa | 2.6V | 08:30:00 | 01:21:23 | 00:00:00 | |
| HSKMA3-T | 2026-09-01 04:53:08 | 52.67773 | 8.26709 | 58° | 27km/h | 18241m | 4.6m/s | -49.5°C | 0.3% | 75.9hPa | 2.7V | 18:12:15 | 01:21:27 | 00:00:00 | |
| DF8AY | 2026-09-01 04:53:06 | 52.67764 | 8.26689 | 54° | 31km/h | 18232m | 4.2m/s | -49.5°C | 0.3% | 76.1hPa | 2.7V | 18:12:15 | 01:21:25 | 00:00:00 | |
| DL1NUX | 2026-09-01 04:53:06 | 52.67744 | 8.26606 | 72° | 38km/h | 18203m | 4.6m/s | -49.6°C | 3.3% | 76.3hPa | 2.7V | 08:30:00 | 01:21:19 | 00:00:00 | |
| AA1-15 | 2026-09-01 04:53:03 | 52.67753 | 8.26652 | 72° | 37km/h | 18218m | 4.4m/s | -49.5°C | 0.4% | 76.2hPa | 2.6V | 18:12:15 | 01:21:22 | 00:00:00 | |
| DO2JMG | 2026-09-01 04:53:01 | 52.67747 | 8.26622 | 73° | 40km/h | 18208m | 5.1m/s | -49.6°C | 0.3% | 76.3hPa | 2.7V | 18:12:15 | 01:21:20 | 00:00:00 | |
| DL1XH-west | 2026-09-01 04:53:00 | 52.67744 | 8.26606 | 73° | 38km/h | 18204m | 4.6m/s | -49.6°C | 0.3% | 76.3hPa | 2.7V | 18:12:15 | 01:21:19 | 00:00:00 | |
| DL3AQ-11 | 2026-09-01 04:53:00 | 52.67741 | 8.26592 | 74° | 35km/h | 18199m | 4.0m/s | -49.7°C | 1.1% | 76.4hPa | 2.7V | 00:00:00 | 00:00:00 | 00:00:00 | |
| DL1XH-15 | 2026-09-01 04:52:59 | 52.67731 | 8.26524 | 69° | 33km/h | 18174m | 4.3m/s | -49.8°C | 3.3% | 76.7hPa | 2.7V | 08:30:00 | 01:21:13 | 00:00:00 | |
| HSKMA3-T | 2026-09-01 04:52:57 | 52.67738 | 8.26563 | 80° | 33km/h | 18189m | 4.6m/s | -49.6°C | 0.3% | 76.5hPa | 2.6V | 18:12:15 | 01:21:16 | 00:00:00 | |
| DF8AY | 2026-09-01 04:52:55 | 52.67734 | 8.26537 | 73° | 33km/h | 18179m | 5.4m/s | -49.7°C | 0.3% | 76.7hPa | 2.7V | 18:12:15 | 01:21:14 | 00:00:00 | |
| AA1-15 | 2026-09-01 04:52:52 | 52.67725 | 8.26498 | 71° | 33km/h | 18164m | 4.8m/s | -49.9°C | 0.4% | 76.8hPa | 2.6V | 18:12:15 | 01:21:11 | 00:00:00 | |
| BIOWL1-15 | 2026-09-01 04:52:51 | 52.67722 | 8.26484 | 70° | 35km/h | 18160m | 4.2m/s | -49.9°C | 0.4% | 76.9hPa | 2.6V | 18:12:15 | 01:21:10 | 00:00:00 | |
| DL1XH-west | 2026-09-01 04:52:50 | 52.67719 | 8.26471 | 66° | 37km/h | 18155m | 5.4m/s | -49.9°C | 0.4% | 76.9hPa | 2.7V | 18:12:15 | 01:21:09 | 00:00:00 | |
| HSKMA3-T | 2026-09-01 04:52:47 | 52.67707 | 8.26430 | 65° | 37km/h | 18140m | 5.9m/s | -49.9°C | 0.4% | 77.1hPa | 2.6V | 18:12:15 | 01:21:06 | 00:00:00 | |
| DJ2DS-15 | 2026-09-01 04:52:47 | 52.67706 | 8.26430 | 66° | 35km/h | 18140m | 5.9m/s | -49.9°C | 3.4% | 77.1hPa | 2.6V | 00:00:00 | 01:21:06 | 00:00:00 | |
| GOEST3-10 | 2026-09-01 04:52:46 | 52.67703 | 8.26416 | 69° | 33km/h | 18135m | 4.8m/s | -49.9°C | 3.3% | 77.1hPa | 2.6V | 00:00:00 | 01:21:05 | 00:00:00 | |
| DL1NUX | 2026-09-01 04:52:45 | 52.67688 | 8.26340 | 75° | 29km/h | 18106m | 3.7m/s | -50°C | 3.3% | 77.5hPa | 2.6V | 08:30:00 | 01:20:59 | 00:00:00 | |
| DF8AY | 2026-09-01 04:52:45 | 52.67700 | 8.26403 | 71° | 35km/h | 18130m | 3.8m/s | -49.9°C | 0.4% | 77.2hPa | 2.6V | 18:12:15 | 01:21:04 | 00:00:00 | |
| DB0ND-19 | 2026-09-01 04:52:44 | 52.67697 | 8.26390 | 69° | 33km/h | 18126m | 5.5m/s | -50.0°C | 1.0% | 77.3hPa | 2.6V | 00:00:00 | 00:00:00 | 00:00:00 | |
| AA1-15 | 2026-09-01 04:52:41 | 52.67690 | 8.26352 | 76° | 31km/h | 18110m | 5.4m/s | -50°C | 0.3% | 77.5hPa | 2.6V | 18:12:15 | 01:21:00 | 00:00:00 | |
| DB0DAN | 2026-09-01 04:52:40 | 52.67688 | 8.26340 | 75° | 27km/h | 18106m | 3.7m/s | -50°C | 1.1% | 77.56hPa | 2.6V | 00:00:00 | 00:00:00 | 00:00:00 | |
| DL1XH1-15 | 2026-09-01 04:52:40 | 52.67676 | 8.26281 | 77° | 31km/h | 18081m | 4.2m/s | -50.3°C | 3.4% | 77.8hPa | 2.6V | 08:30:00 | 01:20:54 | 00:00:00 | |
| BIOWL1-15 | 2026-09-01 04:52:40 | 52.67688 | 8.26340 | 75° | 29km/h | 18106m | 3.7m/s | -50°C | 0.3% | 77.6hPa | 2.6V | 18:12:15 | 01:20:59 | 00:00:00 | |
| DL1XH-west | 2026-09-01 04:52:39 | 52.67686 | 8.26328 | 71° | 29km/h | 18101m | 5.8m/s | -50.1°C | 0.3% | 77.6hPa | 2.7V | 18:12:15 | 01:20:58 | 00:00:00 | |
| HSKMA3-T | 2026-09-01 04:52:37 | 52.67680 | 8.26306 | 70° | 29km/h | 18091m | 4.3m/s | -50.2°C | 0.4% | 77.7hPa | 2.7V | 18:12:15 | 01:20:56 | 00:00:00 | |
| DB0UT-7 | 2026-09-01 04:52:36 | 52.67678 | 8.26294 | 74° | 38km/h | 18087m | 5.8m/s | -50.2°C | 3.4% | 77.7hPa | 2.6V | 00:00:00 | 01:20:55 | 00:00:00 | |
| DL1NUX | 2026-09-01 04:52:35 | 52.67669 | 8.26208 | 88° | 40km/h | 18056m | 4.5m/s | -50.3°C | 3.4% | 78.1hPa | 2.6V | 08:30:00 | 01:20:49 | 00:00:00 | |
| DF8AY | 2026-09-01 04:52:34 | 52.67674 | 8.26268 | 77° | 33km/h | 18077m | 5.3m/s | -50.3°C | 0.4% | 77.9hPa | 2.6V | 18:12:15 | 01:20:53 | 00:00:00 | |
| DO2SHX-10 | 2026-09-01 04:52:33 | 52.67671 | 8.26240 | 81° | 38km/h | 18067m | 4.3m/s | -50.3°C | 3.4% | 78.0hPa | 2.6V | 00:00:00 | 01:20:51 | 00:00:00 | |
| GOEST3-10 | 2026-09-01 04:52:32 | 52.67669 | 8.26225 | 86° | 40km/h | 18062m | 6.0m/s | -50.3°C | 3.5% | 78.0hPa | 2.6V | 00:00:00 | 00:00:00 | 00:00:00 | |
| AA1-15 | 2026-09-01 04:52:32 | 52.67670 | 8.26225 | 85° | 38km/h | 18062m | 6.1m/s | -50.3°C | 0.5% | 78hPa | 2.6V | 18:12:15 | 01:20:50 | 00:00:00 | |
| DL3AQ-11 | 2026-09-01 04:52:31 | 52.67669 | 8.26208 | 88° | 40km/h | 18057m | 4.5m/s | -50.3°C | 1.1% | 78.1hPa | 2.6V | 00:00:00 | 00:00:00 | 00:00:00 | |
| DL1XH1-15 | 2026-09-01 04:52:30 | 52.67664 | 8.26127 | 79° | 37km/h | 18034m | 5.1m/s | -50.3°C | 3.4% | 78.4hPa | 2.6V | 08:30:00 | 01:20:44 | 00:00:00 | |
| DD8BA-10 | 2026-09-01 04:52:30 | 52.67669 | 8.26208 | 89° | 38km/h | 18057m | 4.4m/s | -50.3°C | 3.4% | 78.0hPa | 2.6V | 00:00:00 | 00:00:00 | 00:00:00 | |
| DL1XH-15 | 2026-09-01 04:52:29 | 52.67662 | 8.26112 | 79° | 37km/h | 18030m | 4.4m/s | -50.3°C | 3.4% | 78.5hPa | 2.6V | 08:30:00 | 01:20:43 | 00:00:00 | |
| DO2JMG | 2026-09-01 04:52:29 | 52.67669 | 8.26191 | 89° | 42km/h | 18052m | 3.6m/s | -50.3°C | 0.4% | 78.2hPa | 2.6V | 18:12:15 | 01:20:48 | 00:00:00 | |
| DL1XH-west | 2026-09-01 04:52:28 | 52.67668 | 8.26174 | 86° | 40km/h | 18048m | 5.3m/s | -50.3°C | 0.5% | 78.2hPa | 2.7V | 18:12:15 | 01:20:47 | 00:00:00 | |
| HSKMA3-T | 2026-09-01 04:52:26 | 52.67666 | 8.26143 | 79° | 38km/h | 18039m | 3.8m/s | -50.3°C | 0.4% | 78.3hPa | 2.7V | 18:12:15 | 01:20:45 | 00:00:00 | |
| DO2SHX-10 | 2026-09-01 04:52:26 | 52.67666 | 8.26142 | 80° | 37km/h | 18039m | 3.8m/s | -50.3°C | 3.4% | 78.3hPa | 2.7V | 00:00:00 | 01:20:45 | 00:00:00 | |
| DL1NUX | 2026-09-01 04:52:25 | 52.67653 | 8.26054 | 73° | 37km/h | 18010m | 4.3m/s | -50.3°C | 3.4% | 78.7hPa | 2.6V | 08:30:00 | 01:20:39 | 00:00:00 | |
| DB0DAN | 2026-09-01 04:52:25 | 52.67664 | 8.26127 | 79° | 37km/h | 18034m | 5.1m/s | -50.3°C | 1.1% | 78.38hPa | 2.6V | 00:00:00 | 00:00:00 | 00:00:00 | |
| DF8AY | 2026-09-01 04:52:23 | 52.67660 | 8.26097 | 78° | 37km/h | 18025m | 4.4m/s | -50.3°C | 0.3% | 78.5hPa | 2.6V | 18:12:15 | 01:20:42 | 00:00:00 | |
| AA1-15 | 2026-09-01 04:52:20 | 52.67653 | 8.26054 | 73° | 37km/h | 18010m | 4.3m/s | -50.3°C | 0.4% | 78.7hPa | 2.6V | 18:12:15 | 01:20:39 | 00:00:00 | |
| DL8DAS-14 | 2026-09-01 04:52:20 | 52.67650 | 8.26039 | 74° | 38km/h | 18005m | 5.4m/s | -50.4°C | -1.0% | 78.7hPa | 2.6V | 00:00:00 | 00:00:00 | 00:00:00 | |
| DL1XH-15 | 2026-09-01 04:52:19 | 52.67636 | 8.25958 | 72° | 38km/h | 17983m | 4.3m/s | -50.5°C | 3.5% | 79hPa | 2.6V | 08:30:00 | 01:20:33 | 00:00:00 | |
| BIOWL1-15 | 2026-09-01 04:52:18 | 52.67648 | 8.26023 | 77° | 40km/h | 18001m | 3.2m/s | -50.4°C | 0.4% | 78.8hPa | 2.6V | 18:12:15 | 01:20:37 | 00:00:00 | |
| DL1XH-west | 2026-09-01 04:52:17 | 52.67645 | 8.26006 | 75° | 42km/h | 17997m | 4.2m/s | -50.5°C | 0.4% | 78.8hPa | 2.7V | 18:12:15 | 01:20:36 | 00:00:00 | |
| HSKMA3-T | 2026-09-01 04:52:16 | 52.67642 | 8.25990 | 72° | 42km/h | 17992m | 5.3m/s | -50.5°C | 0.4% | 78.9hPa | 2.7V | 18:12:15 | 01:20:35 | 00:00:00 | |
| DF8AY | 2026-09-01 04:52:12 | 52.67631 | 8.25927 | 81° | 38km/h | 17973m | 4.4m/s | -50.6°C | 0.4% | 79.1hPa | 2.6V | 18:12:15 | 01:20:31 | 00:00:00 | |
| GOEST3-10 | 2026-09-01 04:52:11 | 52.67630 | 8.25911 | 81° | 37km/h | 17969m | 3.8m/s | -50.6°C | 3.5% | 79.1hPa | 2.7V | 00:00:00 | 00:00:00 | 08:30:00 | |
| DL1XH1-15 | 2026-09-01 04:52:10 | 52.67615 | 8.25825 | 66° | 35km/h | 17940m | 5.7m/s | -50.7°C | 3.5% | 79.6hPa | 2.7V | 08:30:00 | 01:20:24 | 00:00:00 | |
| DB0DAN | 2026-09-01 04:52:10 | 52.67628 | 8.25896 | 77° | 37km/h | 17964m | 5.4m/s | -50.7°C | 1.1% | 79.24hPa | 2.7V | 00:00:00 | 00:00:00 | 00:00:00 | |
| AA1-15 | 2026-09-01 04:52:10 | 52.67628 | 8.25896 | 77° | 38km/h | 17964m | 5.4m/s | -50.7°C | 0.4% | 79.2hPa | 2.7V | 18:12:15 | 01:20:29 | 00:00:00 | |
| DD8BA-10 | 2026-09-01 04:52:10 | 52.67628 | 8.25896 | 77° | 35km/h | 17964m | 5.4m/s | -50.6°C | 3.5% | 79.2hPa | 2.7V | 00:00:00 | 00:00:00 | 00:00:00 | |
| DO2KSM | 2026-09-01 04:52:09 | 52.67628 | 8.25896 | 78° | 38km/h | 17964m | 5.4m/s | -50.7°C | 1.1% | 79.2hPa | 2.6V | 00:00:00 | 00:00:00 | 00:00:00 | |
| DL1XH-15 | 2026-09-01 04:52:08 | 52.67607 | 8.25800 | 63° | 33km/h | 17930m | 3.9m/s | -50.6°C | 3.5% | 79.7hPa | 2.6V | 08:30:00 | 01:20:22 | 00:00:00 | |
| DO2JMG | 2026-09-01 04:52:07 | 52.67620 | 8.25852 | 74° | 35km/h | 17950m | 5.2m/s | -50.7°C | 0.4% | 79.4hPa | 2.6V | 18:12:15 | 01:20:26 | 00:00:00 | |
| DL1XH-west | 2026-09-01 04:52:06 | 52.67618 | 8.25839 | 72° | 35km/h | 17944m | 4.6m/s | -50.7°C | 0.4% | 79.5hPa | 2.7V | 18:12:15 | 01:20:25 | 00:00:00 | |
| HSKMA3-T | 2026-09-01 04:52:05 | 52.67615 | 8.25825 | 67° | 35km/h | 17940m | 5.7m/s | -50.7°C | 0.5% | 79.6hPa | 2.7V | 18:12:15 | 01:20:24 | 00:00:00 | |
| DF8AY | 2026-09-01 04:52:02 | 52.67604 | 8.25787 | 66° | 33km/h | 17925m | 5.5m/s | -50.7°C | 0.5% | 79.7hPa | 2.6V | 18:12:15 | 01:20:21 | 00:00:00 | |
| DL4XJ-10 | 2026-09-01 04:52:02 | 52.67603 | 8.25787 | 66° | 33km/h | 17925m | 5.5m/s | -53.2°C | 0% | 0hPa | 2.6V | 00:00:00 | 00:00:00 | 00:00:00 | |
| SMARD9-15 | 2026-09-01 04:52:01 | 52.67598 | 8.25762 | 70° | 33km/h | 17916m | 4.5m/s | -50.7°C | 1.1% | 79.8hPa | 2.6V | 00:00:00 | 00:00:00 | 00:00:00 | |
| DM0DOS-11 | 2026-09-01 04:52:00 | 52.67583 | 8.25694 | 73° | 35km/h | 17892m | 4.2m/s | -50.7°C | 3.5% | 80.2hPa | 2.6V | 08:30:00 | 01:20:14 | 00:00:00 | |
| AA1-15 | 2026-09-01 04:51:59 | 52.67595 | 8.25748 | 68° | 35km/h | 17910m | 5.2m/s | -50.7°C | 0.4% | 79.9hPa | 2.7V | 18:12:15 | 01:20:18 | 00:00:00 | |
| DO2JMG | 2026-09-01 04:51:57 | 52.67588 | 8.25721 | 71° | 35km/h | 17902m | 4.5m/s | -50.7°C | 0.5% | 80hPa | 2.7V | 18:12:15 | 01:20:16 | 00:00:00 | |
| DL1XH-west | 2026-09-01 04:51:55 | 52.67583 | 8.25694 | 74° | 35km/h | 17892m | 4.2m/s | -50.7°C | 0.5% | 80.2hPa | 2.6V | 18:12:15 | 01:20:14 | 00:00:00 | |
| DB0DAN | 2026-09-01 04:51:55 | 52.67583 | 8.25694 | 73° | 33km/h | 17892m | 4.2m/s | -50.7°C | 1.1% | 80.15hPa | 2.6V | 00:00:00 | 00:00:00 | 00:00:00 | |
| HSKMA3-T | 2026-09-01 04:51:54 | 52.67580 | 8.25681 | 68° | 33km/h | 17887m | 5.7m/s | -50.7°C | 0.5% | 80.2hPa | 2.6V | 18:12:15 | 01:20:13 | 00:00:00 | |
| DF8AY | 2026-09-01 04:51:51 | 52.67570 | 8.25641 | 70° | 35km/h | 17873m | 5.8m/s | -50.7°C | 0.4% | 80.4hPa | 2.6V | 18:12:15 | 01:20:10 | 00:00:00 | |
| DL3AQ-11 | 2026-09-01 04:51:51 | 52.67567 | 8.25628 | 72° | 33km/h | 17868m | 4.1m/s | -50.7°C | 1.1% | 80.4hPa | 2.6V | 00:00:00 | 00:00:00 | 00:00:00 | |
| DL1XH1-15 | 2026-09-01 04:51:50 | 52.67553 | 8.25561 | 74° | 31km/h | 17843m | 4.9m/s | -50.8°C | 3.6% | 80.7hPa | 2.6V | 08:30:00 | 01:20:04 | 00:00:00 | |
| DD8BA-10 | 2026-09-01 04:51:50 | 52.67567 | 8.25628 | 73° | 33km/h | 17868m | 4.1m/s | -50.7°C | 3.5% | 80.4hPa | 2.6V | 00:00:00 | 00:00:00 | 00:00:00 | |
| DO2SHX-10 | 2026-09-01 04:51:49 | 52.67565 | 8.25614 | 73° | 35km/h | 17864m | 4.4m/s | -50.7°C | 3.5% | 80.4hPa | 2.6V | 00:00:00 | 01:20:08 | 00:00:00 | |
| DL1XH-15 | 2026-09-01 04:51:48 | 52.67549 | 8.25537 | 71° | 29km/h | 17835m | 4.4m/s | -50.8°C | 3.5% | 80.8hPa | 2.6V | 08:30:00 | 01:20:02 | 00:00:00 | |
| AA1-15 | 2026-09-01 04:51:48 | 52.67562 | 8.25601 | 69° | 35km/h | 17858m | 6.1m/s | -50.8°C | 0.4% | 80.5hPa | 2.7V | 18:12:15 | 01:20:07 | 00:00:00 | |
| DO2JMG | 2026-09-01 04:51:46 | 52.67556 | 8.25574 | 71° | 33km/h | 17848m | 4.7m/s | -50.8°C | 0.4% | 80.7hPa | 2.7V | 18:12:15 | 01:20:05 | 00:00:00 | |
| DL1XH-west | 2026-09-01 04:51:45 | 52.67553 | 8.25561 | 74° | 31km/h | 17843m | 4.9m/s | -50.8°C | 0.5% | 80.7hPa | 2.6V | 18:12:15 | 01:20:04 | 00:00:00 | |
| DL8OAI-8 | 2026-09-01 04:51:44 | 52.67553 | 8.25561 | 75° | 31km/h | 17843m | 4.9m/s | -50.8°C | 1.2% | 80.7hPa | 2.6V | 00:00:00 | 00:00:00 | 00:00:00 | |
| DL1NUX | 2026-09-01 04:51:43 | 52.67537 | 8.25475 | 74° | 33km/h | 17811m | 4m/s | -50.8°C | 3.5% | 81.1hPa | 2.6V | 08:30:00 | 01:19:57 | 00:00:00 | |
| HSKMA3-T | 2026-09-01 04:51:43 | 52.67549 | 8.25537 | 71° | 29km/h | 17835m | 4.4m/s | -50.8°C | 0.5% | 80.8hPa | 2.6V | 18:12:15 | 01:20:02 | 00:00:00 | |
| DF8AY | 2026-09-01 04:51:41 | 52.67544 | 8.25513 | 70° | 31km/h | 17825m | 4.3m/s | -50.8°C | 0.5% | 81hPa | 2.7V | 18:12:15 | 01:20:00 | 00:00:00 | |
| GOEST3-10 | 2026-09-01 04:51:41 | 52.67543 | 8.25513 | 71° | 33km/h | 17826m | 4.2m/s | -50.7°C | 3.5% | 80.9hPa | 2.7V | 00:00:00 | 00:00:00 | 00:00:00 | |
| DL1XH1-15 | 2026-09-01 04:51:40 | 52.67529 | 8.25436 | 68° | 31km/h | 17797m | 4.5m/s | -50.8°C | 3.5% | 81.3hPa | 2.7V | 08:30:00 | 01:19:54 | 00:00:00 | |
| DB0DAN | 2026-09-01 04:51:40 | 52.67541 | 8.25501 | 73° | 31km/h | 17820m | 5.8m/s | -50.8°C | 1.1% | 81.01hPa | 2.6V | 00:00:00 | 00:00:00 | 00:00:00 | |
| DO2SHX-10 | 2026-09-01 04:51:40 | 52.67541 | 8.25501 | 74° | 33km/h | 17820m | 5.7m/s | -50.7°C | 3.5% | 81.0hPa | 2.6V | 00:00:00 | 01:19:59 | 08:30:00 | |
| D01LWL | 2026-09-01 04:51:39 | 52.67537 | 8.25475 | 74° | 33km/h | 17811m | 4.0m/s | -50.8°C | 1.1% | 81.1hPa | 2.6V | 00:00:00 | 00:00:00 | 00:00:00 | |
| DL1XH-15 | 2026-09-01 04:51:38 | 52.67524 | 8.25412 | 73° | 29km/h | 17787m | 4m/s | -50.8°C | 3.6% | 81.4hPa | 2.6V | 08:30:00 | 01:19:52 | 00:00:00 | |
| AA1-15 | 2026-09-01 04:51:37 | 52.67534 | 8.25461 | 72° | 33km/h | 17806m | 5.7m/s | -50.8°C | 0.5% | 81.2hPa | 2.7V | 18:12:15 | 01:19:56 | 00:00:00 | |
| BIOWL1-15 | 2026-09-01 04:51:37 | 52.67529 | 8.25436 | 69° | 31km/h | 17797m | 4.5m/s | -50.8°C | 0.5% | 81.3hPa | 2.7V | 18:12:15 | 01:19:54 | 00:00:00 | |
| DO2JMG | 2026-09-01 04:51:36 | 52.67532 | 8.25449 | 69° | 33km/h | 17801m | 4.3m/s | -50.7°C | 0.5% | 81.3hPa | 2.7V | 18:12:15 | 01:19:55 | 00:00:00 | |
| DL1XH-west | 2026-09-01 04:51:34 | 52.67526 | 8.25424 | 73° | 31km/h | 17792m | 5.4m/s | -50.8°C | 0.5% | 81.3hPa | 2.6V | 18:12:15 | 01:19:53 | 00:00:00 | |
| HSKMA3-T | 2026-09-01 04:51:33 | 52.67524 | 8.25412 | 73° | 29km/h | 17787m | 4m/s | -50.8°C | 0.5% | 81.4hPa | 2.6V | 18:12:15 | 01:19:52 | 00:00:00 | |
| DO2SHX-10 | 2026-09-01 04:51:33 | 52.67524 | 8.25412 | 74° | 31km/h | 17787m | 3.9m/s | -50.7°C | 3.6% | 81.4hPa | 2.6V | 00:00:00 | 01:19:52 | 00:00:00 | |
| DL1NUX | 2026-09-01 04:51:32 | 52.67503 | 8.25341 | 60° | 33km/h | 17759m | 4.7m/s | -50.6°C | 3.5% | 81.8hPa | 2.6V | 08:30:00 | 01:19:46 | 00:00:00 | |
| DF8AY | 2026-09-01 04:51:31 | 52.67515 | 8.25376 | 61° | 33km/h | 17773m | 4.7m/s | 0°C | 0% | 81.6hPa | 2.7V | 18:12:15 | 01:19:49 | 00:00:00 | |
| DD8BA-10 | 2026-09-01 04:51:31 | 52.67514 | 8.25376 | 61° | 37km/h | 17773m | 4.7m/s | -50.7°C | 3.5% | 81.5hPa | 2.6V | 00:00:00 | 00:00:00 | 00:00:00 | |
| SMARD9-15 | 2026-09-01 04:51:30 | 52.67511 | 8.25364 | 60° | 31km/h | 17769m | 4.9m/s | -50.7°C | 1.2% | 81.7hPa | 2.6V | 00:00:00 | 00:00:00 | 00:00:00 | |
| DJ2DS-15 | 2026-09-01 04:51:29 | 52.67507 | 8.25353 | 60° | 33km/h | 17764m | 5.0m/s | -50.7°C | 1.1% | 81.7hPa | 2.6V | 00:00:00 | 00:00:00 | 00:00:00 | |
| DL1XH-15 | 2026-09-01 04:51:28 | 52.67485 | 8.25286 | 67° | 38km/h | 17739m | 5.8m/s | -50.6°C | 3.5% | 82.1hPa | 2.6V | 08:30:00 | 01:19:42 | 00:00:00 | |
| AA1-15 | 2026-09-01 04:51:26 | 52.67498 | 8.25328 | 59° | 37km/h | 17753m | 6.1m/s | -50.6°C | 0.5% | 81.8hPa | 2.7V | 18:12:15 | 01:19:45 | 00:00:00 | |
| DB0DAN | 2026-09-01 04:51:25 | 52.67493 | 8.25315 | 60° | 37km/h | 17748m | 4.4m/s | -50.6°C | 1.1% | 81.95hPa | 2.7V | 00:00:00 | 00:00:00 | 00:00:00 | |
| DO2JMG | 2026-09-01 04:51:25 | 52.67493 | 8.25315 | 60° | 38km/h | 17748m | 4.4m/s | -50.6°C | 0.5% | 82hPa | 2.7V | 18:12:15 | 01:19:44 | 00:00:00 | |
| BIOWL1-15 | 2026-09-01 04:51:24 | 52.67489 | 8.25301 | 64° | 38km/h | 17744m | 4.3m/s | -50.6°C | 0.5% | 82hPa | 2.7V | 18:12:15 | 01:19:43 | 00:00:00 | |
| DL1XH-west | 2026-09-01 04:51:23 | 52.67485 | 8.25286 | 67° | 38km/h | 17739m | 5.8m/s | -50.6°C | 0.5% | 82.1hPa | 2.6V | 18:12:15 | 01:19:42 | 00:00:00 | |
| DL4XJ-10 | 2026-09-01 04:51:22 | 52.67481 | 8.25271 | 71° | 38km/h | 17734m | 3.8m/s | -53.1°C | 0% | 0hPa | 2.6V | 00:00:00 | 00:00:00 | 00:00:00 | |
| DL1NUX | 2026-09-01 04:51:21 | 52.67458 | 8.25181 | 67° | 37km/h | 17706m | 4.5m/s | -50.6°C | 3.4% | 82.5hPa | 2.6V | 08:30:00 | 01:19:35 | 00:00:00 | |
| DO2SHX-10 | 2026-09-01 04:51:21 | 52.67478 | 8.25255 | 71° | 40km/h | 17730m | 4.5m/s | -50.5°C | 3.5% | 82.1hPa | 2.6V | 00:00:00 | 01:19:40 | 00:00:00 | |
| DL1XH1-15 | 2026-09-01 04:51:20 | 52.67455 | 8.25167 | 68° | 38km/h | 17700m | 5.3m/s | -50.5°C | 3.4% | 82.5hPa | 2.7V | 08:30:00 | 01:19:34 | 00:00:00 | |
| DF8AY | 2026-09-01 04:51:20 | 52.67474 | 8.25239 | 68° | 40km/h | 17724m | 5.5m/s | 0°C | 0% | 0hPa | 2.7V | 18:12:15 | 01:19:39 | 00:00:00 | |
| DD8BA-10 | 2026-09-01 04:51:20 | 52.67474 | 8.25239 | 68° | 38km/h | 17725m | 5.4m/s | -50.5°C | 3.5% | 82.2hPa | 2.7V | 00:00:00 | 00:00:00 | 00:00:00 | |
| DD1CC9-15 | 2026-09-01 04:51:19 | 52.67474 | 8.25239 | 69° | 40km/h | 17725m | 5.5m/s | -50.5°C | 1.2% | 82.2hPa | 2.7V | 00:00:00 | 00:00:00 | 00:00:00 | |
| DL1XH-15 | 2026-09-01 04:51:18 | 52.67448 | 8.25137 | 72° | 38km/h | 17691m | 4.2m/s | -50.5°C | 3.5% | 82.6hPa | 2.7V | 08:30:00 | 01:19:32 | 00:00:00 | |
| AA1-15 | 2026-09-01 04:51:15 | 52.67455 | 8.25167 | 69° | 38km/h | 17700m | 5.3m/s | -50.6°C | 0.4% | 82.5hPa | 2.7V | 18:12:15 | 01:19:34 | 00:00:00 | |
| DO2JMG | 2026-09-01 04:51:14 | 52.67451 | 8.25152 | 70° | 38km/h | 17695m | 4.7m/s | -50.6°C | 0.4% | 82.6hPa | 2.7V | 18:12:15 | 01:19:33 | 00:00:00 | |
| DL1XH-west | 2026-09-01 04:51:12 | 52.67446 | 8.25122 | 73° | 37km/h | 17686m | 5.8m/s | -50.5°C | 0.5% | 82.7hPa | 2.6V | 18:12:15 | 01:19:31 | 00:00:00 | |
| DO2SHX-10 | 2026-09-01 04:51:12 | 52.67445 | 8.25122 | 74° | 37km/h | 17686m | 5.7m/s | -50.5°C | 3.5% | 82.7hPa | 2.6V | 00:00:00 | 01:19:31 | 08:30:00 | |
| DL3AQ-11 | 2026-09-01 04:51:11 | 52.67440 | 8.25094 | 70° | 35km/h | 17676m | 5.3m/s | -50.5°C | 1.1% | 82.8hPa | 2.6V | 00:00:00 | 00:00:00 | 00:00:00 | |
| DL1XH1-15 | 2026-09-01 04:51:10 | 52.67421 | 8.25027 | 58° | 37km/h | 17651m | 5.5m/s | -50.5°C | 3.5% | 83.1hPa | 2.6V | 08:30:00 | 01:19:24 | 00:00:00 | |
| DF8AY | 2026-09-01 04:51:09 | 52.67437 | 8.25080 | 67° | 37km/h | 17671m | 5m/s | 0°C | 0% | 0hPa | 2.6V | 18:12:15 | 01:19:28 | 00:00:00 | |
| DO2SHX-10 | 2026-09-01 04:51:09 | 52.67437 | 8.25080 | 68° | 37km/h | 17671m | 4.9m/s | -50.5°C | 3.4% | 82.9hPa | 2.6V | 00:00:00 | 01:19:28 | 00:00:00 | |
| DL1XH-15 | 2026-09-01 04:51:08 | 52.67411 | 8.25001 | 59° | 38km/h | 17642m | 4.2m/s | -50.5°C | 3.5% | 83.3hPa | 2.6V | 08:30:00 | 01:19:22 | 00:00:00 | |
| AA1-15 | 2026-09-01 04:51:05 | 52.67421 | 8.25027 | 59° | 37km/h | 17652m | 5.5m/s | -50.5°C | 0.5% | 83.1hPa | 2.6V | 18:12:15 | 01:19:24 | 00:00:00 | |
| DO2JMG | 2026-09-01 04:51:03 | 52.67411 | 8.25001 | 59° | 38km/h | 17642m | 4.2m/s | -50.5°C | 0.4% | 83.3hPa | 2.6V | 18:12:15 | 01:19:22 | 00:00:00 | |
| DL1XH-west | 2026-09-01 04:51:01 | 52.67402 | 8.24973 | 63° | 38km/h | 17631m | 4.6m/s | -50.5°C | 0.4% | 83.4hPa | 2.7V | 18:12:15 | 01:19:20 | 00:00:00 | |
| GOEST3-10 | 2026-09-01 04:51:01 | 52.67401 | 8.24973 | 64° | 40km/h | 17631m | 4.6m/s | -50.4°C | 3.4% | 83.4hPa | 2.7V | 00:00:00 | 00:00:00 | 00:00:00 | |
| Es werden nur die letzten 3500 von 6156 Frames angezeigt. GPX/KML und Diagramme bleiben verfügbar. | |||||||||||||||